<?xml version='1.0' encoding='UTF-8'?><gpx version="1.1" creator="JPX - https://github.com/jenetics/jpx" xmlns="http://www.topografix.com/GPX/1/1"><trk><trkseg><trkpt lat="38.1740183" lon="15.6708867"><ele>101.0</ele><time>2026-04-07T06:32:51.788Z</time></trkpt><trkpt lat="38.1739433" lon="15.670845"><ele>101.0</ele><time>2026-04-07T06:32:55.788Z</time></trkpt><trkpt lat="38.1738583" lon="15.6707217"><ele>101.0</ele><time>2026-04-07T06:32:58.788Z</time></trkpt><trkpt lat="38.173825" lon="15.67063"><ele>101.0</ele><time>2026-04-07T06:33:00.788Z</time></trkpt><trkpt lat="38.173825" lon="15.6705283"><ele>101.0</ele><time>2026-04-07T06:33:02.788Z</time></trkpt><trkpt lat="38.1738467" lon="15.6704"><ele>100.99999999999999</ele><time>2026-04-07T06:33:04.789Z</time></trkpt><trkpt lat="38.1738933" lon="15.6703167"><ele>101.0</ele><time>2026-04-07T06:33:06.789Z</time></trkpt><trkpt lat="38.1739967" lon="15.67025"><ele>101.0</ele><time>2026-04-07T06:33:08.788Z</time></trkpt><trkpt lat="38.1740617" lon="15.6702583"><ele>101.0</ele><time>2026-04-07T06:33:09.788Z</time></trkpt><trkpt lat="38.1741467" lon="15.6702983"><ele>100.99999999999999</ele><time>2026-04-07T06:33:10.788Z</time></trkpt><trkpt lat="38.1742317" lon="15.6703317"><ele>101.0</ele><time>2026-04-07T06:33:11.788Z</time></trkpt><trkpt lat="38.1742983" lon="15.670365"><ele>101.4</ele><time>2026-04-07T06:33:12.789Z</time></trkpt><trkpt lat="38.1744033" lon="15.6703167"><ele>101.8</ele><time>2026-04-07T06:33:14.788Z</time></trkpt><trkpt lat="38.1744417" lon="15.670235"><ele>102.2</ele><time>2026-04-07T06:33:15.788Z</time></trkpt><trkpt lat="38.17446" lon="15.670105"><ele>102.60000000000001</ele><time>2026-04-07T06:33:16.788Z</time></trkpt><trkpt lat="38.1744733" lon="15.6699517"><ele>103.0</ele><time>2026-04-07T06:33:17.789Z</time></trkpt><trkpt lat="38.17449" lon="15.6698017"><ele>102.0</ele><time>2026-04-07T06:33:18.789Z</time></trkpt><trkpt lat="38.1745117" lon="15.6696683"><ele>101.0</ele><time>2026-04-07T06:33:19.789Z</time></trkpt><trkpt lat="38.1745383" lon="15.66953"><ele>100.0</ele><time>2026-04-07T06:33:20.789Z</time></trkpt><trkpt lat="38.174575" lon="15.6693933"><ele>99.0</ele><time>2026-04-07T06:33:21.788Z</time></trkpt><trkpt lat="38.174615" lon="15.669255"><ele>98.0</ele><time>2026-04-07T06:33:22.788Z</time></trkpt><trkpt lat="38.1746433" lon="15.6691083"><ele>97.0</ele><time>2026-04-07T06:33:23.788Z</time></trkpt><trkpt lat="38.1746667" lon="15.6689567"><ele>96.0</ele><time>2026-04-07T06:33:24.788Z</time></trkpt><trkpt lat="38.1746817" lon="15.6688"><ele>95.0</ele><time>2026-04-07T06:33:25.788Z</time></trkpt><trkpt lat="38.1746967" lon="15.6686333"><ele>94.0</ele><time>2026-04-07T06:33:26.789Z</time></trkpt><trkpt lat="38.174715" lon="15.6684683"><ele>92.75</ele><time>2026-04-07T06:33:27.788Z</time></trkpt><trkpt lat="38.1747233" lon="15.668305"><ele>91.5</ele><time>2026-04-07T06:33:28.789Z</time></trkpt><trkpt lat="38.1747217" lon="15.668155"><ele>90.25</ele><time>2026-04-07T06:33:29.788Z</time></trkpt><trkpt lat="38.1747117" lon="15.668015"><ele>89.0</ele><time>2026-04-07T06:33:30.788Z</time></trkpt><trkpt lat="38.17469" lon="15.6678767"><ele>87.83333333333334</ele><time>2026-04-07T06:33:31.788Z</time></trkpt><trkpt lat="38.1746783" lon="15.6677533"><ele>86.66666666666667</ele><time>2026-04-07T06:33:32.788Z</time></trkpt><trkpt lat="38.17468" lon="15.66764"><ele>85.5</ele><time>2026-04-07T06:33:33.788Z</time></trkpt><trkpt lat="38.1747" lon="15.6675483"><ele>84.33333333333333</ele><time>2026-04-07T06:33:34.788Z</time></trkpt><trkpt lat="38.1747517" lon="15.6674567"><ele>83.16666666666666</ele><time>2026-04-07T06:33:35.789Z</time></trkpt><trkpt lat="38.17481" lon="15.667365"><ele>82.0</ele><time>2026-04-07T06:33:36.788Z</time></trkpt><trkpt lat="38.17487" lon="15.6672733"><ele>81.83333333333333</ele><time>2026-04-07T06:33:37.789Z</time></trkpt><trkpt lat="38.174925" lon="15.6671733"><ele>81.66666666666666</ele><time>2026-04-07T06:33:38.789Z</time></trkpt><trkpt lat="38.1749667" lon="15.6670683"><ele>81.5</ele><time>2026-04-07T06:33:39.789Z</time></trkpt><trkpt lat="38.17501" lon="15.6669783"><ele>81.33333333333333</ele><time>2026-04-07T06:33:40.788Z</time></trkpt><trkpt lat="38.17505" lon="15.6668967"><ele>81.16666666666667</ele><time>2026-04-07T06:33:41.789Z</time></trkpt><trkpt lat="38.17508" lon="15.6668217"><ele>81.0</ele><time>2026-04-07T06:33:42.789Z</time></trkpt><trkpt lat="38.1751333" lon="15.666775"><ele>81.0</ele><time>2026-04-07T06:33:44.789Z</time></trkpt><trkpt lat="38.175205" lon="15.666815"><ele>81.0</ele><time>2026-04-07T06:33:46.788Z</time></trkpt><trkpt lat="38.1752567" lon="15.6668717"><ele>81.0</ele><time>2026-04-07T06:33:47.788Z</time></trkpt><trkpt lat="38.175335" lon="15.6669367"><ele>81.0</ele><time>2026-04-07T06:33:48.788Z</time></trkpt><trkpt lat="38.17543" lon="15.6669983"><ele>81.0</ele><time>2026-04-07T06:33:49.788Z</time></trkpt><trkpt lat="38.1755217" lon="15.6670583"><ele>81.0</ele><time>2026-04-07T06:33:50.788Z</time></trkpt><trkpt lat="38.1756167" lon="15.667115"><ele>81.0</ele><time>2026-04-07T06:33:51.788Z</time></trkpt><trkpt lat="38.1757117" lon="15.66717"><ele>81.0</ele><time>2026-04-07T06:33:52.788Z</time></trkpt><trkpt lat="38.175815" lon="15.6672467"><ele>81.0</ele><time>2026-04-07T06:33:53.789Z</time></trkpt><trkpt lat="38.175915" lon="15.66731"><ele>81.0</ele><time>2026-04-07T06:33:54.788Z</time></trkpt><trkpt lat="38.176005" lon="15.6673717"><ele>81.33333333333333</ele><time>2026-04-07T06:33:55.788Z</time></trkpt><trkpt lat="38.1760867" lon="15.6674283"><ele>81.66666666666667</ele><time>2026-04-07T06:33:56.788Z</time></trkpt><trkpt lat="38.176165" lon="15.66746"><ele>82.0</ele><time>2026-04-07T06:33:57.788Z</time></trkpt><trkpt lat="38.1762417" lon="15.6674583"><ele>82.33333333333334</ele><time>2026-04-07T06:33:58.788Z</time></trkpt><trkpt lat="38.176315" lon="15.66744"><ele>82.66666666666667</ele><time>2026-04-07T06:33:59.789Z</time></trkpt><trkpt lat="38.1763717" lon="15.6673717"><ele>83.0</ele><time>2026-04-07T06:34:00.789Z</time></trkpt><trkpt lat="38.1764183" lon="15.6672967"><ele>83.0</ele><time>2026-04-07T06:34:01.789Z</time></trkpt><trkpt lat="38.1764467" lon="15.6671933"><ele>83.0</ele><time>2026-04-07T06:34:02.788Z</time></trkpt><trkpt lat="38.176465" lon="15.66705"><ele>83.0</ele><time>2026-04-07T06:34:03.788Z</time></trkpt><trkpt lat="38.1764983" lon="15.666895"><ele>83.0</ele><time>2026-04-07T06:34:04.788Z</time></trkpt><trkpt lat="38.1765217" lon="15.6667333"><ele>83.0</ele><time>2026-04-07T06:34:05.789Z</time></trkpt><trkpt lat="38.1765583" lon="15.666595"><ele>83.0</ele><time>2026-04-07T06:34:06.789Z</time></trkpt><trkpt lat="38.1766067" lon="15.666485"><ele>83.0</ele><time>2026-04-07T06:34:07.789Z</time></trkpt><trkpt lat="38.1766583" lon="15.666415"><ele>83.0</ele><time>2026-04-07T06:34:08.788Z</time></trkpt><trkpt lat="38.1767217" lon="15.6663967"><ele>83.0</ele><time>2026-04-07T06:34:09.788Z</time></trkpt><trkpt lat="38.1767933" lon="15.666415"><ele>83.0</ele><time>2026-04-07T06:34:10.788Z</time></trkpt><trkpt lat="38.17687" lon="15.6664633"><ele>83.0</ele><time>2026-04-07T06:34:11.788Z</time></trkpt><trkpt lat="38.176955" lon="15.6665417"><ele>83.0</ele><time>2026-04-07T06:34:12.788Z</time></trkpt><trkpt lat="38.1770383" lon="15.666655"><ele>83.0</ele><time>2026-04-07T06:34:13.788Z</time></trkpt><trkpt lat="38.1771083" lon="15.6667767"><ele>83.0</ele><time>2026-04-07T06:34:14.788Z</time></trkpt><trkpt lat="38.1771833" lon="15.6668767"><ele>83.5</ele><time>2026-04-07T06:34:15.789Z</time></trkpt><trkpt lat="38.1772717" lon="15.66697"><ele>84.0</ele><time>2026-04-07T06:34:16.788Z</time></trkpt><trkpt lat="38.177375" lon="15.6670583"><ele>84.5</ele><time>2026-04-07T06:34:17.788Z</time></trkpt><trkpt lat="38.1774833" lon="15.6671433"><ele>85.0</ele><time>2026-04-07T06:34:18.788Z</time></trkpt><trkpt lat="38.1775767" lon="15.6672117"><ele>85.0</ele><time>2026-04-07T06:34:19.788Z</time></trkpt><trkpt lat="38.17764" lon="15.6672733"><ele>85.0</ele><time>2026-04-07T06:34:20.788Z</time></trkpt><trkpt lat="38.1777083" lon="15.6673817"><ele>85.0</ele><time>2026-04-07T06:34:22.789Z</time></trkpt><trkpt lat="38.1777217" lon="15.66746"><ele>85.0</ele><time>2026-04-07T06:34:23.789Z</time></trkpt><trkpt lat="38.1777133" lon="15.6675467"><ele>85.0</ele><time>2026-04-07T06:34:24.789Z</time></trkpt><trkpt lat="38.1776733" lon="15.6676383"><ele>85.0</ele><time>2026-04-07T06:34:25.788Z</time></trkpt><trkpt lat="38.1776167" lon="15.6677267"><ele>85.4</ele><time>2026-04-07T06:34:26.788Z</time></trkpt><trkpt lat="38.1775833" lon="15.66781"><ele>85.8</ele><time>2026-04-07T06:34:27.788Z</time></trkpt><trkpt lat="38.1775817" lon="15.6679483"><ele>86.19999999999999</ele><time>2026-04-07T06:34:29.789Z</time></trkpt><trkpt lat="38.1776683" lon="15.66806"><ele>86.6</ele><time>2026-04-07T06:34:31.788Z</time></trkpt><trkpt lat="38.17772" lon="15.6681267"><ele>87.0</ele><time>2026-04-07T06:34:32.789Z</time></trkpt><trkpt lat="38.17778" lon="15.6682033"><ele>87.0</ele><time>2026-04-07T06:34:33.788Z</time></trkpt><trkpt lat="38.1778317" lon="15.6682867"><ele>87.0</ele><time>2026-04-07T06:34:34.788Z</time></trkpt><trkpt lat="38.1778867" lon="15.6683617"><ele>87.0</ele><time>2026-04-07T06:34:35.788Z</time></trkpt><trkpt lat="38.1779417" lon="15.6684233"><ele>87.0</ele><time>2026-04-07T06:34:36.788Z</time></trkpt><trkpt lat="38.1779883" lon="15.6684967"><ele>87.0</ele><time>2026-04-07T06:34:37.788Z</time></trkpt><trkpt lat="38.17807" lon="15.6686167"><ele>87.0</ele><time>2026-04-07T06:34:39.788Z</time></trkpt><trkpt lat="38.1781667" lon="15.6687217"><ele>86.57142857142857</ele><time>2026-04-07T06:34:41.789Z</time></trkpt><trkpt lat="38.1782233" lon="15.6687683"><ele>86.14285714285714</ele><time>2026-04-07T06:34:42.789Z</time></trkpt><trkpt lat="38.1782817" lon="15.6688233"><ele>85.71428571428572</ele><time>2026-04-07T06:34:43.789Z</time></trkpt><trkpt lat="38.17833" lon="15.6688767"><ele>85.28571428571428</ele><time>2026-04-07T06:34:44.788Z</time></trkpt><trkpt lat="38.1784017" lon="15.6689183"><ele>84.85714285714286</ele><time>2026-04-07T06:34:45.788Z</time></trkpt><trkpt lat="38.1784717" lon="15.6689633"><ele>84.42857142857143</ele><time>2026-04-07T06:34:46.789Z</time></trkpt><trkpt lat="38.1785433" lon="15.669"><ele>84.0</ele><time>2026-04-07T06:34:47.788Z</time></trkpt><trkpt lat="38.1786267" lon="15.669035"><ele>84.0</ele><time>2026-04-07T06:34:48.788Z</time></trkpt><trkpt lat="38.1787117" lon="15.669065"><ele>84.0</ele><time>2026-04-07T06:34:49.788Z</time></trkpt><trkpt lat="38.1788" lon="15.6691"><ele>84.0</ele><time>2026-04-07T06:34:50.788Z</time></trkpt><trkpt lat="38.178885" lon="15.6691383"><ele>84.0</ele><time>2026-04-07T06:34:51.788Z</time></trkpt><trkpt lat="38.1789617" lon="15.6691733"><ele>84.0</ele><time>2026-04-07T06:34:52.788Z</time></trkpt><trkpt lat="38.1790367" lon="15.669205"><ele>84.0</ele><time>2026-04-07T06:34:53.788Z</time></trkpt><trkpt lat="38.17911" lon="15.6692217"><ele>83.6</ele><time>2026-04-07T06:34:54.788Z</time></trkpt><trkpt lat="38.1791933" lon="15.66923"><ele>83.2</ele><time>2026-04-07T06:34:55.789Z</time></trkpt><trkpt lat="38.1792883" lon="15.669225"><ele>82.8</ele><time>2026-04-07T06:34:56.788Z</time></trkpt><trkpt lat="38.1793883" lon="15.6692167"><ele>82.39999999999999</ele><time>2026-04-07T06:34:57.788Z</time></trkpt><trkpt lat="38.1794967" lon="15.6692067"><ele>82.0</ele><time>2026-04-07T06:34:58.788Z</time></trkpt><trkpt lat="38.1796083" lon="15.66921"><ele>82.0</ele><time>2026-04-07T06:34:59.788Z</time></trkpt><trkpt lat="38.179735" lon="15.66922"><ele>82.0</ele><time>2026-04-07T06:35:00.789Z</time></trkpt><trkpt lat="38.17986" lon="15.669255"><ele>82.0</ele><time>2026-04-07T06:35:01.788Z</time></trkpt><trkpt lat="38.1799883" lon="15.6692883"><ele>82.0</ele><time>2026-04-07T06:35:02.789Z</time></trkpt><trkpt lat="38.1801333" lon="15.6692867"><ele>81.0</ele><time>2026-04-07T06:35:03.788Z</time></trkpt><trkpt lat="38.1802817" lon="15.66931"><ele>80.0</ele><time>2026-04-07T06:35:04.788Z</time></trkpt><trkpt lat="38.1804333" lon="15.6693183"><ele>79.0</ele><time>2026-04-07T06:35:05.789Z</time></trkpt><trkpt lat="38.1805833" lon="15.66936"><ele>79.0</ele><time>2026-04-07T06:35:06.788Z</time></trkpt><trkpt lat="38.1807283" lon="15.6693917"><ele>79.0</ele><time>2026-04-07T06:35:07.788Z</time></trkpt><trkpt lat="38.1808817" lon="15.6694233"><ele>79.0</ele><time>2026-04-07T06:35:08.788Z</time></trkpt><trkpt lat="38.181025" lon="15.669465"><ele>79.5</ele><time>2026-04-07T06:35:09.788Z</time></trkpt><trkpt lat="38.1811667" lon="15.6695"><ele>80.0</ele><time>2026-04-07T06:35:10.788Z</time></trkpt><trkpt lat="38.1813117" lon="15.6695283"><ele>80.5</ele><time>2026-04-07T06:35:11.788Z</time></trkpt><trkpt lat="38.181455" lon="15.6695483"><ele>81.0</ele><time>2026-04-07T06:35:12.788Z</time></trkpt><trkpt lat="38.1815867" lon="15.66955"><ele>81.4</ele><time>2026-04-07T06:35:13.788Z</time></trkpt><trkpt lat="38.18171" lon="15.669535"><ele>81.8</ele><time>2026-04-07T06:35:14.789Z</time></trkpt><trkpt lat="38.18181" lon="15.66952"><ele>82.2</ele><time>2026-04-07T06:35:15.788Z</time></trkpt><trkpt lat="38.18189" lon="15.66952"><ele>82.60000000000001</ele><time>2026-04-07T06:35:16.788Z</time></trkpt><trkpt lat="38.1819533" lon="15.6695467"><ele>83.0</ele><time>2026-04-07T06:35:17.789Z</time></trkpt><trkpt lat="38.1820517" lon="15.6696167"><ele>83.0</ele><time>2026-04-07T06:35:19.788Z</time></trkpt><trkpt lat="38.1821167" lon="15.6695467"><ele>83.0</ele><time>2026-04-07T06:35:21.788Z</time></trkpt><trkpt lat="38.1821117" lon="15.6694617"><ele>83.0</ele><time>2026-04-07T06:35:22.789Z</time></trkpt><trkpt lat="38.1820517" lon="15.6693283"><ele>83.0</ele><time>2026-04-07T06:35:23.788Z</time></trkpt><trkpt lat="38.1819533" lon="15.6691683"><ele>83.0</ele><time>2026-04-07T06:35:24.788Z</time></trkpt><trkpt lat="38.1818367" lon="15.668985"><ele>82.66666666666667</ele><time>2026-04-07T06:35:25.788Z</time></trkpt><trkpt lat="38.1817267" lon="15.6687917"><ele>82.33333333333333</ele><time>2026-04-07T06:35:26.788Z</time></trkpt><trkpt lat="38.181615" lon="15.6685917"><ele>82.0</ele><time>2026-04-07T06:35:27.788Z</time></trkpt><trkpt lat="38.1814933" lon="15.668375"><ele>80.66666666666666</ele><time>2026-04-07T06:35:28.788Z</time></trkpt><trkpt lat="38.18137" lon="15.66814"><ele>79.33333333333333</ele><time>2026-04-07T06:35:29.789Z</time></trkpt><trkpt lat="38.1812483" lon="15.6679117"><ele>78.0</ele><time>2026-04-07T06:35:30.788Z</time></trkpt><trkpt lat="38.18113" lon="15.6676767"><ele>77.33333333333333</ele><time>2026-04-07T06:35:31.788Z</time></trkpt><trkpt lat="38.18102" lon="15.66745"><ele>76.66666666666666</ele><time>2026-04-07T06:35:32.788Z</time></trkpt><trkpt lat="38.1809017" lon="15.667225"><ele>76.0</ele><time>2026-04-07T06:35:33.788Z</time></trkpt><trkpt lat="38.1807883" lon="15.667"><ele>75.0</ele><time>2026-04-07T06:35:34.788Z</time></trkpt><trkpt lat="38.18068" lon="15.6667733"><ele>74.0</ele><time>2026-04-07T06:35:35.788Z</time></trkpt><trkpt lat="38.1805733" lon="15.66656"><ele>73.0</ele><time>2026-04-07T06:35:36.788Z</time></trkpt><trkpt lat="38.1804667" lon="15.6663367"><ele>73.0</ele><time>2026-04-07T06:35:37.788Z</time></trkpt><trkpt lat="38.1803567" lon="15.666115"><ele>73.0</ele><time>2026-04-07T06:35:38.788Z</time></trkpt><trkpt lat="38.18024" lon="15.66589"><ele>73.0</ele><time>2026-04-07T06:35:39.789Z</time></trkpt><trkpt lat="38.1801233" lon="15.6656567"><ele>73.33333333333333</ele><time>2026-04-07T06:35:40.788Z</time></trkpt><trkpt lat="38.1800117" lon="15.6654333"><ele>73.66666666666667</ele><time>2026-04-07T06:35:41.788Z</time></trkpt><trkpt lat="38.1798983" lon="15.66521"><ele>74.0</ele><time>2026-04-07T06:35:42.788Z</time></trkpt><trkpt lat="38.1797883" lon="15.6649867"><ele>72.0</ele><time>2026-04-07T06:35:43.788Z</time></trkpt><trkpt lat="38.1796733" lon="15.6647567"><ele>70.0</ele><time>2026-04-07T06:35:44.789Z</time></trkpt><trkpt lat="38.1795633" lon="15.6645317"><ele>68.0</ele><time>2026-04-07T06:35:45.788Z</time></trkpt><trkpt lat="38.17945" lon="15.664295"><ele>68.0</ele><time>2026-04-07T06:35:46.789Z</time></trkpt><trkpt lat="38.179335" lon="15.6640633"><ele>68.0</ele><time>2026-04-07T06:35:47.788Z</time></trkpt><trkpt lat="38.17921" lon="15.663835"><ele>68.0</ele><time>2026-04-07T06:35:48.789Z</time></trkpt><trkpt lat="38.179075" lon="15.6636017"><ele>68.0</ele><time>2026-04-07T06:35:49.789Z</time></trkpt><trkpt lat="38.1789367" lon="15.6633717"><ele>68.0</ele><time>2026-04-07T06:35:50.788Z</time></trkpt><trkpt lat="38.1787967" lon="15.663145"><ele>68.0</ele><time>2026-04-07T06:35:51.788Z</time></trkpt><trkpt lat="38.1786567" lon="15.66291"><ele>68.0</ele><time>2026-04-07T06:35:52.789Z</time></trkpt><trkpt lat="38.17851" lon="15.66268"><ele>66.5</ele><time>2026-04-07T06:35:53.788Z</time></trkpt><trkpt lat="38.17836" lon="15.66245"><ele>65.0</ele><time>2026-04-07T06:35:54.788Z</time></trkpt><trkpt lat="38.178205" lon="15.6622133"><ele>62.5</ele><time>2026-04-07T06:35:55.788Z</time></trkpt><trkpt lat="38.1780483" lon="15.6619783"><ele>60.0</ele><time>2026-04-07T06:35:56.788Z</time></trkpt><trkpt lat="38.1778933" lon="15.6617417"><ele>59.0</ele><time>2026-04-07T06:35:57.788Z</time></trkpt><trkpt lat="38.17773" lon="15.6615083"><ele>58.0</ele><time>2026-04-07T06:35:58.788Z</time></trkpt><trkpt lat="38.17756" lon="15.6612683"><ele>57.5</ele><time>2026-04-07T06:35:59.789Z</time></trkpt><trkpt lat="38.1773867" lon="15.661025"><ele>57.0</ele><time>2026-04-07T06:36:00.788Z</time></trkpt><trkpt lat="38.1772133" lon="15.6607833"><ele>56.5</ele><time>2026-04-07T06:36:01.789Z</time></trkpt><trkpt lat="38.17704" lon="15.6605383"><ele>56.0</ele><time>2026-04-07T06:36:02.788Z</time></trkpt><trkpt lat="38.1768767" lon="15.6602867"><ele>55.0</ele><time>2026-04-07T06:36:03.788Z</time></trkpt><trkpt lat="38.176715" lon="15.6600367"><ele>54.0</ele><time>2026-04-07T06:36:04.788Z</time></trkpt><trkpt lat="38.1765517" lon="15.6597833"><ele>52.0</ele><time>2026-04-07T06:36:05.788Z</time></trkpt><trkpt lat="38.176385" lon="15.659525"><ele>50.0</ele><time>2026-04-07T06:36:06.788Z</time></trkpt><trkpt lat="38.1762183" lon="15.6592683"><ele>50.0</ele><time>2026-04-07T06:36:07.788Z</time></trkpt><trkpt lat="38.17605" lon="15.659015"><ele>50.0</ele><time>2026-04-07T06:36:08.788Z</time></trkpt><trkpt lat="38.1758817" lon="15.6587733"><ele>49.5</ele><time>2026-04-07T06:36:09.788Z</time></trkpt><trkpt lat="38.1757233" lon="15.6585367"><ele>49.0</ele><time>2026-04-07T06:36:10.789Z</time></trkpt><trkpt lat="38.175555" lon="15.6583117"><ele>48.0</ele><time>2026-04-07T06:36:11.788Z</time></trkpt><trkpt lat="38.1753783" lon="15.6581083"><ele>47.0</ele><time>2026-04-07T06:36:12.788Z</time></trkpt><trkpt lat="38.175195" lon="15.6579167"><ele>46.5</ele><time>2026-04-07T06:36:13.788Z</time></trkpt><trkpt lat="38.1750033" lon="15.6577533"><ele>46.0</ele><time>2026-04-07T06:36:14.789Z</time></trkpt><trkpt lat="38.1748067" lon="15.6576067"><ele>44.5</ele><time>2026-04-07T06:36:15.789Z</time></trkpt><trkpt lat="38.1745967" lon="15.65748"><ele>43.0</ele><time>2026-04-07T06:36:16.789Z</time></trkpt><trkpt lat="38.174385" lon="15.6573717"><ele>43.0</ele><time>2026-04-07T06:36:17.788Z</time></trkpt><trkpt lat="38.1741733" lon="15.65728"><ele>43.0</ele><time>2026-04-07T06:36:18.788Z</time></trkpt><trkpt lat="38.1739567" lon="15.6572"><ele>43.0</ele><time>2026-04-07T06:36:19.789Z</time></trkpt><trkpt lat="38.1737433" lon="15.6571233"><ele>42.66666666666667</ele><time>2026-04-07T06:36:20.788Z</time></trkpt><trkpt lat="38.1735383" lon="15.6570533"><ele>42.333333333333336</ele><time>2026-04-07T06:36:21.789Z</time></trkpt><trkpt lat="38.173345" lon="15.6569833"><ele>42.0</ele><time>2026-04-07T06:36:22.788Z</time></trkpt><trkpt lat="38.1731567" lon="15.6569267"><ele>40.333333333333336</ele><time>2026-04-07T06:36:23.788Z</time></trkpt><trkpt lat="38.1729817" lon="15.6568633"><ele>38.66666666666667</ele><time>2026-04-07T06:36:24.788Z</time></trkpt><trkpt lat="38.17281" lon="15.6568"><ele>37.0</ele><time>2026-04-07T06:36:25.788Z</time></trkpt><trkpt lat="38.172635" lon="15.6567417"><ele>37.0</ele><time>2026-04-07T06:36:26.788Z</time></trkpt><trkpt lat="38.1724567" lon="15.6566683"><ele>37.0</ele><time>2026-04-07T06:36:27.789Z</time></trkpt><trkpt lat="38.17228" lon="15.6565867"><ele>37.0</ele><time>2026-04-07T06:36:28.788Z</time></trkpt><trkpt lat="38.1721117" lon="15.65648"><ele>36.66666666666667</ele><time>2026-04-07T06:36:29.789Z</time></trkpt><trkpt lat="38.1719483" lon="15.65635"><ele>36.333333333333336</ele><time>2026-04-07T06:36:30.788Z</time></trkpt><trkpt lat="38.1717983" lon="15.6562033"><ele>36.0</ele><time>2026-04-07T06:36:31.789Z</time></trkpt><trkpt lat="38.1716583" lon="15.6560183"><ele>36.0</ele><time>2026-04-07T06:36:32.789Z</time></trkpt><trkpt lat="38.171535" lon="15.65581"><ele>36.0</ele><time>2026-04-07T06:36:33.789Z</time></trkpt><trkpt lat="38.171425" lon="15.6555867"><ele>36.0</ele><time>2026-04-07T06:36:34.788Z</time></trkpt><trkpt lat="38.1713217" lon="15.655345"><ele>34.666666666666664</ele><time>2026-04-07T06:36:35.789Z</time></trkpt><trkpt lat="38.17124" lon="15.6550933"><ele>33.33333333333333</ele><time>2026-04-07T06:36:36.788Z</time></trkpt><trkpt lat="38.1711567" lon="15.65483"><ele>32.0</ele><time>2026-04-07T06:36:37.788Z</time></trkpt><trkpt lat="38.1710883" lon="15.654565"><ele>31.0</ele><time>2026-04-07T06:36:38.789Z</time></trkpt><trkpt lat="38.17102" lon="15.6542983"><ele>30.0</ele><time>2026-04-07T06:36:39.788Z</time></trkpt><trkpt lat="38.1709483" lon="15.6540267"><ele>29.0</ele><time>2026-04-07T06:36:40.788Z</time></trkpt><trkpt lat="38.1708767" lon="15.653755"><ele>28.666666666666664</ele><time>2026-04-07T06:36:41.788Z</time></trkpt><trkpt lat="38.17081" lon="15.6534867"><ele>28.333333333333336</ele><time>2026-04-07T06:36:42.788Z</time></trkpt><trkpt lat="38.1707583" lon="15.6532367"><ele>28.0</ele><time>2026-04-07T06:36:43.789Z</time></trkpt><trkpt lat="38.1707183" lon="15.6530083"><ele>28.0</ele><time>2026-04-07T06:36:44.789Z</time></trkpt><trkpt lat="38.1707" lon="15.6528"><ele>28.0</ele><time>2026-04-07T06:36:45.788Z</time></trkpt><trkpt lat="38.1706917" lon="15.6526183"><ele>28.0</ele><time>2026-04-07T06:36:46.788Z</time></trkpt><trkpt lat="38.1706867" lon="15.65247"><ele>28.0</ele><time>2026-04-07T06:36:47.788Z</time></trkpt><trkpt lat="38.1706967" lon="15.65235"><ele>27.714285714285715</ele><time>2026-04-07T06:36:48.788Z</time></trkpt><trkpt lat="38.1707083" lon="15.65225"><ele>27.42857142857143</ele><time>2026-04-07T06:36:49.788Z</time></trkpt><trkpt lat="38.1707317" lon="15.65216"><ele>27.142857142857142</ele><time>2026-04-07T06:36:50.789Z</time></trkpt><trkpt lat="38.1707667" lon="15.6520883"><ele>26.857142857142858</ele><time>2026-04-07T06:36:51.789Z</time></trkpt><trkpt lat="38.17082" lon="15.6520267"><ele>26.571428571428573</ele><time>2026-04-07T06:36:52.788Z</time></trkpt><trkpt lat="38.1708817" lon="15.6519733"><ele>26.285714285714285</ele><time>2026-04-07T06:36:53.788Z</time></trkpt><trkpt lat="38.1709567" lon="15.65194"><ele>26.0</ele><time>2026-04-07T06:36:54.788Z</time></trkpt><trkpt lat="38.17104" lon="15.6519317"><ele>26.0</ele><time>2026-04-07T06:36:55.788Z</time></trkpt><trkpt lat="38.1711267" lon="15.6519317"><ele>26.0</ele><time>2026-04-07T06:36:56.788Z</time></trkpt><trkpt lat="38.17121" lon="15.6519583"><ele>26.0</ele><time>2026-04-07T06:36:57.788Z</time></trkpt><trkpt lat="38.1713" lon="15.6520067"><ele>26.0</ele><time>2026-04-07T06:36:58.788Z</time></trkpt><trkpt lat="38.17138" lon="15.65207"><ele>26.0</ele><time>2026-04-07T06:36:59.788Z</time></trkpt><trkpt lat="38.1714583" lon="15.6521483"><ele>26.0</ele><time>2026-04-07T06:37:00.788Z</time></trkpt><trkpt lat="38.17152" lon="15.6522383"><ele>26.0</ele><time>2026-04-07T06:37:01.789Z</time></trkpt><trkpt lat="38.1715683" lon="15.6523333"><ele>26.0</ele><time>2026-04-07T06:37:02.788Z</time></trkpt><trkpt lat="38.1716117" lon="15.6524267"><ele>26.0</ele><time>2026-04-07T06:37:03.788Z</time></trkpt><trkpt lat="38.1716517" lon="15.6525317"><ele>26.0</ele><time>2026-04-07T06:37:04.788Z</time></trkpt><trkpt lat="38.171685" lon="15.6526383"><ele>26.4</ele><time>2026-04-07T06:37:05.788Z</time></trkpt><trkpt lat="38.1717167" lon="15.6527533"><ele>26.8</ele><time>2026-04-07T06:37:06.788Z</time></trkpt><trkpt lat="38.17175" lon="15.6528733"><ele>27.199999999999996</ele><time>2026-04-07T06:37:07.788Z</time></trkpt><trkpt lat="38.171795" lon="15.6529933"><ele>27.599999999999998</ele><time>2026-04-07T06:37:08.789Z</time></trkpt><trkpt lat="38.1718667" lon="15.65311"><ele>28.0</ele><time>2026-04-07T06:37:09.788Z</time></trkpt><trkpt lat="38.1720917" lon="15.65331"><ele>28.333333333333336</ele><time>2026-04-07T06:37:11.788Z</time></trkpt><trkpt lat="38.1722433" lon="15.6533717"><ele>28.666666666666664</ele><time>2026-04-07T06:37:12.789Z</time></trkpt><trkpt lat="38.1724217" lon="15.6533867"><ele>29.0</ele><time>2026-04-07T06:37:13.788Z</time></trkpt><trkpt lat="38.1726217" lon="15.6533533"><ele>29.666666666666664</ele><time>2026-04-07T06:37:14.789Z</time></trkpt><trkpt lat="38.172825" lon="15.65328"><ele>30.333333333333336</ele><time>2026-04-07T06:37:15.789Z</time></trkpt><trkpt lat="38.1730433" lon="15.6531983"><ele>31.0</ele><time>2026-04-07T06:37:16.788Z</time></trkpt><trkpt lat="38.173275" lon="15.6531317"><ele>31.0</ele><time>2026-04-07T06:37:17.788Z</time></trkpt><trkpt lat="38.1734883" lon="15.6530883"><ele>31.0</ele><time>2026-04-07T06:37:18.788Z</time></trkpt><trkpt lat="38.1736767" lon="15.6530817"><ele>31.0</ele><time>2026-04-07T06:37:19.789Z</time></trkpt><trkpt lat="38.1738317" lon="15.6531317"><ele>31.0</ele><time>2026-04-07T06:37:20.788Z</time></trkpt><trkpt lat="38.173975" lon="15.6532267"><ele>31.0</ele><time>2026-04-07T06:37:21.788Z</time></trkpt><trkpt lat="38.1741083" lon="15.6533783"><ele>31.0</ele><time>2026-04-07T06:37:22.789Z</time></trkpt><trkpt lat="38.17421" lon="15.6535617"><ele>33.333333333333336</ele><time>2026-04-07T06:37:23.789Z</time></trkpt><trkpt lat="38.174285" lon="15.6537667"><ele>35.666666666666664</ele><time>2026-04-07T06:37:24.788Z</time></trkpt><trkpt lat="38.1743167" lon="15.653985"><ele>38.0</ele><time>2026-04-07T06:37:25.788Z</time></trkpt><trkpt lat="38.1742967" lon="15.65419"><ele>38.0</ele><time>2026-04-07T06:37:26.789Z</time></trkpt><trkpt lat="38.1742233" lon="15.654365"><ele>38.0</ele><time>2026-04-07T06:37:27.789Z</time></trkpt><trkpt lat="38.174145" lon="15.654505"><ele>38.0</ele><time>2026-04-07T06:37:28.788Z</time></trkpt><trkpt lat="38.1740517" lon="15.6546267"><ele>38.0</ele><time>2026-04-07T06:37:29.788Z</time></trkpt><trkpt lat="38.1739383" lon="15.6547317"><ele>36.666666666666664</ele><time>2026-04-07T06:37:30.788Z</time></trkpt><trkpt lat="38.1738133" lon="15.654815"><ele>35.333333333333336</ele><time>2026-04-07T06:37:31.788Z</time></trkpt><trkpt lat="38.17367" lon="15.6548967"><ele>34.0</ele><time>2026-04-07T06:37:32.788Z</time></trkpt><trkpt lat="38.173515" lon="15.6549983"><ele>34.0</ele><time>2026-04-07T06:37:33.789Z</time></trkpt><trkpt lat="38.1733367" lon="15.65508"><ele>34.0</ele><time>2026-04-07T06:37:34.788Z</time></trkpt><trkpt lat="38.1731717" lon="15.655145"><ele>34.0</ele><time>2026-04-07T06:37:35.789Z</time></trkpt><trkpt lat="38.1730267" lon="15.6551717"><ele>34.25</ele><time>2026-04-07T06:37:36.788Z</time></trkpt><trkpt lat="38.1729067" lon="15.655145"><ele>34.5</ele><time>2026-04-07T06:37:37.788Z</time></trkpt><trkpt lat="38.1728183" lon="15.65506"><ele>34.75</ele><time>2026-04-07T06:37:38.788Z</time></trkpt><trkpt lat="38.1727567" lon="15.6549433"><ele>35.0</ele><time>2026-04-07T06:37:39.788Z</time></trkpt><trkpt lat="38.1727233" lon="15.65479"><ele>35.0</ele><time>2026-04-07T06:37:40.788Z</time></trkpt><trkpt lat="38.1727483" lon="15.6546317"><ele>35.0</ele><time>2026-04-07T06:37:41.788Z</time></trkpt><trkpt lat="38.1728083" lon="15.6545033"><ele>35.0</ele><time>2026-04-07T06:37:42.789Z</time></trkpt><trkpt lat="38.1729017" lon="15.654395"><ele>35.0</ele><time>2026-04-07T06:37:43.788Z</time></trkpt><trkpt lat="38.1730183" lon="15.65432"><ele>34.666666666666664</ele><time>2026-04-07T06:37:44.789Z</time></trkpt><trkpt lat="38.17315" lon="15.654245"><ele>34.333333333333336</ele><time>2026-04-07T06:37:45.788Z</time></trkpt><trkpt lat="38.1732933" lon="15.654165"><ele>34.0</ele><time>2026-04-07T06:37:46.788Z</time></trkpt><trkpt lat="38.1734433" lon="15.65409"><ele>34.0</ele><time>2026-04-07T06:37:47.789Z</time></trkpt><trkpt lat="38.173615" lon="15.654005"><ele>34.0</ele><time>2026-04-07T06:37:48.789Z</time></trkpt><trkpt lat="38.1737967" lon="15.6539183"><ele>34.0</ele><time>2026-04-07T06:37:49.788Z</time></trkpt><trkpt lat="38.1739867" lon="15.653835"><ele>34.333333333333336</ele><time>2026-04-07T06:37:50.788Z</time></trkpt><trkpt lat="38.17419" lon="15.653755"><ele>34.666666666666664</ele><time>2026-04-07T06:37:51.788Z</time></trkpt><trkpt lat="38.1744033" lon="15.6536733"><ele>35.0</ele><time>2026-04-07T06:37:52.788Z</time></trkpt><trkpt lat="38.17462" lon="15.6535883"><ele>35.0</ele><time>2026-04-07T06:37:53.788Z</time></trkpt><trkpt lat="38.1748383" lon="15.6534983"><ele>35.0</ele><time>2026-04-07T06:37:54.788Z</time></trkpt><trkpt lat="38.1750583" lon="15.653405"><ele>36.0</ele><time>2026-04-07T06:37:55.788Z</time></trkpt><trkpt lat="38.1752867" lon="15.653305"><ele>37.0</ele><time>2026-04-07T06:37:56.788Z</time></trkpt><trkpt lat="38.17552" lon="15.6531983"><ele>39.0</ele><time>2026-04-07T06:37:57.788Z</time></trkpt><trkpt lat="38.175755" lon="15.6530933"><ele>41.0</ele><time>2026-04-07T06:37:58.788Z</time></trkpt><trkpt lat="38.175995" lon="15.652985"><ele>41.0</ele><time>2026-04-07T06:37:59.788Z</time></trkpt><trkpt lat="38.1762433" lon="15.6528817"><ele>41.0</ele><time>2026-04-07T06:38:00.788Z</time></trkpt><trkpt lat="38.176485" lon="15.652775"><ele>45.0</ele><time>2026-04-07T06:38:01.788Z</time></trkpt><trkpt lat="38.1767333" lon="15.652675"><ele>49.0</ele><time>2026-04-07T06:38:02.788Z</time></trkpt><trkpt lat="38.1769833" lon="15.652555"><ele>49.0</ele><time>2026-04-07T06:38:03.789Z</time></trkpt><trkpt lat="38.1772333" lon="15.6524367"><ele>49.0</ele><time>2026-04-07T06:38:04.788Z</time></trkpt><trkpt lat="38.1774883" lon="15.6523283"><ele>49.5</ele><time>2026-04-07T06:38:05.789Z</time></trkpt><trkpt lat="38.1777517" lon="15.6522283"><ele>50.0</ele><time>2026-04-07T06:38:06.789Z</time></trkpt><trkpt lat="38.1780033" lon="15.652105"><ele>48.5</ele><time>2026-04-07T06:38:07.789Z</time></trkpt><trkpt lat="38.1782617" lon="15.6519967"><ele>47.0</ele><time>2026-04-07T06:38:08.788Z</time></trkpt><trkpt lat="38.1785183" lon="15.6518917"><ele>46.5</ele><time>2026-04-07T06:38:09.788Z</time></trkpt><trkpt lat="38.1787767" lon="15.6517767"><ele>46.0</ele><time>2026-04-07T06:38:10.788Z</time></trkpt><trkpt lat="38.1790267" lon="15.65166"><ele>49.0</ele><time>2026-04-07T06:38:11.788Z</time></trkpt><trkpt lat="38.17928" lon="15.651545"><ele>52.0</ele><time>2026-04-07T06:38:12.788Z</time></trkpt><trkpt lat="38.17953" lon="15.6514317"><ele>52.0</ele><time>2026-04-07T06:38:13.788Z</time></trkpt><trkpt lat="38.179785" lon="15.6513183"><ele>52.0</ele><time>2026-04-07T06:38:14.789Z</time></trkpt><trkpt lat="38.180045" lon="15.6511983"><ele>48.5</ele><time>2026-04-07T06:38:15.789Z</time></trkpt><trkpt lat="38.180295" lon="15.651085"><ele>45.0</ele><time>2026-04-07T06:38:16.788Z</time></trkpt><trkpt lat="38.1805483" lon="15.6509633"><ele>44.0</ele><time>2026-04-07T06:38:17.788Z</time></trkpt><trkpt lat="38.1807933" lon="15.650825"><ele>43.0</ele><time>2026-04-07T06:38:18.788Z</time></trkpt><trkpt lat="38.181035" lon="15.6506717"><ele>43.0</ele><time>2026-04-07T06:38:19.789Z</time></trkpt><trkpt lat="38.1812717" lon="15.6505083"><ele>43.0</ele><time>2026-04-07T06:38:20.788Z</time></trkpt><trkpt lat="38.1815133" lon="15.6503367"><ele>41.5</ele><time>2026-04-07T06:38:21.789Z</time></trkpt><trkpt lat="38.18175" lon="15.6501733"><ele>40.0</ele><time>2026-04-07T06:38:22.788Z</time></trkpt><trkpt lat="38.18199" lon="15.6500017"><ele>40.0</ele><time>2026-04-07T06:38:23.788Z</time></trkpt><trkpt lat="38.18223" lon="15.6498283"><ele>40.0</ele><time>2026-04-07T06:38:24.788Z</time></trkpt><trkpt lat="38.18247" lon="15.6496533"><ele>41.0</ele><time>2026-04-07T06:38:25.788Z</time></trkpt><trkpt lat="38.1827033" lon="15.649475"><ele>42.0</ele><time>2026-04-07T06:38:26.789Z</time></trkpt><trkpt lat="38.1829367" lon="15.6492917"><ele>42.0</ele><time>2026-04-07T06:38:27.788Z</time></trkpt><trkpt lat="38.1831767" lon="15.6491267"><ele>42.0</ele><time>2026-04-07T06:38:28.789Z</time></trkpt><trkpt lat="38.183415" lon="15.6489567"><ele>41.0</ele><time>2026-04-07T06:38:29.788Z</time></trkpt><trkpt lat="38.1836583" lon="15.6487967"><ele>40.0</ele><time>2026-04-07T06:38:30.788Z</time></trkpt><trkpt lat="38.1839067" lon="15.6486467"><ele>38.0</ele><time>2026-04-07T06:38:31.788Z</time></trkpt><trkpt lat="38.1841617" lon="15.6485167"><ele>36.0</ele><time>2026-04-07T06:38:32.789Z</time></trkpt><trkpt lat="38.18442" lon="15.6484033"><ele>36.0</ele><time>2026-04-07T06:38:33.788Z</time></trkpt><trkpt lat="38.1846817" lon="15.6483067"><ele>36.0</ele><time>2026-04-07T06:38:34.788Z</time></trkpt><trkpt lat="38.184945" lon="15.648225"><ele>37.5</ele><time>2026-04-07T06:38:35.788Z</time></trkpt><trkpt lat="38.1852117" lon="15.6481617"><ele>39.0</ele><time>2026-04-07T06:38:36.788Z</time></trkpt><trkpt lat="38.1854817" lon="15.6481233"><ele>38.0</ele><time>2026-04-07T06:38:37.788Z</time></trkpt><trkpt lat="38.185755" lon="15.6481033"><ele>37.0</ele><time>2026-04-07T06:38:38.788Z</time></trkpt><trkpt lat="38.1860283" lon="15.6481"><ele>37.0</ele><time>2026-04-07T06:38:39.788Z</time></trkpt><trkpt lat="38.186295" lon="15.64811"><ele>37.0</ele><time>2026-04-07T06:38:40.788Z</time></trkpt><trkpt lat="38.1865583" lon="15.64813"><ele>33.5</ele><time>2026-04-07T06:38:41.788Z</time></trkpt><trkpt lat="38.1868217" lon="15.648165"><ele>30.0</ele><time>2026-04-07T06:38:42.788Z</time></trkpt><trkpt lat="38.1870883" lon="15.6482133"><ele>30.0</ele><time>2026-04-07T06:38:43.789Z</time></trkpt><trkpt lat="38.1873567" lon="15.6482733"><ele>30.0</ele><time>2026-04-07T06:38:44.788Z</time></trkpt><trkpt lat="38.1876167" lon="15.6483567"><ele>30.0</ele><time>2026-04-07T06:38:45.788Z</time></trkpt><trkpt lat="38.1878817" lon="15.64845"><ele>30.0</ele><time>2026-04-07T06:38:46.788Z</time></trkpt><trkpt lat="38.1881467" lon="15.6485483"><ele>31.0</ele><time>2026-04-07T06:38:47.788Z</time></trkpt><trkpt lat="38.18841" lon="15.6486333"><ele>32.0</ele><time>2026-04-07T06:38:48.788Z</time></trkpt><trkpt lat="38.1886733" lon="15.648715"><ele>32.0</ele><time>2026-04-07T06:38:49.789Z</time></trkpt><trkpt lat="38.1889433" lon="15.648795"><ele>32.0</ele><time>2026-04-07T06:38:50.788Z</time></trkpt><trkpt lat="38.1892067" lon="15.6488517"><ele>30.0</ele><time>2026-04-07T06:38:51.788Z</time></trkpt><trkpt lat="38.18947" lon="15.648885"><ele>28.0</ele><time>2026-04-07T06:38:52.789Z</time></trkpt><trkpt lat="38.189735" lon="15.6488983"><ele>28.0</ele><time>2026-04-07T06:38:53.788Z</time></trkpt><trkpt lat="38.1900067" lon="15.648885"><ele>28.0</ele><time>2026-04-07T06:38:54.789Z</time></trkpt><trkpt lat="38.1902783" lon="15.64885"><ele>28.0</ele><time>2026-04-07T06:38:55.789Z</time></trkpt><trkpt lat="38.190545" lon="15.648785"><ele>28.0</ele><time>2026-04-07T06:38:56.788Z</time></trkpt><trkpt lat="38.1908167" lon="15.6487"><ele>29.0</ele><time>2026-04-07T06:38:57.788Z</time></trkpt><trkpt lat="38.1910733" lon="15.6486067"><ele>30.0</ele><time>2026-04-07T06:38:58.789Z</time></trkpt><trkpt lat="38.1913267" lon="15.648485"><ele>31.0</ele><time>2026-04-07T06:38:59.788Z</time></trkpt><trkpt lat="38.19158" lon="15.648345"><ele>32.0</ele><time>2026-04-07T06:39:00.788Z</time></trkpt><trkpt lat="38.1918217" lon="15.6481783"><ele>32.0</ele><time>2026-04-07T06:39:01.788Z</time></trkpt><trkpt lat="38.1920517" lon="15.647995"><ele>32.0</ele><time>2026-04-07T06:39:02.789Z</time></trkpt><trkpt lat="38.192275" lon="15.6478"><ele>32.5</ele><time>2026-04-07T06:39:03.788Z</time></trkpt><trkpt lat="38.19249" lon="15.6475817"><ele>33.0</ele><time>2026-04-07T06:39:04.788Z</time></trkpt><trkpt lat="38.1927" lon="15.6473633"><ele>33.0</ele><time>2026-04-07T06:39:05.788Z</time></trkpt><trkpt lat="38.192905" lon="15.6471433"><ele>33.0</ele><time>2026-04-07T06:39:06.789Z</time></trkpt><trkpt lat="38.19311" lon="15.646925"><ele>34.5</ele><time>2026-04-07T06:39:07.788Z</time></trkpt><trkpt lat="38.1933167" lon="15.646705"><ele>36.0</ele><time>2026-04-07T06:39:08.788Z</time></trkpt><trkpt lat="38.1935283" lon="15.6464917"><ele>36.0</ele><time>2026-04-07T06:39:09.789Z</time></trkpt><trkpt lat="38.1937367" lon="15.6462717"><ele>36.0</ele><time>2026-04-07T06:39:10.789Z</time></trkpt><trkpt lat="38.1939467" lon="15.6460517"><ele>35.5</ele><time>2026-04-07T06:39:11.788Z</time></trkpt><trkpt lat="38.1941583" lon="15.64583"><ele>35.0</ele><time>2026-04-07T06:39:12.789Z</time></trkpt><trkpt lat="38.1943617" lon="15.64561"><ele>35.0</ele><time>2026-04-07T06:39:13.788Z</time></trkpt><trkpt lat="38.1945733" lon="15.645385"><ele>35.0</ele><time>2026-04-07T06:39:14.788Z</time></trkpt><trkpt lat="38.1947833" lon="15.645165"><ele>34.5</ele><time>2026-04-07T06:39:15.789Z</time></trkpt><trkpt lat="38.1949933" lon="15.6449483"><ele>34.0</ele><time>2026-04-07T06:39:16.789Z</time></trkpt><trkpt lat="38.195205" lon="15.6447317"><ele>34.0</ele><time>2026-04-07T06:39:17.788Z</time></trkpt><trkpt lat="38.1954133" lon="15.644515"><ele>34.0</ele><time>2026-04-07T06:39:18.788Z</time></trkpt><trkpt lat="38.195625" lon="15.6443"><ele>36.5</ele><time>2026-04-07T06:39:19.788Z</time></trkpt><trkpt lat="38.19584" lon="15.644085"><ele>39.0</ele><time>2026-04-07T06:39:20.789Z</time></trkpt><trkpt lat="38.19606" lon="15.6438767"><ele>39.0</ele><time>2026-04-07T06:39:21.788Z</time></trkpt><trkpt lat="38.1962767" lon="15.6436617"><ele>39.0</ele><time>2026-04-07T06:39:22.788Z</time></trkpt><trkpt lat="38.1964933" lon="15.6434567"><ele>43.0</ele><time>2026-04-07T06:39:23.789Z</time></trkpt><trkpt lat="38.196705" lon="15.643245"><ele>53.0</ele><time>2026-04-07T06:39:24.788Z</time></trkpt></trkseg><trkseg><trkpt lat="38.2153117" lon="15.64779"><ele>107.5</ele><time>2026-04-07T06:40:40.288Z</time></trkpt><trkpt lat="38.21572" lon="15.6479"><ele>113.0</ele><time>2026-04-07T06:40:41.788Z</time></trkpt><trkpt lat="38.21598" lon="15.647955"><ele>113.0</ele><time>2026-04-07T06:40:42.788Z</time></trkpt><trkpt lat="38.21625" lon="15.6480083"><ele>113.0</ele><time>2026-04-07T06:40:43.789Z</time></trkpt><trkpt lat="38.21652" lon="15.6480467"><ele>111.5</ele><time>2026-04-07T06:40:44.788Z</time></trkpt><trkpt lat="38.2167883" lon="15.648085"><ele>110.0</ele><time>2026-04-07T06:40:45.788Z</time></trkpt><trkpt lat="38.217055" lon="15.6481083"><ele>111.5</ele><time>2026-04-07T06:40:46.788Z</time></trkpt><trkpt lat="38.21734" lon="15.6481217"><ele>113.0</ele><time>2026-04-07T06:40:47.789Z</time></trkpt><trkpt lat="38.217615" lon="15.6481383"><ele>113.0</ele><time>2026-04-07T06:40:48.789Z</time></trkpt><trkpt lat="38.217885" lon="15.64812"><ele>113.0</ele><time>2026-04-07T06:40:49.788Z</time></trkpt><trkpt lat="38.218165" lon="15.6481117"><ele>113.0</ele><time>2026-04-07T06:40:50.788Z</time></trkpt><trkpt lat="38.2184233" lon="15.6480867"><ele>113.0</ele><time>2026-04-07T06:40:51.789Z</time></trkpt><trkpt lat="38.2186683" lon="15.64807"><ele>113.0</ele><time>2026-04-07T06:40:52.788Z</time></trkpt><trkpt lat="38.21892" lon="15.648055"><ele>113.0</ele><time>2026-04-07T06:40:53.788Z</time></trkpt><trkpt lat="38.2191817" lon="15.6480367"><ele>110.0</ele><time>2026-04-07T06:40:54.788Z</time></trkpt><trkpt lat="38.2194467" lon="15.6480417"><ele>107.0</ele><time>2026-04-07T06:40:55.788Z</time></trkpt><trkpt lat="38.2197" lon="15.648035"><ele>97.0</ele><time>2026-04-07T06:40:56.788Z</time></trkpt><trkpt lat="38.219955" lon="15.6480367"><ele>87.0</ele><time>2026-04-07T06:40:57.788Z</time></trkpt><trkpt lat="38.2202433" lon="15.648055"><ele>87.0</ele><time>2026-04-07T06:40:58.788Z</time></trkpt><trkpt lat="38.22052" lon="15.6480783"><ele>87.0</ele><time>2026-04-07T06:40:59.789Z</time></trkpt><trkpt lat="38.2207967" lon="15.648115"><ele>91.0</ele><time>2026-04-07T06:41:00.789Z</time></trkpt><trkpt lat="38.221065" lon="15.648155"><ele>95.0</ele><time>2026-04-07T06:41:01.789Z</time></trkpt><trkpt lat="38.2213517" lon="15.64821"><ele>96.5</ele><time>2026-04-07T06:41:02.788Z</time></trkpt><trkpt lat="38.221625" lon="15.6482683"><ele>98.0</ele><time>2026-04-07T06:41:03.788Z</time></trkpt><trkpt lat="38.2219017" lon="15.648325"><ele>98.0</ele><time>2026-04-07T06:41:04.788Z</time></trkpt><trkpt lat="38.2221767" lon="15.6483817"><ele>98.0</ele><time>2026-04-07T06:41:05.788Z</time></trkpt><trkpt lat="38.2224517" lon="15.64843"><ele>104.0</ele><time>2026-04-07T06:41:06.788Z</time></trkpt><trkpt lat="38.2227317" lon="15.6484767"><ele>110.0</ele><time>2026-04-07T06:41:07.788Z</time></trkpt><trkpt lat="38.2230067" lon="15.6485283"><ele>111.5</ele><time>2026-04-07T06:41:08.788Z</time></trkpt><trkpt lat="38.2232833" lon="15.64858"><ele>113.0</ele><time>2026-04-07T06:41:09.789Z</time></trkpt><trkpt lat="38.22356" lon="15.64863"><ele>125.0</ele><time>2026-04-07T06:41:10.788Z</time></trkpt><trkpt lat="38.22872" lon="15.6545217"><ele>125.0</ele><time>2026-04-07T06:41:36.789Z</time></trkpt><trkpt lat="38.228805" lon="15.6549833"><ele>125.0</ele><time>2026-04-07T06:41:37.789Z</time></trkpt><trkpt lat="38.2288867" lon="15.6553767"><ele>115.0</ele><time>2026-04-07T06:41:38.79Z</time></trkpt><trkpt lat="38.2289883" lon="15.6557333"><ele>105.0</ele><time>2026-04-07T06:41:39.79Z</time></trkpt><trkpt lat="38.229085" lon="15.6560683"><ele>107.5</ele><time>2026-04-07T06:41:40.789Z</time></trkpt><trkpt lat="38.229175" lon="15.6563933"><ele>110.0</ele><time>2026-04-07T06:41:41.789Z</time></trkpt><trkpt lat="38.2292683" lon="15.6567183"><ele>114.0</ele><time>2026-04-07T06:41:42.789Z</time></trkpt><trkpt lat="38.2293667" lon="15.6570367"><ele>118.0</ele><time>2026-04-07T06:41:43.789Z</time></trkpt><trkpt lat="38.22946" lon="15.6573667"><ele>118.0</ele><time>2026-04-07T06:41:44.789Z</time></trkpt><trkpt lat="38.2295617" lon="15.65769"><ele>118.0</ele><time>2026-04-07T06:41:45.789Z</time></trkpt><trkpt lat="38.229665" lon="15.658015"><ele>119.5</ele><time>2026-04-07T06:41:46.789Z</time></trkpt><trkpt lat="38.2297733" lon="15.658345"><ele>121.0</ele><time>2026-04-07T06:41:47.789Z</time></trkpt><trkpt lat="38.2298767" lon="15.6586717"><ele>110.0</ele><time>2026-04-07T06:41:48.789Z</time></trkpt><trkpt lat="38.2299717" lon="15.659"><ele>99.0</ele><time>2026-04-07T06:41:49.789Z</time></trkpt><trkpt lat="38.2300667" lon="15.65933"><ele>102.0</ele><time>2026-04-07T06:41:50.789Z</time></trkpt><trkpt lat="38.2301617" lon="15.65966"><ele>105.0</ele><time>2026-04-07T06:41:51.789Z</time></trkpt><trkpt lat="38.2302533" lon="15.6599817"><ele>111.5</ele><time>2026-04-07T06:41:52.789Z</time></trkpt><trkpt lat="38.2303517" lon="15.660305"><ele>118.0</ele><time>2026-04-07T06:41:53.79Z</time></trkpt><trkpt lat="38.23045" lon="15.6606317"><ele>118.0</ele><time>2026-04-07T06:41:54.789Z</time></trkpt><trkpt lat="38.230545" lon="15.660955"><ele>118.0</ele><time>2026-04-07T06:41:55.789Z</time></trkpt><trkpt lat="38.2306333" lon="15.6612817"><ele>107.5</ele><time>2026-04-07T06:41:56.79Z</time></trkpt><trkpt lat="38.2307017" lon="15.6616083"><ele>97.0</ele><time>2026-04-07T06:41:57.789Z</time></trkpt><trkpt lat="38.2308033" lon="15.6619333"><ele>102.0</ele><time>2026-04-07T06:41:58.789Z</time></trkpt><trkpt lat="38.230895" lon="15.6622617"><ele>107.0</ele><time>2026-04-07T06:41:59.789Z</time></trkpt><trkpt lat="38.2309883" lon="15.6625817"><ele>110.5</ele><time>2026-04-07T06:42:00.789Z</time></trkpt><trkpt lat="38.2310833" lon="15.6629117"><ele>114.0</ele><time>2026-04-07T06:42:01.789Z</time></trkpt><trkpt lat="38.23118" lon="15.66324"><ele>114.0</ele><time>2026-04-07T06:42:02.789Z</time></trkpt><trkpt lat="38.23127" lon="15.6635683"><ele>114.0</ele><time>2026-04-07T06:42:03.79Z</time></trkpt><trkpt lat="38.2313683" lon="15.66389"><ele>113.5</ele><time>2026-04-07T06:42:04.79Z</time></trkpt><trkpt lat="38.23146" lon="15.6642117"><ele>113.0</ele><time>2026-04-07T06:42:05.789Z</time></trkpt><trkpt lat="38.2315567" lon="15.66454"><ele>105.5</ele><time>2026-04-07T06:42:06.79Z</time></trkpt><trkpt lat="38.2316567" lon="15.664865"><ele>98.0</ele><time>2026-04-07T06:42:07.789Z</time></trkpt><trkpt lat="38.2317567" lon="15.6651883"><ele>103.0</ele><time>2026-04-07T06:42:08.79Z</time></trkpt><trkpt lat="38.231865" lon="15.6655083"><ele>108.0</ele><time>2026-04-07T06:42:09.789Z</time></trkpt><trkpt lat="38.2319733" lon="15.6658233"><ele>116.0</ele><time>2026-04-07T06:42:10.79Z</time></trkpt><trkpt lat="38.2320817" lon="15.6661417"><ele>124.0</ele><time>2026-04-07T06:42:11.789Z</time></trkpt><trkpt lat="38.232185" lon="15.6664633"><ele>124.0</ele><time>2026-04-07T06:42:12.789Z</time></trkpt><trkpt lat="38.2322933" lon="15.6667833"><ele>124.0</ele><time>2026-04-07T06:42:13.789Z</time></trkpt><trkpt lat="38.232395" lon="15.6671"><ele>115.5</ele><time>2026-04-07T06:42:14.79Z</time></trkpt><trkpt lat="38.2324967" lon="15.6674233"><ele>107.0</ele><time>2026-04-07T06:42:15.79Z</time></trkpt><trkpt lat="38.2326033" lon="15.66775"><ele>108.0</ele><time>2026-04-07T06:42:16.789Z</time></trkpt><trkpt lat="38.232715" lon="15.66807"><ele>109.0</ele><time>2026-04-07T06:42:17.789Z</time></trkpt><trkpt lat="38.2328233" lon="15.66839"><ele>116.0</ele><time>2026-04-07T06:42:18.789Z</time></trkpt><trkpt lat="38.2329333" lon="15.66871"><ele>123.0</ele><time>2026-04-07T06:42:19.79Z</time></trkpt><trkpt lat="38.2330417" lon="15.6690317"><ele>118.0</ele><time>2026-04-07T06:42:20.789Z</time></trkpt><trkpt lat="38.2331517" lon="15.6693517"><ele>113.0</ele><time>2026-04-07T06:42:21.789Z</time></trkpt><trkpt lat="38.233265" lon="15.6696667"><ele>113.0</ele><time>2026-04-07T06:42:22.789Z</time></trkpt><trkpt lat="38.233375" lon="15.6699867"><ele>113.0</ele><time>2026-04-07T06:42:23.79Z</time></trkpt><trkpt lat="38.233485" lon="15.67031"><ele>119.0</ele><time>2026-04-07T06:42:24.79Z</time></trkpt><trkpt lat="38.2335983" lon="15.670625"><ele>125.0</ele><time>2026-04-07T06:42:25.789Z</time></trkpt><trkpt lat="38.2337083" lon="15.6709417"><ele>128.0</ele><time>2026-04-07T06:42:26.789Z</time></trkpt><trkpt lat="38.23383" lon="15.6712583"><ele>131.0</ele><time>2026-04-07T06:42:27.789Z</time></trkpt><trkpt lat="38.23397" lon="15.6715733"><ele>128.5</ele><time>2026-04-07T06:42:28.789Z</time></trkpt><trkpt lat="38.2341" lon="15.671885"><ele>126.0</ele><time>2026-04-07T06:42:29.79Z</time></trkpt><trkpt lat="38.2342267" lon="15.6721967"><ele>126.0</ele><time>2026-04-07T06:42:30.789Z</time></trkpt><trkpt lat="38.234355" lon="15.6725017"><ele>126.0</ele><time>2026-04-07T06:42:31.789Z</time></trkpt><trkpt lat="38.23449" lon="15.6728117"><ele>130.5</ele><time>2026-04-07T06:42:32.789Z</time></trkpt><trkpt lat="38.2346267" lon="15.67312"><ele>135.0</ele><time>2026-04-07T06:42:33.789Z</time></trkpt><trkpt lat="38.23477" lon="15.6734267"><ele>128.5</ele><time>2026-04-07T06:42:34.789Z</time></trkpt><trkpt lat="38.2349" lon="15.67373"><ele>122.0</ele><time>2026-04-07T06:42:35.789Z</time></trkpt><trkpt lat="38.2350317" lon="15.6740283"><ele>122.0</ele><time>2026-04-07T06:42:36.789Z</time></trkpt><trkpt lat="38.2351683" lon="15.6743383"><ele>122.0</ele><time>2026-04-07T06:42:37.789Z</time></trkpt><trkpt lat="38.2353033" lon="15.6746383"><ele>128.0</ele><time>2026-04-07T06:42:38.789Z</time></trkpt><trkpt lat="38.23544" lon="15.674935"><ele>134.0</ele><time>2026-04-07T06:42:39.79Z</time></trkpt><trkpt lat="38.23558" lon="15.675235"><ele>117.5</ele><time>2026-04-07T06:42:40.789Z</time></trkpt><trkpt lat="38.2357117" lon="15.6755433"><ele>101.0</ele><time>2026-04-07T06:42:41.789Z</time></trkpt><trkpt lat="38.2358483" lon="15.6758467"><ele>112.0</ele><time>2026-04-07T06:42:42.789Z</time></trkpt><trkpt lat="38.2359883" lon="15.6761517"><ele>123.0</ele><time>2026-04-07T06:42:43.789Z</time></trkpt><trkpt lat="38.2361217" lon="15.6764567"><ele>123.0</ele><time>2026-04-07T06:42:44.789Z</time></trkpt><trkpt lat="38.2362617" lon="15.6767567"><ele>123.0</ele><time>2026-04-07T06:42:45.789Z</time></trkpt><trkpt lat="38.2364017" lon="15.6770533"><ele>123.0</ele><time>2026-04-07T06:42:46.79Z</time></trkpt><trkpt lat="38.2365533" lon="15.6773467"><ele>123.0</ele><time>2026-04-07T06:42:47.789Z</time></trkpt><trkpt lat="38.2367067" lon="15.6776333"><ele>132.5</ele><time>2026-04-07T06:42:48.789Z</time></trkpt><trkpt lat="38.236865" lon="15.6779117"><ele>142.0</ele><time>2026-04-07T06:42:49.79Z</time></trkpt><trkpt lat="38.2370317" lon="15.6781833"><ele>142.0</ele><time>2026-04-07T06:42:50.79Z</time></trkpt><trkpt lat="38.23721" lon="15.67844"><ele>142.0</ele><time>2026-04-07T06:42:51.789Z</time></trkpt><trkpt lat="38.2373983" lon="15.67869"><ele>137.5</ele><time>2026-04-07T06:42:52.789Z</time></trkpt><trkpt lat="38.2375917" lon="15.67894"><ele>133.0</ele><time>2026-04-07T06:42:53.789Z</time></trkpt><trkpt lat="38.2377867" lon="15.6791817"><ele>133.0</ele><time>2026-04-07T06:42:54.79Z</time></trkpt><trkpt lat="38.2379933" lon="15.6794117"><ele>133.0</ele><time>2026-04-07T06:42:55.79Z</time></trkpt><trkpt lat="38.2382033" lon="15.67963"><ele>119.5</ele><time>2026-04-07T06:42:56.79Z</time></trkpt><trkpt lat="38.2384167" lon="15.6798433"><ele>106.0</ele><time>2026-04-07T06:42:57.79Z</time></trkpt><trkpt lat="38.2386367" lon="15.6800567"><ele>106.0</ele><time>2026-04-07T06:42:58.789Z</time></trkpt><trkpt lat="38.2388567" lon="15.6802633"><ele>106.0</ele><time>2026-04-07T06:42:59.789Z</time></trkpt><trkpt lat="38.2390867" lon="15.68046"><ele>111.0</ele><time>2026-04-07T06:43:00.79Z</time></trkpt><trkpt lat="38.2393083" lon="15.6806567"><ele>116.0</ele><time>2026-04-07T06:43:01.789Z</time></trkpt><trkpt lat="38.239545" lon="15.680845"><ele>116.0</ele><time>2026-04-07T06:43:02.789Z</time></trkpt><trkpt lat="38.2397717" lon="15.6810317"><ele>116.0</ele><time>2026-04-07T06:43:03.79Z</time></trkpt><trkpt lat="38.2400033" lon="15.6812283"><ele>130.0</ele><time>2026-04-07T06:43:04.789Z</time></trkpt><trkpt lat="38.2402283" lon="15.6814267"><ele>144.0</ele><time>2026-04-07T06:43:05.789Z</time></trkpt><trkpt lat="38.24045" lon="15.68164"><ele>139.5</ele><time>2026-04-07T06:43:06.789Z</time></trkpt><trkpt lat="38.240675" lon="15.6818567"><ele>135.0</ele><time>2026-04-07T06:43:07.789Z</time></trkpt><trkpt lat="38.2409017" lon="15.6820733"><ele>145.0</ele><time>2026-04-07T06:43:08.79Z</time></trkpt><trkpt lat="38.2411267" lon="15.6822933"><ele>155.0</ele><time>2026-04-07T06:43:09.79Z</time></trkpt><trkpt lat="38.24135" lon="15.6825083"><ele>149.5</ele><time>2026-04-07T06:43:10.789Z</time></trkpt><trkpt lat="38.2415683" lon="15.6827183"><ele>144.0</ele><time>2026-04-07T06:43:11.789Z</time></trkpt><trkpt lat="38.2417917" lon="15.6829333"><ele>155.5</ele><time>2026-04-07T06:43:12.789Z</time></trkpt><trkpt lat="38.2420133" lon="15.6831483"><ele>167.0</ele><time>2026-04-07T06:43:13.789Z</time></trkpt><trkpt lat="38.2422367" lon="15.6833567"><ele>160.0</ele><time>2026-04-07T06:43:14.79Z</time></trkpt><trkpt lat="38.2424583" lon="15.6835683"><ele>153.0</ele><time>2026-04-07T06:43:15.79Z</time></trkpt><trkpt lat="38.24268" lon="15.68378"><ele>141.0</ele><time>2026-04-07T06:43:16.789Z</time></trkpt><trkpt lat="38.2429017" lon="15.6839917"><ele>129.0</ele><time>2026-04-07T06:43:17.789Z</time></trkpt><trkpt lat="38.2443883" lon="15.68908"><ele>129.0</ele><time>2026-04-07T06:43:32.788Z</time></trkpt><trkpt lat="38.24447" lon="15.6894117"><ele>129.0</ele><time>2026-04-07T06:43:33.788Z</time></trkpt><trkpt lat="38.244575" lon="15.6897333"><ele>133.5</ele><time>2026-04-07T06:43:34.788Z</time></trkpt><trkpt lat="38.24469" lon="15.6900617"><ele>138.0</ele><time>2026-04-07T06:43:35.788Z</time></trkpt><trkpt lat="38.2447883" lon="15.690375"><ele>151.5</ele><time>2026-04-07T06:43:36.788Z</time></trkpt><trkpt lat="38.2448933" lon="15.6906867"><ele>165.0</ele><time>2026-04-07T06:43:37.789Z</time></trkpt><trkpt lat="38.244995" lon="15.69101"><ele>188.5</ele><time>2026-04-07T06:43:38.788Z</time></trkpt><trkpt lat="38.2450967" lon="15.69134"><ele>212.0</ele><time>2026-04-07T06:43:39.789Z</time></trkpt><trkpt lat="38.2451983" lon="15.6916667"><ele>233.5</ele><time>2026-04-07T06:43:40.788Z</time></trkpt><trkpt lat="38.2452917" lon="15.6919817"><ele>255.0</ele><time>2026-04-07T06:43:41.788Z</time></trkpt><trkpt lat="38.24539" lon="15.6923017"><ele>255.0</ele><time>2026-04-07T06:43:42.788Z</time></trkpt><trkpt lat="38.24549" lon="15.6926233"><ele>255.0</ele><time>2026-04-07T06:43:43.789Z</time></trkpt><trkpt lat="38.2455867" lon="15.6929433"><ele>122.0</ele><time>2026-04-07T06:43:44.788Z</time></trkpt><trkpt lat="38.2480617" lon="15.7138167"><ele>122.0</ele><time>2026-04-07T06:44:45.788Z</time></trkpt><trkpt lat="38.2481191" lon="15.7141588"><ele>122.0</ele><time>2026-04-07T06:44:46.788Z</time></trkpt><trkpt lat="38.2481755" lon="15.7145159"><ele>113.0</ele><time>2026-04-07T06:44:47.789Z</time></trkpt><trkpt lat="38.2482368" lon="15.7148665"><ele>104.0</ele><time>2026-04-07T06:44:48.788Z</time></trkpt><trkpt lat="38.2482898" lon="15.7152114"><ele>117.5</ele><time>2026-04-07T06:44:49.789Z</time></trkpt><trkpt lat="38.2483402" lon="15.7155501"><ele>131.0</ele><time>2026-04-07T06:44:50.788Z</time></trkpt><trkpt lat="38.2483833" lon="15.715886"><ele>143.0</ele><time>2026-04-07T06:44:51.789Z</time></trkpt><trkpt lat="38.2484243" lon="15.7162225"><ele>155.0</ele><time>2026-04-07T06:44:52.788Z</time></trkpt><trkpt lat="38.2484589" lon="15.7165579"><ele>155.0</ele><time>2026-04-07T06:44:53.789Z</time></trkpt><trkpt lat="38.248487" lon="15.7168917"><ele>155.0</ele><time>2026-04-07T06:44:54.788Z</time></trkpt><trkpt lat="38.2485081" lon="15.7172288"><ele>154.5</ele><time>2026-04-07T06:44:55.788Z</time></trkpt><trkpt lat="38.248525" lon="15.7175664"><ele>154.0</ele><time>2026-04-07T06:44:56.788Z</time></trkpt><trkpt lat="38.2485406" lon="15.7178896"><ele>154.0</ele><time>2026-04-07T06:44:57.788Z</time></trkpt><trkpt lat="38.2485142" lon="15.7182248"><ele>154.0</ele><time>2026-04-07T06:44:58.788Z</time></trkpt><trkpt lat="38.2484747" lon="15.7185791"><ele>152.0</ele><time>2026-04-07T06:44:59.789Z</time></trkpt><trkpt lat="38.2484563" lon="15.7189454"><ele>150.0</ele><time>2026-04-07T06:45:00.788Z</time></trkpt><trkpt lat="38.2484508" lon="15.7193065"><ele>148.5</ele><time>2026-04-07T06:45:01.789Z</time></trkpt><trkpt lat="38.248449" lon="15.7196683"><ele>147.0</ele><time>2026-04-07T06:45:02.789Z</time></trkpt><trkpt lat="38.2484508" lon="15.7200215"><ele>148.0</ele><time>2026-04-07T06:45:03.789Z</time></trkpt><trkpt lat="38.2484525" lon="15.7203737"><ele>149.0</ele><time>2026-04-07T06:45:04.788Z</time></trkpt><trkpt lat="38.2484445" lon="15.7207209"><ele>149.0</ele><time>2026-04-07T06:45:05.788Z</time></trkpt><trkpt lat="38.2484423" lon="15.7210629"><ele>149.0</ele><time>2026-04-07T06:45:06.788Z</time></trkpt><trkpt lat="38.2484393" lon="15.7214057"><ele>145.5</ele><time>2026-04-07T06:45:07.788Z</time></trkpt><trkpt lat="38.2484361" lon="15.7217498"><ele>142.0</ele><time>2026-04-07T06:45:08.788Z</time></trkpt><trkpt lat="38.2484291" lon="15.7221017"><ele>141.5</ele><time>2026-04-07T06:45:09.789Z</time></trkpt><trkpt lat="38.2484212" lon="15.7224522"><ele>141.0</ele><time>2026-04-07T06:45:10.788Z</time></trkpt><trkpt lat="38.2484178" lon="15.7228"><ele>145.0</ele><time>2026-04-07T06:45:11.788Z</time></trkpt><trkpt lat="38.2484121" lon="15.7231519"><ele>149.0</ele><time>2026-04-07T06:45:12.788Z</time></trkpt><trkpt lat="38.2484044" lon="15.7234966"><ele>149.5</ele><time>2026-04-07T06:45:13.788Z</time></trkpt><trkpt lat="38.2483963" lon="15.7238415"><ele>150.0</ele><time>2026-04-07T06:45:14.788Z</time></trkpt><trkpt lat="38.2483918" lon="15.7241938"><ele>153.0</ele><time>2026-04-07T06:45:15.788Z</time></trkpt><trkpt lat="38.2483904" lon="15.7245449"><ele>156.0</ele><time>2026-04-07T06:45:16.788Z</time></trkpt><trkpt lat="38.2483974" lon="15.7248942"><ele>155.0</ele><time>2026-04-07T06:45:17.789Z</time></trkpt><trkpt lat="38.2484017" lon="15.7252429"><ele>154.0</ele><time>2026-04-07T06:45:18.789Z</time></trkpt><trkpt lat="38.2484054" lon="15.7255949"><ele>154.0</ele><time>2026-04-07T06:45:19.789Z</time></trkpt><trkpt lat="38.2484137" lon="15.7259403"><ele>154.0</ele><time>2026-04-07T06:45:20.788Z</time></trkpt><trkpt lat="38.2484149" lon="15.7262914"><ele>147.5</ele><time>2026-04-07T06:45:21.788Z</time></trkpt><trkpt lat="38.2484175" lon="15.726644"><ele>141.0</ele><time>2026-04-07T06:45:22.789Z</time></trkpt><trkpt lat="38.2484256" lon="15.7269972"><ele>141.0</ele><time>2026-04-07T06:45:23.788Z</time></trkpt><trkpt lat="38.2484315" lon="15.7273458"><ele>141.0</ele><time>2026-04-07T06:45:24.788Z</time></trkpt><trkpt lat="38.2484379" lon="15.7276918"><ele>149.5</ele><time>2026-04-07T06:45:25.788Z</time></trkpt><trkpt lat="38.2484493" lon="15.7280407"><ele>158.0</ele><time>2026-04-07T06:45:26.788Z</time></trkpt><trkpt lat="38.2484573" lon="15.7283881"><ele>161.5</ele><time>2026-04-07T06:45:27.789Z</time></trkpt><trkpt lat="38.2484704" lon="15.728741"><ele>165.0</ele><time>2026-04-07T06:45:28.788Z</time></trkpt><trkpt lat="38.2484764" lon="15.7290954"><ele>169.0</ele><time>2026-04-07T06:45:29.789Z</time></trkpt><trkpt lat="38.2484829" lon="15.7294454"><ele>173.0</ele><time>2026-04-07T06:45:30.789Z</time></trkpt><trkpt lat="38.2484907" lon="15.729799"><ele>173.0</ele><time>2026-04-07T06:45:31.788Z</time></trkpt><trkpt lat="38.2484977" lon="15.7301451"><ele>173.0</ele><time>2026-04-07T06:45:32.788Z</time></trkpt><trkpt lat="38.248502" lon="15.7304891"><ele>170.0</ele><time>2026-04-07T06:45:33.788Z</time></trkpt><trkpt lat="38.2485056" lon="15.7308385"><ele>167.0</ele><time>2026-04-07T06:45:34.788Z</time></trkpt><trkpt lat="38.2485129" lon="15.7311881"><ele>157.5</ele><time>2026-04-07T06:45:35.788Z</time></trkpt><trkpt lat="38.2485252" lon="15.7315379"><ele>148.0</ele><time>2026-04-07T06:45:36.789Z</time></trkpt><trkpt lat="38.2485303" lon="15.7318841"><ele>158.5</ele><time>2026-04-07T06:45:37.788Z</time></trkpt><trkpt lat="38.2485366" lon="15.7322307"><ele>169.0</ele><time>2026-04-07T06:45:38.788Z</time></trkpt><trkpt lat="38.2485501" lon="15.7325799"><ele>186.0</ele><time>2026-04-07T06:45:39.788Z</time></trkpt><trkpt lat="38.2485624" lon="15.7329273"><ele>203.0</ele><time>2026-04-07T06:45:40.788Z</time></trkpt><trkpt lat="38.2485767" lon="15.7332704"><ele>215.5</ele><time>2026-04-07T06:45:41.788Z</time></trkpt><trkpt lat="38.2485902" lon="15.7336174"><ele>228.0</ele><time>2026-04-07T06:45:42.789Z</time></trkpt><trkpt lat="38.2486049" lon="15.7339665"><ele>228.0</ele><time>2026-04-07T06:45:43.788Z</time></trkpt><trkpt lat="38.248626" lon="15.734315"><ele>228.0</ele><time>2026-04-07T06:45:44.788Z</time></trkpt><trkpt lat="38.2486404" lon="15.7346647"><ele>235.5</ele><time>2026-04-07T06:45:45.789Z</time></trkpt><trkpt lat="38.248649" lon="15.7350122"><ele>243.0</ele><time>2026-04-07T06:45:46.788Z</time></trkpt><trkpt lat="38.2486622" lon="15.7353602"><ele>252.5</ele><time>2026-04-07T06:45:47.788Z</time></trkpt><trkpt lat="38.2486767" lon="15.7357063"><ele>262.0</ele><time>2026-04-07T06:45:48.788Z</time></trkpt><trkpt lat="38.2486915" lon="15.7360527"><ele>276.0</ele><time>2026-04-07T06:45:49.788Z</time></trkpt><trkpt lat="38.2486851" lon="15.7363788"><ele>290.0</ele><time>2026-04-07T06:45:50.789Z</time></trkpt><trkpt lat="38.2486844" lon="15.7367048"><ele>307.0</ele><time>2026-04-07T06:45:51.788Z</time></trkpt><trkpt lat="38.248687" lon="15.7370269"><ele>324.0</ele><time>2026-04-07T06:45:52.789Z</time></trkpt><trkpt lat="38.2486963" lon="15.7373656"><ele>324.0</ele><time>2026-04-07T06:45:53.788Z</time></trkpt><trkpt lat="38.2487056" lon="15.7377026"><ele>324.0</ele><time>2026-04-07T06:45:54.788Z</time></trkpt><trkpt lat="38.250225" lon="15.743805"><ele>265.5</ele><time>2026-04-07T06:46:12.787Z</time></trkpt><trkpt lat="38.2503165" lon="15.7441531"><ele>207.0</ele><time>2026-04-07T06:46:13.787Z</time></trkpt><trkpt lat="38.2503692" lon="15.7444895"><ele>207.0</ele><time>2026-04-07T06:46:14.787Z</time></trkpt><trkpt lat="38.2504244" lon="15.7448238"><ele>207.0</ele><time>2026-04-07T06:46:15.787Z</time></trkpt><trkpt lat="38.2504852" lon="15.7451624"><ele>212.0</ele><time>2026-04-07T06:46:16.787Z</time></trkpt><trkpt lat="38.2505405" lon="15.7455058"><ele>217.0</ele><time>2026-04-07T06:46:17.787Z</time></trkpt><trkpt lat="38.2505992" lon="15.7458531"><ele>231.0</ele><time>2026-04-07T06:46:18.787Z</time></trkpt><trkpt lat="38.2506553" lon="15.7461918"><ele>245.0</ele><time>2026-04-07T06:46:19.787Z</time></trkpt><trkpt lat="38.250712" lon="15.7465265"><ele>245.0</ele><time>2026-04-07T06:46:20.788Z</time></trkpt><trkpt lat="38.2507687" lon="15.7468613"><ele>245.0</ele><time>2026-04-07T06:46:21.788Z</time></trkpt><trkpt lat="38.2508267" lon="15.747205"><ele>258.0</ele><time>2026-04-07T06:46:22.787Z</time></trkpt><trkpt lat="38.2508817" lon="15.74754"><ele>271.0</ele><time>2026-04-07T06:46:23.788Z</time></trkpt><trkpt lat="38.250935" lon="15.7478783"><ele>287.0</ele><time>2026-04-07T06:46:24.787Z</time></trkpt><trkpt lat="38.2509833" lon="15.7482133"><ele>303.0</ele><time>2026-04-07T06:46:25.787Z</time></trkpt><trkpt lat="38.2510367" lon="15.7485517"><ele>193.0</ele><time>2026-04-07T06:46:26.787Z</time></trkpt><trkpt lat="38.254329" lon="15.7672107"><ele>265.0</ele><time>2026-04-07T06:47:10.35Z</time></trkpt><trkpt lat="38.253895" lon="15.7666433"><ele>229.0</ele><time>2026-04-07T06:47:19.789Z</time></trkpt><trkpt lat="38.2540133" lon="15.766973"><ele>193.0</ele><time>2026-04-07T06:47:20.789Z</time></trkpt><trkpt lat="38.2541202" lon="15.767291"><ele>193.0</ele><time>2026-04-07T06:47:21.789Z</time></trkpt><trkpt lat="38.2542361" lon="15.767601"><ele>193.0</ele><time>2026-04-07T06:47:22.789Z</time></trkpt><trkpt lat="38.2543549" lon="15.7679067"><ele>195.5</ele><time>2026-04-07T06:47:23.789Z</time></trkpt><trkpt lat="38.2544816" lon="15.7682159"><ele>198.0</ele><time>2026-04-07T06:47:24.789Z</time></trkpt><trkpt lat="38.2546144" lon="15.7685156"><ele>213.5</ele><time>2026-04-07T06:47:25.789Z</time></trkpt><trkpt lat="38.2547513" lon="15.7688189"><ele>229.0</ele><time>2026-04-07T06:47:26.789Z</time></trkpt><trkpt lat="38.2548953" lon="15.7691172"><ele>254.0</ele><time>2026-04-07T06:47:27.79Z</time></trkpt><trkpt lat="38.255039" lon="15.7694173"><ele>279.0</ele><time>2026-04-07T06:47:28.789Z</time></trkpt><trkpt lat="38.2551888" lon="15.7697149"><ele>279.0</ele><time>2026-04-07T06:47:29.789Z</time></trkpt><trkpt lat="38.2553394" lon="15.7699969"><ele>279.0</ele><time>2026-04-07T06:47:30.789Z</time></trkpt><trkpt lat="38.255492" lon="15.7702774"><ele>307.0</ele><time>2026-04-07T06:47:31.789Z</time></trkpt><trkpt lat="38.2556497" lon="15.7705562"><ele>335.0</ele><time>2026-04-07T06:47:32.789Z</time></trkpt><trkpt lat="38.2558104" lon="15.7708405"><ele>360.0</ele><time>2026-04-07T06:47:33.789Z</time></trkpt><trkpt lat="38.2559744" lon="15.7711251"><ele>385.0</ele><time>2026-04-07T06:47:34.789Z</time></trkpt><trkpt lat="38.2561406" lon="15.7714177"><ele>385.0</ele><time>2026-04-07T06:47:35.789Z</time></trkpt><trkpt lat="38.2563063" lon="15.7717193"><ele>385.0</ele><time>2026-04-07T06:47:36.79Z</time></trkpt><trkpt lat="38.2564703" lon="15.7720157"><ele>415.5</ele><time>2026-04-07T06:47:37.789Z</time></trkpt><trkpt lat="38.2566351" lon="15.7723104"><ele>446.0</ele><time>2026-04-07T06:47:38.789Z</time></trkpt><trkpt lat="38.2567989" lon="15.7726041"><ele>354.0</ele><time>2026-04-07T06:47:39.789Z</time></trkpt><trkpt lat="38.2619817" lon="15.77968"><ele>354.0</ele><time>2026-04-07T06:48:07.789Z</time></trkpt><trkpt lat="38.2621379" lon="15.7799511"><ele>354.0</ele><time>2026-04-07T06:48:08.789Z</time></trkpt><trkpt lat="38.2622954" lon="15.780226"><ele>379.0</ele><time>2026-04-07T06:48:09.788Z</time></trkpt><trkpt lat="38.270025" lon="15.79983"><ele>379.0</ele><time>2026-04-07T06:49:12.787Z</time></trkpt><trkpt lat="38.2701517" lon="15.8001517"><ele>379.0</ele><time>2026-04-07T06:49:13.788Z</time></trkpt><trkpt lat="38.2702567" lon="15.8004833"><ele>330.0</ele><time>2026-04-07T06:49:14.788Z</time></trkpt><trkpt lat="38.27036" lon="15.8008017"><ele>281.0</ele><time>2026-04-07T06:49:15.787Z</time></trkpt><trkpt lat="38.27046" lon="15.8011233"><ele>260.5</ele><time>2026-04-07T06:49:16.787Z</time></trkpt><trkpt lat="38.2705567" lon="15.80145"><ele>240.0</ele><time>2026-04-07T06:49:17.787Z</time></trkpt><trkpt lat="38.270655" lon="15.801775"><ele>220.0</ele><time>2026-04-07T06:49:18.787Z</time></trkpt><trkpt lat="38.270755" lon="15.8021033"><ele>200.0</ele><time>2026-04-07T06:49:19.787Z</time></trkpt><trkpt lat="38.270855" lon="15.8024267"><ele>194.5</ele><time>2026-04-07T06:49:20.787Z</time></trkpt><trkpt lat="38.2709483" lon="15.8027567"><ele>189.0</ele><time>2026-04-07T06:49:21.787Z</time></trkpt><trkpt lat="38.2710433" lon="15.8030783"><ele>189.0</ele><time>2026-04-07T06:49:22.788Z</time></trkpt><trkpt lat="38.2711367" lon="15.8034017"><ele>189.0</ele><time>2026-04-07T06:49:23.787Z</time></trkpt><trkpt lat="38.271235" lon="15.8037367"><ele>207.5</ele><time>2026-04-07T06:49:24.788Z</time></trkpt><trkpt lat="38.2713283" lon="15.8040683"><ele>226.0</ele><time>2026-04-07T06:49:25.787Z</time></trkpt><trkpt lat="38.271425" lon="15.8043933"><ele>257.5</ele><time>2026-04-07T06:49:26.788Z</time></trkpt><trkpt lat="38.2715233" lon="15.80472"><ele>289.0</ele><time>2026-04-07T06:49:27.787Z</time></trkpt><trkpt lat="38.2716183" lon="15.8050433"><ele>304.0</ele><time>2026-04-07T06:49:28.787Z</time></trkpt><trkpt lat="38.2717133" lon="15.805365"><ele>319.0</ele><time>2026-04-07T06:49:29.787Z</time></trkpt><trkpt lat="38.2718117" lon="15.80569"><ele>334.5</ele><time>2026-04-07T06:49:30.787Z</time></trkpt><trkpt lat="38.2718967" lon="15.8060183"><ele>350.0</ele><time>2026-04-07T06:49:31.787Z</time></trkpt><trkpt lat="38.271985" lon="15.8063467"><ele>350.0</ele><time>2026-04-07T06:49:32.787Z</time></trkpt><trkpt lat="38.2720733" lon="15.8066817"><ele>350.0</ele><time>2026-04-07T06:49:33.787Z</time></trkpt><trkpt lat="38.2721617" lon="15.8070017"><ele>373.5</ele><time>2026-04-07T06:49:34.787Z</time></trkpt><trkpt lat="38.2722467" lon="15.807325"><ele>397.0</ele><time>2026-04-07T06:49:35.787Z</time></trkpt><trkpt lat="38.272335" lon="15.80765"><ele>430.5</ele><time>2026-04-07T06:49:36.787Z</time></trkpt><trkpt lat="38.2724267" lon="15.8079783"><ele>464.0</ele><time>2026-04-07T06:49:37.787Z</time></trkpt><trkpt lat="38.27252" lon="15.8083133"><ele>480.5</ele><time>2026-04-07T06:49:38.787Z</time></trkpt><trkpt lat="38.2726117" lon="15.80865"><ele>497.0</ele><time>2026-04-07T06:49:39.787Z</time></trkpt><trkpt lat="38.2727033" lon="15.8089867"><ele>497.0</ele><time>2026-04-07T06:49:40.787Z</time></trkpt><trkpt lat="38.291265" lon="15.8357817"><ele>498.5</ele><time>2026-04-07T06:51:21.788Z</time></trkpt><trkpt lat="38.291405" lon="15.8361483"><ele>500.0</ele><time>2026-04-07T06:51:22.787Z</time></trkpt><trkpt lat="38.2915433" lon="15.836465"><ele>500.0</ele><time>2026-04-07T06:51:23.787Z</time></trkpt><trkpt lat="38.2916917" lon="15.8367667"><ele>500.0</ele><time>2026-04-07T06:51:24.787Z</time></trkpt><trkpt lat="38.2918483" lon="15.8370467"><ele>503.5</ele><time>2026-04-07T06:51:25.787Z</time></trkpt><trkpt lat="38.292005" lon="15.8373333"><ele>507.0</ele><time>2026-04-07T06:51:26.787Z</time></trkpt><trkpt lat="38.292165" lon="15.8376233"><ele>505.5</ele><time>2026-04-07T06:51:27.788Z</time></trkpt><trkpt lat="38.2923233" lon="15.8379117"><ele>504.0</ele><time>2026-04-07T06:51:28.787Z</time></trkpt><trkpt lat="38.2927933" lon="15.838815"><ele>501.0</ele><time>2026-04-07T06:51:31.789Z</time></trkpt><trkpt lat="38.2930383" lon="15.8390633"><ele>498.0</ele><time>2026-04-07T06:51:32.789Z</time></trkpt><trkpt lat="38.293265" lon="15.8393217"><ele>490.5</ele><time>2026-04-07T06:51:33.789Z</time></trkpt><trkpt lat="38.2934433" lon="15.8395533"><ele>483.0</ele><time>2026-04-07T06:51:34.788Z</time></trkpt><trkpt lat="38.293655" lon="15.8398233"><ele>483.0</ele><time>2026-04-07T06:51:35.788Z</time></trkpt><trkpt lat="38.2938567" lon="15.8400883"><ele>483.0</ele><time>2026-04-07T06:51:36.789Z</time></trkpt><trkpt lat="38.29407" lon="15.8403317"><ele>491.0</ele><time>2026-04-07T06:51:37.789Z</time></trkpt><trkpt lat="38.294285" lon="15.8405717"><ele>499.0</ele><time>2026-04-07T06:51:38.788Z</time></trkpt><trkpt lat="38.2944983" lon="15.8408033"><ele>504.5</ele><time>2026-04-07T06:51:39.789Z</time></trkpt><trkpt lat="38.2947133" lon="15.8410333"><ele>510.0</ele><time>2026-04-07T06:51:40.788Z</time></trkpt><trkpt lat="38.2949317" lon="15.84127"><ele>520.0</ele><time>2026-04-07T06:51:41.788Z</time></trkpt><trkpt lat="38.2951467" lon="15.8415067"><ele>530.0</ele><time>2026-04-07T06:51:42.789Z</time></trkpt><trkpt lat="38.2953633" lon="15.8417433"><ele>501.0</ele><time>2026-04-07T06:51:43.788Z</time></trkpt><trkpt lat="38.3026317" lon="15.8439233"><ele>501.0</ele><time>2026-04-07T06:52:09.788Z</time></trkpt><trkpt lat="38.3029133" lon="15.84395"><ele>501.0</ele><time>2026-04-07T06:52:10.788Z</time></trkpt><trkpt lat="38.3031833" lon="15.8439617"><ele>499.5</ele><time>2026-04-07T06:52:11.788Z</time></trkpt><trkpt lat="38.3034683" lon="15.8439883"><ele>498.0</ele><time>2026-04-07T06:52:12.788Z</time></trkpt><trkpt lat="38.303745" lon="15.84402"><ele>495.0</ele><time>2026-04-07T06:52:13.788Z</time></trkpt><trkpt lat="38.3040183" lon="15.8440533"><ele>492.0</ele><time>2026-04-07T06:52:14.788Z</time></trkpt><trkpt lat="38.304305" lon="15.8440917"><ele>492.0</ele><time>2026-04-07T06:52:15.788Z</time></trkpt><trkpt lat="38.3045883" lon="15.8441367"><ele>492.0</ele><time>2026-04-07T06:52:16.788Z</time></trkpt><trkpt lat="38.3048733" lon="15.8441733"><ele>490.5</ele><time>2026-04-07T06:52:17.788Z</time></trkpt><trkpt lat="38.3051617" lon="15.84421"><ele>489.0</ele><time>2026-04-07T06:52:18.788Z</time></trkpt><trkpt lat="38.3054517" lon="15.8442417"><ele>488.5</ele><time>2026-04-07T06:52:19.788Z</time></trkpt><trkpt lat="38.3057433" lon="15.8442667"><ele>488.0</ele><time>2026-04-07T06:52:20.788Z</time></trkpt><trkpt lat="38.3060283" lon="15.84429"><ele>489.0</ele><time>2026-04-07T06:52:21.788Z</time></trkpt><trkpt lat="38.306315" lon="15.84431"><ele>490.0</ele><time>2026-04-07T06:52:22.789Z</time></trkpt><trkpt lat="38.3066017" lon="15.84433"><ele>488.0</ele><time>2026-04-07T06:52:23.789Z</time></trkpt><trkpt lat="38.30689" lon="15.8443417"><ele>486.0</ele><time>2026-04-07T06:52:24.789Z</time></trkpt><trkpt lat="38.307175" lon="15.8443483"><ele>485.0</ele><time>2026-04-07T06:52:25.788Z</time></trkpt><trkpt lat="38.3074617" lon="15.84434"><ele>484.0</ele><time>2026-04-07T06:52:26.788Z</time></trkpt><trkpt lat="38.3077467" lon="15.8443383"><ele>484.0</ele><time>2026-04-07T06:52:27.789Z</time></trkpt><trkpt lat="38.308035" lon="15.8443283"><ele>484.0</ele><time>2026-04-07T06:52:28.789Z</time></trkpt><trkpt lat="38.3083217" lon="15.844315"><ele>482.5</ele><time>2026-04-07T06:52:29.788Z</time></trkpt><trkpt lat="38.30861" lon="15.844295"><ele>481.0</ele><time>2026-04-07T06:52:30.789Z</time></trkpt><trkpt lat="38.3088933" lon="15.8442633"><ele>481.0</ele><time>2026-04-07T06:52:31.788Z</time></trkpt><trkpt lat="38.3091833" lon="15.844225"><ele>481.0</ele><time>2026-04-07T06:52:32.788Z</time></trkpt><trkpt lat="38.3094667" lon="15.8441933"><ele>480.5</ele><time>2026-04-07T06:52:33.788Z</time></trkpt><trkpt lat="38.30975" lon="15.8441467"><ele>480.0</ele><time>2026-04-07T06:52:34.789Z</time></trkpt><trkpt lat="38.3100333" lon="15.84409"><ele>480.0</ele><time>2026-04-07T06:52:35.789Z</time></trkpt><trkpt lat="38.31031" lon="15.8440367"><ele>480.0</ele><time>2026-04-07T06:52:36.788Z</time></trkpt><trkpt lat="38.31059" lon="15.84398"><ele>479.0</ele><time>2026-04-07T06:52:37.789Z</time></trkpt><trkpt lat="38.3108683" lon="15.84392"><ele>478.0</ele><time>2026-04-07T06:52:38.788Z</time></trkpt><trkpt lat="38.3111467" lon="15.8438483"><ele>477.0</ele><time>2026-04-07T06:52:39.79Z</time></trkpt><trkpt lat="38.311425" lon="15.8437683"><ele>476.0</ele><time>2026-04-07T06:52:40.789Z</time></trkpt><trkpt lat="38.31171" lon="15.8436833"><ele>476.0</ele><time>2026-04-07T06:52:41.789Z</time></trkpt><trkpt lat="38.3119867" lon="15.8435933"><ele>476.0</ele><time>2026-04-07T06:52:42.789Z</time></trkpt><trkpt lat="38.3122667" lon="15.8435017"><ele>477.5</ele><time>2026-04-07T06:52:43.789Z</time></trkpt><trkpt lat="38.312555" lon="15.8434067"><ele>479.0</ele><time>2026-04-07T06:52:44.79Z</time></trkpt><trkpt lat="38.3128383" lon="15.843315"><ele>480.5</ele><time>2026-04-07T06:52:45.789Z</time></trkpt><trkpt lat="38.31312" lon="15.8432217"><ele>482.0</ele><time>2026-04-07T06:52:46.789Z</time></trkpt><trkpt lat="38.3133967" lon="15.8431333"><ele>482.0</ele><time>2026-04-07T06:52:47.79Z</time></trkpt><trkpt lat="38.3136817" lon="15.84304"><ele>482.0</ele><time>2026-04-07T06:52:48.789Z</time></trkpt><trkpt lat="38.3139633" lon="15.8429517"><ele>483.0</ele><time>2026-04-07T06:52:49.789Z</time></trkpt><trkpt lat="38.3142433" lon="15.84286"><ele>484.0</ele><time>2026-04-07T06:52:50.789Z</time></trkpt><trkpt lat="38.31453" lon="15.8427667"><ele>484.0</ele><time>2026-04-07T06:52:51.789Z</time></trkpt><trkpt lat="38.3148167" lon="15.8426733"><ele>484.0</ele><time>2026-04-07T06:52:52.79Z</time></trkpt><trkpt lat="38.31509" lon="15.8425867"><ele>484.0</ele><time>2026-04-07T06:52:53.789Z</time></trkpt><trkpt lat="38.3153733" lon="15.8425017"><ele>484.0</ele><time>2026-04-07T06:52:54.789Z</time></trkpt><trkpt lat="38.3156567" lon="15.8424133"><ele>485.5</ele><time>2026-04-07T06:52:55.789Z</time></trkpt><trkpt lat="38.31594" lon="15.8423267"><ele>487.0</ele><time>2026-04-07T06:52:56.789Z</time></trkpt><trkpt lat="38.3162233" lon="15.84224"><ele>489.5</ele><time>2026-04-07T06:52:57.789Z</time></trkpt><trkpt lat="38.3165067" lon="15.8421533"><ele>492.0</ele><time>2026-04-07T06:52:58.789Z</time></trkpt><trkpt lat="38.3331867" lon="15.8590117"><ele>438.0</ele><time>2026-04-07T06:54:17.789Z</time></trkpt><trkpt lat="38.33338" lon="15.8592633"><ele>384.0</ele><time>2026-04-07T06:54:18.789Z</time></trkpt><trkpt lat="38.3335717" lon="15.8595233"><ele>383.5</ele><time>2026-04-07T06:54:19.79Z</time></trkpt><trkpt lat="38.333765" lon="15.8597717"><ele>383.0</ele><time>2026-04-07T06:54:20.789Z</time></trkpt><trkpt lat="38.3339667" lon="15.860015"><ele>377.0</ele><time>2026-04-07T06:54:21.789Z</time></trkpt><trkpt lat="38.3341733" lon="15.860255"><ele>371.0</ele><time>2026-04-07T06:54:22.789Z</time></trkpt><trkpt lat="38.334385" lon="15.8604867"><ele>371.0</ele><time>2026-04-07T06:54:23.789Z</time></trkpt><trkpt lat="38.3345983" lon="15.860705"><ele>371.0</ele><time>2026-04-07T06:54:24.789Z</time></trkpt><trkpt lat="38.334815" lon="15.8609217"><ele>370.0</ele><time>2026-04-07T06:54:25.789Z</time></trkpt><trkpt lat="38.3350383" lon="15.8611283"><ele>369.0</ele><time>2026-04-07T06:54:26.79Z</time></trkpt><trkpt lat="38.3352617" lon="15.86132"><ele>369.0</ele><time>2026-04-07T06:54:27.79Z</time></trkpt><trkpt lat="38.3354933" lon="15.861515"><ele>369.0</ele><time>2026-04-07T06:54:28.789Z</time></trkpt><trkpt lat="38.3357267" lon="15.86171"><ele>365.0</ele><time>2026-04-07T06:54:29.789Z</time></trkpt><trkpt lat="38.3359583" lon="15.8619133"><ele>361.0</ele><time>2026-04-07T06:54:30.789Z</time></trkpt><trkpt lat="38.3361917" lon="15.86212"><ele>360.5</ele><time>2026-04-07T06:54:31.789Z</time></trkpt><trkpt lat="38.336425" lon="15.862315"><ele>360.0</ele><time>2026-04-07T06:54:32.79Z</time></trkpt><trkpt lat="38.33666" lon="15.862515"><ele>352.0</ele><time>2026-04-07T06:54:33.789Z</time></trkpt><trkpt lat="38.3369" lon="15.8627217"><ele>344.0</ele><time>2026-04-07T06:54:34.789Z</time></trkpt><trkpt lat="38.3371417" lon="15.8629283"><ele>345.0</ele><time>2026-04-07T06:54:35.79Z</time></trkpt><trkpt lat="38.33738" lon="15.863125"><ele>346.0</ele><time>2026-04-07T06:54:36.789Z</time></trkpt><trkpt lat="38.3376233" lon="15.863325"><ele>340.5</ele><time>2026-04-07T06:54:37.789Z</time></trkpt><trkpt lat="38.3378633" lon="15.8635333"><ele>335.0</ele><time>2026-04-07T06:54:38.789Z</time></trkpt><trkpt lat="38.3381033" lon="15.863735"><ele>335.0</ele><time>2026-04-07T06:54:39.79Z</time></trkpt><trkpt lat="38.3383433" lon="15.8639383"><ele>335.0</ele><time>2026-04-07T06:54:40.789Z</time></trkpt><trkpt lat="38.33859" lon="15.864145"><ele>336.5</ele><time>2026-04-07T06:54:41.79Z</time></trkpt><trkpt lat="38.3388283" lon="15.86435"><ele>338.0</ele><time>2026-04-07T06:54:42.79Z</time></trkpt><trkpt lat="38.33907" lon="15.8645483"><ele>338.0</ele><time>2026-04-07T06:54:43.79Z</time></trkpt><trkpt lat="38.3393117" lon="15.8647483"><ele>338.0</ele><time>2026-04-07T06:54:44.789Z</time></trkpt><trkpt lat="38.33955" lon="15.8649483"><ele>341.0</ele><time>2026-04-07T06:54:45.789Z</time></trkpt><trkpt lat="38.3397833" lon="15.8651483"><ele>344.0</ele><time>2026-04-07T06:54:46.789Z</time></trkpt><trkpt lat="38.3400167" lon="15.8653533"><ele>344.0</ele><time>2026-04-07T06:54:47.789Z</time></trkpt><trkpt lat="38.3402583" lon="15.8655483"><ele>344.0</ele><time>2026-04-07T06:54:48.789Z</time></trkpt><trkpt lat="38.3404983" lon="15.8657467"><ele>339.0</ele><time>2026-04-07T06:54:49.789Z</time></trkpt><trkpt lat="38.3407333" lon="15.8659417"><ele>334.0</ele><time>2026-04-07T06:54:50.789Z</time></trkpt><trkpt lat="38.340975" lon="15.86615"><ele>334.0</ele><time>2026-04-07T06:54:51.789Z</time></trkpt><trkpt lat="38.3412133" lon="15.866355"><ele>334.0</ele><time>2026-04-07T06:54:52.789Z</time></trkpt><trkpt lat="38.341455" lon="15.8665567"><ele>328.5</ele><time>2026-04-07T06:54:53.79Z</time></trkpt><trkpt lat="38.3416917" lon="15.8667633"><ele>323.0</ele><time>2026-04-07T06:54:54.79Z</time></trkpt><trkpt lat="38.341935" lon="15.8669583"><ele>323.0</ele><time>2026-04-07T06:54:55.789Z</time></trkpt><trkpt lat="38.3421783" lon="15.8671467"><ele>323.0</ele><time>2026-04-07T06:54:56.789Z</time></trkpt><trkpt lat="38.3424183" lon="15.86734"><ele>319.0</ele><time>2026-04-07T06:54:57.79Z</time></trkpt><trkpt lat="38.34266" lon="15.86753"><ele>315.0</ele><time>2026-04-07T06:54:58.789Z</time></trkpt><trkpt lat="38.3429033" lon="15.86772"><ele>318.5</ele><time>2026-04-07T06:54:59.79Z</time></trkpt><trkpt lat="38.34315" lon="15.86791"><ele>322.0</ele><time>2026-04-07T06:55:00.79Z</time></trkpt><trkpt lat="38.3433967" lon="15.868095"><ele>322.0</ele><time>2026-04-07T06:55:01.789Z</time></trkpt><trkpt lat="38.34365" lon="15.8682667"><ele>322.0</ele><time>2026-04-07T06:55:02.79Z</time></trkpt><trkpt lat="38.343905" lon="15.8684383"><ele>320.0</ele><time>2026-04-07T06:55:03.789Z</time></trkpt><trkpt lat="38.3441617" lon="15.8686017"><ele>318.0</ele><time>2026-04-07T06:55:04.789Z</time></trkpt><trkpt lat="38.3444267" lon="15.8687633"><ele>318.0</ele><time>2026-04-07T06:55:05.789Z</time></trkpt><trkpt lat="38.3446883" lon="15.8689217"><ele>318.0</ele><time>2026-04-07T06:55:06.789Z</time></trkpt><trkpt lat="38.34495" lon="15.869075"><ele>314.0</ele><time>2026-04-07T06:55:07.79Z</time></trkpt><trkpt lat="38.3452167" lon="15.8692117"><ele>310.0</ele><time>2026-04-07T06:55:08.789Z</time></trkpt><trkpt lat="38.3454833" lon="15.86935"><ele>317.0</ele><time>2026-04-07T06:55:09.789Z</time></trkpt><trkpt lat="38.3457483" lon="15.8694867"><ele>324.0</ele><time>2026-04-07T06:55:10.789Z</time></trkpt><trkpt lat="38.34601" lon="15.8696283"><ele>324.0</ele><time>2026-04-07T06:55:11.789Z</time></trkpt><trkpt lat="38.34627" lon="15.8697683"><ele>324.0</ele><time>2026-04-07T06:55:12.789Z</time></trkpt><trkpt lat="38.3465383" lon="15.86991"><ele>313.0</ele><time>2026-04-07T06:55:13.789Z</time></trkpt><trkpt lat="38.3468" lon="15.8700483"><ele>302.0</ele><time>2026-04-07T06:55:14.789Z</time></trkpt><trkpt lat="38.3541733" lon="15.868325"><ele>302.0</ele><time>2026-04-07T06:55:40.788Z</time></trkpt><trkpt lat="38.3544217" lon="15.8681267"><ele>302.0</ele><time>2026-04-07T06:55:41.788Z</time></trkpt><trkpt lat="38.35467" lon="15.8679217"><ele>302.0</ele><time>2026-04-07T06:55:42.788Z</time></trkpt><trkpt lat="38.3549133" lon="15.867725"><ele>302.0</ele><time>2026-04-07T06:55:43.789Z</time></trkpt><trkpt lat="38.35516" lon="15.8675233"><ele>302.0</ele><time>2026-04-07T06:55:44.788Z</time></trkpt><trkpt lat="38.3554083" lon="15.86733"><ele>302.0</ele><time>2026-04-07T06:55:45.788Z</time></trkpt><trkpt lat="38.35565" lon="15.8671367"><ele>299.0</ele><time>2026-04-07T06:55:46.788Z</time></trkpt><trkpt lat="38.3558967" lon="15.86695"><ele>296.0</ele><time>2026-04-07T06:55:47.788Z</time></trkpt><trkpt lat="38.3561467" lon="15.8667617"><ele>293.0</ele><time>2026-04-07T06:55:48.789Z</time></trkpt><trkpt lat="38.356395" lon="15.866575"><ele>290.0</ele><time>2026-04-07T06:55:49.788Z</time></trkpt><trkpt lat="38.356645" lon="15.866415"><ele>290.0</ele><time>2026-04-07T06:55:50.788Z</time></trkpt><trkpt lat="38.3569" lon="15.8662533"><ele>290.0</ele><time>2026-04-07T06:55:51.789Z</time></trkpt><trkpt lat="38.3571583" lon="15.8660983"><ele>288.0</ele><time>2026-04-07T06:55:52.788Z</time></trkpt><trkpt lat="38.3574233" lon="15.86595"><ele>286.0</ele><time>2026-04-07T06:55:53.789Z</time></trkpt><trkpt lat="38.3576883" lon="15.8658167"><ele>289.5</ele><time>2026-04-07T06:55:54.788Z</time></trkpt><trkpt lat="38.357965" lon="15.8657033"><ele>293.0</ele><time>2026-04-07T06:55:55.788Z</time></trkpt><trkpt lat="38.35824" lon="15.8656017"><ele>293.0</ele><time>2026-04-07T06:55:56.788Z</time></trkpt><trkpt lat="38.3585183" lon="15.86551"><ele>293.0</ele><time>2026-04-07T06:55:57.788Z</time></trkpt><trkpt lat="38.3587967" lon="15.86543"><ele>291.0</ele><time>2026-04-07T06:55:58.789Z</time></trkpt><trkpt lat="38.3590783" lon="15.86535"><ele>289.0</ele><time>2026-04-07T06:55:59.789Z</time></trkpt><trkpt lat="38.3593633" lon="15.8652933"><ele>289.0</ele><time>2026-04-07T06:56:00.788Z</time></trkpt><trkpt lat="38.3596467" lon="15.8652333"><ele>289.0</ele><time>2026-04-07T06:56:01.788Z</time></trkpt><trkpt lat="38.3599317" lon="15.8651933"><ele>287.0</ele><time>2026-04-07T06:56:02.788Z</time></trkpt><trkpt lat="38.3602167" lon="15.8651583"><ele>285.0</ele><time>2026-04-07T06:56:03.788Z</time></trkpt><trkpt lat="38.3605067" lon="15.865135"><ele>282.5</ele><time>2026-04-07T06:56:04.788Z</time></trkpt><trkpt lat="38.3607967" lon="15.8651183"><ele>280.0</ele><time>2026-04-07T06:56:05.788Z</time></trkpt><trkpt lat="38.3610867" lon="15.8651183"><ele>278.0</ele><time>2026-04-07T06:56:06.789Z</time></trkpt><trkpt lat="38.3613767" lon="15.86512"><ele>276.0</ele><time>2026-04-07T06:56:07.789Z</time></trkpt><trkpt lat="38.3616683" lon="15.8651233"><ele>276.0</ele><time>2026-04-07T06:56:08.788Z</time></trkpt><trkpt lat="38.361955" lon="15.865135"><ele>276.0</ele><time>2026-04-07T06:56:09.788Z</time></trkpt><trkpt lat="38.3622483" lon="15.865155"><ele>273.5</ele><time>2026-04-07T06:56:10.788Z</time></trkpt><trkpt lat="38.36253" lon="15.8651767"><ele>271.0</ele><time>2026-04-07T06:56:11.788Z</time></trkpt><trkpt lat="38.36282" lon="15.8651933"><ele>269.0</ele><time>2026-04-07T06:56:12.789Z</time></trkpt><trkpt lat="38.36311" lon="15.865205"><ele>267.0</ele><time>2026-04-07T06:56:13.788Z</time></trkpt><trkpt lat="38.3633933" lon="15.8652283"><ele>267.0</ele><time>2026-04-07T06:56:14.788Z</time></trkpt><trkpt lat="38.3636783" lon="15.8652417"><ele>267.0</ele><time>2026-04-07T06:56:15.788Z</time></trkpt><trkpt lat="38.3639633" lon="15.8652533"><ele>264.5</ele><time>2026-04-07T06:56:16.788Z</time></trkpt><trkpt lat="38.3642517" lon="15.86527"><ele>262.0</ele><time>2026-04-07T06:56:17.788Z</time></trkpt><trkpt lat="38.36453" lon="15.8652917"><ele>260.5</ele><time>2026-04-07T06:56:18.788Z</time></trkpt><trkpt lat="38.3648117" lon="15.8653083"><ele>259.0</ele><time>2026-04-07T06:56:19.788Z</time></trkpt><trkpt lat="38.3650917" lon="15.8653283"><ele>259.0</ele><time>2026-04-07T06:56:20.788Z</time></trkpt><trkpt lat="38.3653783" lon="15.86534"><ele>259.0</ele><time>2026-04-07T06:56:21.788Z</time></trkpt><trkpt lat="38.36566" lon="15.86535"><ele>256.5</ele><time>2026-04-07T06:56:22.788Z</time></trkpt><trkpt lat="38.3659417" lon="15.8653583"><ele>254.0</ele><time>2026-04-07T06:56:23.788Z</time></trkpt><trkpt lat="38.3662283" lon="15.86536"><ele>254.0</ele><time>2026-04-07T06:56:24.789Z</time></trkpt><trkpt lat="38.3665133" lon="15.8653733"><ele>254.0</ele><time>2026-04-07T06:56:25.788Z</time></trkpt><trkpt lat="38.3667983" lon="15.8653883"><ele>254.0</ele><time>2026-04-07T06:56:26.789Z</time></trkpt><trkpt lat="38.3670833" lon="15.8654033"><ele>254.0</ele><time>2026-04-07T06:56:27.788Z</time></trkpt><trkpt lat="38.3673683" lon="15.8654183"><ele>252.5</ele><time>2026-04-07T06:56:28.789Z</time></trkpt><trkpt lat="38.3676567" lon="15.8654417"><ele>251.0</ele><time>2026-04-07T06:56:29.789Z</time></trkpt><trkpt lat="38.3679433" lon="15.8654567"><ele>250.5</ele><time>2026-04-07T06:56:30.788Z</time></trkpt><trkpt lat="38.36823" lon="15.8654883"><ele>250.0</ele><time>2026-04-07T06:56:31.789Z</time></trkpt><trkpt lat="38.3685117" lon="15.8655267"><ele>250.0</ele><time>2026-04-07T06:56:32.788Z</time></trkpt><trkpt lat="38.3687983" lon="15.8655733"><ele>250.0</ele><time>2026-04-07T06:56:33.788Z</time></trkpt><trkpt lat="38.3690783" lon="15.8656267"><ele>249.0</ele><time>2026-04-07T06:56:34.788Z</time></trkpt><trkpt lat="38.36936" lon="15.865695"><ele>248.0</ele><time>2026-04-07T06:56:35.789Z</time></trkpt><trkpt lat="38.3696433" lon="15.8657833"><ele>245.0</ele><time>2026-04-07T06:56:36.789Z</time></trkpt><trkpt lat="38.3699283" lon="15.8658933"><ele>242.0</ele><time>2026-04-07T06:56:37.788Z</time></trkpt><trkpt lat="38.3702083" lon="15.8660233"><ele>244.0</ele><time>2026-04-07T06:56:38.789Z</time></trkpt><trkpt lat="38.370485" lon="15.8661633"><ele>246.0</ele><time>2026-04-07T06:56:39.788Z</time></trkpt><trkpt lat="38.370755" lon="15.8663167"><ele>246.0</ele><time>2026-04-07T06:56:40.788Z</time></trkpt><trkpt lat="38.371015" lon="15.86649"><ele>246.0</ele><time>2026-04-07T06:56:41.788Z</time></trkpt><trkpt lat="38.37127" lon="15.8666733"><ele>241.0</ele><time>2026-04-07T06:56:42.788Z</time></trkpt><trkpt lat="38.37152" lon="15.8668617"><ele>236.0</ele><time>2026-04-07T06:56:43.788Z</time></trkpt><trkpt lat="38.371765" lon="15.86705"><ele>236.0</ele><time>2026-04-07T06:56:44.788Z</time></trkpt><trkpt lat="38.3720017" lon="15.8672567"><ele>236.0</ele><time>2026-04-07T06:56:45.788Z</time></trkpt><trkpt lat="38.3722367" lon="15.8674633"><ele>234.0</ele><time>2026-04-07T06:56:46.788Z</time></trkpt><trkpt lat="38.3724667" lon="15.8676883"><ele>232.0</ele><time>2026-04-07T06:56:47.789Z</time></trkpt><trkpt lat="38.372695" lon="15.8679117"><ele>232.0</ele><time>2026-04-07T06:56:48.788Z</time></trkpt><trkpt lat="38.37292" lon="15.868135"><ele>232.0</ele><time>2026-04-07T06:56:49.788Z</time></trkpt><trkpt lat="38.373145" lon="15.868355"><ele>230.5</ele><time>2026-04-07T06:56:50.788Z</time></trkpt><trkpt lat="38.3733717" lon="15.8685833"><ele>229.0</ele><time>2026-04-07T06:56:51.788Z</time></trkpt><trkpt lat="38.37361" lon="15.868805"><ele>229.0</ele><time>2026-04-07T06:56:52.789Z</time></trkpt><trkpt lat="38.3738517" lon="15.8690333"><ele>229.0</ele><time>2026-04-07T06:56:53.789Z</time></trkpt><trkpt lat="38.3740933" lon="15.86926"><ele>223.0</ele><time>2026-04-07T06:56:54.788Z</time></trkpt><trkpt lat="38.3743383" lon="15.8694867"><ele>217.0</ele><time>2026-04-07T06:56:55.789Z</time></trkpt><trkpt lat="38.374585" lon="15.869715"><ele>219.5</ele><time>2026-04-07T06:56:56.788Z</time></trkpt><trkpt lat="38.3748283" lon="15.869945"><ele>222.0</ele><time>2026-04-07T06:56:57.788Z</time></trkpt><trkpt lat="38.3750767" lon="15.8701733"><ele>218.0</ele><time>2026-04-07T06:56:58.788Z</time></trkpt><trkpt lat="38.3753183" lon="15.8703967"><ele>214.0</ele><time>2026-04-07T06:56:59.788Z</time></trkpt><trkpt lat="38.3755567" lon="15.870625"><ele>214.0</ele><time>2026-04-07T06:57:00.788Z</time></trkpt><trkpt lat="38.3757983" lon="15.87085"><ele>214.0</ele><time>2026-04-07T06:57:01.788Z</time></trkpt><trkpt lat="38.37604" lon="15.87107"><ele>209.5</ele><time>2026-04-07T06:57:02.788Z</time></trkpt><trkpt lat="38.3762817" lon="15.8712917"><ele>205.0</ele><time>2026-04-07T06:57:03.788Z</time></trkpt><trkpt lat="38.376525" lon="15.8715183"><ele>210.5</ele><time>2026-04-07T06:57:04.788Z</time></trkpt><trkpt lat="38.3767667" lon="15.8717467"><ele>216.0</ele><time>2026-04-07T06:57:05.789Z</time></trkpt><trkpt lat="38.3770033" lon="15.8719617"><ele>232.5</ele><time>2026-04-07T06:57:06.788Z</time></trkpt><trkpt lat="38.3772383" lon="15.8721717"><ele>249.0</ele><time>2026-04-07T06:57:07.788Z</time></trkpt><trkpt lat="38.37747" lon="15.87236"><ele>249.0</ele><time>2026-04-07T06:57:08.788Z</time></trkpt><trkpt lat="38.3777033" lon="15.872565"><ele>249.0</ele><time>2026-04-07T06:57:09.788Z</time></trkpt><trkpt lat="38.3779383" lon="15.8727683"><ele>261.5</ele><time>2026-04-07T06:57:10.788Z</time></trkpt><trkpt lat="38.3781717" lon="15.8729733"><ele>274.0</ele><time>2026-04-07T06:57:11.788Z</time></trkpt><trkpt lat="38.3821583" lon="15.8813417"><ele>223.0</ele><time>2026-04-07T06:57:37.788Z</time></trkpt><trkpt lat="38.3822167" lon="15.8817567"><ele>172.0</ele><time>2026-04-07T06:57:38.788Z</time></trkpt><trkpt lat="38.3822767" lon="15.88214"><ele>167.5</ele><time>2026-04-07T06:57:39.788Z</time></trkpt><trkpt lat="38.3823267" lon="15.8824967"><ele>163.0</ele><time>2026-04-07T06:57:40.788Z</time></trkpt><trkpt lat="38.3823817" lon="15.8828667"><ele>160.0</ele><time>2026-04-07T06:57:41.788Z</time></trkpt><trkpt lat="38.38243" lon="15.883235"><ele>157.0</ele><time>2026-04-07T06:57:42.788Z</time></trkpt><trkpt lat="38.382475" lon="15.883605"><ele>155.0</ele><time>2026-04-07T06:57:43.788Z</time></trkpt><trkpt lat="38.382515" lon="15.883975"><ele>153.0</ele><time>2026-04-07T06:57:44.789Z</time></trkpt><trkpt lat="38.3825567" lon="15.884345"><ele>151.0</ele><time>2026-04-07T06:57:45.789Z</time></trkpt><trkpt lat="38.3826017" lon="15.8847217"><ele>149.0</ele><time>2026-04-07T06:57:46.789Z</time></trkpt><trkpt lat="38.38264" lon="15.885095"><ele>147.0</ele><time>2026-04-07T06:57:47.788Z</time></trkpt><trkpt lat="38.3826767" lon="15.8854683"><ele>145.0</ele><time>2026-04-07T06:57:48.789Z</time></trkpt><trkpt lat="38.3827133" lon="15.885845"><ele>143.5</ele><time>2026-04-07T06:57:49.788Z</time></trkpt><trkpt lat="38.38275" lon="15.8862167"><ele>142.0</ele><time>2026-04-07T06:57:50.788Z</time></trkpt><trkpt lat="38.38279" lon="15.8865933"><ele>141.0</ele><time>2026-04-07T06:57:51.788Z</time></trkpt><trkpt lat="38.382835" lon="15.8869683"><ele>140.0</ele><time>2026-04-07T06:57:52.788Z</time></trkpt><trkpt lat="38.3828867" lon="15.8873417"><ele>138.5</ele><time>2026-04-07T06:57:53.788Z</time></trkpt><trkpt lat="38.3829433" lon="15.8877167"><ele>137.0</ele><time>2026-04-07T06:57:54.788Z</time></trkpt><trkpt lat="38.383005" lon="15.8880933"><ele>137.5</ele><time>2026-04-07T06:57:55.789Z</time></trkpt><trkpt lat="38.3830833" lon="15.8884633"><ele>138.0</ele><time>2026-04-07T06:57:56.788Z</time></trkpt><trkpt lat="38.38316" lon="15.8888267"><ele>138.0</ele><time>2026-04-07T06:57:57.788Z</time></trkpt><trkpt lat="38.3832433" lon="15.8891917"><ele>138.0</ele><time>2026-04-07T06:57:58.788Z</time></trkpt><trkpt lat="38.3833383" lon="15.88955"><ele>136.5</ele><time>2026-04-07T06:57:59.789Z</time></trkpt><trkpt lat="38.3834317" lon="15.8899067"><ele>135.0</ele><time>2026-04-07T06:58:00.789Z</time></trkpt><trkpt lat="38.3835317" lon="15.8902617"><ele>132.5</ele><time>2026-04-07T06:58:01.789Z</time></trkpt><trkpt lat="38.3836333" lon="15.8906167"><ele>130.0</ele><time>2026-04-07T06:58:02.788Z</time></trkpt><trkpt lat="38.3837317" lon="15.8909717"><ele>127.0</ele><time>2026-04-07T06:58:03.788Z</time></trkpt><trkpt lat="38.38383" lon="15.891325"><ele>124.0</ele><time>2026-04-07T06:58:04.789Z</time></trkpt><trkpt lat="38.3839283" lon="15.8916833"><ele>123.5</ele><time>2026-04-07T06:58:05.788Z</time></trkpt><trkpt lat="38.3840267" lon="15.892035"><ele>123.0</ele><time>2026-04-07T06:58:06.789Z</time></trkpt><trkpt lat="38.38413" lon="15.8923883"><ele>122.5</ele><time>2026-04-07T06:58:07.788Z</time></trkpt><trkpt lat="38.38423" lon="15.892745"><ele>122.0</ele><time>2026-04-07T06:58:08.789Z</time></trkpt><trkpt lat="38.384335" lon="15.8930983"><ele>120.0</ele><time>2026-04-07T06:58:09.788Z</time></trkpt><trkpt lat="38.384435" lon="15.8934583"><ele>118.0</ele><time>2026-04-07T06:58:10.788Z</time></trkpt><trkpt lat="38.3845333" lon="15.8938117"><ele>118.0</ele><time>2026-04-07T06:58:11.788Z</time></trkpt><trkpt lat="38.3846333" lon="15.8941667"><ele>118.0</ele><time>2026-04-07T06:58:12.789Z</time></trkpt><trkpt lat="38.3847417" lon="15.89452"><ele>118.0</ele><time>2026-04-07T06:58:13.788Z</time></trkpt><trkpt lat="38.38487" lon="15.8948683"><ele>118.0</ele><time>2026-04-07T06:58:14.789Z</time></trkpt><trkpt lat="38.3850133" lon="15.8952033"><ele>114.5</ele><time>2026-04-07T06:58:15.789Z</time></trkpt><trkpt lat="38.3851683" lon="15.8955267"><ele>111.0</ele><time>2026-04-07T06:58:16.788Z</time></trkpt><trkpt lat="38.3853383" lon="15.8958433"><ele>107.5</ele><time>2026-04-07T06:58:17.789Z</time></trkpt><trkpt lat="38.3855133" lon="15.8961533"><ele>104.0</ele><time>2026-04-07T06:58:18.788Z</time></trkpt><trkpt lat="38.3857017" lon="15.8964533"><ele>104.0</ele><time>2026-04-07T06:58:19.788Z</time></trkpt><trkpt lat="38.385895" lon="15.8967433"><ele>104.0</ele><time>2026-04-07T06:58:20.788Z</time></trkpt><trkpt lat="38.38609" lon="15.8970283"><ele>104.0</ele><time>2026-04-07T06:58:21.788Z</time></trkpt><trkpt lat="38.386295" lon="15.897305"><ele>104.0</ele><time>2026-04-07T06:58:22.788Z</time></trkpt><trkpt lat="38.3864983" lon="15.8975733"><ele>97.5</ele><time>2026-04-07T06:58:23.788Z</time></trkpt><trkpt lat="38.3867083" lon="15.89784"><ele>91.0</ele><time>2026-04-07T06:58:24.788Z</time></trkpt><trkpt lat="38.3869233" lon="15.8981117"><ele>91.0</ele><time>2026-04-07T06:58:25.788Z</time></trkpt><trkpt lat="38.3871383" lon="15.898375"><ele>91.0</ele><time>2026-04-07T06:58:26.789Z</time></trkpt><trkpt lat="38.387355" lon="15.89864"><ele>91.0</ele><time>2026-04-07T06:58:27.788Z</time></trkpt><trkpt lat="38.3875667" lon="15.8989083"><ele>91.0</ele><time>2026-04-07T06:58:28.788Z</time></trkpt><trkpt lat="38.3877783" lon="15.8991717"><ele>86.5</ele><time>2026-04-07T06:58:29.788Z</time></trkpt><trkpt lat="38.3879917" lon="15.899435"><ele>82.0</ele><time>2026-04-07T06:58:30.789Z</time></trkpt><trkpt lat="38.38821" lon="15.8996917"><ele>82.0</ele><time>2026-04-07T06:58:31.788Z</time></trkpt><trkpt lat="38.3884233" lon="15.8999533"><ele>82.0</ele><time>2026-04-07T06:58:32.788Z</time></trkpt><trkpt lat="38.3886333" lon="15.9002133"><ele>82.0</ele><time>2026-04-07T06:58:33.788Z</time></trkpt><trkpt lat="38.3888417" lon="15.900485"><ele>82.0</ele><time>2026-04-07T06:58:34.788Z</time></trkpt><trkpt lat="38.3890533" lon="15.9007483"><ele>84.0</ele><time>2026-04-07T06:58:35.789Z</time></trkpt><trkpt lat="38.3892683" lon="15.9010117"><ele>86.0</ele><time>2026-04-07T06:58:36.788Z</time></trkpt><trkpt lat="38.389485" lon="15.9012767"><ele>87.0</ele><time>2026-04-07T06:58:37.788Z</time></trkpt><trkpt lat="38.3896983" lon="15.9015433"><ele>88.0</ele><time>2026-04-07T06:58:38.789Z</time></trkpt><trkpt lat="38.3899117" lon="15.9018067"><ele>88.0</ele><time>2026-04-07T06:58:39.788Z</time></trkpt><trkpt lat="38.390125" lon="15.9020717"><ele>88.0</ele><time>2026-04-07T06:58:40.789Z</time></trkpt><trkpt lat="38.3903417" lon="15.9023367"><ele>85.5</ele><time>2026-04-07T06:58:41.788Z</time></trkpt><trkpt lat="38.3905583" lon="15.9025967"><ele>83.0</ele><time>2026-04-07T06:58:42.788Z</time></trkpt><trkpt lat="38.390775" lon="15.902855"><ele>83.0</ele><time>2026-04-07T06:58:43.788Z</time></trkpt><trkpt lat="38.3909933" lon="15.9031033"><ele>83.0</ele><time>2026-04-07T06:58:44.788Z</time></trkpt><trkpt lat="38.39122" lon="15.903355"><ele>77.0</ele><time>2026-04-07T06:58:45.788Z</time></trkpt><trkpt lat="38.391445" lon="15.9036"><ele>71.0</ele><time>2026-04-07T06:58:46.788Z</time></trkpt><trkpt lat="38.3916733" lon="15.9038417"><ele>71.0</ele><time>2026-04-07T06:58:47.789Z</time></trkpt><trkpt lat="38.3919067" lon="15.9040633"><ele>71.0</ele><time>2026-04-07T06:58:48.788Z</time></trkpt><trkpt lat="38.392155" lon="15.9042817"><ele>63.5</ele><time>2026-04-07T06:58:49.788Z</time></trkpt><trkpt lat="38.3924083" lon="15.9044917"><ele>56.0</ele><time>2026-04-07T06:58:50.788Z</time></trkpt><trkpt lat="38.3926617" lon="15.9046867"><ele>56.0</ele><time>2026-04-07T06:58:51.788Z</time></trkpt><trkpt lat="38.3929217" lon="15.9048733"><ele>56.0</ele><time>2026-04-07T06:58:52.788Z</time></trkpt><trkpt lat="38.393185" lon="15.905045"><ele>54.0</ele><time>2026-04-07T06:58:53.789Z</time></trkpt><trkpt lat="38.393455" lon="15.9052083"><ele>52.0</ele><time>2026-04-07T06:58:54.789Z</time></trkpt><trkpt lat="38.3937267" lon="15.905365"><ele>51.5</ele><time>2026-04-07T06:58:55.789Z</time></trkpt><trkpt lat="38.394" lon="15.905515"><ele>51.0</ele><time>2026-04-07T06:58:56.789Z</time></trkpt><trkpt lat="38.394275" lon="15.9056583"><ele>51.0</ele><time>2026-04-07T06:58:57.788Z</time></trkpt><trkpt lat="38.39455" lon="15.9057983"><ele>51.0</ele><time>2026-04-07T06:58:58.788Z</time></trkpt><trkpt lat="38.3948267" lon="15.905935"><ele>43.0</ele><time>2026-04-07T06:58:59.788Z</time></trkpt><trkpt lat="38.395105" lon="15.9060683"><ele>35.0</ele><time>2026-04-07T06:59:00.788Z</time></trkpt><trkpt lat="38.39538" lon="15.9061917"><ele>39.0</ele><time>2026-04-07T06:59:01.789Z</time></trkpt><trkpt lat="38.3956633" lon="15.9063017"><ele>43.0</ele><time>2026-04-07T06:59:02.788Z</time></trkpt><trkpt lat="38.3959467" lon="15.9063933"><ele>43.0</ele><time>2026-04-07T06:59:03.788Z</time></trkpt><trkpt lat="38.396235" lon="15.9064717"><ele>43.0</ele><time>2026-04-07T06:59:04.788Z</time></trkpt><trkpt lat="38.3965267" lon="15.9065267"><ele>47.0</ele><time>2026-04-07T06:59:05.788Z</time></trkpt><trkpt lat="38.39682" lon="15.9065683"><ele>51.0</ele><time>2026-04-07T06:59:06.788Z</time></trkpt><trkpt lat="38.3971117" lon="15.9066033"><ele>54.5</ele><time>2026-04-07T06:59:07.788Z</time></trkpt><trkpt lat="38.397405" lon="15.9066267"><ele>58.0</ele><time>2026-04-07T06:59:08.788Z</time></trkpt><trkpt lat="38.3977017" lon="15.9066367"><ele>58.0</ele><time>2026-04-07T06:59:09.788Z</time></trkpt><trkpt lat="38.3979967" lon="15.9066433"><ele>58.0</ele><time>2026-04-07T06:59:10.788Z</time></trkpt><trkpt lat="38.3982933" lon="15.9066467"><ele>54.5</ele><time>2026-04-07T06:59:11.788Z</time></trkpt><trkpt lat="38.39859" lon="15.9066717"><ele>51.0</ele><time>2026-04-07T06:59:12.789Z</time></trkpt><trkpt lat="38.3988833" lon="15.9067083"><ele>39.5</ele><time>2026-04-07T06:59:13.788Z</time></trkpt><trkpt lat="38.3991817" lon="15.9067617"><ele>28.0</ele><time>2026-04-07T06:59:14.788Z</time></trkpt><trkpt lat="38.3994817" lon="15.90682"><ele>29.0</ele><time>2026-04-07T06:59:15.788Z</time></trkpt><trkpt lat="38.3997733" lon="15.9069"><ele>30.0</ele><time>2026-04-07T06:59:16.788Z</time></trkpt><trkpt lat="38.40006" lon="15.90701"><ele>30.0</ele><time>2026-04-07T06:59:17.788Z</time></trkpt><trkpt lat="38.400345" lon="15.9071283"><ele>30.0</ele><time>2026-04-07T06:59:18.788Z</time></trkpt><trkpt lat="38.400625" lon="15.9072583"><ele>31.0</ele><time>2026-04-07T06:59:19.788Z</time></trkpt><trkpt lat="38.4008983" lon="15.90741"><ele>32.0</ele><time>2026-04-07T06:59:20.788Z</time></trkpt><trkpt lat="38.4011633" lon="15.907585"><ele>27.0</ele><time>2026-04-07T06:59:21.788Z</time></trkpt><trkpt lat="38.40143" lon="15.907755"><ele>22.0</ele><time>2026-04-07T06:59:22.788Z</time></trkpt><trkpt lat="38.4016767" lon="15.90797"><ele>22.0</ele><time>2026-04-07T06:59:23.789Z</time></trkpt><trkpt lat="38.40192" lon="15.9081833"><ele>22.0</ele><time>2026-04-07T06:59:24.789Z</time></trkpt><trkpt lat="38.4021667" lon="15.9084"><ele>22.5</ele><time>2026-04-07T06:59:25.789Z</time></trkpt><trkpt lat="38.4024033" lon="15.9086217"><ele>23.0</ele><time>2026-04-07T06:59:26.789Z</time></trkpt><trkpt lat="38.4026417" lon="15.9088417"><ele>23.0</ele><time>2026-04-07T06:59:27.788Z</time></trkpt><trkpt lat="38.402885" lon="15.9090583"><ele>23.0</ele><time>2026-04-07T06:59:28.788Z</time></trkpt><trkpt lat="38.40313" lon="15.9092733"><ele>23.0</ele><time>2026-04-07T06:59:29.788Z</time></trkpt><trkpt lat="38.4033717" lon="15.909495"><ele>23.0</ele><time>2026-04-07T06:59:30.789Z</time></trkpt><trkpt lat="38.40361" lon="15.9097117"><ele>24.0</ele><time>2026-04-07T06:59:31.789Z</time></trkpt><trkpt lat="38.4038533" lon="15.909925"><ele>25.0</ele><time>2026-04-07T06:59:32.789Z</time></trkpt><trkpt lat="38.40409" lon="15.9101467"><ele>32.5</ele><time>2026-04-07T06:59:33.789Z</time></trkpt><trkpt lat="38.404335" lon="15.91036"><ele>40.0</ele><time>2026-04-07T06:59:34.788Z</time></trkpt><trkpt lat="38.4045783" lon="15.9105767"><ele>37.5</ele><time>2026-04-07T06:59:35.789Z</time></trkpt><trkpt lat="38.40482" lon="15.9107917"><ele>35.0</ele><time>2026-04-07T06:59:36.788Z</time></trkpt><trkpt lat="38.4050667" lon="15.9110117"><ele>37.5</ele><time>2026-04-07T06:59:37.788Z</time></trkpt><trkpt lat="38.4053133" lon="15.9112233"><ele>40.0</ele><time>2026-04-07T06:59:38.789Z</time></trkpt><trkpt lat="38.405555" lon="15.9114417"><ele>40.0</ele><time>2026-04-07T06:59:39.788Z</time></trkpt><trkpt lat="38.4058" lon="15.9116633"><ele>40.0</ele><time>2026-04-07T06:59:40.789Z</time></trkpt><trkpt lat="38.4060433" lon="15.9118783"><ele>43.0</ele><time>2026-04-07T06:59:41.788Z</time></trkpt><trkpt lat="38.4062833" lon="15.9120933"><ele>46.0</ele><time>2026-04-07T06:59:42.788Z</time></trkpt><trkpt lat="38.406525" lon="15.9123133"><ele>46.0</ele><time>2026-04-07T06:59:43.788Z</time></trkpt><trkpt lat="38.4067633" lon="15.9125317"><ele>46.0</ele><time>2026-04-07T06:59:44.788Z</time></trkpt><trkpt lat="38.4069983" lon="15.91276"><ele>49.5</ele><time>2026-04-07T06:59:45.789Z</time></trkpt><trkpt lat="38.4072267" lon="15.913"><ele>53.0</ele><time>2026-04-07T06:59:46.788Z</time></trkpt><trkpt lat="38.4074567" lon="15.913245"><ele>57.0</ele><time>2026-04-07T06:59:47.788Z</time></trkpt><trkpt lat="38.407685" lon="15.913495"><ele>61.0</ele><time>2026-04-07T06:59:48.788Z</time></trkpt><trkpt lat="38.4079" lon="15.9137533"><ele>60.5</ele><time>2026-04-07T06:59:49.789Z</time></trkpt><trkpt lat="38.4081183" lon="15.91401"><ele>60.0</ele><time>2026-04-07T06:59:50.788Z</time></trkpt><trkpt lat="38.4083367" lon="15.914265"><ele>62.0</ele><time>2026-04-07T06:59:51.788Z</time></trkpt><trkpt lat="38.4085467" lon="15.9145367"><ele>64.0</ele><time>2026-04-07T06:59:52.788Z</time></trkpt><trkpt lat="38.4087617" lon="15.914805"><ele>64.5</ele><time>2026-04-07T06:59:53.788Z</time></trkpt><trkpt lat="38.40898" lon="15.91508"><ele>65.0</ele><time>2026-04-07T06:59:54.789Z</time></trkpt><trkpt lat="38.4091933" lon="15.9153533"><ele>65.0</ele><time>2026-04-07T06:59:55.788Z</time></trkpt><trkpt lat="38.4094033" lon="15.9156233"><ele>65.0</ele><time>2026-04-07T06:59:56.789Z</time></trkpt><trkpt lat="38.409615" lon="15.9158933"><ele>64.0</ele><time>2026-04-07T06:59:57.789Z</time></trkpt><trkpt lat="38.40983" lon="15.9161667"><ele>63.0</ele><time>2026-04-07T06:59:58.789Z</time></trkpt><trkpt lat="38.4100417" lon="15.9164467"><ele>63.0</ele><time>2026-04-07T06:59:59.788Z</time></trkpt><trkpt lat="38.4102583" lon="15.9167133"><ele>63.0</ele><time>2026-04-07T07:00:00.788Z</time></trkpt><trkpt lat="38.4104783" lon="15.91697"><ele>62.5</ele><time>2026-04-07T07:00:01.789Z</time></trkpt><trkpt lat="38.410705" lon="15.91722"><ele>62.0</ele><time>2026-04-07T07:00:02.788Z</time></trkpt><trkpt lat="38.4109333" lon="15.917465"><ele>62.5</ele><time>2026-04-07T07:00:03.788Z</time></trkpt><trkpt lat="38.411165" lon="15.917705"><ele>63.0</ele><time>2026-04-07T07:00:04.788Z</time></trkpt><trkpt lat="38.4114067" lon="15.9179333"><ele>62.0</ele><time>2026-04-07T07:00:05.788Z</time></trkpt><trkpt lat="38.4116433" lon="15.91815"><ele>61.0</ele><time>2026-04-07T07:00:06.788Z</time></trkpt><trkpt lat="38.4118883" lon="15.9183683"><ele>61.5</ele><time>2026-04-07T07:00:07.789Z</time></trkpt><trkpt lat="38.412135" lon="15.9185767"><ele>62.0</ele><time>2026-04-07T07:00:08.789Z</time></trkpt><trkpt lat="38.41239" lon="15.9187767"><ele>62.0</ele><time>2026-04-07T07:00:09.788Z</time></trkpt><trkpt lat="38.4126467" lon="15.9189733"><ele>62.0</ele><time>2026-04-07T07:00:10.789Z</time></trkpt><trkpt lat="38.4128983" lon="15.9191633"><ele>63.0</ele><time>2026-04-07T07:00:11.788Z</time></trkpt><trkpt lat="38.4131567" lon="15.919345"><ele>64.0</ele><time>2026-04-07T07:00:12.788Z</time></trkpt><trkpt lat="38.4134233" lon="15.91952"><ele>64.0</ele><time>2026-04-07T07:00:13.788Z</time></trkpt><trkpt lat="38.413685" lon="15.9196767"><ele>64.0</ele><time>2026-04-07T07:00:14.788Z</time></trkpt><trkpt lat="38.4139567" lon="15.919825"><ele>63.5</ele><time>2026-04-07T07:00:15.788Z</time></trkpt><trkpt lat="38.4142317" lon="15.919965"><ele>63.0</ele><time>2026-04-07T07:00:16.789Z</time></trkpt><trkpt lat="38.4145117" lon="15.9200983"><ele>63.5</ele><time>2026-04-07T07:00:17.788Z</time></trkpt><trkpt lat="38.4147883" lon="15.9202317"><ele>64.0</ele><time>2026-04-07T07:00:18.789Z</time></trkpt><trkpt lat="38.4150733" lon="15.9203567"><ele>64.0</ele><time>2026-04-07T07:00:19.789Z</time></trkpt><trkpt lat="38.41536" lon="15.9204733"><ele>64.0</ele><time>2026-04-07T07:00:20.788Z</time></trkpt><trkpt lat="38.4156483" lon="15.920585"><ele>63.5</ele><time>2026-04-07T07:00:21.788Z</time></trkpt><trkpt lat="38.4159383" lon="15.920695"><ele>63.0</ele><time>2026-04-07T07:00:22.788Z</time></trkpt><trkpt lat="38.4162367" lon="15.9208083"><ele>62.5</ele><time>2026-04-07T07:00:23.788Z</time></trkpt><trkpt lat="38.4165517" lon="15.9209233"><ele>62.0</ele><time>2026-04-07T07:00:24.788Z</time></trkpt><trkpt lat="38.4168767" lon="15.9210367"><ele>61.0</ele><time>2026-04-07T07:00:25.788Z</time></trkpt><trkpt lat="38.41718" lon="15.9211567"><ele>60.0</ele><time>2026-04-07T07:00:26.788Z</time></trkpt><trkpt lat="38.4174717" lon="15.9212733"><ele>60.0</ele><time>2026-04-07T07:00:27.789Z</time></trkpt><trkpt lat="38.4177567" lon="15.9213933"><ele>60.0</ele><time>2026-04-07T07:00:28.789Z</time></trkpt><trkpt lat="38.4180367" lon="15.9215117"><ele>60.0</ele><time>2026-04-07T07:00:29.788Z</time></trkpt><trkpt lat="38.418315" lon="15.921615"><ele>60.0</ele><time>2026-04-07T07:00:30.789Z</time></trkpt><trkpt lat="38.4185983" lon="15.9217167"><ele>60.0</ele><time>2026-04-07T07:00:31.789Z</time></trkpt><trkpt lat="38.41888" lon="15.9218283"><ele>60.0</ele><time>2026-04-07T07:00:32.788Z</time></trkpt><trkpt lat="38.419165" lon="15.9219383"><ele>60.0</ele><time>2026-04-07T07:00:33.789Z</time></trkpt><trkpt lat="38.4194483" lon="15.9220517"><ele>60.0</ele><time>2026-04-07T07:00:34.789Z</time></trkpt><trkpt lat="38.4197317" lon="15.9221617"><ele>59.5</ele><time>2026-04-07T07:00:35.788Z</time></trkpt><trkpt lat="38.42002" lon="15.9222733"><ele>59.0</ele><time>2026-04-07T07:00:36.789Z</time></trkpt><trkpt lat="38.42031" lon="15.922385"><ele>58.0</ele><time>2026-04-07T07:00:37.789Z</time></trkpt><trkpt lat="38.4206" lon="15.9224933"><ele>57.0</ele><time>2026-04-07T07:00:38.788Z</time></trkpt><trkpt lat="38.4208883" lon="15.9225967"><ele>57.5</ele><time>2026-04-07T07:00:39.788Z</time></trkpt><trkpt lat="38.4211767" lon="15.92271"><ele>58.0</ele><time>2026-04-07T07:00:40.788Z</time></trkpt><trkpt lat="38.4214667" lon="15.92282"><ele>58.0</ele><time>2026-04-07T07:00:41.788Z</time></trkpt><trkpt lat="38.4217583" lon="15.922935"><ele>58.0</ele><time>2026-04-07T07:00:42.788Z</time></trkpt><trkpt lat="38.42204" lon="15.9230433"><ele>54.5</ele><time>2026-04-07T07:00:43.788Z</time></trkpt><trkpt lat="38.4223283" lon="15.9231583"><ele>51.0</ele><time>2026-04-07T07:00:44.788Z</time></trkpt><trkpt lat="38.4226133" lon="15.9232667"><ele>51.0</ele><time>2026-04-07T07:00:45.789Z</time></trkpt><trkpt lat="38.4229017" lon="15.9233783"><ele>51.0</ele><time>2026-04-07T07:00:46.788Z</time></trkpt><trkpt lat="38.4231883" lon="15.9234867"><ele>52.5</ele><time>2026-04-07T07:00:47.788Z</time></trkpt><trkpt lat="38.4234717" lon="15.9235983"><ele>54.0</ele><time>2026-04-07T07:00:48.788Z</time></trkpt><trkpt lat="38.4237517" lon="15.9237183"><ele>50.0</ele><time>2026-04-07T07:00:49.789Z</time></trkpt><trkpt lat="38.42403" lon="15.92384"><ele>46.0</ele><time>2026-04-07T07:00:50.788Z</time></trkpt><trkpt lat="38.4243067" lon="15.92397"><ele>46.0</ele><time>2026-04-07T07:00:51.789Z</time></trkpt><trkpt lat="38.42458" lon="15.9241033"><ele>46.0</ele><time>2026-04-07T07:00:52.788Z</time></trkpt><trkpt lat="38.4248567" lon="15.9242433"><ele>47.5</ele><time>2026-04-07T07:00:53.788Z</time></trkpt><trkpt lat="38.42513" lon="15.92439"><ele>49.0</ele><time>2026-04-07T07:00:54.788Z</time></trkpt><trkpt lat="38.4254033" lon="15.9245433"><ele>42.0</ele><time>2026-04-07T07:00:55.788Z</time></trkpt><trkpt lat="38.42567" lon="15.9246983"><ele>35.0</ele><time>2026-04-07T07:00:56.788Z</time></trkpt><trkpt lat="38.4259367" lon="15.924855"><ele>35.0</ele><time>2026-04-07T07:00:57.788Z</time></trkpt><trkpt lat="38.426205" lon="15.9250183"><ele>35.0</ele><time>2026-04-07T07:00:58.788Z</time></trkpt><trkpt lat="38.4264717" lon="15.9251883"><ele>30.0</ele><time>2026-04-07T07:00:59.789Z</time></trkpt><trkpt lat="38.426735" lon="15.9253667"><ele>25.0</ele><time>2026-04-07T07:01:00.788Z</time></trkpt><trkpt lat="38.4269967" lon="15.9255567"><ele>22.5</ele><time>2026-04-07T07:01:01.789Z</time></trkpt><trkpt lat="38.4272567" lon="15.9257483"><ele>20.0</ele><time>2026-04-07T07:01:02.788Z</time></trkpt><trkpt lat="38.4275117" lon="15.9259483"><ele>19.0</ele><time>2026-04-07T07:01:03.788Z</time></trkpt><trkpt lat="38.4277667" lon="15.926145"><ele>18.0</ele><time>2026-04-07T07:01:04.788Z</time></trkpt><trkpt lat="38.4280133" lon="15.92635"><ele>17.5</ele><time>2026-04-07T07:01:05.788Z</time></trkpt><trkpt lat="38.42826" lon="15.92656"><ele>17.0</ele><time>2026-04-07T07:01:06.789Z</time></trkpt><trkpt lat="38.4285" lon="15.926775"><ele>17.0</ele><time>2026-04-07T07:01:07.789Z</time></trkpt><trkpt lat="38.42874" lon="15.9270017"><ele>17.0</ele><time>2026-04-07T07:01:08.788Z</time></trkpt><trkpt lat="38.428975" lon="15.9272283"><ele>17.0</ele><time>2026-04-07T07:01:09.788Z</time></trkpt><trkpt lat="38.4292133" lon="15.9274617"><ele>17.0</ele><time>2026-04-07T07:01:10.788Z</time></trkpt><trkpt lat="38.42945" lon="15.9276917"><ele>18.5</ele><time>2026-04-07T07:01:11.788Z</time></trkpt><trkpt lat="38.4296717" lon="15.9279333"><ele>20.0</ele><time>2026-04-07T07:01:12.789Z</time></trkpt><trkpt lat="38.4298983" lon="15.9281767"><ele>19.0</ele><time>2026-04-07T07:01:13.789Z</time></trkpt><trkpt lat="38.4301217" lon="15.928425"><ele>18.0</ele><time>2026-04-07T07:01:14.788Z</time></trkpt><trkpt lat="38.43034" lon="15.928675"><ele>20.0</ele><time>2026-04-07T07:01:15.788Z</time></trkpt><trkpt lat="38.43056" lon="15.9289267"><ele>22.0</ele><time>2026-04-07T07:01:16.788Z</time></trkpt><trkpt lat="38.4307733" lon="15.9291833"><ele>20.0</ele><time>2026-04-07T07:01:17.789Z</time></trkpt><trkpt lat="38.4309883" lon="15.9294417"><ele>18.0</ele><time>2026-04-07T07:01:18.788Z</time></trkpt><trkpt lat="38.431205" lon="15.929695"><ele>23.0</ele><time>2026-04-07T07:01:19.788Z</time></trkpt><trkpt lat="38.4314217" lon="15.9299517"><ele>28.0</ele><time>2026-04-07T07:01:20.789Z</time></trkpt><trkpt lat="38.4316367" lon="15.9302083"><ele>28.5</ele><time>2026-04-07T07:01:21.788Z</time></trkpt><trkpt lat="38.431855" lon="15.9304683"><ele>29.0</ele><time>2026-04-07T07:01:22.788Z</time></trkpt><trkpt lat="38.4320717" lon="15.9307267"><ele>27.0</ele><time>2026-04-07T07:01:23.788Z</time></trkpt><trkpt lat="38.4322883" lon="15.9309817"><ele>25.0</ele><time>2026-04-07T07:01:24.788Z</time></trkpt><trkpt lat="38.4325083" lon="15.9312467"><ele>25.0</ele><time>2026-04-07T07:01:25.788Z</time></trkpt><trkpt lat="38.4327217" lon="15.93151"><ele>25.0</ele><time>2026-04-07T07:01:26.788Z</time></trkpt><trkpt lat="38.43294" lon="15.9317717"><ele>27.0</ele><time>2026-04-07T07:01:27.788Z</time></trkpt><trkpt lat="38.4331583" lon="15.9320283"><ele>29.0</ele><time>2026-04-07T07:01:28.788Z</time></trkpt><trkpt lat="38.4333733" lon="15.93229"><ele>29.0</ele><time>2026-04-07T07:01:29.788Z</time></trkpt><trkpt lat="38.43359" lon="15.932545"><ele>29.0</ele><time>2026-04-07T07:01:30.788Z</time></trkpt><trkpt lat="38.433805" lon="15.9328"><ele>30.5</ele><time>2026-04-07T07:01:31.788Z</time></trkpt><trkpt lat="38.4340267" lon="15.9330567"><ele>32.0</ele><time>2026-04-07T07:01:32.788Z</time></trkpt><trkpt lat="38.4342483" lon="15.9333183"><ele>30.0</ele><time>2026-04-07T07:01:33.788Z</time></trkpt><trkpt lat="38.43447" lon="15.9335767"><ele>28.0</ele><time>2026-04-07T07:01:34.788Z</time></trkpt><trkpt lat="38.43469" lon="15.9338333"><ele>33.5</ele><time>2026-04-07T07:01:35.788Z</time></trkpt><trkpt lat="38.434915" lon="15.9340917"><ele>39.0</ele><time>2026-04-07T07:01:36.788Z</time></trkpt><trkpt lat="38.4351367" lon="15.9343567"><ele>39.0</ele><time>2026-04-07T07:01:37.788Z</time></trkpt><trkpt lat="38.4353617" lon="15.934625"><ele>39.0</ele><time>2026-04-07T07:01:38.788Z</time></trkpt><trkpt lat="38.4355817" lon="15.934905"><ele>43.5</ele><time>2026-04-07T07:01:39.788Z</time></trkpt><trkpt lat="38.4358017" lon="15.93519"><ele>48.0</ele><time>2026-04-07T07:01:40.788Z</time></trkpt><trkpt lat="38.4360067" lon="15.935475"><ele>48.0</ele><time>2026-04-07T07:01:41.788Z</time></trkpt><trkpt lat="38.4362183" lon="15.935765"><ele>48.0</ele><time>2026-04-07T07:01:42.788Z</time></trkpt><trkpt lat="38.4364317" lon="15.9360583"><ele>49.0</ele><time>2026-04-07T07:01:43.788Z</time></trkpt><trkpt lat="38.4366467" lon="15.9363483"><ele>50.0</ele><time>2026-04-07T07:01:44.788Z</time></trkpt><trkpt lat="38.4368533" lon="15.9366517"><ele>51.0</ele><time>2026-04-07T07:01:45.789Z</time></trkpt><trkpt lat="38.437055" lon="15.936955"><ele>52.0</ele><time>2026-04-07T07:01:46.788Z</time></trkpt><trkpt lat="38.4372533" lon="15.9372617"><ele>54.0</ele><time>2026-04-07T07:01:47.789Z</time></trkpt><trkpt lat="38.4374467" lon="15.9375783"><ele>56.0</ele><time>2026-04-07T07:01:48.788Z</time></trkpt><trkpt lat="38.437635" lon="15.9378917"><ele>56.0</ele><time>2026-04-07T07:01:49.788Z</time></trkpt><trkpt lat="38.4378167" lon="15.9382183"><ele>56.0</ele><time>2026-04-07T07:01:50.788Z</time></trkpt><trkpt lat="38.43799" lon="15.9385533"><ele>56.0</ele><time>2026-04-07T07:01:51.789Z</time></trkpt><trkpt lat="38.43816" lon="15.9388833"><ele>56.0</ele><time>2026-04-07T07:01:52.789Z</time></trkpt><trkpt lat="38.4383233" lon="15.9392183"><ele>56.0</ele><time>2026-04-07T07:01:53.789Z</time></trkpt><trkpt lat="38.4384767" lon="15.9395633"><ele>56.0</ele><time>2026-04-07T07:01:54.788Z</time></trkpt><trkpt lat="38.4386283" lon="15.9399"><ele>57.0</ele><time>2026-04-07T07:01:55.789Z</time></trkpt><trkpt lat="38.438785" lon="15.9402467"><ele>58.0</ele><time>2026-04-07T07:01:56.789Z</time></trkpt><trkpt lat="38.4389367" lon="15.9405933"><ele>56.0</ele><time>2026-04-07T07:01:57.789Z</time></trkpt><trkpt lat="38.43908" lon="15.9409433"><ele>54.0</ele><time>2026-04-07T07:01:58.788Z</time></trkpt><trkpt lat="38.4392267" lon="15.941295"><ele>54.0</ele><time>2026-04-07T07:01:59.788Z</time></trkpt><trkpt lat="38.439365" lon="15.941645"><ele>54.0</ele><time>2026-04-07T07:02:00.788Z</time></trkpt><trkpt lat="38.4394983" lon="15.9420067"><ele>53.5</ele><time>2026-04-07T07:02:01.788Z</time></trkpt><trkpt lat="38.43963" lon="15.9423733"><ele>53.0</ele><time>2026-04-07T07:02:02.788Z</time></trkpt><trkpt lat="38.4397583" lon="15.9427333"><ele>54.0</ele><time>2026-04-07T07:02:03.788Z</time></trkpt><trkpt lat="38.4398933" lon="15.9430867"><ele>55.0</ele><time>2026-04-07T07:02:04.788Z</time></trkpt><trkpt lat="38.4400217" lon="15.9434417"><ele>56.5</ele><time>2026-04-07T07:02:05.788Z</time></trkpt><trkpt lat="38.44015" lon="15.943805"><ele>58.0</ele><time>2026-04-07T07:02:06.788Z</time></trkpt><trkpt lat="38.4402783" lon="15.9441633"><ele>59.0</ele><time>2026-04-07T07:02:07.789Z</time></trkpt><trkpt lat="38.4404067" lon="15.9445267"><ele>60.0</ele><time>2026-04-07T07:02:08.788Z</time></trkpt><trkpt lat="38.4405483" lon="15.9448783"><ele>60.5</ele><time>2026-04-07T07:02:09.788Z</time></trkpt><trkpt lat="38.440695" lon="15.9452183"><ele>61.0</ele><time>2026-04-07T07:02:10.789Z</time></trkpt><trkpt lat="38.4408417" lon="15.945565"><ele>62.0</ele><time>2026-04-07T07:02:11.789Z</time></trkpt><trkpt lat="38.44099" lon="15.9458983"><ele>63.0</ele><time>2026-04-07T07:02:12.788Z</time></trkpt><trkpt lat="38.441145" lon="15.946235"><ele>63.0</ele><time>2026-04-07T07:02:13.788Z</time></trkpt><trkpt lat="38.4412983" lon="15.9465733"><ele>63.0</ele><time>2026-04-07T07:02:14.788Z</time></trkpt><trkpt lat="38.4414617" lon="15.9469017"><ele>62.5</ele><time>2026-04-07T07:02:15.789Z</time></trkpt><trkpt lat="38.441625" lon="15.9472317"><ele>62.0</ele><time>2026-04-07T07:02:16.788Z</time></trkpt><trkpt lat="38.4418017" lon="15.9475533"><ele>62.0</ele><time>2026-04-07T07:02:17.788Z</time></trkpt><trkpt lat="38.441985" lon="15.9478717"><ele>62.0</ele><time>2026-04-07T07:02:18.788Z</time></trkpt><trkpt lat="38.4421733" lon="15.9481917"><ele>62.0</ele><time>2026-04-07T07:02:19.788Z</time></trkpt><trkpt lat="38.442365" lon="15.9485033"><ele>62.0</ele><time>2026-04-07T07:02:20.788Z</time></trkpt><trkpt lat="38.44256" lon="15.9488133"><ele>62.0</ele><time>2026-04-07T07:02:21.788Z</time></trkpt><trkpt lat="38.44276" lon="15.9491133"><ele>62.0</ele><time>2026-04-07T07:02:22.788Z</time></trkpt><trkpt lat="38.4429667" lon="15.9494133"><ele>62.5</ele><time>2026-04-07T07:02:23.788Z</time></trkpt><trkpt lat="38.4431767" lon="15.9497017"><ele>63.0</ele><time>2026-04-07T07:02:24.789Z</time></trkpt><trkpt lat="38.4433867" lon="15.9499933"><ele>63.5</ele><time>2026-04-07T07:02:25.788Z</time></trkpt><trkpt lat="38.4436017" lon="15.9502783"><ele>64.0</ele><time>2026-04-07T07:02:26.788Z</time></trkpt><trkpt lat="38.4438183" lon="15.95057"><ele>64.0</ele><time>2026-04-07T07:02:27.788Z</time></trkpt><trkpt lat="38.4440267" lon="15.95086"><ele>64.0</ele><time>2026-04-07T07:02:28.788Z</time></trkpt><trkpt lat="38.4442333" lon="15.9511533"><ele>64.5</ele><time>2026-04-07T07:02:29.788Z</time></trkpt><trkpt lat="38.44444" lon="15.9514433"><ele>65.0</ele><time>2026-04-07T07:02:30.788Z</time></trkpt><trkpt lat="38.444645" lon="15.9517433"><ele>64.0</ele><time>2026-04-07T07:02:31.788Z</time></trkpt><trkpt lat="38.4448567" lon="15.9520367"><ele>63.0</ele><time>2026-04-07T07:02:32.788Z</time></trkpt><trkpt lat="38.4450667" lon="15.952335"><ele>63.0</ele><time>2026-04-07T07:02:33.788Z</time></trkpt><trkpt lat="38.4452783" lon="15.9526383"><ele>63.0</ele><time>2026-04-07T07:02:34.788Z</time></trkpt><trkpt lat="38.44548" lon="15.9529383"><ele>64.0</ele><time>2026-04-07T07:02:35.788Z</time></trkpt><trkpt lat="38.4456767" lon="15.9532467"><ele>65.0</ele><time>2026-04-07T07:02:36.788Z</time></trkpt><trkpt lat="38.4458683" lon="15.9535567"><ele>65.0</ele><time>2026-04-07T07:02:37.788Z</time></trkpt><trkpt lat="38.4460467" lon="15.9538783"><ele>65.0</ele><time>2026-04-07T07:02:38.788Z</time></trkpt><trkpt lat="38.4462133" lon="15.95421"><ele>64.0</ele><time>2026-04-07T07:02:39.788Z</time></trkpt><trkpt lat="38.4463717" lon="15.9545483"><ele>63.0</ele><time>2026-04-07T07:02:40.788Z</time></trkpt><trkpt lat="38.446525" lon="15.9548883"><ele>65.0</ele><time>2026-04-07T07:02:41.788Z</time></trkpt><trkpt lat="38.4466767" lon="15.95524"><ele>67.0</ele><time>2026-04-07T07:02:42.788Z</time></trkpt><trkpt lat="38.4468267" lon="15.9555867"><ele>67.0</ele><time>2026-04-07T07:02:43.789Z</time></trkpt><trkpt lat="38.4469617" lon="15.9559333"><ele>67.0</ele><time>2026-04-07T07:02:44.789Z</time></trkpt><trkpt lat="38.4470883" lon="15.956295"><ele>66.5</ele><time>2026-04-07T07:02:45.789Z</time></trkpt><trkpt lat="38.4472067" lon="15.9566533"><ele>66.0</ele><time>2026-04-07T07:02:46.789Z</time></trkpt><trkpt lat="38.4473133" lon="15.957025"><ele>66.0</ele><time>2026-04-07T07:02:47.789Z</time></trkpt><trkpt lat="38.4474233" lon="15.9574"><ele>66.0</ele><time>2026-04-07T07:02:48.789Z</time></trkpt><trkpt lat="38.447525" lon="15.95777"><ele>66.0</ele><time>2026-04-07T07:02:49.789Z</time></trkpt><trkpt lat="38.4476233" lon="15.9581433"><ele>66.0</ele><time>2026-04-07T07:02:50.788Z</time></trkpt><trkpt lat="38.4477283" lon="15.95852"><ele>67.5</ele><time>2026-04-07T07:02:51.788Z</time></trkpt><trkpt lat="38.447825" lon="15.9588967"><ele>69.0</ele><time>2026-04-07T07:02:52.789Z</time></trkpt><trkpt lat="38.447925" lon="15.9592733"><ele>68.5</ele><time>2026-04-07T07:02:53.788Z</time></trkpt><trkpt lat="38.4480217" lon="15.9596517"><ele>68.0</ele><time>2026-04-07T07:02:54.789Z</time></trkpt><trkpt lat="38.4481183" lon="15.9600217"><ele>68.0</ele><time>2026-04-07T07:02:55.788Z</time></trkpt><trkpt lat="38.448225" lon="15.9604"><ele>68.0</ele><time>2026-04-07T07:02:56.789Z</time></trkpt><trkpt lat="38.4483317" lon="15.96077"><ele>68.0</ele><time>2026-04-07T07:02:57.789Z</time></trkpt><trkpt lat="38.4484483" lon="15.9611267"><ele>68.0</ele><time>2026-04-07T07:02:58.789Z</time></trkpt><trkpt lat="38.4485683" lon="15.9614883"><ele>69.5</ele><time>2026-04-07T07:02:59.788Z</time></trkpt><trkpt lat="38.448685" lon="15.9618517"><ele>71.0</ele><time>2026-04-07T07:03:00.788Z</time></trkpt><trkpt lat="38.4488117" lon="15.9622167"><ele>71.0</ele><time>2026-04-07T07:03:01.788Z</time></trkpt><trkpt lat="38.44894" lon="15.9625683"><ele>71.0</ele><time>2026-04-07T07:03:02.788Z</time></trkpt><trkpt lat="38.4490733" lon="15.9629217"><ele>71.0</ele><time>2026-04-07T07:03:03.788Z</time></trkpt><trkpt lat="38.4492133" lon="15.9632683"><ele>71.0</ele><time>2026-04-07T07:03:04.788Z</time></trkpt><trkpt lat="38.449355" lon="15.9636217"><ele>70.5</ele><time>2026-04-07T07:03:05.788Z</time></trkpt><trkpt lat="38.4495017" lon="15.9639733"><ele>70.0</ele><time>2026-04-07T07:03:06.788Z</time></trkpt><trkpt lat="38.4496467" lon="15.964325"><ele>70.0</ele><time>2026-04-07T07:03:07.788Z</time></trkpt><trkpt lat="38.449795" lon="15.9646633"><ele>70.0</ele><time>2026-04-07T07:03:08.788Z</time></trkpt><trkpt lat="38.44995" lon="15.9649983"><ele>68.0</ele><time>2026-04-07T07:03:09.789Z</time></trkpt><trkpt lat="38.45011" lon="15.965345"><ele>66.0</ele><time>2026-04-07T07:03:10.788Z</time></trkpt><trkpt lat="38.45027" lon="15.96569"><ele>66.0</ele><time>2026-04-07T07:03:11.788Z</time></trkpt><trkpt lat="38.45043" lon="15.96603"><ele>66.0</ele><time>2026-04-07T07:03:12.788Z</time></trkpt><trkpt lat="38.4506067" lon="15.96636"><ele>66.5</ele><time>2026-04-07T07:03:13.788Z</time></trkpt><trkpt lat="38.4507833" lon="15.9666817"><ele>67.0</ele><time>2026-04-07T07:03:14.788Z</time></trkpt><trkpt lat="38.450965" lon="15.9670017"><ele>67.0</ele><time>2026-04-07T07:03:15.788Z</time></trkpt><trkpt lat="38.451145" lon="15.9673217"><ele>67.0</ele><time>2026-04-07T07:03:16.788Z</time></trkpt><trkpt lat="38.45133" lon="15.9676383"><ele>67.0</ele><time>2026-04-07T07:03:17.788Z</time></trkpt><trkpt lat="38.4515167" lon="15.967955"><ele>67.0</ele><time>2026-04-07T07:03:18.788Z</time></trkpt><trkpt lat="38.4517117" lon="15.9682633"><ele>67.5</ele><time>2026-04-07T07:03:19.789Z</time></trkpt><trkpt lat="38.4519083" lon="15.9685667"><ele>68.0</ele><time>2026-04-07T07:03:20.789Z</time></trkpt><trkpt lat="38.452105" lon="15.96887"><ele>69.0</ele><time>2026-04-07T07:03:21.788Z</time></trkpt><trkpt lat="38.452305" lon="15.96917"><ele>70.0</ele><time>2026-04-07T07:03:22.788Z</time></trkpt><trkpt lat="38.45252" lon="15.9694683"><ele>70.0</ele><time>2026-04-07T07:03:23.788Z</time></trkpt><trkpt lat="38.45273" lon="15.969755"><ele>70.0</ele><time>2026-04-07T07:03:24.788Z</time></trkpt><trkpt lat="38.4529417" lon="15.9700433"><ele>69.0</ele><time>2026-04-07T07:03:25.788Z</time></trkpt><trkpt lat="38.4531617" lon="15.9703167"><ele>68.0</ele><time>2026-04-07T07:03:26.788Z</time></trkpt><trkpt lat="38.45338" lon="15.9705933"><ele>68.0</ele><time>2026-04-07T07:03:27.788Z</time></trkpt><trkpt lat="38.4536017" lon="15.9708683"><ele>68.0</ele><time>2026-04-07T07:03:28.788Z</time></trkpt><trkpt lat="38.453835" lon="15.9711383"><ele>68.0</ele><time>2026-04-07T07:03:29.788Z</time></trkpt><trkpt lat="38.4540633" lon="15.9714033"><ele>68.0</ele><time>2026-04-07T07:03:30.789Z</time></trkpt><trkpt lat="38.4542983" lon="15.97167"><ele>67.5</ele><time>2026-04-07T07:03:31.788Z</time></trkpt><trkpt lat="38.4545383" lon="15.971935"><ele>67.0</ele><time>2026-04-07T07:03:32.788Z</time></trkpt><trkpt lat="38.4547667" lon="15.9721883"><ele>69.5</ele><time>2026-04-07T07:03:33.788Z</time></trkpt><trkpt lat="38.455005" lon="15.9724417"><ele>72.0</ele><time>2026-04-07T07:03:34.789Z</time></trkpt><trkpt lat="38.455245" lon="15.9727017"><ele>72.5</ele><time>2026-04-07T07:03:35.788Z</time></trkpt><trkpt lat="38.4554967" lon="15.972955"><ele>73.0</ele><time>2026-04-07T07:03:36.788Z</time></trkpt><trkpt lat="38.455745" lon="15.973225"><ele>74.0</ele><time>2026-04-07T07:03:37.788Z</time></trkpt><trkpt lat="38.456" lon="15.9734933"><ele>75.0</ele><time>2026-04-07T07:03:38.789Z</time></trkpt><trkpt lat="38.4562583" lon="15.9737667"><ele>75.0</ele><time>2026-04-07T07:03:39.788Z</time></trkpt><trkpt lat="38.45651" lon="15.9740367"><ele>75.0</ele><time>2026-04-07T07:03:40.788Z</time></trkpt><trkpt lat="38.4567633" lon="15.9743083"><ele>75.0</ele><time>2026-04-07T07:03:41.789Z</time></trkpt><trkpt lat="38.4570217" lon="15.9745717"><ele>75.0</ele><time>2026-04-07T07:03:42.788Z</time></trkpt><trkpt lat="38.457285" lon="15.9748383"><ele>75.5</ele><time>2026-04-07T07:03:43.789Z</time></trkpt><trkpt lat="38.4575433" lon="15.97511"><ele>76.0</ele><time>2026-04-07T07:03:44.788Z</time></trkpt><trkpt lat="38.4578133" lon="15.9754"><ele>75.5</ele><time>2026-04-07T07:03:45.788Z</time></trkpt><trkpt lat="38.458095" lon="15.9756983"><ele>75.0</ele><time>2026-04-07T07:03:46.788Z</time></trkpt><trkpt lat="38.4583883" lon="15.9759983"><ele>75.0</ele><time>2026-04-07T07:03:47.789Z</time></trkpt><trkpt lat="38.4586833" lon="15.976305"><ele>75.0</ele><time>2026-04-07T07:03:48.788Z</time></trkpt><trkpt lat="38.4589783" lon="15.976605"><ele>74.5</ele><time>2026-04-07T07:03:49.789Z</time></trkpt><trkpt lat="38.4592733" lon="15.976905"><ele>74.0</ele><time>2026-04-07T07:03:50.788Z</time></trkpt><trkpt lat="38.4595567" lon="15.9772"><ele>72.0</ele><time>2026-04-07T07:03:51.788Z</time></trkpt><trkpt lat="38.4598283" lon="15.97749"><ele>70.0</ele><time>2026-04-07T07:03:52.788Z</time></trkpt><trkpt lat="38.4601" lon="15.9777767"><ele>70.0</ele><time>2026-04-07T07:03:53.789Z</time></trkpt><trkpt lat="38.4603767" lon="15.9780583"><ele>70.0</ele><time>2026-04-07T07:03:54.788Z</time></trkpt><trkpt lat="38.46064" lon="15.9783633"><ele>68.5</ele><time>2026-04-07T07:03:55.788Z</time></trkpt><trkpt lat="38.460935" lon="15.978665"><ele>67.0</ele><time>2026-04-07T07:03:56.788Z</time></trkpt><trkpt lat="38.4612267" lon="15.9789683"><ele>65.5</ele><time>2026-04-07T07:03:57.789Z</time></trkpt><trkpt lat="38.4615167" lon="15.9792733"><ele>64.0</ele><time>2026-04-07T07:03:58.789Z</time></trkpt><trkpt lat="38.46181" lon="15.979575"><ele>64.0</ele><time>2026-04-07T07:03:59.789Z</time></trkpt><trkpt lat="38.4620967" lon="15.979875"><ele>64.0</ele><time>2026-04-07T07:04:00.789Z</time></trkpt><trkpt lat="38.4623833" lon="15.98018"><ele>65.0</ele><time>2026-04-07T07:04:01.789Z</time></trkpt><trkpt lat="38.4626667" lon="15.98049"><ele>66.0</ele><time>2026-04-07T07:04:02.789Z</time></trkpt><trkpt lat="38.4629417" lon="15.9808083"><ele>66.5</ele><time>2026-04-07T07:04:03.789Z</time></trkpt><trkpt lat="38.46323" lon="15.9811267"><ele>67.0</ele><time>2026-04-07T07:04:04.79Z</time></trkpt><trkpt lat="38.4634917" lon="15.9814583"><ele>67.5</ele><time>2026-04-07T07:04:05.789Z</time></trkpt><trkpt lat="38.4637417" lon="15.9817967"><ele>68.0</ele><time>2026-04-07T07:04:06.789Z</time></trkpt><trkpt lat="38.463995" lon="15.9821433"><ele>66.0</ele><time>2026-04-07T07:04:07.79Z</time></trkpt><trkpt lat="38.4642367" lon="15.982485"><ele>64.0</ele><time>2026-04-07T07:04:08.789Z</time></trkpt><trkpt lat="38.4644633" lon="15.9828383"><ele>65.0</ele><time>2026-04-07T07:04:09.79Z</time></trkpt><trkpt lat="38.4646833" lon="15.9831967"><ele>66.0</ele><time>2026-04-07T07:04:10.789Z</time></trkpt><trkpt lat="38.4648933" lon="15.9835633"><ele>66.0</ele><time>2026-04-07T07:04:11.789Z</time></trkpt><trkpt lat="38.465105" lon="15.98393"><ele>66.0</ele><time>2026-04-07T07:04:12.789Z</time></trkpt><trkpt lat="38.465315" lon="15.984305"><ele>63.5</ele><time>2026-04-07T07:04:13.79Z</time></trkpt><trkpt lat="38.4655233" lon="15.9846867"><ele>61.0</ele><time>2026-04-07T07:04:14.789Z</time></trkpt><trkpt lat="38.4657283" lon="15.985065"><ele>61.0</ele><time>2026-04-07T07:04:15.789Z</time></trkpt><trkpt lat="38.4659233" lon="15.985445"><ele>61.0</ele><time>2026-04-07T07:04:16.789Z</time></trkpt><trkpt lat="38.4661317" lon="15.9858167"><ele>59.0</ele><time>2026-04-07T07:04:17.789Z</time></trkpt><trkpt lat="38.4663333" lon="15.9861883"><ele>57.0</ele><time>2026-04-07T07:04:18.789Z</time></trkpt><trkpt lat="38.466535" lon="15.9865533"><ele>56.5</ele><time>2026-04-07T07:04:19.789Z</time></trkpt><trkpt lat="38.46674" lon="15.9869167"><ele>56.0</ele><time>2026-04-07T07:04:20.789Z</time></trkpt><trkpt lat="38.4669483" lon="15.98728"><ele>55.5</ele><time>2026-04-07T07:04:21.789Z</time></trkpt><trkpt lat="38.4671633" lon="15.9876433"><ele>55.0</ele><time>2026-04-07T07:04:22.789Z</time></trkpt><trkpt lat="38.4673667" lon="15.9880133"><ele>54.5</ele><time>2026-04-07T07:04:23.79Z</time></trkpt><trkpt lat="38.4675683" lon="15.9883867"><ele>54.0</ele><time>2026-04-07T07:04:24.789Z</time></trkpt><trkpt lat="38.4677717" lon="15.9887667"><ele>56.5</ele><time>2026-04-07T07:04:25.789Z</time></trkpt><trkpt lat="38.4679817" lon="15.9891467"><ele>59.0</ele><time>2026-04-07T07:04:26.789Z</time></trkpt><trkpt lat="38.4681817" lon="15.9895283"><ele>60.0</ele><time>2026-04-07T07:04:27.789Z</time></trkpt><trkpt lat="38.46838" lon="15.9899"><ele>61.0</ele><time>2026-04-07T07:04:28.79Z</time></trkpt><trkpt lat="38.4685767" lon="15.9902883"><ele>61.0</ele><time>2026-04-07T07:04:29.789Z</time></trkpt><trkpt lat="38.4687717" lon="15.990675"><ele>61.0</ele><time>2026-04-07T07:04:30.789Z</time></trkpt><trkpt lat="38.46897" lon="15.9910583"><ele>59.5</ele><time>2026-04-07T07:04:31.789Z</time></trkpt><trkpt lat="38.46917" lon="15.9914417"><ele>58.0</ele><time>2026-04-07T07:04:32.789Z</time></trkpt><trkpt lat="38.4693533" lon="15.9918067"><ele>55.0</ele><time>2026-04-07T07:04:33.79Z</time></trkpt><trkpt lat="38.4696083" lon="15.9921583"><ele>52.0</ele><time>2026-04-07T07:04:34.789Z</time></trkpt><trkpt lat="38.469815" lon="15.9925533"><ele>41.5</ele><time>2026-04-07T07:04:35.789Z</time></trkpt><trkpt lat="38.47002" lon="15.992945"><ele>31.0</ele><time>2026-04-07T07:04:36.789Z</time></trkpt><trkpt lat="38.47023" lon="15.993315"><ele>32.0</ele><time>2026-04-07T07:04:37.789Z</time></trkpt><trkpt lat="38.4704433" lon="15.9936917"><ele>33.0</ele><time>2026-04-07T07:04:38.79Z</time></trkpt><trkpt lat="38.4706617" lon="15.9940533"><ele>33.0</ele><time>2026-04-07T07:04:39.789Z</time></trkpt><trkpt lat="38.470885" lon="15.9944033"><ele>33.0</ele><time>2026-04-07T07:04:40.789Z</time></trkpt><trkpt lat="38.471105" lon="15.9947433"><ele>33.5</ele><time>2026-04-07T07:04:41.789Z</time></trkpt><trkpt lat="38.4713333" lon="15.9950683"><ele>34.0</ele><time>2026-04-07T07:04:42.789Z</time></trkpt><trkpt lat="38.471565" lon="15.995385"><ele>34.0</ele><time>2026-04-07T07:04:43.789Z</time></trkpt><trkpt lat="38.4718083" lon="15.9956833"><ele>34.0</ele><time>2026-04-07T07:04:44.79Z</time></trkpt><trkpt lat="38.4720667" lon="15.9959767"><ele>35.0</ele><time>2026-04-07T07:04:45.79Z</time></trkpt><trkpt lat="38.472335" lon="15.996245"><ele>36.0</ele><time>2026-04-07T07:04:46.789Z</time></trkpt><trkpt lat="38.4726117" lon="15.996505"><ele>35.5</ele><time>2026-04-07T07:04:47.789Z</time></trkpt><trkpt lat="38.4728917" lon="15.99675"><ele>35.0</ele><time>2026-04-07T07:04:48.789Z</time></trkpt><trkpt lat="38.4731783" lon="15.9969867"><ele>35.0</ele><time>2026-04-07T07:04:49.79Z</time></trkpt><trkpt lat="38.4734767" lon="15.9972283"><ele>35.0</ele><time>2026-04-07T07:04:50.789Z</time></trkpt><trkpt lat="38.47377" lon="15.9974583"><ele>34.5</ele><time>2026-04-07T07:04:51.789Z</time></trkpt><trkpt lat="38.4740533" lon="15.99769"><ele>34.0</ele><time>2026-04-07T07:04:52.789Z</time></trkpt><trkpt lat="38.4743367" lon="15.99792"><ele>34.5</ele><time>2026-04-07T07:04:53.789Z</time></trkpt><trkpt lat="38.4746167" lon="15.9981383"><ele>35.0</ele><time>2026-04-07T07:04:54.789Z</time></trkpt><trkpt lat="38.4748967" lon="15.9983583"><ele>35.0</ele><time>2026-04-07T07:04:55.789Z</time></trkpt><trkpt lat="38.4751883" lon="15.9985817"><ele>35.0</ele><time>2026-04-07T07:04:56.789Z</time></trkpt><trkpt lat="38.475485" lon="15.9988067"><ele>34.5</ele><time>2026-04-07T07:04:57.79Z</time></trkpt><trkpt lat="38.4757733" lon="15.9990183"><ele>34.0</ele><time>2026-04-07T07:04:58.789Z</time></trkpt><trkpt lat="38.4760417" lon="15.9992167"><ele>35.0</ele><time>2026-04-07T07:04:59.789Z</time></trkpt><trkpt lat="38.4762817" lon="15.9993883"><ele>36.0</ele><time>2026-04-07T07:05:00.789Z</time></trkpt><trkpt lat="38.4765133" lon="15.9995483"><ele>36.0</ele><time>2026-04-07T07:05:01.79Z</time></trkpt><trkpt lat="38.4767433" lon="15.9997017"><ele>36.0</ele><time>2026-04-07T07:05:02.789Z</time></trkpt><trkpt lat="38.476975" lon="15.999855"><ele>35.0</ele><time>2026-04-07T07:05:03.79Z</time></trkpt><trkpt lat="38.4771967" lon="15.999995"><ele>34.0</ele><time>2026-04-07T07:05:04.789Z</time></trkpt><trkpt lat="38.4773967" lon="16.000135"><ele>34.0</ele><time>2026-04-07T07:05:05.789Z</time></trkpt><trkpt lat="38.4775817" lon="16.00027"><ele>34.0</ele><time>2026-04-07T07:05:06.789Z</time></trkpt><trkpt lat="38.4777367" lon="16.0004067"><ele>34.0</ele><time>2026-04-07T07:05:07.789Z</time></trkpt><trkpt lat="38.4778733" lon="16.00056"><ele>34.333333333333336</ele><time>2026-04-07T07:05:08.789Z</time></trkpt><trkpt lat="38.4779817" lon="16.0007517"><ele>34.666666666666664</ele><time>2026-04-07T07:05:09.789Z</time></trkpt><trkpt lat="38.4780533" lon="16.0009617"><ele>35.0</ele><time>2026-04-07T07:05:10.789Z</time></trkpt><trkpt lat="38.4780983" lon="16.001205"><ele>35.0</ele><time>2026-04-07T07:05:11.789Z</time></trkpt><trkpt lat="38.4781117" lon="16.0014433"><ele>35.0</ele><time>2026-04-07T07:05:12.789Z</time></trkpt><trkpt lat="38.4781383" lon="16.0016767"><ele>35.0</ele><time>2026-04-07T07:05:13.789Z</time></trkpt><trkpt lat="38.478195" lon="16.0018883"><ele>35.0</ele><time>2026-04-07T07:05:14.79Z</time></trkpt><trkpt lat="38.47828" lon="16.0020717"><ele>35.0</ele><time>2026-04-07T07:05:15.789Z</time></trkpt><trkpt lat="38.478395" lon="16.0022217"><ele>35.0</ele><time>2026-04-07T07:05:16.789Z</time></trkpt><trkpt lat="38.4785233" lon="16.00233"><ele>35.0</ele><time>2026-04-07T07:05:17.79Z</time></trkpt><trkpt lat="38.47867" lon="16.0023917"><ele>35.0</ele><time>2026-04-07T07:05:18.79Z</time></trkpt><trkpt lat="38.47883" lon="16.002395"><ele>35.0</ele><time>2026-04-07T07:05:19.789Z</time></trkpt><trkpt lat="38.4789933" lon="16.002335"><ele>34.33333333333333</ele><time>2026-04-07T07:05:20.789Z</time></trkpt><trkpt lat="38.479125" lon="16.0022317"><ele>33.666666666666664</ele><time>2026-04-07T07:05:21.79Z</time></trkpt><trkpt lat="38.47925" lon="16.00207"><ele>33.0</ele><time>2026-04-07T07:05:22.79Z</time></trkpt><trkpt lat="38.4793467" lon="16.00187"><ele>34.0</ele><time>2026-04-07T07:05:23.789Z</time></trkpt><trkpt lat="38.479415" lon="16.0016517"><ele>35.0</ele><time>2026-04-07T07:05:24.789Z</time></trkpt><trkpt lat="38.4794717" lon="16.0014083"><ele>36.0</ele><time>2026-04-07T07:05:25.79Z</time></trkpt><trkpt lat="38.4795267" lon="16.0011567"><ele>36.0</ele><time>2026-04-07T07:05:26.789Z</time></trkpt><trkpt lat="38.4795817" lon="16.0008983"><ele>36.0</ele><time>2026-04-07T07:05:27.789Z</time></trkpt><trkpt lat="38.4796167" lon="16.0006583"><ele>36.0</ele><time>2026-04-07T07:05:28.789Z</time></trkpt><trkpt lat="38.479685" lon="16.000395"><ele>36.0</ele><time>2026-04-07T07:05:29.79Z</time></trkpt><trkpt lat="38.4797317" lon="16.00015"><ele>36.0</ele><time>2026-04-07T07:05:30.789Z</time></trkpt><trkpt lat="38.479745" lon="15.9998983"><ele>36.0</ele><time>2026-04-07T07:05:31.789Z</time></trkpt><trkpt lat="38.4797067" lon="15.99964"><ele>36.0</ele><time>2026-04-07T07:05:32.79Z</time></trkpt><trkpt lat="38.4796183" lon="15.9993983"><ele>36.0</ele><time>2026-04-07T07:05:33.79Z</time></trkpt><trkpt lat="38.479485" lon="15.9991717"><ele>36.0</ele><time>2026-04-07T07:05:34.789Z</time></trkpt><trkpt lat="38.4793333" lon="15.9989767"><ele>35.666666666666664</ele><time>2026-04-07T07:05:35.789Z</time></trkpt><trkpt lat="38.4791667" lon="15.9987933"><ele>35.33333333333333</ele><time>2026-04-07T07:05:36.79Z</time></trkpt><trkpt lat="38.47899" lon="15.9986183"><ele>35.0</ele><time>2026-04-07T07:05:37.79Z</time></trkpt><trkpt lat="38.4788167" lon="15.99846"><ele>34.0</ele><time>2026-04-07T07:05:38.79Z</time></trkpt><trkpt lat="38.4786567" lon="15.9983"><ele>33.0</ele><time>2026-04-07T07:05:39.79Z</time></trkpt><trkpt lat="38.4784967" lon="15.9981567"><ele>32.0</ele><time>2026-04-07T07:05:40.789Z</time></trkpt><trkpt lat="38.4783533" lon="15.9980167"><ele>32.0</ele><time>2026-04-07T07:05:41.789Z</time></trkpt><trkpt lat="38.4782117" lon="15.9978933"><ele>32.0</ele><time>2026-04-07T07:05:42.789Z</time></trkpt><trkpt lat="38.4780933" lon="15.997765"><ele>32.0</ele><time>2026-04-07T07:05:43.789Z</time></trkpt><trkpt lat="38.47799" lon="15.9976267"><ele>32.4</ele><time>2026-04-07T07:05:44.789Z</time></trkpt><trkpt lat="38.477915" lon="15.9975"><ele>32.800000000000004</ele><time>2026-04-07T07:05:45.789Z</time></trkpt><trkpt lat="38.4778833" lon="15.9973783"><ele>33.2</ele><time>2026-04-07T07:05:46.789Z</time></trkpt><trkpt lat="38.4778917" lon="15.9972583"><ele>33.6</ele><time>2026-04-07T07:05:47.79Z</time></trkpt><trkpt lat="38.4779483" lon="15.9971267"><ele>34.0</ele><time>2026-04-07T07:05:48.789Z</time></trkpt><trkpt lat="38.4780383" lon="15.9970183"><ele>34.0</ele><time>2026-04-07T07:05:49.79Z</time></trkpt><trkpt lat="38.4781417" lon="15.99691"><ele>34.0</ele><time>2026-04-07T07:05:50.789Z</time></trkpt><trkpt lat="38.478245" lon="15.9968217"><ele>34.0</ele><time>2026-04-07T07:05:51.79Z</time></trkpt><trkpt lat="38.478325" lon="15.9967533"><ele>34.0</ele><time>2026-04-07T07:05:52.789Z</time></trkpt><trkpt lat="38.4783767" lon="15.9966867"><ele>34.0</ele><time>2026-04-07T07:05:53.79Z</time></trkpt><trkpt lat="38.4784" lon="15.9965167"><ele>34.75</ele><time>2026-04-07T07:05:55.79Z</time></trkpt><trkpt lat="38.4783833" lon="15.996405"><ele>35.5</ele><time>2026-04-07T07:05:56.79Z</time></trkpt><trkpt lat="38.4783433" lon="15.9962817"><ele>36.25</ele><time>2026-04-07T07:05:57.789Z</time></trkpt><trkpt lat="38.478295" lon="15.996125"><ele>37.0</ele><time>2026-04-07T07:05:58.789Z</time></trkpt><trkpt lat="38.4782433" lon="15.9959267"><ele>36.333333333333336</ele><time>2026-04-07T07:05:59.789Z</time></trkpt><trkpt lat="38.4781967" lon="15.9957233"><ele>35.666666666666664</ele><time>2026-04-07T07:06:00.789Z</time></trkpt><trkpt lat="38.4781433" lon="15.99553"><ele>35.0</ele><time>2026-04-07T07:06:01.789Z</time></trkpt><trkpt lat="38.4780867" lon="15.99536"><ele>35.0</ele><time>2026-04-07T07:06:02.789Z</time></trkpt><trkpt lat="38.4780233" lon="15.9952267"><ele>35.0</ele><time>2026-04-07T07:06:03.79Z</time></trkpt><trkpt lat="38.4779617" lon="15.9951183"><ele>35.0</ele><time>2026-04-07T07:06:04.789Z</time></trkpt><trkpt lat="38.4778983" lon="15.99505"><ele>35.0</ele><time>2026-04-07T07:06:05.789Z</time></trkpt><trkpt lat="38.477835" lon="15.99502"><ele>35.0</ele><time>2026-04-07T07:06:06.789Z</time></trkpt><trkpt lat="38.4777533" lon="15.99504"><ele>34.0</ele><time>2026-04-07T07:06:07.789Z</time></trkpt><trkpt lat="38.4776533" lon="15.9950933"><ele>33.0</ele><time>2026-04-07T07:06:08.789Z</time></trkpt><trkpt lat="38.4775383" lon="15.9951883"><ele>32.0</ele><time>2026-04-07T07:06:09.789Z</time></trkpt><trkpt lat="38.4773967" lon="15.9953167"><ele>31.0</ele><time>2026-04-07T07:06:10.789Z</time></trkpt><trkpt lat="38.477235" lon="15.9954617"><ele>31.333333333333336</ele><time>2026-04-07T07:06:11.789Z</time></trkpt><trkpt lat="38.477065" lon="15.9956"><ele>31.666666666666664</ele><time>2026-04-07T07:06:12.789Z</time></trkpt><trkpt lat="38.476875" lon="15.99574"><ele>32.0</ele><time>2026-04-07T07:06:13.789Z</time></trkpt><trkpt lat="38.476695" lon="15.99587"><ele>32.0</ele><time>2026-04-07T07:06:14.789Z</time></trkpt><trkpt lat="38.4765217" lon="15.9960283"><ele>32.0</ele><time>2026-04-07T07:06:15.79Z</time></trkpt><trkpt lat="38.47635" lon="15.996205"><ele>32.0</ele><time>2026-04-07T07:06:16.789Z</time></trkpt><trkpt lat="38.4761783" lon="15.996395"><ele>34.0</ele><time>2026-04-07T07:06:17.79Z</time></trkpt><trkpt lat="38.4760183" lon="15.996605"><ele>36.0</ele><time>2026-04-07T07:06:18.79Z</time></trkpt><trkpt lat="38.4758567" lon="15.9968167"><ele>36.0</ele><time>2026-04-07T07:06:19.789Z</time></trkpt><trkpt lat="38.4757083" lon="15.99704"><ele>36.0</ele><time>2026-04-07T07:06:20.789Z</time></trkpt><trkpt lat="38.475565" lon="15.9972583"><ele>36.0</ele><time>2026-04-07T07:06:21.789Z</time></trkpt><trkpt lat="38.4754117" lon="15.9974867"><ele>36.0</ele><time>2026-04-07T07:06:22.79Z</time></trkpt><trkpt lat="38.4752583" lon="15.9977167"><ele>36.0</ele><time>2026-04-07T07:06:23.789Z</time></trkpt><trkpt lat="38.4751033" lon="15.9979483"><ele>36.0</ele><time>2026-04-07T07:06:24.789Z</time></trkpt><trkpt lat="38.47495" lon="15.9981767"><ele>35.5</ele><time>2026-04-07T07:06:25.79Z</time></trkpt><trkpt lat="38.474795" lon="15.9983967"><ele>35.0</ele><time>2026-04-07T07:06:26.79Z</time></trkpt><trkpt lat="38.4746433" lon="15.9986167"><ele>35.0</ele><time>2026-04-07T07:06:27.79Z</time></trkpt><trkpt lat="38.4744983" lon="15.9988333"><ele>35.0</ele><time>2026-04-07T07:06:28.789Z</time></trkpt><trkpt lat="38.4743617" lon="15.999035"><ele>35.0</ele><time>2026-04-07T07:06:29.789Z</time></trkpt><trkpt lat="38.4742317" lon="15.9992317"><ele>35.0</ele><time>2026-04-07T07:06:30.789Z</time></trkpt><trkpt lat="38.474105" lon="15.99941"><ele>35.0</ele><time>2026-04-07T07:06:31.789Z</time></trkpt><trkpt lat="38.4739833" lon="15.9995817"><ele>35.0</ele><time>2026-04-07T07:06:32.789Z</time></trkpt><trkpt lat="38.4738633" lon="15.9997617"><ele>36.0</ele><time>2026-04-07T07:06:33.789Z</time></trkpt><trkpt lat="38.4737383" lon="15.9999367"><ele>37.0</ele><time>2026-04-07T07:06:34.789Z</time></trkpt><trkpt lat="38.47362" lon="16.000115"><ele>38.0</ele><time>2026-04-07T07:06:35.79Z</time></trkpt><trkpt lat="38.473495" lon="16.00029"><ele>38.0</ele><time>2026-04-07T07:06:36.789Z</time></trkpt><trkpt lat="38.47337" lon="16.0004567"><ele>38.0</ele><time>2026-04-07T07:06:37.79Z</time></trkpt><trkpt lat="38.4732567" lon="16.0006333"><ele>38.0</ele><time>2026-04-07T07:06:38.789Z</time></trkpt><trkpt lat="38.4731417" lon="16.00081"><ele>38.0</ele><time>2026-04-07T07:06:39.789Z</time></trkpt><trkpt lat="38.47303" lon="16.0009783"><ele>38.0</ele><time>2026-04-07T07:06:40.79Z</time></trkpt><trkpt lat="38.4729183" lon="16.0011517"><ele>38.0</ele><time>2026-04-07T07:06:41.789Z</time></trkpt><trkpt lat="38.472795" lon="16.001325"><ele>39.0</ele><time>2026-04-07T07:06:42.79Z</time></trkpt><trkpt lat="38.4726783" lon="16.0015"><ele>40.0</ele><time>2026-04-07T07:06:43.789Z</time></trkpt><trkpt lat="38.472555" lon="16.0016683"><ele>41.0</ele><time>2026-04-07T07:06:44.789Z</time></trkpt><trkpt lat="38.4724283" lon="16.0018367"><ele>41.0</ele><time>2026-04-07T07:06:45.789Z</time></trkpt><trkpt lat="38.472305" lon="16.00202"><ele>41.0</ele><time>2026-04-07T07:06:46.79Z</time></trkpt><trkpt lat="38.4721767" lon="16.0022017"><ele>41.0</ele><time>2026-04-07T07:06:47.79Z</time></trkpt><trkpt lat="38.4720567" lon="16.0023917"><ele>40.666666666666664</ele><time>2026-04-07T07:06:48.789Z</time></trkpt><trkpt lat="38.47193" lon="16.0025783"><ele>40.333333333333336</ele><time>2026-04-07T07:06:49.789Z</time></trkpt><trkpt lat="38.4717983" lon="16.0027633"><ele>40.0</ele><time>2026-04-07T07:06:50.79Z</time></trkpt><trkpt lat="38.4716667" lon="16.002945"><ele>40.0</ele><time>2026-04-07T07:06:51.789Z</time></trkpt><trkpt lat="38.47152" lon="16.00313"><ele>40.0</ele><time>2026-04-07T07:06:52.79Z</time></trkpt><trkpt lat="38.4713783" lon="16.0033267"><ele>40.0</ele><time>2026-04-07T07:06:53.79Z</time></trkpt><trkpt lat="38.4712367" lon="16.0035167"><ele>40.0</ele><time>2026-04-07T07:06:54.79Z</time></trkpt><trkpt lat="38.47109" lon="16.0037083"><ele>40.0</ele><time>2026-04-07T07:06:55.789Z</time></trkpt><trkpt lat="38.47094" lon="16.0039033"><ele>40.0</ele><time>2026-04-07T07:06:56.789Z</time></trkpt><trkpt lat="38.4707867" lon="16.0041"><ele>40.333333333333336</ele><time>2026-04-07T07:06:57.79Z</time></trkpt><trkpt lat="38.4706383" lon="16.0042967"><ele>40.666666666666664</ele><time>2026-04-07T07:06:58.79Z</time></trkpt><trkpt lat="38.470495" lon="16.0044967"><ele>41.0</ele><time>2026-04-07T07:06:59.789Z</time></trkpt><trkpt lat="38.47035" lon="16.004695"><ele>41.33333333333333</ele><time>2026-04-07T07:07:00.79Z</time></trkpt><trkpt lat="38.4702" lon="16.00489"><ele>41.666666666666664</ele><time>2026-04-07T07:07:01.789Z</time></trkpt><trkpt lat="38.47005" lon="16.0050983"><ele>42.0</ele><time>2026-04-07T07:07:02.79Z</time></trkpt><trkpt lat="38.4699" lon="16.0052967"><ele>42.0</ele><time>2026-04-07T07:07:03.789Z</time></trkpt><trkpt lat="38.46975" lon="16.0054983"><ele>42.0</ele><time>2026-04-07T07:07:04.789Z</time></trkpt><trkpt lat="38.4696" lon="16.00571"><ele>42.0</ele><time>2026-04-07T07:07:05.79Z</time></trkpt><trkpt lat="38.46945" lon="16.0059183"><ele>42.333333333333336</ele><time>2026-04-07T07:07:06.789Z</time></trkpt><trkpt lat="38.4693033" lon="16.00613"><ele>42.66666666666667</ele><time>2026-04-07T07:07:07.789Z</time></trkpt><trkpt lat="38.469155" lon="16.0063417"><ele>43.0</ele><time>2026-04-07T07:07:08.789Z</time></trkpt><trkpt lat="38.4690017" lon="16.0065683"><ele>43.5</ele><time>2026-04-07T07:07:09.79Z</time></trkpt><trkpt lat="38.4688483" lon="16.0067817"><ele>44.0</ele><time>2026-04-07T07:07:10.789Z</time></trkpt><trkpt lat="38.4686917" lon="16.006995"><ele>45.5</ele><time>2026-04-07T07:07:11.789Z</time></trkpt><trkpt lat="38.4685367" lon="16.0072083"><ele>47.0</ele><time>2026-04-07T07:07:12.789Z</time></trkpt><trkpt lat="38.468375" lon="16.0074267"><ele>46.5</ele><time>2026-04-07T07:07:13.789Z</time></trkpt><trkpt lat="38.468215" lon="16.007645"><ele>46.0</ele><time>2026-04-07T07:07:14.79Z</time></trkpt><trkpt lat="38.4680567" lon="16.0078617"><ele>46.0</ele><time>2026-04-07T07:07:15.789Z</time></trkpt><trkpt lat="38.4679" lon="16.008075"><ele>46.0</ele><time>2026-04-07T07:07:16.789Z</time></trkpt><trkpt lat="38.4677367" lon="16.0082833"><ele>45.66666666666667</ele><time>2026-04-07T07:07:17.79Z</time></trkpt><trkpt lat="38.46758" lon="16.0084917"><ele>45.333333333333336</ele><time>2026-04-07T07:07:18.789Z</time></trkpt><trkpt lat="38.4674317" lon="16.008685"><ele>45.0</ele><time>2026-04-07T07:07:19.789Z</time></trkpt><trkpt lat="38.4672933" lon="16.008865"><ele>45.0</ele><time>2026-04-07T07:07:20.789Z</time></trkpt><trkpt lat="38.46716" lon="16.0090367"><ele>45.0</ele><time>2026-04-07T07:07:21.789Z</time></trkpt><trkpt lat="38.4670467" lon="16.0091967"><ele>45.0</ele><time>2026-04-07T07:07:22.79Z</time></trkpt><trkpt lat="38.466945" lon="16.009335"><ele>45.8</ele><time>2026-04-07T07:07:23.789Z</time></trkpt><trkpt lat="38.46686" lon="16.00946"><ele>46.6</ele><time>2026-04-07T07:07:24.79Z</time></trkpt><trkpt lat="38.4667867" lon="16.0095633"><ele>47.400000000000006</ele><time>2026-04-07T07:07:25.789Z</time></trkpt><trkpt lat="38.46672" lon="16.009645"><ele>48.2</ele><time>2026-04-07T07:07:26.789Z</time></trkpt><trkpt lat="38.4666617" lon="16.009705"><ele>49.0</ele><time>2026-04-07T07:07:27.789Z</time></trkpt><trkpt lat="38.46661" lon="16.009755"><ele>48.99999999999999</ele><time>2026-04-07T07:07:28.79Z</time></trkpt><trkpt lat="38.4665033" lon="16.009815"><ele>49.0</ele><time>2026-04-07T07:07:30.789Z</time></trkpt><trkpt lat="38.4664383" lon="16.0098317"><ele>49.0</ele><time>2026-04-07T07:07:31.789Z</time></trkpt><trkpt lat="38.4663633" lon="16.00985"><ele>49.0</ele><time>2026-04-07T07:07:32.79Z</time></trkpt><trkpt lat="38.4662767" lon="16.00988"><ele>48.99999999999999</ele><time>2026-04-07T07:07:33.79Z</time></trkpt><trkpt lat="38.4661933" lon="16.009945"><ele>49.0</ele><time>2026-04-07T07:07:34.789Z</time></trkpt><trkpt lat="38.4661317" lon="16.0100383"><ele>49.5</ele><time>2026-04-07T07:07:35.789Z</time></trkpt><trkpt lat="38.4661033" lon="16.0101583"><ele>50.0</ele><time>2026-04-07T07:07:36.79Z</time></trkpt><trkpt lat="38.466085" lon="16.01029"><ele>50.5</ele><time>2026-04-07T07:07:37.789Z</time></trkpt><trkpt lat="38.4660517" lon="16.010435"><ele>51.0</ele><time>2026-04-07T07:07:38.789Z</time></trkpt><trkpt lat="38.46599" lon="16.0105883"><ele>51.0</ele><time>2026-04-07T07:07:39.789Z</time></trkpt><trkpt lat="38.4659" lon="16.0107333"><ele>51.0</ele><time>2026-04-07T07:07:40.79Z</time></trkpt><trkpt lat="38.465785" lon="16.0108883"><ele>51.0</ele><time>2026-04-07T07:07:41.79Z</time></trkpt><trkpt lat="38.46566" lon="16.0110583"><ele>50.66666666666667</ele><time>2026-04-07T07:07:42.789Z</time></trkpt><trkpt lat="38.4655283" lon="16.0112383"><ele>50.333333333333336</ele><time>2026-04-07T07:07:43.789Z</time></trkpt><trkpt lat="38.46539" lon="16.0114217"><ele>50.0</ele><time>2026-04-07T07:07:44.79Z</time></trkpt><trkpt lat="38.4652483" lon="16.0116117"><ele>50.0</ele><time>2026-04-07T07:07:45.79Z</time></trkpt><trkpt lat="38.4651117" lon="16.0118067"><ele>50.0</ele><time>2026-04-07T07:07:46.789Z</time></trkpt><trkpt lat="38.4649717" lon="16.0120017"><ele>50.0</ele><time>2026-04-07T07:07:47.789Z</time></trkpt><trkpt lat="38.46483" lon="16.0122033"><ele>50.0</ele><time>2026-04-07T07:07:48.789Z</time></trkpt><trkpt lat="38.46468" lon="16.0123983"><ele>50.0</ele><time>2026-04-07T07:07:49.789Z</time></trkpt><trkpt lat="38.4645283" lon="16.0126017"><ele>50.0</ele><time>2026-04-07T07:07:50.789Z</time></trkpt><trkpt lat="38.46437" lon="16.0128067"><ele>54.0</ele><time>2026-04-07T07:07:51.789Z</time></trkpt><trkpt lat="38.464215" lon="16.0130133"><ele>58.0</ele><time>2026-04-07T07:07:52.789Z</time></trkpt><trkpt lat="38.464055" lon="16.0132233"><ele>57.0</ele><time>2026-04-07T07:07:53.79Z</time></trkpt><trkpt lat="38.4638983" lon="16.0134283"><ele>56.0</ele><time>2026-04-07T07:07:54.79Z</time></trkpt><trkpt lat="38.4637383" lon="16.0136283"><ele>55.0</ele><time>2026-04-07T07:07:55.789Z</time></trkpt><trkpt lat="38.4635817" lon="16.0138267"><ele>62.0</ele><time>2026-04-07T07:07:56.789Z</time></trkpt><trkpt lat="38.4634167" lon="16.01403"><ele>69.0</ele><time>2026-04-07T07:07:57.789Z</time></trkpt><trkpt lat="38.463245" lon="16.0142417"><ele>69.0</ele><time>2026-04-07T07:07:58.789Z</time></trkpt><trkpt lat="38.4630717" lon="16.014465"><ele>69.0</ele><time>2026-04-07T07:07:59.789Z</time></trkpt><trkpt lat="38.462895" lon="16.014685"><ele>74.5</ele><time>2026-04-07T07:08:00.789Z</time></trkpt><trkpt lat="38.4627117" lon="16.0149117"><ele>80.0</ele><time>2026-04-07T07:08:01.789Z</time></trkpt><trkpt lat="38.46253" lon="16.01514"><ele>80.0</ele><time>2026-04-07T07:08:02.789Z</time></trkpt><trkpt lat="38.4623417" lon="16.0153633"><ele>80.0</ele><time>2026-04-07T07:08:03.789Z</time></trkpt><trkpt lat="38.46216" lon="16.0155833"><ele>78.5</ele><time>2026-04-07T07:08:04.79Z</time></trkpt><trkpt lat="38.461975" lon="16.01581"><ele>77.0</ele><time>2026-04-07T07:08:05.79Z</time></trkpt><trkpt lat="38.4617983" lon="16.0160267"><ele>74.5</ele><time>2026-04-07T07:08:06.79Z</time></trkpt><trkpt lat="38.4616233" lon="16.0162517"><ele>72.0</ele><time>2026-04-07T07:08:07.789Z</time></trkpt><trkpt lat="38.46145" lon="16.0164783"><ele>66.5</ele><time>2026-04-07T07:08:08.789Z</time></trkpt><trkpt lat="38.46127" lon="16.016715"><ele>61.0</ele><time>2026-04-07T07:08:09.79Z</time></trkpt><trkpt lat="38.4610817" lon="16.0169467"><ele>61.0</ele><time>2026-04-07T07:08:10.789Z</time></trkpt><trkpt lat="38.4609" lon="16.017195"><ele>61.0</ele><time>2026-04-07T07:08:11.789Z</time></trkpt><trkpt lat="38.460715" lon="16.0174367"><ele>61.0</ele><time>2026-04-07T07:08:12.79Z</time></trkpt><trkpt lat="38.46052" lon="16.0176867"><ele>61.0</ele><time>2026-04-07T07:08:13.789Z</time></trkpt><trkpt lat="38.46033" lon="16.0179383"><ele>61.0</ele><time>2026-04-07T07:08:14.789Z</time></trkpt><trkpt lat="38.4601433" lon="16.0181867"><ele>61.0</ele><time>2026-04-07T07:08:15.789Z</time></trkpt><trkpt lat="38.4599633" lon="16.01844"><ele>61.0</ele><time>2026-04-07T07:08:16.789Z</time></trkpt><trkpt lat="38.4597867" lon="16.0186933"><ele>61.0</ele><time>2026-04-07T07:08:17.789Z</time></trkpt><trkpt lat="38.459605" lon="16.0189517"><ele>61.5</ele><time>2026-04-07T07:08:18.79Z</time></trkpt><trkpt lat="38.4594217" lon="16.019205"><ele>62.0</ele><time>2026-04-07T07:08:19.789Z</time></trkpt><trkpt lat="38.459245" lon="16.0194633"><ele>62.0</ele><time>2026-04-07T07:08:20.79Z</time></trkpt><trkpt lat="38.45907" lon="16.01971"><ele>62.0</ele><time>2026-04-07T07:08:21.789Z</time></trkpt><trkpt lat="38.4588967" lon="16.0199533"><ele>62.0</ele><time>2026-04-07T07:08:22.789Z</time></trkpt><trkpt lat="38.4587183" lon="16.0201983"><ele>62.0</ele><time>2026-04-07T07:08:23.79Z</time></trkpt><trkpt lat="38.4585467" lon="16.0204367"><ele>62.0</ele><time>2026-04-07T07:08:24.789Z</time></trkpt><trkpt lat="38.458375" lon="16.0206717"><ele>62.0</ele><time>2026-04-07T07:08:25.789Z</time></trkpt><trkpt lat="38.4582017" lon="16.0209117"><ele>63.0</ele><time>2026-04-07T07:08:26.789Z</time></trkpt><trkpt lat="38.4580217" lon="16.0211433"><ele>64.0</ele><time>2026-04-07T07:08:27.789Z</time></trkpt><trkpt lat="38.45785" lon="16.0213783"><ele>65.0</ele><time>2026-04-07T07:08:28.79Z</time></trkpt><trkpt lat="38.4576783" lon="16.021615"><ele>66.0</ele><time>2026-04-07T07:08:29.789Z</time></trkpt><trkpt lat="38.45751" lon="16.021855"><ele>66.0</ele><time>2026-04-07T07:08:30.789Z</time></trkpt><trkpt lat="38.4573533" lon="16.0220867"><ele>66.0</ele><time>2026-04-07T07:08:31.789Z</time></trkpt><trkpt lat="38.4572017" lon="16.0223117"><ele>66.66666666666667</ele><time>2026-04-07T07:08:32.79Z</time></trkpt><trkpt lat="38.4570567" lon="16.022515"><ele>67.33333333333334</ele><time>2026-04-07T07:08:33.789Z</time></trkpt><trkpt lat="38.4569133" lon="16.022715"><ele>68.0</ele><time>2026-04-07T07:08:34.789Z</time></trkpt><trkpt lat="38.45678" lon="16.0229083"><ele>68.0</ele><time>2026-04-07T07:08:35.789Z</time></trkpt><trkpt lat="38.4566517" lon="16.0231"><ele>68.0</ele><time>2026-04-07T07:08:36.789Z</time></trkpt><trkpt lat="38.4565167" lon="16.0232933"><ele>68.0</ele><time>2026-04-07T07:08:37.789Z</time></trkpt><trkpt lat="38.4563917" lon="16.023475"><ele>68.0</ele><time>2026-04-07T07:08:38.789Z</time></trkpt><trkpt lat="38.4562717" lon="16.0236517"><ele>68.0</ele><time>2026-04-07T07:08:39.79Z</time></trkpt><trkpt lat="38.456155" lon="16.0238133"><ele>68.0</ele><time>2026-04-07T07:08:40.79Z</time></trkpt><trkpt lat="38.4560367" lon="16.0239817"><ele>68.33333333333334</ele><time>2026-04-07T07:08:41.789Z</time></trkpt><trkpt lat="38.4559183" lon="16.0241517"><ele>68.66666666666667</ele><time>2026-04-07T07:08:42.789Z</time></trkpt><trkpt lat="38.4558033" lon="16.0243183"><ele>69.0</ele><time>2026-04-07T07:08:43.789Z</time></trkpt><trkpt lat="38.4556883" lon="16.02449"><ele>69.0</ele><time>2026-04-07T07:08:44.79Z</time></trkpt><trkpt lat="38.4555667" lon="16.024675"><ele>69.0</ele><time>2026-04-07T07:08:45.789Z</time></trkpt><trkpt lat="38.4554283" lon="16.0248667"><ele>69.0</ele><time>2026-04-07T07:08:46.789Z</time></trkpt><trkpt lat="38.45529" lon="16.0250633"><ele>69.33333333333333</ele><time>2026-04-07T07:08:47.79Z</time></trkpt><trkpt lat="38.45515" lon="16.0252633"><ele>69.66666666666666</ele><time>2026-04-07T07:08:48.789Z</time></trkpt><trkpt lat="38.4550183" lon="16.02545"><ele>70.0</ele><time>2026-04-07T07:08:49.789Z</time></trkpt><trkpt lat="38.454885" lon="16.0256283"><ele>70.0</ele><time>2026-04-07T07:08:50.789Z</time></trkpt><trkpt lat="38.4547633" lon="16.0257933"><ele>70.0</ele><time>2026-04-07T07:08:51.79Z</time></trkpt><trkpt lat="38.4546533" lon="16.0259483"><ele>70.0</ele><time>2026-04-07T07:08:52.789Z</time></trkpt><trkpt lat="38.45455" lon="16.0260983"><ele>71.0</ele><time>2026-04-07T07:08:53.789Z</time></trkpt><trkpt lat="38.4544517" lon="16.0262333"><ele>72.0</ele><time>2026-04-07T07:08:54.789Z</time></trkpt><trkpt lat="38.45436" lon="16.0263633"><ele>73.0</ele><time>2026-04-07T07:08:55.789Z</time></trkpt><trkpt lat="38.454285" lon="16.0264733"><ele>74.0</ele><time>2026-04-07T07:08:56.789Z</time></trkpt><trkpt lat="38.4542233" lon="16.026575"><ele>74.0</ele><time>2026-04-07T07:08:57.789Z</time></trkpt><trkpt lat="38.4541883" lon="16.0266683"><ele>75.0</ele><time>2026-04-07T07:08:58.789Z</time></trkpt><trkpt lat="38.45421" lon="16.0268083"><ele>75.0</ele><time>2026-04-07T07:09:00.79Z</time></trkpt><trkpt lat="38.4542733" lon="16.0268317"><ele>75.0</ele><time>2026-04-07T07:09:02.789Z</time></trkpt><trkpt lat="38.454325" lon="16.0267433"><ele>75.0</ele><time>2026-04-07T07:09:05.79Z</time></trkpt></trkseg><trkseg><trkpt lat="38.454255" lon="16.0269333"><ele>74.99999999999999</ele><time>2026-04-07T07:22:58.787Z</time></trkpt><trkpt lat="38.45421" lon="16.0268417"><ele>75.0</ele><time>2026-04-07T07:23:01.787Z</time></trkpt><trkpt lat="38.454155" lon="16.0267917"><ele>75.0</ele><time>2026-04-07T07:23:04.787Z</time></trkpt><trkpt lat="38.4542" lon="16.026725"><ele>75.0</ele><time>2026-04-07T07:23:23.787Z</time></trkpt><trkpt lat="38.4542817" lon="16.026775"><ele>75.0</ele><time>2026-04-07T07:23:26.787Z</time></trkpt><trkpt lat="38.454335" lon="16.0268283"><ele>74.99999999999999</ele><time>2026-04-07T07:23:28.787Z</time></trkpt><trkpt lat="38.4543983" lon="16.0268567"><ele>75.0</ele><time>2026-04-07T07:23:31.788Z</time></trkpt><trkpt lat="38.4544583" lon="16.0268217"><ele>75.0</ele><time>2026-04-07T07:23:34.788Z</time></trkpt><trkpt lat="38.4545317" lon="16.0268617"><ele>75.0</ele><time>2026-04-07T07:23:38.787Z</time></trkpt><trkpt lat="38.45459" lon="16.0267983"><ele>75.0</ele><time>2026-04-07T07:23:41.787Z</time></trkpt><trkpt lat="38.4545667" lon="16.02672"><ele>75.0</ele><time>2026-04-07T07:23:44.787Z</time></trkpt><trkpt lat="38.4545067" lon="16.02668"><ele>75.0</ele><time>2026-04-07T07:23:47.788Z</time></trkpt><trkpt lat="38.454455" lon="16.026615"><ele>75.0</ele><time>2026-04-07T07:23:50.787Z</time></trkpt><trkpt lat="38.4543433" lon="16.0265717"><ele>75.0</ele><time>2026-04-07T07:25:49.787Z</time></trkpt><trkpt lat="38.4542717" lon="16.0266233"><ele>75.0</ele><time>2026-04-07T07:25:51.787Z</time></trkpt><trkpt lat="38.4542133" lon="16.0266717"><ele>75.0</ele><time>2026-04-07T07:25:53.787Z</time></trkpt><trkpt lat="38.454155" lon="16.0267067"><ele>75.0</ele><time>2026-04-07T07:25:56.787Z</time></trkpt><trkpt lat="38.4540633" lon="16.0267933"><ele>75.0</ele><time>2026-04-07T07:25:59.787Z</time></trkpt><trkpt lat="38.4540017" lon="16.0268667"><ele>75.0</ele><time>2026-04-07T07:26:00.788Z</time></trkpt><trkpt lat="38.45392" lon="16.026955"><ele>75.0</ele><time>2026-04-07T07:26:01.787Z</time></trkpt><trkpt lat="38.4538317" lon="16.0270717"><ele>75.0</ele><time>2026-04-07T07:26:02.788Z</time></trkpt><trkpt lat="38.4537433" lon="16.0271967"><ele>75.0</ele><time>2026-04-07T07:26:03.788Z</time></trkpt><trkpt lat="38.4536517" lon="16.0273283"><ele>75.0</ele><time>2026-04-07T07:26:04.788Z</time></trkpt><trkpt lat="38.453555" lon="16.0274617"><ele>75.0</ele><time>2026-04-07T07:26:05.787Z</time></trkpt><trkpt lat="38.45347" lon="16.02759"><ele>75.0</ele><time>2026-04-07T07:26:06.787Z</time></trkpt><trkpt lat="38.453385" lon="16.027715"><ele>75.0</ele><time>2026-04-07T07:26:07.788Z</time></trkpt><trkpt lat="38.4533017" lon="16.0278417"><ele>75.0</ele><time>2026-04-07T07:26:08.787Z</time></trkpt><trkpt lat="38.4532183" lon="16.0279633"><ele>75.0</ele><time>2026-04-07T07:26:09.788Z</time></trkpt><trkpt lat="38.4531417" lon="16.028075"><ele>75.0</ele><time>2026-04-07T07:26:10.787Z</time></trkpt><trkpt lat="38.4530633" lon="16.0281867"><ele>75.0</ele><time>2026-04-07T07:26:11.787Z</time></trkpt><trkpt lat="38.4529917" lon="16.02828"><ele>75.0</ele><time>2026-04-07T07:26:12.788Z</time></trkpt><trkpt lat="38.4529167" lon="16.028355"><ele>75.0</ele><time>2026-04-07T07:26:13.787Z</time></trkpt><trkpt lat="38.4528367" lon="16.0284183"><ele>75.2</ele><time>2026-04-07T07:26:14.788Z</time></trkpt><trkpt lat="38.4527483" lon="16.0284717"><ele>75.4</ele><time>2026-04-07T07:26:15.788Z</time></trkpt><trkpt lat="38.4526583" lon="16.028525"><ele>75.6</ele><time>2026-04-07T07:26:16.788Z</time></trkpt><trkpt lat="38.4525817" lon="16.028595"><ele>75.8</ele><time>2026-04-07T07:26:17.787Z</time></trkpt><trkpt lat="38.4525283" lon="16.0286867"><ele>76.0</ele><time>2026-04-07T07:26:18.787Z</time></trkpt><trkpt lat="38.4524917" lon="16.0288017"><ele>76.0</ele><time>2026-04-07T07:26:19.787Z</time></trkpt><trkpt lat="38.4524667" lon="16.0289367"><ele>76.0</ele><time>2026-04-07T07:26:20.787Z</time></trkpt><trkpt lat="38.4524433" lon="16.029075"><ele>76.0</ele><time>2026-04-07T07:26:21.787Z</time></trkpt><trkpt lat="38.4524117" lon="16.0292183"><ele>76.0</ele><time>2026-04-07T07:26:22.788Z</time></trkpt><trkpt lat="38.4523617" lon="16.0293633"><ele>76.25</ele><time>2026-04-07T07:26:23.787Z</time></trkpt><trkpt lat="38.4522983" lon="16.0295133"><ele>76.5</ele><time>2026-04-07T07:26:24.787Z</time></trkpt><trkpt lat="38.45223" lon="16.0296633"><ele>76.75</ele><time>2026-04-07T07:26:25.787Z</time></trkpt><trkpt lat="38.4521583" lon="16.0298283"><ele>77.0</ele><time>2026-04-07T07:26:26.787Z</time></trkpt><trkpt lat="38.452085" lon="16.0299983"><ele>77.0</ele><time>2026-04-07T07:26:27.788Z</time></trkpt><trkpt lat="38.4520167" lon="16.03017"><ele>77.0</ele><time>2026-04-07T07:26:28.787Z</time></trkpt><trkpt lat="38.451945" lon="16.0303483"><ele>77.0</ele><time>2026-04-07T07:26:29.787Z</time></trkpt><trkpt lat="38.4518817" lon="16.03052"><ele>77.0</ele><time>2026-04-07T07:26:30.788Z</time></trkpt><trkpt lat="38.4518183" lon="16.0306983"><ele>77.0</ele><time>2026-04-07T07:26:31.787Z</time></trkpt><trkpt lat="38.4517533" lon="16.0308817"><ele>77.0</ele><time>2026-04-07T07:26:32.788Z</time></trkpt><trkpt lat="38.451685" lon="16.0310683"><ele>77.33333333333334</ele><time>2026-04-07T07:26:33.788Z</time></trkpt><trkpt lat="38.451605" lon="16.0312617"><ele>77.66666666666667</ele><time>2026-04-07T07:26:34.787Z</time></trkpt><trkpt lat="38.4515267" lon="16.03145"><ele>78.0</ele><time>2026-04-07T07:26:35.787Z</time></trkpt><trkpt lat="38.4514517" lon="16.0316383"><ele>78.0</ele><time>2026-04-07T07:26:36.787Z</time></trkpt><trkpt lat="38.4513717" lon="16.0318383"><ele>78.0</ele><time>2026-04-07T07:26:37.787Z</time></trkpt><trkpt lat="38.451295" lon="16.0320317"><ele>78.0</ele><time>2026-04-07T07:26:38.788Z</time></trkpt><trkpt lat="38.4512117" lon="16.0322333"><ele>79.0</ele><time>2026-04-07T07:26:39.787Z</time></trkpt><trkpt lat="38.45111" lon="16.0324333"><ele>80.0</ele><time>2026-04-07T07:26:40.787Z</time></trkpt><trkpt lat="38.4510117" lon="16.0326283"><ele>81.0</ele><time>2026-04-07T07:26:41.787Z</time></trkpt><trkpt lat="38.450905" lon="16.0328183"><ele>81.0</ele><time>2026-04-07T07:26:42.788Z</time></trkpt><trkpt lat="38.4507917" lon="16.0330067"><ele>81.0</ele><time>2026-04-07T07:26:43.787Z</time></trkpt><trkpt lat="38.45068" lon="16.0331967"><ele>81.0</ele><time>2026-04-07T07:26:44.787Z</time></trkpt><trkpt lat="38.4505617" lon="16.0333833"><ele>82.0</ele><time>2026-04-07T07:26:45.787Z</time></trkpt><trkpt lat="38.450445" lon="16.0335683"><ele>83.0</ele><time>2026-04-07T07:26:46.787Z</time></trkpt><trkpt lat="38.4503267" lon="16.033765"><ele>84.0</ele><time>2026-04-07T07:26:47.787Z</time></trkpt><trkpt lat="38.4502067" lon="16.0339533"><ele>83.33333333333333</ele><time>2026-04-07T07:26:48.788Z</time></trkpt><trkpt lat="38.4500867" lon="16.0341417"><ele>82.66666666666666</ele><time>2026-04-07T07:26:49.788Z</time></trkpt><trkpt lat="38.4499733" lon="16.034335"><ele>82.0</ele><time>2026-04-07T07:26:50.787Z</time></trkpt><trkpt lat="38.449845" lon="16.0345233"><ele>82.0</ele><time>2026-04-07T07:26:51.787Z</time></trkpt><trkpt lat="38.4497183" lon="16.0347033"><ele>82.0</ele><time>2026-04-07T07:26:52.787Z</time></trkpt><trkpt lat="38.449595" lon="16.0348983"><ele>82.0</ele><time>2026-04-07T07:26:53.787Z</time></trkpt><trkpt lat="38.44947" lon="16.03508"><ele>82.33333333333333</ele><time>2026-04-07T07:26:54.787Z</time></trkpt><trkpt lat="38.4493417" lon="16.035265"><ele>82.66666666666667</ele><time>2026-04-07T07:26:55.788Z</time></trkpt><trkpt lat="38.4492067" lon="16.0354417"><ele>83.0</ele><time>2026-04-07T07:26:56.787Z</time></trkpt><trkpt lat="38.4490767" lon="16.0356217"><ele>83.0</ele><time>2026-04-07T07:26:57.787Z</time></trkpt><trkpt lat="38.4489467" lon="16.0357933"><ele>83.0</ele><time>2026-04-07T07:26:58.788Z</time></trkpt><trkpt lat="38.44881" lon="16.035965"><ele>83.0</ele><time>2026-04-07T07:26:59.787Z</time></trkpt><trkpt lat="38.4486783" lon="16.0361233"><ele>84.33333333333334</ele><time>2026-04-07T07:27:00.788Z</time></trkpt><trkpt lat="38.4485417" lon="16.0362817"><ele>85.66666666666667</ele><time>2026-04-07T07:27:01.787Z</time></trkpt><trkpt lat="38.448405" lon="16.0364367"><ele>87.0</ele><time>2026-04-07T07:27:02.787Z</time></trkpt><trkpt lat="38.4482667" lon="16.0365883"><ele>87.0</ele><time>2026-04-07T07:27:03.788Z</time></trkpt><trkpt lat="38.4481283" lon="16.0367383"><ele>87.0</ele><time>2026-04-07T07:27:04.787Z</time></trkpt><trkpt lat="38.4479833" lon="16.0368867"><ele>87.0</ele><time>2026-04-07T07:27:05.787Z</time></trkpt><trkpt lat="38.4478367" lon="16.0370267"><ele>87.0</ele><time>2026-04-07T07:27:06.787Z</time></trkpt><trkpt lat="38.4476867" lon="16.0371667"><ele>87.0</ele><time>2026-04-07T07:27:07.787Z</time></trkpt><trkpt lat="38.4475367" lon="16.037305"><ele>87.0</ele><time>2026-04-07T07:27:08.787Z</time></trkpt><trkpt lat="38.4473817" lon="16.037445"><ele>87.0</ele><time>2026-04-07T07:27:09.787Z</time></trkpt><trkpt lat="38.4472233" lon="16.0375767"><ele>87.0</ele><time>2026-04-07T07:27:10.787Z</time></trkpt><trkpt lat="38.4470617" lon="16.037715"><ele>87.0</ele><time>2026-04-07T07:27:11.788Z</time></trkpt><trkpt lat="38.4468983" lon="16.0378517"><ele>88.33333333333333</ele><time>2026-04-07T07:27:12.787Z</time></trkpt><trkpt lat="38.4467367" lon="16.0379867"><ele>89.66666666666666</ele><time>2026-04-07T07:27:13.788Z</time></trkpt><trkpt lat="38.44657" lon="16.038115"><ele>91.0</ele><time>2026-04-07T07:27:14.787Z</time></trkpt><trkpt lat="38.4464017" lon="16.0382517"><ele>91.33333333333333</ele><time>2026-04-07T07:27:15.788Z</time></trkpt><trkpt lat="38.446235" lon="16.03838"><ele>91.66666666666667</ele><time>2026-04-07T07:27:16.788Z</time></trkpt><trkpt lat="38.4460667" lon="16.0385067"><ele>92.0</ele><time>2026-04-07T07:27:17.787Z</time></trkpt><trkpt lat="38.4459017" lon="16.0386317"><ele>92.0</ele><time>2026-04-07T07:27:18.788Z</time></trkpt><trkpt lat="38.4457367" lon="16.0387567"><ele>92.0</ele><time>2026-04-07T07:27:19.787Z</time></trkpt><trkpt lat="38.4455683" lon="16.038875"><ele>92.0</ele><time>2026-04-07T07:27:20.787Z</time></trkpt><trkpt lat="38.4454" lon="16.0389983"><ele>92.0</ele><time>2026-04-07T07:27:21.787Z</time></trkpt><trkpt lat="38.445235" lon="16.0391217"><ele>92.0</ele><time>2026-04-07T07:27:22.787Z</time></trkpt><trkpt lat="38.4450683" lon="16.0392483"><ele>92.0</ele><time>2026-04-07T07:27:23.787Z</time></trkpt><trkpt lat="38.4448967" lon="16.03937"><ele>92.0</ele><time>2026-04-07T07:27:24.787Z</time></trkpt><trkpt lat="38.44473" lon="16.0394933"><ele>92.0</ele><time>2026-04-07T07:27:25.787Z</time></trkpt><trkpt lat="38.4445617" lon="16.0396167"><ele>92.0</ele><time>2026-04-07T07:27:26.788Z</time></trkpt><trkpt lat="38.4443933" lon="16.0397483"><ele>92.0</ele><time>2026-04-07T07:27:27.787Z</time></trkpt><trkpt lat="38.4442317" lon="16.039875"><ele>92.0</ele><time>2026-04-07T07:27:28.788Z</time></trkpt><trkpt lat="38.44406" lon="16.0399917"><ele>92.0</ele><time>2026-04-07T07:27:29.788Z</time></trkpt><trkpt lat="38.4438983" lon="16.0401133"><ele>93.33333333333334</ele><time>2026-04-07T07:27:30.788Z</time></trkpt><trkpt lat="38.443735" lon="16.0402367"><ele>94.66666666666667</ele><time>2026-04-07T07:27:31.788Z</time></trkpt><trkpt lat="38.4435717" lon="16.04036"><ele>96.0</ele><time>2026-04-07T07:27:32.787Z</time></trkpt><trkpt lat="38.4434133" lon="16.040485"><ele>96.0</ele><time>2026-04-07T07:27:33.787Z</time></trkpt><trkpt lat="38.4432533" lon="16.0406083"><ele>96.0</ele><time>2026-04-07T07:27:34.787Z</time></trkpt><trkpt lat="38.4430933" lon="16.04073"><ele>96.0</ele><time>2026-04-07T07:27:35.787Z</time></trkpt><trkpt lat="38.4429317" lon="16.0408583"><ele>97.0</ele><time>2026-04-07T07:27:36.787Z</time></trkpt><trkpt lat="38.4427683" lon="16.0409817"><ele>98.0</ele><time>2026-04-07T07:27:37.787Z</time></trkpt><trkpt lat="38.4426067" lon="16.04111"><ele>99.0</ele><time>2026-04-07T07:27:38.787Z</time></trkpt><trkpt lat="38.442445" lon="16.0412383"><ele>99.0</ele><time>2026-04-07T07:27:39.788Z</time></trkpt><trkpt lat="38.4422883" lon="16.041375"><ele>99.0</ele><time>2026-04-07T07:27:40.787Z</time></trkpt><trkpt lat="38.44213" lon="16.0415067"><ele>99.0</ele><time>2026-04-07T07:27:41.787Z</time></trkpt><trkpt lat="38.441975" lon="16.0416383"><ele>99.66666666666666</ele><time>2026-04-07T07:27:42.787Z</time></trkpt><trkpt lat="38.441825" lon="16.0417733"><ele>100.33333333333333</ele><time>2026-04-07T07:27:43.788Z</time></trkpt><trkpt lat="38.4416783" lon="16.041905"><ele>101.0</ele><time>2026-04-07T07:27:44.788Z</time></trkpt><trkpt lat="38.4415283" lon="16.0420483"><ele>101.0</ele><time>2026-04-07T07:27:45.787Z</time></trkpt><trkpt lat="38.4413817" lon="16.042185"><ele>101.0</ele><time>2026-04-07T07:27:46.788Z</time></trkpt><trkpt lat="38.44124" lon="16.0423283"><ele>101.0</ele><time>2026-04-07T07:27:47.788Z</time></trkpt><trkpt lat="38.4410933" lon="16.0424767"><ele>102.66666666666666</ele><time>2026-04-07T07:27:48.788Z</time></trkpt><trkpt lat="38.4409483" lon="16.04262"><ele>104.33333333333334</ele><time>2026-04-07T07:27:49.787Z</time></trkpt><trkpt lat="38.4408067" lon="16.0427667"><ele>106.0</ele><time>2026-04-07T07:27:50.787Z</time></trkpt><trkpt lat="38.4406583" lon="16.0429267"><ele>106.0</ele><time>2026-04-07T07:27:51.788Z</time></trkpt><trkpt lat="38.440515" lon="16.043075"><ele>106.0</ele><time>2026-04-07T07:27:52.788Z</time></trkpt><trkpt lat="38.4403633" lon="16.0432283"><ele>106.0</ele><time>2026-04-07T07:27:53.787Z</time></trkpt><trkpt lat="38.440225" lon="16.0433833"><ele>107.0</ele><time>2026-04-07T07:27:54.787Z</time></trkpt><trkpt lat="38.44009" lon="16.04354"><ele>108.0</ele><time>2026-04-07T07:27:55.787Z</time></trkpt><trkpt lat="38.4399567" lon="16.043695"><ele>109.0</ele><time>2026-04-07T07:27:56.787Z</time></trkpt><trkpt lat="38.4398167" lon="16.0438617"><ele>109.0</ele><time>2026-04-07T07:27:57.787Z</time></trkpt><trkpt lat="38.4396783" lon="16.0440217"><ele>109.0</ele><time>2026-04-07T07:27:58.787Z</time></trkpt><trkpt lat="38.43954" lon="16.0441717"><ele>109.0</ele><time>2026-04-07T07:27:59.787Z</time></trkpt><trkpt lat="38.439385" lon="16.044325"><ele>112.0</ele><time>2026-04-07T07:28:00.787Z</time></trkpt><trkpt lat="38.4392417" lon="16.044485"><ele>115.0</ele><time>2026-04-07T07:28:01.787Z</time></trkpt><trkpt lat="38.4390983" lon="16.0446433"><ele>118.0</ele><time>2026-04-07T07:28:02.787Z</time></trkpt><trkpt lat="38.438955" lon="16.044795"><ele>118.0</ele><time>2026-04-07T07:28:03.787Z</time></trkpt><trkpt lat="38.438805" lon="16.04495"><ele>118.0</ele><time>2026-04-07T07:28:04.787Z</time></trkpt><trkpt lat="38.4386617" lon="16.0451133"><ele>118.0</ele><time>2026-04-07T07:28:05.787Z</time></trkpt><trkpt lat="38.4385133" lon="16.04526"><ele>121.66666666666667</ele><time>2026-04-07T07:28:06.787Z</time></trkpt><trkpt lat="38.43836" lon="16.0454233"><ele>125.33333333333334</ele><time>2026-04-07T07:28:07.788Z</time></trkpt><trkpt lat="38.438205" lon="16.0455867"><ele>129.0</ele><time>2026-04-07T07:28:08.787Z</time></trkpt><trkpt lat="38.4380567" lon="16.0457533"><ele>128.33333333333334</ele><time>2026-04-07T07:28:09.787Z</time></trkpt><trkpt lat="38.437905" lon="16.0459067"><ele>127.66666666666667</ele><time>2026-04-07T07:28:10.787Z</time></trkpt><trkpt lat="38.437755" lon="16.0460567"><ele>127.0</ele><time>2026-04-07T07:28:11.787Z</time></trkpt><trkpt lat="38.437595" lon="16.0462217"><ele>127.0</ele><time>2026-04-07T07:28:12.787Z</time></trkpt><trkpt lat="38.4374433" lon="16.04639"><ele>127.0</ele><time>2026-04-07T07:28:13.788Z</time></trkpt><trkpt lat="38.43729" lon="16.0465517"><ele>127.0</ele><time>2026-04-07T07:28:14.787Z</time></trkpt><trkpt lat="38.4371367" lon="16.0466817"><ele>128.33333333333334</ele><time>2026-04-07T07:28:15.787Z</time></trkpt><trkpt lat="38.43698" lon="16.0468383"><ele>129.66666666666666</ele><time>2026-04-07T07:28:16.788Z</time></trkpt><trkpt lat="38.4368217" lon="16.046995"><ele>131.0</ele><time>2026-04-07T07:28:17.787Z</time></trkpt><trkpt lat="38.436665" lon="16.0471517"><ele>131.0</ele><time>2026-04-07T07:28:18.787Z</time></trkpt><trkpt lat="38.4365017" lon="16.0473083"><ele>131.0</ele><time>2026-04-07T07:28:19.787Z</time></trkpt><trkpt lat="38.4363433" lon="16.0474567"><ele>131.0</ele><time>2026-04-07T07:28:20.788Z</time></trkpt><trkpt lat="38.43618" lon="16.047615"><ele>130.66666666666666</ele><time>2026-04-07T07:28:21.787Z</time></trkpt><trkpt lat="38.4360133" lon="16.0477717"><ele>130.33333333333334</ele><time>2026-04-07T07:28:22.787Z</time></trkpt><trkpt lat="38.4358433" lon="16.047925"><ele>130.0</ele><time>2026-04-07T07:28:23.787Z</time></trkpt><trkpt lat="38.4356817" lon="16.0480733"><ele>130.0</ele><time>2026-04-07T07:28:24.787Z</time></trkpt><trkpt lat="38.4355217" lon="16.048225"><ele>130.0</ele><time>2026-04-07T07:28:25.787Z</time></trkpt><trkpt lat="38.4353567" lon="16.048385"><ele>130.0</ele><time>2026-04-07T07:28:26.788Z</time></trkpt><trkpt lat="38.4351933" lon="16.0485367"><ele>133.66666666666669</ele><time>2026-04-07T07:28:27.787Z</time></trkpt><trkpt lat="38.4350217" lon="16.0486867"><ele>137.33333333333334</ele><time>2026-04-07T07:28:28.788Z</time></trkpt><trkpt lat="38.4348583" lon="16.048845"><ele>141.0</ele><time>2026-04-07T07:28:29.788Z</time></trkpt><trkpt lat="38.4346933" lon="16.0490017"><ele>142.0</ele><time>2026-04-07T07:28:30.787Z</time></trkpt><trkpt lat="38.4345267" lon="16.0491617"><ele>143.0</ele><time>2026-04-07T07:28:31.787Z</time></trkpt><trkpt lat="38.4343633" lon="16.04932"><ele>144.0</ele><time>2026-04-07T07:28:32.787Z</time></trkpt><trkpt lat="38.434205" lon="16.0494833"><ele>144.0</ele><time>2026-04-07T07:28:33.788Z</time></trkpt><trkpt lat="38.434045" lon="16.0496367"><ele>144.0</ele><time>2026-04-07T07:28:34.787Z</time></trkpt><trkpt lat="38.4338833" lon="16.0498067"><ele>144.0</ele><time>2026-04-07T07:28:35.787Z</time></trkpt><trkpt lat="38.4337183" lon="16.0499817"><ele>145.33333333333334</ele><time>2026-04-07T07:28:36.788Z</time></trkpt><trkpt lat="38.433555" lon="16.0501583"><ele>146.66666666666669</ele><time>2026-04-07T07:28:37.788Z</time></trkpt><trkpt lat="38.433395" lon="16.05033"><ele>148.0</ele><time>2026-04-07T07:28:38.788Z</time></trkpt><trkpt lat="38.4332367" lon="16.0505083"><ele>148.0</ele><time>2026-04-07T07:28:39.788Z</time></trkpt><trkpt lat="38.4330767" lon="16.050685"><ele>148.0</ele><time>2026-04-07T07:28:40.787Z</time></trkpt><trkpt lat="38.432925" lon="16.050855"><ele>148.0</ele><time>2026-04-07T07:28:41.787Z</time></trkpt><trkpt lat="38.432765" lon="16.051035"><ele>148.66666666666669</ele><time>2026-04-07T07:28:42.788Z</time></trkpt><trkpt lat="38.4326033" lon="16.0512133"><ele>149.33333333333334</ele><time>2026-04-07T07:28:43.787Z</time></trkpt><trkpt lat="38.4324433" lon="16.0514017"><ele>150.0</ele><time>2026-04-07T07:28:44.788Z</time></trkpt><trkpt lat="38.432285" lon="16.05159"><ele>150.33333333333334</ele><time>2026-04-07T07:28:45.788Z</time></trkpt><trkpt lat="38.43213" lon="16.0517733"><ele>150.66666666666669</ele><time>2026-04-07T07:28:46.788Z</time></trkpt><trkpt lat="38.4319733" lon="16.05195"><ele>151.0</ele><time>2026-04-07T07:28:47.787Z</time></trkpt><trkpt lat="38.4318217" lon="16.0521317"><ele>151.0</ele><time>2026-04-07T07:28:48.787Z</time></trkpt><trkpt lat="38.43166" lon="16.0523167"><ele>151.0</ele><time>2026-04-07T07:28:49.787Z</time></trkpt><trkpt lat="38.431505" lon="16.0525017"><ele>151.0</ele><time>2026-04-07T07:28:50.788Z</time></trkpt><trkpt lat="38.431345" lon="16.05269"><ele>153.33333333333334</ele><time>2026-04-07T07:28:51.788Z</time></trkpt><trkpt lat="38.431185" lon="16.0528783"><ele>155.66666666666666</ele><time>2026-04-07T07:28:52.787Z</time></trkpt><trkpt lat="38.4310267" lon="16.0530567"><ele>158.0</ele><time>2026-04-07T07:28:53.788Z</time></trkpt><trkpt lat="38.4308633" lon="16.0532383"><ele>158.33333333333331</ele><time>2026-04-07T07:28:54.787Z</time></trkpt><trkpt lat="38.430705" lon="16.0534283"><ele>158.66666666666666</ele><time>2026-04-07T07:28:55.788Z</time></trkpt><trkpt lat="38.4305433" lon="16.053605"><ele>159.0</ele><time>2026-04-07T07:28:56.788Z</time></trkpt><trkpt lat="38.43039" lon="16.0537867"><ele>159.33333333333334</ele><time>2026-04-07T07:28:57.788Z</time></trkpt><trkpt lat="38.43023" lon="16.05397"><ele>159.66666666666669</ele><time>2026-04-07T07:28:58.787Z</time></trkpt><trkpt lat="38.43007" lon="16.0541533"><ele>160.0</ele><time>2026-04-07T07:28:59.787Z</time></trkpt><trkpt lat="38.429905" lon="16.0543433"><ele>160.0</ele><time>2026-04-07T07:29:00.788Z</time></trkpt><trkpt lat="38.4297483" lon="16.0545283"><ele>160.0</ele><time>2026-04-07T07:29:01.787Z</time></trkpt><trkpt lat="38.42959" lon="16.05471"><ele>160.0</ele><time>2026-04-07T07:29:02.788Z</time></trkpt><trkpt lat="38.4294367" lon="16.0548967"><ele>160.33333333333334</ele><time>2026-04-07T07:29:03.787Z</time></trkpt><trkpt lat="38.429275" lon="16.055085"><ele>160.66666666666666</ele><time>2026-04-07T07:29:04.788Z</time></trkpt><trkpt lat="38.429115" lon="16.0552683"><ele>161.0</ele><time>2026-04-07T07:29:05.788Z</time></trkpt><trkpt lat="38.428955" lon="16.055455"><ele>161.66666666666666</ele><time>2026-04-07T07:29:06.787Z</time></trkpt><trkpt lat="38.428785" lon="16.0556433"><ele>162.33333333333334</ele><time>2026-04-07T07:29:07.788Z</time></trkpt><trkpt lat="38.4286233" lon="16.0558317"><ele>163.0</ele><time>2026-04-07T07:29:08.787Z</time></trkpt><trkpt lat="38.4284617" lon="16.0560267"><ele>164.0</ele><time>2026-04-07T07:29:09.788Z</time></trkpt><trkpt lat="38.4282967" lon="16.0562117"><ele>165.0</ele><time>2026-04-07T07:29:10.787Z</time></trkpt><trkpt lat="38.4281333" lon="16.0564067"><ele>166.0</ele><time>2026-04-07T07:29:11.787Z</time></trkpt><trkpt lat="38.427965" lon="16.0565917"><ele>167.0</ele><time>2026-04-07T07:29:12.787Z</time></trkpt><trkpt lat="38.4277983" lon="16.0567817"><ele>168.0</ele><time>2026-04-07T07:29:13.787Z</time></trkpt><trkpt lat="38.42763" lon="16.0569717"><ele>169.0</ele><time>2026-04-07T07:29:14.787Z</time></trkpt><trkpt lat="38.427465" lon="16.0571633"><ele>169.0</ele><time>2026-04-07T07:29:15.787Z</time></trkpt><trkpt lat="38.4272967" lon="16.0573517"><ele>169.0</ele><time>2026-04-07T07:29:16.787Z</time></trkpt><trkpt lat="38.4271267" lon="16.0575417"><ele>171.33333333333334</ele><time>2026-04-07T07:29:17.788Z</time></trkpt><trkpt lat="38.42696" lon="16.0577317"><ele>173.66666666666666</ele><time>2026-04-07T07:29:18.787Z</time></trkpt><trkpt lat="38.4267967" lon="16.0579267"><ele>176.0</ele><time>2026-04-07T07:29:19.788Z</time></trkpt><trkpt lat="38.4266317" lon="16.0581183"><ele>176.33333333333331</ele><time>2026-04-07T07:29:20.787Z</time></trkpt><trkpt lat="38.426465" lon="16.058305"><ele>176.66666666666666</ele><time>2026-04-07T07:29:21.788Z</time></trkpt><trkpt lat="38.4263017" lon="16.0584933"><ele>177.0</ele><time>2026-04-07T07:29:22.787Z</time></trkpt><trkpt lat="38.4261333" lon="16.05869"><ele>179.0</ele><time>2026-04-07T07:29:23.788Z</time></trkpt><trkpt lat="38.4259667" lon="16.0588917"><ele>181.0</ele><time>2026-04-07T07:29:24.787Z</time></trkpt><trkpt lat="38.425805" lon="16.05909"><ele>181.5</ele><time>2026-04-07T07:29:25.787Z</time></trkpt><trkpt lat="38.42564" lon="16.0592817"><ele>182.0</ele><time>2026-04-07T07:29:26.787Z</time></trkpt><trkpt lat="38.4254733" lon="16.0594783"><ele>182.0</ele><time>2026-04-07T07:29:27.787Z</time></trkpt><trkpt lat="38.425305" lon="16.0596833"><ele>182.0</ele><time>2026-04-07T07:29:28.787Z</time></trkpt><trkpt lat="38.4251383" lon="16.0598783"><ele>181.66666666666666</ele><time>2026-04-07T07:29:29.788Z</time></trkpt><trkpt lat="38.42498" lon="16.0600667"><ele>181.33333333333334</ele><time>2026-04-07T07:29:30.787Z</time></trkpt><trkpt lat="38.424815" lon="16.0602483"><ele>181.0</ele><time>2026-04-07T07:29:31.788Z</time></trkpt><trkpt lat="38.4246467" lon="16.0604417"><ele>181.33333333333334</ele><time>2026-04-07T07:29:32.787Z</time></trkpt><trkpt lat="38.4244767" lon="16.060625"><ele>181.66666666666666</ele><time>2026-04-07T07:29:33.787Z</time></trkpt><trkpt lat="38.4243083" lon="16.060815"><ele>182.0</ele><time>2026-04-07T07:29:34.787Z</time></trkpt><trkpt lat="38.42414" lon="16.061"><ele>182.0</ele><time>2026-04-07T07:29:35.787Z</time></trkpt><trkpt lat="38.423965" lon="16.061195"><ele>182.0</ele><time>2026-04-07T07:29:36.787Z</time></trkpt><trkpt lat="38.42381" lon="16.0613867"><ele>182.0</ele><time>2026-04-07T07:29:37.787Z</time></trkpt><trkpt lat="38.4236467" lon="16.06159"><ele>185.0</ele><time>2026-04-07T07:29:38.787Z</time></trkpt><trkpt lat="38.4234833" lon="16.061785"><ele>188.0</ele><time>2026-04-07T07:29:39.787Z</time></trkpt><trkpt lat="38.4233083" lon="16.0619817"><ele>188.0</ele><time>2026-04-07T07:29:40.787Z</time></trkpt><trkpt lat="38.4231467" lon="16.06218"><ele>188.0</ele><time>2026-04-07T07:29:41.787Z</time></trkpt><trkpt lat="38.4229817" lon="16.0623717"><ele>188.0</ele><time>2026-04-07T07:29:42.787Z</time></trkpt><trkpt lat="38.4228133" lon="16.062565"><ele>189.0</ele><time>2026-04-07T07:29:43.788Z</time></trkpt><trkpt lat="38.4226433" lon="16.06276"><ele>190.0</ele><time>2026-04-07T07:29:44.788Z</time></trkpt><trkpt lat="38.4224783" lon="16.06295"><ele>190.0</ele><time>2026-04-07T07:29:45.788Z</time></trkpt><trkpt lat="38.4223067" lon="16.0631383"><ele>190.0</ele><time>2026-04-07T07:29:46.787Z</time></trkpt><trkpt lat="38.42214" lon="16.0633317"><ele>191.0</ele><time>2026-04-07T07:29:47.787Z</time></trkpt><trkpt lat="38.421975" lon="16.06353"><ele>192.0</ele><time>2026-04-07T07:29:48.787Z</time></trkpt><trkpt lat="38.421815" lon="16.063735"><ele>192.0</ele><time>2026-04-07T07:29:49.787Z</time></trkpt><trkpt lat="38.4216533" lon="16.063945"><ele>192.0</ele><time>2026-04-07T07:29:50.787Z</time></trkpt><trkpt lat="38.4214883" lon="16.0641567"><ele>193.5</ele><time>2026-04-07T07:29:51.787Z</time></trkpt><trkpt lat="38.4213283" lon="16.06436"><ele>195.0</ele><time>2026-04-07T07:29:52.787Z</time></trkpt><trkpt lat="38.42117" lon="16.064565"><ele>195.0</ele><time>2026-04-07T07:29:53.787Z</time></trkpt><trkpt lat="38.4210167" lon="16.0647733"><ele>195.0</ele><time>2026-04-07T07:29:54.788Z</time></trkpt><trkpt lat="38.4208667" lon="16.0649817"><ele>195.0</ele><time>2026-04-07T07:29:55.787Z</time></trkpt><trkpt lat="38.4207167" lon="16.0651867"><ele>195.0</ele><time>2026-04-07T07:29:56.788Z</time></trkpt><trkpt lat="38.4205683" lon="16.0653883"><ele>195.0</ele><time>2026-04-07T07:29:57.787Z</time></trkpt><trkpt lat="38.4204233" lon="16.0656"><ele>195.0</ele><time>2026-04-07T07:29:58.788Z</time></trkpt><trkpt lat="38.4202817" lon="16.0658067"><ele>195.66666666666669</ele><time>2026-04-07T07:29:59.787Z</time></trkpt><trkpt lat="38.4201417" lon="16.0660233"><ele>196.33333333333334</ele><time>2026-04-07T07:30:00.787Z</time></trkpt><trkpt lat="38.4199933" lon="16.066235"><ele>197.0</ele><time>2026-04-07T07:30:01.787Z</time></trkpt><trkpt lat="38.41987" lon="16.0664467"><ele>198.0</ele><time>2026-04-07T07:30:02.787Z</time></trkpt><trkpt lat="38.4197433" lon="16.0666583"><ele>199.0</ele><time>2026-04-07T07:30:03.787Z</time></trkpt><trkpt lat="38.4196067" lon="16.06688"><ele>200.0</ele><time>2026-04-07T07:30:04.787Z</time></trkpt><trkpt lat="38.419485" lon="16.0670883"><ele>200.33333333333334</ele><time>2026-04-07T07:30:05.787Z</time></trkpt><trkpt lat="38.4193583" lon="16.0673083"><ele>200.66666666666669</ele><time>2026-04-07T07:30:06.787Z</time></trkpt><trkpt lat="38.41922" lon="16.06753"><ele>201.0</ele><time>2026-04-07T07:30:07.787Z</time></trkpt><trkpt lat="38.4191017" lon="16.0677583"><ele>201.0</ele><time>2026-04-07T07:30:08.787Z</time></trkpt><trkpt lat="38.418985" lon="16.0679967"><ele>201.0</ele><time>2026-04-07T07:30:09.788Z</time></trkpt><trkpt lat="38.4188667" lon="16.0682367"><ele>201.0</ele><time>2026-04-07T07:30:10.788Z</time></trkpt><trkpt lat="38.41875" lon="16.0684833"><ele>201.0</ele><time>2026-04-07T07:30:11.787Z</time></trkpt><trkpt lat="38.41864" lon="16.0687333"><ele>201.0</ele><time>2026-04-07T07:30:12.787Z</time></trkpt><trkpt lat="38.4185317" lon="16.0689917"><ele>202.0</ele><time>2026-04-07T07:30:13.787Z</time></trkpt><trkpt lat="38.4184267" lon="16.06925"><ele>203.0</ele><time>2026-04-07T07:30:14.787Z</time></trkpt><trkpt lat="38.4183333" lon="16.06952"><ele>203.0</ele><time>2026-04-07T07:30:15.787Z</time></trkpt><trkpt lat="38.4182383" lon="16.069795"><ele>203.0</ele><time>2026-04-07T07:30:16.788Z</time></trkpt><trkpt lat="38.41814" lon="16.0700617"><ele>203.5</ele><time>2026-04-07T07:30:17.787Z</time></trkpt><trkpt lat="38.4180533" lon="16.0703383"><ele>204.0</ele><time>2026-04-07T07:30:18.788Z</time></trkpt><trkpt lat="38.4179667" lon="16.0706083"><ele>204.5</ele><time>2026-04-07T07:30:19.787Z</time></trkpt><trkpt lat="38.4178883" lon="16.0708817"><ele>205.0</ele><time>2026-04-07T07:30:20.788Z</time></trkpt><trkpt lat="38.4178167" lon="16.0711567"><ele>205.0</ele><time>2026-04-07T07:30:21.788Z</time></trkpt><trkpt lat="38.41775" lon="16.071435"><ele>205.0</ele><time>2026-04-07T07:30:22.787Z</time></trkpt><trkpt lat="38.417695" lon="16.0717283"><ele>207.5</ele><time>2026-04-07T07:30:23.787Z</time></trkpt><trkpt lat="38.4176333" lon="16.07201"><ele>210.0</ele><time>2026-04-07T07:30:24.787Z</time></trkpt><trkpt lat="38.4175817" lon="16.0723067"><ele>211.0</ele><time>2026-04-07T07:30:25.787Z</time></trkpt><trkpt lat="38.4175417" lon="16.0726"><ele>212.0</ele><time>2026-04-07T07:30:26.788Z</time></trkpt><trkpt lat="38.4175033" lon="16.07289"><ele>212.0</ele><time>2026-04-07T07:30:27.788Z</time></trkpt><trkpt lat="38.41747" lon="16.073185"><ele>212.0</ele><time>2026-04-07T07:30:28.787Z</time></trkpt><trkpt lat="38.41744" lon="16.073475"><ele>212.5</ele><time>2026-04-07T07:30:29.787Z</time></trkpt><trkpt lat="38.4174133" lon="16.0737683"><ele>213.0</ele><time>2026-04-07T07:30:30.787Z</time></trkpt><trkpt lat="38.4173983" lon="16.0740583"><ele>213.0</ele><time>2026-04-07T07:30:31.787Z</time></trkpt><trkpt lat="38.4173867" lon="16.0743467"><ele>213.0</ele><time>2026-04-07T07:30:32.788Z</time></trkpt><trkpt lat="38.4173733" lon="16.07464"><ele>213.0</ele><time>2026-04-07T07:30:33.787Z</time></trkpt><trkpt lat="38.417375" lon="16.07494"><ele>213.0</ele><time>2026-04-07T07:30:34.787Z</time></trkpt><trkpt lat="38.4173817" lon="16.0752367"><ele>213.0</ele><time>2026-04-07T07:30:35.787Z</time></trkpt><trkpt lat="38.4173833" lon="16.075535"><ele>213.0</ele><time>2026-04-07T07:30:36.787Z</time></trkpt><trkpt lat="38.417395" lon="16.0758433"><ele>215.0</ele><time>2026-04-07T07:30:37.787Z</time></trkpt><trkpt lat="38.4174233" lon="16.076135"><ele>217.0</ele><time>2026-04-07T07:30:38.787Z</time></trkpt><trkpt lat="38.41744" lon="16.0764367"><ele>218.0</ele><time>2026-04-07T07:30:39.787Z</time></trkpt><trkpt lat="38.4174733" lon="16.07672"><ele>219.0</ele><time>2026-04-07T07:30:40.787Z</time></trkpt><trkpt lat="38.4175017" lon="16.0770117"><ele>219.0</ele><time>2026-04-07T07:30:41.787Z</time></trkpt><trkpt lat="38.4175333" lon="16.0773083"><ele>219.0</ele><time>2026-04-07T07:30:42.788Z</time></trkpt><trkpt lat="38.4175533" lon="16.077605"><ele>220.0</ele><time>2026-04-07T07:30:43.787Z</time></trkpt><trkpt lat="38.41759" lon="16.07789"><ele>221.0</ele><time>2026-04-07T07:30:44.787Z</time></trkpt><trkpt lat="38.4176333" lon="16.0781833"><ele>221.0</ele><time>2026-04-07T07:30:45.787Z</time></trkpt><trkpt lat="38.4176733" lon="16.0784733"><ele>221.0</ele><time>2026-04-07T07:30:46.788Z</time></trkpt><trkpt lat="38.4177067" lon="16.0787733"><ele>221.0</ele><time>2026-04-07T07:30:47.788Z</time></trkpt><trkpt lat="38.417745" lon="16.0790683"><ele>221.0</ele><time>2026-04-07T07:30:48.788Z</time></trkpt><trkpt lat="38.41778" lon="16.079355"><ele>224.0</ele><time>2026-04-07T07:30:49.788Z</time></trkpt><trkpt lat="38.4178133" lon="16.079645"><ele>227.0</ele><time>2026-04-07T07:30:50.787Z</time></trkpt><trkpt lat="38.4178533" lon="16.0799283"><ele>228.5</ele><time>2026-04-07T07:30:51.787Z</time></trkpt><trkpt lat="38.41789" lon="16.0802233"><ele>230.0</ele><time>2026-04-07T07:30:52.787Z</time></trkpt><trkpt lat="38.417925" lon="16.080515"><ele>230.0</ele><time>2026-04-07T07:30:53.787Z</time></trkpt><trkpt lat="38.417965" lon="16.0808017"><ele>230.0</ele><time>2026-04-07T07:30:54.787Z</time></trkpt><trkpt lat="38.4179983" lon="16.081085"><ele>230.0</ele><time>2026-04-07T07:30:55.787Z</time></trkpt><trkpt lat="38.41803" lon="16.0813817"><ele>230.0</ele><time>2026-04-07T07:30:56.787Z</time></trkpt><trkpt lat="38.41807" lon="16.0816817"><ele>229.5</ele><time>2026-04-07T07:30:57.788Z</time></trkpt><trkpt lat="38.41811" lon="16.0819783"><ele>229.0</ele><time>2026-04-07T07:30:58.787Z</time></trkpt><trkpt lat="38.4181483" lon="16.0822717"><ele>229.5</ele><time>2026-04-07T07:30:59.787Z</time></trkpt><trkpt lat="38.418185" lon="16.082565"><ele>230.0</ele><time>2026-04-07T07:31:00.788Z</time></trkpt><trkpt lat="38.418215" lon="16.0828567"><ele>230.0</ele><time>2026-04-07T07:31:01.788Z</time></trkpt><trkpt lat="38.41826" lon="16.08316"><ele>230.0</ele><time>2026-04-07T07:31:02.788Z</time></trkpt><trkpt lat="38.4183067" lon="16.083465"><ele>231.5</ele><time>2026-04-07T07:31:03.787Z</time></trkpt><trkpt lat="38.418355" lon="16.0837633"><ele>233.0</ele><time>2026-04-07T07:31:04.788Z</time></trkpt><trkpt lat="38.4184083" lon="16.0840567"><ele>233.0</ele><time>2026-04-07T07:31:05.788Z</time></trkpt><trkpt lat="38.41847" lon="16.0843483"><ele>233.0</ele><time>2026-04-07T07:31:06.787Z</time></trkpt><trkpt lat="38.4185317" lon="16.0846383"><ele>233.0</ele><time>2026-04-07T07:31:07.787Z</time></trkpt><trkpt lat="38.4186017" lon="16.0849233"><ele>233.0</ele><time>2026-04-07T07:31:08.787Z</time></trkpt><trkpt lat="38.4186783" lon="16.0852133"><ele>232.5</ele><time>2026-04-07T07:31:09.787Z</time></trkpt><trkpt lat="38.4187683" lon="16.0855017"><ele>232.0</ele><time>2026-04-07T07:31:10.787Z</time></trkpt><trkpt lat="38.418865" lon="16.0857817"><ele>233.0</ele><time>2026-04-07T07:31:11.787Z</time></trkpt><trkpt lat="38.4189717" lon="16.0860533"><ele>234.0</ele><time>2026-04-07T07:31:12.787Z</time></trkpt><trkpt lat="38.4190883" lon="16.0863217"><ele>234.0</ele><time>2026-04-07T07:31:13.788Z</time></trkpt><trkpt lat="38.41921" lon="16.086585"><ele>234.0</ele><time>2026-04-07T07:31:14.788Z</time></trkpt><trkpt lat="38.4193367" lon="16.08684"><ele>235.5</ele><time>2026-04-07T07:31:15.788Z</time></trkpt><trkpt lat="38.4194683" lon="16.0870933"><ele>237.0</ele><time>2026-04-07T07:31:16.787Z</time></trkpt><trkpt lat="38.4196033" lon="16.0873433"><ele>237.5</ele><time>2026-04-07T07:31:17.787Z</time></trkpt><trkpt lat="38.41974" lon="16.08759"><ele>238.0</ele><time>2026-04-07T07:31:18.787Z</time></trkpt><trkpt lat="38.4198767" lon="16.0878367"><ele>238.0</ele><time>2026-04-07T07:31:19.787Z</time></trkpt><trkpt lat="38.4200183" lon="16.08809"><ele>238.0</ele><time>2026-04-07T07:31:20.787Z</time></trkpt><trkpt lat="38.42016" lon="16.0883417"><ele>238.0</ele><time>2026-04-07T07:31:21.787Z</time></trkpt><trkpt lat="38.42029" lon="16.0885883"><ele>238.0</ele><time>2026-04-07T07:31:22.787Z</time></trkpt><trkpt lat="38.4204167" lon="16.088845"><ele>236.0</ele><time>2026-04-07T07:31:23.787Z</time></trkpt><trkpt lat="38.4205383" lon="16.089105"><ele>234.0</ele><time>2026-04-07T07:31:24.788Z</time></trkpt><trkpt lat="38.420655" lon="16.08937"><ele>234.0</ele><time>2026-04-07T07:31:25.787Z</time></trkpt><trkpt lat="38.4207633" lon="16.089635"><ele>234.0</ele><time>2026-04-07T07:31:26.787Z</time></trkpt><trkpt lat="38.4208717" lon="16.0899017"><ele>234.5</ele><time>2026-04-07T07:31:27.788Z</time></trkpt><trkpt lat="38.4209717" lon="16.090175"><ele>235.0</ele><time>2026-04-07T07:31:28.787Z</time></trkpt><trkpt lat="38.4210583" lon="16.09045"><ele>235.0</ele><time>2026-04-07T07:31:29.787Z</time></trkpt><trkpt lat="38.421135" lon="16.0907383"><ele>235.0</ele><time>2026-04-07T07:31:30.787Z</time></trkpt><trkpt lat="38.4212133" lon="16.091015"><ele>237.0</ele><time>2026-04-07T07:31:31.788Z</time></trkpt><trkpt lat="38.4212867" lon="16.0912917"><ele>239.0</ele><time>2026-04-07T07:31:32.788Z</time></trkpt><trkpt lat="38.42135" lon="16.091575"><ele>239.0</ele><time>2026-04-07T07:31:33.787Z</time></trkpt><trkpt lat="38.42139" lon="16.0918667"><ele>239.0</ele><time>2026-04-07T07:31:34.787Z</time></trkpt><trkpt lat="38.4214483" lon="16.0921567"><ele>240.0</ele><time>2026-04-07T07:31:35.787Z</time></trkpt><trkpt lat="38.4215033" lon="16.0924517"><ele>241.0</ele><time>2026-04-07T07:31:36.787Z</time></trkpt><trkpt lat="38.421545" lon="16.0927467"><ele>241.0</ele><time>2026-04-07T07:31:37.787Z</time></trkpt><trkpt lat="38.4215783" lon="16.0930483"><ele>241.0</ele><time>2026-04-07T07:31:38.787Z</time></trkpt><trkpt lat="38.421605" lon="16.0933583"><ele>239.0</ele><time>2026-04-07T07:31:39.787Z</time></trkpt><trkpt lat="38.4216233" lon="16.09366"><ele>237.0</ele><time>2026-04-07T07:31:40.787Z</time></trkpt><trkpt lat="38.421635" lon="16.0939583"><ele>233.0</ele><time>2026-04-07T07:31:41.788Z</time></trkpt><trkpt lat="38.4216433" lon="16.094265"><ele>229.0</ele><time>2026-04-07T07:31:42.787Z</time></trkpt><trkpt lat="38.4216417" lon="16.094565"><ele>229.0</ele><time>2026-04-07T07:31:43.788Z</time></trkpt><trkpt lat="38.4216317" lon="16.09487"><ele>229.0</ele><time>2026-04-07T07:31:44.788Z</time></trkpt><trkpt lat="38.4216117" lon="16.09518"><ele>228.5</ele><time>2026-04-07T07:31:45.787Z</time></trkpt><trkpt lat="38.4215933" lon="16.0954833"><ele>228.0</ele><time>2026-04-07T07:31:46.787Z</time></trkpt><trkpt lat="38.4215667" lon="16.09578"><ele>230.0</ele><time>2026-04-07T07:31:47.787Z</time></trkpt><trkpt lat="38.4215267" lon="16.0960817"><ele>232.0</ele><time>2026-04-07T07:31:48.788Z</time></trkpt><trkpt lat="38.4214833" lon="16.0963733"><ele>232.5</ele><time>2026-04-07T07:31:49.787Z</time></trkpt><trkpt lat="38.421435" lon="16.0966633"><ele>233.0</ele><time>2026-04-07T07:31:50.787Z</time></trkpt><trkpt lat="38.4213817" lon="16.0969517"><ele>233.5</ele><time>2026-04-07T07:31:51.787Z</time></trkpt><trkpt lat="38.421315" lon="16.097255"><ele>234.0</ele><time>2026-04-07T07:31:52.787Z</time></trkpt><trkpt lat="38.421245" lon="16.0975467"><ele>235.0</ele><time>2026-04-07T07:31:53.787Z</time></trkpt><trkpt lat="38.4211667" lon="16.0978367"><ele>236.0</ele><time>2026-04-07T07:31:54.787Z</time></trkpt><trkpt lat="38.42108" lon="16.0981133"><ele>237.5</ele><time>2026-04-07T07:31:55.787Z</time></trkpt><trkpt lat="38.4209917" lon="16.0983867"><ele>239.0</ele><time>2026-04-07T07:31:56.787Z</time></trkpt><trkpt lat="38.4208983" lon="16.0986567"><ele>239.0</ele><time>2026-04-07T07:31:57.787Z</time></trkpt><trkpt lat="38.4207933" lon="16.098925"><ele>239.0</ele><time>2026-04-07T07:31:58.787Z</time></trkpt><trkpt lat="38.420685" lon="16.099185"><ele>239.0</ele><time>2026-04-07T07:31:59.788Z</time></trkpt><trkpt lat="38.4205667" lon="16.0994433"><ele>239.0</ele><time>2026-04-07T07:32:00.787Z</time></trkpt><trkpt lat="38.4204517" lon="16.0997017"><ele>239.66666666666669</ele><time>2026-04-07T07:32:01.787Z</time></trkpt><trkpt lat="38.4203283" lon="16.0999467"><ele>240.33333333333331</ele><time>2026-04-07T07:32:02.788Z</time></trkpt><trkpt lat="38.4202067" lon="16.1001817"><ele>241.0</ele><time>2026-04-07T07:32:03.787Z</time></trkpt><trkpt lat="38.4200817" lon="16.1004067"><ele>241.0</ele><time>2026-04-07T07:32:04.787Z</time></trkpt><trkpt lat="38.4199483" lon="16.100625"><ele>241.0</ele><time>2026-04-07T07:32:05.787Z</time></trkpt><trkpt lat="38.41981" lon="16.1008433"><ele>241.0</ele><time>2026-04-07T07:32:06.787Z</time></trkpt><trkpt lat="38.4196683" lon="16.1010683"><ele>243.5</ele><time>2026-04-07T07:32:07.787Z</time></trkpt><trkpt lat="38.4195183" lon="16.101285"><ele>246.0</ele><time>2026-04-07T07:32:08.787Z</time></trkpt><trkpt lat="38.41937" lon="16.1015"><ele>246.5</ele><time>2026-04-07T07:32:09.788Z</time></trkpt><trkpt lat="38.41922" lon="16.1017183"><ele>247.0</ele><time>2026-04-07T07:32:10.787Z</time></trkpt><trkpt lat="38.41907" lon="16.10194"><ele>247.0</ele><time>2026-04-07T07:32:11.787Z</time></trkpt><trkpt lat="38.4189133" lon="16.1021683"><ele>247.0</ele><time>2026-04-07T07:32:12.787Z</time></trkpt><trkpt lat="38.4187567" lon="16.1023967"><ele>250.0</ele><time>2026-04-07T07:32:13.787Z</time></trkpt><trkpt lat="38.4186" lon="16.1026267"><ele>253.0</ele><time>2026-04-07T07:32:14.787Z</time></trkpt><trkpt lat="38.4184483" lon="16.10286"><ele>253.0</ele><time>2026-04-07T07:32:15.787Z</time></trkpt><trkpt lat="38.4183067" lon="16.1030967"><ele>253.0</ele><time>2026-04-07T07:32:16.787Z</time></trkpt><trkpt lat="38.41817" lon="16.10333"><ele>253.5</ele><time>2026-04-07T07:32:17.787Z</time></trkpt><trkpt lat="38.418035" lon="16.1035683"><ele>254.0</ele><time>2026-04-07T07:32:18.787Z</time></trkpt><trkpt lat="38.4179067" lon="16.1038083"><ele>257.6666666666667</ele><time>2026-04-07T07:32:19.787Z</time></trkpt><trkpt lat="38.4177833" lon="16.1040433"><ele>261.3333333333333</ele><time>2026-04-07T07:32:20.788Z</time></trkpt><trkpt lat="38.41767" lon="16.1042733"><ele>265.0</ele><time>2026-04-07T07:32:21.788Z</time></trkpt><trkpt lat="38.4175717" lon="16.1044917"><ele>265.0</ele><time>2026-04-07T07:32:22.787Z</time></trkpt><trkpt lat="38.4174833" lon="16.10471"><ele>265.0</ele><time>2026-04-07T07:32:23.787Z</time></trkpt><trkpt lat="38.417405" lon="16.1049283"><ele>265.0</ele><time>2026-04-07T07:32:24.787Z</time></trkpt><trkpt lat="38.4173267" lon="16.1051367"><ele>264.66666666666663</ele><time>2026-04-07T07:32:25.787Z</time></trkpt><trkpt lat="38.41725" lon="16.1053383"><ele>264.3333333333333</ele><time>2026-04-07T07:32:26.787Z</time></trkpt><trkpt lat="38.41719" lon="16.1055333"><ele>264.0</ele><time>2026-04-07T07:32:27.788Z</time></trkpt><trkpt lat="38.4171283" lon="16.105735"><ele>270.6666666666667</ele><time>2026-04-07T07:32:28.788Z</time></trkpt><trkpt lat="38.4170733" lon="16.105925"><ele>277.33333333333337</ele><time>2026-04-07T07:32:29.787Z</time></trkpt><trkpt lat="38.4170217" lon="16.106105"><ele>284.0</ele><time>2026-04-07T07:32:30.787Z</time></trkpt><trkpt lat="38.4169783" lon="16.1062883"><ele>284.0</ele><time>2026-04-07T07:32:31.787Z</time></trkpt><trkpt lat="38.41693" lon="16.1064833"><ele>284.0</ele><time>2026-04-07T07:32:32.787Z</time></trkpt><trkpt lat="38.416885" lon="16.1066683"><ele>284.0</ele><time>2026-04-07T07:32:33.788Z</time></trkpt><trkpt lat="38.4168433" lon="16.1068617"><ele>283.6666666666667</ele><time>2026-04-07T07:32:34.787Z</time></trkpt><trkpt lat="38.4168067" lon="16.1070483"><ele>283.3333333333333</ele><time>2026-04-07T07:32:35.787Z</time></trkpt><trkpt lat="38.4167733" lon="16.10724"><ele>283.0</ele><time>2026-04-07T07:32:36.787Z</time></trkpt><trkpt lat="38.41674" lon="16.1074383"><ele>283.0</ele><time>2026-04-07T07:32:37.788Z</time></trkpt><trkpt lat="38.4166933" lon="16.1076617"><ele>283.0</ele><time>2026-04-07T07:32:38.787Z</time></trkpt><trkpt lat="38.416665" lon="16.1078983"><ele>283.0</ele><time>2026-04-07T07:32:39.787Z</time></trkpt><trkpt lat="38.4166517" lon="16.10814"><ele>282.66666666666663</ele><time>2026-04-07T07:32:40.787Z</time></trkpt><trkpt lat="38.41662" lon="16.1083983"><ele>282.3333333333333</ele><time>2026-04-07T07:32:41.787Z</time></trkpt><trkpt lat="38.4165983" lon="16.1086717"><ele>282.0</ele><time>2026-04-07T07:32:42.787Z</time></trkpt><trkpt lat="38.4165767" lon="16.1089617"><ele>281.3333333333333</ele><time>2026-04-07T07:32:43.787Z</time></trkpt><trkpt lat="38.4165617" lon="16.1092367"><ele>280.66666666666663</ele><time>2026-04-07T07:32:44.787Z</time></trkpt><trkpt lat="38.4165583" lon="16.1095083"><ele>280.0</ele><time>2026-04-07T07:32:45.788Z</time></trkpt><trkpt lat="38.4165617" lon="16.109775"><ele>282.3333333333333</ele><time>2026-04-07T07:32:46.787Z</time></trkpt><trkpt lat="38.4165733" lon="16.110045"><ele>284.6666666666667</ele><time>2026-04-07T07:32:47.788Z</time></trkpt><trkpt lat="38.4165783" lon="16.110335"><ele>287.0</ele><time>2026-04-07T07:32:48.787Z</time></trkpt><trkpt lat="38.416585" lon="16.1106283"><ele>288.5</ele><time>2026-04-07T07:32:49.788Z</time></trkpt><trkpt lat="38.4166133" lon="16.1109183"><ele>290.0</ele><time>2026-04-07T07:32:50.788Z</time></trkpt><trkpt lat="38.4166433" lon="16.1112217"><ele>290.0</ele><time>2026-04-07T07:32:51.787Z</time></trkpt><trkpt lat="38.4166867" lon="16.1115267"><ele>290.0</ele><time>2026-04-07T07:32:52.787Z</time></trkpt><trkpt lat="38.4167417" lon="16.1118267"><ele>292.0</ele><time>2026-04-07T07:32:53.787Z</time></trkpt><trkpt lat="38.4168033" lon="16.1121267"><ele>294.0</ele><time>2026-04-07T07:32:54.787Z</time></trkpt><trkpt lat="38.416865" lon="16.1124317"><ele>295.5</ele><time>2026-04-07T07:32:55.788Z</time></trkpt><trkpt lat="38.41694" lon="16.1127367"><ele>297.0</ele><time>2026-04-07T07:32:56.787Z</time></trkpt><trkpt lat="38.4170217" lon="16.1130433"><ele>300.0</ele><time>2026-04-07T07:32:57.787Z</time></trkpt><trkpt lat="38.4171017" lon="16.11335"><ele>303.0</ele><time>2026-04-07T07:32:58.787Z</time></trkpt><trkpt lat="38.4171783" lon="16.1136533"><ele>298.5</ele><time>2026-04-07T07:32:59.787Z</time></trkpt><trkpt lat="38.4172467" lon="16.11395"><ele>294.0</ele><time>2026-04-07T07:33:00.787Z</time></trkpt><trkpt lat="38.4173117" lon="16.11425"><ele>294.0</ele><time>2026-04-07T07:33:01.787Z</time></trkpt><trkpt lat="38.4173767" lon="16.114535"><ele>294.0</ele><time>2026-04-07T07:33:02.788Z</time></trkpt><trkpt lat="38.41743" lon="16.1148483"><ele>299.0</ele><time>2026-04-07T07:33:03.787Z</time></trkpt><trkpt lat="38.4174883" lon="16.1151483"><ele>304.0</ele><time>2026-04-07T07:33:04.788Z</time></trkpt><trkpt lat="38.4175383" lon="16.1154617"><ele>310.0</ele><time>2026-04-07T07:33:05.787Z</time></trkpt><trkpt lat="38.417585" lon="16.1157667"><ele>316.0</ele><time>2026-04-07T07:33:06.787Z</time></trkpt><trkpt lat="38.41762" lon="16.116065"><ele>316.0</ele><time>2026-04-07T07:33:07.787Z</time></trkpt><trkpt lat="38.4176617" lon="16.1163783"><ele>316.0</ele><time>2026-04-07T07:33:08.787Z</time></trkpt><trkpt lat="38.4176983" lon="16.116695"><ele>321.5</ele><time>2026-04-07T07:33:09.787Z</time></trkpt><trkpt lat="38.41772" lon="16.1170083"><ele>327.0</ele><time>2026-04-07T07:33:10.788Z</time></trkpt><trkpt lat="38.41773" lon="16.1173183"><ele>325.5</ele><time>2026-04-07T07:33:11.787Z</time></trkpt><trkpt lat="38.4177283" lon="16.1176333"><ele>324.0</ele><time>2026-04-07T07:33:12.787Z</time></trkpt><trkpt lat="38.4177333" lon="16.1179533"><ele>317.5</ele><time>2026-04-07T07:33:13.788Z</time></trkpt><trkpt lat="38.4177367" lon="16.118265"><ele>311.0</ele><time>2026-04-07T07:33:14.787Z</time></trkpt><trkpt lat="38.417725" lon="16.1185817"><ele>311.0</ele><time>2026-04-07T07:33:15.787Z</time></trkpt><trkpt lat="38.4177067" lon="16.1189033"><ele>311.0</ele><time>2026-04-07T07:33:16.787Z</time></trkpt><trkpt lat="38.4176933" lon="16.1192183"><ele>311.0</ele><time>2026-04-07T07:33:17.787Z</time></trkpt><trkpt lat="38.41767" lon="16.1195283"><ele>311.0</ele><time>2026-04-07T07:33:18.787Z</time></trkpt><trkpt lat="38.4176417" lon="16.1198317"><ele>311.5</ele><time>2026-04-07T07:33:19.787Z</time></trkpt><trkpt lat="38.4176067" lon="16.1201383"><ele>312.0</ele><time>2026-04-07T07:33:20.787Z</time></trkpt><trkpt lat="38.4175683" lon="16.1204433"><ele>314.5</ele><time>2026-04-07T07:33:21.787Z</time></trkpt><trkpt lat="38.4175333" lon="16.12074"><ele>317.0</ele><time>2026-04-07T07:33:22.787Z</time></trkpt><trkpt lat="38.417495" lon="16.1210333"><ele>317.0</ele><time>2026-04-07T07:33:23.787Z</time></trkpt><trkpt lat="38.4174617" lon="16.121335"><ele>317.0</ele><time>2026-04-07T07:33:24.787Z</time></trkpt><trkpt lat="38.4174267" lon="16.1216317"><ele>319.5</ele><time>2026-04-07T07:33:25.788Z</time></trkpt><trkpt lat="38.41738" lon="16.12193"><ele>322.0</ele><time>2026-04-07T07:33:26.787Z</time></trkpt><trkpt lat="38.4173417" lon="16.1222233"><ele>326.0</ele><time>2026-04-07T07:33:27.787Z</time></trkpt><trkpt lat="38.4172967" lon="16.1225183"><ele>330.0</ele><time>2026-04-07T07:33:28.787Z</time></trkpt><trkpt lat="38.4172517" lon="16.1228017"><ele>330.0</ele><time>2026-04-07T07:33:29.788Z</time></trkpt><trkpt lat="38.4171967" lon="16.12309"><ele>330.0</ele><time>2026-04-07T07:33:30.788Z</time></trkpt><trkpt lat="38.4171483" lon="16.1233733"><ele>327.5</ele><time>2026-04-07T07:33:31.787Z</time></trkpt><trkpt lat="38.417095" lon="16.1236517"><ele>325.0</ele><time>2026-04-07T07:33:32.787Z</time></trkpt><trkpt lat="38.4170333" lon="16.1239333"><ele>327.0</ele><time>2026-04-07T07:33:33.788Z</time></trkpt><trkpt lat="38.41696" lon="16.1242217"><ele>329.0</ele><time>2026-04-07T07:33:34.787Z</time></trkpt><trkpt lat="38.4168817" lon="16.1245017"><ele>329.0</ele><time>2026-04-07T07:33:35.787Z</time></trkpt><trkpt lat="38.4168" lon="16.1247767"><ele>329.0</ele><time>2026-04-07T07:33:36.788Z</time></trkpt><trkpt lat="38.4167183" lon="16.1250483"><ele>330.0</ele><time>2026-04-07T07:33:37.787Z</time></trkpt><trkpt lat="38.4166267" lon="16.1253233"><ele>331.0</ele><time>2026-04-07T07:33:38.788Z</time></trkpt><trkpt lat="38.41653" lon="16.1256017"><ele>331.5</ele><time>2026-04-07T07:33:39.788Z</time></trkpt><trkpt lat="38.41643" lon="16.1258767"><ele>332.0</ele><time>2026-04-07T07:33:40.787Z</time></trkpt><trkpt lat="38.4163233" lon="16.1261467"><ele>345.5</ele><time>2026-04-07T07:33:41.787Z</time></trkpt><trkpt lat="38.4162133" lon="16.1264117"><ele>359.0</ele><time>2026-04-07T07:33:42.787Z</time></trkpt><trkpt lat="38.4160983" lon="16.1266717"><ele>359.0</ele><time>2026-04-07T07:33:43.787Z</time></trkpt><trkpt lat="38.4159783" lon="16.126935"><ele>359.0</ele><time>2026-04-07T07:33:44.787Z</time></trkpt><trkpt lat="38.4158683" lon="16.1271933"><ele>352.0</ele><time>2026-04-07T07:33:45.787Z</time></trkpt><trkpt lat="38.4157583" lon="16.1274517"><ele>345.0</ele><time>2026-04-07T07:33:46.787Z</time></trkpt><trkpt lat="38.41565" lon="16.1277167"><ele>345.0</ele><time>2026-04-07T07:33:47.787Z</time></trkpt><trkpt lat="38.4155417" lon="16.1279767"><ele>345.0</ele><time>2026-04-07T07:33:48.787Z</time></trkpt><trkpt lat="38.415425" lon="16.1282417"><ele>352.5</ele><time>2026-04-07T07:33:49.787Z</time></trkpt><trkpt lat="38.4153067" lon="16.1285"><ele>360.0</ele><time>2026-04-07T07:33:50.787Z</time></trkpt><trkpt lat="38.4151917" lon="16.12876"><ele>360.0</ele><time>2026-04-07T07:33:51.787Z</time></trkpt><trkpt lat="38.4150783" lon="16.1290283"><ele>360.0</ele><time>2026-04-07T07:33:52.788Z</time></trkpt><trkpt lat="38.4149633" lon="16.1292933"><ele>357.5</ele><time>2026-04-07T07:33:53.787Z</time></trkpt><trkpt lat="38.41485" lon="16.1295517"><ele>355.0</ele><time>2026-04-07T07:33:54.787Z</time></trkpt><trkpt lat="38.4147383" lon="16.1298217"><ele>357.5</ele><time>2026-04-07T07:33:55.788Z</time></trkpt><trkpt lat="38.4146267" lon="16.1300867"><ele>360.0</ele><time>2026-04-07T07:33:56.788Z</time></trkpt><trkpt lat="38.4145083" lon="16.1303517"><ele>360.0</ele><time>2026-04-07T07:33:57.787Z</time></trkpt><trkpt lat="38.4144017" lon="16.13062"><ele>360.0</ele><time>2026-04-07T07:33:58.788Z</time></trkpt><trkpt lat="38.414295" lon="16.13088"><ele>358.5</ele><time>2026-04-07T07:33:59.787Z</time></trkpt><trkpt lat="38.4141967" lon="16.1311483"><ele>357.0</ele><time>2026-04-07T07:34:00.788Z</time></trkpt><trkpt lat="38.414105" lon="16.131425"><ele>360.5</ele><time>2026-04-07T07:34:01.788Z</time></trkpt><trkpt lat="38.41402" lon="16.1317"><ele>364.0</ele><time>2026-04-07T07:34:02.787Z</time></trkpt><trkpt lat="38.4139417" lon="16.1319783"><ele>364.0</ele><time>2026-04-07T07:34:03.787Z</time></trkpt><trkpt lat="38.4138767" lon="16.1322583"><ele>364.0</ele><time>2026-04-07T07:34:04.787Z</time></trkpt><trkpt lat="38.4138133" lon="16.1325417"><ele>366.5</ele><time>2026-04-07T07:34:05.787Z</time></trkpt><trkpt lat="38.4137583" lon="16.132825"><ele>369.0</ele><time>2026-04-07T07:34:06.787Z</time></trkpt><trkpt lat="38.4137083" lon="16.1331167"><ele>372.0</ele><time>2026-04-07T07:34:07.787Z</time></trkpt><trkpt lat="38.4136717" lon="16.1334117"><ele>375.0</ele><time>2026-04-07T07:34:08.787Z</time></trkpt><trkpt lat="38.4136467" lon="16.1337017"><ele>375.0</ele><time>2026-04-07T07:34:09.787Z</time></trkpt><trkpt lat="38.4136217" lon="16.134"><ele>375.0</ele><time>2026-04-07T07:34:10.788Z</time></trkpt><trkpt lat="38.4135867" lon="16.1342983"><ele>376.5</ele><time>2026-04-07T07:34:11.787Z</time></trkpt><trkpt lat="38.4135683" lon="16.1345933"><ele>378.0</ele><time>2026-04-07T07:34:12.787Z</time></trkpt><trkpt lat="38.4135433" lon="16.13489"><ele>383.5</ele><time>2026-04-07T07:34:13.787Z</time></trkpt><trkpt lat="38.4135217" lon="16.1351817"><ele>389.0</ele><time>2026-04-07T07:34:14.788Z</time></trkpt><trkpt lat="38.4135017" lon="16.1354767"><ele>394.0</ele><time>2026-04-07T07:34:15.787Z</time></trkpt><trkpt lat="38.4134733" lon="16.1357767"><ele>399.0</ele><time>2026-04-07T07:34:16.788Z</time></trkpt><trkpt lat="38.4134367" lon="16.1360717"><ele>399.0</ele><time>2026-04-07T07:34:17.787Z</time></trkpt><trkpt lat="38.4133917" lon="16.136365"><ele>399.0</ele><time>2026-04-07T07:34:18.787Z</time></trkpt><trkpt lat="38.4133417" lon="16.1366567"><ele>401.0</ele><time>2026-04-07T07:34:19.787Z</time></trkpt><trkpt lat="38.413275" lon="16.136935"><ele>403.0</ele><time>2026-04-07T07:34:20.787Z</time></trkpt><trkpt lat="38.4132" lon="16.1372217"><ele>398.0</ele><time>2026-04-07T07:34:21.787Z</time></trkpt><trkpt lat="38.41311" lon="16.13751"><ele>393.0</ele><time>2026-04-07T07:34:22.787Z</time></trkpt><trkpt lat="38.4130183" lon="16.1378067"><ele>401.5</ele><time>2026-04-07T07:34:23.788Z</time></trkpt><trkpt lat="38.4129217" lon="16.1380883"><ele>410.0</ele><time>2026-04-07T07:34:24.788Z</time></trkpt><trkpt lat="38.41282" lon="16.1383567"><ele>410.0</ele><time>2026-04-07T07:34:25.787Z</time></trkpt><trkpt lat="38.4127067" lon="16.1386267"><ele>410.0</ele><time>2026-04-07T07:34:26.787Z</time></trkpt><trkpt lat="38.4125883" lon="16.138895"><ele>409.0</ele><time>2026-04-07T07:34:27.787Z</time></trkpt><trkpt lat="38.4124617" lon="16.139155"><ele>408.0</ele><time>2026-04-07T07:34:28.788Z</time></trkpt><trkpt lat="38.412325" lon="16.1394133"><ele>408.0</ele><time>2026-04-07T07:34:29.788Z</time></trkpt><trkpt lat="38.4121833" lon="16.1396717"><ele>408.0</ele><time>2026-04-07T07:34:30.787Z</time></trkpt><trkpt lat="38.4120383" lon="16.13993"><ele>416.0</ele><time>2026-04-07T07:34:31.787Z</time></trkpt><trkpt lat="38.4118933" lon="16.14018"><ele>424.0</ele><time>2026-04-07T07:34:32.787Z</time></trkpt><trkpt lat="38.4117433" lon="16.14043"><ele>424.0</ele><time>2026-04-07T07:34:33.787Z</time></trkpt><trkpt lat="38.4115917" lon="16.1406817"><ele>424.0</ele><time>2026-04-07T07:34:34.788Z</time></trkpt><trkpt lat="38.4114467" lon="16.140925"><ele>432.0</ele><time>2026-04-07T07:34:35.787Z</time></trkpt><trkpt lat="38.411315" lon="16.1411817"><ele>440.0</ele><time>2026-04-07T07:34:36.788Z</time></trkpt><trkpt lat="38.4111767" lon="16.1414217"><ele>429.5</ele><time>2026-04-07T07:34:37.788Z</time></trkpt><trkpt lat="38.41104" lon="16.1416733"><ele>419.0</ele><time>2026-04-07T07:34:38.787Z</time></trkpt><trkpt lat="38.4109017" lon="16.14193"><ele>419.0</ele><time>2026-04-07T07:34:39.787Z</time></trkpt><trkpt lat="38.4107517" lon="16.1421667"><ele>419.0</ele><time>2026-04-07T07:34:40.787Z</time></trkpt><trkpt lat="38.4106183" lon="16.1424217"><ele>419.5</ele><time>2026-04-07T07:34:41.788Z</time></trkpt><trkpt lat="38.4104917" lon="16.1426667"><ele>420.0</ele><time>2026-04-07T07:34:42.788Z</time></trkpt><trkpt lat="38.410365" lon="16.1429167"><ele>421.0</ele><time>2026-04-07T07:34:43.787Z</time></trkpt><trkpt lat="38.4102317" lon="16.1431717"><ele>422.0</ele><time>2026-04-07T07:34:44.787Z</time></trkpt><trkpt lat="38.4101" lon="16.14342"><ele>424.5</ele><time>2026-04-07T07:34:45.787Z</time></trkpt><trkpt lat="38.4099583" lon="16.1436817"><ele>427.0</ele><time>2026-04-07T07:34:46.787Z</time></trkpt><trkpt lat="38.4098233" lon="16.1439267"><ele>429.5</ele><time>2026-04-07T07:34:47.787Z</time></trkpt><trkpt lat="38.4096883" lon="16.1441817"><ele>432.0</ele><time>2026-04-07T07:34:48.788Z</time></trkpt><trkpt lat="38.4095617" lon="16.1444333"><ele>451.5</ele><time>2026-04-07T07:34:49.787Z</time></trkpt><trkpt lat="38.409435" lon="16.1446883"><ele>471.0</ele><time>2026-04-07T07:34:50.787Z</time></trkpt><trkpt lat="38.4092983" lon="16.1449367"><ele>475.66666666666663</ele><time>2026-04-07T07:34:51.788Z</time></trkpt><trkpt lat="38.4091433" lon="16.145125"><ele>480.3333333333333</ele><time>2026-04-07T07:34:52.787Z</time></trkpt><trkpt lat="38.4090067" lon="16.145355"><ele>485.0</ele><time>2026-04-07T07:34:53.788Z</time></trkpt><trkpt lat="38.4088667" lon="16.1455767"><ele>491.5</ele><time>2026-04-07T07:34:54.788Z</time></trkpt><trkpt lat="38.4087333" lon="16.1458017"><ele>498.0</ele><time>2026-04-07T07:34:55.788Z</time></trkpt><trkpt lat="38.4085567" lon="16.1460383"><ele>498.0</ele><time>2026-04-07T07:34:56.788Z</time></trkpt><trkpt lat="38.4084117" lon="16.146305"><ele>498.0</ele><time>2026-04-07T07:34:57.787Z</time></trkpt><trkpt lat="38.4082383" lon="16.14656"><ele>488.5</ele><time>2026-04-07T07:34:58.787Z</time></trkpt><trkpt lat="38.4080917" lon="16.1468383"><ele>479.0</ele><time>2026-04-07T07:34:59.787Z</time></trkpt><trkpt lat="38.4079933" lon="16.14715"><ele>470.5</ele><time>2026-04-07T07:35:00.787Z</time></trkpt><trkpt lat="38.4078767" lon="16.1474267"><ele>462.0</ele><time>2026-04-07T07:35:01.787Z</time></trkpt><trkpt lat="38.4077667" lon="16.14771"><ele>462.0</ele><time>2026-04-07T07:35:02.787Z</time></trkpt><trkpt lat="38.4076483" lon="16.1479783"><ele>462.0</ele><time>2026-04-07T07:35:03.787Z</time></trkpt><trkpt lat="38.40751" lon="16.1482383"><ele>463.5</ele><time>2026-04-07T07:35:04.787Z</time></trkpt><trkpt lat="38.4073733" lon="16.14849"><ele>465.0</ele><time>2026-04-07T07:35:05.788Z</time></trkpt><trkpt lat="38.4072367" lon="16.14874"><ele>464.5</ele><time>2026-04-07T07:35:06.787Z</time></trkpt><trkpt lat="38.4070983" lon="16.1489933"><ele>464.0</ele><time>2026-04-07T07:35:07.787Z</time></trkpt><trkpt lat="38.4069783" lon="16.1492417"><ele>464.0</ele><time>2026-04-07T07:35:08.787Z</time></trkpt><trkpt lat="38.4068483" lon="16.1494917"><ele>464.0</ele><time>2026-04-07T07:35:09.788Z</time></trkpt><trkpt lat="38.40671" lon="16.1497383"><ele>469.0</ele><time>2026-04-07T07:35:10.787Z</time></trkpt><trkpt lat="38.406575" lon="16.14999"><ele>474.0</ele><time>2026-04-07T07:35:11.787Z</time></trkpt><trkpt lat="38.4064433" lon="16.15024"><ele>474.5</ele><time>2026-04-07T07:35:12.787Z</time></trkpt><trkpt lat="38.4063167" lon="16.15049"><ele>475.0</ele><time>2026-04-07T07:35:13.787Z</time></trkpt><trkpt lat="38.4061933" lon="16.15074"><ele>475.0</ele><time>2026-04-07T07:35:14.787Z</time></trkpt><trkpt lat="38.4060633" lon="16.1510033"><ele>475.0</ele><time>2026-04-07T07:35:15.787Z</time></trkpt><trkpt lat="38.4059367" lon="16.151265"><ele>475.0</ele><time>2026-04-07T07:35:16.788Z</time></trkpt><trkpt lat="38.4058133" lon="16.1515133"><ele>475.0</ele><time>2026-04-07T07:35:17.787Z</time></trkpt><trkpt lat="38.4056867" lon="16.1517583"><ele>476.0</ele><time>2026-04-07T07:35:18.787Z</time></trkpt><trkpt lat="38.4055717" lon="16.15202"><ele>477.0</ele><time>2026-04-07T07:35:19.787Z</time></trkpt><trkpt lat="38.4054617" lon="16.152285"><ele>479.0</ele><time>2026-04-07T07:35:20.788Z</time></trkpt><trkpt lat="38.4053517" lon="16.1525533"><ele>481.0</ele><time>2026-04-07T07:35:21.787Z</time></trkpt><trkpt lat="38.405235" lon="16.1528067"><ele>481.0</ele><time>2026-04-07T07:35:22.787Z</time></trkpt><trkpt lat="38.40513" lon="16.1530717"><ele>481.0</ele><time>2026-04-07T07:35:23.787Z</time></trkpt><trkpt lat="38.4050283" lon="16.153355"><ele>484.0</ele><time>2026-04-07T07:35:24.788Z</time></trkpt><trkpt lat="38.4049417" lon="16.153635"><ele>487.0</ele><time>2026-04-07T07:35:25.787Z</time></trkpt><trkpt lat="38.404845" lon="16.1538983"><ele>486.5</ele><time>2026-04-07T07:35:26.787Z</time></trkpt><trkpt lat="38.4047517" lon="16.154175"><ele>486.0</ele><time>2026-04-07T07:35:27.787Z</time></trkpt><trkpt lat="38.40466" lon="16.1544567"><ele>493.5</ele><time>2026-04-07T07:35:28.787Z</time></trkpt><trkpt lat="38.4045717" lon="16.1547383"><ele>501.0</ele><time>2026-04-07T07:35:29.788Z</time></trkpt><trkpt lat="38.4044917" lon="16.15503"><ele>501.0</ele><time>2026-04-07T07:35:30.787Z</time></trkpt><trkpt lat="38.4044033" lon="16.155315"><ele>501.0</ele><time>2026-04-07T07:35:31.788Z</time></trkpt><trkpt lat="38.4043133" lon="16.155605"><ele>502.0</ele><time>2026-04-07T07:35:32.787Z</time></trkpt><trkpt lat="38.4042267" lon="16.1559033"><ele>503.0</ele><time>2026-04-07T07:35:33.787Z</time></trkpt><trkpt lat="38.40414" lon="16.156195"><ele>503.0</ele><time>2026-04-07T07:35:34.788Z</time></trkpt><trkpt lat="38.4040567" lon="16.15648"><ele>503.0</ele><time>2026-04-07T07:35:35.787Z</time></trkpt><trkpt lat="38.40397" lon="16.1567683"><ele>503.5</ele><time>2026-04-07T07:35:36.788Z</time></trkpt><trkpt lat="38.4038917" lon="16.157055"><ele>504.0</ele><time>2026-04-07T07:35:37.787Z</time></trkpt><trkpt lat="38.4038133" lon="16.1573517"><ele>514.0</ele><time>2026-04-07T07:35:38.787Z</time></trkpt><trkpt lat="38.40373" lon="16.157635"><ele>524.0</ele><time>2026-04-07T07:35:39.787Z</time></trkpt><trkpt lat="38.4036467" lon="16.1579283"><ele>522.5</ele><time>2026-04-07T07:35:40.787Z</time></trkpt><trkpt lat="38.40356" lon="16.1582117"><ele>521.0</ele><time>2026-04-07T07:35:41.787Z</time></trkpt><trkpt lat="38.4034833" lon="16.1584983"><ele>521.0</ele><time>2026-04-07T07:35:42.787Z</time></trkpt><trkpt lat="38.403405" lon="16.158795"><ele>521.0</ele><time>2026-04-07T07:35:43.787Z</time></trkpt><trkpt lat="38.4033233" lon="16.159095"><ele>523.5</ele><time>2026-04-07T07:35:44.788Z</time></trkpt><trkpt lat="38.40323" lon="16.1593867"><ele>526.0</ele><time>2026-04-07T07:35:45.788Z</time></trkpt><trkpt lat="38.403135" lon="16.1596633"><ele>528.3333333333334</ele><time>2026-04-07T07:35:46.787Z</time></trkpt><trkpt lat="38.4030483" lon="16.1599017"><ele>530.6666666666666</ele><time>2026-04-07T07:35:47.788Z</time></trkpt><trkpt lat="38.4029683" lon="16.16009"><ele>533.0</ele><time>2026-04-07T07:35:48.788Z</time></trkpt><trkpt lat="38.4029067" lon="16.16022"><ele>536.6666666666666</ele><time>2026-04-07T07:35:49.787Z</time></trkpt><trkpt lat="38.40285" lon="16.1603017"><ele>540.3333333333333</ele><time>2026-04-07T07:35:50.787Z</time></trkpt><trkpt lat="38.4027917" lon="16.160345"><ele>544.0</ele><time>2026-04-07T07:35:51.787Z</time></trkpt><trkpt lat="38.4027283" lon="16.16036"><ele>547.6666666666666</ele><time>2026-04-07T07:35:52.787Z</time></trkpt><trkpt lat="38.4026583" lon="16.1603383"><ele>551.3333333333334</ele><time>2026-04-07T07:35:53.788Z</time></trkpt><trkpt lat="38.402585" lon="16.1603"><ele>555.0</ele><time>2026-04-07T07:35:54.787Z</time></trkpt><trkpt lat="38.402505" lon="16.1602617"><ele>555.0</ele><time>2026-04-07T07:35:55.787Z</time></trkpt><trkpt lat="38.4024133" lon="16.1602383"><ele>555.0</ele><time>2026-04-07T07:35:56.788Z</time></trkpt><trkpt lat="38.4023" lon="16.1602333"><ele>555.0</ele><time>2026-04-07T07:35:57.788Z</time></trkpt><trkpt lat="38.4021983" lon="16.1602467"><ele>555.0</ele><time>2026-04-07T07:35:58.788Z</time></trkpt><trkpt lat="38.4021067" lon="16.16035"><ele>555.0</ele><time>2026-04-07T07:35:59.787Z</time></trkpt><trkpt lat="38.4020167" lon="16.1605233"><ele>557.5</ele><time>2026-04-07T07:36:00.788Z</time></trkpt><trkpt lat="38.4019717" lon="16.1607017"><ele>560.0</ele><time>2026-04-07T07:36:01.787Z</time></trkpt><trkpt lat="38.4019533" lon="16.1608933"><ele>562.5</ele><time>2026-04-07T07:36:02.787Z</time></trkpt><trkpt lat="38.401965" lon="16.1610833"><ele>565.0</ele><time>2026-04-07T07:36:03.787Z</time></trkpt><trkpt lat="38.401995" lon="16.1612617"><ele>565.0</ele><time>2026-04-07T07:36:04.787Z</time></trkpt><trkpt lat="38.4020517" lon="16.1614217"><ele>565.0</ele><time>2026-04-07T07:36:05.787Z</time></trkpt><trkpt lat="38.4021167" lon="16.1615817"><ele>565.0</ele><time>2026-04-07T07:36:06.787Z</time></trkpt><trkpt lat="38.4022117" lon="16.1617133"><ele>565.0</ele><time>2026-04-07T07:36:07.787Z</time></trkpt><trkpt lat="38.4023083" lon="16.1618317"><ele>557.0</ele><time>2026-04-07T07:36:08.787Z</time></trkpt><trkpt lat="38.4024117" lon="16.16195"><ele>549.0</ele><time>2026-04-07T07:36:09.788Z</time></trkpt><trkpt lat="38.4025017" lon="16.1620583"><ele>541.0</ele><time>2026-04-07T07:36:10.787Z</time></trkpt><trkpt lat="38.4025767" lon="16.1621533"><ele>533.0</ele><time>2026-04-07T07:36:11.788Z</time></trkpt><trkpt lat="38.4026333" lon="16.1622533"><ele>536.4</ele><time>2026-04-07T07:36:12.787Z</time></trkpt><trkpt lat="38.4026817" lon="16.1623917"><ele>539.8</ele><time>2026-04-07T07:36:14.787Z</time></trkpt><trkpt lat="38.40263" lon="16.1624983"><ele>543.2</ele><time>2026-04-07T07:36:16.787Z</time></trkpt><trkpt lat="38.4025633" lon="16.1625583"><ele>546.6</ele><time>2026-04-07T07:36:17.787Z</time></trkpt><trkpt lat="38.4024817" lon="16.162635"><ele>550.0</ele><time>2026-04-07T07:36:18.787Z</time></trkpt><trkpt lat="38.4023883" lon="16.1627183"><ele>550.0</ele><time>2026-04-07T07:36:19.787Z</time></trkpt><trkpt lat="38.4023133" lon="16.1628217"><ele>550.0</ele><time>2026-04-07T07:36:20.787Z</time></trkpt><trkpt lat="38.4022383" lon="16.1629183"><ele>550.0</ele><time>2026-04-07T07:36:21.788Z</time></trkpt><trkpt lat="38.4021667" lon="16.163015"><ele>550.0</ele><time>2026-04-07T07:36:22.787Z</time></trkpt><trkpt lat="38.4021067" lon="16.1631183"><ele>550.0</ele><time>2026-04-07T07:36:23.788Z</time></trkpt><trkpt lat="38.4020567" lon="16.163225"><ele>551.3333333333334</ele><time>2026-04-07T07:36:24.787Z</time></trkpt><trkpt lat="38.4020033" lon="16.163325"><ele>552.6666666666667</ele><time>2026-04-07T07:36:25.788Z</time></trkpt><trkpt lat="38.4019483" lon="16.1634183"><ele>554.0</ele><time>2026-04-07T07:36:26.787Z</time></trkpt><trkpt lat="38.401895" lon="16.1635083"><ele>555.3333333333334</ele><time>2026-04-07T07:36:27.787Z</time></trkpt><trkpt lat="38.4018483" lon="16.1635883"><ele>556.6666666666666</ele><time>2026-04-07T07:36:28.787Z</time></trkpt><trkpt lat="38.4018017" lon="16.1636733"><ele>558.0</ele><time>2026-04-07T07:36:29.787Z</time></trkpt><trkpt lat="38.4017517" lon="16.1637633"><ele>558.0</ele><time>2026-04-07T07:36:30.787Z</time></trkpt><trkpt lat="38.4017" lon="16.1638467"><ele>558.0</ele><time>2026-04-07T07:36:31.787Z</time></trkpt><trkpt lat="38.40176" lon="16.1640367"><ele>558.0</ele><time>2026-04-07T07:36:32.787Z</time></trkpt><trkpt lat="38.4017267" lon="16.1643267"><ele>560.75</ele><time>2026-04-07T07:36:33.787Z</time></trkpt><trkpt lat="38.4019083" lon="16.1643183"><ele>563.5</ele><time>2026-04-07T07:36:34.787Z</time></trkpt><trkpt lat="38.4018533" lon="16.1644317"><ele>566.25</ele><time>2026-04-07T07:36:35.787Z</time></trkpt><trkpt lat="38.4018133" lon="16.1645533"><ele>569.0</ele><time>2026-04-07T07:36:36.788Z</time></trkpt><trkpt lat="38.4017883" lon="16.1646817"><ele>569.0</ele><time>2026-04-07T07:36:37.788Z</time></trkpt><trkpt lat="38.4017567" lon="16.164805"><ele>569.0</ele><time>2026-04-07T07:36:38.787Z</time></trkpt><trkpt lat="38.4017167" lon="16.1649267"><ele>569.0</ele><time>2026-04-07T07:36:39.787Z</time></trkpt><trkpt lat="38.4016767" lon="16.1650567"><ele>569.0</ele><time>2026-04-07T07:36:40.788Z</time></trkpt><trkpt lat="38.40162" lon="16.165185"><ele>569.0</ele><time>2026-04-07T07:36:41.788Z</time></trkpt><trkpt lat="38.4015633" lon="16.1653217"><ele>571.25</ele><time>2026-04-07T07:36:42.788Z</time></trkpt><trkpt lat="38.401505" lon="16.1654517"><ele>573.5</ele><time>2026-04-07T07:36:43.788Z</time></trkpt><trkpt lat="38.40144" lon="16.1656"><ele>575.75</ele><time>2026-04-07T07:36:44.787Z</time></trkpt><trkpt lat="38.401365" lon="16.16574"><ele>578.0</ele><time>2026-04-07T07:36:45.787Z</time></trkpt><trkpt lat="38.4012767" lon="16.165885"><ele>578.0</ele><time>2026-04-07T07:36:46.787Z</time></trkpt><trkpt lat="38.4011717" lon="16.1660467"><ele>578.0</ele><time>2026-04-07T07:36:47.787Z</time></trkpt><trkpt lat="38.4010583" lon="16.1662083"><ele>578.0</ele><time>2026-04-07T07:36:48.787Z</time></trkpt><trkpt lat="38.40094" lon="16.1663533"><ele>578.0</ele><time>2026-04-07T07:36:49.787Z</time></trkpt><trkpt lat="38.400825" lon="16.166485"><ele>578.0</ele><time>2026-04-07T07:36:50.788Z</time></trkpt><trkpt lat="38.40071" lon="16.166615"><ele>578.0</ele><time>2026-04-07T07:36:51.787Z</time></trkpt><trkpt lat="38.40059" lon="16.1667533"><ele>580.6666666666666</ele><time>2026-04-07T07:36:52.788Z</time></trkpt><trkpt lat="38.400475" lon="16.1668967"><ele>583.3333333333334</ele><time>2026-04-07T07:36:53.787Z</time></trkpt><trkpt lat="38.4003433" lon="16.16702"><ele>586.0</ele><time>2026-04-07T07:36:54.788Z</time></trkpt><trkpt lat="38.400205" lon="16.16712"><ele>586.0</ele><time>2026-04-07T07:36:55.787Z</time></trkpt><trkpt lat="38.4000617" lon="16.16721"><ele>586.0</ele><time>2026-04-07T07:36:56.787Z</time></trkpt><trkpt lat="38.3999183" lon="16.16731"><ele>586.0</ele><time>2026-04-07T07:36:57.787Z</time></trkpt><trkpt lat="38.3997683" lon="16.1673917"><ele>593.3333333333334</ele><time>2026-04-07T07:36:58.788Z</time></trkpt><trkpt lat="38.3996117" lon="16.167465"><ele>600.6666666666666</ele><time>2026-04-07T07:36:59.787Z</time></trkpt><trkpt lat="38.3994567" lon="16.1675433"><ele>608.0</ele><time>2026-04-07T07:37:00.788Z</time></trkpt><trkpt lat="38.3993083" lon="16.167625"><ele>608.0</ele><time>2026-04-07T07:37:01.788Z</time></trkpt><trkpt lat="38.3991617" lon="16.16773"><ele>608.0</ele><time>2026-04-07T07:37:02.787Z</time></trkpt><trkpt lat="38.3990317" lon="16.1678183"><ele>608.0</ele><time>2026-04-07T07:37:03.787Z</time></trkpt><trkpt lat="38.3989117" lon="16.1679267"><ele>609.3333333333333</ele><time>2026-04-07T07:37:04.787Z</time></trkpt><trkpt lat="38.39879" lon="16.1680567"><ele>610.6666666666666</ele><time>2026-04-07T07:37:05.787Z</time></trkpt><trkpt lat="38.398685" lon="16.1681867"><ele>612.0</ele><time>2026-04-07T07:37:06.787Z</time></trkpt><trkpt lat="38.3985867" lon="16.1683367"><ele>612.0</ele><time>2026-04-07T07:37:07.787Z</time></trkpt><trkpt lat="38.3984967" lon="16.1684933"><ele>612.0</ele><time>2026-04-07T07:37:08.787Z</time></trkpt><trkpt lat="38.3984133" lon="16.1686517"><ele>612.0</ele><time>2026-04-07T07:37:09.788Z</time></trkpt><trkpt lat="38.3983333" lon="16.168815"><ele>612.0</ele><time>2026-04-07T07:37:10.787Z</time></trkpt><trkpt lat="38.3982417" lon="16.1689767"><ele>612.0</ele><time>2026-04-07T07:37:11.787Z</time></trkpt><trkpt lat="38.3981367" lon="16.1691333"><ele>612.0</ele><time>2026-04-07T07:37:12.788Z</time></trkpt><trkpt lat="38.3980283" lon="16.1692783"><ele>618.3333333333334</ele><time>2026-04-07T07:37:13.787Z</time></trkpt><trkpt lat="38.397915" lon="16.1694267"><ele>624.6666666666667</ele><time>2026-04-07T07:37:14.788Z</time></trkpt><trkpt lat="38.3977983" lon="16.1695583"><ele>631.0</ele><time>2026-04-07T07:37:15.788Z</time></trkpt><trkpt lat="38.39768" lon="16.1696883"><ele>631.0</ele><time>2026-04-07T07:37:16.788Z</time></trkpt><trkpt lat="38.3975633" lon="16.1698167"><ele>631.0</ele><time>2026-04-07T07:37:17.787Z</time></trkpt><trkpt lat="38.3974433" lon="16.169945"><ele>631.0</ele><time>2026-04-07T07:37:18.787Z</time></trkpt><trkpt lat="38.3973317" lon="16.1700783"><ele>632.0</ele><time>2026-04-07T07:37:19.787Z</time></trkpt><trkpt lat="38.3972183" lon="16.1702133"><ele>633.0</ele><time>2026-04-07T07:37:20.788Z</time></trkpt><trkpt lat="38.3970967" lon="16.1703517"><ele>634.0</ele><time>2026-04-07T07:37:21.788Z</time></trkpt><trkpt lat="38.39697" lon="16.1704767"><ele>635.3333333333334</ele><time>2026-04-07T07:37:22.787Z</time></trkpt><trkpt lat="38.3968433" lon="16.1705817"><ele>636.6666666666666</ele><time>2026-04-07T07:37:23.787Z</time></trkpt><trkpt lat="38.3967083" lon="16.17067"><ele>638.0</ele><time>2026-04-07T07:37:24.788Z</time></trkpt><trkpt lat="38.3965617" lon="16.1707317"><ele>639.6666666666666</ele><time>2026-04-07T07:37:25.787Z</time></trkpt><trkpt lat="38.39641" lon="16.170785"><ele>641.3333333333334</ele><time>2026-04-07T07:37:26.788Z</time></trkpt><trkpt lat="38.396255" lon="16.17083"><ele>643.0</ele><time>2026-04-07T07:37:27.788Z</time></trkpt><trkpt lat="38.3960967" lon="16.1708717"><ele>643.0</ele><time>2026-04-07T07:37:28.788Z</time></trkpt><trkpt lat="38.3959317" lon="16.170915"><ele>643.0</ele><time>2026-04-07T07:37:29.787Z</time></trkpt><trkpt lat="38.3957667" lon="16.1709567"><ele>643.0</ele><time>2026-04-07T07:37:30.787Z</time></trkpt><trkpt lat="38.395605" lon="16.170995"><ele>649.0</ele><time>2026-04-07T07:37:31.787Z</time></trkpt><trkpt lat="38.395445" lon="16.17105"><ele>655.0</ele><time>2026-04-07T07:37:32.787Z</time></trkpt><trkpt lat="38.395285" lon="16.1710967"><ele>661.0</ele><time>2026-04-07T07:37:33.787Z</time></trkpt><trkpt lat="38.395115" lon="16.1711317"><ele>661.0</ele><time>2026-04-07T07:37:34.788Z</time></trkpt><trkpt lat="38.3949517" lon="16.1711833"><ele>661.0</ele><time>2026-04-07T07:37:35.788Z</time></trkpt><trkpt lat="38.3947883" lon="16.171235"><ele>661.0</ele><time>2026-04-07T07:37:36.787Z</time></trkpt><trkpt lat="38.3946283" lon="16.171285"><ele>670.6666666666667</ele><time>2026-04-07T07:37:37.788Z</time></trkpt><trkpt lat="38.3944717" lon="16.171345"><ele>680.3333333333334</ele><time>2026-04-07T07:37:38.787Z</time></trkpt><trkpt lat="38.3943067" lon="16.1714017"><ele>690.0</ele><time>2026-04-07T07:37:39.787Z</time></trkpt><trkpt lat="38.39415" lon="16.1714683"><ele>688.0</ele><time>2026-04-07T07:37:40.787Z</time></trkpt><trkpt lat="38.394" lon="16.171555"><ele>686.0</ele><time>2026-04-07T07:37:41.787Z</time></trkpt><trkpt lat="38.3938633" lon="16.1716617"><ele>684.0</ele><time>2026-04-07T07:37:42.788Z</time></trkpt><trkpt lat="38.3937267" lon="16.171775"><ele>688.3333333333334</ele><time>2026-04-07T07:37:43.787Z</time></trkpt><trkpt lat="38.3936167" lon="16.17193"><ele>692.6666666666667</ele><time>2026-04-07T07:37:44.788Z</time></trkpt><trkpt lat="38.3935" lon="16.17206"><ele>697.0</ele><time>2026-04-07T07:37:45.787Z</time></trkpt><trkpt lat="38.39339" lon="16.1722067"><ele>694.3333333333334</ele><time>2026-04-07T07:37:46.788Z</time></trkpt><trkpt lat="38.3932783" lon="16.17236"><ele>691.6666666666666</ele><time>2026-04-07T07:37:47.788Z</time></trkpt><trkpt lat="38.3931783" lon="16.1725267"><ele>689.0</ele><time>2026-04-07T07:37:48.787Z</time></trkpt><trkpt lat="38.3930783" lon="16.1726983"><ele>691.3333333333333</ele><time>2026-04-07T07:37:49.788Z</time></trkpt><trkpt lat="38.3929783" lon="16.17287"><ele>693.6666666666666</ele><time>2026-04-07T07:37:50.788Z</time></trkpt><trkpt lat="38.39288" lon="16.1730417"><ele>696.0</ele><time>2026-04-07T07:37:51.788Z</time></trkpt><trkpt lat="38.3927717" lon="16.1732083"><ele>696.0</ele><time>2026-04-07T07:37:52.787Z</time></trkpt><trkpt lat="38.39267" lon="16.1733933"><ele>696.0</ele><time>2026-04-07T07:37:53.787Z</time></trkpt><trkpt lat="38.3925717" lon="16.1735833"><ele>696.0</ele><time>2026-04-07T07:37:54.788Z</time></trkpt><trkpt lat="38.392465" lon="16.1737617"><ele>696.0</ele><time>2026-04-07T07:37:55.787Z</time></trkpt><trkpt lat="38.3923683" lon="16.1739383"><ele>696.0</ele><time>2026-04-07T07:37:56.787Z</time></trkpt><trkpt lat="38.3922717" lon="16.1741233"><ele>696.0</ele><time>2026-04-07T07:37:57.787Z</time></trkpt><trkpt lat="38.3921667" lon="16.1743033"><ele>701.0</ele><time>2026-04-07T07:37:58.787Z</time></trkpt><trkpt lat="38.3920633" lon="16.1744833"><ele>706.0</ele><time>2026-04-07T07:37:59.787Z</time></trkpt><trkpt lat="38.3919667" lon="16.1746633"><ele>711.0</ele><time>2026-04-07T07:38:00.787Z</time></trkpt><trkpt lat="38.3918683" lon="16.1748483"><ele>707.6666666666666</ele><time>2026-04-07T07:38:01.787Z</time></trkpt><trkpt lat="38.39177" lon="16.1750217"><ele>704.3333333333333</ele><time>2026-04-07T07:38:02.788Z</time></trkpt><trkpt lat="38.3916767" lon="16.1752017"><ele>701.0</ele><time>2026-04-07T07:38:03.787Z</time></trkpt><trkpt lat="38.391585" lon="16.175365"><ele>701.0</ele><time>2026-04-07T07:38:04.788Z</time></trkpt><trkpt lat="38.39152" lon="16.1755367"><ele>701.0</ele><time>2026-04-07T07:38:05.787Z</time></trkpt><trkpt lat="38.3914783" lon="16.1757017"><ele>701.0</ele><time>2026-04-07T07:38:06.787Z</time></trkpt><trkpt lat="38.391465" lon="16.1758733"><ele>701.0</ele><time>2026-04-07T07:38:07.787Z</time></trkpt><trkpt lat="38.391475" lon="16.176035"><ele>701.25</ele><time>2026-04-07T07:38:08.788Z</time></trkpt><trkpt lat="38.39152" lon="16.1762"><ele>701.5</ele><time>2026-04-07T07:38:09.788Z</time></trkpt><trkpt lat="38.3915917" lon="16.17636"><ele>701.75</ele><time>2026-04-07T07:38:10.787Z</time></trkpt><trkpt lat="38.3916883" lon="16.176475"><ele>702.0</ele><time>2026-04-07T07:38:11.788Z</time></trkpt><trkpt lat="38.3918" lon="16.176545"><ele>707.0</ele><time>2026-04-07T07:38:12.787Z</time></trkpt><trkpt lat="38.3919267" lon="16.1765867"><ele>712.0</ele><time>2026-04-07T07:38:13.787Z</time></trkpt><trkpt lat="38.3920717" lon="16.1766233"><ele>717.0</ele><time>2026-04-07T07:38:14.787Z</time></trkpt><trkpt lat="38.392195" lon="16.1766883"><ele>722.0</ele><time>2026-04-07T07:38:15.788Z</time></trkpt><trkpt lat="38.3923033" lon="16.1767917"><ele>722.5</ele><time>2026-04-07T07:38:16.787Z</time></trkpt><trkpt lat="38.3923867" lon="16.1769283"><ele>723.0</ele><time>2026-04-07T07:38:17.788Z</time></trkpt><trkpt lat="38.3924417" lon="16.1770867"><ele>723.5</ele><time>2026-04-07T07:38:18.787Z</time></trkpt><trkpt lat="38.3924767" lon="16.1772583"><ele>724.0</ele><time>2026-04-07T07:38:19.787Z</time></trkpt><trkpt lat="38.3925" lon="16.1774417"><ele>726.5</ele><time>2026-04-07T07:38:20.788Z</time></trkpt><trkpt lat="38.3925457" lon="16.1776191"><ele>729.0</ele><time>2026-04-07T07:38:21.787Z</time></trkpt><trkpt lat="38.392623" lon="16.1777781"><ele>731.5</ele><time>2026-04-07T07:38:22.788Z</time></trkpt><trkpt lat="38.392735" lon="16.1779074"><ele>734.0</ele><time>2026-04-07T07:38:23.787Z</time></trkpt><trkpt lat="38.3928599" lon="16.1780123"><ele>734.0</ele><time>2026-04-07T07:38:24.787Z</time></trkpt><trkpt lat="38.3929877" lon="16.1781078"><ele>734.0</ele><time>2026-04-07T07:38:25.788Z</time></trkpt><trkpt lat="38.3930987" lon="16.1782178"><ele>734.0</ele><time>2026-04-07T07:38:26.788Z</time></trkpt><trkpt lat="38.3931859" lon="16.1783562"><ele>734.0</ele><time>2026-04-07T07:38:27.787Z</time></trkpt><trkpt lat="38.3932543" lon="16.1785188"><ele>742.6666666666666</ele><time>2026-04-07T07:38:28.788Z</time></trkpt><trkpt lat="38.3933061" lon="16.1786951"><ele>751.3333333333334</ele><time>2026-04-07T07:38:29.787Z</time></trkpt><trkpt lat="38.393349" lon="16.1788815"><ele>760.0</ele><time>2026-04-07T07:38:30.787Z</time></trkpt><trkpt lat="38.3933868" lon="16.1790699"><ele>760.0</ele><time>2026-04-07T07:38:31.788Z</time></trkpt><trkpt lat="38.3934245" lon="16.1792589"><ele>760.0</ele><time>2026-04-07T07:38:32.788Z</time></trkpt><trkpt lat="38.3934696" lon="16.1794486"><ele>760.0</ele><time>2026-04-07T07:38:33.788Z</time></trkpt><trkpt lat="38.3935267" lon="16.1796173"><ele>760.0</ele><time>2026-04-07T07:38:34.788Z</time></trkpt><trkpt lat="38.3936079" lon="16.1797562"><ele>760.0</ele><time>2026-04-07T07:38:35.787Z</time></trkpt><trkpt lat="38.3937001" lon="16.1798628"><ele>760.0</ele><time>2026-04-07T07:38:36.787Z</time></trkpt><trkpt lat="38.393813" lon="16.1799463"><ele>760.0</ele><time>2026-04-07T07:38:37.787Z</time></trkpt><trkpt lat="38.3939382" lon="16.1800233"><ele>760.25</ele><time>2026-04-07T07:38:38.788Z</time></trkpt><trkpt lat="38.394061" lon="16.1801101"><ele>760.5</ele><time>2026-04-07T07:38:39.788Z</time></trkpt><trkpt lat="38.3941658" lon="16.180215"><ele>760.75</ele><time>2026-04-07T07:38:40.788Z</time></trkpt><trkpt lat="38.3942656" lon="16.1803446"><ele>761.0</ele><time>2026-04-07T07:38:41.788Z</time></trkpt><trkpt lat="38.3943646" lon="16.1804911"><ele>761.0</ele><time>2026-04-07T07:38:42.787Z</time></trkpt><trkpt lat="38.394469" lon="16.1806351"><ele>761.0</ele><time>2026-04-07T07:38:43.787Z</time></trkpt><trkpt lat="38.3945907" lon="16.1807639"><ele>761.0</ele><time>2026-04-07T07:38:44.787Z</time></trkpt><trkpt lat="38.3947227" lon="16.1808907"><ele>764.3333333333333</ele><time>2026-04-07T07:38:45.788Z</time></trkpt><trkpt lat="38.3948673" lon="16.181012"><ele>767.6666666666666</ele><time>2026-04-07T07:38:46.788Z</time></trkpt><trkpt lat="38.3950105" lon="16.1811313"><ele>771.0</ele><time>2026-04-07T07:38:47.787Z</time></trkpt><trkpt lat="38.3951554" lon="16.1812599"><ele>771.0</ele><time>2026-04-07T07:38:48.787Z</time></trkpt><trkpt lat="38.3952854" lon="16.1814024"><ele>771.0</ele><time>2026-04-07T07:38:49.787Z</time></trkpt><trkpt lat="38.3953956" lon="16.1815589"><ele>771.0</ele><time>2026-04-07T07:38:50.787Z</time></trkpt><trkpt lat="38.3954908" lon="16.1817349"><ele>777.0</ele><time>2026-04-07T07:38:51.788Z</time></trkpt><trkpt lat="38.3955763" lon="16.181917"><ele>783.0</ele><time>2026-04-07T07:38:52.787Z</time></trkpt><trkpt lat="38.3956556" lon="16.1821056"><ele>789.0</ele><time>2026-04-07T07:38:53.788Z</time></trkpt><trkpt lat="38.395715" lon="16.1822983"><ele>789.3333333333333</ele><time>2026-04-07T07:38:54.788Z</time></trkpt><trkpt lat="38.39576" lon="16.1824883"><ele>789.6666666666666</ele><time>2026-04-07T07:38:55.787Z</time></trkpt><trkpt lat="38.39579" lon="16.1826933"><ele>790.0</ele><time>2026-04-07T07:38:56.787Z</time></trkpt><trkpt lat="38.3958067" lon="16.182905"><ele>790.0</ele><time>2026-04-07T07:38:57.788Z</time></trkpt><trkpt lat="38.3957933" lon="16.1831333"><ele>790.0</ele><time>2026-04-07T07:38:58.788Z</time></trkpt><trkpt lat="38.395785" lon="16.1833617"><ele>790.0</ele><time>2026-04-07T07:38:59.787Z</time></trkpt><trkpt lat="38.395755" lon="16.1835617"><ele>790.6666666666666</ele><time>2026-04-07T07:39:00.787Z</time></trkpt><trkpt lat="38.39571" lon="16.1837583"><ele>791.3333333333333</ele><time>2026-04-07T07:39:01.787Z</time></trkpt><trkpt lat="38.3956417" lon="16.183955"><ele>792.0</ele><time>2026-04-07T07:39:02.787Z</time></trkpt><trkpt lat="38.3955567" lon="16.18415"><ele>794.3333333333333</ele><time>2026-04-07T07:39:03.787Z</time></trkpt><trkpt lat="38.395465" lon="16.18433"><ele>796.6666666666666</ele><time>2026-04-07T07:39:04.787Z</time></trkpt><trkpt lat="38.3953567" lon="16.1844983"><ele>799.0</ele><time>2026-04-07T07:39:05.787Z</time></trkpt><trkpt lat="38.395245" lon="16.184665"><ele>799.0</ele><time>2026-04-07T07:39:06.787Z</time></trkpt><trkpt lat="38.3951233" lon="16.1848033"><ele>799.0</ele><time>2026-04-07T07:39:07.787Z</time></trkpt><trkpt lat="38.3949883" lon="16.1849333"><ele>799.0</ele><time>2026-04-07T07:39:08.787Z</time></trkpt><trkpt lat="38.3948383" lon="16.185055"><ele>799.3333333333333</ele><time>2026-04-07T07:39:09.788Z</time></trkpt><trkpt lat="38.3946817" lon="16.1851517"><ele>799.6666666666667</ele><time>2026-04-07T07:39:10.787Z</time></trkpt><trkpt lat="38.394515" lon="16.185225"><ele>800.0</ele><time>2026-04-07T07:39:11.788Z</time></trkpt><trkpt lat="38.3943317" lon="16.1853"><ele>801.3333333333334</ele><time>2026-04-07T07:39:12.788Z</time></trkpt><trkpt lat="38.3941583" lon="16.1853833"><ele>802.6666666666667</ele><time>2026-04-07T07:39:13.788Z</time></trkpt><trkpt lat="38.39398" lon="16.18548"><ele>804.0</ele><time>2026-04-07T07:39:14.787Z</time></trkpt><trkpt lat="38.3938167" lon="16.1855867"><ele>805.6666666666667</ele><time>2026-04-07T07:39:15.788Z</time></trkpt><trkpt lat="38.3936633" lon="16.185715"><ele>807.3333333333334</ele><time>2026-04-07T07:39:16.788Z</time></trkpt><trkpt lat="38.393525" lon="16.1858767"><ele>809.0</ele><time>2026-04-07T07:39:17.788Z</time></trkpt><trkpt lat="38.3934" lon="16.1860617"><ele>809.0</ele><time>2026-04-07T07:39:18.788Z</time></trkpt><trkpt lat="38.3932883" lon="16.186235"><ele>809.0</ele><time>2026-04-07T07:39:19.787Z</time></trkpt><trkpt lat="38.393195" lon="16.1864383"><ele>809.0</ele><time>2026-04-07T07:39:20.787Z</time></trkpt><trkpt lat="38.3931183" lon="16.1866567"><ele>808.6666666666667</ele><time>2026-04-07T07:39:21.787Z</time></trkpt><trkpt lat="38.3930633" lon="16.1868567"><ele>808.3333333333333</ele><time>2026-04-07T07:39:22.787Z</time></trkpt><trkpt lat="38.39303" lon="16.1870483"><ele>808.0</ele><time>2026-04-07T07:39:23.787Z</time></trkpt><trkpt lat="38.393005" lon="16.187215"><ele>810.0</ele><time>2026-04-07T07:39:24.788Z</time></trkpt><trkpt lat="38.3929567" lon="16.1873483"><ele>812.0</ele><time>2026-04-07T07:39:25.787Z</time></trkpt><trkpt lat="38.392905" lon="16.1874533"><ele>814.0</ele><time>2026-04-07T07:39:26.788Z</time></trkpt><trkpt lat="38.3928333" lon="16.18753"><ele>816.0</ele><time>2026-04-07T07:39:27.788Z</time></trkpt><trkpt lat="38.3927567" lon="16.1876033"><ele>818.0</ele><time>2026-04-07T07:39:28.788Z</time></trkpt><trkpt lat="38.3927367" lon="16.1876983"><ele>818.0</ele><time>2026-04-07T07:39:29.788Z</time></trkpt><trkpt lat="38.392735" lon="16.18781"><ele>818.0</ele><time>2026-04-07T07:39:30.788Z</time></trkpt><trkpt lat="38.392755" lon="16.187945"><ele>818.0</ele><time>2026-04-07T07:39:31.787Z</time></trkpt><trkpt lat="38.3927867" lon="16.1880833"><ele>818.0</ele><time>2026-04-07T07:39:32.787Z</time></trkpt><trkpt lat="38.392825" lon="16.188215"><ele>818.0</ele><time>2026-04-07T07:39:33.787Z</time></trkpt><trkpt lat="38.39288" lon="16.188315"><ele>817.2</ele><time>2026-04-07T07:39:34.787Z</time></trkpt><trkpt lat="38.3929433" lon="16.1883767"><ele>816.4</ele><time>2026-04-07T07:39:35.787Z</time></trkpt><trkpt lat="38.3930183" lon="16.1884"><ele>815.6</ele><time>2026-04-07T07:39:36.787Z</time></trkpt><trkpt lat="38.3931117" lon="16.18839"><ele>814.8000000000001</ele><time>2026-04-07T07:39:37.787Z</time></trkpt><trkpt lat="38.3932283" lon="16.188365"><ele>814.0</ele><time>2026-04-07T07:39:38.787Z</time></trkpt><trkpt lat="38.3933517" lon="16.188325"><ele>814.0</ele><time>2026-04-07T07:39:39.787Z</time></trkpt><trkpt lat="38.393475" lon="16.18828"><ele>814.0</ele><time>2026-04-07T07:39:40.787Z</time></trkpt><trkpt lat="38.3936083" lon="16.188245"><ele>814.0</ele><time>2026-04-07T07:39:41.787Z</time></trkpt><trkpt lat="38.3937433" lon="16.1882133"><ele>814.0</ele><time>2026-04-07T07:39:42.787Z</time></trkpt><trkpt lat="38.3938867" lon="16.1881883"><ele>815.3333333333333</ele><time>2026-04-07T07:39:43.787Z</time></trkpt><trkpt lat="38.39403" lon="16.18817"><ele>816.6666666666667</ele><time>2026-04-07T07:39:44.787Z</time></trkpt><trkpt lat="38.3941833" lon="16.1881467"><ele>818.0</ele><time>2026-04-07T07:39:45.787Z</time></trkpt><trkpt lat="38.394335" lon="16.1881117"><ele>818.0</ele><time>2026-04-07T07:39:46.787Z</time></trkpt><trkpt lat="38.3944883" lon="16.1880583"><ele>818.0</ele><time>2026-04-07T07:39:47.788Z</time></trkpt><trkpt lat="38.3946517" lon="16.188"><ele>818.0</ele><time>2026-04-07T07:39:48.787Z</time></trkpt><trkpt lat="38.3948183" lon="16.18795"><ele>818.6666666666667</ele><time>2026-04-07T07:39:49.787Z</time></trkpt><trkpt lat="38.394985" lon="16.1878883"><ele>819.3333333333333</ele><time>2026-04-07T07:39:50.787Z</time></trkpt><trkpt lat="38.3951567" lon="16.1878117"><ele>820.0</ele><time>2026-04-07T07:39:51.787Z</time></trkpt><trkpt lat="38.3953267" lon="16.18773"><ele>820.0</ele><time>2026-04-07T07:39:52.788Z</time></trkpt><trkpt lat="38.3954917" lon="16.187645"><ele>820.0</ele><time>2026-04-07T07:39:53.787Z</time></trkpt><trkpt lat="38.3956533" lon="16.187565"><ele>820.0</ele><time>2026-04-07T07:39:54.787Z</time></trkpt><trkpt lat="38.3958133" lon="16.1874867"><ele>820.0</ele><time>2026-04-07T07:39:55.788Z</time></trkpt><trkpt lat="38.3959717" lon="16.1874067"><ele>820.0</ele><time>2026-04-07T07:39:56.787Z</time></trkpt><trkpt lat="38.3961183" lon="16.1873167"><ele>820.0</ele><time>2026-04-07T07:39:57.787Z</time></trkpt><trkpt lat="38.3962683" lon="16.1872167"><ele>821.3333333333333</ele><time>2026-04-07T07:39:58.788Z</time></trkpt><trkpt lat="38.3964133" lon="16.18711"><ele>822.6666666666667</ele><time>2026-04-07T07:39:59.787Z</time></trkpt><trkpt lat="38.3965467" lon="16.1869867"><ele>824.0</ele><time>2026-04-07T07:40:00.787Z</time></trkpt><trkpt lat="38.39668" lon="16.18686"><ele>824.0</ele><time>2026-04-07T07:40:01.788Z</time></trkpt><trkpt lat="38.3968117" lon="16.18673"><ele>824.0</ele><time>2026-04-07T07:40:02.787Z</time></trkpt><trkpt lat="38.3969333" lon="16.18658"><ele>824.0</ele><time>2026-04-07T07:40:03.788Z</time></trkpt><trkpt lat="38.39704" lon="16.18643"><ele>823.3333333333334</ele><time>2026-04-07T07:40:04.787Z</time></trkpt><trkpt lat="38.3971417" lon="16.1862683"><ele>822.6666666666667</ele><time>2026-04-07T07:40:05.788Z</time></trkpt><trkpt lat="38.39725" lon="16.1861233"><ele>822.0</ele><time>2026-04-07T07:40:06.787Z</time></trkpt><trkpt lat="38.39736" lon="16.18601"><ele>822.0</ele><time>2026-04-07T07:40:07.788Z</time></trkpt><trkpt lat="38.3974717" lon="16.1858917"><ele>822.0</ele><time>2026-04-07T07:40:08.788Z</time></trkpt><trkpt lat="38.3976017" lon="16.1858117"><ele>822.0</ele><time>2026-04-07T07:40:09.787Z</time></trkpt><trkpt lat="38.3977483" lon="16.1858067"><ele>822.0</ele><time>2026-04-07T07:40:10.787Z</time></trkpt><trkpt lat="38.3979017" lon="16.1857967"><ele>823.6666666666667</ele><time>2026-04-07T07:40:11.788Z</time></trkpt><trkpt lat="38.398055" lon="16.1857833"><ele>825.3333333333334</ele><time>2026-04-07T07:40:12.787Z</time></trkpt><trkpt lat="38.398195" lon="16.185775"><ele>827.0</ele><time>2026-04-07T07:40:13.787Z</time></trkpt><trkpt lat="38.3983483" lon="16.1857383"><ele>827.0</ele><time>2026-04-07T07:40:14.787Z</time></trkpt><trkpt lat="38.398505" lon="16.1856933"><ele>827.0</ele><time>2026-04-07T07:40:15.787Z</time></trkpt><trkpt lat="38.3986633" lon="16.1856617"><ele>827.0</ele><time>2026-04-07T07:40:16.788Z</time></trkpt><trkpt lat="38.3988133" lon="16.1856283"><ele>828.25</ele><time>2026-04-07T07:40:17.787Z</time></trkpt><trkpt lat="38.3989467" lon="16.1855717"><ele>829.5</ele><time>2026-04-07T07:40:18.787Z</time></trkpt><trkpt lat="38.3990783" lon="16.1855133"><ele>830.75</ele><time>2026-04-07T07:40:19.788Z</time></trkpt><trkpt lat="38.3991983" lon="16.18542"><ele>832.0</ele><time>2026-04-07T07:40:20.787Z</time></trkpt><trkpt lat="38.3992933" lon="16.1852917"><ele>832.0</ele><time>2026-04-07T07:40:21.787Z</time></trkpt><trkpt lat="38.3993717" lon="16.1851467"><ele>832.0</ele><time>2026-04-07T07:40:22.788Z</time></trkpt><trkpt lat="38.3994317" lon="16.18499"><ele>832.0</ele><time>2026-04-07T07:40:23.787Z</time></trkpt><trkpt lat="38.39949" lon="16.1848167"><ele>832.0</ele><time>2026-04-07T07:40:24.787Z</time></trkpt><trkpt lat="38.3995567" lon="16.1846517"><ele>831.75</ele><time>2026-04-07T07:40:25.787Z</time></trkpt><trkpt lat="38.39963" lon="16.1845083"><ele>831.5</ele><time>2026-04-07T07:40:26.787Z</time></trkpt><trkpt lat="38.3997167" lon="16.1843783"><ele>831.25</ele><time>2026-04-07T07:40:27.788Z</time></trkpt><trkpt lat="38.3998167" lon="16.1842717"><ele>831.0</ele><time>2026-04-07T07:40:28.787Z</time></trkpt><trkpt lat="38.3999183" lon="16.1841667"><ele>832.0</ele><time>2026-04-07T07:40:29.787Z</time></trkpt><trkpt lat="38.400015" lon="16.1840617"><ele>833.0</ele><time>2026-04-07T07:40:30.787Z</time></trkpt><trkpt lat="38.4001233" lon="16.1839567"><ele>834.0</ele><time>2026-04-07T07:40:31.787Z</time></trkpt><trkpt lat="38.40022" lon="16.1838383"><ele>835.0</ele><time>2026-04-07T07:40:32.788Z</time></trkpt><trkpt lat="38.4003117" lon="16.1837067"><ele>837.5</ele><time>2026-04-07T07:40:33.787Z</time></trkpt><trkpt lat="38.4004083" lon="16.1835733"><ele>840.0</ele><time>2026-04-07T07:40:34.787Z</time></trkpt><trkpt lat="38.4004667" lon="16.183425"><ele>842.5</ele><time>2026-04-07T07:40:35.787Z</time></trkpt><trkpt lat="38.400535" lon="16.1832683"><ele>845.0</ele><time>2026-04-07T07:40:36.787Z</time></trkpt><trkpt lat="38.4005983" lon="16.1831233"><ele>847.5</ele><time>2026-04-07T07:40:37.787Z</time></trkpt><trkpt lat="38.40066" lon="16.18297"><ele>850.0</ele><time>2026-04-07T07:40:38.787Z</time></trkpt><trkpt lat="38.400725" lon="16.1828283"><ele>852.5</ele><time>2026-04-07T07:40:39.787Z</time></trkpt><trkpt lat="38.4008033" lon="16.1827017"><ele>855.0</ele><time>2026-04-07T07:40:40.787Z</time></trkpt><trkpt lat="38.40089" lon="16.1825867"><ele>855.0</ele><time>2026-04-07T07:40:41.787Z</time></trkpt><trkpt lat="38.4009817" lon="16.1824833"><ele>855.0</ele><time>2026-04-07T07:40:42.787Z</time></trkpt><trkpt lat="38.4010733" lon="16.1823933"><ele>855.0</ele><time>2026-04-07T07:40:43.788Z</time></trkpt><trkpt lat="38.4011733" lon="16.182305"><ele>855.0</ele><time>2026-04-07T07:40:44.787Z</time></trkpt><trkpt lat="38.4012783" lon="16.18223"><ele>856.2</ele><time>2026-04-07T07:40:45.787Z</time></trkpt><trkpt lat="38.40138" lon="16.18216"><ele>857.4</ele><time>2026-04-07T07:40:46.787Z</time></trkpt><trkpt lat="38.4014817" lon="16.1821117"><ele>858.5999999999999</ele><time>2026-04-07T07:40:47.787Z</time></trkpt><trkpt lat="38.40159" lon="16.1820917"><ele>859.8</ele><time>2026-04-07T07:40:48.787Z</time></trkpt><trkpt lat="38.4016933" lon="16.1820917"><ele>861.0</ele><time>2026-04-07T07:40:49.787Z</time></trkpt><trkpt lat="38.40179" lon="16.1821183"><ele>861.0</ele><time>2026-04-07T07:40:50.787Z</time></trkpt><trkpt lat="38.4018917" lon="16.182155"><ele>860.9999999999999</ele><time>2026-04-07T07:40:51.787Z</time></trkpt><trkpt lat="38.401995" lon="16.1821833"><ele>860.9999999999999</ele><time>2026-04-07T07:40:52.787Z</time></trkpt><trkpt lat="38.402105" lon="16.182205"><ele>861.0</ele><time>2026-04-07T07:40:53.787Z</time></trkpt><trkpt lat="38.4022133" lon="16.1822167"><ele>861.0</ele><time>2026-04-07T07:40:54.787Z</time></trkpt><trkpt lat="38.4023283" lon="16.1822367"><ele>863.0</ele><time>2026-04-07T07:40:55.787Z</time></trkpt><trkpt lat="38.4024533" lon="16.18225"><ele>865.0</ele><time>2026-04-07T07:40:56.787Z</time></trkpt><trkpt lat="38.4025783" lon="16.18225"><ele>867.0</ele><time>2026-04-07T07:40:57.787Z</time></trkpt><trkpt lat="38.4027" lon="16.1822367"><ele>869.0</ele><time>2026-04-07T07:40:58.787Z</time></trkpt><trkpt lat="38.4028267" lon="16.1822167"><ele>869.0</ele><time>2026-04-07T07:40:59.787Z</time></trkpt><trkpt lat="38.40294" lon="16.1821717"><ele>869.0</ele><time>2026-04-07T07:41:00.787Z</time></trkpt><trkpt lat="38.4030567" lon="16.182115"><ele>869.0</ele><time>2026-04-07T07:41:01.787Z</time></trkpt><trkpt lat="38.40317" lon="16.1820417"><ele>869.0</ele><time>2026-04-07T07:41:02.788Z</time></trkpt><trkpt lat="38.4032833" lon="16.1819583"><ele>871.0</ele><time>2026-04-07T07:41:03.787Z</time></trkpt><trkpt lat="38.403395" lon="16.1818733"><ele>873.0</ele><time>2026-04-07T07:41:04.787Z</time></trkpt><trkpt lat="38.4034983" lon="16.18179"><ele>875.0</ele><time>2026-04-07T07:41:05.787Z</time></trkpt><trkpt lat="38.403605" lon="16.181695"><ele>877.0</ele><time>2026-04-07T07:41:06.788Z</time></trkpt><trkpt lat="38.4037183" lon="16.1816033"><ele>879.25</ele><time>2026-04-07T07:41:07.788Z</time></trkpt><trkpt lat="38.4038383" lon="16.1815"><ele>881.5</ele><time>2026-04-07T07:41:08.789Z</time></trkpt><trkpt lat="38.403965" lon="16.1814067"><ele>883.75</ele><time>2026-04-07T07:41:09.788Z</time></trkpt><trkpt lat="38.4040783" lon="16.18131"><ele>886.0</ele><time>2026-04-07T07:41:10.789Z</time></trkpt><trkpt lat="38.4041967" lon="16.181225"><ele>886.0</ele><time>2026-04-07T07:41:11.788Z</time></trkpt><trkpt lat="38.404315" lon="16.1811367"><ele>886.0</ele><time>2026-04-07T07:41:12.788Z</time></trkpt><trkpt lat="38.4044367" lon="16.1810583"><ele>886.0</ele><time>2026-04-07T07:41:13.788Z</time></trkpt><trkpt lat="38.4045583" lon="16.1809917"><ele>886.0</ele><time>2026-04-07T07:41:14.789Z</time></trkpt><trkpt lat="38.404675" lon="16.1809367"><ele>888.75</ele><time>2026-04-07T07:41:15.788Z</time></trkpt><trkpt lat="38.404805" lon="16.180895"><ele>891.5</ele><time>2026-04-07T07:41:16.788Z</time></trkpt><trkpt lat="38.404925" lon="16.1808583"><ele>894.25</ele><time>2026-04-07T07:41:17.788Z</time></trkpt><trkpt lat="38.40505" lon="16.1808417"><ele>897.0</ele><time>2026-04-07T07:41:18.788Z</time></trkpt><trkpt lat="38.40518" lon="16.180825"><ele>897.0</ele><time>2026-04-07T07:41:19.788Z</time></trkpt><trkpt lat="38.4053067" lon="16.1807983"><ele>897.0</ele><time>2026-04-07T07:41:20.788Z</time></trkpt><trkpt lat="38.4054283" lon="16.180775"><ele>897.0</ele><time>2026-04-07T07:41:21.789Z</time></trkpt><trkpt lat="38.4055817" lon="16.1807"><ele>897.0</ele><time>2026-04-07T07:41:22.788Z</time></trkpt><trkpt lat="38.4057033" lon="16.1806433"><ele>895.25</ele><time>2026-04-07T07:41:23.789Z</time></trkpt><trkpt lat="38.405835" lon="16.180555"><ele>893.5</ele><time>2026-04-07T07:41:24.788Z</time></trkpt><trkpt lat="38.40597" lon="16.1804633"><ele>891.75</ele><time>2026-04-07T07:41:25.788Z</time></trkpt><trkpt lat="38.4060983" lon="16.1803717"><ele>890.0</ele><time>2026-04-07T07:41:26.788Z</time></trkpt><trkpt lat="38.40623" lon="16.1802517"><ele>888.3333333333334</ele><time>2026-04-07T07:41:27.788Z</time></trkpt><trkpt lat="38.4063583" lon="16.18014"><ele>886.6666666666667</ele><time>2026-04-07T07:41:28.788Z</time></trkpt><trkpt lat="38.4064833" lon="16.180035"><ele>885.0</ele><time>2026-04-07T07:41:29.789Z</time></trkpt><trkpt lat="38.4066067" lon="16.17993"><ele>884.3333333333333</ele><time>2026-04-07T07:41:30.788Z</time></trkpt><trkpt lat="38.40674" lon="16.1798267"><ele>883.6666666666666</ele><time>2026-04-07T07:41:31.789Z</time></trkpt><trkpt lat="38.40688" lon="16.179725"><ele>883.0</ele><time>2026-04-07T07:41:32.788Z</time></trkpt><trkpt lat="38.4070133" lon="16.1796033"><ele>883.0</ele><time>2026-04-07T07:41:33.788Z</time></trkpt><trkpt lat="38.4071367" lon="16.17948"><ele>883.0</ele><time>2026-04-07T07:41:34.789Z</time></trkpt><trkpt lat="38.4072567" lon="16.17935"><ele>883.0</ele><time>2026-04-07T07:41:35.788Z</time></trkpt><trkpt lat="38.4073867" lon="16.179245"><ele>883.0</ele><time>2026-04-07T07:41:36.788Z</time></trkpt><trkpt lat="38.4075017" lon="16.1791583"><ele>883.0</ele><time>2026-04-07T07:41:37.789Z</time></trkpt><trkpt lat="38.4076183" lon="16.17906"><ele>883.0</ele><time>2026-04-07T07:41:38.789Z</time></trkpt><trkpt lat="38.4077383" lon="16.1789567"><ele>883.0</ele><time>2026-04-07T07:41:39.789Z</time></trkpt><trkpt lat="38.4078583" lon="16.1788533"><ele>883.0</ele><time>2026-04-07T07:41:40.788Z</time></trkpt><trkpt lat="38.4079867" lon="16.1787517"><ele>883.0</ele><time>2026-04-07T07:41:41.788Z</time></trkpt><trkpt lat="38.4081183" lon="16.1786667"><ele>883.0</ele><time>2026-04-07T07:41:42.788Z</time></trkpt><trkpt lat="38.4082517" lon="16.1786133"><ele>883.0</ele><time>2026-04-07T07:41:43.788Z</time></trkpt><trkpt lat="38.4083837" lon="16.1785799"><ele>883.0</ele><time>2026-04-07T07:41:44.788Z</time></trkpt><trkpt lat="38.4085206" lon="16.1785663"><ele>883.0</ele><time>2026-04-07T07:41:45.789Z</time></trkpt><trkpt lat="38.4086636" lon="16.1785668"><ele>883.0</ele><time>2026-04-07T07:41:46.789Z</time></trkpt><trkpt lat="38.4088138" lon="16.1785714"><ele>883.0</ele><time>2026-04-07T07:41:47.788Z</time></trkpt><trkpt lat="38.4089661" lon="16.1785762"><ele>884.3333333333333</ele><time>2026-04-07T07:41:48.788Z</time></trkpt><trkpt lat="38.4091209" lon="16.1785731"><ele>885.6666666666667</ele><time>2026-04-07T07:41:49.788Z</time></trkpt><trkpt lat="38.4092789" lon="16.1785654"><ele>887.0</ele><time>2026-04-07T07:41:50.789Z</time></trkpt><trkpt lat="38.4094395" lon="16.1785562"><ele>887.0</ele><time>2026-04-07T07:41:51.788Z</time></trkpt><trkpt lat="38.4096081" lon="16.178552"><ele>887.0</ele><time>2026-04-07T07:41:52.789Z</time></trkpt><trkpt lat="38.409775" lon="16.1785539"><ele>887.0</ele><time>2026-04-07T07:41:53.788Z</time></trkpt><trkpt lat="38.4099423" lon="16.1785591"><ele>886.6666666666667</ele><time>2026-04-07T07:41:54.788Z</time></trkpt><trkpt lat="38.4101077" lon="16.1785445"><ele>886.3333333333333</ele><time>2026-04-07T07:41:55.788Z</time></trkpt><trkpt lat="38.4102658" lon="16.1784979"><ele>886.0</ele><time>2026-04-07T07:41:56.788Z</time></trkpt><trkpt lat="38.4104117" lon="16.1784092"><ele>886.0</ele><time>2026-04-07T07:41:57.789Z</time></trkpt><trkpt lat="38.4105442" lon="16.1782944"><ele>886.0</ele><time>2026-04-07T07:41:58.788Z</time></trkpt><trkpt lat="38.4106662" lon="16.178168"><ele>886.0</ele><time>2026-04-07T07:41:59.789Z</time></trkpt><trkpt lat="38.410785" lon="16.178039"><ele>886.0</ele><time>2026-04-07T07:42:00.788Z</time></trkpt><trkpt lat="38.4109086" lon="16.1779116"><ele>886.0</ele><time>2026-04-07T07:42:01.788Z</time></trkpt><trkpt lat="38.4110349" lon="16.1777872"><ele>886.0</ele><time>2026-04-07T07:42:02.788Z</time></trkpt><trkpt lat="38.4111581" lon="16.1776614"><ele>886.0</ele><time>2026-04-07T07:42:03.789Z</time></trkpt><trkpt lat="38.4112797" lon="16.1775357"><ele>886.0</ele><time>2026-04-07T07:42:04.788Z</time></trkpt><trkpt lat="38.4113963" lon="16.1774191"><ele>886.0</ele><time>2026-04-07T07:42:05.788Z</time></trkpt><trkpt lat="38.4115112" lon="16.1773239"><ele>886.0</ele><time>2026-04-07T07:42:06.788Z</time></trkpt><trkpt lat="38.4116207" lon="16.1772468"><ele>886.0</ele><time>2026-04-07T07:42:07.788Z</time></trkpt><trkpt lat="38.4117326" lon="16.1771903"><ele>886.0</ele><time>2026-04-07T07:42:08.788Z</time></trkpt><trkpt lat="38.4118458" lon="16.1771588"><ele>886.0</ele><time>2026-04-07T07:42:09.789Z</time></trkpt><trkpt lat="38.4119563" lon="16.1771433"><ele>886.0</ele><time>2026-04-07T07:42:10.788Z</time></trkpt><trkpt lat="38.4120683" lon="16.177146"><ele>888.5999999999999</ele><time>2026-04-07T07:42:11.788Z</time></trkpt><trkpt lat="38.4121815" lon="16.1771604"><ele>891.1999999999999</ele><time>2026-04-07T07:42:12.788Z</time></trkpt><trkpt lat="38.412291" lon="16.1771778"><ele>893.8000000000001</ele><time>2026-04-07T07:42:13.788Z</time></trkpt><trkpt lat="38.4123971" lon="16.1771766"><ele>896.4000000000001</ele><time>2026-04-07T07:42:14.789Z</time></trkpt><trkpt lat="38.4125033" lon="16.1771483"><ele>899.0</ele><time>2026-04-07T07:42:15.788Z</time></trkpt><trkpt lat="38.4126075" lon="16.1770828"><ele>899.0</ele><time>2026-04-07T07:42:16.788Z</time></trkpt><trkpt lat="38.4127067" lon="16.1769733"><ele>899.0</ele><time>2026-04-07T07:42:17.788Z</time></trkpt><trkpt lat="38.4127783" lon="16.1768433"><ele>899.0</ele><time>2026-04-07T07:42:18.788Z</time></trkpt><trkpt lat="38.4128367" lon="16.1767067"><ele>899.0</ele><time>2026-04-07T07:42:19.788Z</time></trkpt><trkpt lat="38.4128917" lon="16.1765783"><ele>898.2</ele><time>2026-04-07T07:42:20.789Z</time></trkpt><trkpt lat="38.4129533" lon="16.1764683"><ele>897.4000000000001</ele><time>2026-04-07T07:42:21.788Z</time></trkpt><trkpt lat="38.4130433" lon="16.1764"><ele>896.6</ele><time>2026-04-07T07:42:22.788Z</time></trkpt><trkpt lat="38.4131417" lon="16.1763667"><ele>895.8</ele><time>2026-04-07T07:42:23.788Z</time></trkpt><trkpt lat="38.4132533" lon="16.1763733"><ele>895.0</ele><time>2026-04-07T07:42:24.788Z</time></trkpt><trkpt lat="38.4133583" lon="16.1763933"><ele>895.0</ele><time>2026-04-07T07:42:25.788Z</time></trkpt><trkpt lat="38.41348" lon="16.1764183"><ele>895.0</ele><time>2026-04-07T07:42:26.788Z</time></trkpt><trkpt lat="38.41361" lon="16.17646"><ele>895.0</ele><time>2026-04-07T07:42:27.788Z</time></trkpt><trkpt lat="38.4137467" lon="16.176505"><ele>895.0</ele><time>2026-04-07T07:42:28.789Z</time></trkpt><trkpt lat="38.413885" lon="16.1765517"><ele>898.75</ele><time>2026-04-07T07:42:29.788Z</time></trkpt><trkpt lat="38.41402" lon="16.1765967"><ele>902.5</ele><time>2026-04-07T07:42:30.788Z</time></trkpt><trkpt lat="38.4141567" lon="16.176635"><ele>906.25</ele><time>2026-04-07T07:42:31.788Z</time></trkpt><trkpt lat="38.414295" lon="16.1766767"><ele>910.0</ele><time>2026-04-07T07:42:32.789Z</time></trkpt><trkpt lat="38.4144333" lon="16.176715"><ele>910.0</ele><time>2026-04-07T07:42:33.789Z</time></trkpt><trkpt lat="38.41458" lon="16.1767467"><ele>910.0</ele><time>2026-04-07T07:42:34.788Z</time></trkpt><trkpt lat="38.4147133" lon="16.17678"><ele>910.0</ele><time>2026-04-07T07:42:35.788Z</time></trkpt><trkpt lat="38.414855" lon="16.176815"><ele>910.0</ele><time>2026-04-07T07:42:36.788Z</time></trkpt><trkpt lat="38.4149883" lon="16.176845"><ele>909.75</ele><time>2026-04-07T07:42:37.789Z</time></trkpt><trkpt lat="38.4151217" lon="16.1768467"><ele>909.5</ele><time>2026-04-07T07:42:38.789Z</time></trkpt><trkpt lat="38.415245" lon="16.1768283"><ele>909.25</ele><time>2026-04-07T07:42:39.788Z</time></trkpt><trkpt lat="38.4153617" lon="16.17679"><ele>909.0</ele><time>2026-04-07T07:42:40.788Z</time></trkpt><trkpt lat="38.41549" lon="16.1767483"><ele>909.0</ele><time>2026-04-07T07:42:41.788Z</time></trkpt><trkpt lat="38.4156067" lon="16.17673"><ele>909.0</ele><time>2026-04-07T07:42:42.789Z</time></trkpt><trkpt lat="38.4157133" lon="16.1767567"><ele>909.0</ele><time>2026-04-07T07:42:43.788Z</time></trkpt><trkpt lat="38.4158117" lon="16.17682"><ele>909.0</ele><time>2026-04-07T07:42:44.789Z</time></trkpt><trkpt lat="38.4158883" lon="16.1769317"><ele>909.0</ele><time>2026-04-07T07:42:45.788Z</time></trkpt><trkpt lat="38.4159533" lon="16.1770433"><ele>909.0000000000001</ele><time>2026-04-07T07:42:46.788Z</time></trkpt><trkpt lat="38.4160117" lon="16.177155"><ele>909.0000000000001</ele><time>2026-04-07T07:42:47.788Z</time></trkpt><trkpt lat="38.41607" lon="16.1772583"><ele>909.0</ele><time>2026-04-07T07:42:48.788Z</time></trkpt><trkpt lat="38.41613" lon="16.1773633"><ele>909.0</ele><time>2026-04-07T07:42:49.789Z</time></trkpt><trkpt lat="38.416195" lon="16.177455"><ele>909.0</ele><time>2026-04-07T07:42:50.788Z</time></trkpt><trkpt lat="38.4162583" lon="16.1775433"><ele>909.0</ele><time>2026-04-07T07:42:51.789Z</time></trkpt><trkpt lat="38.4163167" lon="16.1776267"><ele>909.0</ele><time>2026-04-07T07:42:52.789Z</time></trkpt><trkpt lat="38.41637" lon="16.1776933"><ele>909.0</ele><time>2026-04-07T07:42:53.788Z</time></trkpt><trkpt lat="38.4164167" lon="16.1777717"><ele>909.0</ele><time>2026-04-07T07:42:54.788Z</time></trkpt><trkpt lat="38.4164633" lon="16.1778333"><ele>909.0</ele><time>2026-04-07T07:42:55.789Z</time></trkpt><trkpt lat="38.416515" lon="16.1779017"><ele>910.3333333333334</ele><time>2026-04-07T07:42:56.789Z</time></trkpt><trkpt lat="38.4165717" lon="16.1779683"><ele>911.6666666666667</ele><time>2026-04-07T07:42:57.788Z</time></trkpt><trkpt lat="38.41664" lon="16.1780217"><ele>913.0</ele><time>2026-04-07T07:42:58.788Z</time></trkpt><trkpt lat="38.4167133" lon="16.1780717"><ele>914.3333333333334</ele><time>2026-04-07T07:42:59.788Z</time></trkpt><trkpt lat="38.4167933" lon="16.178105"><ele>915.6666666666667</ele><time>2026-04-07T07:43:00.789Z</time></trkpt><trkpt lat="38.4168833" lon="16.1781083"><ele>917.0</ele><time>2026-04-07T07:43:01.788Z</time></trkpt><trkpt lat="38.4169767" lon="16.1780933"><ele>917.0</ele><time>2026-04-07T07:43:02.788Z</time></trkpt><trkpt lat="38.4170783" lon="16.17806"><ele>917.0</ele><time>2026-04-07T07:43:03.789Z</time></trkpt><trkpt lat="38.41717" lon="16.1779983"><ele>917.0</ele><time>2026-04-07T07:43:04.788Z</time></trkpt><trkpt lat="38.4172533" lon="16.1779033"><ele>917.0</ele><time>2026-04-07T07:43:05.788Z</time></trkpt><trkpt lat="38.4173333" lon="16.1778117"><ele>917.0</ele><time>2026-04-07T07:43:06.788Z</time></trkpt><trkpt lat="38.41741" lon="16.1777183"><ele>920.2</ele><time>2026-04-07T07:43:07.788Z</time></trkpt><trkpt lat="38.4174883" lon="16.1776233"><ele>923.4000000000001</ele><time>2026-04-07T07:43:08.788Z</time></trkpt><trkpt lat="38.417575" lon="16.1775317"><ele>926.5999999999999</ele><time>2026-04-07T07:43:09.788Z</time></trkpt><trkpt lat="38.4176533" lon="16.1774417"><ele>929.8</ele><time>2026-04-07T07:43:10.789Z</time></trkpt><trkpt lat="38.41774" lon="16.17735"><ele>933.0</ele><time>2026-04-07T07:43:11.788Z</time></trkpt><trkpt lat="38.4178267" lon="16.17726"><ele>933.0</ele><time>2026-04-07T07:43:12.788Z</time></trkpt><trkpt lat="38.4179" lon="16.1771567"><ele>933.0</ele><time>2026-04-07T07:43:13.789Z</time></trkpt><trkpt lat="38.4179767" lon="16.1770417"><ele>933.0</ele><time>2026-04-07T07:43:14.788Z</time></trkpt><trkpt lat="38.4180417" lon="16.1769233"><ele>933.0</ele><time>2026-04-07T07:43:15.788Z</time></trkpt><trkpt lat="38.4181017" lon="16.1767883"><ele>937.0</ele><time>2026-04-07T07:43:16.788Z</time></trkpt><trkpt lat="38.41816" lon="16.1766583"><ele>941.0</ele><time>2026-04-07T07:43:17.788Z</time></trkpt><trkpt lat="38.4181983" lon="16.1765083"><ele>945.0</ele><time>2026-04-07T07:43:18.789Z</time></trkpt><trkpt lat="38.4182367" lon="16.176345"><ele>949.0</ele><time>2026-04-07T07:43:19.788Z</time></trkpt><trkpt lat="38.4182817" lon="16.1762"><ele>949.0</ele><time>2026-04-07T07:43:20.788Z</time></trkpt><trkpt lat="38.418335" lon="16.1760617"><ele>949.0</ele><time>2026-04-07T07:43:21.788Z</time></trkpt><trkpt lat="38.4183983" lon="16.1759267"><ele>949.0</ele><time>2026-04-07T07:43:22.788Z</time></trkpt><trkpt lat="38.41847" lon="16.1758017"><ele>949.0</ele><time>2026-04-07T07:43:23.788Z</time></trkpt><trkpt lat="38.418555" lon="16.1756933"><ele>951.5</ele><time>2026-04-07T07:43:24.788Z</time></trkpt><trkpt lat="38.4186567" lon="16.175595"><ele>954.0</ele><time>2026-04-07T07:43:25.788Z</time></trkpt><trkpt lat="38.418757" lon="16.1755185"><ele>956.5</ele><time>2026-04-07T07:43:26.788Z</time></trkpt><trkpt lat="38.4188611" lon="16.1754708"><ele>959.0</ele><time>2026-04-07T07:43:27.788Z</time></trkpt><trkpt lat="38.4189726" lon="16.1754518"><ele>959.0</ele><time>2026-04-07T07:43:28.789Z</time></trkpt><trkpt lat="38.4190837" lon="16.1754552"><ele>959.0000000000001</ele><time>2026-04-07T07:43:29.788Z</time></trkpt><trkpt lat="38.4191868" lon="16.1754859"><ele>959.0000000000001</ele><time>2026-04-07T07:43:30.789Z</time></trkpt><trkpt lat="38.4192835" lon="16.1755528"><ele>959.0</ele><time>2026-04-07T07:43:31.789Z</time></trkpt><trkpt lat="38.4193669" lon="16.1756369"><ele>959.0</ele><time>2026-04-07T07:43:32.788Z</time></trkpt><trkpt lat="38.4194612" lon="16.1757404"><ele>958.5</ele><time>2026-04-07T07:43:33.788Z</time></trkpt><trkpt lat="38.4195573" lon="16.1758375"><ele>958.0</ele><time>2026-04-07T07:43:34.788Z</time></trkpt><trkpt lat="38.4196503" lon="16.1759501"><ele>957.5</ele><time>2026-04-07T07:43:35.789Z</time></trkpt><trkpt lat="38.4197508" lon="16.1760644"><ele>957.0</ele><time>2026-04-07T07:43:36.788Z</time></trkpt><trkpt lat="38.4198474" lon="16.1761748"><ele>957.0</ele><time>2026-04-07T07:43:37.789Z</time></trkpt><trkpt lat="38.4199558" lon="16.1762788"><ele>957.0</ele><time>2026-04-07T07:43:38.788Z</time></trkpt><trkpt lat="38.4200667" lon="16.1763775"><ele>957.0</ele><time>2026-04-07T07:43:39.788Z</time></trkpt><trkpt lat="38.4201789" lon="16.1764781"><ele>957.0</ele><time>2026-04-07T07:43:40.788Z</time></trkpt><trkpt lat="38.4202921" lon="16.1765859"><ele>959.0</ele><time>2026-04-07T07:43:41.789Z</time></trkpt><trkpt lat="38.4204" lon="16.1767054"><ele>961.0</ele><time>2026-04-07T07:43:42.788Z</time></trkpt><trkpt lat="38.4204999" lon="16.1768336"><ele>963.0</ele><time>2026-04-07T07:43:43.788Z</time></trkpt><trkpt lat="38.4205839" lon="16.1769682"><ele>965.0</ele><time>2026-04-07T07:43:44.789Z</time></trkpt><trkpt lat="38.4206598" lon="16.1771144"><ele>965.0</ele><time>2026-04-07T07:43:45.788Z</time></trkpt><trkpt lat="38.420717" lon="16.1772708"><ele>965.0</ele><time>2026-04-07T07:43:46.788Z</time></trkpt><trkpt lat="38.4207534" lon="16.1774298"><ele>965.0</ele><time>2026-04-07T07:43:47.788Z</time></trkpt><trkpt lat="38.4207613" lon="16.1775916"><ele>965.0</ele><time>2026-04-07T07:43:48.788Z</time></trkpt><trkpt lat="38.4207457" lon="16.1777389"><ele>968.0</ele><time>2026-04-07T07:43:49.788Z</time></trkpt><trkpt lat="38.420705" lon="16.1778938"><ele>971.0</ele><time>2026-04-07T07:43:50.789Z</time></trkpt><trkpt lat="38.4206473" lon="16.1780437"><ele>974.0</ele><time>2026-04-07T07:43:51.788Z</time></trkpt><trkpt lat="38.4205753" lon="16.1781882"><ele>977.0</ele><time>2026-04-07T07:43:52.789Z</time></trkpt><trkpt lat="38.4204948" lon="16.1783248"><ele>979.25</ele><time>2026-04-07T07:43:53.788Z</time></trkpt><trkpt lat="38.4204096" lon="16.1784566"><ele>981.5</ele><time>2026-04-07T07:43:54.789Z</time></trkpt><trkpt lat="38.4203055" lon="16.1785779"><ele>983.75</ele><time>2026-04-07T07:43:55.788Z</time></trkpt><trkpt lat="38.4202197" lon="16.1787092"><ele>986.0</ele><time>2026-04-07T07:43:56.789Z</time></trkpt><trkpt lat="38.4201445" lon="16.1788524"><ele>986.0</ele><time>2026-04-07T07:43:57.788Z</time></trkpt><trkpt lat="38.4200675" lon="16.1789936"><ele>986.0</ele><time>2026-04-07T07:43:58.788Z</time></trkpt><trkpt lat="38.4199856" lon="16.1791346"><ele>986.0</ele><time>2026-04-07T07:43:59.789Z</time></trkpt><trkpt lat="38.4199106" lon="16.179282"><ele>986.0</ele><time>2026-04-07T07:44:00.788Z</time></trkpt><trkpt lat="38.4198523" lon="16.1794459"><ele>985.75</ele><time>2026-04-07T07:44:01.789Z</time></trkpt><trkpt lat="38.4198208" lon="16.1796207"><ele>985.5</ele><time>2026-04-07T07:44:02.789Z</time></trkpt><trkpt lat="38.4198163" lon="16.1797949"><ele>985.25</ele><time>2026-04-07T07:44:03.788Z</time></trkpt><trkpt lat="38.4198435" lon="16.1799641"><ele>985.0</ele><time>2026-04-07T07:44:04.788Z</time></trkpt><trkpt lat="38.4198905" lon="16.1801289"><ele>986.5</ele><time>2026-04-07T07:44:05.789Z</time></trkpt><trkpt lat="38.4199601" lon="16.1802753"><ele>988.0</ele><time>2026-04-07T07:44:06.788Z</time></trkpt><trkpt lat="38.4200476" lon="16.1804022"><ele>989.5</ele><time>2026-04-07T07:44:07.788Z</time></trkpt><trkpt lat="38.4201424" lon="16.1805083"><ele>991.0</ele><time>2026-04-07T07:44:08.788Z</time></trkpt><trkpt lat="38.4202458" lon="16.1805863"><ele>991.0</ele><time>2026-04-07T07:44:09.789Z</time></trkpt><trkpt lat="38.4203613" lon="16.1806455"><ele>991.0</ele><time>2026-04-07T07:44:10.789Z</time></trkpt><trkpt lat="38.4204839" lon="16.1806869"><ele>991.0</ele><time>2026-04-07T07:44:11.788Z</time></trkpt><trkpt lat="38.4206098" lon="16.1807269"><ele>991.0</ele><time>2026-04-07T07:44:12.788Z</time></trkpt><trkpt lat="38.4207431" lon="16.1807622"><ele>992.75</ele><time>2026-04-07T07:44:13.788Z</time></trkpt><trkpt lat="38.4208691" lon="16.1807961"><ele>994.5</ele><time>2026-04-07T07:44:14.789Z</time></trkpt><trkpt lat="38.4209882" lon="16.1808308"><ele>996.25</ele><time>2026-04-07T07:44:15.788Z</time></trkpt><trkpt lat="38.4211077" lon="16.1808632"><ele>998.0</ele><time>2026-04-07T07:44:16.788Z</time></trkpt><trkpt lat="38.4212343" lon="16.1808976"><ele>999.0</ele><time>2026-04-07T07:44:17.788Z</time></trkpt><trkpt lat="38.4213659" lon="16.1809369"><ele>1000.0</ele><time>2026-04-07T07:44:18.788Z</time></trkpt><trkpt lat="38.4215007" lon="16.1809815"><ele>1001.0</ele><time>2026-04-07T07:44:19.788Z</time></trkpt><trkpt lat="38.4216385" lon="16.1810284"><ele>1002.0</ele><time>2026-04-07T07:44:20.789Z</time></trkpt><trkpt lat="38.4217771" lon="16.1810793"><ele>1002.0</ele><time>2026-04-07T07:44:21.789Z</time></trkpt><trkpt lat="38.4219229" lon="16.1811361"><ele>1002.0</ele><time>2026-04-07T07:44:22.789Z</time></trkpt><trkpt lat="38.422065" lon="16.1811931"><ele>1002.0</ele><time>2026-04-07T07:44:23.789Z</time></trkpt><trkpt lat="38.4221978" lon="16.1812431"><ele>1002.0</ele><time>2026-04-07T07:44:24.788Z</time></trkpt><trkpt lat="38.4223277" lon="16.1812979"><ele>1002.0</ele><time>2026-04-07T07:44:25.789Z</time></trkpt><trkpt lat="38.4224414" lon="16.1813536"><ele>1002.0</ele><time>2026-04-07T07:44:26.788Z</time></trkpt><trkpt lat="38.4225504" lon="16.1814241"><ele>1002.0</ele><time>2026-04-07T07:44:27.788Z</time></trkpt><trkpt lat="38.4226657" lon="16.1815274"><ele>1002.0</ele><time>2026-04-07T07:44:28.789Z</time></trkpt><trkpt lat="38.4227628" lon="16.1816595"><ele>1001.75</ele><time>2026-04-07T07:44:29.788Z</time></trkpt><trkpt lat="38.4228473" lon="16.1818081"><ele>1001.5</ele><time>2026-04-07T07:44:30.789Z</time></trkpt><trkpt lat="38.4229265" lon="16.1819562"><ele>1001.25</ele><time>2026-04-07T07:44:31.789Z</time></trkpt><trkpt lat="38.4230252" lon="16.1820803"><ele>1001.0</ele><time>2026-04-07T07:44:32.789Z</time></trkpt><trkpt lat="38.4231428" lon="16.182177"><ele>999.3333333333334</ele><time>2026-04-07T07:44:33.789Z</time></trkpt><trkpt lat="38.4232789" lon="16.1822591"><ele>997.6666666666667</ele><time>2026-04-07T07:44:34.789Z</time></trkpt><trkpt lat="38.4234266" lon="16.1823148"><ele>996.0</ele><time>2026-04-07T07:44:35.789Z</time></trkpt><trkpt lat="38.4235876" lon="16.1823408"><ele>995.6666666666667</ele><time>2026-04-07T07:44:36.789Z</time></trkpt><trkpt lat="38.4237491" lon="16.182352"><ele>995.3333333333334</ele><time>2026-04-07T07:44:37.788Z</time></trkpt><trkpt lat="38.4239144" lon="16.1823656"><ele>995.0</ele><time>2026-04-07T07:44:38.788Z</time></trkpt><trkpt lat="38.4240807" lon="16.1823721"><ele>995.0</ele><time>2026-04-07T07:44:39.788Z</time></trkpt><trkpt lat="38.4242461" lon="16.182379"><ele>995.0</ele><time>2026-04-07T07:44:40.788Z</time></trkpt><trkpt lat="38.4244111" lon="16.1823793"><ele>995.0</ele><time>2026-04-07T07:44:41.788Z</time></trkpt><trkpt lat="38.4245715" lon="16.1823885"><ele>997.3333333333334</ele><time>2026-04-07T07:44:42.788Z</time></trkpt><trkpt lat="38.4247352" lon="16.1823995"><ele>999.6666666666667</ele><time>2026-04-07T07:44:43.789Z</time></trkpt><trkpt lat="38.424903" lon="16.1824011"><ele>1002.0</ele><time>2026-04-07T07:44:44.788Z</time></trkpt><trkpt lat="38.4250668" lon="16.1824043"><ele>1002.0</ele><time>2026-04-07T07:44:45.789Z</time></trkpt><trkpt lat="38.425213" lon="16.1824193"><ele>1002.0</ele><time>2026-04-07T07:44:46.789Z</time></trkpt><trkpt lat="38.4253428" lon="16.1824502"><ele>1002.0</ele><time>2026-04-07T07:44:47.788Z</time></trkpt><trkpt lat="38.4254633" lon="16.1824848"><ele>1002.0</ele><time>2026-04-07T07:44:48.788Z</time></trkpt><trkpt lat="38.4255799" lon="16.1825437"><ele>1003.0</ele><time>2026-04-07T07:44:49.789Z</time></trkpt><trkpt lat="38.4257022" lon="16.1826224"><ele>1004.0</ele><time>2026-04-07T07:44:50.789Z</time></trkpt><trkpt lat="38.4258157" lon="16.1827199"><ele>1005.0</ele><time>2026-04-07T07:44:51.788Z</time></trkpt><trkpt lat="38.4259048" lon="16.1828463"><ele>1006.0</ele><time>2026-04-07T07:44:52.788Z</time></trkpt><trkpt lat="38.4259724" lon="16.1830032"><ele>1006.0</ele><time>2026-04-07T07:44:53.788Z</time></trkpt><trkpt lat="38.4260143" lon="16.1831759"><ele>1006.0</ele><time>2026-04-07T07:44:54.788Z</time></trkpt><trkpt lat="38.4260476" lon="16.1833628"><ele>1006.0</ele><time>2026-04-07T07:44:55.788Z</time></trkpt><trkpt lat="38.4260658" lon="16.1835653"><ele>1006.0</ele><time>2026-04-07T07:44:56.789Z</time></trkpt><trkpt lat="38.4260646" lon="16.1837941"><ele>1006.0</ele><time>2026-04-07T07:44:57.788Z</time></trkpt><trkpt lat="38.4260541" lon="16.1840196"><ele>1006.0</ele><time>2026-04-07T07:44:58.788Z</time></trkpt><trkpt lat="38.4260434" lon="16.1842397"><ele>1006.6666666666666</ele><time>2026-04-07T07:44:59.788Z</time></trkpt><trkpt lat="38.4260449" lon="16.1844463"><ele>1007.3333333333333</ele><time>2026-04-07T07:45:00.789Z</time></trkpt><trkpt lat="38.426056" lon="16.1846483"><ele>1008.0</ele><time>2026-04-07T07:45:01.788Z</time></trkpt><trkpt lat="38.426062" lon="16.1848393"><ele>1007.0</ele><time>2026-04-07T07:45:02.788Z</time></trkpt><trkpt lat="38.4260679" lon="16.1850317"><ele>1006.0</ele><time>2026-04-07T07:45:03.788Z</time></trkpt><trkpt lat="38.4260643" lon="16.1852191"><ele>1005.0</ele><time>2026-04-07T07:45:04.788Z</time></trkpt><trkpt lat="38.4260621" lon="16.1854029"><ele>1004.0</ele><time>2026-04-07T07:45:05.788Z</time></trkpt><trkpt lat="38.4260564" lon="16.185581"><ele>1004.0</ele><time>2026-04-07T07:45:06.788Z</time></trkpt><trkpt lat="38.4260183" lon="16.1857417"><ele>1004.0</ele><time>2026-04-07T07:45:07.788Z</time></trkpt><trkpt lat="38.425955" lon="16.1859033"><ele>1004.0</ele><time>2026-04-07T07:45:08.788Z</time></trkpt><trkpt lat="38.425885" lon="16.18608"><ele>1004.0</ele><time>2026-04-07T07:45:09.789Z</time></trkpt><trkpt lat="38.4258" lon="16.1862383"><ele>1004.0</ele><time>2026-04-07T07:45:10.788Z</time></trkpt><trkpt lat="38.42571" lon="16.18637"><ele>1004.0</ele><time>2026-04-07T07:45:11.788Z</time></trkpt><trkpt lat="38.4256417" lon="16.186505"><ele>1004.0</ele><time>2026-04-07T07:45:12.788Z</time></trkpt><trkpt lat="38.42561" lon="16.1866567"><ele>1004.0</ele><time>2026-04-07T07:45:13.789Z</time></trkpt><trkpt lat="38.4256233" lon="16.18682"><ele>1004.25</ele><time>2026-04-07T07:45:14.788Z</time></trkpt><trkpt lat="38.425655" lon="16.18696"><ele>1004.5</ele><time>2026-04-07T07:45:15.788Z</time></trkpt><trkpt lat="38.425715" lon="16.187085"><ele>1004.75</ele><time>2026-04-07T07:45:16.788Z</time></trkpt><trkpt lat="38.4258183" lon="16.1872183"><ele>1005.0</ele><time>2026-04-07T07:45:17.788Z</time></trkpt><trkpt lat="38.4259233" lon="16.18735"><ele>1000.3333333333333</ele><time>2026-04-07T07:45:18.789Z</time></trkpt><trkpt lat="38.4260417" lon="16.18748"><ele>995.6666666666666</ele><time>2026-04-07T07:45:19.788Z</time></trkpt><trkpt lat="38.4261667" lon="16.1876067"><ele>991.0</ele><time>2026-04-07T07:45:20.788Z</time></trkpt><trkpt lat="38.426285" lon="16.187755"><ele>990.3333333333333</ele><time>2026-04-07T07:45:21.788Z</time></trkpt><trkpt lat="38.4264233" lon="16.1879"><ele>989.6666666666667</ele><time>2026-04-07T07:45:22.788Z</time></trkpt><trkpt lat="38.42656" lon="16.18804"><ele>989.0</ele><time>2026-04-07T07:45:23.788Z</time></trkpt><trkpt lat="38.4267033" lon="16.18818"><ele>989.0</ele><time>2026-04-07T07:45:24.789Z</time></trkpt><trkpt lat="38.4268417" lon="16.1883267"><ele>989.0</ele><time>2026-04-07T07:45:25.788Z</time></trkpt><trkpt lat="38.426965" lon="16.1884917"><ele>989.0</ele><time>2026-04-07T07:45:26.788Z</time></trkpt><trkpt lat="38.42708" lon="16.1886517"><ele>992.0</ele><time>2026-04-07T07:45:27.788Z</time></trkpt><trkpt lat="38.427175" lon="16.18882"><ele>995.0</ele><time>2026-04-07T07:45:28.789Z</time></trkpt><trkpt lat="38.4272583" lon="16.1890133"><ele>998.0</ele><time>2026-04-07T07:45:29.788Z</time></trkpt><trkpt lat="38.42733" lon="16.1892067"><ele>998.3333333333334</ele><time>2026-04-07T07:45:30.788Z</time></trkpt><trkpt lat="38.42739" lon="16.1894067"><ele>998.6666666666667</ele><time>2026-04-07T07:45:31.789Z</time></trkpt><trkpt lat="38.427435" lon="16.1896133"><ele>999.0</ele><time>2026-04-07T07:45:32.789Z</time></trkpt><trkpt lat="38.4274633" lon="16.189825"><ele>1000.6666666666667</ele><time>2026-04-07T07:45:33.788Z</time></trkpt><trkpt lat="38.4274767" lon="16.19002"><ele>1002.3333333333334</ele><time>2026-04-07T07:45:34.788Z</time></trkpt><trkpt lat="38.4274483" lon="16.1902183"><ele>1004.0</ele><time>2026-04-07T07:45:35.788Z</time></trkpt><trkpt lat="38.4274217" lon="16.1904183"><ele>1004.0</ele><time>2026-04-07T07:45:36.789Z</time></trkpt><trkpt lat="38.4273817" lon="16.1906033"><ele>1004.0</ele><time>2026-04-07T07:45:37.788Z</time></trkpt><trkpt lat="38.4273233" lon="16.19077"><ele>1004.0</ele><time>2026-04-07T07:45:38.788Z</time></trkpt><trkpt lat="38.4272367" lon="16.1909217"><ele>1004.0</ele><time>2026-04-07T07:45:39.789Z</time></trkpt><trkpt lat="38.4271567" lon="16.191085"><ele>1007.6666666666667</ele><time>2026-04-07T07:45:40.788Z</time></trkpt><trkpt lat="38.4270783" lon="16.1912667"><ele>1011.3333333333333</ele><time>2026-04-07T07:45:41.789Z</time></trkpt><trkpt lat="38.4270183" lon="16.19144"><ele>1015.0</ele><time>2026-04-07T07:45:42.788Z</time></trkpt><trkpt lat="38.4269583" lon="16.1916117"><ele>1015.0</ele><time>2026-04-07T07:45:43.788Z</time></trkpt><trkpt lat="38.426895" lon="16.1918017"><ele>1015.0</ele><time>2026-04-07T07:45:44.788Z</time></trkpt><trkpt lat="38.42682" lon="16.19199"><ele>1015.0</ele><time>2026-04-07T07:45:45.788Z</time></trkpt><trkpt lat="38.426755" lon="16.19218"><ele>1012.3333333333333</ele><time>2026-04-07T07:45:46.788Z</time></trkpt><trkpt lat="38.4266783" lon="16.192375"><ele>1009.6666666666667</ele><time>2026-04-07T07:45:47.788Z</time></trkpt><trkpt lat="38.4265883" lon="16.1925633"><ele>1007.0</ele><time>2026-04-07T07:45:48.788Z</time></trkpt><trkpt lat="38.4264817" lon="16.1927317"><ele>1007.0</ele><time>2026-04-07T07:45:49.789Z</time></trkpt><trkpt lat="38.4263817" lon="16.1928933"><ele>1007.0</ele><time>2026-04-07T07:45:50.789Z</time></trkpt><trkpt lat="38.426275" lon="16.1930317"><ele>1007.0</ele><time>2026-04-07T07:45:51.788Z</time></trkpt><trkpt lat="38.426175" lon="16.193165"><ele>1007.5</ele><time>2026-04-07T07:45:52.788Z</time></trkpt><trkpt lat="38.4260883" lon="16.193295"><ele>1008.0</ele><time>2026-04-07T07:45:53.788Z</time></trkpt><trkpt lat="38.4260233" lon="16.1934317"><ele>1008.5</ele><time>2026-04-07T07:45:54.788Z</time></trkpt><trkpt lat="38.425985" lon="16.19358"><ele>1009.0</ele><time>2026-04-07T07:45:55.789Z</time></trkpt><trkpt lat="38.42597" lon="16.1937367"><ele>1009.0</ele><time>2026-04-07T07:45:56.788Z</time></trkpt><trkpt lat="38.4259783" lon="16.1938917"><ele>1009.0</ele><time>2026-04-07T07:45:57.788Z</time></trkpt><trkpt lat="38.4260167" lon="16.19405"><ele>1009.0</ele><time>2026-04-07T07:45:58.788Z</time></trkpt><trkpt lat="38.4260617" lon="16.1942133"><ele>1009.0</ele><time>2026-04-07T07:45:59.788Z</time></trkpt><trkpt lat="38.42612" lon="16.19438"><ele>1009.25</ele><time>2026-04-07T07:46:00.788Z</time></trkpt><trkpt lat="38.4261933" lon="16.1945367"><ele>1009.5</ele><time>2026-04-07T07:46:01.789Z</time></trkpt><trkpt lat="38.4262767" lon="16.1946983"><ele>1009.75</ele><time>2026-04-07T07:46:02.788Z</time></trkpt><trkpt lat="38.4263683" lon="16.194855"><ele>1010.0</ele><time>2026-04-07T07:46:03.788Z</time></trkpt><trkpt lat="38.426445" lon="16.1950117"><ele>1010.0</ele><time>2026-04-07T07:46:04.788Z</time></trkpt><trkpt lat="38.4265217" lon="16.1951717"><ele>1010.0</ele><time>2026-04-07T07:46:05.788Z</time></trkpt><trkpt lat="38.426585" lon="16.1953383"><ele>1010.0</ele><time>2026-04-07T07:46:06.788Z</time></trkpt><trkpt lat="38.4266467" lon="16.195515"><ele>1010.0</ele><time>2026-04-07T07:46:07.789Z</time></trkpt><trkpt lat="38.4267067" lon="16.1957"><ele>1011.5</ele><time>2026-04-07T07:46:08.788Z</time></trkpt><trkpt lat="38.42675" lon="16.19588"><ele>1013.0</ele><time>2026-04-07T07:46:09.788Z</time></trkpt><trkpt lat="38.4267883" lon="16.1960617"><ele>1014.5</ele><time>2026-04-07T07:46:10.788Z</time></trkpt><trkpt lat="38.42681" lon="16.1962417"><ele>1016.0</ele><time>2026-04-07T07:46:11.788Z</time></trkpt><trkpt lat="38.426815" lon="16.1964267"><ele>1016.5</ele><time>2026-04-07T07:46:12.789Z</time></trkpt><trkpt lat="38.42682" lon="16.1966183"><ele>1017.0</ele><time>2026-04-07T07:46:13.788Z</time></trkpt><trkpt lat="38.4268217" lon="16.196805"><ele>1017.5</ele><time>2026-04-07T07:46:14.788Z</time></trkpt><trkpt lat="38.4268367" lon="16.1969933"><ele>1018.0</ele><time>2026-04-07T07:46:15.789Z</time></trkpt><trkpt lat="38.426865" lon="16.1971767"><ele>1017.5</ele><time>2026-04-07T07:46:16.788Z</time></trkpt><trkpt lat="38.4268983" lon="16.1973483"><ele>1017.0</ele><time>2026-04-07T07:46:17.788Z</time></trkpt><trkpt lat="38.4269433" lon="16.1975033"><ele>1016.5</ele><time>2026-04-07T07:46:18.788Z</time></trkpt><trkpt lat="38.4270067" lon="16.1976567"><ele>1016.0</ele><time>2026-04-07T07:46:19.788Z</time></trkpt><trkpt lat="38.4270833" lon="16.1977917"><ele>1015.0</ele><time>2026-04-07T07:46:20.788Z</time></trkpt><trkpt lat="38.4271883" lon="16.1979217"><ele>1014.0</ele><time>2026-04-07T07:46:21.788Z</time></trkpt><trkpt lat="38.4272883" lon="16.1980567"><ele>1013.0</ele><time>2026-04-07T07:46:22.789Z</time></trkpt><trkpt lat="38.427395" lon="16.1981933"><ele>1012.0</ele><time>2026-04-07T07:46:23.789Z</time></trkpt><trkpt lat="38.4275083" lon="16.19834"><ele>1012.0</ele><time>2026-04-07T07:46:24.788Z</time></trkpt><trkpt lat="38.4276183" lon="16.1984933"><ele>1012.0</ele><time>2026-04-07T07:46:25.788Z</time></trkpt><trkpt lat="38.4277267" lon="16.1986417"><ele>1012.0</ele><time>2026-04-07T07:46:26.788Z</time></trkpt><trkpt lat="38.4278467" lon="16.19879"><ele>1012.0</ele><time>2026-04-07T07:46:27.788Z</time></trkpt><trkpt lat="38.4279633" lon="16.1989467"><ele>1012.0</ele><time>2026-04-07T07:46:28.788Z</time></trkpt><trkpt lat="38.4280833" lon="16.1990917"><ele>1012.0</ele><time>2026-04-07T07:46:29.788Z</time></trkpt><trkpt lat="38.4281933" lon="16.1992367"><ele>1012.3333333333333</ele><time>2026-04-07T07:46:30.789Z</time></trkpt><trkpt lat="38.4282817" lon="16.1993867"><ele>1012.6666666666667</ele><time>2026-04-07T07:46:31.788Z</time></trkpt><trkpt lat="38.428365" lon="16.199535"><ele>1013.0</ele><time>2026-04-07T07:46:32.788Z</time></trkpt><trkpt lat="38.4284683" lon="16.199715"><ele>1016.3333333333334</ele><time>2026-04-07T07:46:33.788Z</time></trkpt><trkpt lat="38.4285517" lon="16.199895"><ele>1019.6666666666667</ele><time>2026-04-07T07:46:34.789Z</time></trkpt><trkpt lat="38.4286217" lon="16.2000783"><ele>1023.0</ele><time>2026-04-07T07:46:35.788Z</time></trkpt><trkpt lat="38.42868" lon="16.2002667"><ele>1023.0</ele><time>2026-04-07T07:46:36.788Z</time></trkpt><trkpt lat="38.4287217" lon="16.20046"><ele>1023.0</ele><time>2026-04-07T07:46:37.788Z</time></trkpt><trkpt lat="38.42873" lon="16.2006533"><ele>1023.0</ele><time>2026-04-07T07:46:38.789Z</time></trkpt><trkpt lat="38.428725" lon="16.2008383"><ele>1025.6666666666667</ele><time>2026-04-07T07:46:39.788Z</time></trkpt><trkpt lat="38.4286967" lon="16.2010317"><ele>1028.3333333333335</ele><time>2026-04-07T07:46:40.788Z</time></trkpt><trkpt lat="38.4286517" lon="16.20122"><ele>1031.0</ele><time>2026-04-07T07:46:41.788Z</time></trkpt><trkpt lat="38.42858" lon="16.2013983"><ele>1031.6666666666667</ele><time>2026-04-07T07:46:42.788Z</time></trkpt><trkpt lat="38.4285233" lon="16.20158"><ele>1032.3333333333333</ele><time>2026-04-07T07:46:43.788Z</time></trkpt><trkpt lat="38.4284733" lon="16.20177"><ele>1033.0</ele><time>2026-04-07T07:46:44.789Z</time></trkpt><trkpt lat="38.4284483" lon="16.20196"><ele>1033.0</ele><time>2026-04-07T07:46:45.788Z</time></trkpt><trkpt lat="38.4284483" lon="16.2021517"><ele>1033.0</ele><time>2026-04-07T07:46:46.788Z</time></trkpt><trkpt lat="38.4284683" lon="16.2023483"><ele>1033.0</ele><time>2026-04-07T07:46:47.788Z</time></trkpt><trkpt lat="38.4285017" lon="16.2025383"><ele>1032.6666666666665</ele><time>2026-04-07T07:46:48.788Z</time></trkpt><trkpt lat="38.42855" lon="16.2027233"><ele>1032.3333333333333</ele><time>2026-04-07T07:46:49.788Z</time></trkpt><trkpt lat="38.428615" lon="16.2029117"><ele>1032.0</ele><time>2026-04-07T07:46:50.788Z</time></trkpt><trkpt lat="38.4286833" lon="16.20309"><ele>1032.3333333333333</ele><time>2026-04-07T07:46:51.788Z</time></trkpt><trkpt lat="38.428775" lon="16.2032667"><ele>1032.6666666666665</ele><time>2026-04-07T07:46:52.789Z</time></trkpt><trkpt lat="38.4288633" lon="16.20345"><ele>1033.0</ele><time>2026-04-07T07:46:53.789Z</time></trkpt><trkpt lat="38.4289517" lon="16.203625"><ele>1033.0</ele><time>2026-04-07T07:46:54.788Z</time></trkpt><trkpt lat="38.4290433" lon="16.2038"><ele>1033.0</ele><time>2026-04-07T07:46:55.788Z</time></trkpt><trkpt lat="38.429135" lon="16.2039867"><ele>1033.0</ele><time>2026-04-07T07:46:56.788Z</time></trkpt><trkpt lat="38.42922" lon="16.2041617"><ele>1032.3333333333333</ele><time>2026-04-07T07:46:57.788Z</time></trkpt><trkpt lat="38.4293083" lon="16.204345"><ele>1031.6666666666667</ele><time>2026-04-07T07:46:58.789Z</time></trkpt><trkpt lat="38.4293917" lon="16.2045417"><ele>1031.0</ele><time>2026-04-07T07:46:59.788Z</time></trkpt><trkpt lat="38.429465" lon="16.2047167"><ele>1030.0</ele><time>2026-04-07T07:47:00.788Z</time></trkpt><trkpt lat="38.4295467" lon="16.2049033"><ele>1029.0</ele><time>2026-04-07T07:47:01.789Z</time></trkpt><trkpt lat="38.4296433" lon="16.2050967"><ele>1028.0</ele><time>2026-04-07T07:47:02.788Z</time></trkpt><trkpt lat="38.42974" lon="16.2052683"><ele>1030.3333333333335</ele><time>2026-04-07T07:47:03.788Z</time></trkpt><trkpt lat="38.429845" lon="16.2054517"><ele>1032.6666666666667</ele><time>2026-04-07T07:47:04.788Z</time></trkpt><trkpt lat="38.4299133" lon="16.2056117"><ele>1035.0</ele><time>2026-04-07T07:47:05.788Z</time></trkpt><trkpt lat="38.42999" lon="16.205775"><ele>1035.0</ele><time>2026-04-07T07:47:06.788Z</time></trkpt><trkpt lat="38.4300783" lon="16.2058967"><ele>1035.0</ele><time>2026-04-07T07:47:07.788Z</time></trkpt><trkpt lat="38.4301783" lon="16.206"><ele>1035.0</ele><time>2026-04-07T07:47:08.789Z</time></trkpt><trkpt lat="38.430295" lon="16.2060917"><ele>1035.0</ele><time>2026-04-07T07:47:09.789Z</time></trkpt><trkpt lat="38.4304183" lon="16.2061817"><ele>1035.75</ele><time>2026-04-07T07:47:10.788Z</time></trkpt><trkpt lat="38.43054" lon="16.2062683"><ele>1036.5</ele><time>2026-04-07T07:47:11.788Z</time></trkpt><trkpt lat="38.4306583" lon="16.2063667"><ele>1037.25</ele><time>2026-04-07T07:47:12.789Z</time></trkpt><trkpt lat="38.4307817" lon="16.20648"><ele>1038.0</ele><time>2026-04-07T07:47:13.788Z</time></trkpt><trkpt lat="38.4309083" lon="16.2066017"><ele>1038.0</ele><time>2026-04-07T07:47:14.788Z</time></trkpt><trkpt lat="38.431025" lon="16.2067333"><ele>1038.0</ele><time>2026-04-07T07:47:15.788Z</time></trkpt><trkpt lat="38.4311283" lon="16.2068717"><ele>1038.0</ele><time>2026-04-07T07:47:16.788Z</time></trkpt><trkpt lat="38.4312217" lon="16.20701"><ele>1038.0</ele><time>2026-04-07T07:47:17.789Z</time></trkpt><trkpt lat="38.4312883" lon="16.20716"><ele>1037.3333333333333</ele><time>2026-04-07T07:47:18.788Z</time></trkpt><trkpt lat="38.4313483" lon="16.2073367"><ele>1036.6666666666665</ele><time>2026-04-07T07:47:19.788Z</time></trkpt><trkpt lat="38.4314017" lon="16.2075317"><ele>1036.0</ele><time>2026-04-07T07:47:20.788Z</time></trkpt><trkpt lat="38.43145" lon="16.20773"><ele>1036.0</ele><time>2026-04-07T07:47:21.789Z</time></trkpt><trkpt lat="38.4314917" lon="16.2079417"><ele>1036.0</ele><time>2026-04-07T07:47:22.788Z</time></trkpt><trkpt lat="38.4315317" lon="16.20817"><ele>1036.0</ele><time>2026-04-07T07:47:23.788Z</time></trkpt><trkpt lat="38.43158" lon="16.2083967"><ele>1035.6666666666665</ele><time>2026-04-07T07:47:24.789Z</time></trkpt><trkpt lat="38.4316433" lon="16.2086267"><ele>1035.3333333333333</ele><time>2026-04-07T07:47:25.788Z</time></trkpt><trkpt lat="38.431705" lon="16.20886"><ele>1035.0</ele><time>2026-04-07T07:47:26.788Z</time></trkpt><trkpt lat="38.4317583" lon="16.2090767"><ele>1036.3333333333333</ele><time>2026-04-07T07:47:27.788Z</time></trkpt><trkpt lat="38.4318017" lon="16.2092767"><ele>1037.6666666666665</ele><time>2026-04-07T07:47:28.788Z</time></trkpt><trkpt lat="38.43185" lon="16.209485"><ele>1039.0</ele><time>2026-04-07T07:47:29.789Z</time></trkpt><trkpt lat="38.4318917" lon="16.20968"><ele>1041.0</ele><time>2026-04-07T07:47:30.789Z</time></trkpt><trkpt lat="38.4319667" lon="16.2098983"><ele>1043.0</ele><time>2026-04-07T07:47:31.788Z</time></trkpt><trkpt lat="38.4320417" lon="16.2101017"><ele>1045.0</ele><time>2026-04-07T07:47:32.788Z</time></trkpt><trkpt lat="38.4321267" lon="16.2102717"><ele>1048.0</ele><time>2026-04-07T07:47:33.789Z</time></trkpt><trkpt lat="38.4322283" lon="16.2104333"><ele>1051.0</ele><time>2026-04-07T07:47:34.788Z</time></trkpt><trkpt lat="38.432325" lon="16.2105667"><ele>1054.0</ele><time>2026-04-07T07:47:35.788Z</time></trkpt><trkpt lat="38.4324517" lon="16.2107083"><ele>1054.0</ele><time>2026-04-07T07:47:36.788Z</time></trkpt><trkpt lat="38.4325833" lon="16.21084"><ele>1054.0</ele><time>2026-04-07T07:47:37.788Z</time></trkpt><trkpt lat="38.4327233" lon="16.2109783"><ele>1054.0</ele><time>2026-04-07T07:47:38.788Z</time></trkpt><trkpt lat="38.43286" lon="16.2111067"><ele>1054.3333333333333</ele><time>2026-04-07T07:47:39.788Z</time></trkpt><trkpt lat="38.43298" lon="16.21125"><ele>1054.6666666666667</ele><time>2026-04-07T07:47:40.788Z</time></trkpt><trkpt lat="38.4330817" lon="16.2114033"><ele>1055.0</ele><time>2026-04-07T07:47:41.788Z</time></trkpt><trkpt lat="38.4331717" lon="16.211585"><ele>1051.0</ele><time>2026-04-07T07:47:42.789Z</time></trkpt><trkpt lat="38.4332367" lon="16.2117667"><ele>1047.0</ele><time>2026-04-07T07:47:43.789Z</time></trkpt><trkpt lat="38.4332517" lon="16.2119867"><ele>1043.0</ele><time>2026-04-07T07:47:44.788Z</time></trkpt><trkpt lat="38.4332667" lon="16.21221"><ele>1043.3333333333335</ele><time>2026-04-07T07:47:45.789Z</time></trkpt><trkpt lat="38.4332483" lon="16.212445"><ele>1043.6666666666667</ele><time>2026-04-07T07:47:46.788Z</time></trkpt><trkpt lat="38.4331817" lon="16.21267"><ele>1044.0</ele><time>2026-04-07T07:47:47.788Z</time></trkpt><trkpt lat="38.4331133" lon="16.2128917"><ele>1044.0</ele><time>2026-04-07T07:47:48.788Z</time></trkpt><trkpt lat="38.4330233" lon="16.2130817"><ele>1044.0</ele><time>2026-04-07T07:47:49.788Z</time></trkpt><trkpt lat="38.43296" lon="16.21325"><ele>1044.0</ele><time>2026-04-07T07:47:50.788Z</time></trkpt><trkpt lat="38.4329233" lon="16.2134167"><ele>1043.25</ele><time>2026-04-07T07:47:51.788Z</time></trkpt><trkpt lat="38.43293" lon="16.2135883"><ele>1042.5</ele><time>2026-04-07T07:47:52.788Z</time></trkpt><trkpt lat="38.4329733" lon="16.2137483"><ele>1041.75</ele><time>2026-04-07T07:47:53.788Z</time></trkpt><trkpt lat="38.4330367" lon="16.21388"><ele>1041.0</ele><time>2026-04-07T07:47:54.788Z</time></trkpt><trkpt lat="38.433135" lon="16.21401"><ele>1043.6666666666667</ele><time>2026-04-07T07:47:55.789Z</time></trkpt><trkpt lat="38.4332667" lon="16.214185"><ele>1046.3333333333335</ele><time>2026-04-07T07:47:56.788Z</time></trkpt><trkpt lat="38.43338" lon="16.2143167"><ele>1049.0</ele><time>2026-04-07T07:47:57.789Z</time></trkpt><trkpt lat="38.4334733" lon="16.2144517"><ele>1049.0</ele><time>2026-04-07T07:47:58.788Z</time></trkpt><trkpt lat="38.433585" lon="16.2145783"><ele>1049.0</ele><time>2026-04-07T07:47:59.789Z</time></trkpt><trkpt lat="38.433705" lon="16.214705"><ele>1049.0</ele><time>2026-04-07T07:48:00.788Z</time></trkpt><trkpt lat="38.433815" lon="16.2148433"><ele>1051.0</ele><time>2026-04-07T07:48:01.788Z</time></trkpt><trkpt lat="38.433925" lon="16.2149767"><ele>1053.0</ele><time>2026-04-07T07:48:02.788Z</time></trkpt><trkpt lat="38.4340367" lon="16.2151"><ele>1055.0</ele><time>2026-04-07T07:48:03.788Z</time></trkpt><trkpt lat="38.4341517" lon="16.215225"><ele>1055.0</ele><time>2026-04-07T07:48:04.788Z</time></trkpt><trkpt lat="38.4342683" lon="16.2153417"><ele>1055.0</ele><time>2026-04-07T07:48:05.788Z</time></trkpt><trkpt lat="38.4343917" lon="16.2154367"><ele>1055.0</ele><time>2026-04-07T07:48:06.788Z</time></trkpt><trkpt lat="38.4345333" lon="16.21551"><ele>1055.0</ele><time>2026-04-07T07:48:07.789Z</time></trkpt><trkpt lat="38.4346817" lon="16.2155783"><ele>1057.3333333333335</ele><time>2026-04-07T07:48:08.789Z</time></trkpt><trkpt lat="38.434835" lon="16.2156217"><ele>1059.6666666666667</ele><time>2026-04-07T07:48:09.789Z</time></trkpt><trkpt lat="38.4349933" lon="16.2156567"><ele>1062.0</ele><time>2026-04-07T07:48:10.788Z</time></trkpt><trkpt lat="38.4351517" lon="16.2156717"><ele>1062.0</ele><time>2026-04-07T07:48:11.788Z</time></trkpt><trkpt lat="38.4353267" lon="16.2156667"><ele>1062.0</ele><time>2026-04-07T07:48:12.788Z</time></trkpt><trkpt lat="38.4354917" lon="16.215655"><ele>1062.0</ele><time>2026-04-07T07:48:13.789Z</time></trkpt><trkpt lat="38.4356417" lon="16.2156283"><ele>1061.5</ele><time>2026-04-07T07:48:14.789Z</time></trkpt><trkpt lat="38.4357833" lon="16.2155933"><ele>1061.0</ele><time>2026-04-07T07:48:15.788Z</time></trkpt><trkpt lat="38.4359333" lon="16.21555"><ele>1060.5</ele><time>2026-04-07T07:48:16.788Z</time></trkpt><trkpt lat="38.4360767" lon="16.2155133"><ele>1060.0</ele><time>2026-04-07T07:48:17.788Z</time></trkpt><trkpt lat="38.4362133" lon="16.2154817"><ele>1058.0</ele><time>2026-04-07T07:48:18.788Z</time></trkpt><trkpt lat="38.4363483" lon="16.215465"><ele>1056.0</ele><time>2026-04-07T07:48:19.788Z</time></trkpt><trkpt lat="38.4364817" lon="16.21549"><ele>1054.0</ele><time>2026-04-07T07:48:20.788Z</time></trkpt><trkpt lat="38.43662" lon="16.21555"><ele>1052.0</ele><time>2026-04-07T07:48:21.789Z</time></trkpt><trkpt lat="38.4367483" lon="16.2156567"><ele>1057.0</ele><time>2026-04-07T07:48:22.788Z</time></trkpt><trkpt lat="38.43684" lon="16.2157667"><ele>1062.0</ele><time>2026-04-07T07:48:23.788Z</time></trkpt><trkpt lat="38.4369117" lon="16.2158917"><ele>1067.0</ele><time>2026-04-07T07:48:24.789Z</time></trkpt><trkpt lat="38.4369683" lon="16.21603"><ele>1072.0</ele><time>2026-04-07T07:48:25.789Z</time></trkpt><trkpt lat="38.4369933" lon="16.2161817"><ele>1072.0</ele><time>2026-04-07T07:48:26.788Z</time></trkpt><trkpt lat="38.43699" lon="16.2163367"><ele>1072.0</ele><time>2026-04-07T07:48:27.789Z</time></trkpt><trkpt lat="38.4369717" lon="16.2164833"><ele>1072.0</ele><time>2026-04-07T07:48:28.789Z</time></trkpt><trkpt lat="38.43693" lon="16.21662"><ele>1072.0</ele><time>2026-04-07T07:48:29.788Z</time></trkpt><trkpt lat="38.436835" lon="16.21677"><ele>1074.0</ele><time>2026-04-07T07:48:30.788Z</time></trkpt><trkpt lat="38.4367317" lon="16.2169033"><ele>1076.0</ele><time>2026-04-07T07:48:31.789Z</time></trkpt><trkpt lat="38.436625" lon="16.2170633"><ele>1078.0</ele><time>2026-04-07T07:48:32.788Z</time></trkpt><trkpt lat="38.43652" lon="16.2172417"><ele>1078.6666666666665</ele><time>2026-04-07T07:48:33.788Z</time></trkpt><trkpt lat="38.4364167" lon="16.217405"><ele>1079.3333333333333</ele><time>2026-04-07T07:48:34.788Z</time></trkpt><trkpt lat="38.4363117" lon="16.2175717"><ele>1080.0</ele><time>2026-04-07T07:48:35.788Z</time></trkpt><trkpt lat="38.4361967" lon="16.217725"><ele>1080.0</ele><time>2026-04-07T07:48:36.788Z</time></trkpt><trkpt lat="38.4360917" lon="16.217885"><ele>1080.0</ele><time>2026-04-07T07:48:37.789Z</time></trkpt><trkpt lat="38.4360217" lon="16.2180683"><ele>1080.0</ele><time>2026-04-07T07:48:38.788Z</time></trkpt><trkpt lat="38.4359683" lon="16.2182333"><ele>1080.75</ele><time>2026-04-07T07:48:39.788Z</time></trkpt><trkpt lat="38.4359367" lon="16.2184117"><ele>1081.5</ele><time>2026-04-07T07:48:40.788Z</time></trkpt><trkpt lat="38.435935" lon="16.2185833"><ele>1082.25</ele><time>2026-04-07T07:48:41.788Z</time></trkpt><trkpt lat="38.4359433" lon="16.2187483"><ele>1083.0</ele><time>2026-04-07T07:48:42.789Z</time></trkpt><trkpt lat="38.4359717" lon="16.218885"><ele>1085.5</ele><time>2026-04-07T07:48:43.788Z</time></trkpt><trkpt lat="38.436015" lon="16.2190117"><ele>1088.0</ele><time>2026-04-07T07:48:44.788Z</time></trkpt><trkpt lat="38.4360667" lon="16.2191533"><ele>1090.5</ele><time>2026-04-07T07:48:45.789Z</time></trkpt><trkpt lat="38.43611" lon="16.2193083"><ele>1093.0</ele><time>2026-04-07T07:48:46.788Z</time></trkpt><trkpt lat="38.4361533" lon="16.2194683"><ele>1093.0</ele><time>2026-04-07T07:48:47.788Z</time></trkpt><trkpt lat="38.43619" lon="16.2196367"><ele>1093.0</ele><time>2026-04-07T07:48:48.788Z</time></trkpt><trkpt lat="38.436235" lon="16.2198133"><ele>1093.0</ele><time>2026-04-07T07:48:49.789Z</time></trkpt><trkpt lat="38.4362783" lon="16.2199983"><ele>1093.0</ele><time>2026-04-07T07:48:50.788Z</time></trkpt><trkpt lat="38.43632" lon="16.2201867"><ele>1094.75</ele><time>2026-04-07T07:48:51.788Z</time></trkpt><trkpt lat="38.4363467" lon="16.22036"><ele>1096.5</ele><time>2026-04-07T07:48:52.788Z</time></trkpt><trkpt lat="38.43634" lon="16.2205133"><ele>1098.25</ele><time>2026-04-07T07:48:53.788Z</time></trkpt><trkpt lat="38.4363117" lon="16.220645"><ele>1100.0</ele><time>2026-04-07T07:48:54.789Z</time></trkpt><trkpt lat="38.4362533" lon="16.2207667"><ele>1100.0</ele><time>2026-04-07T07:48:55.788Z</time></trkpt><trkpt lat="38.43617" lon="16.22086"><ele>1100.0</ele><time>2026-04-07T07:48:56.788Z</time></trkpt><trkpt lat="38.4360733" lon="16.220915"><ele>1100.0</ele><time>2026-04-07T07:48:57.789Z</time></trkpt><trkpt lat="38.4359683" lon="16.2209417"><ele>1100.0</ele><time>2026-04-07T07:48:58.789Z</time></trkpt><trkpt lat="38.4358783" lon="16.2209633"><ele>1100.0</ele><time>2026-04-07T07:48:59.788Z</time></trkpt><trkpt lat="38.4357767" lon="16.220945"><ele>1100.0</ele><time>2026-04-07T07:49:00.788Z</time></trkpt><trkpt lat="38.4356767" lon="16.22091"><ele>1100.0</ele><time>2026-04-07T07:49:01.788Z</time></trkpt><trkpt lat="38.4355783" lon="16.2208567"><ele>1100.0</ele><time>2026-04-07T07:49:02.789Z</time></trkpt><trkpt lat="38.435475" lon="16.2208083"><ele>1100.0</ele><time>2026-04-07T07:49:03.788Z</time></trkpt><trkpt lat="38.4353617" lon="16.220755"><ele>1100.0</ele><time>2026-04-07T07:49:04.788Z</time></trkpt><trkpt lat="38.43524" lon="16.2207233"><ele>1103.0</ele><time>2026-04-07T07:49:05.789Z</time></trkpt><trkpt lat="38.4351233" lon="16.2206967"><ele>1106.0</ele><time>2026-04-07T07:49:06.788Z</time></trkpt><trkpt lat="38.4350017" lon="16.22068"><ele>1109.0</ele><time>2026-04-07T07:49:07.789Z</time></trkpt><trkpt lat="38.4348817" lon="16.220675"><ele>1112.0</ele><time>2026-04-07T07:49:08.788Z</time></trkpt><trkpt lat="38.4347617" lon="16.220705"><ele>1112.0</ele><time>2026-04-07T07:49:09.788Z</time></trkpt><trkpt lat="38.4346483" lon="16.2207717"><ele>1112.0</ele><time>2026-04-07T07:49:10.788Z</time></trkpt><trkpt lat="38.4345267" lon="16.2208783"><ele>1112.0</ele><time>2026-04-07T07:49:11.788Z</time></trkpt><trkpt lat="38.43442" lon="16.2209933"><ele>1112.0</ele><time>2026-04-07T07:49:12.788Z</time></trkpt><trkpt lat="38.4343317" lon="16.22118"><ele>1112.6666666666667</ele><time>2026-04-07T07:49:13.788Z</time></trkpt><trkpt lat="38.434255" lon="16.2213683"><ele>1113.3333333333333</ele><time>2026-04-07T07:49:14.788Z</time></trkpt><trkpt lat="38.43418" lon="16.221545"><ele>1114.0</ele><time>2026-04-07T07:49:15.788Z</time></trkpt><trkpt lat="38.434105" lon="16.221725"><ele>1114.0</ele><time>2026-04-07T07:49:16.789Z</time></trkpt><trkpt lat="38.4340133" lon="16.22188"><ele>1114.0</ele><time>2026-04-07T07:49:17.789Z</time></trkpt><trkpt lat="38.4339183" lon="16.2220033"><ele>1114.0</ele><time>2026-04-07T07:49:18.788Z</time></trkpt><trkpt lat="38.43384" lon="16.2221367"><ele>1114.0</ele><time>2026-04-07T07:49:19.788Z</time></trkpt><trkpt lat="38.4337883" lon="16.2222883"><ele>1114.25</ele><time>2026-04-07T07:49:20.788Z</time></trkpt><trkpt lat="38.4337633" lon="16.2224333"><ele>1114.5</ele><time>2026-04-07T07:49:21.788Z</time></trkpt><trkpt lat="38.433775" lon="16.2225783"><ele>1114.75</ele><time>2026-04-07T07:49:22.788Z</time></trkpt><trkpt lat="38.4338233" lon="16.22272"><ele>1115.0</ele><time>2026-04-07T07:49:23.788Z</time></trkpt><trkpt lat="38.4338967" lon="16.22285"><ele>1115.0</ele><time>2026-04-07T07:49:24.788Z</time></trkpt><trkpt lat="38.434015" lon="16.2229617"><ele>1115.0</ele><time>2026-04-07T07:49:25.788Z</time></trkpt><trkpt lat="38.4341417" lon="16.223065"><ele>1115.0</ele><time>2026-04-07T07:49:26.789Z</time></trkpt><trkpt lat="38.4342817" lon="16.2231483"><ele>1112.6666666666667</ele><time>2026-04-07T07:49:27.788Z</time></trkpt><trkpt lat="38.4344167" lon="16.2232467"><ele>1110.3333333333333</ele><time>2026-04-07T07:49:28.788Z</time></trkpt><trkpt lat="38.43456" lon="16.2233517"><ele>1108.0</ele><time>2026-04-07T07:49:29.788Z</time></trkpt><trkpt lat="38.4346967" lon="16.2234567"><ele>1108.0</ele><time>2026-04-07T07:49:30.789Z</time></trkpt><trkpt lat="38.4348317" lon="16.223575"><ele>1108.0</ele><time>2026-04-07T07:49:31.788Z</time></trkpt><trkpt lat="38.4349767" lon="16.2236917"><ele>1108.0</ele><time>2026-04-07T07:49:32.788Z</time></trkpt><trkpt lat="38.4351183" lon="16.2238233"><ele>1108.0</ele><time>2026-04-07T07:49:33.789Z</time></trkpt><trkpt lat="38.4352367" lon="16.22395"><ele>1108.0</ele><time>2026-04-07T07:49:34.789Z</time></trkpt><trkpt lat="38.435325" lon="16.2240983"><ele>1108.0</ele><time>2026-04-07T07:49:35.788Z</time></trkpt><trkpt lat="38.435375" lon="16.2242533"><ele>1108.0</ele><time>2026-04-07T07:49:36.788Z</time></trkpt><trkpt lat="38.4353983" lon="16.22441"><ele>1108.5</ele><time>2026-04-07T07:49:37.789Z</time></trkpt><trkpt lat="38.4353967" lon="16.22457"><ele>1109.0</ele><time>2026-04-07T07:49:38.789Z</time></trkpt><trkpt lat="38.435375" lon="16.2247233"><ele>1109.5</ele><time>2026-04-07T07:49:39.788Z</time></trkpt><trkpt lat="38.4353417" lon="16.2248833"><ele>1110.0</ele><time>2026-04-07T07:49:40.788Z</time></trkpt><trkpt lat="38.435305" lon="16.2250433"><ele>1112.25</ele><time>2026-04-07T07:49:41.788Z</time></trkpt><trkpt lat="38.43526" lon="16.2252033"><ele>1114.5</ele><time>2026-04-07T07:49:42.789Z</time></trkpt><trkpt lat="38.4352233" lon="16.2253583"><ele>1116.75</ele><time>2026-04-07T07:49:43.788Z</time></trkpt><trkpt lat="38.435205" lon="16.2255083"><ele>1119.0</ele><time>2026-04-07T07:49:44.788Z</time></trkpt><trkpt lat="38.4351917" lon="16.22566"><ele>1120.75</ele><time>2026-04-07T07:49:45.789Z</time></trkpt><trkpt lat="38.4352117" lon="16.2258033"><ele>1122.5</ele><time>2026-04-07T07:49:46.789Z</time></trkpt><trkpt lat="38.435245" lon="16.2259483"><ele>1124.25</ele><time>2026-04-07T07:49:47.788Z</time></trkpt><trkpt lat="38.435285" lon="16.2260933"><ele>1126.0</ele><time>2026-04-07T07:49:48.788Z</time></trkpt><trkpt lat="38.43534" lon="16.2262267"><ele>1126.0</ele><time>2026-04-07T07:49:49.788Z</time></trkpt><trkpt lat="38.435405" lon="16.2263667"><ele>1126.0</ele><time>2026-04-07T07:49:50.789Z</time></trkpt><trkpt lat="38.4354833" lon="16.2265067"><ele>1126.0</ele><time>2026-04-07T07:49:51.788Z</time></trkpt><trkpt lat="38.4355667" lon="16.2266417"><ele>1126.0</ele><time>2026-04-07T07:49:52.788Z</time></trkpt><trkpt lat="38.4356517" lon="16.22679"><ele>1125.75</ele><time>2026-04-07T07:49:53.788Z</time></trkpt><trkpt lat="38.435725" lon="16.226935"><ele>1125.5</ele><time>2026-04-07T07:49:54.788Z</time></trkpt><trkpt lat="38.4357967" lon="16.2270833"><ele>1125.25</ele><time>2026-04-07T07:49:55.789Z</time></trkpt><trkpt lat="38.4358617" lon="16.22724"><ele>1125.0</ele><time>2026-04-07T07:49:56.788Z</time></trkpt><trkpt lat="38.4359333" lon="16.2274033"><ele>1124.25</ele><time>2026-04-07T07:49:57.788Z</time></trkpt><trkpt lat="38.43601" lon="16.227565"><ele>1123.5</ele><time>2026-04-07T07:49:58.788Z</time></trkpt><trkpt lat="38.4360867" lon="16.2277233"><ele>1122.75</ele><time>2026-04-07T07:49:59.789Z</time></trkpt><trkpt lat="38.4361583" lon="16.227895"><ele>1122.0</ele><time>2026-04-07T07:50:00.788Z</time></trkpt><trkpt lat="38.4362333" lon="16.2280583"><ele>1123.25</ele><time>2026-04-07T07:50:01.788Z</time></trkpt><trkpt lat="38.4363083" lon="16.2282183"><ele>1124.5</ele><time>2026-04-07T07:50:02.789Z</time></trkpt><trkpt lat="38.4363767" lon="16.2283867"><ele>1125.75</ele><time>2026-04-07T07:50:03.788Z</time></trkpt><trkpt lat="38.43643" lon="16.2285567"><ele>1127.0</ele><time>2026-04-07T07:50:04.789Z</time></trkpt><trkpt lat="38.4364583" lon="16.228705"><ele>1127.0</ele><time>2026-04-07T07:50:05.788Z</time></trkpt><trkpt lat="38.4364683" lon="16.2288467"><ele>1127.0</ele><time>2026-04-07T07:50:06.788Z</time></trkpt><trkpt lat="38.4364517" lon="16.2289967"><ele>1127.0</ele><time>2026-04-07T07:50:07.789Z</time></trkpt><trkpt lat="38.4364117" lon="16.2291517"><ele>1127.0</ele><time>2026-04-07T07:50:08.788Z</time></trkpt><trkpt lat="38.4363417" lon="16.2293133"><ele>1127.75</ele><time>2026-04-07T07:50:09.788Z</time></trkpt><trkpt lat="38.4362533" lon="16.2294667"><ele>1128.5</ele><time>2026-04-07T07:50:10.788Z</time></trkpt><trkpt lat="38.4361617" lon="16.2296183"><ele>1129.25</ele><time>2026-04-07T07:50:11.789Z</time></trkpt><trkpt lat="38.4360717" lon="16.22977"><ele>1130.0</ele><time>2026-04-07T07:50:12.788Z</time></trkpt><trkpt lat="38.4360017" lon="16.2299383"><ele>1131.0</ele><time>2026-04-07T07:50:13.788Z</time></trkpt><trkpt lat="38.4359667" lon="16.2301083"><ele>1132.0</ele><time>2026-04-07T07:50:14.789Z</time></trkpt><trkpt lat="38.4359583" lon="16.23024"><ele>1133.0</ele><time>2026-04-07T07:50:15.788Z</time></trkpt><trkpt lat="38.4359667" lon="16.2303467"><ele>1134.0</ele><time>2026-04-07T07:50:16.789Z</time></trkpt><trkpt lat="38.4359733" lon="16.2304333"><ele>1135.0</ele><time>2026-04-07T07:50:17.789Z</time></trkpt><trkpt lat="38.435995" lon="16.230545"><ele>1135.0</ele><time>2026-04-07T07:50:19.788Z</time></trkpt><trkpt lat="38.436005" lon="16.2306367"><ele>1135.0</ele><time>2026-04-07T07:50:21.788Z</time></trkpt><trkpt lat="38.43603" lon="16.2307533"><ele>1135.0</ele><time>2026-04-07T07:50:23.788Z</time></trkpt><trkpt lat="38.436065" lon="16.230875"><ele>1135.0</ele><time>2026-04-07T07:50:25.788Z</time></trkpt><trkpt lat="38.4360967" lon="16.23095"><ele>1135.0</ele><time>2026-04-07T07:50:26.789Z</time></trkpt><trkpt lat="38.4361517" lon="16.2310917"><ele>1135.8</ele><time>2026-04-07T07:50:28.789Z</time></trkpt><trkpt lat="38.4361917" lon="16.2312183"><ele>1136.6</ele><time>2026-04-07T07:50:30.788Z</time></trkpt><trkpt lat="38.4362367" lon="16.231335"><ele>1137.4</ele><time>2026-04-07T07:50:32.789Z</time></trkpt><trkpt lat="38.43628" lon="16.2314883"><ele>1138.2</ele><time>2026-04-07T07:50:34.789Z</time></trkpt><trkpt lat="38.4363067" lon="16.2315717"><ele>1139.0</ele><time>2026-04-07T07:50:35.788Z</time></trkpt><trkpt lat="38.4363317" lon="16.2316483"><ele>1137.6666666666667</ele><time>2026-04-07T07:50:36.788Z</time></trkpt><trkpt lat="38.4363567" lon="16.2317233"><ele>1136.3333333333335</ele><time>2026-04-07T07:50:37.789Z</time></trkpt><trkpt lat="38.4364" lon="16.231865"><ele>1135.0</ele><time>2026-04-07T07:50:39.788Z</time></trkpt><trkpt lat="38.436435" lon="16.2320117"><ele>1133.6666666666667</ele><time>2026-04-07T07:50:41.788Z</time></trkpt><trkpt lat="38.43645" lon="16.2320917"><ele>1132.3333333333333</ele><time>2026-04-07T07:50:42.788Z</time></trkpt><trkpt lat="38.4364667" lon="16.232175"><ele>1131.0</ele><time>2026-04-07T07:50:43.789Z</time></trkpt><trkpt lat="38.4364883" lon="16.2322617"><ele>1131.1666666666667</ele><time>2026-04-07T07:50:44.789Z</time></trkpt><trkpt lat="38.4365217" lon="16.23237"><ele>1131.3333333333333</ele><time>2026-04-07T07:50:45.788Z</time></trkpt><trkpt lat="38.43656" lon="16.2324733"><ele>1131.5</ele><time>2026-04-07T07:50:46.788Z</time></trkpt><trkpt lat="38.4366" lon="16.2325633"><ele>1131.6666666666665</ele><time>2026-04-07T07:50:47.788Z</time></trkpt><trkpt lat="38.4366383" lon="16.23264"><ele>1131.8333333333333</ele><time>2026-04-07T07:50:48.789Z</time></trkpt><trkpt lat="38.4366767" lon="16.232705"><ele>1132.0</ele><time>2026-04-07T07:50:49.789Z</time></trkpt><trkpt lat="38.4367217" lon="16.2327683"><ele>1132.0</ele><time>2026-04-07T07:50:50.788Z</time></trkpt><trkpt lat="38.43682" lon="16.2328733"><ele>1132.0</ele><time>2026-04-07T07:50:52.788Z</time></trkpt><trkpt lat="38.43688" lon="16.23292"><ele>1132.0</ele><time>2026-04-07T07:50:53.788Z</time></trkpt><trkpt lat="38.4369483" lon="16.2329667"><ele>1132.0</ele><time>2026-04-07T07:50:54.788Z</time></trkpt><trkpt lat="38.4370167" lon="16.2329983"><ele>1132.0</ele><time>2026-04-07T07:50:55.788Z</time></trkpt><trkpt lat="38.4370833" lon="16.233025"><ele>1132.0</ele><time>2026-04-07T07:50:56.789Z</time></trkpt><trkpt lat="38.4371567" lon="16.2330583"><ele>1131.3333333333333</ele><time>2026-04-07T07:50:57.788Z</time></trkpt><trkpt lat="38.43723" lon="16.2330967"><ele>1130.6666666666665</ele><time>2026-04-07T07:50:58.789Z</time></trkpt><trkpt lat="38.437305" lon="16.2331333"><ele>1130.0</ele><time>2026-04-07T07:50:59.788Z</time></trkpt><trkpt lat="38.4373683" lon="16.2331717"><ele>1129.3333333333333</ele><time>2026-04-07T07:51:00.788Z</time></trkpt><trkpt lat="38.437445" lon="16.2332117"><ele>1128.6666666666667</ele><time>2026-04-07T07:51:01.788Z</time></trkpt><trkpt lat="38.4375133" lon="16.233245"><ele>1128.0</ele><time>2026-04-07T07:51:02.788Z</time></trkpt><trkpt lat="38.4375933" lon="16.2332917"><ele>1127.6666666666667</ele><time>2026-04-07T07:51:03.788Z</time></trkpt><trkpt lat="38.4376583" lon="16.2333333"><ele>1127.3333333333333</ele><time>2026-04-07T07:51:04.789Z</time></trkpt><trkpt lat="38.4377333" lon="16.2333783"><ele>1127.0</ele><time>2026-04-07T07:51:05.788Z</time></trkpt><trkpt lat="38.437815" lon="16.2334217"><ele>1126.6666666666665</ele><time>2026-04-07T07:51:06.788Z</time></trkpt><trkpt lat="38.4378967" lon="16.2334617"><ele>1126.3333333333333</ele><time>2026-04-07T07:51:07.789Z</time></trkpt><trkpt lat="38.4379833" lon="16.2335033"><ele>1126.0</ele><time>2026-04-07T07:51:08.788Z</time></trkpt><trkpt lat="38.4380683" lon="16.233545"><ele>1123.3999999999999</ele><time>2026-04-07T07:51:09.788Z</time></trkpt><trkpt lat="38.43815" lon="16.2335817"><ele>1120.8</ele><time>2026-04-07T07:51:10.788Z</time></trkpt><trkpt lat="38.43822" lon="16.23361"><ele>1118.1999999999998</ele><time>2026-04-07T07:51:11.789Z</time></trkpt><trkpt lat="38.4383467" lon="16.2336483"><ele>1115.6</ele><time>2026-04-07T07:51:13.788Z</time></trkpt><trkpt lat="38.4384133" lon="16.2336717"><ele>1113.0</ele><time>2026-04-07T07:51:14.788Z</time></trkpt><trkpt lat="38.43853" lon="16.23374"><ele>1113.0</ele><time>2026-04-07T07:51:16.789Z</time></trkpt><trkpt lat="38.4386333" lon="16.2337833"><ele>1113.0</ele><time>2026-04-07T07:51:18.789Z</time></trkpt><trkpt lat="38.43875" lon="16.2337917"><ele>1113.0</ele><time>2026-04-07T07:51:20.789Z</time></trkpt><trkpt lat="38.4388467" lon="16.233805"><ele>1113.0</ele><time>2026-04-07T07:51:22.788Z</time></trkpt><trkpt lat="38.4389183" lon="16.233825"><ele>1113.0</ele><time>2026-04-07T07:51:24.788Z</time></trkpt><trkpt lat="38.43899" lon="16.23385"><ele>1113.0</ele><time>2026-04-07T07:51:27.788Z</time></trkpt><trkpt lat="38.4390667" lon="16.2339033"><ele>1113.0</ele><time>2026-04-07T07:51:31.789Z</time></trkpt><trkpt lat="38.43911" lon="16.233985"><ele>1113.0</ele><time>2026-04-07T07:51:33.788Z</time></trkpt><trkpt lat="38.439155" lon="16.2340783"><ele>1113.0</ele><time>2026-04-07T07:51:35.788Z</time></trkpt><trkpt lat="38.4391867" lon="16.2342067"><ele>1113.0</ele><time>2026-04-07T07:51:37.788Z</time></trkpt><trkpt lat="38.4392267" lon="16.2343633"><ele>1113.0</ele><time>2026-04-07T07:51:39.788Z</time></trkpt><trkpt lat="38.439255" lon="16.2344517"><ele>1113.0</ele><time>2026-04-07T07:51:40.788Z</time></trkpt><trkpt lat="38.4392817" lon="16.2345517"><ele>1113.0</ele><time>2026-04-07T07:51:41.788Z</time></trkpt><trkpt lat="38.4393083" lon="16.23465"><ele>1113.0</ele><time>2026-04-07T07:51:42.788Z</time></trkpt><trkpt lat="38.4393367" lon="16.234755"><ele>1113.0</ele><time>2026-04-07T07:51:43.788Z</time></trkpt><trkpt lat="38.4393617" lon="16.2348633"><ele>1113.0</ele><time>2026-04-07T07:51:44.788Z</time></trkpt><trkpt lat="38.439375" lon="16.2349767"><ele>1112.25</ele><time>2026-04-07T07:51:45.788Z</time></trkpt><trkpt lat="38.4393683" lon="16.23511"><ele>1111.5</ele><time>2026-04-07T07:51:46.788Z</time></trkpt><trkpt lat="38.4393383" lon="16.235255"><ele>1110.75</ele><time>2026-04-07T07:51:47.788Z</time></trkpt><trkpt lat="38.43931" lon="16.23541"><ele>1110.0</ele><time>2026-04-07T07:51:48.788Z</time></trkpt><trkpt lat="38.4392783" lon="16.2355817"><ele>1109.0</ele><time>2026-04-07T07:51:49.789Z</time></trkpt><trkpt lat="38.439235" lon="16.23576"><ele>1108.0</ele><time>2026-04-07T07:51:50.789Z</time></trkpt><trkpt lat="38.439205" lon="16.2359317"><ele>1107.0</ele><time>2026-04-07T07:51:51.789Z</time></trkpt><trkpt lat="38.4391633" lon="16.2361033"><ele>1106.0</ele><time>2026-04-07T07:51:52.788Z</time></trkpt><trkpt lat="38.4391333" lon="16.2362783"><ele>1106.0</ele><time>2026-04-07T07:51:53.789Z</time></trkpt><trkpt lat="38.4391033" lon="16.2364467"><ele>1106.0</ele><time>2026-04-07T07:51:54.788Z</time></trkpt><trkpt lat="38.4390883" lon="16.23661"><ele>1106.0</ele><time>2026-04-07T07:51:55.788Z</time></trkpt><trkpt lat="38.4390733" lon="16.2367667"><ele>1106.0</ele><time>2026-04-07T07:51:56.788Z</time></trkpt><trkpt lat="38.4390617" lon="16.2369117"><ele>1106.0</ele><time>2026-04-07T07:51:57.788Z</time></trkpt><trkpt lat="38.4390467" lon="16.2370517"><ele>1106.0</ele><time>2026-04-07T07:51:58.789Z</time></trkpt><trkpt lat="38.4390267" lon="16.2371867"><ele>1106.0</ele><time>2026-04-07T07:51:59.788Z</time></trkpt><trkpt lat="38.438995" lon="16.2373217"><ele>1106.0</ele><time>2026-04-07T07:52:00.788Z</time></trkpt><trkpt lat="38.438955" lon="16.2374617"><ele>1106.0</ele><time>2026-04-07T07:52:01.788Z</time></trkpt><trkpt lat="38.438905" lon="16.2375933"><ele>1105.5</ele><time>2026-04-07T07:52:02.789Z</time></trkpt><trkpt lat="38.438845" lon="16.23773"><ele>1105.0</ele><time>2026-04-07T07:52:03.788Z</time></trkpt><trkpt lat="38.4387783" lon="16.2378717"><ele>1104.5</ele><time>2026-04-07T07:52:04.788Z</time></trkpt><trkpt lat="38.438705" lon="16.2380167"><ele>1104.0</ele><time>2026-04-07T07:52:05.788Z</time></trkpt><trkpt lat="38.438635" lon="16.2381617"><ele>1105.0</ele><time>2026-04-07T07:52:06.788Z</time></trkpt><trkpt lat="38.4385583" lon="16.238305"><ele>1106.0</ele><time>2026-04-07T07:52:07.789Z</time></trkpt><trkpt lat="38.4384833" lon="16.2384617"><ele>1107.0</ele><time>2026-04-07T07:52:08.789Z</time></trkpt><trkpt lat="38.4384083" lon="16.23863"><ele>1108.0</ele><time>2026-04-07T07:52:09.789Z</time></trkpt><trkpt lat="38.43834" lon="16.2388133"><ele>1109.3333333333333</ele><time>2026-04-07T07:52:10.788Z</time></trkpt><trkpt lat="38.43829" lon="16.2390083"><ele>1110.6666666666667</ele><time>2026-04-07T07:52:11.789Z</time></trkpt><trkpt lat="38.43826" lon="16.239215"><ele>1112.0</ele><time>2026-04-07T07:52:12.788Z</time></trkpt><trkpt lat="38.4382483" lon="16.2394317"><ele>1112.0</ele><time>2026-04-07T07:52:13.788Z</time></trkpt><trkpt lat="38.4382483" lon="16.2396383"><ele>1112.0</ele><time>2026-04-07T07:52:14.788Z</time></trkpt><trkpt lat="38.4382467" lon="16.2398167"><ele>1112.0</ele><time>2026-04-07T07:52:15.788Z</time></trkpt><trkpt lat="38.4382417" lon="16.2400033"><ele>1112.0</ele><time>2026-04-07T07:52:16.788Z</time></trkpt><trkpt lat="38.4382383" lon="16.24017"><ele>1112.0</ele><time>2026-04-07T07:52:17.789Z</time></trkpt><trkpt lat="38.4382483" lon="16.2403367"><ele>1112.0</ele><time>2026-04-07T07:52:18.788Z</time></trkpt><trkpt lat="38.4382633" lon="16.240495"><ele>1112.0</ele><time>2026-04-07T07:52:19.788Z</time></trkpt><trkpt lat="38.4382783" lon="16.2406333"><ele>1112.0</ele><time>2026-04-07T07:52:20.789Z</time></trkpt><trkpt lat="38.4383117" lon="16.240765"><ele>1112.0</ele><time>2026-04-07T07:52:21.788Z</time></trkpt><trkpt lat="38.438365" lon="16.2408967"><ele>1112.0</ele><time>2026-04-07T07:52:22.789Z</time></trkpt><trkpt lat="38.4384317" lon="16.241025"><ele>1112.0</ele><time>2026-04-07T07:52:23.788Z</time></trkpt><trkpt lat="38.4385017" lon="16.2411317"><ele>1112.0</ele><time>2026-04-07T07:52:24.788Z</time></trkpt><trkpt lat="38.4385733" lon="16.241245"><ele>1112.0</ele><time>2026-04-07T07:52:25.789Z</time></trkpt><trkpt lat="38.4386283" lon="16.2413683"><ele>1112.0</ele><time>2026-04-07T07:52:26.788Z</time></trkpt><trkpt lat="38.4386783" lon="16.2414983"><ele>1112.0</ele><time>2026-04-07T07:52:27.788Z</time></trkpt><trkpt lat="38.4387167" lon="16.24163"><ele>1112.0</ele><time>2026-04-07T07:52:28.788Z</time></trkpt><trkpt lat="38.438755" lon="16.2417717"><ele>1112.0</ele><time>2026-04-07T07:52:29.788Z</time></trkpt><trkpt lat="38.4387967" lon="16.24192"><ele>1112.0</ele><time>2026-04-07T07:52:30.788Z</time></trkpt><trkpt lat="38.4388417" lon="16.2420617"><ele>1112.0</ele><time>2026-04-07T07:52:31.789Z</time></trkpt><trkpt lat="38.4388867" lon="16.242185"><ele>1112.0</ele><time>2026-04-07T07:52:32.789Z</time></trkpt><trkpt lat="38.4389233" lon="16.2423167"><ele>1112.0</ele><time>2026-04-07T07:52:33.789Z</time></trkpt><trkpt lat="38.4389467" lon="16.2424417"><ele>1112.0</ele><time>2026-04-07T07:52:34.789Z</time></trkpt><trkpt lat="38.4389383" lon="16.242565"><ele>1112.0</ele><time>2026-04-07T07:52:35.789Z</time></trkpt><trkpt lat="38.43891" lon="16.2426883"><ele>1112.0</ele><time>2026-04-07T07:52:36.789Z</time></trkpt><trkpt lat="38.4388567" lon="16.2428067"><ele>1112.0</ele><time>2026-04-07T07:52:37.789Z</time></trkpt><trkpt lat="38.438805" lon="16.242915"><ele>1111.0</ele><time>2026-04-07T07:52:38.789Z</time></trkpt><trkpt lat="38.4387367" lon="16.24302"><ele>1110.0</ele><time>2026-04-07T07:52:39.789Z</time></trkpt><trkpt lat="38.4386667" lon="16.2431333"><ele>1109.0</ele><time>2026-04-07T07:52:40.79Z</time></trkpt><trkpt lat="38.438595" lon="16.24326"><ele>1108.0</ele><time>2026-04-07T07:52:41.79Z</time></trkpt><trkpt lat="38.438535" lon="16.243405"><ele>1108.0</ele><time>2026-04-07T07:52:42.789Z</time></trkpt><trkpt lat="38.4384817" lon="16.24356"><ele>1108.0</ele><time>2026-04-07T07:52:43.79Z</time></trkpt><trkpt lat="38.438435" lon="16.24372"><ele>1108.0</ele><time>2026-04-07T07:52:44.79Z</time></trkpt><trkpt lat="38.43838" lon="16.2438667"><ele>1108.0</ele><time>2026-04-07T07:52:45.789Z</time></trkpt><trkpt lat="38.4383283" lon="16.2439983"><ele>1107.3333333333333</ele><time>2026-04-07T07:52:46.789Z</time></trkpt><trkpt lat="38.43826" lon="16.2441067"><ele>1106.6666666666665</ele><time>2026-04-07T07:52:47.789Z</time></trkpt><trkpt lat="38.4381783" lon="16.2441833"><ele>1106.0</ele><time>2026-04-07T07:52:48.789Z</time></trkpt><trkpt lat="38.4380983" lon="16.2442567"><ele>1105.3333333333333</ele><time>2026-04-07T07:52:49.79Z</time></trkpt><trkpt lat="38.4380467" lon="16.2443217"><ele>1104.6666666666667</ele><time>2026-04-07T07:52:50.789Z</time></trkpt><trkpt lat="38.438015" lon="16.244395"><ele>1104.0</ele><time>2026-04-07T07:52:51.79Z</time></trkpt><trkpt lat="38.438025" lon="16.2445333"><ele>1104.0</ele><time>2026-04-07T07:52:53.789Z</time></trkpt><trkpt lat="38.43808" lon="16.244585"><ele>1104.0</ele><time>2026-04-07T07:52:54.789Z</time></trkpt><trkpt lat="38.4381567" lon="16.2446167"><ele>1104.0</ele><time>2026-04-07T07:52:55.789Z</time></trkpt><trkpt lat="38.4382433" lon="16.244625"><ele>1104.0</ele><time>2026-04-07T07:52:56.789Z</time></trkpt><trkpt lat="38.43834" lon="16.2446017"><ele>1104.0</ele><time>2026-04-07T07:52:57.789Z</time></trkpt><trkpt lat="38.43844" lon="16.2445817"><ele>1104.0</ele><time>2026-04-07T07:52:58.789Z</time></trkpt><trkpt lat="38.4385433" lon="16.2445783"><ele>1104.0</ele><time>2026-04-07T07:52:59.789Z</time></trkpt><trkpt lat="38.4386467" lon="16.2445933"><ele>1104.0</ele><time>2026-04-07T07:53:00.789Z</time></trkpt><trkpt lat="38.4387433" lon="16.2446367"><ele>1104.0</ele><time>2026-04-07T07:53:01.79Z</time></trkpt><trkpt lat="38.43883" lon="16.2446783"><ele>1104.0</ele><time>2026-04-07T07:53:02.79Z</time></trkpt><trkpt lat="38.4389133" lon="16.2447"><ele>1104.0</ele><time>2026-04-07T07:53:03.79Z</time></trkpt><trkpt lat="38.43899" lon="16.2446767"><ele>1103.4</ele><time>2026-04-07T07:53:04.79Z</time></trkpt><trkpt lat="38.4390733" lon="16.2446117"><ele>1102.8000000000002</ele><time>2026-04-07T07:53:05.789Z</time></trkpt><trkpt lat="38.4391533" lon="16.2445267"><ele>1102.1999999999998</ele><time>2026-04-07T07:53:06.79Z</time></trkpt><trkpt lat="38.4392083" lon="16.2443967"><ele>1101.6</ele><time>2026-04-07T07:53:07.79Z</time></trkpt><trkpt lat="38.439265" lon="16.2442767"><ele>1101.0</ele><time>2026-04-07T07:53:08.789Z</time></trkpt><trkpt lat="38.4393183" lon="16.244165"><ele>1101.0</ele><time>2026-04-07T07:53:09.789Z</time></trkpt><trkpt lat="38.4393717" lon="16.24408"><ele>1101.0</ele><time>2026-04-07T07:53:10.789Z</time></trkpt><trkpt lat="38.439425" lon="16.2440267"><ele>1101.0</ele><time>2026-04-07T07:53:11.789Z</time></trkpt><trkpt lat="38.4394883" lon="16.24399"><ele>1101.0</ele><time>2026-04-07T07:53:12.789Z</time></trkpt><trkpt lat="38.4395517" lon="16.2439867"><ele>1101.0</ele><time>2026-04-07T07:53:13.79Z</time></trkpt><trkpt lat="38.43966" lon="16.2440417"><ele>1101.0</ele><time>2026-04-07T07:53:15.79Z</time></trkpt><trkpt lat="38.4397017" lon="16.2441267"><ele>1098.2</ele><time>2026-04-07T07:53:16.789Z</time></trkpt><trkpt lat="38.43974" lon="16.2442517"><ele>1095.3999999999999</ele><time>2026-04-07T07:53:17.79Z</time></trkpt><trkpt lat="38.4397783" lon="16.2443867"><ele>1092.6</ele><time>2026-04-07T07:53:18.789Z</time></trkpt><trkpt lat="38.43983" lon="16.2445067"><ele>1089.8</ele><time>2026-04-07T07:53:19.79Z</time></trkpt><trkpt lat="38.4398883" lon="16.2446"><ele>1087.0</ele><time>2026-04-07T07:53:20.789Z</time></trkpt><trkpt lat="38.4399417" lon="16.24469"><ele>1087.0</ele><time>2026-04-07T07:53:21.789Z</time></trkpt><trkpt lat="38.4399833" lon="16.244775"><ele>1087.0</ele><time>2026-04-07T07:53:22.789Z</time></trkpt><trkpt lat="38.4400083" lon="16.244865"><ele>1087.0</ele><time>2026-04-07T07:53:23.79Z</time></trkpt><trkpt lat="38.4400167" lon="16.2449783"><ele>1087.0</ele><time>2026-04-07T07:53:24.79Z</time></trkpt><trkpt lat="38.4400033" lon="16.2451"><ele>1087.0</ele><time>2026-04-07T07:53:25.79Z</time></trkpt><trkpt lat="38.4399583" lon="16.24524"><ele>1083.25</ele><time>2026-04-07T07:53:26.789Z</time></trkpt><trkpt lat="38.4399167" lon="16.2453917"><ele>1079.5</ele><time>2026-04-07T07:53:27.789Z</time></trkpt><trkpt lat="38.43989" lon="16.2455517"><ele>1075.75</ele><time>2026-04-07T07:53:28.79Z</time></trkpt><trkpt lat="38.439885" lon="16.2457133"><ele>1072.0</ele><time>2026-04-07T07:53:29.789Z</time></trkpt><trkpt lat="38.4398967" lon="16.2458767"><ele>1070.25</ele><time>2026-04-07T07:53:30.79Z</time></trkpt><trkpt lat="38.4399" lon="16.24603"><ele>1068.5</ele><time>2026-04-07T07:53:31.79Z</time></trkpt><trkpt lat="38.439885" lon="16.24619"><ele>1066.75</ele><time>2026-04-07T07:53:32.789Z</time></trkpt><trkpt lat="38.4398733" lon="16.2463317"><ele>1065.0</ele><time>2026-04-07T07:53:33.789Z</time></trkpt><trkpt lat="38.4398617" lon="16.24646"><ele>1063.0</ele><time>2026-04-07T07:53:34.79Z</time></trkpt><trkpt lat="38.4398433" lon="16.246575"><ele>1061.0</ele><time>2026-04-07T07:53:35.789Z</time></trkpt><trkpt lat="38.4398533" lon="16.2467017"><ele>1059.0</ele><time>2026-04-07T07:53:36.79Z</time></trkpt><trkpt lat="38.4398917" lon="16.2468067"><ele>1057.0</ele><time>2026-04-07T07:53:37.789Z</time></trkpt><trkpt lat="38.4399517" lon="16.2468867"><ele>1055.0</ele><time>2026-04-07T07:53:38.79Z</time></trkpt><trkpt lat="38.440045" lon="16.2469417"><ele>1055.0</ele><time>2026-04-07T07:53:39.789Z</time></trkpt><trkpt lat="38.4401617" lon="16.2469733"><ele>1055.0</ele><time>2026-04-07T07:53:40.789Z</time></trkpt><trkpt lat="38.4402717" lon="16.2469867"><ele>1055.0</ele><time>2026-04-07T07:53:41.79Z</time></trkpt><trkpt lat="38.4403833" lon="16.2469717"><ele>1055.0</ele><time>2026-04-07T07:53:42.789Z</time></trkpt><trkpt lat="38.4404767" lon="16.2469067"><ele>1055.0</ele><time>2026-04-07T07:53:43.789Z</time></trkpt><trkpt lat="38.4405533" lon="16.2468117"><ele>1054.5</ele><time>2026-04-07T07:53:44.789Z</time></trkpt><trkpt lat="38.440615" lon="16.2467183"><ele>1054.0</ele><time>2026-04-07T07:53:45.79Z</time></trkpt><trkpt lat="38.4406767" lon="16.24664"><ele>1053.5</ele><time>2026-04-07T07:53:46.79Z</time></trkpt><trkpt lat="38.4407417" lon="16.2465933"><ele>1053.0</ele><time>2026-04-07T07:53:47.789Z</time></trkpt><trkpt lat="38.4408567" lon="16.2466017"><ele>1052.5</ele><time>2026-04-07T07:53:49.79Z</time></trkpt><trkpt lat="38.44091" lon="16.24666"><ele>1052.0</ele><time>2026-04-07T07:53:50.79Z</time></trkpt><trkpt lat="38.4409783" lon="16.2468017"><ele>1052.0</ele><time>2026-04-07T07:53:52.79Z</time></trkpt><trkpt lat="38.4409933" lon="16.2469167"><ele>1052.0</ele><time>2026-04-07T07:53:53.789Z</time></trkpt><trkpt lat="38.4410033" lon="16.24705"><ele>1052.0</ele><time>2026-04-07T07:53:54.789Z</time></trkpt><trkpt lat="38.4410133" lon="16.24717"><ele>1052.0</ele><time>2026-04-07T07:53:55.79Z</time></trkpt><trkpt lat="38.4410167" lon="16.2472717"><ele>1052.0</ele><time>2026-04-07T07:53:56.789Z</time></trkpt><trkpt lat="38.4410033" lon="16.2473683"><ele>1052.0</ele><time>2026-04-07T07:53:57.789Z</time></trkpt><trkpt lat="38.4409767" lon="16.2474617"><ele>1048.2</ele><time>2026-04-07T07:53:58.789Z</time></trkpt><trkpt lat="38.4409617" lon="16.2475583"><ele>1044.4</ele><time>2026-04-07T07:53:59.789Z</time></trkpt><trkpt lat="38.4409617" lon="16.24765"><ele>1040.6</ele><time>2026-04-07T07:54:00.789Z</time></trkpt><trkpt lat="38.4409967" lon="16.247765"><ele>1036.8</ele><time>2026-04-07T07:54:01.789Z</time></trkpt><trkpt lat="38.4410567" lon="16.24788"><ele>1033.0</ele><time>2026-04-07T07:54:02.789Z</time></trkpt><trkpt lat="38.4411483" lon="16.248"><ele>1033.0</ele><time>2026-04-07T07:54:03.789Z</time></trkpt><trkpt lat="38.4412617" lon="16.24812"><ele>1033.0</ele><time>2026-04-07T07:54:04.789Z</time></trkpt><trkpt lat="38.44137" lon="16.2482567"><ele>1033.0</ele><time>2026-04-07T07:54:05.789Z</time></trkpt><trkpt lat="38.4414733" lon="16.2483867"><ele>1033.0</ele><time>2026-04-07T07:54:06.789Z</time></trkpt><trkpt lat="38.4415567" lon="16.248515"><ele>1029.0</ele><time>2026-04-07T07:54:07.789Z</time></trkpt><trkpt lat="38.44163" lon="16.2486383"><ele>1025.0</ele><time>2026-04-07T07:54:08.789Z</time></trkpt><trkpt lat="38.4416917" lon="16.2487683"><ele>1021.0</ele><time>2026-04-07T07:54:09.789Z</time></trkpt><trkpt lat="38.4417483" lon="16.2488967"><ele>1017.0</ele><time>2026-04-07T07:54:10.789Z</time></trkpt><trkpt lat="38.44181" lon="16.2490333"><ele>1016.75</ele><time>2026-04-07T07:54:11.789Z</time></trkpt><trkpt lat="38.4418617" lon="16.24918"><ele>1016.5</ele><time>2026-04-07T07:54:12.79Z</time></trkpt><trkpt lat="38.4419133" lon="16.2493183"><ele>1016.25</ele><time>2026-04-07T07:54:13.789Z</time></trkpt><trkpt lat="38.4419633" lon="16.249445"><ele>1016.0</ele><time>2026-04-07T07:54:14.789Z</time></trkpt><trkpt lat="38.44199" lon="16.2495767"><ele>1016.0000000000001</ele><time>2026-04-07T07:54:15.79Z</time></trkpt><trkpt lat="38.442005" lon="16.2496933"><ele>1016.0</ele><time>2026-04-07T07:54:16.789Z</time></trkpt><trkpt lat="38.442015" lon="16.2497967"><ele>1016.0</ele><time>2026-04-07T07:54:17.789Z</time></trkpt><trkpt lat="38.4420233" lon="16.2498983"><ele>1016.0</ele><time>2026-04-07T07:54:18.789Z</time></trkpt><trkpt lat="38.44203" lon="16.2500117"><ele>1016.0000000000001</ele><time>2026-04-07T07:54:19.789Z</time></trkpt><trkpt lat="38.4420283" lon="16.250135"><ele>1016.0</ele><time>2026-04-07T07:54:20.79Z</time></trkpt><trkpt lat="38.442005" lon="16.25028"><ele>1014.75</ele><time>2026-04-07T07:54:21.79Z</time></trkpt><trkpt lat="38.441985" lon="16.2504417"><ele>1013.5</ele><time>2026-04-07T07:54:22.79Z</time></trkpt><trkpt lat="38.4419633" lon="16.2506117"><ele>1012.25</ele><time>2026-04-07T07:54:23.79Z</time></trkpt><trkpt lat="38.4419417" lon="16.250805"><ele>1011.0</ele><time>2026-04-07T07:54:24.789Z</time></trkpt><trkpt lat="38.44191" lon="16.2509983"><ele>1011.0</ele><time>2026-04-07T07:54:25.789Z</time></trkpt><trkpt lat="38.441865" lon="16.251185"><ele>1011.0</ele><time>2026-04-07T07:54:26.79Z</time></trkpt><trkpt lat="38.44181" lon="16.251365"><ele>1011.0</ele><time>2026-04-07T07:54:27.789Z</time></trkpt><trkpt lat="38.4417383" lon="16.2515667"><ele>1014.6666666666667</ele><time>2026-04-07T07:54:28.789Z</time></trkpt><trkpt lat="38.441675" lon="16.2517683"><ele>1018.3333333333334</ele><time>2026-04-07T07:54:29.789Z</time></trkpt><trkpt lat="38.4416133" lon="16.2519383"><ele>1022.0</ele><time>2026-04-07T07:54:30.789Z</time></trkpt><trkpt lat="38.4415567" lon="16.25211"><ele>1022.0</ele><time>2026-04-07T07:54:31.789Z</time></trkpt><trkpt lat="38.4415217" lon="16.2522717"><ele>1022.0</ele><time>2026-04-07T07:54:32.789Z</time></trkpt><trkpt lat="38.4415117" lon="16.2524083"><ele>1022.0</ele><time>2026-04-07T07:54:33.789Z</time></trkpt><trkpt lat="38.4415483" lon="16.2525367"><ele>1022.0</ele><time>2026-04-07T07:54:34.79Z</time></trkpt><trkpt lat="38.4416133" lon="16.25264"><ele>1023.75</ele><time>2026-04-07T07:54:35.79Z</time></trkpt><trkpt lat="38.4417" lon="16.2527433"><ele>1025.5</ele><time>2026-04-07T07:54:36.79Z</time></trkpt><trkpt lat="38.4417933" lon="16.2528417"><ele>1027.25</ele><time>2026-04-07T07:54:37.789Z</time></trkpt><trkpt lat="38.4418967" lon="16.2529183"><ele>1029.0</ele><time>2026-04-07T07:54:38.789Z</time></trkpt><trkpt lat="38.442015" lon="16.2529567"><ele>1031.75</ele><time>2026-04-07T07:54:39.789Z</time></trkpt><trkpt lat="38.4421317" lon="16.2529533"><ele>1034.5</ele><time>2026-04-07T07:54:40.789Z</time></trkpt><trkpt lat="38.4422433" lon="16.25291"><ele>1037.25</ele><time>2026-04-07T07:54:41.789Z</time></trkpt><trkpt lat="38.44235" lon="16.2528517"><ele>1040.0</ele><time>2026-04-07T07:54:42.79Z</time></trkpt><trkpt lat="38.4424583" lon="16.2527967"><ele>1040.0</ele><time>2026-04-07T07:54:43.789Z</time></trkpt><trkpt lat="38.44257" lon="16.2527717"><ele>1040.0</ele><time>2026-04-07T07:54:44.789Z</time></trkpt><trkpt lat="38.442685" lon="16.252775"><ele>1040.0</ele><time>2026-04-07T07:54:45.79Z</time></trkpt><trkpt lat="38.4428" lon="16.2528"><ele>1040.0</ele><time>2026-04-07T07:54:46.79Z</time></trkpt><trkpt lat="38.4429267" lon="16.2528383"><ele>1041.75</ele><time>2026-04-07T07:54:47.789Z</time></trkpt><trkpt lat="38.44305" lon="16.252895"><ele>1043.5</ele><time>2026-04-07T07:54:48.789Z</time></trkpt><trkpt lat="38.44317" lon="16.252965"><ele>1045.25</ele><time>2026-04-07T07:54:49.789Z</time></trkpt><trkpt lat="38.4432733" lon="16.253065"><ele>1047.0</ele><time>2026-04-07T07:54:50.789Z</time></trkpt><trkpt lat="38.443375" lon="16.2531917"><ele>1047.0</ele><time>2026-04-07T07:54:51.789Z</time></trkpt><trkpt lat="38.4434733" lon="16.2533033"><ele>1047.0</ele><time>2026-04-07T07:54:52.79Z</time></trkpt><trkpt lat="38.4435833" lon="16.2533867"><ele>1047.0</ele><time>2026-04-07T07:54:53.789Z</time></trkpt><trkpt lat="38.44371" lon="16.2534467"><ele>1047.0</ele><time>2026-04-07T07:54:54.789Z</time></trkpt><trkpt lat="38.4438417" lon="16.2534967"><ele>1048.75</ele><time>2026-04-07T07:54:55.79Z</time></trkpt><trkpt lat="38.44397" lon="16.2535467"><ele>1050.5</ele><time>2026-04-07T07:54:56.79Z</time></trkpt><trkpt lat="38.4441033" lon="16.2535917"><ele>1052.25</ele><time>2026-04-07T07:54:57.789Z</time></trkpt><trkpt lat="38.4442283" lon="16.2536517"><ele>1054.0</ele><time>2026-04-07T07:54:58.79Z</time></trkpt><trkpt lat="38.4443367" lon="16.2537267"><ele>1054.0</ele><time>2026-04-07T07:54:59.789Z</time></trkpt><trkpt lat="38.4444233" lon="16.2538183"><ele>1054.0</ele><time>2026-04-07T07:55:00.789Z</time></trkpt><trkpt lat="38.4444717" lon="16.2539517"><ele>1054.0</ele><time>2026-04-07T07:55:01.789Z</time></trkpt><trkpt lat="38.4444983" lon="16.2541"><ele>1054.0</ele><time>2026-04-07T07:55:02.789Z</time></trkpt><trkpt lat="38.4445" lon="16.25427"><ele>1056.0</ele><time>2026-04-07T07:55:03.789Z</time></trkpt><trkpt lat="38.4444967" lon="16.2544383"><ele>1058.0</ele><time>2026-04-07T07:55:04.789Z</time></trkpt><trkpt lat="38.4444933" lon="16.25461"><ele>1060.0</ele><time>2026-04-07T07:55:05.789Z</time></trkpt><trkpt lat="38.4444883" lon="16.2547967"><ele>1062.0</ele><time>2026-04-07T07:55:06.789Z</time></trkpt><trkpt lat="38.4444867" lon="16.2549967"><ele>1064.0</ele><time>2026-04-07T07:55:07.789Z</time></trkpt><trkpt lat="38.444485" lon="16.2551983"><ele>1066.0</ele><time>2026-04-07T07:55:08.789Z</time></trkpt><trkpt lat="38.4444883" lon="16.2554"><ele>1068.0</ele><time>2026-04-07T07:55:09.789Z</time></trkpt><trkpt lat="38.4444833" lon="16.2556017"><ele>1067.3333333333333</ele><time>2026-04-07T07:55:10.79Z</time></trkpt><trkpt lat="38.4444767" lon="16.2558017"><ele>1066.6666666666665</ele><time>2026-04-07T07:55:11.789Z</time></trkpt><trkpt lat="38.4444567" lon="16.2559967"><ele>1066.0</ele><time>2026-04-07T07:55:12.789Z</time></trkpt><trkpt lat="38.44441" lon="16.2561733"><ele>1066.0</ele><time>2026-04-07T07:55:13.789Z</time></trkpt><trkpt lat="38.44436" lon="16.2563233"><ele>1066.0</ele><time>2026-04-07T07:55:14.79Z</time></trkpt><trkpt lat="38.44434" lon="16.2564583"><ele>1066.0</ele><time>2026-04-07T07:55:15.79Z</time></trkpt><trkpt lat="38.4443533" lon="16.2566"><ele>1066.0</ele><time>2026-04-07T07:55:16.79Z</time></trkpt><trkpt lat="38.4443933" lon="16.2567233"><ele>1068.2</ele><time>2026-04-07T07:55:17.789Z</time></trkpt><trkpt lat="38.44445" lon="16.2568217"><ele>1070.3999999999999</ele><time>2026-04-07T07:55:18.789Z</time></trkpt><trkpt lat="38.4445367" lon="16.256905"><ele>1072.6</ele><time>2026-04-07T07:55:19.789Z</time></trkpt><trkpt lat="38.4446317" lon="16.25698"><ele>1074.8</ele><time>2026-04-07T07:55:20.789Z</time></trkpt><trkpt lat="38.4447383" lon="16.2570633"><ele>1077.0</ele><time>2026-04-07T07:55:21.789Z</time></trkpt><trkpt lat="38.4448533" lon="16.2571567"><ele>1078.5</ele><time>2026-04-07T07:55:22.79Z</time></trkpt><trkpt lat="38.444975" lon="16.25726"><ele>1080.0</ele><time>2026-04-07T07:55:23.789Z</time></trkpt><trkpt lat="38.445095" lon="16.25737"><ele>1081.5</ele><time>2026-04-07T07:55:24.79Z</time></trkpt><trkpt lat="38.4452267" lon="16.2574683"><ele>1083.0</ele><time>2026-04-07T07:55:25.789Z</time></trkpt><trkpt lat="38.4453583" lon="16.257535"><ele>1084.25</ele><time>2026-04-07T07:55:26.789Z</time></trkpt><trkpt lat="38.4454867" lon="16.2575883"><ele>1085.5</ele><time>2026-04-07T07:55:27.789Z</time></trkpt><trkpt lat="38.4456083" lon="16.2576467"><ele>1086.75</ele><time>2026-04-07T07:55:28.789Z</time></trkpt><trkpt lat="38.4457183" lon="16.2576967"><ele>1088.0</ele><time>2026-04-07T07:55:29.79Z</time></trkpt><trkpt lat="38.4458033" lon="16.257775"><ele>1088.0</ele><time>2026-04-07T07:55:30.79Z</time></trkpt><trkpt lat="38.44587" lon="16.25788"><ele>1088.0</ele><time>2026-04-07T07:55:31.789Z</time></trkpt><trkpt lat="38.4458983" lon="16.258005"><ele>1088.0</ele><time>2026-04-07T07:55:32.79Z</time></trkpt><trkpt lat="38.4458783" lon="16.2581367"><ele>1088.0</ele><time>2026-04-07T07:55:33.789Z</time></trkpt><trkpt lat="38.445825" lon="16.2582367"><ele>1088.0</ele><time>2026-04-07T07:55:34.789Z</time></trkpt><trkpt lat="38.445745" lon="16.2582983"><ele>1090.0</ele><time>2026-04-07T07:55:35.79Z</time></trkpt><trkpt lat="38.4456583" lon="16.258315"><ele>1092.0</ele><time>2026-04-07T07:55:36.789Z</time></trkpt><trkpt lat="38.4455617" lon="16.2582933"><ele>1094.0</ele><time>2026-04-07T07:55:37.789Z</time></trkpt><trkpt lat="38.445445" lon="16.25823"><ele>1096.0</ele><time>2026-04-07T07:55:38.789Z</time></trkpt><trkpt lat="38.4453183" lon="16.2581867"><ele>1098.0</ele><time>2026-04-07T07:55:39.789Z</time></trkpt><trkpt lat="38.44518" lon="16.2581867"><ele>1100.25</ele><time>2026-04-07T07:55:40.79Z</time></trkpt><trkpt lat="38.4450483" lon="16.2582217"><ele>1102.5</ele><time>2026-04-07T07:55:41.789Z</time></trkpt><trkpt lat="38.4449067" lon="16.25828"><ele>1104.75</ele><time>2026-04-07T07:55:42.789Z</time></trkpt><trkpt lat="38.4447717" lon="16.258345"><ele>1107.0</ele><time>2026-04-07T07:55:43.789Z</time></trkpt><trkpt lat="38.4446483" lon="16.2584217"><ele>1108.0</ele><time>2026-04-07T07:55:44.789Z</time></trkpt><trkpt lat="38.44454" lon="16.2585133"><ele>1109.0</ele><time>2026-04-07T07:55:45.789Z</time></trkpt><trkpt lat="38.4444417" lon="16.2586033"><ele>1110.0</ele><time>2026-04-07T07:55:46.789Z</time></trkpt><trkpt lat="38.444375" lon="16.2587183"><ele>1111.0</ele><time>2026-04-07T07:55:47.789Z</time></trkpt><trkpt lat="38.444335" lon="16.2588683"><ele>1113.5</ele><time>2026-04-07T07:55:48.789Z</time></trkpt><trkpt lat="38.4443267" lon="16.2590233"><ele>1116.0</ele><time>2026-04-07T07:55:49.789Z</time></trkpt><trkpt lat="38.4443467" lon="16.259175"><ele>1118.5</ele><time>2026-04-07T07:55:50.79Z</time></trkpt><trkpt lat="38.4443717" lon="16.2593333"><ele>1121.0</ele><time>2026-04-07T07:55:51.789Z</time></trkpt><trkpt lat="38.4443983" lon="16.2594817"><ele>1121.0</ele><time>2026-04-07T07:55:52.789Z</time></trkpt><trkpt lat="38.4444267" lon="16.25961"><ele>1121.0</ele><time>2026-04-07T07:55:53.79Z</time></trkpt><trkpt lat="38.4444833" lon="16.2597183"><ele>1121.0</ele><time>2026-04-07T07:55:54.789Z</time></trkpt><trkpt lat="38.444565" lon="16.2597883"><ele>1121.0</ele><time>2026-04-07T07:55:55.789Z</time></trkpt><trkpt lat="38.444665" lon="16.2598267"><ele>1121.0</ele><time>2026-04-07T07:55:56.789Z</time></trkpt><trkpt lat="38.4447867" lon="16.2598483"><ele>1121.2</ele><time>2026-04-07T07:55:57.789Z</time></trkpt><trkpt lat="38.4448983" lon="16.2598733"><ele>1121.3999999999999</ele><time>2026-04-07T07:55:58.789Z</time></trkpt><trkpt lat="38.4449983" lon="16.2599217"><ele>1121.6</ele><time>2026-04-07T07:55:59.789Z</time></trkpt><trkpt lat="38.4450667" lon="16.2600167"><ele>1121.8</ele><time>2026-04-07T07:56:00.789Z</time></trkpt><trkpt lat="38.4451" lon="16.2601383"><ele>1122.0</ele><time>2026-04-07T07:56:01.79Z</time></trkpt><trkpt lat="38.4451083" lon="16.260265"><ele>1122.0</ele><time>2026-04-07T07:56:02.79Z</time></trkpt><trkpt lat="38.4450983" lon="16.2603783"><ele>1122.0</ele><time>2026-04-07T07:56:03.79Z</time></trkpt><trkpt lat="38.445075" lon="16.2605317"><ele>1122.0</ele><time>2026-04-07T07:56:04.789Z</time></trkpt><trkpt lat="38.445035" lon="16.2607017"><ele>1122.0</ele><time>2026-04-07T07:56:05.789Z</time></trkpt><trkpt lat="38.4449867" lon="16.260885"><ele>1121.6666666666667</ele><time>2026-04-07T07:56:06.789Z</time></trkpt><trkpt lat="38.4449333" lon="16.2610767"><ele>1121.3333333333335</ele><time>2026-04-07T07:56:07.789Z</time></trkpt><trkpt lat="38.4448783" lon="16.2612733"><ele>1121.0</ele><time>2026-04-07T07:56:08.79Z</time></trkpt><trkpt lat="38.44483" lon="16.2614767"><ele>1119.3333333333335</ele><time>2026-04-07T07:56:09.79Z</time></trkpt><trkpt lat="38.4447867" lon="16.2616883"><ele>1117.6666666666667</ele><time>2026-04-07T07:56:10.79Z</time></trkpt><trkpt lat="38.44475" lon="16.2619083"><ele>1116.0</ele><time>2026-04-07T07:56:11.79Z</time></trkpt><trkpt lat="38.444715" lon="16.2621183"><ele>1115.6666666666667</ele><time>2026-04-07T07:56:12.789Z</time></trkpt><trkpt lat="38.444675" lon="16.262315"><ele>1115.3333333333335</ele><time>2026-04-07T07:56:13.789Z</time></trkpt><trkpt lat="38.44465" lon="16.2625117"><ele>1115.0</ele><time>2026-04-07T07:56:14.789Z</time></trkpt><trkpt lat="38.4446467" lon="16.2627133"><ele>1115.0</ele><time>2026-04-07T07:56:15.79Z</time></trkpt><trkpt lat="38.4446767" lon="16.2629267"><ele>1115.0</ele><time>2026-04-07T07:56:16.79Z</time></trkpt><trkpt lat="38.44472" lon="16.2631483"><ele>1115.0</ele><time>2026-04-07T07:56:17.789Z</time></trkpt><trkpt lat="38.4447767" lon="16.2633617"><ele>1115.0</ele><time>2026-04-07T07:56:18.79Z</time></trkpt><trkpt lat="38.4448467" lon="16.26356"><ele>1115.0</ele><time>2026-04-07T07:56:19.789Z</time></trkpt><trkpt lat="38.4449133" lon="16.2637567"><ele>1115.0</ele><time>2026-04-07T07:56:20.789Z</time></trkpt><trkpt lat="38.4449967" lon="16.26394"><ele>1115.3333333333335</ele><time>2026-04-07T07:56:21.79Z</time></trkpt><trkpt lat="38.445085" lon="16.2641233"><ele>1115.6666666666667</ele><time>2026-04-07T07:56:22.789Z</time></trkpt><trkpt lat="38.4451717" lon="16.2643033"><ele>1116.0</ele><time>2026-04-07T07:56:23.79Z</time></trkpt><trkpt lat="38.44525" lon="16.2644817"><ele>1116.0</ele><time>2026-04-07T07:56:24.789Z</time></trkpt><trkpt lat="38.445325" lon="16.26467"><ele>1116.0</ele><time>2026-04-07T07:56:25.79Z</time></trkpt><trkpt lat="38.4454017" lon="16.2648467"><ele>1116.0</ele><time>2026-04-07T07:56:26.789Z</time></trkpt><trkpt lat="38.4454633" lon="16.2650467"><ele>1116.6666666666667</ele><time>2026-04-07T07:56:27.789Z</time></trkpt><trkpt lat="38.4455217" lon="16.265235"><ele>1117.3333333333335</ele><time>2026-04-07T07:56:28.789Z</time></trkpt><trkpt lat="38.445555" lon="16.26543"><ele>1118.0</ele><time>2026-04-07T07:56:29.789Z</time></trkpt><trkpt lat="38.445565" lon="16.2656267"><ele>1120.3333333333335</ele><time>2026-04-07T07:56:30.789Z</time></trkpt><trkpt lat="38.4455617" lon="16.2658317"><ele>1122.6666666666667</ele><time>2026-04-07T07:56:31.79Z</time></trkpt><trkpt lat="38.4455667" lon="16.266045"><ele>1125.0</ele><time>2026-04-07T07:56:32.79Z</time></trkpt><trkpt lat="38.4455717" lon="16.2662467"><ele>1125.0</ele><time>2026-04-07T07:56:33.79Z</time></trkpt><trkpt lat="38.4455767" lon="16.2664217"><ele>1125.0</ele><time>2026-04-07T07:56:34.789Z</time></trkpt><trkpt lat="38.4455633" lon="16.26657"><ele>1125.0</ele><time>2026-04-07T07:56:35.79Z</time></trkpt><trkpt lat="38.4455267" lon="16.2667083"><ele>1125.0</ele><time>2026-04-07T07:56:36.789Z</time></trkpt><trkpt lat="38.4454617" lon="16.2668217"><ele>1126.0</ele><time>2026-04-07T07:56:37.789Z</time></trkpt><trkpt lat="38.445375" lon="16.2669083"><ele>1127.0</ele><time>2026-04-07T07:56:38.789Z</time></trkpt><trkpt lat="38.4452717" lon="16.2669733"><ele>1128.0</ele><time>2026-04-07T07:56:39.789Z</time></trkpt><trkpt lat="38.4451533" lon="16.2670367"><ele>1129.0</ele><time>2026-04-07T07:56:40.789Z</time></trkpt><trkpt lat="38.4450333" lon="16.2671133"><ele>1129.0</ele><time>2026-04-07T07:56:41.79Z</time></trkpt><trkpt lat="38.4449183" lon="16.2672017"><ele>1129.0</ele><time>2026-04-07T07:56:42.789Z</time></trkpt><trkpt lat="38.4448" lon="16.2673117"><ele>1129.0</ele><time>2026-04-07T07:56:43.789Z</time></trkpt><trkpt lat="38.4446867" lon="16.2674133"><ele>1129.0</ele><time>2026-04-07T07:56:44.789Z</time></trkpt><trkpt lat="38.444615" lon="16.2675383"><ele>1128.75</ele><time>2026-04-07T07:56:45.79Z</time></trkpt><trkpt lat="38.4445717" lon="16.26769"><ele>1128.5</ele><time>2026-04-07T07:56:46.789Z</time></trkpt><trkpt lat="38.44456" lon="16.2678767"><ele>1128.25</ele><time>2026-04-07T07:56:47.789Z</time></trkpt><trkpt lat="38.4445617" lon="16.2680717"><ele>1128.0</ele><time>2026-04-07T07:56:48.79Z</time></trkpt><trkpt lat="38.44457" lon="16.2682617"><ele>1128.0</ele><time>2026-04-07T07:56:49.789Z</time></trkpt><trkpt lat="38.444575" lon="16.2684467"><ele>1128.0</ele><time>2026-04-07T07:56:50.789Z</time></trkpt><trkpt lat="38.444565" lon="16.2686217"><ele>1128.0</ele><time>2026-04-07T07:56:51.79Z</time></trkpt><trkpt lat="38.4445417" lon="16.2687783"><ele>1128.0</ele><time>2026-04-07T07:56:52.789Z</time></trkpt><trkpt lat="38.444495" lon="16.2689233"><ele>1129.25</ele><time>2026-04-07T07:56:53.789Z</time></trkpt><trkpt lat="38.4444517" lon="16.269045"><ele>1130.5</ele><time>2026-04-07T07:56:54.789Z</time></trkpt><trkpt lat="38.4443833" lon="16.2691533"><ele>1131.75</ele><time>2026-04-07T07:56:55.79Z</time></trkpt><trkpt lat="38.4443183" lon="16.2692867"><ele>1133.0</ele><time>2026-04-07T07:56:56.789Z</time></trkpt><trkpt lat="38.4442483" lon="16.269415"><ele>1133.0</ele><time>2026-04-07T07:56:57.79Z</time></trkpt><trkpt lat="38.4441767" lon="16.26955"><ele>1133.0</ele><time>2026-04-07T07:56:58.789Z</time></trkpt><trkpt lat="38.4441467" lon="16.26971"><ele>1133.0</ele><time>2026-04-07T07:56:59.79Z</time></trkpt><trkpt lat="38.4441083" lon="16.2698633"><ele>1133.0</ele><time>2026-04-07T07:57:00.789Z</time></trkpt><trkpt lat="38.4440733" lon="16.2700217"><ele>1129.25</ele><time>2026-04-07T07:57:01.79Z</time></trkpt><trkpt lat="38.4440367" lon="16.2701767"><ele>1125.5</ele><time>2026-04-07T07:57:02.789Z</time></trkpt><trkpt lat="38.443985" lon="16.2703233"><ele>1121.75</ele><time>2026-04-07T07:57:03.789Z</time></trkpt><trkpt lat="38.4439233" lon="16.2704733"><ele>1118.0</ele><time>2026-04-07T07:57:04.789Z</time></trkpt><trkpt lat="38.44387" lon="16.270635"><ele>1117.5</ele><time>2026-04-07T07:57:05.79Z</time></trkpt><trkpt lat="38.4438267" lon="16.2707967"><ele>1117.0</ele><time>2026-04-07T07:57:06.789Z</time></trkpt><trkpt lat="38.443785" lon="16.27097"><ele>1116.5</ele><time>2026-04-07T07:57:07.789Z</time></trkpt><trkpt lat="38.4437633" lon="16.271145"><ele>1116.0</ele><time>2026-04-07T07:57:08.789Z</time></trkpt><trkpt lat="38.4437517" lon="16.271315"><ele>1114.8</ele><time>2026-04-07T07:57:09.79Z</time></trkpt><trkpt lat="38.44374" lon="16.2714633"><ele>1113.6</ele><time>2026-04-07T07:57:10.789Z</time></trkpt><trkpt lat="38.4437333" lon="16.2716183"><ele>1112.4</ele><time>2026-04-07T07:57:11.789Z</time></trkpt><trkpt lat="38.44371" lon="16.2717533"><ele>1111.2</ele><time>2026-04-07T07:57:12.789Z</time></trkpt><trkpt lat="38.4436867" lon="16.271875"><ele>1110.0</ele><time>2026-04-07T07:57:13.789Z</time></trkpt><trkpt lat="38.4436667" lon="16.2719917"><ele>1110.0</ele><time>2026-04-07T07:57:14.789Z</time></trkpt><trkpt lat="38.44364" lon="16.2720783"><ele>1110.0</ele><time>2026-04-07T07:57:15.789Z</time></trkpt><trkpt lat="38.4436117" lon="16.2721867"><ele>1110.0</ele><time>2026-04-07T07:57:17.79Z</time></trkpt><trkpt lat="38.4436267" lon="16.2722683"><ele>1110.0</ele><time>2026-04-07T07:57:19.79Z</time></trkpt><trkpt lat="38.443675" lon="16.27232"><ele>1110.0</ele><time>2026-04-07T07:57:21.789Z</time></trkpt><trkpt lat="38.443755" lon="16.272315"><ele>1110.0</ele><time>2026-04-07T07:57:23.789Z</time></trkpt><trkpt lat="38.44385" lon="16.2722767"><ele>1109.6666666666667</ele><time>2026-04-07T07:57:25.789Z</time></trkpt><trkpt lat="38.44391" lon="16.2722283"><ele>1109.3333333333333</ele><time>2026-04-07T07:57:26.79Z</time></trkpt><trkpt lat="38.4439717" lon="16.272165"><ele>1109.0</ele><time>2026-04-07T07:57:27.789Z</time></trkpt><trkpt lat="38.44403" lon="16.272085"><ele>1108.6666666666665</ele><time>2026-04-07T07:57:28.789Z</time></trkpt><trkpt lat="38.4440783" lon="16.2719917"><ele>1108.3333333333333</ele><time>2026-04-07T07:57:29.79Z</time></trkpt><trkpt lat="38.4441133" lon="16.271875"><ele>1108.0</ele><time>2026-04-07T07:57:30.789Z</time></trkpt><trkpt lat="38.444145" lon="16.2717483"><ele>1108.0</ele><time>2026-04-07T07:57:31.789Z</time></trkpt><trkpt lat="38.4441583" lon="16.27163"><ele>1108.0</ele><time>2026-04-07T07:57:32.789Z</time></trkpt><trkpt lat="38.44417" lon="16.2714983"><ele>1108.0</ele><time>2026-04-07T07:57:33.789Z</time></trkpt><trkpt lat="38.4441867" lon="16.271365"><ele>1108.0</ele><time>2026-04-07T07:57:34.789Z</time></trkpt><trkpt lat="38.444195" lon="16.2712217"><ele>1108.0</ele><time>2026-04-07T07:57:35.789Z</time></trkpt><trkpt lat="38.4442017" lon="16.2710833"><ele>1108.6</ele><time>2026-04-07T07:57:36.789Z</time></trkpt><trkpt lat="38.4442167" lon="16.2709517"><ele>1109.1999999999998</ele><time>2026-04-07T07:57:37.789Z</time></trkpt><trkpt lat="38.444225" lon="16.2708183"><ele>1109.8</ele><time>2026-04-07T07:57:38.789Z</time></trkpt><trkpt lat="38.4442333" lon="16.2707067"><ele>1110.3999999999999</ele><time>2026-04-07T07:57:39.789Z</time></trkpt><trkpt lat="38.4442417" lon="16.2705933"><ele>1111.0</ele><time>2026-04-07T07:57:40.789Z</time></trkpt><trkpt lat="38.4442583" lon="16.27049"><ele>1110.7142857142858</ele><time>2026-04-07T07:57:41.789Z</time></trkpt><trkpt lat="38.44428" lon="16.270395"><ele>1110.4285714285716</ele><time>2026-04-07T07:57:42.789Z</time></trkpt><trkpt lat="38.4443233" lon="16.2703317"><ele>1110.142857142857</ele><time>2026-04-07T07:57:43.789Z</time></trkpt><trkpt lat="38.4443717" lon="16.27028"><ele>1109.857142857143</ele><time>2026-04-07T07:57:44.789Z</time></trkpt><trkpt lat="38.444435" lon="16.270245"><ele>1109.5714285714284</ele><time>2026-04-07T07:57:45.79Z</time></trkpt><trkpt lat="38.4445133" lon="16.2702467"><ele>1109.2857142857142</ele><time>2026-04-07T07:57:46.789Z</time></trkpt><trkpt lat="38.4446" lon="16.270265"><ele>1109.0</ele><time>2026-04-07T07:57:47.789Z</time></trkpt><trkpt lat="38.444685" lon="16.2702817"><ele>1109.0</ele><time>2026-04-07T07:57:48.789Z</time></trkpt><trkpt lat="38.444765" lon="16.2703133"><ele>1109.0</ele><time>2026-04-07T07:57:49.79Z</time></trkpt><trkpt lat="38.4448417" lon="16.2703533"><ele>1109.0</ele><time>2026-04-07T07:57:50.79Z</time></trkpt><trkpt lat="38.4449317" lon="16.2704133"><ele>1109.0</ele><time>2026-04-07T07:57:51.789Z</time></trkpt><trkpt lat="38.4450083" lon="16.2704917"><ele>1109.0</ele><time>2026-04-07T07:57:52.79Z</time></trkpt><trkpt lat="38.4450733" lon="16.2705733"><ele>1107.6000000000001</ele><time>2026-04-07T07:57:53.789Z</time></trkpt><trkpt lat="38.4451317" lon="16.2706433"><ele>1106.2</ele><time>2026-04-07T07:57:54.79Z</time></trkpt><trkpt lat="38.4451967" lon="16.27071"><ele>1104.8000000000002</ele><time>2026-04-07T07:57:55.789Z</time></trkpt><trkpt lat="38.44528" lon="16.2707967"><ele>1103.4</ele><time>2026-04-07T07:57:56.789Z</time></trkpt><trkpt lat="38.44536" lon="16.2708667"><ele>1102.0</ele><time>2026-04-07T07:57:57.789Z</time></trkpt><trkpt lat="38.4454433" lon="16.270925"><ele>1101.5</ele><time>2026-04-07T07:57:58.789Z</time></trkpt><trkpt lat="38.44554" lon="16.2709617"><ele>1101.0</ele><time>2026-04-07T07:57:59.789Z</time></trkpt><trkpt lat="38.44563" lon="16.2709633"><ele>1100.5</ele><time>2026-04-07T07:58:00.789Z</time></trkpt><trkpt lat="38.44571" lon="16.2709533"><ele>1100.0</ele><time>2026-04-07T07:58:01.789Z</time></trkpt><trkpt lat="38.4457783" lon="16.2709117"><ele>1099.5</ele><time>2026-04-07T07:58:02.789Z</time></trkpt><trkpt lat="38.4458433" lon="16.2708417"><ele>1099.0</ele><time>2026-04-07T07:58:03.79Z</time></trkpt><trkpt lat="38.4459067" lon="16.2707533"><ele>1099.0</ele><time>2026-04-07T07:58:04.79Z</time></trkpt><trkpt lat="38.44596" lon="16.2706533"><ele>1099.0</ele><time>2026-04-07T07:58:05.79Z</time></trkpt><trkpt lat="38.4460333" lon="16.2705617"><ele>1099.0</ele><time>2026-04-07T07:58:06.789Z</time></trkpt><trkpt lat="38.44612" lon="16.2704717"><ele>1099.0</ele><time>2026-04-07T07:58:07.789Z</time></trkpt><trkpt lat="38.4462183" lon="16.2703983"><ele>1099.0</ele><time>2026-04-07T07:58:08.789Z</time></trkpt><trkpt lat="38.4463167" lon="16.270325"><ele>1096.6000000000001</ele><time>2026-04-07T07:58:09.79Z</time></trkpt><trkpt lat="38.446405" lon="16.2702433"><ele>1094.2</ele><time>2026-04-07T07:58:10.789Z</time></trkpt><trkpt lat="38.4464683" lon="16.27014"><ele>1091.8000000000002</ele><time>2026-04-07T07:58:11.789Z</time></trkpt><trkpt lat="38.4465117" lon="16.2700267"><ele>1089.4</ele><time>2026-04-07T07:58:12.789Z</time></trkpt><trkpt lat="38.4465383" lon="16.269905"><ele>1087.0</ele><time>2026-04-07T07:58:13.789Z</time></trkpt><trkpt lat="38.4465417" lon="16.2697967"><ele>1087.6</ele><time>2026-04-07T07:58:14.789Z</time></trkpt><trkpt lat="38.446525" lon="16.269695"><ele>1088.2</ele><time>2026-04-07T07:58:15.789Z</time></trkpt><trkpt lat="38.4464883" lon="16.2695917"><ele>1088.8</ele><time>2026-04-07T07:58:16.79Z</time></trkpt><trkpt lat="38.4464517" lon="16.26947"><ele>1089.4</ele><time>2026-04-07T07:58:17.789Z</time></trkpt><trkpt lat="38.446425" lon="16.2693367"><ele>1090.0</ele><time>2026-04-07T07:58:18.789Z</time></trkpt><trkpt lat="38.4464133" lon="16.2691983"><ele>1090.0</ele><time>2026-04-07T07:58:19.79Z</time></trkpt><trkpt lat="38.4464117" lon="16.2690667"><ele>1090.0</ele><time>2026-04-07T07:58:20.79Z</time></trkpt><trkpt lat="38.4464233" lon="16.2689583"><ele>1090.0</ele><time>2026-04-07T07:58:21.789Z</time></trkpt><trkpt lat="38.4464417" lon="16.26886"><ele>1090.0</ele><time>2026-04-07T07:58:22.79Z</time></trkpt><trkpt lat="38.4464783" lon="16.2687717"><ele>1090.0</ele><time>2026-04-07T07:58:23.789Z</time></trkpt><trkpt lat="38.44654" lon="16.2687117"><ele>1090.0</ele><time>2026-04-07T07:58:24.789Z</time></trkpt><trkpt lat="38.4466167" lon="16.2686733"><ele>1090.2</ele><time>2026-04-07T07:58:25.789Z</time></trkpt><trkpt lat="38.4467183" lon="16.2686567"><ele>1090.4</ele><time>2026-04-07T07:58:26.789Z</time></trkpt><trkpt lat="38.44683" lon="16.2686667"><ele>1090.6</ele><time>2026-04-07T07:58:27.79Z</time></trkpt><trkpt lat="38.446935" lon="16.2687083"><ele>1090.8</ele><time>2026-04-07T07:58:28.789Z</time></trkpt><trkpt lat="38.447045" lon="16.268765"><ele>1091.0</ele><time>2026-04-07T07:58:29.79Z</time></trkpt><trkpt lat="38.4471433" lon="16.2688117"><ele>1091.0</ele><time>2026-04-07T07:58:30.789Z</time></trkpt><trkpt lat="38.4472333" lon="16.268855"><ele>1091.0</ele><time>2026-04-07T07:58:31.79Z</time></trkpt><trkpt lat="38.447305" lon="16.2688767"><ele>1091.0</ele><time>2026-04-07T07:58:32.79Z</time></trkpt><trkpt lat="38.4473783" lon="16.2688583"><ele>1091.0</ele><time>2026-04-07T07:58:33.789Z</time></trkpt><trkpt lat="38.4474533" lon="16.26881"><ele>1091.0</ele><time>2026-04-07T07:58:34.789Z</time></trkpt><trkpt lat="38.4475167" lon="16.2687283"><ele>1091.0</ele><time>2026-04-07T07:58:35.789Z</time></trkpt><trkpt lat="38.44757" lon="16.2686233"><ele>1091.0</ele><time>2026-04-07T07:58:36.79Z</time></trkpt><trkpt lat="38.4476133" lon="16.2684833"><ele>1091.0</ele><time>2026-04-07T07:58:37.789Z</time></trkpt><trkpt lat="38.4476533" lon="16.26835"><ele>1091.0</ele><time>2026-04-07T07:58:38.79Z</time></trkpt><trkpt lat="38.4476883" lon="16.2682417"><ele>1091.0</ele><time>2026-04-07T07:58:39.789Z</time></trkpt><trkpt lat="38.4477233" lon="16.26817"><ele>1091.0</ele><time>2026-04-07T07:58:40.789Z</time></trkpt><trkpt lat="38.4478217" lon="16.268105"><ele>1091.0</ele><time>2026-04-07T07:58:42.789Z</time></trkpt><trkpt lat="38.4478817" lon="16.2681317"><ele>1091.0</ele><time>2026-04-07T07:58:43.79Z</time></trkpt><trkpt lat="38.4479633" lon="16.2682717"><ele>1091.0</ele><time>2026-04-07T07:58:45.79Z</time></trkpt><trkpt lat="38.4479667" lon="16.26838"><ele>1091.0</ele><time>2026-04-07T07:58:46.79Z</time></trkpt><trkpt lat="38.4479633" lon="16.2684933"><ele>1091.0</ele><time>2026-04-07T07:58:47.789Z</time></trkpt><trkpt lat="38.44795" lon="16.2686217"><ele>1091.0</ele><time>2026-04-07T07:58:48.789Z</time></trkpt><trkpt lat="38.4479283" lon="16.26878"><ele>1091.0</ele><time>2026-04-07T07:58:49.789Z</time></trkpt><trkpt lat="38.4479183" lon="16.268945"><ele>1091.0</ele><time>2026-04-07T07:58:50.789Z</time></trkpt><trkpt lat="38.4479283" lon="16.269115"><ele>1091.0</ele><time>2026-04-07T07:58:51.79Z</time></trkpt><trkpt lat="38.4479533" lon="16.2692833"><ele>1087.0</ele><time>2026-04-07T07:58:52.789Z</time></trkpt><trkpt lat="38.4479833" lon="16.2694367"><ele>1083.0</ele><time>2026-04-07T07:58:53.79Z</time></trkpt><trkpt lat="38.4480267" lon="16.2695733"><ele>1079.0</ele><time>2026-04-07T07:58:54.789Z</time></trkpt><trkpt lat="38.44809" lon="16.2697117"><ele>1075.0</ele><time>2026-04-07T07:58:55.79Z</time></trkpt><trkpt lat="38.448155" lon="16.269845"><ele>1073.0</ele><time>2026-04-07T07:58:56.789Z</time></trkpt><trkpt lat="38.448225" lon="16.269965"><ele>1071.0</ele><time>2026-04-07T07:58:57.789Z</time></trkpt><trkpt lat="38.448295" lon="16.2700583"><ele>1069.0</ele><time>2026-04-07T07:58:58.789Z</time></trkpt><trkpt lat="38.4483667" lon="16.2701267"><ele>1067.0</ele><time>2026-04-07T07:58:59.789Z</time></trkpt><trkpt lat="38.4484433" lon="16.2701433"><ele>1065.0</ele><time>2026-04-07T07:59:00.789Z</time></trkpt><trkpt lat="38.4485267" lon="16.2701083"><ele>1065.0</ele><time>2026-04-07T07:59:01.789Z</time></trkpt><trkpt lat="38.4486067" lon="16.27004"><ele>1065.0</ele><time>2026-04-07T07:59:02.789Z</time></trkpt><trkpt lat="38.4486767" lon="16.269935"><ele>1065.0</ele><time>2026-04-07T07:59:03.789Z</time></trkpt><trkpt lat="38.4487233" lon="16.2698117"><ele>1065.0</ele><time>2026-04-07T07:59:04.789Z</time></trkpt><trkpt lat="38.448745" lon="16.2696717"><ele>1065.0</ele><time>2026-04-07T07:59:05.789Z</time></trkpt><trkpt lat="38.4487683" lon="16.2695383"><ele>1065.6</ele><time>2026-04-07T07:59:06.789Z</time></trkpt><trkpt lat="38.448785" lon="16.269405"><ele>1066.2</ele><time>2026-04-07T07:59:07.79Z</time></trkpt><trkpt lat="38.4488067" lon="16.2692683"><ele>1066.8</ele><time>2026-04-07T07:59:08.789Z</time></trkpt><trkpt lat="38.4488183" lon="16.2691417"><ele>1067.4</ele><time>2026-04-07T07:59:09.789Z</time></trkpt><trkpt lat="38.4488283" lon="16.2690067"><ele>1068.0</ele><time>2026-04-07T07:59:10.789Z</time></trkpt><trkpt lat="38.448845" lon="16.268905"><ele>1068.0</ele><time>2026-04-07T07:59:11.789Z</time></trkpt><trkpt lat="38.4488717" lon="16.26881"><ele>1068.0</ele><time>2026-04-07T07:59:12.789Z</time></trkpt><trkpt lat="38.4489583" lon="16.2687167"><ele>1068.0</ele><time>2026-04-07T07:59:14.789Z</time></trkpt><trkpt lat="38.4490233" lon="16.268695"><ele>1068.0</ele><time>2026-04-07T07:59:15.79Z</time></trkpt><trkpt lat="38.4490967" lon="16.2686983"><ele>1068.0</ele><time>2026-04-07T07:59:16.79Z</time></trkpt><trkpt lat="38.4491933" lon="16.268745"><ele>1068.0</ele><time>2026-04-07T07:59:17.789Z</time></trkpt><trkpt lat="38.449315" lon="16.26881"><ele>1068.0</ele><time>2026-04-07T07:59:18.79Z</time></trkpt><trkpt lat="38.4494733" lon="16.2689"><ele>1068.0</ele><time>2026-04-07T07:59:19.789Z</time></trkpt><trkpt lat="38.4496017" lon="16.26896"><ele>1068.0</ele><time>2026-04-07T07:59:20.79Z</time></trkpt><trkpt lat="38.4497217" lon="16.269025"><ele>1068.0</ele><time>2026-04-07T07:59:21.79Z</time></trkpt><trkpt lat="38.449835" lon="16.2690683"><ele>1065.6</ele><time>2026-04-07T07:59:22.79Z</time></trkpt><trkpt lat="38.449935" lon="16.2690983"><ele>1063.1999999999998</ele><time>2026-04-07T07:59:23.789Z</time></trkpt><trkpt lat="38.45003" lon="16.2691033"><ele>1060.8</ele><time>2026-04-07T07:59:24.789Z</time></trkpt><trkpt lat="38.45012" lon="16.2690833"><ele>1058.3999999999999</ele><time>2026-04-07T07:59:25.79Z</time></trkpt><trkpt lat="38.4502" lon="16.2690233"><ele>1056.0</ele><time>2026-04-07T07:59:26.789Z</time></trkpt><trkpt lat="38.4502817" lon="16.2689483"><ele>1055.3999999999999</ele><time>2026-04-07T07:59:27.789Z</time></trkpt><trkpt lat="38.45035" lon="16.268855"><ele>1054.8</ele><time>2026-04-07T07:59:28.789Z</time></trkpt><trkpt lat="38.4503917" lon="16.2687317"><ele>1054.1999999999998</ele><time>2026-04-07T07:59:29.789Z</time></trkpt><trkpt lat="38.4504233" lon="16.2685883"><ele>1053.6</ele><time>2026-04-07T07:59:30.789Z</time></trkpt><trkpt lat="38.4504617" lon="16.268435"><ele>1053.0</ele><time>2026-04-07T07:59:31.79Z</time></trkpt><trkpt lat="38.4505067" lon="16.2682783"><ele>1053.0</ele><time>2026-04-07T07:59:32.789Z</time></trkpt><trkpt lat="38.4505417" lon="16.2681217"><ele>1053.0</ele><time>2026-04-07T07:59:33.789Z</time></trkpt><trkpt lat="38.4505633" lon="16.2679733"><ele>1053.0</ele><time>2026-04-07T07:59:34.789Z</time></trkpt><trkpt lat="38.4505617" lon="16.2678317"><ele>1053.0</ele><time>2026-04-07T07:59:35.789Z</time></trkpt><trkpt lat="38.4505467" lon="16.2676883"><ele>1053.1666666666667</ele><time>2026-04-07T07:59:36.789Z</time></trkpt><trkpt lat="38.4505383" lon="16.2675633"><ele>1053.3333333333333</ele><time>2026-04-07T07:59:37.79Z</time></trkpt><trkpt lat="38.4505417" lon="16.2674467"><ele>1053.5</ele><time>2026-04-07T07:59:38.789Z</time></trkpt><trkpt lat="38.450565" lon="16.267345"><ele>1053.6666666666665</ele><time>2026-04-07T07:59:39.789Z</time></trkpt><trkpt lat="38.4505933" lon="16.2672417"><ele>1053.8333333333333</ele><time>2026-04-07T07:59:40.789Z</time></trkpt><trkpt lat="38.4506533" lon="16.2671917"><ele>1054.0</ele><time>2026-04-07T07:59:41.789Z</time></trkpt><trkpt lat="38.4507433" lon="16.2671517"><ele>1054.2</ele><time>2026-04-07T07:59:42.789Z</time></trkpt><trkpt lat="38.4508533" lon="16.267135"><ele>1054.4</ele><time>2026-04-07T07:59:43.79Z</time></trkpt><trkpt lat="38.450965" lon="16.2671317"><ele>1054.6</ele><time>2026-04-07T07:59:44.789Z</time></trkpt><trkpt lat="38.4510667" lon="16.2671583"><ele>1054.8</ele><time>2026-04-07T07:59:45.789Z</time></trkpt><trkpt lat="38.4511617" lon="16.2671917"><ele>1055.0</ele><time>2026-04-07T07:59:46.789Z</time></trkpt><trkpt lat="38.451265" lon="16.2672283"><ele>1054.4</ele><time>2026-04-07T07:59:47.79Z</time></trkpt><trkpt lat="38.451345" lon="16.2672983"><ele>1053.8</ele><time>2026-04-07T07:59:48.789Z</time></trkpt><trkpt lat="38.4514217" lon="16.2673683"><ele>1053.2</ele><time>2026-04-07T07:59:49.789Z</time></trkpt><trkpt lat="38.45149" lon="16.2674483"><ele>1052.6</ele><time>2026-04-07T07:59:50.789Z</time></trkpt><trkpt lat="38.4515483" lon="16.26757"><ele>1052.0</ele><time>2026-04-07T07:59:51.79Z</time></trkpt><trkpt lat="38.45159" lon="16.2677033"><ele>1052.0</ele><time>2026-04-07T07:59:52.789Z</time></trkpt><trkpt lat="38.45161" lon="16.2678483"><ele>1052.0</ele><time>2026-04-07T07:59:53.79Z</time></trkpt><trkpt lat="38.451625" lon="16.2679867"><ele>1052.0</ele><time>2026-04-07T07:59:54.789Z</time></trkpt><trkpt lat="38.45166" lon="16.2681283"><ele>1052.0</ele><time>2026-04-07T07:59:55.79Z</time></trkpt><trkpt lat="38.4517083" lon="16.2682633"><ele>1052.0</ele><time>2026-04-07T07:59:56.789Z</time></trkpt><trkpt lat="38.4517583" lon="16.2683833"><ele>1052.0</ele><time>2026-04-07T07:59:57.79Z</time></trkpt><trkpt lat="38.4518283" lon="16.2684833"><ele>1052.0</ele><time>2026-04-07T07:59:58.789Z</time></trkpt><trkpt lat="38.4519167" lon="16.268555"><ele>1052.0</ele><time>2026-04-07T07:59:59.789Z</time></trkpt><trkpt lat="38.45201" lon="16.268625"><ele>1052.0</ele><time>2026-04-07T08:00:00.789Z</time></trkpt><trkpt lat="38.4521133" lon="16.2686983"><ele>1051.25</ele><time>2026-04-07T08:00:01.79Z</time></trkpt><trkpt lat="38.4522233" lon="16.26878"><ele>1050.5</ele><time>2026-04-07T08:00:02.789Z</time></trkpt><trkpt lat="38.452345" lon="16.2688583"><ele>1049.75</ele><time>2026-04-07T08:00:03.789Z</time></trkpt><trkpt lat="38.4524733" lon="16.2689367"><ele>1049.0</ele><time>2026-04-07T08:00:04.79Z</time></trkpt><trkpt lat="38.4526117" lon="16.2690117"><ele>1049.0</ele><time>2026-04-07T08:00:05.79Z</time></trkpt><trkpt lat="38.45275" lon="16.2690967"><ele>1049.0</ele><time>2026-04-07T08:00:06.79Z</time></trkpt><trkpt lat="38.4529017" lon="16.269195"><ele>1049.0</ele><time>2026-04-07T08:00:07.789Z</time></trkpt><trkpt lat="38.4530417" lon="16.2692867"><ele>1047.75</ele><time>2026-04-07T08:00:08.789Z</time></trkpt><trkpt lat="38.453185" lon="16.26938"><ele>1046.5</ele><time>2026-04-07T08:00:09.789Z</time></trkpt><trkpt lat="38.45331" lon="16.2694583"><ele>1045.25</ele><time>2026-04-07T08:00:10.79Z</time></trkpt><trkpt lat="38.4534283" lon="16.26953"><ele>1044.0</ele><time>2026-04-07T08:00:11.789Z</time></trkpt><trkpt lat="38.4535633" lon="16.26958"><ele>1044.0</ele><time>2026-04-07T08:00:12.789Z</time></trkpt><trkpt lat="38.4537133" lon="16.2696"><ele>1044.0</ele><time>2026-04-07T08:00:13.789Z</time></trkpt><trkpt lat="38.4538583" lon="16.26961"><ele>1044.0</ele><time>2026-04-07T08:00:14.789Z</time></trkpt><trkpt lat="38.45401" lon="16.269625"><ele>1044.0</ele><time>2026-04-07T08:00:15.79Z</time></trkpt><trkpt lat="38.4541567" lon="16.2696283"><ele>1044.25</ele><time>2026-04-07T08:00:16.789Z</time></trkpt><trkpt lat="38.4543317" lon="16.2695967"><ele>1044.5</ele><time>2026-04-07T08:00:17.79Z</time></trkpt><trkpt lat="38.4544617" lon="16.2695967"><ele>1044.75</ele><time>2026-04-07T08:00:18.79Z</time></trkpt><trkpt lat="38.4545683" lon="16.2696"><ele>1045.0</ele><time>2026-04-07T08:00:19.789Z</time></trkpt><trkpt lat="38.4546817" lon="16.2696"><ele>1045.6</ele><time>2026-04-07T08:00:20.789Z</time></trkpt><trkpt lat="38.454795" lon="16.2695883"><ele>1046.2</ele><time>2026-04-07T08:00:21.79Z</time></trkpt><trkpt lat="38.4549083" lon="16.2695617"><ele>1046.8</ele><time>2026-04-07T08:00:22.79Z</time></trkpt><trkpt lat="38.4550117" lon="16.2695367"><ele>1047.4</ele><time>2026-04-07T08:00:23.789Z</time></trkpt><trkpt lat="38.4551067" lon="16.2695067"><ele>1048.0</ele><time>2026-04-07T08:00:24.789Z</time></trkpt><trkpt lat="38.4551967" lon="16.2694767"><ele>1048.0</ele><time>2026-04-07T08:00:25.789Z</time></trkpt><trkpt lat="38.4552783" lon="16.2694433"><ele>1048.0</ele><time>2026-04-07T08:00:26.79Z</time></trkpt><trkpt lat="38.4553483" lon="16.2694017"><ele>1048.0</ele><time>2026-04-07T08:00:27.789Z</time></trkpt><trkpt lat="38.4554067" lon="16.2693633"><ele>1048.0</ele><time>2026-04-07T08:00:28.789Z</time></trkpt><trkpt lat="38.455465" lon="16.269325"><ele>1048.0</ele><time>2026-04-07T08:00:29.79Z</time></trkpt><trkpt lat="38.4555417" lon="16.269255"><ele>1048.0</ele><time>2026-04-07T08:00:31.789Z</time></trkpt><trkpt lat="38.455595" lon="16.269205"><ele>1047.4285714285716</ele><time>2026-04-07T08:00:34.79Z</time></trkpt><trkpt lat="38.455645" lon="16.269135"><ele>1046.857142857143</ele><time>2026-04-07T08:00:38.789Z</time></trkpt><trkpt lat="38.4556983" lon="16.2690917"><ele>1046.2857142857142</ele><time>2026-04-07T08:00:40.789Z</time></trkpt><trkpt lat="38.45577" lon="16.269045"><ele>1045.7142857142858</ele><time>2026-04-07T08:00:43.789Z</time></trkpt><trkpt lat="38.4558383" lon="16.269045"><ele>1045.142857142857</ele><time>2026-04-07T08:00:45.789Z</time></trkpt><trkpt lat="38.455925" lon="16.2690283"><ele>1044.5714285714287</ele><time>2026-04-07T08:00:48.789Z</time></trkpt><trkpt lat="38.4559917" lon="16.2689983"><ele>1044.0</ele><time>2026-04-07T08:00:50.79Z</time></trkpt><trkpt lat="38.4560733" lon="16.26897"><ele>1044.0</ele><time>2026-04-07T08:00:52.79Z</time></trkpt><trkpt lat="38.4561617" lon="16.2689617"><ele>1044.0</ele><time>2026-04-07T08:00:54.79Z</time></trkpt><trkpt lat="38.45625" lon="16.2689367"><ele>1044.0</ele><time>2026-04-07T08:00:56.79Z</time></trkpt><trkpt lat="38.4563483" lon="16.2688967"><ele>1044.0</ele><time>2026-04-07T08:00:58.79Z</time></trkpt><trkpt lat="38.4564483" lon="16.2688683"><ele>1044.0</ele><time>2026-04-07T08:01:00.789Z</time></trkpt><trkpt lat="38.4565467" lon="16.2688467"><ele>1044.8</ele><time>2026-04-07T08:01:02.79Z</time></trkpt><trkpt lat="38.45663" lon="16.26883"><ele>1045.6000000000001</ele><time>2026-04-07T08:01:04.789Z</time></trkpt><trkpt lat="38.456715" lon="16.2688133"><ele>1046.4</ele><time>2026-04-07T08:01:06.79Z</time></trkpt><trkpt lat="38.456805" lon="16.26877"><ele>1047.2</ele><time>2026-04-07T08:01:08.789Z</time></trkpt><trkpt lat="38.4568917" lon="16.2686917"><ele>1048.0</ele><time>2026-04-07T08:01:10.789Z</time></trkpt><trkpt lat="38.456955" lon="16.2686283"><ele>1048.0</ele><time>2026-04-07T08:01:12.789Z</time></trkpt><trkpt lat="38.45704" lon="16.268535"><ele>1048.0</ele><time>2026-04-07T08:01:14.789Z</time></trkpt><trkpt lat="38.4571083" lon="16.26846"><ele>1048.0</ele><time>2026-04-07T08:01:16.789Z</time></trkpt><trkpt lat="38.4571817" lon="16.2684"><ele>1048.0</ele><time>2026-04-07T08:01:18.789Z</time></trkpt><trkpt lat="38.457245" lon="16.268345"><ele>1048.0</ele><time>2026-04-07T08:01:20.79Z</time></trkpt><trkpt lat="38.4571783" lon="16.2683917"><ele>1048.0</ele><time>2026-04-07T08:01:43.79Z</time></trkpt><trkpt lat="38.457125" lon="16.2684367"><ele>1048.0</ele><time>2026-04-07T08:01:45.79Z</time></trkpt><trkpt lat="38.4570433" lon="16.2684817"><ele>1048.0</ele><time>2026-04-07T08:01:48.79Z</time></trkpt><trkpt lat="38.4569767" lon="16.2685517"><ele>1048.0</ele><time>2026-04-07T08:01:50.791Z</time></trkpt><trkpt lat="38.45689" lon="16.2686383"><ele>1048.0</ele><time>2026-04-07T08:01:52.79Z</time></trkpt><trkpt lat="38.4568" lon="16.2687117"><ele>1048.0</ele><time>2026-04-07T08:01:54.79Z</time></trkpt><trkpt lat="38.4567133" lon="16.26875"><ele>1048.0</ele><time>2026-04-07T08:01:56.79Z</time></trkpt><trkpt lat="38.456575" lon="16.26878"><ele>1048.0</ele><time>2026-04-07T08:01:59.79Z</time></trkpt><trkpt lat="38.456455" lon="16.2688033"><ele>1048.0</ele><time>2026-04-07T08:02:01.79Z</time></trkpt><trkpt lat="38.4563767" lon="16.26882"><ele>1048.0</ele><time>2026-04-07T08:02:02.791Z</time></trkpt><trkpt lat="38.4562817" lon="16.2688433"><ele>1048.0</ele><time>2026-04-07T08:02:03.791Z</time></trkpt><trkpt lat="38.4561917" lon="16.2688667"><ele>1047.2</ele><time>2026-04-07T08:02:04.79Z</time></trkpt><trkpt lat="38.4561117" lon="16.26889"><ele>1046.4</ele><time>2026-04-07T08:02:05.79Z</time></trkpt><trkpt lat="38.4560417" lon="16.268905"><ele>1045.6000000000001</ele><time>2026-04-07T08:02:06.79Z</time></trkpt><trkpt lat="38.4559183" lon="16.2689333"><ele>1044.8</ele><time>2026-04-07T08:02:08.79Z</time></trkpt><trkpt lat="38.4558" lon="16.26897"><ele>1044.0</ele><time>2026-04-07T08:02:10.79Z</time></trkpt><trkpt lat="38.4557183" lon="16.2690267"><ele>1044.0</ele><time>2026-04-07T08:02:12.79Z</time></trkpt><trkpt lat="38.4557183" lon="16.2691167"><ele>1044.0</ele><time>2026-04-07T08:02:16.791Z</time></trkpt><trkpt lat="38.4558067" lon="16.2691467"><ele>1044.0</ele><time>2026-04-07T08:02:19.79Z</time></trkpt><trkpt lat="38.45587" lon="16.26915"><ele>1044.0</ele><time>2026-04-07T08:02:20.791Z</time></trkpt><trkpt lat="38.4559383" lon="16.2691567"><ele>1044.0</ele><time>2026-04-07T08:02:21.79Z</time></trkpt><trkpt lat="38.456005" lon="16.2691683"><ele>1044.0</ele><time>2026-04-07T08:02:22.79Z</time></trkpt><trkpt lat="38.4560683" lon="16.2692033"><ele>1044.0</ele><time>2026-04-07T08:02:23.79Z</time></trkpt><trkpt lat="38.456135" lon="16.2692483"><ele>1044.0</ele><time>2026-04-07T08:02:24.79Z</time></trkpt><trkpt lat="38.4561967" lon="16.2692967"><ele>1044.0</ele><time>2026-04-07T08:02:25.791Z</time></trkpt><trkpt lat="38.4562517" lon="16.269345"><ele>1044.0</ele><time>2026-04-07T08:02:26.79Z</time></trkpt><trkpt lat="38.4563167" lon="16.2693933"><ele>1044.0</ele><time>2026-04-07T08:02:27.791Z</time></trkpt><trkpt lat="38.4563817" lon="16.26945"><ele>1044.0</ele><time>2026-04-07T08:02:28.79Z</time></trkpt><trkpt lat="38.4564467" lon="16.2695083"><ele>1044.0</ele><time>2026-04-07T08:02:29.791Z</time></trkpt><trkpt lat="38.4565117" lon="16.2695633"><ele>1043.8333333333333</ele><time>2026-04-07T08:02:30.79Z</time></trkpt><trkpt lat="38.4565783" lon="16.2696117"><ele>1043.6666666666667</ele><time>2026-04-07T08:02:31.79Z</time></trkpt><trkpt lat="38.4566483" lon="16.2696583"><ele>1043.5</ele><time>2026-04-07T08:02:32.79Z</time></trkpt><trkpt lat="38.45672" lon="16.2697083"><ele>1043.3333333333335</ele><time>2026-04-07T08:02:33.791Z</time></trkpt><trkpt lat="38.4567883" lon="16.26976"><ele>1043.1666666666667</ele><time>2026-04-07T08:02:34.79Z</time></trkpt><trkpt lat="38.4568517" lon="16.269825"><ele>1043.0</ele><time>2026-04-07T08:02:35.791Z</time></trkpt><trkpt lat="38.4569133" lon="16.2699017"><ele>1043.0</ele><time>2026-04-07T08:02:36.79Z</time></trkpt><trkpt lat="38.4569767" lon="16.2699633"><ele>1043.0</ele><time>2026-04-07T08:02:37.791Z</time></trkpt><trkpt lat="38.45703" lon="16.2700267"><ele>1043.0</ele><time>2026-04-07T08:02:38.79Z</time></trkpt><trkpt lat="38.4570983" lon="16.2700917"><ele>1043.0</ele><time>2026-04-07T08:02:39.79Z</time></trkpt><trkpt lat="38.4571783" lon="16.27015"><ele>1043.0</ele><time>2026-04-07T08:02:40.79Z</time></trkpt><trkpt lat="38.4572533" lon="16.2702033"><ele>1043.0</ele><time>2026-04-07T08:02:41.791Z</time></trkpt><trkpt lat="38.4573283" lon="16.27024"><ele>1043.4</ele><time>2026-04-07T08:02:42.79Z</time></trkpt><trkpt lat="38.4574083" lon="16.27028"><ele>1043.8</ele><time>2026-04-07T08:02:43.791Z</time></trkpt><trkpt lat="38.4575" lon="16.270325"><ele>1044.2</ele><time>2026-04-07T08:02:44.79Z</time></trkpt><trkpt lat="38.4575883" lon="16.27036"><ele>1044.6</ele><time>2026-04-07T08:02:45.79Z</time></trkpt><trkpt lat="38.4576883" lon="16.2703967"><ele>1045.0</ele><time>2026-04-07T08:02:46.791Z</time></trkpt><trkpt lat="38.4577883" lon="16.2704333"><ele>1045.0</ele><time>2026-04-07T08:02:47.791Z</time></trkpt><trkpt lat="38.4578883" lon="16.2704717"><ele>1045.0</ele><time>2026-04-07T08:02:48.79Z</time></trkpt><trkpt lat="38.4579833" lon="16.2705083"><ele>1045.0</ele><time>2026-04-07T08:02:49.79Z</time></trkpt><trkpt lat="38.4580767" lon="16.27054"><ele>1045.0</ele><time>2026-04-07T08:02:50.79Z</time></trkpt><trkpt lat="38.45817" lon="16.270575"><ele>1045.0</ele><time>2026-04-07T08:02:51.79Z</time></trkpt><trkpt lat="38.45826" lon="16.270615"><ele>1042.0</ele><time>2026-04-07T08:02:52.79Z</time></trkpt><trkpt lat="38.4583517" lon="16.27066"><ele>1039.0</ele><time>2026-04-07T08:02:53.79Z</time></trkpt><trkpt lat="38.45846" lon="16.2707083"><ele>1036.0</ele><time>2026-04-07T08:02:54.79Z</time></trkpt><trkpt lat="38.458575" lon="16.2707583"><ele>1033.0</ele><time>2026-04-07T08:02:55.791Z</time></trkpt><trkpt lat="38.458685" lon="16.2708017"><ele>1034.25</ele><time>2026-04-07T08:02:56.791Z</time></trkpt><trkpt lat="38.4587933" lon="16.2708433"><ele>1035.5</ele><time>2026-04-07T08:02:57.79Z</time></trkpt><trkpt lat="38.4589117" lon="16.2709"><ele>1036.75</ele><time>2026-04-07T08:02:58.79Z</time></trkpt><trkpt lat="38.4590267" lon="16.2709617"><ele>1038.0</ele><time>2026-04-07T08:02:59.79Z</time></trkpt><trkpt lat="38.4591417" lon="16.271035"><ele>1038.0</ele><time>2026-04-07T08:03:00.79Z</time></trkpt><trkpt lat="38.45926" lon="16.271115"><ele>1038.0</ele><time>2026-04-07T08:03:01.79Z</time></trkpt><trkpt lat="38.45937" lon="16.2712017"><ele>1038.0</ele><time>2026-04-07T08:03:02.79Z</time></trkpt><trkpt lat="38.459475" lon="16.2712867"><ele>1038.0</ele><time>2026-04-07T08:03:03.79Z</time></trkpt><trkpt lat="38.4595667" lon="16.2713683"><ele>1037.0</ele><time>2026-04-07T08:03:04.791Z</time></trkpt><trkpt lat="38.459655" lon="16.271445"><ele>1036.0</ele><time>2026-04-07T08:03:05.79Z</time></trkpt><trkpt lat="38.45975" lon="16.2715283"><ele>1035.0</ele><time>2026-04-07T08:03:06.79Z</time></trkpt><trkpt lat="38.4598433" lon="16.2716133"><ele>1034.0</ele><time>2026-04-07T08:03:07.79Z</time></trkpt><trkpt lat="38.4599467" lon="16.271715"><ele>1034.0</ele><time>2026-04-07T08:03:08.79Z</time></trkpt><trkpt lat="38.4600533" lon="16.2718133"><ele>1034.0</ele><time>2026-04-07T08:03:09.79Z</time></trkpt><trkpt lat="38.46015" lon="16.2719"><ele>1034.0</ele><time>2026-04-07T08:03:10.79Z</time></trkpt><trkpt lat="38.46024" lon="16.271975"><ele>1034.0</ele><time>2026-04-07T08:03:11.79Z</time></trkpt><trkpt lat="38.4603233" lon="16.27205"><ele>1034.0</ele><time>2026-04-07T08:03:12.79Z</time></trkpt><trkpt lat="38.4603917" lon="16.27212"><ele>1034.0</ele><time>2026-04-07T08:03:13.791Z</time></trkpt><trkpt lat="38.4604533" lon="16.2722"><ele>1034.0</ele><time>2026-04-07T08:03:14.791Z</time></trkpt><trkpt lat="38.4605017" lon="16.2722917"><ele>1034.0</ele><time>2026-04-07T08:03:15.79Z</time></trkpt><trkpt lat="38.4605533" lon="16.2723817"><ele>1034.0</ele><time>2026-04-07T08:03:16.791Z</time></trkpt><trkpt lat="38.4606067" lon="16.2724683"><ele>1034.0</ele><time>2026-04-07T08:03:17.79Z</time></trkpt><trkpt lat="38.4606283" lon="16.27255"><ele>1033.8333333333335</ele><time>2026-04-07T08:03:18.79Z</time></trkpt><trkpt lat="38.460645" lon="16.2726417"><ele>1033.6666666666667</ele><time>2026-04-07T08:03:19.791Z</time></trkpt><trkpt lat="38.4606483" lon="16.2727517"><ele>1033.5</ele><time>2026-04-07T08:03:20.79Z</time></trkpt><trkpt lat="38.4606283" lon="16.2728683"><ele>1033.3333333333333</ele><time>2026-04-07T08:03:21.79Z</time></trkpt><trkpt lat="38.4605967" lon="16.2729767"><ele>1033.1666666666665</ele><time>2026-04-07T08:03:22.79Z</time></trkpt><trkpt lat="38.4605433" lon="16.2730883"><ele>1033.0</ele><time>2026-04-07T08:03:23.79Z</time></trkpt><trkpt lat="38.460485" lon="16.2732"><ele>1031.0</ele><time>2026-04-07T08:03:24.791Z</time></trkpt><trkpt lat="38.4604167" lon="16.2732967"><ele>1029.0</ele><time>2026-04-07T08:03:25.791Z</time></trkpt><trkpt lat="38.460365" lon="16.2734"><ele>1027.0</ele><time>2026-04-07T08:03:26.79Z</time></trkpt><trkpt lat="38.4603067" lon="16.2735083"><ele>1025.0</ele><time>2026-04-07T08:03:27.791Z</time></trkpt><trkpt lat="38.460255" lon="16.2736083"><ele>1023.0</ele><time>2026-04-07T08:03:28.79Z</time></trkpt><trkpt lat="38.4602183" lon="16.2737067"><ele>1023.0</ele><time>2026-04-07T08:03:29.79Z</time></trkpt><trkpt lat="38.4601933" lon="16.2738033"><ele>1023.0</ele><time>2026-04-07T08:03:30.79Z</time></trkpt><trkpt lat="38.4601917" lon="16.2739"><ele>1023.0</ele><time>2026-04-07T08:03:31.791Z</time></trkpt><trkpt lat="38.4602117" lon="16.2739933"><ele>1023.0</ele><time>2026-04-07T08:03:32.791Z</time></trkpt><trkpt lat="38.460245" lon="16.2740833"><ele>1023.0</ele><time>2026-04-07T08:03:33.79Z</time></trkpt><trkpt lat="38.4603" lon="16.2741717"><ele>1023.0</ele><time>2026-04-07T08:03:34.79Z</time></trkpt><trkpt lat="38.4603767" lon="16.27425"><ele>1025.2</ele><time>2026-04-07T08:03:35.79Z</time></trkpt><trkpt lat="38.460465" lon="16.274305"><ele>1027.4</ele><time>2026-04-07T08:03:36.79Z</time></trkpt><trkpt lat="38.4605567" lon="16.2743383"><ele>1029.6000000000001</ele><time>2026-04-07T08:03:37.79Z</time></trkpt><trkpt lat="38.4606583" lon="16.2743417"><ele>1031.8</ele><time>2026-04-07T08:03:38.791Z</time></trkpt><trkpt lat="38.4607733" lon="16.2743417"><ele>1034.0</ele><time>2026-04-07T08:03:39.791Z</time></trkpt><trkpt lat="38.46088" lon="16.274335"><ele>1034.0</ele><time>2026-04-07T08:03:40.79Z</time></trkpt><trkpt lat="38.46099" lon="16.2743433"><ele>1034.0</ele><time>2026-04-07T08:03:41.79Z</time></trkpt><trkpt lat="38.4610967" lon="16.2743567"><ele>1034.0</ele><time>2026-04-07T08:03:42.791Z</time></trkpt><trkpt lat="38.4612033" lon="16.2743867"><ele>1034.0</ele><time>2026-04-07T08:03:43.791Z</time></trkpt><trkpt lat="38.4613217" lon="16.2744183"><ele>1034.0</ele><time>2026-04-07T08:03:44.791Z</time></trkpt><trkpt lat="38.46143" lon="16.2744517"><ele>1035.0</ele><time>2026-04-07T08:03:45.791Z</time></trkpt><trkpt lat="38.4615367" lon="16.2744883"><ele>1036.0</ele><time>2026-04-07T08:03:46.79Z</time></trkpt><trkpt lat="38.4616433" lon="16.27454"><ele>1037.0</ele><time>2026-04-07T08:03:47.79Z</time></trkpt><trkpt lat="38.46175" lon="16.2746"><ele>1038.0</ele><time>2026-04-07T08:03:48.791Z</time></trkpt><trkpt lat="38.461845" lon="16.274655"><ele>1039.0</ele><time>2026-04-07T08:03:49.79Z</time></trkpt><trkpt lat="38.4619483" lon="16.2747317"><ele>1037.75</ele><time>2026-04-07T08:03:50.791Z</time></trkpt><trkpt lat="38.4620483" lon="16.2748167"><ele>1036.5</ele><time>2026-04-07T08:03:51.79Z</time></trkpt><trkpt lat="38.46214" lon="16.2749083"><ele>1035.25</ele><time>2026-04-07T08:03:52.79Z</time></trkpt><trkpt lat="38.4622467" lon="16.2749933"><ele>1034.0</ele><time>2026-04-07T08:03:53.791Z</time></trkpt><trkpt lat="38.4623533" lon="16.2750733"><ele>1033.75</ele><time>2026-04-07T08:03:54.791Z</time></trkpt><trkpt lat="38.4624733" lon="16.2751333"><ele>1033.5</ele><time>2026-04-07T08:03:55.79Z</time></trkpt><trkpt lat="38.4626033" lon="16.275185"><ele>1033.25</ele><time>2026-04-07T08:03:56.791Z</time></trkpt><trkpt lat="38.46272" lon="16.2752333"><ele>1033.0</ele><time>2026-04-07T08:03:57.79Z</time></trkpt><trkpt lat="38.46285" lon="16.2752767"><ele>1032.0</ele><time>2026-04-07T08:03:58.791Z</time></trkpt><trkpt lat="38.46298" lon="16.2753117"><ele>1031.0</ele><time>2026-04-07T08:03:59.79Z</time></trkpt><trkpt lat="38.4631067" lon="16.2753533"><ele>1030.0</ele><time>2026-04-07T08:04:00.79Z</time></trkpt><trkpt lat="38.463225" lon="16.2754083"><ele>1029.0</ele><time>2026-04-07T08:04:01.79Z</time></trkpt><trkpt lat="38.4633267" lon="16.2754617"><ele>1029.0</ele><time>2026-04-07T08:04:02.79Z</time></trkpt><trkpt lat="38.4634233" lon="16.2755383"><ele>1029.0</ele><time>2026-04-07T08:04:03.79Z</time></trkpt><trkpt lat="38.4635233" lon="16.2756067"><ele>1029.0</ele><time>2026-04-07T08:04:04.79Z</time></trkpt><trkpt lat="38.4636233" lon="16.27568"><ele>1029.0</ele><time>2026-04-07T08:04:05.79Z</time></trkpt><trkpt lat="38.4637133" lon="16.275765"><ele>1028.0</ele><time>2026-04-07T08:04:06.79Z</time></trkpt><trkpt lat="38.4638117" lon="16.27583"><ele>1027.0</ele><time>2026-04-07T08:04:07.79Z</time></trkpt><trkpt lat="38.46391" lon="16.275895"><ele>1026.0</ele><time>2026-04-07T08:04:08.79Z</time></trkpt><trkpt lat="38.464015" lon="16.2759467"><ele>1025.0</ele><time>2026-04-07T08:04:09.79Z</time></trkpt><trkpt lat="38.4641233" lon="16.275975"><ele>1024.0</ele><time>2026-04-07T08:04:10.79Z</time></trkpt><trkpt lat="38.4642433" lon="16.2759883"><ele>1024.0</ele><time>2026-04-07T08:04:11.791Z</time></trkpt><trkpt lat="38.46436" lon="16.275985"><ele>1024.0</ele><time>2026-04-07T08:04:12.79Z</time></trkpt><trkpt lat="38.4644633" lon="16.275965"><ele>1024.0</ele><time>2026-04-07T08:04:13.79Z</time></trkpt><trkpt lat="38.4645633" lon="16.2759217"><ele>1024.0</ele><time>2026-04-07T08:04:14.79Z</time></trkpt><trkpt lat="38.4646483" lon="16.2758433"><ele>1024.0</ele><time>2026-04-07T08:04:15.79Z</time></trkpt><trkpt lat="38.4647417" lon="16.275755"><ele>1023.6</ele><time>2026-04-07T08:04:16.79Z</time></trkpt><trkpt lat="38.4648267" lon="16.2756417"><ele>1023.2</ele><time>2026-04-07T08:04:17.791Z</time></trkpt><trkpt lat="38.464905" lon="16.2755417"><ele>1022.8000000000001</ele><time>2026-04-07T08:04:18.791Z</time></trkpt><trkpt lat="38.4649717" lon="16.2754333"><ele>1022.4000000000001</ele><time>2026-04-07T08:04:19.79Z</time></trkpt><trkpt lat="38.4650217" lon="16.27533"><ele>1022.0</ele><time>2026-04-07T08:04:20.79Z</time></trkpt><trkpt lat="38.46505" lon="16.2752117"><ele>1022.0</ele><time>2026-04-07T08:04:21.79Z</time></trkpt><trkpt lat="38.4650783" lon="16.275085"><ele>1022.0</ele><time>2026-04-07T08:04:22.79Z</time></trkpt><trkpt lat="38.4650983" lon="16.2749483"><ele>1022.0</ele><time>2026-04-07T08:04:23.79Z</time></trkpt><trkpt lat="38.4650933" lon="16.274815"><ele>1022.0</ele><time>2026-04-07T08:04:24.79Z</time></trkpt><trkpt lat="38.4650833" lon="16.274685"><ele>1022.0</ele><time>2026-04-07T08:04:25.79Z</time></trkpt><trkpt lat="38.4650767" lon="16.274565"><ele>1021.4000000000001</ele><time>2026-04-07T08:04:26.791Z</time></trkpt><trkpt lat="38.465055" lon="16.274455"><ele>1020.8000000000001</ele><time>2026-04-07T08:04:27.79Z</time></trkpt><trkpt lat="38.4650283" lon="16.2743433"><ele>1020.2</ele><time>2026-04-07T08:04:28.79Z</time></trkpt><trkpt lat="38.4649933" lon="16.2742317"><ele>1019.6</ele><time>2026-04-07T08:04:29.79Z</time></trkpt><trkpt lat="38.4649483" lon="16.2741283"><ele>1019.0</ele><time>2026-04-07T08:04:30.791Z</time></trkpt><trkpt lat="38.4648967" lon="16.2740233"><ele>1018.8333333333334</ele><time>2026-04-07T08:04:31.79Z</time></trkpt><trkpt lat="38.4648533" lon="16.2739183"><ele>1018.6666666666667</ele><time>2026-04-07T08:04:32.791Z</time></trkpt><trkpt lat="38.4648217" lon="16.2737983"><ele>1018.5</ele><time>2026-04-07T08:04:33.79Z</time></trkpt><trkpt lat="38.4648183" lon="16.273705"><ele>1018.3333333333333</ele><time>2026-04-07T08:04:34.79Z</time></trkpt><trkpt lat="38.4648267" lon="16.2736083"><ele>1018.1666666666666</ele><time>2026-04-07T08:04:35.79Z</time></trkpt><trkpt lat="38.46485" lon="16.2735217"><ele>1018.0</ele><time>2026-04-07T08:04:36.79Z</time></trkpt><trkpt lat="38.4649617" lon="16.2734267"><ele>1017.9999999999999</ele><time>2026-04-07T08:04:38.79Z</time></trkpt><trkpt lat="38.465035" lon="16.2734133"><ele>1018.0</ele><time>2026-04-07T08:04:39.79Z</time></trkpt><trkpt lat="38.4651133" lon="16.2734383"><ele>1018.0</ele><time>2026-04-07T08:04:40.79Z</time></trkpt><trkpt lat="38.4652017" lon="16.2734867"><ele>1018.0</ele><time>2026-04-07T08:04:41.79Z</time></trkpt><trkpt lat="38.465285" lon="16.2735417"><ele>1017.9999999999999</ele><time>2026-04-07T08:04:42.79Z</time></trkpt><trkpt lat="38.465375" lon="16.2736033"><ele>1018.0</ele><time>2026-04-07T08:04:43.79Z</time></trkpt><trkpt lat="38.4654867" lon="16.2736633"><ele>1016.5</ele><time>2026-04-07T08:04:44.79Z</time></trkpt><trkpt lat="38.4656017" lon="16.2736983"><ele>1015.0</ele><time>2026-04-07T08:04:45.79Z</time></trkpt><trkpt lat="38.4657283" lon="16.2737183"><ele>1013.5</ele><time>2026-04-07T08:04:46.79Z</time></trkpt><trkpt lat="38.4658533" lon="16.2737267"><ele>1012.0</ele><time>2026-04-07T08:04:47.79Z</time></trkpt><trkpt lat="38.4659717" lon="16.27372"><ele>1011.9999999999999</ele><time>2026-04-07T08:04:48.79Z</time></trkpt><trkpt lat="38.4660717" lon="16.27371"><ele>1012.0</ele><time>2026-04-07T08:04:49.791Z</time></trkpt><trkpt lat="38.4661767" lon="16.27372"><ele>1012.0</ele><time>2026-04-07T08:04:50.79Z</time></trkpt><trkpt lat="38.4662667" lon="16.2737167"><ele>1012.0</ele><time>2026-04-07T08:04:51.79Z</time></trkpt><trkpt lat="38.46635" lon="16.2737217"><ele>1011.9999999999999</ele><time>2026-04-07T08:04:52.79Z</time></trkpt><trkpt lat="38.46642" lon="16.2737317"><ele>1012.0</ele><time>2026-04-07T08:04:53.79Z</time></trkpt><trkpt lat="38.466485" lon="16.273755"><ele>1011.9999999999999</ele><time>2026-04-07T08:04:54.79Z</time></trkpt><trkpt lat="38.4665817" lon="16.273785"><ele>1012.0</ele><time>2026-04-07T08:04:56.79Z</time></trkpt><trkpt lat="38.4666617" lon="16.273855"><ele>1012.0</ele><time>2026-04-07T08:04:58.79Z</time></trkpt><trkpt lat="38.4667183" lon="16.2739133"><ele>1012.0</ele><time>2026-04-07T08:04:59.791Z</time></trkpt><trkpt lat="38.4667767" lon="16.2739733"><ele>1011.9999999999999</ele><time>2026-04-07T08:05:00.79Z</time></trkpt><trkpt lat="38.466835" lon="16.2740433"><ele>1012.0</ele><time>2026-04-07T08:05:01.791Z</time></trkpt><trkpt lat="38.4668883" lon="16.274115"><ele>1011.1428571428573</ele><time>2026-04-07T08:05:02.79Z</time></trkpt><trkpt lat="38.46693" lon="16.274195"><ele>1010.2857142857143</ele><time>2026-04-07T08:05:03.79Z</time></trkpt><trkpt lat="38.4669567" lon="16.274275"><ele>1009.4285714285716</ele><time>2026-04-07T08:05:04.791Z</time></trkpt><trkpt lat="38.46695" lon="16.2743633"><ele>1008.5714285714287</ele><time>2026-04-07T08:05:05.79Z</time></trkpt><trkpt lat="38.4669333" lon="16.2744433"><ele>1007.7142857142858</ele><time>2026-04-07T08:05:06.79Z</time></trkpt><trkpt lat="38.4668933" lon="16.274525"><ele>1006.8571428571429</ele><time>2026-04-07T08:05:07.79Z</time></trkpt><trkpt lat="38.4668433" lon="16.2746117"><ele>1006.0</ele><time>2026-04-07T08:05:08.791Z</time></trkpt><trkpt lat="38.46678" lon="16.2746983"><ele>1007.1999999999999</ele><time>2026-04-07T08:05:09.791Z</time></trkpt><trkpt lat="38.4667183" lon="16.27479"><ele>1008.3999999999999</ele><time>2026-04-07T08:05:10.79Z</time></trkpt><trkpt lat="38.4666667" lon="16.2748967"><ele>1009.6</ele><time>2026-04-07T08:05:11.791Z</time></trkpt><trkpt lat="38.4666083" lon="16.2750083"><ele>1010.8</ele><time>2026-04-07T08:05:12.79Z</time></trkpt><trkpt lat="38.4665533" lon="16.275135"><ele>1012.0</ele><time>2026-04-07T08:05:13.79Z</time></trkpt><trkpt lat="38.4665133" lon="16.275265"><ele>1012.0</ele><time>2026-04-07T08:05:14.791Z</time></trkpt><trkpt lat="38.46649" lon="16.2753917"><ele>1012.0</ele><time>2026-04-07T08:05:15.79Z</time></trkpt><trkpt lat="38.4664817" lon="16.2755233"><ele>1012.0</ele><time>2026-04-07T08:05:16.791Z</time></trkpt><trkpt lat="38.4664833" lon="16.27565"><ele>1012.0</ele><time>2026-04-07T08:05:17.79Z</time></trkpt><trkpt lat="38.4664833" lon="16.27577"><ele>1012.0</ele><time>2026-04-07T08:05:18.79Z</time></trkpt><trkpt lat="38.466485" lon="16.2758983"><ele>1013.5</ele><time>2026-04-07T08:05:19.79Z</time></trkpt><trkpt lat="38.4664833" lon="16.27604"><ele>1015.0</ele><time>2026-04-07T08:05:20.79Z</time></trkpt><trkpt lat="38.4664967" lon="16.2761817"><ele>1016.5</ele><time>2026-04-07T08:05:21.79Z</time></trkpt><trkpt lat="38.466505" lon="16.276335"><ele>1018.0</ele><time>2026-04-07T08:05:22.79Z</time></trkpt><trkpt lat="38.4665117" lon="16.27649"><ele>1018.5</ele><time>2026-04-07T08:05:23.791Z</time></trkpt><trkpt lat="38.4665117" lon="16.2766517"><ele>1019.0</ele><time>2026-04-07T08:05:24.791Z</time></trkpt><trkpt lat="38.4665133" lon="16.2768167"><ele>1019.5</ele><time>2026-04-07T08:05:25.791Z</time></trkpt><trkpt lat="38.4665133" lon="16.27698"><ele>1020.0</ele><time>2026-04-07T08:05:26.79Z</time></trkpt><trkpt lat="38.46652" lon="16.2771333"><ele>1020.0</ele><time>2026-04-07T08:05:27.79Z</time></trkpt><trkpt lat="38.46653" lon="16.2772683"><ele>1020.0</ele><time>2026-04-07T08:05:28.791Z</time></trkpt><trkpt lat="38.46656" lon="16.2774"><ele>1020.0</ele><time>2026-04-07T08:05:29.79Z</time></trkpt><trkpt lat="38.4666083" lon="16.2775267"><ele>1020.0</ele><time>2026-04-07T08:05:30.791Z</time></trkpt><trkpt lat="38.4666767" lon="16.277645"><ele>1020.0</ele><time>2026-04-07T08:05:31.79Z</time></trkpt><trkpt lat="38.4667517" lon="16.2777533"><ele>1019.8</ele><time>2026-04-07T08:05:32.79Z</time></trkpt><trkpt lat="38.4668217" lon="16.2778533"><ele>1019.6</ele><time>2026-04-07T08:05:33.79Z</time></trkpt><trkpt lat="38.46689" lon="16.2779483"><ele>1019.4000000000001</ele><time>2026-04-07T08:05:34.79Z</time></trkpt><trkpt lat="38.46695" lon="16.2780383"><ele>1019.2</ele><time>2026-04-07T08:05:35.79Z</time></trkpt><trkpt lat="38.4670233" lon="16.2781333"><ele>1019.0</ele><time>2026-04-07T08:05:36.79Z</time></trkpt><trkpt lat="38.4670983" lon="16.2782333"><ele>1019.6666666666667</ele><time>2026-04-07T08:05:37.79Z</time></trkpt><trkpt lat="38.4671633" lon="16.2783133"><ele>1020.3333333333334</ele><time>2026-04-07T08:05:38.79Z</time></trkpt><trkpt lat="38.4672167" lon="16.2783867"><ele>1021.0</ele><time>2026-04-07T08:05:39.79Z</time></trkpt><trkpt lat="38.46725" lon="16.278455"><ele>1021.6666666666667</ele><time>2026-04-07T08:05:40.79Z</time></trkpt><trkpt lat="38.4673" lon="16.278535"><ele>1022.3333333333334</ele><time>2026-04-07T08:05:42.79Z</time></trkpt><trkpt lat="38.4673367" lon="16.2786267"><ele>1023.0</ele><time>2026-04-07T08:06:39.791Z</time></trkpt><trkpt lat="38.467395" lon="16.2787217"><ele>1023.0</ele><time>2026-04-07T08:06:41.79Z</time></trkpt><trkpt lat="38.4674817" lon="16.2788217"><ele>1023.0</ele><time>2026-04-07T08:06:43.791Z</time></trkpt><trkpt lat="38.4675833" lon="16.2789133"><ele>1023.0</ele><time>2026-04-07T08:06:45.79Z</time></trkpt><trkpt lat="38.46764" lon="16.278965"><ele>1023.0</ele><time>2026-04-07T08:06:46.791Z</time></trkpt><trkpt lat="38.4677017" lon="16.2790083"><ele>1023.0</ele><time>2026-04-07T08:06:47.79Z</time></trkpt><trkpt lat="38.4677617" lon="16.2790467"><ele>1023.0</ele><time>2026-04-07T08:06:48.79Z</time></trkpt><trkpt lat="38.46787" lon="16.2791217"><ele>1022.8</ele><time>2026-04-07T08:06:50.791Z</time></trkpt><trkpt lat="38.4679717" lon="16.2791783"><ele>1022.5999999999999</ele><time>2026-04-07T08:06:52.79Z</time></trkpt><trkpt lat="38.4680783" lon="16.2792367"><ele>1022.4000000000001</ele><time>2026-04-07T08:06:54.79Z</time></trkpt><trkpt lat="38.4681733" lon="16.2793367"><ele>1022.2</ele><time>2026-04-07T08:06:56.791Z</time></trkpt><trkpt lat="38.4682183" lon="16.279395"><ele>1022.0</ele><time>2026-04-07T08:06:57.79Z</time></trkpt><trkpt lat="38.4682583" lon="16.2794617"><ele>1022.0</ele><time>2026-04-07T08:06:58.79Z</time></trkpt><trkpt lat="38.46829" lon="16.279535"><ele>1022.0</ele><time>2026-04-07T08:06:59.791Z</time></trkpt><trkpt lat="38.4683133" lon="16.279615"><ele>1022.0</ele><time>2026-04-07T08:07:00.791Z</time></trkpt><trkpt lat="38.4683283" lon="16.2797067"><ele>1022.0</ele><time>2026-04-07T08:07:01.791Z</time></trkpt><trkpt lat="38.46834" lon="16.2798"><ele>1022.0</ele><time>2026-04-07T08:07:02.791Z</time></trkpt><trkpt lat="38.468345" lon="16.279895"><ele>1022.0</ele><time>2026-04-07T08:07:03.791Z</time></trkpt><trkpt lat="38.4683467" lon="16.27998"><ele>1022.0</ele><time>2026-04-07T08:07:04.79Z</time></trkpt><trkpt lat="38.4683617" lon="16.2801333"><ele>1021.5000000000001</ele><time>2026-04-07T08:07:06.79Z</time></trkpt><trkpt lat="38.4683983" lon="16.28028"><ele>1021.0</ele><time>2026-04-07T08:07:08.79Z</time></trkpt><trkpt lat="38.4684417" lon="16.280355"><ele>1020.5</ele><time>2026-04-07T08:07:09.79Z</time></trkpt><trkpt lat="38.4684983" lon="16.2804317"><ele>1020.0</ele><time>2026-04-07T08:07:10.79Z</time></trkpt><trkpt lat="38.4685633" lon="16.2804983"><ele>1019.5000000000001</ele><time>2026-04-07T08:07:11.79Z</time></trkpt><trkpt lat="38.4686217" lon="16.2805733"><ele>1019.0</ele><time>2026-04-07T08:07:12.79Z</time></trkpt><trkpt lat="38.4686767" lon="16.280655"><ele>1018.0000000000001</ele><time>2026-04-07T08:07:13.79Z</time></trkpt><trkpt lat="38.4687367" lon="16.2807383"><ele>1017.0</ele><time>2026-04-07T08:07:14.79Z</time></trkpt><trkpt lat="38.4687933" lon="16.28083"><ele>1016.0</ele><time>2026-04-07T08:07:15.79Z</time></trkpt><trkpt lat="38.46883" lon="16.28093"><ele>1015.0</ele><time>2026-04-07T08:07:16.791Z</time></trkpt><trkpt lat="38.4688533" lon="16.28103"><ele>1014.0000000000001</ele><time>2026-04-07T08:07:17.79Z</time></trkpt><trkpt lat="38.4688633" lon="16.28114"><ele>1013.0</ele><time>2026-04-07T08:07:18.79Z</time></trkpt><trkpt lat="38.4688483" lon="16.2812567"><ele>1012.4</ele><time>2026-04-07T08:07:19.791Z</time></trkpt><trkpt lat="38.4688333" lon="16.28136"><ele>1011.8</ele><time>2026-04-07T08:07:20.79Z</time></trkpt><trkpt lat="38.46881" lon="16.2814717"><ele>1011.2</ele><time>2026-04-07T08:07:21.79Z</time></trkpt><trkpt lat="38.4687883" lon="16.2815917"><ele>1010.6</ele><time>2026-04-07T08:07:22.79Z</time></trkpt><trkpt lat="38.4687767" lon="16.2817117"><ele>1010.0</ele><time>2026-04-07T08:07:23.791Z</time></trkpt><trkpt lat="38.4687683" lon="16.2818383"><ele>1010.0</ele><time>2026-04-07T08:07:24.791Z</time></trkpt><trkpt lat="38.46876" lon="16.2819667"><ele>1010.0</ele><time>2026-04-07T08:07:25.79Z</time></trkpt><trkpt lat="38.4687617" lon="16.282095"><ele>1010.0</ele><time>2026-04-07T08:07:26.79Z</time></trkpt><trkpt lat="38.4687717" lon="16.2822133"><ele>1010.0</ele><time>2026-04-07T08:07:27.791Z</time></trkpt><trkpt lat="38.4687867" lon="16.282335"><ele>1010.0</ele><time>2026-04-07T08:07:28.79Z</time></trkpt><trkpt lat="38.4687983" lon="16.28245"><ele>1015.4</ele><time>2026-04-07T08:07:29.791Z</time></trkpt><trkpt lat="38.46881" lon="16.2825567"><ele>1020.8</ele><time>2026-04-07T08:07:30.791Z</time></trkpt><trkpt lat="38.46883" lon="16.282675"><ele>1026.2</ele><time>2026-04-07T08:07:31.79Z</time></trkpt><trkpt lat="38.4688433" lon="16.282795"><ele>1031.6</ele><time>2026-04-07T08:07:32.79Z</time></trkpt><trkpt lat="38.468855" lon="16.28293"><ele>1037.0</ele><time>2026-04-07T08:07:33.79Z</time></trkpt><trkpt lat="38.4688783" lon="16.2830767"><ele>1036.4</ele><time>2026-04-07T08:07:34.79Z</time></trkpt><trkpt lat="38.468905" lon="16.2832233"><ele>1035.8000000000002</ele><time>2026-04-07T08:07:35.79Z</time></trkpt><trkpt lat="38.4689383" lon="16.2833633"><ele>1035.2</ele><time>2026-04-07T08:07:36.79Z</time></trkpt><trkpt lat="38.468975" lon="16.2834617"><ele>1034.6000000000001</ele><time>2026-04-07T08:07:37.79Z</time></trkpt><trkpt lat="38.4690167" lon="16.2835667"><ele>1034.0</ele><time>2026-04-07T08:07:38.791Z</time></trkpt><trkpt lat="38.4690683" lon="16.2836533"><ele>1034.0</ele><time>2026-04-07T08:07:39.79Z</time></trkpt><trkpt lat="38.469115" lon="16.2837383"><ele>1034.0</ele><time>2026-04-07T08:07:40.791Z</time></trkpt><trkpt lat="38.46917" lon="16.2838083"><ele>1034.0</ele><time>2026-04-07T08:07:41.791Z</time></trkpt><trkpt lat="38.469235" lon="16.28385"><ele>1034.0</ele><time>2026-04-07T08:07:42.791Z</time></trkpt><trkpt lat="38.4693167" lon="16.2838567"><ele>1034.0</ele><time>2026-04-07T08:07:43.791Z</time></trkpt><trkpt lat="38.4694133" lon="16.2838183"><ele>1034.0</ele><time>2026-04-07T08:07:44.79Z</time></trkpt><trkpt lat="38.469505" lon="16.2837467"><ele>1034.0</ele><time>2026-04-07T08:07:45.79Z</time></trkpt><trkpt lat="38.46959" lon="16.28367"><ele>1034.0</ele><time>2026-04-07T08:07:46.79Z</time></trkpt><trkpt lat="38.469675" lon="16.283605"><ele>1034.0</ele><time>2026-04-07T08:07:47.791Z</time></trkpt><trkpt lat="38.4697617" lon="16.2835517"><ele>1034.0</ele><time>2026-04-07T08:07:48.79Z</time></trkpt><trkpt lat="38.46984" lon="16.2835017"><ele>1034.0</ele><time>2026-04-07T08:07:49.79Z</time></trkpt><trkpt lat="38.4699167" lon="16.28347"><ele>1034.6666666666667</ele><time>2026-04-07T08:07:50.79Z</time></trkpt><trkpt lat="38.4699983" lon="16.283465"><ele>1035.3333333333335</ele><time>2026-04-07T08:07:51.79Z</time></trkpt><trkpt lat="38.4700583" lon="16.2835"><ele>1036.0</ele><time>2026-04-07T08:07:52.79Z</time></trkpt><trkpt lat="38.470105" lon="16.2835633"><ele>1036.6666666666667</ele><time>2026-04-07T08:07:53.791Z</time></trkpt><trkpt lat="38.470145" lon="16.2836483"><ele>1037.3333333333333</ele><time>2026-04-07T08:07:54.79Z</time></trkpt><trkpt lat="38.4701683" lon="16.2837483"><ele>1038.0</ele><time>2026-04-07T08:07:55.791Z</time></trkpt><trkpt lat="38.4701617" lon="16.2838583"><ele>1034.6</ele><time>2026-04-07T08:07:56.79Z</time></trkpt><trkpt lat="38.4701367" lon="16.2839933"><ele>1031.1999999999998</ele><time>2026-04-07T08:07:57.791Z</time></trkpt><trkpt lat="38.4701017" lon="16.2841433"><ele>1027.8</ele><time>2026-04-07T08:07:58.79Z</time></trkpt><trkpt lat="38.4700783" lon="16.284285"><ele>1024.3999999999999</ele><time>2026-04-07T08:07:59.791Z</time></trkpt><trkpt lat="38.47008" lon="16.2844183"><ele>1021.0</ele><time>2026-04-07T08:08:00.79Z</time></trkpt><trkpt lat="38.470095" lon="16.2845517"><ele>1021.0</ele><time>2026-04-07T08:08:01.79Z</time></trkpt><trkpt lat="38.4701433" lon="16.28466"><ele>1020.9999999999999</ele><time>2026-04-07T08:08:02.79Z</time></trkpt><trkpt lat="38.4702167" lon="16.2847417"><ele>1020.9999999999999</ele><time>2026-04-07T08:08:03.79Z</time></trkpt><trkpt lat="38.4703017" lon="16.28479"><ele>1021.0</ele><time>2026-04-07T08:08:04.791Z</time></trkpt><trkpt lat="38.470395" lon="16.2847983"><ele>1021.0</ele><time>2026-04-07T08:08:05.79Z</time></trkpt><trkpt lat="38.4704783" lon="16.2847783"><ele>1022.4</ele><time>2026-04-07T08:08:06.791Z</time></trkpt><trkpt lat="38.4705583" lon="16.2847367"><ele>1023.8</ele><time>2026-04-07T08:08:07.79Z</time></trkpt><trkpt lat="38.470635" lon="16.2846817"><ele>1025.1999999999998</ele><time>2026-04-07T08:08:08.79Z</time></trkpt><trkpt lat="38.4707117" lon="16.2846033"><ele>1026.6</ele><time>2026-04-07T08:08:09.791Z</time></trkpt><trkpt lat="38.47078" lon="16.2844967"><ele>1028.0</ele><time>2026-04-07T08:08:10.791Z</time></trkpt><trkpt lat="38.4708467" lon="16.2843783"><ele>1028.0</ele><time>2026-04-07T08:08:11.791Z</time></trkpt><trkpt lat="38.470915" lon="16.2842433"><ele>1028.0</ele><time>2026-04-07T08:08:12.79Z</time></trkpt><trkpt lat="38.4709767" lon="16.28411"><ele>1028.0</ele><time>2026-04-07T08:08:13.79Z</time></trkpt><trkpt lat="38.4710233" lon="16.2839883"><ele>1028.0</ele><time>2026-04-07T08:08:14.79Z</time></trkpt><trkpt lat="38.4710733" lon="16.283875"><ele>1027.6666666666667</ele><time>2026-04-07T08:08:15.79Z</time></trkpt><trkpt lat="38.4711417" lon="16.283775"><ele>1027.3333333333335</ele><time>2026-04-07T08:08:16.79Z</time></trkpt><trkpt lat="38.4711983" lon="16.2836933"><ele>1027.0</ele><time>2026-04-07T08:08:17.791Z</time></trkpt><trkpt lat="38.4712767" lon="16.28363"><ele>1026.6666666666667</ele><time>2026-04-07T08:08:18.79Z</time></trkpt><trkpt lat="38.4713517" lon="16.2835933"><ele>1026.3333333333333</ele><time>2026-04-07T08:08:19.79Z</time></trkpt><trkpt lat="38.4714217" lon="16.2835867"><ele>1026.0</ele><time>2026-04-07T08:08:20.79Z</time></trkpt><trkpt lat="38.4714983" lon="16.2836083"><ele>1026.0</ele><time>2026-04-07T08:08:21.79Z</time></trkpt><trkpt lat="38.4715767" lon="16.2836333"><ele>1026.0</ele><time>2026-04-07T08:08:22.791Z</time></trkpt><trkpt lat="38.4716567" lon="16.2836717"><ele>1026.0</ele><time>2026-04-07T08:08:23.79Z</time></trkpt><trkpt lat="38.4717317" lon="16.2837017"><ele>1026.0</ele><time>2026-04-07T08:08:24.79Z</time></trkpt><trkpt lat="38.4718083" lon="16.283725"><ele>1026.0</ele><time>2026-04-07T08:08:25.79Z</time></trkpt><trkpt lat="38.4718867" lon="16.283735"><ele>1026.0</ele><time>2026-04-07T08:08:26.79Z</time></trkpt><trkpt lat="38.4719617" lon="16.28374"><ele>1026.0000000000002</ele><time>2026-04-07T08:08:27.79Z</time></trkpt><trkpt lat="38.4720333" lon="16.2837267"><ele>1026.0</ele><time>2026-04-07T08:08:28.79Z</time></trkpt><trkpt lat="38.4720967" lon="16.2837117"><ele>1026.0</ele><time>2026-04-07T08:08:29.79Z</time></trkpt><trkpt lat="38.47216" lon="16.2836633"><ele>1026.0</ele><time>2026-04-07T08:08:30.79Z</time></trkpt><trkpt lat="38.472225" lon="16.2836017"><ele>1026.0</ele><time>2026-04-07T08:08:31.79Z</time></trkpt><trkpt lat="38.472285" lon="16.2835367"><ele>1026.0000000000002</ele><time>2026-04-07T08:08:32.79Z</time></trkpt><trkpt lat="38.472335" lon="16.2834633"><ele>1026.0</ele><time>2026-04-07T08:08:33.79Z</time></trkpt><trkpt lat="38.4723717" lon="16.28339"><ele>1023.0</ele><time>2026-04-07T08:08:34.79Z</time></trkpt><trkpt lat="38.4724017" lon="16.2832967"><ele>1020.0</ele><time>2026-04-07T08:08:35.79Z</time></trkpt><trkpt lat="38.4724267" lon="16.2832"><ele>1017.0</ele><time>2026-04-07T08:08:36.79Z</time></trkpt><trkpt lat="38.472445" lon="16.2831017"><ele>1014.0</ele><time>2026-04-07T08:08:37.79Z</time></trkpt><trkpt lat="38.4724617" lon="16.282995"><ele>1011.0</ele><time>2026-04-07T08:08:38.79Z</time></trkpt><trkpt lat="38.4724767" lon="16.28288"><ele>1008.0</ele><time>2026-04-07T08:08:39.79Z</time></trkpt><trkpt lat="38.4724917" lon="16.2827367"><ele>1008.0</ele><time>2026-04-07T08:08:40.791Z</time></trkpt><trkpt lat="38.47251" lon="16.282595"><ele>1008.0</ele><time>2026-04-07T08:08:41.79Z</time></trkpt><trkpt lat="38.4725283" lon="16.2824483"><ele>1008.0</ele><time>2026-04-07T08:08:42.79Z</time></trkpt><trkpt lat="38.4725467" lon="16.282295"><ele>1008.0</ele><time>2026-04-07T08:08:43.79Z</time></trkpt><trkpt lat="38.4725583" lon="16.2821517"><ele>1009.0</ele><time>2026-04-07T08:08:44.791Z</time></trkpt><trkpt lat="38.4725683" lon="16.2820167"><ele>1010.0</ele><time>2026-04-07T08:08:45.79Z</time></trkpt><trkpt lat="38.47257" lon="16.28188"><ele>1011.0</ele><time>2026-04-07T08:08:46.791Z</time></trkpt><trkpt lat="38.4725883" lon="16.2817667"><ele>1012.0</ele><time>2026-04-07T08:08:47.791Z</time></trkpt><trkpt lat="38.4726083" lon="16.281635"><ele>1013.0</ele><time>2026-04-07T08:08:48.79Z</time></trkpt><trkpt lat="38.4726317" lon="16.2815017"><ele>1012.8333333333334</ele><time>2026-04-07T08:08:49.791Z</time></trkpt><trkpt lat="38.4726433" lon="16.2813683"><ele>1012.6666666666667</ele><time>2026-04-07T08:08:50.791Z</time></trkpt><trkpt lat="38.4726533" lon="16.2812583"><ele>1012.5</ele><time>2026-04-07T08:08:51.79Z</time></trkpt><trkpt lat="38.4726683" lon="16.2811667"><ele>1012.3333333333333</ele><time>2026-04-07T08:08:52.791Z</time></trkpt><trkpt lat="38.4726983" lon="16.281095"><ele>1012.1666666666666</ele><time>2026-04-07T08:08:53.79Z</time></trkpt><trkpt lat="38.4727867" lon="16.281"><ele>1012.0</ele><time>2026-04-07T08:08:55.791Z</time></trkpt><trkpt lat="38.4728933" lon="16.2809683"><ele>1010.6</ele><time>2026-04-07T08:08:57.79Z</time></trkpt><trkpt lat="38.4729567" lon="16.2809867"><ele>1009.2</ele><time>2026-04-07T08:08:58.79Z</time></trkpt><trkpt lat="38.4730183" lon="16.28103"><ele>1007.8</ele><time>2026-04-07T08:08:59.79Z</time></trkpt><trkpt lat="38.4730917" lon="16.2810933"><ele>1006.4</ele><time>2026-04-07T08:09:00.791Z</time></trkpt><trkpt lat="38.4731833" lon="16.2811917"><ele>1005.0</ele><time>2026-04-07T08:09:01.79Z</time></trkpt><trkpt lat="38.4732683" lon="16.2813017"><ele>1005.0</ele><time>2026-04-07T08:09:02.79Z</time></trkpt><trkpt lat="38.4733517" lon="16.2814067"><ele>1005.0</ele><time>2026-04-07T08:09:03.79Z</time></trkpt><trkpt lat="38.4734417" lon="16.2815"><ele>1005.0</ele><time>2026-04-07T08:09:04.79Z</time></trkpt><trkpt lat="38.4735267" lon="16.281575"><ele>1005.0</ele><time>2026-04-07T08:09:05.79Z</time></trkpt><trkpt lat="38.4735967" lon="16.2816467"><ele>1005.0</ele><time>2026-04-07T08:09:06.791Z</time></trkpt><trkpt lat="38.47366" lon="16.2817"><ele>1005.6</ele><time>2026-04-07T08:09:07.791Z</time></trkpt><trkpt lat="38.47375" lon="16.2817867"><ele>1006.2</ele><time>2026-04-07T08:09:09.79Z</time></trkpt><trkpt lat="38.47383" lon="16.28186"><ele>1006.8</ele><time>2026-04-07T08:09:11.79Z</time></trkpt><trkpt lat="38.4738917" lon="16.2819317"><ele>1007.4</ele><time>2026-04-07T08:09:13.791Z</time></trkpt><trkpt lat="38.47395" lon="16.2820117"><ele>1008.0</ele><time>2026-04-07T08:09:15.79Z</time></trkpt><trkpt lat="38.4739883" lon="16.2821"><ele>1008.0</ele><time>2026-04-07T08:09:17.79Z</time></trkpt><trkpt lat="38.474" lon="16.2822033"><ele>1008.0</ele><time>2026-04-07T08:09:19.79Z</time></trkpt><trkpt lat="38.4740333" lon="16.2823567"><ele>1008.0</ele><time>2026-04-07T08:09:21.79Z</time></trkpt><trkpt lat="38.4740583" lon="16.2824567"><ele>1008.0</ele><time>2026-04-07T08:09:22.79Z</time></trkpt><trkpt lat="38.4740867" lon="16.2825633"><ele>1008.0</ele><time>2026-04-07T08:09:23.791Z</time></trkpt><trkpt lat="38.47411" lon="16.2826683"><ele>1007.4</ele><time>2026-04-07T08:09:24.79Z</time></trkpt><trkpt lat="38.4741367" lon="16.2827833"><ele>1006.8</ele><time>2026-04-07T08:09:25.79Z</time></trkpt><trkpt lat="38.47416" lon="16.28288"><ele>1006.2</ele><time>2026-04-07T08:09:26.79Z</time></trkpt><trkpt lat="38.4741833" lon="16.2829667"><ele>1005.6</ele><time>2026-04-07T08:09:27.79Z</time></trkpt><trkpt lat="38.4742117" lon="16.2830867"><ele>1005.0</ele><time>2026-04-07T08:09:29.79Z</time></trkpt><trkpt lat="38.4741917" lon="16.2829467"><ele>1005.0</ele><time>2026-04-07T08:09:36.79Z</time></trkpt><trkpt lat="38.4741717" lon="16.28287"><ele>1005.0</ele><time>2026-04-07T08:09:37.79Z</time></trkpt><trkpt lat="38.47415" lon="16.28277"><ele>1005.0</ele><time>2026-04-07T08:09:38.79Z</time></trkpt><trkpt lat="38.4741367" lon="16.282665"><ele>1005.0</ele><time>2026-04-07T08:09:39.79Z</time></trkpt><trkpt lat="38.4741217" lon="16.282535"><ele>1005.0</ele><time>2026-04-07T08:09:40.79Z</time></trkpt><trkpt lat="38.4741" lon="16.282405"><ele>1005.0</ele><time>2026-04-07T08:09:41.79Z</time></trkpt><trkpt lat="38.474065" lon="16.2822817"><ele>1005.6</ele><time>2026-04-07T08:09:42.79Z</time></trkpt><trkpt lat="38.474" lon="16.2821433"><ele>1006.2</ele><time>2026-04-07T08:09:43.79Z</time></trkpt><trkpt lat="38.4739467" lon="16.2820267"><ele>1006.8</ele><time>2026-04-07T08:09:44.79Z</time></trkpt><trkpt lat="38.4738917" lon="16.2819333"><ele>1007.4</ele><time>2026-04-07T08:09:45.79Z</time></trkpt><trkpt lat="38.473835" lon="16.281855"><ele>1008.0</ele><time>2026-04-07T08:09:46.79Z</time></trkpt><trkpt lat="38.4737717" lon="16.2817783"><ele>1008.5</ele><time>2026-04-07T08:09:47.791Z</time></trkpt><trkpt lat="38.47371" lon="16.28166"><ele>1009.0</ele><time>2026-04-07T08:09:49.79Z</time></trkpt><trkpt lat="38.4736983" lon="16.2815667"><ele>1009.5</ele><time>2026-04-07T08:09:51.79Z</time></trkpt><trkpt lat="38.473735" lon="16.28149"><ele>1010.0</ele><time>2026-04-07T08:09:54.791Z</time></trkpt><trkpt lat="38.473775" lon="16.2813983"><ele>1010.5</ele><time>2026-04-07T08:09:57.79Z</time></trkpt><trkpt lat="38.4738" lon="16.2813033"><ele>1011.0</ele><time>2026-04-07T08:09:59.791Z</time></trkpt><trkpt lat="38.4738217" lon="16.28122"><ele>1011.0</ele><time>2026-04-07T08:10:01.791Z</time></trkpt><trkpt lat="38.47384" lon="16.2811383"><ele>1011.0</ele><time>2026-04-07T08:10:03.791Z</time></trkpt><trkpt lat="38.4738667" lon="16.2810383"><ele>1011.0</ele><time>2026-04-07T08:10:05.79Z</time></trkpt><trkpt lat="38.4739" lon="16.280925"><ele>1011.0</ele><time>2026-04-07T08:10:07.791Z</time></trkpt><trkpt lat="38.4739483" lon="16.28081"><ele>1011.0</ele><time>2026-04-07T08:10:09.79Z</time></trkpt><trkpt lat="38.473995" lon="16.280715"><ele>1011.0</ele><time>2026-04-07T08:10:11.79Z</time></trkpt><trkpt lat="38.47402" lon="16.2806333"><ele>1011.3333333333334</ele><time>2026-04-07T08:10:13.79Z</time></trkpt><trkpt lat="38.473975" lon="16.2804883"><ele>1011.6666666666667</ele><time>2026-04-07T08:10:27.79Z</time></trkpt><trkpt lat="38.4739117" lon="16.2804683"><ele>1012.0</ele><time>2026-04-07T08:10:29.79Z</time></trkpt><trkpt lat="38.473855" lon="16.28043"><ele>1012.3333333333334</ele><time>2026-04-07T08:10:31.79Z</time></trkpt><trkpt lat="38.473805" lon="16.2803683"><ele>1012.6666666666667</ele><time>2026-04-07T08:10:33.79Z</time></trkpt><trkpt lat="38.4737317" lon="16.2803183"><ele>1013.0</ele><time>2026-04-07T08:10:59.791Z</time></trkpt><trkpt lat="38.4738" lon="16.2803633"><ele>1013.0</ele><time>2026-04-07T08:11:02.79Z</time></trkpt><trkpt lat="38.4738617" lon="16.28043"><ele>1013.0</ele><time>2026-04-07T08:11:05.79Z</time></trkpt><trkpt lat="38.473825" lon="16.2805617"><ele>1013.0</ele><time>2026-04-07T08:11:08.79Z</time></trkpt><trkpt lat="38.4737767" lon="16.28071"><ele>1013.0</ele><time>2026-04-07T08:11:10.79Z</time></trkpt><trkpt lat="38.4737483" lon="16.280805"><ele>1013.0</ele><time>2026-04-07T08:11:11.791Z</time></trkpt><trkpt lat="38.47373" lon="16.2809083"><ele>1011.6666666666667</ele><time>2026-04-07T08:11:12.79Z</time></trkpt><trkpt lat="38.4737117" lon="16.2810383"><ele>1010.3333333333334</ele><time>2026-04-07T08:11:13.79Z</time></trkpt><trkpt lat="38.4736917" lon="16.2811683"><ele>1009.0</ele><time>2026-04-07T08:11:14.791Z</time></trkpt><trkpt lat="38.4736733" lon="16.2812733"><ele>1007.6666666666667</ele><time>2026-04-07T08:11:15.791Z</time></trkpt><trkpt lat="38.4736617" lon="16.2813583"><ele>1006.3333333333334</ele><time>2026-04-07T08:11:16.79Z</time></trkpt><trkpt lat="38.4736567" lon="16.281455"><ele>1005.0</ele><time>2026-04-07T08:11:18.79Z</time></trkpt><trkpt lat="38.4736483" lon="16.2815367"><ele>1005.5</ele><time>2026-04-07T08:11:20.79Z</time></trkpt><trkpt lat="38.47367" lon="16.281635"><ele>1006.0</ele><time>2026-04-07T08:11:22.791Z</time></trkpt><trkpt lat="38.4737383" lon="16.281745"><ele>1006.5</ele><time>2026-04-07T08:11:24.79Z</time></trkpt><trkpt lat="38.4737917" lon="16.2818133"><ele>1007.0</ele><time>2026-04-07T08:11:25.791Z</time></trkpt><trkpt lat="38.47385" lon="16.2818883"><ele>1007.5</ele><time>2026-04-07T08:11:26.79Z</time></trkpt><trkpt lat="38.4739117" lon="16.28198"><ele>1008.0</ele><time>2026-04-07T08:11:27.79Z</time></trkpt><trkpt lat="38.4739583" lon="16.282075"><ele>1008.0</ele><time>2026-04-07T08:11:28.79Z</time></trkpt><trkpt lat="38.4739967" lon="16.2821817"><ele>1008.0</ele><time>2026-04-07T08:11:29.79Z</time></trkpt><trkpt lat="38.4740267" lon="16.282295"><ele>1008.0</ele><time>2026-04-07T08:11:30.791Z</time></trkpt><trkpt lat="38.4740517" lon="16.2824183"><ele>1008.0</ele><time>2026-04-07T08:11:31.791Z</time></trkpt><trkpt lat="38.4740733" lon="16.2825383"><ele>1008.0</ele><time>2026-04-07T08:11:32.79Z</time></trkpt><trkpt lat="38.4741033" lon="16.282655"><ele>1007.4</ele><time>2026-04-07T08:11:33.79Z</time></trkpt><trkpt lat="38.4741317" lon="16.2827983"><ele>1006.8</ele><time>2026-04-07T08:11:34.79Z</time></trkpt><trkpt lat="38.47416" lon="16.2829283"><ele>1006.2</ele><time>2026-04-07T08:11:35.791Z</time></trkpt><trkpt lat="38.4741867" lon="16.2830483"><ele>1005.6</ele><time>2026-04-07T08:11:36.79Z</time></trkpt><trkpt lat="38.474215" lon="16.2831633"><ele>1005.0</ele><time>2026-04-07T08:11:37.79Z</time></trkpt><trkpt lat="38.47426" lon="16.2832783"><ele>1004.2</ele><time>2026-04-07T08:11:38.79Z</time></trkpt><trkpt lat="38.474315" lon="16.2833967"><ele>1003.4</ele><time>2026-04-07T08:11:39.79Z</time></trkpt><trkpt lat="38.47438" lon="16.2835183"><ele>1002.5999999999999</ele><time>2026-04-07T08:11:40.79Z</time></trkpt><trkpt lat="38.47445" lon="16.2836233"><ele>1001.8</ele><time>2026-04-07T08:11:41.791Z</time></trkpt><trkpt lat="38.4745167" lon="16.283715"><ele>1001.0</ele><time>2026-04-07T08:11:42.791Z</time></trkpt><trkpt lat="38.47459" lon="16.283785"><ele>1000.4</ele><time>2026-04-07T08:11:43.791Z</time></trkpt><trkpt lat="38.47467" lon="16.2838433"><ele>999.8</ele><time>2026-04-07T08:11:44.79Z</time></trkpt><trkpt lat="38.47475" lon="16.2838917"><ele>999.1999999999999</ele><time>2026-04-07T08:11:45.79Z</time></trkpt><trkpt lat="38.474835" lon="16.2839267"><ele>998.5999999999999</ele><time>2026-04-07T08:11:46.79Z</time></trkpt><trkpt lat="38.474925" lon="16.2839483"><ele>998.0</ele><time>2026-04-07T08:11:47.791Z</time></trkpt><trkpt lat="38.47502" lon="16.2839567"><ele>998.0</ele><time>2026-04-07T08:11:48.79Z</time></trkpt><trkpt lat="38.47512" lon="16.2839467"><ele>998.0</ele><time>2026-04-07T08:11:49.791Z</time></trkpt><trkpt lat="38.4752167" lon="16.2839283"><ele>998.0</ele><time>2026-04-07T08:11:50.79Z</time></trkpt><trkpt lat="38.4753117" lon="16.2838933"><ele>998.0</ele><time>2026-04-07T08:11:51.791Z</time></trkpt><trkpt lat="38.4754083" lon="16.2838567"><ele>998.0</ele><time>2026-04-07T08:11:52.791Z</time></trkpt><trkpt lat="38.4754983" lon="16.28382"><ele>997.8</ele><time>2026-04-07T08:11:53.79Z</time></trkpt><trkpt lat="38.4755967" lon="16.2837833"><ele>997.5999999999999</ele><time>2026-04-07T08:11:54.79Z</time></trkpt><trkpt lat="38.475685" lon="16.28372"><ele>997.4000000000001</ele><time>2026-04-07T08:11:55.791Z</time></trkpt><trkpt lat="38.47577" lon="16.2836333"><ele>997.2</ele><time>2026-04-07T08:11:56.791Z</time></trkpt><trkpt lat="38.4758567" lon="16.283525"><ele>997.0</ele><time>2026-04-07T08:11:57.79Z</time></trkpt><trkpt lat="38.4759533" lon="16.2833883"><ele>997.0</ele><time>2026-04-07T08:11:58.791Z</time></trkpt><trkpt lat="38.47608" lon="16.283245"><ele>997.0</ele><time>2026-04-07T08:11:59.791Z</time></trkpt><trkpt lat="38.47618" lon="16.2831133"><ele>997.0</ele><time>2026-04-07T08:12:00.79Z</time></trkpt><trkpt lat="38.4762667" lon="16.2829767"><ele>993.0</ele><time>2026-04-07T08:12:01.79Z</time></trkpt><trkpt lat="38.4763217" lon="16.2828433"><ele>989.0</ele><time>2026-04-07T08:12:02.79Z</time></trkpt><trkpt lat="38.4763533" lon="16.282695"><ele>985.0</ele><time>2026-04-07T08:12:03.79Z</time></trkpt><trkpt lat="38.4763617" lon="16.2825333"><ele>981.0</ele><time>2026-04-07T08:12:04.791Z</time></trkpt><trkpt lat="38.4763517" lon="16.2823767"><ele>982.25</ele><time>2026-04-07T08:12:05.791Z</time></trkpt><trkpt lat="38.4763367" lon="16.2822033"><ele>983.5</ele><time>2026-04-07T08:12:06.79Z</time></trkpt><trkpt lat="38.4763283" lon="16.2820383"><ele>984.75</ele><time>2026-04-07T08:12:07.79Z</time></trkpt><trkpt lat="38.4763183" lon="16.2818933"><ele>986.0</ele><time>2026-04-07T08:12:08.791Z</time></trkpt><trkpt lat="38.4763233" lon="16.2817683"><ele>986.0</ele><time>2026-04-07T08:12:09.79Z</time></trkpt><trkpt lat="38.4763467" lon="16.28163"><ele>986.0</ele><time>2026-04-07T08:12:10.791Z</time></trkpt><trkpt lat="38.476395" lon="16.2815033"><ele>986.0</ele><time>2026-04-07T08:12:11.79Z</time></trkpt><trkpt lat="38.4764733" lon="16.281395"><ele>986.0</ele><time>2026-04-07T08:12:12.79Z</time></trkpt><trkpt lat="38.476575" lon="16.2813067"><ele>988.5</ele><time>2026-04-07T08:12:13.79Z</time></trkpt><trkpt lat="38.4766733" lon="16.2811967"><ele>991.0</ele><time>2026-04-07T08:12:14.79Z</time></trkpt><trkpt lat="38.47678" lon="16.2810917"><ele>993.5</ele><time>2026-04-07T08:12:15.79Z</time></trkpt><trkpt lat="38.4768733" lon="16.2809717"><ele>996.0</ele><time>2026-04-07T08:12:16.79Z</time></trkpt><trkpt lat="38.4769467" lon="16.2808367"><ele>996.0</ele><time>2026-04-07T08:12:17.79Z</time></trkpt><trkpt lat="38.4769983" lon="16.280715"><ele>995.9999999999999</ele><time>2026-04-07T08:12:18.791Z</time></trkpt><trkpt lat="38.4770367" lon="16.2806"><ele>995.9999999999999</ele><time>2026-04-07T08:12:19.79Z</time></trkpt><trkpt lat="38.4770717" lon="16.2804817"><ele>996.0</ele><time>2026-04-07T08:12:20.791Z</time></trkpt><trkpt lat="38.4771083" lon="16.2804017"><ele>996.0</ele><time>2026-04-07T08:12:21.791Z</time></trkpt><trkpt lat="38.4771467" lon="16.28032"><ele>993.1666666666666</ele><time>2026-04-07T08:12:22.79Z</time></trkpt><trkpt lat="38.477195" lon="16.2802417"><ele>990.3333333333333</ele><time>2026-04-07T08:12:23.791Z</time></trkpt><trkpt lat="38.4772517" lon="16.2801683"><ele>987.5</ele><time>2026-04-07T08:12:24.791Z</time></trkpt><trkpt lat="38.4773333" lon="16.2800783"><ele>984.6666666666666</ele><time>2026-04-07T08:12:26.791Z</time></trkpt><trkpt lat="38.4774033" lon="16.2800467"><ele>981.8333333333333</ele><time>2026-04-07T08:12:28.79Z</time></trkpt><trkpt lat="38.4774917" lon="16.2800333"><ele>979.0</ele><time>2026-04-07T08:12:31.79Z</time></trkpt><trkpt lat="38.477555" lon="16.2800583"><ele>978.9999999999999</ele><time>2026-04-07T08:12:33.79Z</time></trkpt><trkpt lat="38.4776067" lon="16.2801183"><ele>979.0</ele><time>2026-04-07T08:12:35.791Z</time></trkpt><trkpt lat="38.47768" lon="16.2801967"><ele>979.0</ele><time>2026-04-07T08:12:37.79Z</time></trkpt><trkpt lat="38.4777517" lon="16.28027"><ele>979.0</ele><time>2026-04-07T08:12:39.79Z</time></trkpt><trkpt lat="38.4778183" lon="16.2803183"><ele>978.9999999999999</ele><time>2026-04-07T08:12:41.791Z</time></trkpt><trkpt lat="38.4778883" lon="16.2803233"><ele>979.0</ele><time>2026-04-07T08:12:44.79Z</time></trkpt><trkpt lat="38.4779333" lon="16.280265"><ele>979.0</ele><time>2026-04-07T08:17:10.791Z</time></trkpt><trkpt lat="38.477985" lon="16.28017"><ele>979.0000000000001</ele><time>2026-04-07T08:17:11.79Z</time></trkpt><trkpt lat="38.4779317" lon="16.28024"><ele>979.0000000000001</ele><time>2026-04-07T08:19:41.79Z</time></trkpt><trkpt lat="38.4779167" lon="16.2803667"><ele>979.0</ele><time>2026-04-07T08:19:43.791Z</time></trkpt><trkpt lat="38.4779" lon="16.2805333"><ele>979.0</ele><time>2026-04-07T08:19:45.79Z</time></trkpt><trkpt lat="38.4778917" lon="16.28064"><ele>978.9999999999999</ele><time>2026-04-07T08:19:46.79Z</time></trkpt><trkpt lat="38.47789" lon="16.2807583"><ele>979.0</ele><time>2026-04-07T08:19:47.791Z</time></trkpt><trkpt lat="38.4778917" lon="16.2808583"><ele>979.0</ele><time>2026-04-07T08:19:48.79Z</time></trkpt><trkpt lat="38.4779017" lon="16.280955"><ele>979.0</ele><time>2026-04-07T08:19:49.79Z</time></trkpt><trkpt lat="38.4779217" lon="16.2810683"><ele>978.9999999999999</ele><time>2026-04-07T08:19:50.791Z</time></trkpt><trkpt lat="38.4779467" lon="16.28118"><ele>979.0</ele><time>2026-04-07T08:19:51.79Z</time></trkpt><trkpt lat="38.4779783" lon="16.281305"><ele>979.4000000000001</ele><time>2026-04-07T08:19:52.79Z</time></trkpt><trkpt lat="38.4780217" lon="16.2814333"><ele>979.8000000000001</ele><time>2026-04-07T08:19:53.79Z</time></trkpt><trkpt lat="38.4780733" lon="16.2815517"><ele>980.1999999999999</ele><time>2026-04-07T08:19:54.79Z</time></trkpt><trkpt lat="38.478125" lon="16.2816617"><ele>980.5999999999999</ele><time>2026-04-07T08:19:55.79Z</time></trkpt><trkpt lat="38.47818" lon="16.28177"><ele>981.0</ele><time>2026-04-07T08:19:56.79Z</time></trkpt><trkpt lat="38.4782283" lon="16.2818667"><ele>981.0</ele><time>2026-04-07T08:19:57.79Z</time></trkpt><trkpt lat="38.4782733" lon="16.2819533"><ele>980.9999999999999</ele><time>2026-04-07T08:19:58.791Z</time></trkpt><trkpt lat="38.4783183" lon="16.2820483"><ele>980.9999999999999</ele><time>2026-04-07T08:19:59.79Z</time></trkpt><trkpt lat="38.4783583" lon="16.2821483"><ele>981.0</ele><time>2026-04-07T08:20:00.79Z</time></trkpt><trkpt lat="38.4784083" lon="16.2822567"><ele>981.0</ele><time>2026-04-07T08:20:01.79Z</time></trkpt><trkpt lat="38.4784583" lon="16.2823633"><ele>981.1666666666666</ele><time>2026-04-07T08:20:02.79Z</time></trkpt><trkpt lat="38.4785133" lon="16.28247"><ele>981.3333333333333</ele><time>2026-04-07T08:20:03.79Z</time></trkpt><trkpt lat="38.4785717" lon="16.2825667"><ele>981.5</ele><time>2026-04-07T08:20:04.79Z</time></trkpt><trkpt lat="38.4786267" lon="16.2826533"><ele>981.6666666666666</ele><time>2026-04-07T08:20:05.79Z</time></trkpt><trkpt lat="38.4786767" lon="16.2827333"><ele>981.8333333333333</ele><time>2026-04-07T08:20:06.791Z</time></trkpt><trkpt lat="38.4787217" lon="16.2828033"><ele>982.0</ele><time>2026-04-07T08:20:07.79Z</time></trkpt><trkpt lat="38.478795" lon="16.2829083"><ele>982.0</ele><time>2026-04-07T08:20:09.791Z</time></trkpt><trkpt lat="38.478875" lon="16.28299"><ele>982.0</ele><time>2026-04-07T08:20:11.791Z</time></trkpt><trkpt lat="38.47896" lon="16.28304"><ele>982.0</ele><time>2026-04-07T08:20:13.79Z</time></trkpt><trkpt lat="38.4790783" lon="16.2830617"><ele>982.0</ele><time>2026-04-07T08:20:15.79Z</time></trkpt><trkpt lat="38.4791483" lon="16.28306"><ele>982.0</ele><time>2026-04-07T08:20:16.79Z</time></trkpt><trkpt lat="38.4792217" lon="16.2830483"><ele>981.9999999999999</ele><time>2026-04-07T08:20:17.79Z</time></trkpt><trkpt lat="38.4792967" lon="16.283035"><ele>982.0</ele><time>2026-04-07T08:20:18.791Z</time></trkpt><trkpt lat="38.4793767" lon="16.2830083"><ele>982.0</ele><time>2026-04-07T08:20:19.79Z</time></trkpt><trkpt lat="38.4794567" lon="16.2829783"><ele>982.0</ele><time>2026-04-07T08:20:20.79Z</time></trkpt><trkpt lat="38.4795267" lon="16.28295"><ele>981.9999999999999</ele><time>2026-04-07T08:20:21.79Z</time></trkpt><trkpt lat="38.479595" lon="16.2829267"><ele>982.0</ele><time>2026-04-07T08:20:22.791Z</time></trkpt><trkpt lat="38.479675" lon="16.2828833"><ele>980.9999999999999</ele><time>2026-04-07T08:20:23.79Z</time></trkpt><trkpt lat="38.4797483" lon="16.2828333"><ele>980.0</ele><time>2026-04-07T08:20:24.79Z</time></trkpt><trkpt lat="38.47981" lon="16.2827667"><ele>979.0</ele><time>2026-04-07T08:20:25.79Z</time></trkpt><trkpt lat="38.47987" lon="16.2827117"><ele>978.0</ele><time>2026-04-07T08:20:26.79Z</time></trkpt><trkpt lat="38.47992" lon="16.2826517"><ele>976.9999999999999</ele><time>2026-04-07T08:20:27.79Z</time></trkpt><trkpt lat="38.4800133" lon="16.2825533"><ele>976.0</ele><time>2026-04-07T08:20:29.79Z</time></trkpt><trkpt lat="38.4800983" lon="16.28246"><ele>976.0</ele><time>2026-04-07T08:20:31.79Z</time></trkpt><trkpt lat="38.4801933" lon="16.28238"><ele>975.9999999999999</ele><time>2026-04-07T08:20:33.79Z</time></trkpt><trkpt lat="38.480295" lon="16.2823317"><ele>975.9999999999999</ele><time>2026-04-07T08:20:35.79Z</time></trkpt><trkpt lat="38.4804" lon="16.28229"><ele>976.0</ele><time>2026-04-07T08:20:37.791Z</time></trkpt><trkpt lat="38.480495" lon="16.2822433"><ele>976.0</ele><time>2026-04-07T08:20:39.79Z</time></trkpt><trkpt lat="38.4805817" lon="16.2821883"><ele>976.0</ele><time>2026-04-07T08:20:41.79Z</time></trkpt><trkpt lat="38.480695" lon="16.2821267"><ele>976.0</ele><time>2026-04-07T08:20:43.791Z</time></trkpt><trkpt lat="38.4808017" lon="16.282075"><ele>976.0</ele><time>2026-04-07T08:20:45.791Z</time></trkpt><trkpt lat="38.4809083" lon="16.28205"><ele>976.0</ele><time>2026-04-07T08:20:47.79Z</time></trkpt><trkpt lat="38.4810233" lon="16.2820467"><ele>975.9999999999999</ele><time>2026-04-07T08:20:49.79Z</time></trkpt><trkpt lat="38.481095" lon="16.282055"><ele>976.0</ele><time>2026-04-07T08:20:50.79Z</time></trkpt><trkpt lat="38.48116" lon="16.2820633"><ele>976.0</ele><time>2026-04-07T08:20:51.79Z</time></trkpt><trkpt lat="38.4812867" lon="16.28207"><ele>976.0</ele><time>2026-04-07T08:20:53.791Z</time></trkpt><trkpt lat="38.48135" lon="16.2820733"><ele>975.9999999999999</ele><time>2026-04-07T08:20:54.79Z</time></trkpt><trkpt lat="38.4814117" lon="16.2820567"><ele>976.0</ele><time>2026-04-07T08:20:55.79Z</time></trkpt><trkpt lat="38.481475" lon="16.282045"><ele>976.142857142857</ele><time>2026-04-07T08:20:56.79Z</time></trkpt><trkpt lat="38.48154" lon="16.282045"><ele>976.2857142857142</ele><time>2026-04-07T08:20:57.79Z</time></trkpt><trkpt lat="38.4816117" lon="16.2820433"><ele>976.4285714285714</ele><time>2026-04-07T08:20:58.79Z</time></trkpt><trkpt lat="38.48168" lon="16.2820533"><ele>976.5714285714286</ele><time>2026-04-07T08:20:59.79Z</time></trkpt><trkpt lat="38.4817483" lon="16.282065"><ele>976.7142857142858</ele><time>2026-04-07T08:21:00.79Z</time></trkpt><trkpt lat="38.48182" lon="16.282085"><ele>976.857142857143</ele><time>2026-04-07T08:21:01.79Z</time></trkpt><trkpt lat="38.4819" lon="16.28211"><ele>977.0000000000001</ele><time>2026-04-07T08:21:02.791Z</time></trkpt><trkpt lat="38.4819833" lon="16.2821483"><ele>977.0</ele><time>2026-04-07T08:21:03.791Z</time></trkpt><trkpt lat="38.4820733" lon="16.2821967"><ele>977.0</ele><time>2026-04-07T08:21:04.79Z</time></trkpt><trkpt lat="38.4821617" lon="16.2822567"><ele>977.0</ele><time>2026-04-07T08:21:05.79Z</time></trkpt><trkpt lat="38.482245" lon="16.2823233"><ele>977.0</ele><time>2026-04-07T08:21:06.79Z</time></trkpt><trkpt lat="38.4823017" lon="16.282405"><ele>977.0</ele><time>2026-04-07T08:21:07.79Z</time></trkpt><trkpt lat="38.4823367" lon="16.2825"><ele>974.5000000000001</ele><time>2026-04-07T08:21:08.79Z</time></trkpt><trkpt lat="38.4823517" lon="16.282605"><ele>972.0</ele><time>2026-04-07T08:21:09.791Z</time></trkpt><trkpt lat="38.482355" lon="16.2826967"><ele>969.5</ele><time>2026-04-07T08:21:10.79Z</time></trkpt><trkpt lat="38.4823633" lon="16.282785"><ele>967.0</ele><time>2026-04-07T08:21:11.791Z</time></trkpt><trkpt lat="38.482395" lon="16.2828833"><ele>964.5000000000001</ele><time>2026-04-07T08:21:12.79Z</time></trkpt><trkpt lat="38.48244" lon="16.2829867"><ele>962.0</ele><time>2026-04-07T08:21:13.791Z</time></trkpt><trkpt lat="38.4824883" lon="16.2830933"><ele>960.8</ele><time>2026-04-07T08:21:14.79Z</time></trkpt><trkpt lat="38.4825367" lon="16.2831917"><ele>959.6</ele><time>2026-04-07T08:21:15.79Z</time></trkpt><trkpt lat="38.4825867" lon="16.283285"><ele>958.3999999999999</ele><time>2026-04-07T08:21:16.79Z</time></trkpt><trkpt lat="38.4826283" lon="16.283365"><ele>957.1999999999999</ele><time>2026-04-07T08:21:17.79Z</time></trkpt><trkpt lat="38.482665" lon="16.2834333"><ele>956.0</ele><time>2026-04-07T08:21:18.79Z</time></trkpt><trkpt lat="38.4827467" lon="16.2835667"><ele>956.0000000000001</ele><time>2026-04-07T08:21:20.79Z</time></trkpt><trkpt lat="38.4827833" lon="16.2836433"><ele>956.0</ele><time>2026-04-07T08:21:21.79Z</time></trkpt><trkpt lat="38.482825" lon="16.2837183"><ele>956.0000000000001</ele><time>2026-04-07T08:21:22.79Z</time></trkpt><trkpt lat="38.4828683" lon="16.2838"><ele>956.0000000000001</ele><time>2026-04-07T08:21:23.79Z</time></trkpt><trkpt lat="38.4829033" lon="16.2838767"><ele>956.0</ele><time>2026-04-07T08:21:24.79Z</time></trkpt><trkpt lat="38.4829367" lon="16.2839517"><ele>956.0000000000001</ele><time>2026-04-07T08:21:25.79Z</time></trkpt><trkpt lat="38.4829683" lon="16.2840333"><ele>956.0000000000001</ele><time>2026-04-07T08:21:26.791Z</time></trkpt><trkpt lat="38.4830117" lon="16.2841333"><ele>956.5000000000001</ele><time>2026-04-07T08:21:27.79Z</time></trkpt><trkpt lat="38.4830533" lon="16.2842283"><ele>957.0</ele><time>2026-04-07T08:21:28.79Z</time></trkpt><trkpt lat="38.4830967" lon="16.2843217"><ele>957.5</ele><time>2026-04-07T08:21:29.79Z</time></trkpt><trkpt lat="38.4831533" lon="16.28441"><ele>958.0</ele><time>2026-04-07T08:21:30.79Z</time></trkpt><trkpt lat="38.48322" lon="16.2844867"><ele>958.5000000000001</ele><time>2026-04-07T08:21:31.79Z</time></trkpt><trkpt lat="38.4832917" lon="16.2845367"><ele>959.0</ele><time>2026-04-07T08:21:32.79Z</time></trkpt><trkpt lat="38.4833883" lon="16.28456"><ele>959.0</ele><time>2026-04-07T08:21:33.79Z</time></trkpt><trkpt lat="38.48349" lon="16.2845717"><ele>959.0000000000001</ele><time>2026-04-07T08:21:34.79Z</time></trkpt><trkpt lat="38.48359" lon="16.2845833"><ele>959.0000000000001</ele><time>2026-04-07T08:21:35.79Z</time></trkpt><trkpt lat="38.48369" lon="16.2845967"><ele>959.0</ele><time>2026-04-07T08:21:36.791Z</time></trkpt><trkpt lat="38.4837783" lon="16.2846183"><ele>959.0</ele><time>2026-04-07T08:21:37.791Z</time></trkpt><trkpt lat="38.48387" lon="16.28465"><ele>959.8000000000001</ele><time>2026-04-07T08:21:38.79Z</time></trkpt><trkpt lat="38.4839583" lon="16.2846983"><ele>960.6000000000001</ele><time>2026-04-07T08:21:39.791Z</time></trkpt><trkpt lat="38.4840483" lon="16.2847167"><ele>961.4</ele><time>2026-04-07T08:21:40.79Z</time></trkpt><trkpt lat="38.484145" lon="16.2847683"><ele>962.2</ele><time>2026-04-07T08:21:41.791Z</time></trkpt><trkpt lat="38.4842333" lon="16.2848283"><ele>963.0</ele><time>2026-04-07T08:21:42.79Z</time></trkpt><trkpt lat="38.4843267" lon="16.284885"><ele>963.4</ele><time>2026-04-07T08:21:43.79Z</time></trkpt><trkpt lat="38.4844133" lon="16.2849367"><ele>963.8</ele><time>2026-04-07T08:21:44.79Z</time></trkpt><trkpt lat="38.4844967" lon="16.284985"><ele>964.2</ele><time>2026-04-07T08:21:45.791Z</time></trkpt><trkpt lat="38.4846067" lon="16.285085"><ele>964.6</ele><time>2026-04-07T08:21:46.79Z</time></trkpt><trkpt lat="38.484685" lon="16.2851467"><ele>965.0</ele><time>2026-04-07T08:21:47.791Z</time></trkpt><trkpt lat="38.4847617" lon="16.2852"><ele>965.0000000000001</ele><time>2026-04-07T08:21:48.79Z</time></trkpt><trkpt lat="38.4848417" lon="16.2852517"><ele>965.0</ele><time>2026-04-07T08:21:49.79Z</time></trkpt><trkpt lat="38.4849233" lon="16.2853"><ele>965.0</ele><time>2026-04-07T08:21:50.791Z</time></trkpt><trkpt lat="38.485" lon="16.2853417"><ele>965.0</ele><time>2026-04-07T08:21:51.791Z</time></trkpt><trkpt lat="38.4850733" lon="16.28538"><ele>965.0000000000001</ele><time>2026-04-07T08:21:52.79Z</time></trkpt><trkpt lat="38.4851433" lon="16.28541"><ele>965.0</ele><time>2026-04-07T08:21:53.79Z</time></trkpt><trkpt lat="38.4852633" lon="16.285445"><ele>965.0000000000001</ele><time>2026-04-07T08:21:55.79Z</time></trkpt><trkpt lat="38.4853367" lon="16.2854467"><ele>965.0</ele><time>2026-04-07T08:21:56.79Z</time></trkpt><trkpt lat="38.4854217" lon="16.2854283"><ele>965.0</ele><time>2026-04-07T08:21:57.79Z</time></trkpt><trkpt lat="38.4855133" lon="16.285395"><ele>965.0</ele><time>2026-04-07T08:21:58.79Z</time></trkpt><trkpt lat="38.4856033" lon="16.28537"><ele>965.0000000000001</ele><time>2026-04-07T08:21:59.791Z</time></trkpt><trkpt lat="38.4856917" lon="16.285345"><ele>965.0</ele><time>2026-04-07T08:22:00.79Z</time></trkpt><trkpt lat="38.4857783" lon="16.2853333"><ele>964.8333333333334</ele><time>2026-04-07T08:22:01.79Z</time></trkpt><trkpt lat="38.4858617" lon="16.2853233"><ele>964.6666666666667</ele><time>2026-04-07T08:22:02.79Z</time></trkpt><trkpt lat="38.4859433" lon="16.2853267"><ele>964.5</ele><time>2026-04-07T08:22:03.79Z</time></trkpt><trkpt lat="38.486015" lon="16.2853383"><ele>964.3333333333333</ele><time>2026-04-07T08:22:04.791Z</time></trkpt><trkpt lat="38.4860817" lon="16.2853583"><ele>964.1666666666666</ele><time>2026-04-07T08:22:05.791Z</time></trkpt><trkpt lat="38.4862" lon="16.2853917"><ele>964.0</ele><time>2026-04-07T08:22:07.791Z</time></trkpt><trkpt lat="38.4862633" lon="16.2854067"><ele>964.4000000000001</ele><time>2026-04-07T08:22:08.791Z</time></trkpt><trkpt lat="38.486365" lon="16.2854383"><ele>964.8000000000001</ele><time>2026-04-07T08:22:10.791Z</time></trkpt><trkpt lat="38.4864667" lon="16.2854367"><ele>965.1999999999999</ele><time>2026-04-07T08:22:12.791Z</time></trkpt><trkpt lat="38.4865483" lon="16.2853483"><ele>965.5999999999999</ele><time>2026-04-07T08:22:14.79Z</time></trkpt><trkpt lat="38.4865783" lon="16.285265"><ele>966.0</ele><time>2026-04-07T08:22:15.791Z</time></trkpt><trkpt lat="38.4865983" lon="16.285165"><ele>966.0</ele><time>2026-04-07T08:22:16.79Z</time></trkpt><trkpt lat="38.4866233" lon="16.28508"><ele>966.0</ele><time>2026-04-07T08:22:17.79Z</time></trkpt><trkpt lat="38.4866533" lon="16.2849933"><ele>966.0</ele><time>2026-04-07T08:22:18.79Z</time></trkpt><trkpt lat="38.4867033" lon="16.2849167"><ele>966.0</ele><time>2026-04-07T08:22:19.79Z</time></trkpt><trkpt lat="38.48676" lon="16.28484"><ele>966.0</ele><time>2026-04-07T08:22:20.79Z</time></trkpt><trkpt lat="38.4868167" lon="16.2847567"><ele>966.0</ele><time>2026-04-07T08:22:21.79Z</time></trkpt><trkpt lat="38.4868783" lon="16.2846817"><ele>965.3333333333334</ele><time>2026-04-07T08:22:22.79Z</time></trkpt><trkpt lat="38.486935" lon="16.2845983"><ele>964.6666666666667</ele><time>2026-04-07T08:22:23.79Z</time></trkpt><trkpt lat="38.48699" lon="16.2845067"><ele>964.0</ele><time>2026-04-07T08:22:24.79Z</time></trkpt><trkpt lat="38.4870483" lon="16.28442"><ele>963.3333333333334</ele><time>2026-04-07T08:22:25.791Z</time></trkpt><trkpt lat="38.487115" lon="16.284345"><ele>962.6666666666667</ele><time>2026-04-07T08:22:26.79Z</time></trkpt><trkpt lat="38.4871933" lon="16.28428"><ele>962.0</ele><time>2026-04-07T08:22:27.79Z</time></trkpt><trkpt lat="38.4872633" lon="16.2842167"><ele>963.8333333333334</ele><time>2026-04-07T08:22:28.79Z</time></trkpt><trkpt lat="38.4873367" lon="16.2841567"><ele>965.6666666666667</ele><time>2026-04-07T08:22:29.79Z</time></trkpt><trkpt lat="38.4874133" lon="16.2841067"><ele>967.5</ele><time>2026-04-07T08:22:30.791Z</time></trkpt><trkpt lat="38.4874933" lon="16.2840667"><ele>969.3333333333333</ele><time>2026-04-07T08:22:31.79Z</time></trkpt><trkpt lat="38.487575" lon="16.28403"><ele>971.1666666666666</ele><time>2026-04-07T08:22:32.791Z</time></trkpt><trkpt lat="38.4876583" lon="16.283995"><ele>973.0</ele><time>2026-04-07T08:22:33.79Z</time></trkpt><trkpt lat="38.4877367" lon="16.2839333"><ele>973.3333333333333</ele><time>2026-04-07T08:22:34.79Z</time></trkpt><trkpt lat="38.48782" lon="16.2838967"><ele>973.6666666666666</ele><time>2026-04-07T08:22:35.79Z</time></trkpt><trkpt lat="38.4879017" lon="16.283845"><ele>974.0</ele><time>2026-04-07T08:22:36.79Z</time></trkpt><trkpt lat="38.4879783" lon="16.283805"><ele>974.3333333333333</ele><time>2026-04-07T08:22:37.79Z</time></trkpt><trkpt lat="38.488045" lon="16.283765"><ele>974.6666666666666</ele><time>2026-04-07T08:22:38.791Z</time></trkpt><trkpt lat="38.48812" lon="16.28373"><ele>975.0</ele><time>2026-04-07T08:22:39.79Z</time></trkpt><trkpt lat="38.4881967" lon="16.2837"><ele>975.0</ele><time>2026-04-07T08:22:40.79Z</time></trkpt><trkpt lat="38.48827" lon="16.2836533"><ele>975.0</ele><time>2026-04-07T08:22:41.79Z</time></trkpt><trkpt lat="38.48835" lon="16.2836017"><ele>975.0</ele><time>2026-04-07T08:22:42.79Z</time></trkpt><trkpt lat="38.4884417" lon="16.2835567"><ele>975.0</ele><time>2026-04-07T08:22:43.791Z</time></trkpt><trkpt lat="38.4885317" lon="16.2835067"><ele>975.0</ele><time>2026-04-07T08:22:44.791Z</time></trkpt><trkpt lat="38.4886183" lon="16.2834567"><ele>975.0</ele><time>2026-04-07T08:22:45.79Z</time></trkpt><trkpt lat="38.488695" lon="16.2834117"><ele>975.0</ele><time>2026-04-07T08:22:46.79Z</time></trkpt><trkpt lat="38.48877" lon="16.2833733"><ele>975.0</ele><time>2026-04-07T08:22:47.791Z</time></trkpt><trkpt lat="38.4888417" lon="16.2833367"><ele>975.0</ele><time>2026-04-07T08:22:48.791Z</time></trkpt><trkpt lat="38.4889133" lon="16.2832983"><ele>975.0</ele><time>2026-04-07T08:22:49.79Z</time></trkpt><trkpt lat="38.48898" lon="16.2832567"><ele>975.0</ele><time>2026-04-07T08:22:50.791Z</time></trkpt><trkpt lat="38.4890483" lon="16.2832067"><ele>975.0</ele><time>2026-04-07T08:22:51.79Z</time></trkpt><trkpt lat="38.4891233" lon="16.28316"><ele>975.0</ele><time>2026-04-07T08:22:52.79Z</time></trkpt><trkpt lat="38.4892" lon="16.2831217"><ele>975.0</ele><time>2026-04-07T08:22:53.79Z</time></trkpt><trkpt lat="38.4892767" lon="16.2830783"><ele>975.0</ele><time>2026-04-07T08:22:54.79Z</time></trkpt><trkpt lat="38.48935" lon="16.2830467"><ele>975.0</ele><time>2026-04-07T08:22:55.79Z</time></trkpt><trkpt lat="38.48945" lon="16.28299"><ele>975.0</ele><time>2026-04-07T08:22:57.79Z</time></trkpt><trkpt lat="38.4895267" lon="16.282945"><ele>975.3333333333334</ele><time>2026-04-07T08:22:59.79Z</time></trkpt><trkpt lat="38.4896" lon="16.2829017"><ele>975.6666666666667</ele><time>2026-04-07T08:23:01.791Z</time></trkpt><trkpt lat="38.4896817" lon="16.2828617"><ele>976.0</ele><time>2026-04-07T08:23:03.79Z</time></trkpt><trkpt lat="38.4897967" lon="16.2828217"><ele>976.3333333333334</ele><time>2026-04-07T08:23:05.79Z</time></trkpt><trkpt lat="38.489865" lon="16.2827967"><ele>976.6666666666667</ele><time>2026-04-07T08:23:06.79Z</time></trkpt><trkpt lat="38.4899283" lon="16.2827783"><ele>977.0</ele><time>2026-04-07T08:23:07.791Z</time></trkpt><trkpt lat="38.489995" lon="16.2827533"><ele>977.0000000000001</ele><time>2026-04-07T08:23:08.79Z</time></trkpt><trkpt lat="38.4900983" lon="16.2827183"><ele>977.0</ele><time>2026-04-07T08:23:10.791Z</time></trkpt><trkpt lat="38.4901933" lon="16.2827"><ele>977.0</ele><time>2026-04-07T08:23:13.79Z</time></trkpt><trkpt lat="38.4902667" lon="16.282685"><ele>977.0</ele><time>2026-04-07T08:23:15.791Z</time></trkpt><trkpt lat="38.490335" lon="16.2826683"><ele>977.0000000000001</ele><time>2026-04-07T08:23:17.79Z</time></trkpt><trkpt lat="38.4904117" lon="16.28265"><ele>977.0</ele><time>2026-04-07T08:23:19.79Z</time></trkpt><trkpt lat="38.4904817" lon="16.28264"><ele>977.5000000000001</ele><time>2026-04-07T08:23:21.791Z</time></trkpt><trkpt lat="38.4905433" lon="16.2826133"><ele>978.0</ele><time>2026-04-07T08:23:23.79Z</time></trkpt><trkpt lat="38.490605" lon="16.282585"><ele>978.5</ele><time>2026-04-07T08:23:25.791Z</time></trkpt><trkpt lat="38.4906767" lon="16.2825733"><ele>979.0</ele><time>2026-04-07T08:23:27.791Z</time></trkpt><trkpt lat="38.4907483" lon="16.28255"><ele>979.5000000000001</ele><time>2026-04-07T08:23:29.79Z</time></trkpt><trkpt lat="38.490835" lon="16.2825133"><ele>980.0</ele><time>2026-04-07T08:23:31.79Z</time></trkpt><trkpt lat="38.4909367" lon="16.2824767"><ele>980.0</ele><time>2026-04-07T08:23:33.79Z</time></trkpt><trkpt lat="38.491" lon="16.2824517"><ele>980.0</ele><time>2026-04-07T08:23:34.79Z</time></trkpt><trkpt lat="38.4910617" lon="16.2824217"><ele>980.0</ele><time>2026-04-07T08:23:35.79Z</time></trkpt><trkpt lat="38.4911333" lon="16.2823967"><ele>980.0</ele><time>2026-04-07T08:23:36.79Z</time></trkpt><trkpt lat="38.4912067" lon="16.2823667"><ele>980.0</ele><time>2026-04-07T08:23:37.79Z</time></trkpt><trkpt lat="38.491275" lon="16.2823467"><ele>980.0</ele><time>2026-04-07T08:23:38.79Z</time></trkpt><trkpt lat="38.49135" lon="16.2823217"><ele>980.0</ele><time>2026-04-07T08:23:39.79Z</time></trkpt><trkpt lat="38.4914233" lon="16.2823017"><ele>980.0000000000001</ele><time>2026-04-07T08:23:40.79Z</time></trkpt><trkpt lat="38.4914983" lon="16.2822717"><ele>980.0</ele><time>2026-04-07T08:23:41.79Z</time></trkpt><trkpt lat="38.4915867" lon="16.28224"><ele>980.0</ele><time>2026-04-07T08:23:42.791Z</time></trkpt><trkpt lat="38.49166" lon="16.282215"><ele>980.0</ele><time>2026-04-07T08:23:43.79Z</time></trkpt><trkpt lat="38.491735" lon="16.2822"><ele>980.0000000000001</ele><time>2026-04-07T08:23:44.79Z</time></trkpt><trkpt lat="38.4918117" lon="16.282175"><ele>980.0</ele><time>2026-04-07T08:23:45.79Z</time></trkpt><trkpt lat="38.491885" lon="16.28214"><ele>980.0000000000001</ele><time>2026-04-07T08:23:46.791Z</time></trkpt><trkpt lat="38.4919517" lon="16.2821083"><ele>980.0</ele><time>2026-04-07T08:23:47.791Z</time></trkpt><trkpt lat="38.4920283" lon="16.2820917"><ele>980.0</ele><time>2026-04-07T08:23:48.791Z</time></trkpt><trkpt lat="38.492095" lon="16.2820817"><ele>980.0</ele><time>2026-04-07T08:23:49.791Z</time></trkpt><trkpt lat="38.4921917" lon="16.2820683"><ele>980.0000000000001</ele><time>2026-04-07T08:23:51.79Z</time></trkpt><trkpt lat="38.4922983" lon="16.282075"><ele>980.0</ele><time>2026-04-07T08:23:53.791Z</time></trkpt><trkpt lat="38.4923633" lon="16.2820767"><ele>980.5000000000001</ele><time>2026-04-07T08:23:54.79Z</time></trkpt><trkpt lat="38.4924333" lon="16.2820817"><ele>981.0</ele><time>2026-04-07T08:23:55.79Z</time></trkpt><trkpt lat="38.4925017" lon="16.282085"><ele>981.5</ele><time>2026-04-07T08:23:56.791Z</time></trkpt><trkpt lat="38.49258" lon="16.2820917"><ele>982.0</ele><time>2026-04-07T08:23:57.79Z</time></trkpt><trkpt lat="38.4926583" lon="16.2821033"><ele>982.5000000000001</ele><time>2026-04-07T08:23:58.79Z</time></trkpt><trkpt lat="38.4927433" lon="16.2821217"><ele>983.0</ele><time>2026-04-07T08:23:59.79Z</time></trkpt><trkpt lat="38.4928333" lon="16.2821467"><ele>983.5000000000001</ele><time>2026-04-07T08:24:00.791Z</time></trkpt><trkpt lat="38.4929267" lon="16.28217"><ele>984.0</ele><time>2026-04-07T08:24:01.791Z</time></trkpt><trkpt lat="38.493015" lon="16.2821867"><ele>984.5</ele><time>2026-04-07T08:24:02.791Z</time></trkpt><trkpt lat="38.4930983" lon="16.282195"><ele>985.0</ele><time>2026-04-07T08:24:03.79Z</time></trkpt><trkpt lat="38.493175" lon="16.28218"><ele>985.5000000000001</ele><time>2026-04-07T08:24:04.79Z</time></trkpt><trkpt lat="38.49325" lon="16.2821417"><ele>986.0</ele><time>2026-04-07T08:24:05.79Z</time></trkpt><trkpt lat="38.4933233" lon="16.2820767"><ele>986.0000000000001</ele><time>2026-04-07T08:24:06.79Z</time></trkpt><trkpt lat="38.49339" lon="16.28201"><ele>986.0</ele><time>2026-04-07T08:24:07.79Z</time></trkpt><trkpt lat="38.493465" lon="16.2819617"><ele>986.0</ele><time>2026-04-07T08:24:08.791Z</time></trkpt><trkpt lat="38.4935567" lon="16.2819467"><ele>986.0</ele><time>2026-04-07T08:24:09.79Z</time></trkpt><trkpt lat="38.4936433" lon="16.2819317"><ele>986.0000000000001</ele><time>2026-04-07T08:24:10.79Z</time></trkpt><trkpt lat="38.49373" lon="16.2819017"><ele>986.0</ele><time>2026-04-07T08:24:11.79Z</time></trkpt><trkpt lat="38.4938083" lon="16.2818517"><ele>986.1999999999999</ele><time>2026-04-07T08:24:12.79Z</time></trkpt><trkpt lat="38.493885" lon="16.2817817"><ele>986.3999999999999</ele><time>2026-04-07T08:24:13.791Z</time></trkpt><trkpt lat="38.4939567" lon="16.28171"><ele>986.6</ele><time>2026-04-07T08:24:14.79Z</time></trkpt><trkpt lat="38.4940317" lon="16.2816183"><ele>986.8</ele><time>2026-04-07T08:24:15.79Z</time></trkpt><trkpt lat="38.4941" lon="16.2815217"><ele>987.0</ele><time>2026-04-07T08:24:16.79Z</time></trkpt><trkpt lat="38.4941517" lon="16.2814267"><ele>988.1666666666666</ele><time>2026-04-07T08:24:17.791Z</time></trkpt><trkpt lat="38.4941967" lon="16.2813267"><ele>989.3333333333333</ele><time>2026-04-07T08:24:18.79Z</time></trkpt><trkpt lat="38.4942283" lon="16.2812317"><ele>990.5</ele><time>2026-04-07T08:24:19.79Z</time></trkpt><trkpt lat="38.4942533" lon="16.2811317"><ele>991.6666666666666</ele><time>2026-04-07T08:24:20.79Z</time></trkpt><trkpt lat="38.49429" lon="16.28103"><ele>992.8333333333333</ele><time>2026-04-07T08:24:21.791Z</time></trkpt><trkpt lat="38.49433" lon="16.2809267"><ele>994.0</ele><time>2026-04-07T08:24:22.791Z</time></trkpt><trkpt lat="38.49437" lon="16.2808183"><ele>994.0</ele><time>2026-04-07T08:24:23.79Z</time></trkpt><trkpt lat="38.49442" lon="16.280705"><ele>994.0</ele><time>2026-04-07T08:24:24.79Z</time></trkpt><trkpt lat="38.4944867" lon="16.28059"><ele>994.0</ele><time>2026-04-07T08:24:25.79Z</time></trkpt><trkpt lat="38.4945783" lon="16.2804783"><ele>994.0</ele><time>2026-04-07T08:24:26.79Z</time></trkpt><trkpt lat="38.494685" lon="16.280385"><ele>996.75</ele><time>2026-04-07T08:24:27.79Z</time></trkpt><trkpt lat="38.4948017" lon="16.2802967"><ele>999.5</ele><time>2026-04-07T08:24:28.79Z</time></trkpt><trkpt lat="38.494925" lon="16.280215"><ele>1002.25</ele><time>2026-04-07T08:24:29.79Z</time></trkpt><trkpt lat="38.4950267" lon="16.280155"><ele>1005.0</ele><time>2026-04-07T08:24:30.79Z</time></trkpt><trkpt lat="38.4951133" lon="16.2801133"><ele>1005.0</ele><time>2026-04-07T08:24:31.791Z</time></trkpt><trkpt lat="38.4951917" lon="16.2800983"><ele>1005.0</ele><time>2026-04-07T08:24:32.79Z</time></trkpt><trkpt lat="38.4952867" lon="16.2801183"><ele>1005.0</ele><time>2026-04-07T08:24:33.79Z</time></trkpt><trkpt lat="38.495405" lon="16.28017"><ele>1005.0</ele><time>2026-04-07T08:24:34.791Z</time></trkpt><trkpt lat="38.4955367" lon="16.28022"><ele>1005.0</ele><time>2026-04-07T08:24:35.79Z</time></trkpt><trkpt lat="38.495665" lon="16.2802717"><ele>1007.2</ele><time>2026-04-07T08:24:36.79Z</time></trkpt><trkpt lat="38.495775" lon="16.2803067"><ele>1009.4</ele><time>2026-04-07T08:24:37.79Z</time></trkpt><trkpt lat="38.4958733" lon="16.2803083"><ele>1011.5999999999999</ele><time>2026-04-07T08:24:38.79Z</time></trkpt><trkpt lat="38.4959633" lon="16.28029"><ele>1013.8</ele><time>2026-04-07T08:24:39.79Z</time></trkpt><trkpt lat="38.4960333" lon="16.2802517"><ele>1016.0</ele><time>2026-04-07T08:24:40.79Z</time></trkpt><trkpt lat="38.4961" lon="16.2802"><ele>1016.0000000000001</ele><time>2026-04-07T08:24:41.791Z</time></trkpt><trkpt lat="38.4961667" lon="16.2801433"><ele>1016.0</ele><time>2026-04-07T08:24:42.791Z</time></trkpt><trkpt lat="38.49622" lon="16.2800683"><ele>1016.0</ele><time>2026-04-07T08:24:43.791Z</time></trkpt><trkpt lat="38.4962583" lon="16.279995"><ele>1016.0</ele><time>2026-04-07T08:24:44.79Z</time></trkpt><trkpt lat="38.4962883" lon="16.2798783"><ele>1016.0000000000001</ele><time>2026-04-07T08:24:46.791Z</time></trkpt><trkpt lat="38.496285" lon="16.279795"><ele>1016.0</ele><time>2026-04-07T08:26:35.79Z</time></trkpt><trkpt lat="38.4962983" lon="16.2796833"><ele>1016.4</ele><time>2026-04-07T08:26:37.79Z</time></trkpt><trkpt lat="38.4963167" lon="16.279515"><ele>1016.8</ele><time>2026-04-07T08:26:39.79Z</time></trkpt><trkpt lat="38.49632" lon="16.27942"><ele>1017.1999999999999</ele><time>2026-04-07T08:26:40.791Z</time></trkpt><trkpt lat="38.4963233" lon="16.2793033"><ele>1017.5999999999999</ele><time>2026-04-07T08:26:41.79Z</time></trkpt><trkpt lat="38.4963233" lon="16.2791733"><ele>1018.0</ele><time>2026-04-07T08:26:42.79Z</time></trkpt><trkpt lat="38.4963183" lon="16.27902"><ele>1019.5999999999999</ele><time>2026-04-07T08:26:43.79Z</time></trkpt><trkpt lat="38.4963083" lon="16.2788733"><ele>1021.1999999999999</ele><time>2026-04-07T08:26:44.79Z</time></trkpt><trkpt lat="38.496305" lon="16.27873"><ele>1022.8</ele><time>2026-04-07T08:26:45.79Z</time></trkpt><trkpt lat="38.496315" lon="16.2786133"><ele>1024.3999999999999</ele><time>2026-04-07T08:26:46.79Z</time></trkpt><trkpt lat="38.4963333" lon="16.278515"><ele>1026.0</ele><time>2026-04-07T08:26:47.79Z</time></trkpt><trkpt lat="38.4963567" lon="16.2784267"><ele>1026.0</ele><time>2026-04-07T08:26:48.791Z</time></trkpt><trkpt lat="38.4964617" lon="16.2783283"><ele>1026.0</ele><time>2026-04-07T08:26:50.79Z</time></trkpt><trkpt lat="38.4965367" lon="16.27831"><ele>1026.0</ele><time>2026-04-07T08:26:51.79Z</time></trkpt><trkpt lat="38.496625" lon="16.2783167"><ele>1026.0</ele><time>2026-04-07T08:26:52.79Z</time></trkpt><trkpt lat="38.4967167" lon="16.2783333"><ele>1026.0</ele><time>2026-04-07T08:26:53.79Z</time></trkpt><trkpt lat="38.4968133" lon="16.2783467"><ele>1026.0</ele><time>2026-04-07T08:26:54.79Z</time></trkpt><trkpt lat="38.496905" lon="16.2783517"><ele>1026.0</ele><time>2026-04-07T08:26:55.79Z</time></trkpt><trkpt lat="38.4969817" lon="16.2783333"><ele>1026.0</ele><time>2026-04-07T08:26:56.79Z</time></trkpt><trkpt lat="38.4970617" lon="16.2782883"><ele>1026.0</ele><time>2026-04-07T08:26:57.79Z</time></trkpt><trkpt lat="38.497135" lon="16.2782317"><ele>1026.0</ele><time>2026-04-07T08:26:58.79Z</time></trkpt><trkpt lat="38.4971983" lon="16.2781767"><ele>1026.0</ele><time>2026-04-07T08:26:59.791Z</time></trkpt><trkpt lat="38.49726" lon="16.2781417"><ele>1028.2</ele><time>2026-04-07T08:27:00.791Z</time></trkpt><trkpt lat="38.4973883" lon="16.27815"><ele>1030.3999999999999</ele><time>2026-04-07T08:27:02.79Z</time></trkpt><trkpt lat="38.4974383" lon="16.2782"><ele>1032.6</ele><time>2026-04-07T08:27:03.79Z</time></trkpt><trkpt lat="38.49747" lon="16.27827"><ele>1034.8</ele><time>2026-04-07T08:27:04.79Z</time></trkpt><trkpt lat="38.4974883" lon="16.27835"><ele>1037.0</ele><time>2026-04-07T08:27:05.791Z</time></trkpt><trkpt lat="38.4975433" lon="16.2785"><ele>1037.0</ele><time>2026-04-07T08:27:07.791Z</time></trkpt><trkpt lat="38.4975983" lon="16.2785533"><ele>1037.0</ele><time>2026-04-07T08:27:08.79Z</time></trkpt><trkpt lat="38.4976617" lon="16.27857"><ele>1037.0</ele><time>2026-04-07T08:27:09.79Z</time></trkpt><trkpt lat="38.4977267" lon="16.2785517"><ele>1037.0</ele><time>2026-04-07T08:27:10.791Z</time></trkpt><trkpt lat="38.4977867" lon="16.2784967"><ele>1037.0</ele><time>2026-04-07T08:27:11.79Z</time></trkpt><trkpt lat="38.4978383" lon="16.278425"><ele>1037.0</ele><time>2026-04-07T08:27:12.79Z</time></trkpt><trkpt lat="38.4978717" lon="16.27834"><ele>1037.0</ele><time>2026-04-07T08:27:13.791Z</time></trkpt><trkpt lat="38.497885" lon="16.278245"><ele>1037.0</ele><time>2026-04-07T08:27:14.79Z</time></trkpt><trkpt lat="38.4978767" lon="16.278145"><ele>1037.0</ele><time>2026-04-07T08:27:15.791Z</time></trkpt><trkpt lat="38.4978667" lon="16.2780433"><ele>1037.0</ele><time>2026-04-07T08:27:16.791Z</time></trkpt><trkpt lat="38.49785" lon="16.277955"><ele>1037.0</ele><time>2026-04-07T08:27:17.79Z</time></trkpt><trkpt lat="38.4978367" lon="16.2778683"><ele>1037.0</ele><time>2026-04-07T08:27:18.79Z</time></trkpt><trkpt lat="38.4978183" lon="16.2777733"><ele>1037.0</ele><time>2026-04-07T08:27:19.79Z</time></trkpt><trkpt lat="38.4978083" lon="16.2776733"><ele>1038.0</ele><time>2026-04-07T08:27:20.79Z</time></trkpt><trkpt lat="38.4977983" lon="16.27758"><ele>1039.0</ele><time>2026-04-07T08:27:21.79Z</time></trkpt><trkpt lat="38.4977817" lon="16.2774867"><ele>1040.0</ele><time>2026-04-07T08:27:22.791Z</time></trkpt><trkpt lat="38.4977633" lon="16.2774017"><ele>1041.0</ele><time>2026-04-07T08:27:23.79Z</time></trkpt><trkpt lat="38.497745" lon="16.27732"><ele>1042.0</ele><time>2026-04-07T08:27:24.791Z</time></trkpt><trkpt lat="38.497725" lon="16.2772317"><ele>1043.0</ele><time>2026-04-07T08:27:25.79Z</time></trkpt><trkpt lat="38.4977033" lon="16.2771483"><ele>1044.0</ele><time>2026-04-07T08:27:26.79Z</time></trkpt><trkpt lat="38.4976767" lon="16.277055"><ele>1044.7142857142858</ele><time>2026-04-07T08:27:27.79Z</time></trkpt><trkpt lat="38.497645" lon="16.276975"><ele>1045.4285714285713</ele><time>2026-04-07T08:27:28.79Z</time></trkpt><trkpt lat="38.4976133" lon="16.2768917"><ele>1046.142857142857</ele><time>2026-04-07T08:27:29.791Z</time></trkpt><trkpt lat="38.4975933" lon="16.2768"><ele>1046.857142857143</ele><time>2026-04-07T08:27:30.79Z</time></trkpt><trkpt lat="38.4975883" lon="16.2767133"><ele>1047.5714285714287</ele><time>2026-04-07T08:27:31.79Z</time></trkpt><trkpt lat="38.4975933" lon="16.27662"><ele>1048.2857142857142</ele><time>2026-04-07T08:27:32.79Z</time></trkpt><trkpt lat="38.4976217" lon="16.276535"><ele>1049.0</ele><time>2026-04-07T08:27:33.79Z</time></trkpt><trkpt lat="38.4976683" lon="16.2764567"><ele>1049.0</ele><time>2026-04-07T08:27:34.79Z</time></trkpt><trkpt lat="38.4977283" lon="16.2763983"><ele>1049.0</ele><time>2026-04-07T08:27:35.79Z</time></trkpt><trkpt lat="38.4977983" lon="16.27635"><ele>1049.0</ele><time>2026-04-07T08:27:36.79Z</time></trkpt><trkpt lat="38.4978717" lon="16.27631"><ele>1049.0</ele><time>2026-04-07T08:27:37.79Z</time></trkpt><trkpt lat="38.49794" lon="16.2762633"><ele>1049.0</ele><time>2026-04-07T08:27:38.79Z</time></trkpt><trkpt lat="38.4980083" lon="16.2762267"><ele>1049.0</ele><time>2026-04-07T08:27:39.79Z</time></trkpt><trkpt lat="38.4980717" lon="16.2761833"><ele>1050.2857142857142</ele><time>2026-04-07T08:27:40.791Z</time></trkpt><trkpt lat="38.498135" lon="16.27616"><ele>1051.5714285714287</ele><time>2026-04-07T08:27:41.79Z</time></trkpt><trkpt lat="38.4982067" lon="16.2761417"><ele>1052.857142857143</ele><time>2026-04-07T08:27:42.79Z</time></trkpt><trkpt lat="38.4982783" lon="16.2761283"><ele>1054.142857142857</ele><time>2026-04-07T08:27:43.79Z</time></trkpt><trkpt lat="38.49835" lon="16.2761133"><ele>1055.4285714285713</ele><time>2026-04-07T08:27:44.79Z</time></trkpt><trkpt lat="38.498425" lon="16.276095"><ele>1056.7142857142858</ele><time>2026-04-07T08:27:45.79Z</time></trkpt><trkpt lat="38.4984983" lon="16.276075"><ele>1058.0</ele><time>2026-04-07T08:27:46.79Z</time></trkpt><trkpt lat="38.4985733" lon="16.2760533"><ele>1058.0</ele><time>2026-04-07T08:27:47.79Z</time></trkpt><trkpt lat="38.4986383" lon="16.2760383"><ele>1058.0</ele><time>2026-04-07T08:27:48.79Z</time></trkpt><trkpt lat="38.498705" lon="16.2760217"><ele>1058.0</ele><time>2026-04-07T08:27:49.79Z</time></trkpt><trkpt lat="38.4987683" lon="16.276005"><ele>1058.0</ele><time>2026-04-07T08:27:50.791Z</time></trkpt><trkpt lat="38.4988467" lon="16.2759733"><ele>1058.0</ele><time>2026-04-07T08:27:51.791Z</time></trkpt><trkpt lat="38.498935" lon="16.2759133"><ele>1058.0</ele><time>2026-04-07T08:27:52.79Z</time></trkpt><trkpt lat="38.49902" lon="16.2758417"><ele>1058.4</ele><time>2026-04-07T08:27:53.791Z</time></trkpt><trkpt lat="38.4991083" lon="16.2757567"><ele>1058.8</ele><time>2026-04-07T08:27:54.79Z</time></trkpt><trkpt lat="38.4991967" lon="16.2756817"><ele>1059.2</ele><time>2026-04-07T08:27:55.791Z</time></trkpt><trkpt lat="38.49929" lon="16.27561"><ele>1059.6</ele><time>2026-04-07T08:27:56.791Z</time></trkpt><trkpt lat="38.4993867" lon="16.275545"><ele>1060.0</ele><time>2026-04-07T08:27:57.79Z</time></trkpt><trkpt lat="38.4994917" lon="16.2755017"><ele>1063.5</ele><time>2026-04-07T08:27:58.791Z</time></trkpt><trkpt lat="38.4996" lon="16.2754683"><ele>1067.0</ele><time>2026-04-07T08:27:59.789Z</time></trkpt><trkpt lat="38.4997133" lon="16.2754517"><ele>1070.5</ele><time>2026-04-07T08:28:00.789Z</time></trkpt><trkpt lat="38.4998283" lon="16.2754367"><ele>1074.0</ele><time>2026-04-07T08:28:01.79Z</time></trkpt><trkpt lat="38.4999533" lon="16.2754233"><ele>1074.0</ele><time>2026-04-07T08:28:02.789Z</time></trkpt><trkpt lat="38.5000617" lon="16.2754017"><ele>1074.0</ele><time>2026-04-07T08:28:03.789Z</time></trkpt><trkpt lat="38.50017" lon="16.2753733"><ele>1074.0</ele><time>2026-04-07T08:28:04.79Z</time></trkpt><trkpt lat="38.50027" lon="16.27535"><ele>1074.0</ele><time>2026-04-07T08:28:05.789Z</time></trkpt><trkpt lat="38.500365" lon="16.2753217"><ele>1074.0</ele><time>2026-04-07T08:28:06.789Z</time></trkpt><trkpt lat="38.5004617" lon="16.2753017"><ele>1076.0</ele><time>2026-04-07T08:28:07.789Z</time></trkpt><trkpt lat="38.500565" lon="16.2752783"><ele>1078.0</ele><time>2026-04-07T08:28:08.789Z</time></trkpt><trkpt lat="38.50067" lon="16.2752483"><ele>1080.0</ele><time>2026-04-07T08:28:09.79Z</time></trkpt><trkpt lat="38.5007833" lon="16.2752183"><ele>1082.0</ele><time>2026-04-07T08:28:10.789Z</time></trkpt><trkpt lat="38.5008983" lon="16.2751933"><ele>1084.0</ele><time>2026-04-07T08:28:11.79Z</time></trkpt><trkpt lat="38.5009817" lon="16.2751767"><ele>1084.0</ele><time>2026-04-07T08:28:12.789Z</time></trkpt><trkpt lat="38.5010917" lon="16.275175"><ele>1084.0</ele><time>2026-04-07T08:28:13.79Z</time></trkpt><trkpt lat="38.50121" lon="16.2751783"><ele>1084.0</ele><time>2026-04-07T08:28:14.79Z</time></trkpt><trkpt lat="38.5013267" lon="16.2751783"><ele>1084.0</ele><time>2026-04-07T08:28:15.789Z</time></trkpt><trkpt lat="38.5014383" lon="16.27518"><ele>1083.0</ele><time>2026-04-07T08:28:16.79Z</time></trkpt><trkpt lat="38.5015583" lon="16.2751867"><ele>1082.0</ele><time>2026-04-07T08:28:17.789Z</time></trkpt><trkpt lat="38.50168" lon="16.2751933"><ele>1081.0</ele><time>2026-04-07T08:28:18.789Z</time></trkpt><trkpt lat="38.5018" lon="16.2751967"><ele>1080.0</ele><time>2026-04-07T08:28:19.789Z</time></trkpt><trkpt lat="38.5019267" lon="16.2751983"><ele>1080.0</ele><time>2026-04-07T08:28:20.789Z</time></trkpt><trkpt lat="38.5020467" lon="16.2752017"><ele>1080.0</ele><time>2026-04-07T08:28:21.789Z</time></trkpt><trkpt lat="38.502175" lon="16.2752117"><ele>1080.0</ele><time>2026-04-07T08:28:22.789Z</time></trkpt><trkpt lat="38.5023017" lon="16.2752067"><ele>1080.0</ele><time>2026-04-07T08:28:23.79Z</time></trkpt><trkpt lat="38.502435" lon="16.2752033"><ele>1081.0</ele><time>2026-04-07T08:28:24.789Z</time></trkpt><trkpt lat="38.5025617" lon="16.2752033"><ele>1082.0</ele><time>2026-04-07T08:28:25.789Z</time></trkpt><trkpt lat="38.50269" lon="16.2752033"><ele>1083.0</ele><time>2026-04-07T08:28:26.79Z</time></trkpt><trkpt lat="38.502815" lon="16.2752"><ele>1084.0</ele><time>2026-04-07T08:28:27.789Z</time></trkpt><trkpt lat="38.5029417" lon="16.2751917"><ele>1086.0</ele><time>2026-04-07T08:28:28.789Z</time></trkpt><trkpt lat="38.5030617" lon="16.275175"><ele>1088.0</ele><time>2026-04-07T08:28:29.789Z</time></trkpt><trkpt lat="38.503175" lon="16.2751567"><ele>1090.0</ele><time>2026-04-07T08:28:30.79Z</time></trkpt><trkpt lat="38.5032883" lon="16.2751433"><ele>1092.0</ele><time>2026-04-07T08:28:31.79Z</time></trkpt><trkpt lat="38.5033917" lon="16.2751283"><ele>1092.0</ele><time>2026-04-07T08:28:32.789Z</time></trkpt><trkpt lat="38.5034767" lon="16.2751117"><ele>1092.0</ele><time>2026-04-07T08:28:33.789Z</time></trkpt><trkpt lat="38.50357" lon="16.27507"><ele>1092.0</ele><time>2026-04-07T08:28:34.789Z</time></trkpt><trkpt lat="38.5036433" lon="16.27502"><ele>1092.0</ele><time>2026-04-07T08:28:35.79Z</time></trkpt><trkpt lat="38.5037083" lon="16.27494"><ele>1092.0</ele><time>2026-04-07T08:28:36.789Z</time></trkpt><trkpt lat="38.5037717" lon="16.274845"><ele>1095.6</ele><time>2026-04-07T08:28:37.79Z</time></trkpt><trkpt lat="38.5038117" lon="16.27474"><ele>1099.2</ele><time>2026-04-07T08:28:38.789Z</time></trkpt><trkpt lat="38.503865" lon="16.27462"><ele>1102.8</ele><time>2026-04-07T08:28:39.79Z</time></trkpt><trkpt lat="38.5039" lon="16.274495"><ele>1106.4</ele><time>2026-04-07T08:28:40.79Z</time></trkpt><trkpt lat="38.5039483" lon="16.2743633"><ele>1110.0</ele><time>2026-04-07T08:28:41.789Z</time></trkpt><trkpt lat="38.5040033" lon="16.274235"><ele>1110.0</ele><time>2026-04-07T08:28:42.789Z</time></trkpt><trkpt lat="38.50406" lon="16.27412"><ele>1110.0</ele><time>2026-04-07T08:28:43.789Z</time></trkpt><trkpt lat="38.5041283" lon="16.2740183"><ele>1110.0</ele><time>2026-04-07T08:28:44.79Z</time></trkpt><trkpt lat="38.5042" lon="16.27392"><ele>1110.0</ele><time>2026-04-07T08:28:45.789Z</time></trkpt><trkpt lat="38.5042717" lon="16.2738383"><ele>1110.0</ele><time>2026-04-07T08:28:46.789Z</time></trkpt><trkpt lat="38.5043567" lon="16.2737617"><ele>1109.4</ele><time>2026-04-07T08:28:47.79Z</time></trkpt><trkpt lat="38.5044517" lon="16.2736983"><ele>1108.8</ele><time>2026-04-07T08:28:48.79Z</time></trkpt><trkpt lat="38.5045467" lon="16.27365"><ele>1108.2</ele><time>2026-04-07T08:28:49.789Z</time></trkpt><trkpt lat="38.5046383" lon="16.2736117"><ele>1107.6</ele><time>2026-04-07T08:28:50.789Z</time></trkpt><trkpt lat="38.5047267" lon="16.2735817"><ele>1107.0</ele><time>2026-04-07T08:28:51.789Z</time></trkpt><trkpt lat="38.5048233" lon="16.27356"><ele>1109.4</ele><time>2026-04-07T08:28:52.789Z</time></trkpt><trkpt lat="38.5049233" lon="16.27354"><ele>1111.8000000000002</ele><time>2026-04-07T08:28:53.79Z</time></trkpt><trkpt lat="38.5050183" lon="16.2735083"><ele>1114.2</ele><time>2026-04-07T08:28:54.789Z</time></trkpt><trkpt lat="38.5051083" lon="16.273485"><ele>1116.6000000000001</ele><time>2026-04-07T08:28:55.79Z</time></trkpt><trkpt lat="38.5052067" lon="16.2734767"><ele>1119.0</ele><time>2026-04-07T08:28:56.789Z</time></trkpt><trkpt lat="38.5052933" lon="16.27345"><ele>1119.0</ele><time>2026-04-07T08:28:57.79Z</time></trkpt><trkpt lat="38.5053883" lon="16.2733933"><ele>1119.0</ele><time>2026-04-07T08:28:58.789Z</time></trkpt><trkpt lat="38.505475" lon="16.2733383"><ele>1119.0</ele><time>2026-04-07T08:28:59.79Z</time></trkpt><trkpt lat="38.5055633" lon="16.2732533"><ele>1119.0</ele><time>2026-04-07T08:29:00.79Z</time></trkpt><trkpt lat="38.5056417" lon="16.2731733"><ele>1119.0</ele><time>2026-04-07T08:29:01.789Z</time></trkpt><trkpt lat="38.5057133" lon="16.27312"><ele>1120.8333333333333</ele><time>2026-04-07T08:29:02.79Z</time></trkpt><trkpt lat="38.505785" lon="16.2730783"><ele>1122.6666666666667</ele><time>2026-04-07T08:29:03.789Z</time></trkpt><trkpt lat="38.5058467" lon="16.2730417"><ele>1124.5</ele><time>2026-04-07T08:29:04.789Z</time></trkpt><trkpt lat="38.5059267" lon="16.273005"><ele>1126.3333333333335</ele><time>2026-04-07T08:29:06.789Z</time></trkpt><trkpt lat="38.5059817" lon="16.272965"><ele>1128.1666666666667</ele><time>2026-04-07T08:30:45.789Z</time></trkpt><trkpt lat="38.5060117" lon="16.2728633"><ele>1130.0</ele><time>2026-04-07T08:30:48.789Z</time></trkpt><trkpt lat="38.5060317" lon="16.2727533"><ele>1129.9999999999998</ele><time>2026-04-07T08:30:51.79Z</time></trkpt><trkpt lat="38.5060467" lon="16.2726683"><ele>1130.0</ele><time>2026-04-07T08:30:53.789Z</time></trkpt><trkpt lat="38.5060667" lon="16.2725733"><ele>1130.0</ele><time>2026-04-07T08:30:56.789Z</time></trkpt><trkpt lat="38.5060917" lon="16.2724883"><ele>1130.0</ele><time>2026-04-07T08:31:00.789Z</time></trkpt><trkpt lat="38.506125" lon="16.2724183"><ele>1130.0</ele><time>2026-04-07T08:31:02.789Z</time></trkpt><trkpt lat="38.5061567" lon="16.2723133"><ele>1129.9999999999998</ele><time>2026-04-07T08:31:04.79Z</time></trkpt><trkpt lat="38.50618" lon="16.2722367"><ele>1130.0</ele><time>2026-04-07T08:31:06.79Z</time></trkpt><trkpt lat="38.50618" lon="16.2721283"><ele>1130.6</ele><time>2026-04-07T08:31:58.789Z</time></trkpt><trkpt lat="38.5061867" lon="16.2719933"><ele>1131.2</ele><time>2026-04-07T08:32:00.79Z</time></trkpt><trkpt lat="38.5062" lon="16.2719033"><ele>1131.8</ele><time>2026-04-07T08:32:01.79Z</time></trkpt><trkpt lat="38.5062183" lon="16.27181"><ele>1132.4</ele><time>2026-04-07T08:32:02.79Z</time></trkpt><trkpt lat="38.5062367" lon="16.2716967"><ele>1133.0</ele><time>2026-04-07T08:32:03.79Z</time></trkpt><trkpt lat="38.5062633" lon="16.27156"><ele>1132.25</ele><time>2026-04-07T08:32:04.789Z</time></trkpt><trkpt lat="38.5062817" lon="16.2714133"><ele>1131.5</ele><time>2026-04-07T08:32:05.789Z</time></trkpt><trkpt lat="38.5063183" lon="16.27122"><ele>1130.75</ele><time>2026-04-07T08:32:06.789Z</time></trkpt><trkpt lat="38.506355" lon="16.271015"><ele>1130.0</ele><time>2026-04-07T08:32:07.789Z</time></trkpt><trkpt lat="38.5063917" lon="16.2708117"><ele>1130.0</ele><time>2026-04-07T08:32:08.79Z</time></trkpt><trkpt lat="38.506425" lon="16.27061"><ele>1130.0</ele><time>2026-04-07T08:32:09.789Z</time></trkpt><trkpt lat="38.5064533" lon="16.2704283"><ele>1130.0</ele><time>2026-04-07T08:32:10.789Z</time></trkpt><trkpt lat="38.506475" lon="16.270295"><ele>1130.0</ele><time>2026-04-07T08:32:11.79Z</time></trkpt><trkpt lat="38.50648" lon="16.2701767"><ele>1130.2</ele><time>2026-04-07T08:32:12.79Z</time></trkpt><trkpt lat="38.5064767" lon="16.27005"><ele>1130.4</ele><time>2026-04-07T08:32:13.789Z</time></trkpt><trkpt lat="38.5064667" lon="16.269925"><ele>1130.6</ele><time>2026-04-07T08:32:14.79Z</time></trkpt><trkpt lat="38.5064433" lon="16.2698133"><ele>1130.8</ele><time>2026-04-07T08:32:15.79Z</time></trkpt><trkpt lat="38.50639" lon="16.2697033"><ele>1131.0</ele><time>2026-04-07T08:32:16.789Z</time></trkpt><trkpt lat="38.5063117" lon="16.2696"><ele>1131.6</ele><time>2026-04-07T08:32:17.789Z</time></trkpt><trkpt lat="38.5062333" lon="16.2695067"><ele>1132.1999999999998</ele><time>2026-04-07T08:32:18.79Z</time></trkpt><trkpt lat="38.5061433" lon="16.2694183"><ele>1132.8000000000002</ele><time>2026-04-07T08:32:19.789Z</time></trkpt><trkpt lat="38.5060533" lon="16.26934"><ele>1133.4</ele><time>2026-04-07T08:32:20.789Z</time></trkpt><trkpt lat="38.5059567" lon="16.2692583"><ele>1134.0</ele><time>2026-04-07T08:32:21.789Z</time></trkpt><trkpt lat="38.50587" lon="16.2691817"><ele>1134.0</ele><time>2026-04-07T08:32:22.79Z</time></trkpt><trkpt lat="38.505785" lon="16.2691067"><ele>1134.0</ele><time>2026-04-07T08:32:23.789Z</time></trkpt><trkpt lat="38.5057117" lon="16.26903"><ele>1134.0</ele><time>2026-04-07T08:32:24.789Z</time></trkpt><trkpt lat="38.505645" lon="16.26895"><ele>1134.0</ele><time>2026-04-07T08:32:25.789Z</time></trkpt><trkpt lat="38.5055883" lon="16.268855"><ele>1134.0</ele><time>2026-04-07T08:32:26.789Z</time></trkpt><trkpt lat="38.5055383" lon="16.268755"><ele>1135.2</ele><time>2026-04-07T08:32:27.789Z</time></trkpt><trkpt lat="38.5055" lon="16.2686583"><ele>1136.4</ele><time>2026-04-07T08:32:28.789Z</time></trkpt><trkpt lat="38.5054683" lon="16.2685383"><ele>1137.6</ele><time>2026-04-07T08:32:29.789Z</time></trkpt><trkpt lat="38.50545" lon="16.26843"><ele>1138.8</ele><time>2026-04-07T08:32:30.789Z</time></trkpt><trkpt lat="38.505465" lon="16.26831"><ele>1140.0</ele><time>2026-04-07T08:32:31.789Z</time></trkpt><trkpt lat="38.5055117" lon="16.2681817"><ele>1140.25</ele><time>2026-04-07T08:32:32.789Z</time></trkpt><trkpt lat="38.5055667" lon="16.2680533"><ele>1140.5</ele><time>2026-04-07T08:32:33.789Z</time></trkpt><trkpt lat="38.5056433" lon="16.2679167"><ele>1140.75</ele><time>2026-04-07T08:32:34.79Z</time></trkpt><trkpt lat="38.5057383" lon="16.2678017"><ele>1141.0</ele><time>2026-04-07T08:32:35.789Z</time></trkpt><trkpt lat="38.505855" lon="16.2677"><ele>1141.0</ele><time>2026-04-07T08:32:36.79Z</time></trkpt><trkpt lat="38.50598" lon="16.2676067"><ele>1141.0</ele><time>2026-04-07T08:32:37.79Z</time></trkpt><trkpt lat="38.5061083" lon="16.2675183"><ele>1141.0</ele><time>2026-04-07T08:32:38.789Z</time></trkpt><trkpt lat="38.5062333" lon="16.26743"><ele>1141.0</ele><time>2026-04-07T08:32:39.79Z</time></trkpt><trkpt lat="38.5063617" lon="16.2673433"><ele>1141.25</ele><time>2026-04-07T08:32:40.789Z</time></trkpt><trkpt lat="38.5064767" lon="16.2672633"><ele>1141.5</ele><time>2026-04-07T08:32:41.79Z</time></trkpt><trkpt lat="38.5065933" lon="16.267175"><ele>1141.75</ele><time>2026-04-07T08:32:42.789Z</time></trkpt><trkpt lat="38.506705" lon="16.2670817"><ele>1142.0</ele><time>2026-04-07T08:32:43.79Z</time></trkpt><trkpt lat="38.50682" lon="16.2669717"><ele>1142.0</ele><time>2026-04-07T08:32:44.79Z</time></trkpt><trkpt lat="38.5069233" lon="16.266855"><ele>1142.0</ele><time>2026-04-07T08:32:45.789Z</time></trkpt><trkpt lat="38.507035" lon="16.2667267"><ele>1142.0</ele><time>2026-04-07T08:32:46.789Z</time></trkpt><trkpt lat="38.507145" lon="16.26659"><ele>1142.0</ele><time>2026-04-07T08:32:47.789Z</time></trkpt><trkpt lat="38.5072517" lon="16.2664567"><ele>1144.0</ele><time>2026-04-07T08:32:48.789Z</time></trkpt><trkpt lat="38.5073517" lon="16.2663117"><ele>1146.0</ele><time>2026-04-07T08:32:49.789Z</time></trkpt><trkpt lat="38.5074583" lon="16.2661667"><ele>1148.0</ele><time>2026-04-07T08:32:50.789Z</time></trkpt><trkpt lat="38.5075783" lon="16.2660183"><ele>1148.0</ele><time>2026-04-07T08:32:51.789Z</time></trkpt><trkpt lat="38.5076817" lon="16.2658717"><ele>1148.0</ele><time>2026-04-07T08:32:52.789Z</time></trkpt><trkpt lat="38.5077817" lon="16.2657217"><ele>1148.0</ele><time>2026-04-07T08:32:53.789Z</time></trkpt><trkpt lat="38.5078717" lon="16.2655733"><ele>1150.0</ele><time>2026-04-07T08:32:54.789Z</time></trkpt><trkpt lat="38.50796" lon="16.2654317"><ele>1152.0</ele><time>2026-04-07T08:32:55.789Z</time></trkpt><trkpt lat="38.50804" lon="16.2652983"><ele>1154.0</ele><time>2026-04-07T08:32:56.789Z</time></trkpt><trkpt lat="38.508115" lon="16.2651767"><ele>1156.0</ele><time>2026-04-07T08:32:57.789Z</time></trkpt><trkpt lat="38.508185" lon="16.2650617"><ele>1156.0</ele><time>2026-04-07T08:32:58.79Z</time></trkpt><trkpt lat="38.5083467" lon="16.264865"><ele>1156.0</ele><time>2026-04-07T08:33:00.789Z</time></trkpt><trkpt lat="38.5084433" lon="16.2647883"><ele>1156.0</ele><time>2026-04-07T08:33:01.789Z</time></trkpt><trkpt lat="38.5085417" lon="16.264705"><ele>1156.6</ele><time>2026-04-07T08:33:02.79Z</time></trkpt><trkpt lat="38.5086333" lon="16.2646233"><ele>1157.1999999999998</ele><time>2026-04-07T08:33:03.789Z</time></trkpt><trkpt lat="38.5087217" lon="16.26454"><ele>1157.8000000000002</ele><time>2026-04-07T08:33:04.789Z</time></trkpt><trkpt lat="38.5087917" lon="16.2644467"><ele>1158.4</ele><time>2026-04-07T08:33:05.789Z</time></trkpt><trkpt lat="38.5088333" lon="16.26435"><ele>1159.0</ele><time>2026-04-07T08:33:06.789Z</time></trkpt><trkpt lat="38.5088483" lon="16.26425"><ele>1159.0</ele><time>2026-04-07T08:33:07.789Z</time></trkpt><trkpt lat="38.5088433" lon="16.2641583"><ele>1159.0</ele><time>2026-04-07T08:33:08.79Z</time></trkpt><trkpt lat="38.5088" lon="16.2640833"><ele>1159.0</ele><time>2026-04-07T08:33:09.789Z</time></trkpt><trkpt lat="38.5087233" lon="16.26402"><ele>1159.0</ele><time>2026-04-07T08:33:10.789Z</time></trkpt><trkpt lat="38.5086233" lon="16.2639617"><ele>1159.0</ele><time>2026-04-07T08:33:11.789Z</time></trkpt><trkpt lat="38.5085183" lon="16.2638983"><ele>1161.25</ele><time>2026-04-07T08:33:12.789Z</time></trkpt><trkpt lat="38.5084133" lon="16.26381"><ele>1163.5</ele><time>2026-04-07T08:33:13.79Z</time></trkpt><trkpt lat="38.5083167" lon="16.263715"><ele>1165.75</ele><time>2026-04-07T08:33:14.789Z</time></trkpt><trkpt lat="38.5082367" lon="16.263625"><ele>1168.0</ele><time>2026-04-07T08:33:15.79Z</time></trkpt><trkpt lat="38.5081683" lon="16.2635317"><ele>1168.0</ele><time>2026-04-07T08:33:16.79Z</time></trkpt><trkpt lat="38.508105" lon="16.2634367"><ele>1168.0</ele><time>2026-04-07T08:33:17.79Z</time></trkpt><trkpt lat="38.5080717" lon="16.2633383"><ele>1168.0</ele><time>2026-04-07T08:33:18.789Z</time></trkpt><trkpt lat="38.5080633" lon="16.2632583"><ele>1168.0</ele><time>2026-04-07T08:33:19.789Z</time></trkpt><trkpt lat="38.5081217" lon="16.263115"><ele>1168.0</ele><time>2026-04-07T08:33:21.789Z</time></trkpt><trkpt lat="38.508165" lon="16.26304"><ele>1168.0</ele><time>2026-04-07T08:33:22.789Z</time></trkpt><trkpt lat="38.5082783" lon="16.262975"><ele>1167.75</ele><time>2026-04-07T08:33:23.789Z</time></trkpt><trkpt lat="38.50837" lon="16.2629017"><ele>1167.5</ele><time>2026-04-07T08:33:24.789Z</time></trkpt><trkpt lat="38.5084933" lon="16.2628483"><ele>1167.25</ele><time>2026-04-07T08:33:25.79Z</time></trkpt><trkpt lat="38.5086033" lon="16.26279"><ele>1167.0</ele><time>2026-04-07T08:33:26.79Z</time></trkpt><trkpt lat="38.508725" lon="16.2627367"><ele>1169.0</ele><time>2026-04-07T08:33:27.789Z</time></trkpt><trkpt lat="38.508835" lon="16.2626817"><ele>1171.0</ele><time>2026-04-07T08:33:28.789Z</time></trkpt><trkpt lat="38.5089017" lon="16.26264"><ele>1173.0</ele><time>2026-04-07T08:33:29.79Z</time></trkpt><trkpt lat="38.508985" lon="16.262565"><ele>1175.0</ele><time>2026-04-07T08:33:30.789Z</time></trkpt><trkpt lat="38.50906" lon="16.2624683"><ele>1177.0</ele><time>2026-04-07T08:33:31.789Z</time></trkpt><trkpt lat="38.50912" lon="16.2623683"><ele>1177.0</ele><time>2026-04-07T08:33:32.789Z</time></trkpt><trkpt lat="38.5091133" lon="16.2622483"><ele>1177.0</ele><time>2026-04-07T08:33:33.79Z</time></trkpt><trkpt lat="38.509095" lon="16.2621417"><ele>1177.0</ele><time>2026-04-07T08:33:34.789Z</time></trkpt><trkpt lat="38.50909" lon="16.262035"><ele>1177.0</ele><time>2026-04-07T08:33:35.789Z</time></trkpt><trkpt lat="38.5090883" lon="16.2619033"><ele>1177.0</ele><time>2026-04-07T08:33:36.79Z</time></trkpt><trkpt lat="38.5090783" lon="16.2617783"><ele>1177.0</ele><time>2026-04-07T08:33:37.789Z</time></trkpt><trkpt lat="38.5090717" lon="16.2616633"><ele>1177.0</ele><time>2026-04-07T08:33:38.789Z</time></trkpt><trkpt lat="38.5090533" lon="16.26153"><ele>1177.0</ele><time>2026-04-07T08:33:39.79Z</time></trkpt><trkpt lat="38.5090283" lon="16.2613983"><ele>1177.0</ele><time>2026-04-07T08:33:40.789Z</time></trkpt><trkpt lat="38.5090067" lon="16.2612483"><ele>1177.0</ele><time>2026-04-07T08:33:41.79Z</time></trkpt><trkpt lat="38.5089767" lon="16.2611367"><ele>1177.75</ele><time>2026-04-07T08:33:42.789Z</time></trkpt><trkpt lat="38.5089183" lon="16.2610083"><ele>1178.5</ele><time>2026-04-07T08:33:43.79Z</time></trkpt><trkpt lat="38.5088383" lon="16.26089"><ele>1179.25</ele><time>2026-04-07T08:33:44.789Z</time></trkpt><trkpt lat="38.5087583" lon="16.2607933"><ele>1180.0</ele><time>2026-04-07T08:33:45.79Z</time></trkpt><trkpt lat="38.5086683" lon="16.260695"><ele>1180.25</ele><time>2026-04-07T08:33:46.789Z</time></trkpt><trkpt lat="38.5085767" lon="16.2606083"><ele>1180.5</ele><time>2026-04-07T08:33:47.79Z</time></trkpt><trkpt lat="38.5084783" lon="16.2605217"><ele>1180.75</ele><time>2026-04-07T08:33:48.79Z</time></trkpt><trkpt lat="38.5083817" lon="16.2604283"><ele>1181.0</ele><time>2026-04-07T08:33:49.789Z</time></trkpt><trkpt lat="38.50828" lon="16.2603383"><ele>1181.0</ele><time>2026-04-07T08:33:50.789Z</time></trkpt><trkpt lat="38.5081767" lon="16.2602383"><ele>1181.0</ele><time>2026-04-07T08:33:51.789Z</time></trkpt><trkpt lat="38.5080583" lon="16.26011"><ele>1181.0</ele><time>2026-04-07T08:33:52.79Z</time></trkpt><trkpt lat="38.50795" lon="16.25999"><ele>1181.0</ele><time>2026-04-07T08:33:53.789Z</time></trkpt><trkpt lat="38.5078433" lon="16.2598767"><ele>1181.0</ele><time>2026-04-07T08:33:54.789Z</time></trkpt><trkpt lat="38.5077317" lon="16.2597617"><ele>1181.0</ele><time>2026-04-07T08:33:55.789Z</time></trkpt><trkpt lat="38.507625" lon="16.2596417"><ele>1181.0</ele><time>2026-04-07T08:33:56.79Z</time></trkpt><trkpt lat="38.50752" lon="16.259535"><ele>1181.0</ele><time>2026-04-07T08:33:57.79Z</time></trkpt><trkpt lat="38.50742" lon="16.259435"><ele>1181.0</ele><time>2026-04-07T08:33:58.789Z</time></trkpt><trkpt lat="38.5073183" lon="16.2593217"><ele>1181.0</ele><time>2026-04-07T08:33:59.789Z</time></trkpt><trkpt lat="38.5072167" lon="16.25921"><ele>1181.0</ele><time>2026-04-07T08:34:00.789Z</time></trkpt><trkpt lat="38.5071167" lon="16.25911"><ele>1181.0</ele><time>2026-04-07T08:34:01.789Z</time></trkpt><trkpt lat="38.5070317" lon="16.2590317"><ele>1181.0</ele><time>2026-04-07T08:34:02.789Z</time></trkpt><trkpt lat="38.5069517" lon="16.2589533"><ele>1181.0</ele><time>2026-04-07T08:34:03.789Z</time></trkpt><trkpt lat="38.506875" lon="16.2588783"><ele>1181.0</ele><time>2026-04-07T08:34:04.79Z</time></trkpt><trkpt lat="38.5067983" lon="16.2588017"><ele>1181.0</ele><time>2026-04-07T08:34:05.789Z</time></trkpt><trkpt lat="38.5067183" lon="16.2587267"><ele>1181.0</ele><time>2026-04-07T08:34:06.79Z</time></trkpt><trkpt lat="38.50663" lon="16.2586433"><ele>1180.8</ele><time>2026-04-07T08:34:07.79Z</time></trkpt><trkpt lat="38.506555" lon="16.25856"><ele>1180.6</ele><time>2026-04-07T08:34:08.79Z</time></trkpt><trkpt lat="38.5064883" lon="16.2584667"><ele>1180.4</ele><time>2026-04-07T08:34:09.789Z</time></trkpt><trkpt lat="38.5064217" lon="16.25837"><ele>1180.2</ele><time>2026-04-07T08:34:10.79Z</time></trkpt><trkpt lat="38.5063667" lon="16.2582617"><ele>1180.0</ele><time>2026-04-07T08:34:11.79Z</time></trkpt><trkpt lat="38.50632" lon="16.2581383"><ele>1179.0</ele><time>2026-04-07T08:34:12.789Z</time></trkpt><trkpt lat="38.5062783" lon="16.2580033"><ele>1178.0</ele><time>2026-04-07T08:34:13.79Z</time></trkpt><trkpt lat="38.5062567" lon="16.257855"><ele>1177.0</ele><time>2026-04-07T08:34:14.789Z</time></trkpt><trkpt lat="38.5062583" lon="16.2576967"><ele>1176.0</ele><time>2026-04-07T08:34:15.789Z</time></trkpt><trkpt lat="38.5062817" lon="16.2575383"><ele>1176.0</ele><time>2026-04-07T08:34:16.79Z</time></trkpt><trkpt lat="38.5063267" lon="16.2573883"><ele>1176.0</ele><time>2026-04-07T08:34:17.789Z</time></trkpt><trkpt lat="38.5063833" lon="16.2572283"><ele>1176.0</ele><time>2026-04-07T08:34:18.79Z</time></trkpt><trkpt lat="38.5064383" lon="16.2570883"><ele>1176.0</ele><time>2026-04-07T08:34:19.789Z</time></trkpt><trkpt lat="38.5064983" lon="16.2569617"><ele>1175.5</ele><time>2026-04-07T08:34:20.789Z</time></trkpt><trkpt lat="38.5065733" lon="16.2568367"><ele>1175.0</ele><time>2026-04-07T08:34:21.79Z</time></trkpt><trkpt lat="38.506665" lon="16.256715"><ele>1174.5</ele><time>2026-04-07T08:34:22.789Z</time></trkpt><trkpt lat="38.50676" lon="16.2565983"><ele>1174.0</ele><time>2026-04-07T08:34:23.789Z</time></trkpt><trkpt lat="38.50685" lon="16.256495"><ele>1173.75</ele><time>2026-04-07T08:34:24.789Z</time></trkpt><trkpt lat="38.5069467" lon="16.256405"><ele>1173.5</ele><time>2026-04-07T08:34:25.789Z</time></trkpt><trkpt lat="38.5070433" lon="16.256295"><ele>1173.25</ele><time>2026-04-07T08:34:26.79Z</time></trkpt><trkpt lat="38.5071683" lon="16.256195"><ele>1173.0</ele><time>2026-04-07T08:34:27.79Z</time></trkpt><trkpt lat="38.5072667" lon="16.256105"><ele>1173.0</ele><time>2026-04-07T08:34:28.79Z</time></trkpt><trkpt lat="38.507385" lon="16.2559967"><ele>1173.0</ele><time>2026-04-07T08:34:29.789Z</time></trkpt><trkpt lat="38.5074933" lon="16.255905"><ele>1173.0</ele><time>2026-04-07T08:34:30.789Z</time></trkpt><trkpt lat="38.5075983" lon="16.2558183"><ele>1173.0</ele><time>2026-04-07T08:34:31.79Z</time></trkpt><trkpt lat="38.5076867" lon="16.25575"><ele>1173.0</ele><time>2026-04-07T08:34:32.789Z</time></trkpt><trkpt lat="38.5077583" lon="16.255665"><ele>1173.0</ele><time>2026-04-07T08:34:33.789Z</time></trkpt><trkpt lat="38.5078083" lon="16.255565"><ele>1173.0</ele><time>2026-04-07T08:34:34.789Z</time></trkpt><trkpt lat="38.507845" lon="16.2554633"><ele>1173.0</ele><time>2026-04-07T08:34:35.79Z</time></trkpt><trkpt lat="38.5078833" lon="16.2553483"><ele>1173.0</ele><time>2026-04-07T08:34:36.79Z</time></trkpt><trkpt lat="38.5079067" lon="16.2552033"><ele>1172.5</ele><time>2026-04-07T08:34:37.789Z</time></trkpt><trkpt lat="38.50791" lon="16.25505"><ele>1172.0</ele><time>2026-04-07T08:34:38.79Z</time></trkpt><trkpt lat="38.5079083" lon="16.2548883"><ele>1171.5</ele><time>2026-04-07T08:34:39.789Z</time></trkpt><trkpt lat="38.5078983" lon="16.2547317"><ele>1171.0</ele><time>2026-04-07T08:34:40.789Z</time></trkpt><trkpt lat="38.507885" lon="16.2545733"><ele>1170.75</ele><time>2026-04-07T08:34:41.789Z</time></trkpt><trkpt lat="38.50788" lon="16.2544133"><ele>1170.5</ele><time>2026-04-07T08:34:42.79Z</time></trkpt><trkpt lat="38.5078817" lon="16.25425"><ele>1170.25</ele><time>2026-04-07T08:34:43.789Z</time></trkpt><trkpt lat="38.5078967" lon="16.2540933"><ele>1170.0</ele><time>2026-04-07T08:34:44.789Z</time></trkpt><trkpt lat="38.5079233" lon="16.2539383"><ele>1171.5</ele><time>2026-04-07T08:34:45.789Z</time></trkpt><trkpt lat="38.507965" lon="16.2537867"><ele>1173.0</ele><time>2026-04-07T08:34:46.79Z</time></trkpt><trkpt lat="38.5080017" lon="16.25363"><ele>1174.5</ele><time>2026-04-07T08:34:47.789Z</time></trkpt><trkpt lat="38.5080367" lon="16.2534867"><ele>1176.0</ele><time>2026-04-07T08:34:48.789Z</time></trkpt><trkpt lat="38.5080633" lon="16.253365"><ele>1176.0</ele><time>2026-04-07T08:34:49.789Z</time></trkpt><trkpt lat="38.5080817" lon="16.25325"><ele>1176.0</ele><time>2026-04-07T08:34:50.789Z</time></trkpt><trkpt lat="38.508085" lon="16.25315"><ele>1176.0</ele><time>2026-04-07T08:34:51.789Z</time></trkpt><trkpt lat="38.5080783" lon="16.2529867"><ele>1176.0</ele><time>2026-04-07T08:34:53.789Z</time></trkpt><trkpt lat="38.5080567" lon="16.25291"><ele>1176.0</ele><time>2026-04-07T08:34:54.789Z</time></trkpt><trkpt lat="38.50802" lon="16.252825"><ele>1176.0</ele><time>2026-04-07T08:34:55.789Z</time></trkpt><trkpt lat="38.5079783" lon="16.25273"><ele>1176.6</ele><time>2026-04-07T08:34:56.79Z</time></trkpt><trkpt lat="38.5079367" lon="16.252635"><ele>1177.1999999999998</ele><time>2026-04-07T08:34:57.789Z</time></trkpt><trkpt lat="38.5078833" lon="16.2525233"><ele>1177.8000000000002</ele><time>2026-04-07T08:34:58.789Z</time></trkpt><trkpt lat="38.507825" lon="16.2524"><ele>1178.4</ele><time>2026-04-07T08:34:59.789Z</time></trkpt><trkpt lat="38.5077733" lon="16.25228"><ele>1179.0</ele><time>2026-04-07T08:35:00.789Z</time></trkpt><trkpt lat="38.5077233" lon="16.25216"><ele>1177.6000000000001</ele><time>2026-04-07T08:35:01.79Z</time></trkpt><trkpt lat="38.5076783" lon="16.2520383"><ele>1176.2</ele><time>2026-04-07T08:35:02.789Z</time></trkpt><trkpt lat="38.50764" lon="16.251915"><ele>1174.8000000000002</ele><time>2026-04-07T08:35:03.789Z</time></trkpt><trkpt lat="38.5076017" lon="16.2517817"><ele>1173.4</ele><time>2026-04-07T08:35:04.789Z</time></trkpt><trkpt lat="38.507575" lon="16.2516317"><ele>1172.0</ele><time>2026-04-07T08:35:05.789Z</time></trkpt><trkpt lat="38.50757" lon="16.2514617"><ele>1173.25</ele><time>2026-04-07T08:35:06.789Z</time></trkpt><trkpt lat="38.50757" lon="16.251285"><ele>1174.5</ele><time>2026-04-07T08:35:07.79Z</time></trkpt><trkpt lat="38.5075667" lon="16.2511167"><ele>1175.75</ele><time>2026-04-07T08:35:08.79Z</time></trkpt><trkpt lat="38.507575" lon="16.25096"><ele>1177.0</ele><time>2026-04-07T08:35:09.789Z</time></trkpt><trkpt lat="38.5076" lon="16.2508233"><ele>1177.0</ele><time>2026-04-07T08:35:10.789Z</time></trkpt><trkpt lat="38.50763" lon="16.25069"><ele>1177.0</ele><time>2026-04-07T08:35:11.789Z</time></trkpt><trkpt lat="38.507675" lon="16.25057"><ele>1177.0</ele><time>2026-04-07T08:35:12.789Z</time></trkpt><trkpt lat="38.5077283" lon="16.250465"><ele>1177.0</ele><time>2026-04-07T08:35:13.789Z</time></trkpt><trkpt lat="38.50779" lon="16.2503667"><ele>1177.0</ele><time>2026-04-07T08:35:14.789Z</time></trkpt><trkpt lat="38.50786" lon="16.2502817"><ele>1177.0</ele><time>2026-04-07T08:35:15.789Z</time></trkpt><trkpt lat="38.507935" lon="16.250175"><ele>1177.0</ele><time>2026-04-07T08:35:16.789Z</time></trkpt><trkpt lat="38.50801" lon="16.2500567"><ele>1177.0</ele><time>2026-04-07T08:35:17.789Z</time></trkpt><trkpt lat="38.508085" lon="16.2499217"><ele>1177.0</ele><time>2026-04-07T08:35:18.789Z</time></trkpt><trkpt lat="38.508145" lon="16.2497817"><ele>1177.0</ele><time>2026-04-07T08:35:19.789Z</time></trkpt><trkpt lat="38.5081817" lon="16.2496517"><ele>1177.0</ele><time>2026-04-07T08:35:20.789Z</time></trkpt><trkpt lat="38.508195" lon="16.2495483"><ele>1177.0</ele><time>2026-04-07T08:35:21.79Z</time></trkpt><trkpt lat="38.5081967" lon="16.24945"><ele>1177.0</ele><time>2026-04-07T08:35:22.79Z</time></trkpt><trkpt lat="38.5081733" lon="16.2493567"><ele>1177.0</ele><time>2026-04-07T08:35:23.79Z</time></trkpt><trkpt lat="38.50813" lon="16.2492767"><ele>1177.0</ele><time>2026-04-07T08:35:24.79Z</time></trkpt><trkpt lat="38.5080633" lon="16.2492133"><ele>1177.0</ele><time>2026-04-07T08:35:25.79Z</time></trkpt><trkpt lat="38.5079583" lon="16.249155"><ele>1177.0</ele><time>2026-04-07T08:35:26.789Z</time></trkpt><trkpt lat="38.5078317" lon="16.2491283"><ele>1177.0</ele><time>2026-04-07T08:35:27.789Z</time></trkpt><trkpt lat="38.507685" lon="16.249125"><ele>1177.0</ele><time>2026-04-07T08:35:28.79Z</time></trkpt><trkpt lat="38.5075233" lon="16.2491117"><ele>1179.6666666666665</ele><time>2026-04-07T08:35:29.789Z</time></trkpt><trkpt lat="38.507345" lon="16.24906"><ele>1182.3333333333333</ele><time>2026-04-07T08:35:30.789Z</time></trkpt><trkpt lat="38.507195" lon="16.249025"><ele>1185.0</ele><time>2026-04-07T08:35:31.789Z</time></trkpt><trkpt lat="38.5070617" lon="16.2489733"><ele>1185.5</ele><time>2026-04-07T08:35:32.789Z</time></trkpt><trkpt lat="38.5069267" lon="16.24893"><ele>1186.0</ele><time>2026-04-07T08:35:33.79Z</time></trkpt><trkpt lat="38.5067983" lon="16.2488833"><ele>1186.5</ele><time>2026-04-07T08:35:34.789Z</time></trkpt><trkpt lat="38.5066633" lon="16.2488267"><ele>1187.0</ele><time>2026-04-07T08:35:35.789Z</time></trkpt><trkpt lat="38.5065267" lon="16.24877"><ele>1187.0</ele><time>2026-04-07T08:35:36.79Z</time></trkpt><trkpt lat="38.50637" lon="16.2487"><ele>1187.0</ele><time>2026-04-07T08:35:37.789Z</time></trkpt><trkpt lat="38.5062217" lon="16.2486333"><ele>1187.0</ele><time>2026-04-07T08:35:38.789Z</time></trkpt><trkpt lat="38.5060833" lon="16.2485717"><ele>1188.25</ele><time>2026-04-07T08:35:39.79Z</time></trkpt><trkpt lat="38.5059467" lon="16.2485133"><ele>1189.5</ele><time>2026-04-07T08:35:40.79Z</time></trkpt><trkpt lat="38.505815" lon="16.24845"><ele>1190.75</ele><time>2026-04-07T08:35:41.789Z</time></trkpt><trkpt lat="38.5057017" lon="16.2483883"><ele>1192.0</ele><time>2026-04-07T08:35:42.789Z</time></trkpt><trkpt lat="38.5056167" lon="16.2483383"><ele>1192.0</ele><time>2026-04-07T08:35:43.789Z</time></trkpt><trkpt lat="38.5055233" lon="16.24829"><ele>1192.0</ele><time>2026-04-07T08:35:44.79Z</time></trkpt><trkpt lat="38.505435" lon="16.24824"><ele>1192.0</ele><time>2026-04-07T08:35:45.789Z</time></trkpt><trkpt lat="38.505345" lon="16.2481933"><ele>1192.0</ele><time>2026-04-07T08:35:46.79Z</time></trkpt><trkpt lat="38.5052567" lon="16.24815"><ele>1192.0</ele><time>2026-04-07T08:35:47.79Z</time></trkpt><trkpt lat="38.5051717" lon="16.2481083"><ele>1191.8</ele><time>2026-04-07T08:35:48.79Z</time></trkpt><trkpt lat="38.5050767" lon="16.248065"><ele>1191.6</ele><time>2026-04-07T08:35:49.789Z</time></trkpt><trkpt lat="38.5049683" lon="16.24801"><ele>1191.3999999999999</ele><time>2026-04-07T08:35:50.79Z</time></trkpt><trkpt lat="38.50487" lon="16.247965"><ele>1191.2</ele><time>2026-04-07T08:35:51.789Z</time></trkpt><trkpt lat="38.50477" lon="16.2479333"><ele>1191.0</ele><time>2026-04-07T08:35:52.789Z</time></trkpt><trkpt lat="38.5046667" lon="16.2479233"><ele>1190.8</ele><time>2026-04-07T08:35:53.789Z</time></trkpt><trkpt lat="38.504545" lon="16.2479117"><ele>1190.6</ele><time>2026-04-07T08:35:54.789Z</time></trkpt><trkpt lat="38.504435" lon="16.247945"><ele>1190.4</ele><time>2026-04-07T08:35:55.789Z</time></trkpt><trkpt lat="38.504345" lon="16.2479767"><ele>1190.2</ele><time>2026-04-07T08:35:56.79Z</time></trkpt><trkpt lat="38.50424" lon="16.2480267"><ele>1190.0</ele><time>2026-04-07T08:35:57.79Z</time></trkpt><trkpt lat="38.5041433" lon="16.2480917"><ele>1190.0</ele><time>2026-04-07T08:35:58.789Z</time></trkpt><trkpt lat="38.50404" lon="16.2481733"><ele>1190.0</ele><time>2026-04-07T08:35:59.789Z</time></trkpt><trkpt lat="38.5039333" lon="16.2482533"><ele>1190.0</ele><time>2026-04-07T08:36:00.789Z</time></trkpt><trkpt lat="38.50383" lon="16.2483367"><ele>1190.0</ele><time>2026-04-07T08:36:01.789Z</time></trkpt><trkpt lat="38.50372" lon="16.2483967"><ele>1190.0</ele><time>2026-04-07T08:36:02.79Z</time></trkpt><trkpt lat="38.5036" lon="16.2484317"><ele>1190.0</ele><time>2026-04-07T08:36:03.789Z</time></trkpt><trkpt lat="38.5034983" lon="16.2484533"><ele>1190.0</ele><time>2026-04-07T08:36:04.789Z</time></trkpt><trkpt lat="38.5034117" lon="16.248465"><ele>1190.0</ele><time>2026-04-07T08:36:05.79Z</time></trkpt><trkpt lat="38.503335" lon="16.2484817"><ele>1190.0</ele><time>2026-04-07T08:36:06.789Z</time></trkpt><trkpt lat="38.503265" lon="16.2485033"><ele>1190.0</ele><time>2026-04-07T08:36:07.79Z</time></trkpt><trkpt lat="38.5031467" lon="16.2485533"><ele>1190.0</ele><time>2026-04-07T08:36:09.79Z</time></trkpt><trkpt lat="38.5030133" lon="16.2485633"><ele>1190.0</ele><time>2026-04-07T08:36:11.789Z</time></trkpt><trkpt lat="38.5029383" lon="16.2485517"><ele>1190.0</ele><time>2026-04-07T08:36:12.789Z</time></trkpt><trkpt lat="38.5028567" lon="16.2485167"><ele>1190.0</ele><time>2026-04-07T08:36:13.789Z</time></trkpt><trkpt lat="38.502775" lon="16.2484433"><ele>1190.2</ele><time>2026-04-07T08:36:14.789Z</time></trkpt><trkpt lat="38.5026917" lon="16.2483517"><ele>1190.4</ele><time>2026-04-07T08:36:15.79Z</time></trkpt><trkpt lat="38.5026217" lon="16.2482467"><ele>1190.6</ele><time>2026-04-07T08:36:16.79Z</time></trkpt><trkpt lat="38.5025667" lon="16.24812"><ele>1190.8</ele><time>2026-04-07T08:36:17.789Z</time></trkpt><trkpt lat="38.502525" lon="16.2479833"><ele>1191.0</ele><time>2026-04-07T08:36:18.789Z</time></trkpt><trkpt lat="38.5024767" lon="16.2478533"><ele>1192.0</ele><time>2026-04-07T08:36:19.789Z</time></trkpt><trkpt lat="38.5024133" lon="16.24771"><ele>1193.0</ele><time>2026-04-07T08:36:20.789Z</time></trkpt><trkpt lat="38.502345" lon="16.2475567"><ele>1194.0</ele><time>2026-04-07T08:36:21.79Z</time></trkpt><trkpt lat="38.5022717" lon="16.2474117"><ele>1195.0</ele><time>2026-04-07T08:36:22.789Z</time></trkpt><trkpt lat="38.502185" lon="16.2472617"><ele>1195.25</ele><time>2026-04-07T08:36:23.789Z</time></trkpt><trkpt lat="38.5020967" lon="16.2471183"><ele>1195.5</ele><time>2026-04-07T08:36:24.789Z</time></trkpt><trkpt lat="38.50201" lon="16.2469833"><ele>1195.75</ele><time>2026-04-07T08:36:25.79Z</time></trkpt><trkpt lat="38.5019183" lon="16.2468533"><ele>1196.0</ele><time>2026-04-07T08:36:26.789Z</time></trkpt><trkpt lat="38.501825" lon="16.2467333"><ele>1195.75</ele><time>2026-04-07T08:36:27.789Z</time></trkpt><trkpt lat="38.5017317" lon="16.2466117"><ele>1195.5</ele><time>2026-04-07T08:36:28.79Z</time></trkpt><trkpt lat="38.50161" lon="16.24648"><ele>1195.25</ele><time>2026-04-07T08:36:29.79Z</time></trkpt><trkpt lat="38.5015083" lon="16.24637"><ele>1195.0</ele><time>2026-04-07T08:36:30.79Z</time></trkpt><trkpt lat="38.5013933" lon="16.2462567"><ele>1195.0</ele><time>2026-04-07T08:36:31.789Z</time></trkpt><trkpt lat="38.501275" lon="16.24614"><ele>1195.0</ele><time>2026-04-07T08:36:32.789Z</time></trkpt><trkpt lat="38.50116" lon="16.2460117"><ele>1195.0</ele><time>2026-04-07T08:36:33.789Z</time></trkpt><trkpt lat="38.5010333" lon="16.245875"><ele>1194.0</ele><time>2026-04-07T08:36:34.789Z</time></trkpt><trkpt lat="38.5008133" lon="16.2456233"><ele>1193.0</ele><time>2026-04-07T08:36:36.79Z</time></trkpt><trkpt lat="38.5007017" lon="16.2455017"><ele>1192.0</ele><time>2026-04-07T08:36:37.789Z</time></trkpt><trkpt lat="38.500585" lon="16.2453917"><ele>1192.0</ele><time>2026-04-07T08:36:38.79Z</time></trkpt><trkpt lat="38.500455" lon="16.245295"><ele>1192.0</ele><time>2026-04-07T08:36:39.789Z</time></trkpt><trkpt lat="38.5003317" lon="16.245205"><ele>1192.0</ele><time>2026-04-07T08:36:40.789Z</time></trkpt><trkpt lat="38.5002133" lon="16.2451317"><ele>1192.0</ele><time>2026-04-07T08:36:41.789Z</time></trkpt><trkpt lat="38.5001" lon="16.24507"><ele>1193.25</ele><time>2026-04-07T08:36:42.789Z</time></trkpt><trkpt lat="38.4999867" lon="16.2450133"><ele>1194.5</ele><time>2026-04-07T08:36:43.789Z</time></trkpt><trkpt lat="38.4998733" lon="16.2449883"><ele>1195.75</ele><time>2026-04-07T08:36:44.789Z</time></trkpt><trkpt lat="38.4997483" lon="16.2449667"><ele>1197.0</ele><time>2026-04-07T08:36:45.789Z</time></trkpt><trkpt lat="38.4996267" lon="16.2449733"><ele>1197.75</ele><time>2026-04-07T08:36:46.79Z</time></trkpt><trkpt lat="38.4995033" lon="16.2449883"><ele>1198.5</ele><time>2026-04-07T08:36:47.789Z</time></trkpt><trkpt lat="38.4993767" lon="16.2450117"><ele>1199.25</ele><time>2026-04-07T08:36:48.789Z</time></trkpt><trkpt lat="38.4992433" lon="16.2450383"><ele>1200.0</ele><time>2026-04-07T08:36:49.789Z</time></trkpt><trkpt lat="38.49913" lon="16.2450567"><ele>1200.0</ele><time>2026-04-07T08:36:50.789Z</time></trkpt><trkpt lat="38.4990333" lon="16.2450633"><ele>1200.0</ele><time>2026-04-07T08:36:51.789Z</time></trkpt><trkpt lat="38.4989483" lon="16.2450717"><ele>1200.0</ele><time>2026-04-07T08:36:52.789Z</time></trkpt><trkpt lat="38.4988567" lon="16.2450783"><ele>1200.0</ele><time>2026-04-07T08:36:53.789Z</time></trkpt><trkpt lat="38.4986683" lon="16.2450667"><ele>1200.1666666666667</ele><time>2026-04-07T08:36:55.789Z</time></trkpt><trkpt lat="38.4985717" lon="16.2450467"><ele>1200.3333333333333</ele><time>2026-04-07T08:36:56.789Z</time></trkpt><trkpt lat="38.498475" lon="16.2450233"><ele>1200.5</ele><time>2026-04-07T08:36:57.789Z</time></trkpt><trkpt lat="38.4983883" lon="16.2450017"><ele>1200.6666666666665</ele><time>2026-04-07T08:36:58.79Z</time></trkpt><trkpt lat="38.49831" lon="16.2449767"><ele>1200.8333333333333</ele><time>2026-04-07T08:36:59.789Z</time></trkpt><trkpt lat="38.4982483" lon="16.2449483"><ele>1201.0</ele><time>2026-04-07T08:37:00.789Z</time></trkpt><trkpt lat="38.4981367" lon="16.24488"><ele>1201.0</ele><time>2026-04-07T08:37:02.789Z</time></trkpt><trkpt lat="38.4980783" lon="16.244825"><ele>1201.0</ele><time>2026-04-07T08:37:03.789Z</time></trkpt><trkpt lat="38.49801" lon="16.24475"><ele>1201.0</ele><time>2026-04-07T08:37:04.789Z</time></trkpt><trkpt lat="38.4979417" lon="16.2446617"><ele>1201.0</ele><time>2026-04-07T08:37:05.789Z</time></trkpt><trkpt lat="38.4978667" lon="16.2445617"><ele>1201.0</ele><time>2026-04-07T08:37:06.789Z</time></trkpt><trkpt lat="38.4977817" lon="16.244455"><ele>1203.0</ele><time>2026-04-07T08:37:07.789Z</time></trkpt><trkpt lat="38.4976883" lon="16.24434"><ele>1205.0</ele><time>2026-04-07T08:37:08.789Z</time></trkpt><trkpt lat="38.4975733" lon="16.2442133"><ele>1207.0</ele><time>2026-04-07T08:37:09.79Z</time></trkpt><trkpt lat="38.497455" lon="16.24409"><ele>1209.0</ele><time>2026-04-07T08:37:10.789Z</time></trkpt><trkpt lat="38.4973117" lon="16.243995"><ele>1207.6666666666667</ele><time>2026-04-07T08:37:11.79Z</time></trkpt><trkpt lat="38.497155" lon="16.2439033"><ele>1206.3333333333335</ele><time>2026-04-07T08:37:12.79Z</time></trkpt><trkpt lat="38.4970217" lon="16.24383"><ele>1205.0</ele><time>2026-04-07T08:37:13.789Z</time></trkpt><trkpt lat="38.496895" lon="16.2437733"><ele>1208.0</ele><time>2026-04-07T08:37:14.789Z</time></trkpt><trkpt lat="38.496785" lon="16.24372"><ele>1211.0</ele><time>2026-04-07T08:37:15.79Z</time></trkpt><trkpt lat="38.4965467" lon="16.2436167"><ele>1214.0</ele><time>2026-04-07T08:37:17.789Z</time></trkpt><trkpt lat="38.4964217" lon="16.2435683"><ele>1214.0</ele><time>2026-04-07T08:37:18.79Z</time></trkpt><trkpt lat="38.49631" lon="16.2435083"><ele>1214.0</ele><time>2026-04-07T08:37:19.79Z</time></trkpt><trkpt lat="38.4962167" lon="16.2434533"><ele>1214.0</ele><time>2026-04-07T08:37:20.79Z</time></trkpt><trkpt lat="38.49614" lon="16.243395"><ele>1214.0</ele><time>2026-04-07T08:37:21.789Z</time></trkpt><trkpt lat="38.496075" lon="16.243335"><ele>1214.0</ele><time>2026-04-07T08:37:22.789Z</time></trkpt><trkpt lat="38.4960133" lon="16.2432733"><ele>1214.3333333333335</ele><time>2026-04-07T08:37:23.789Z</time></trkpt><trkpt lat="38.4959467" lon="16.2432083"><ele>1214.6666666666667</ele><time>2026-04-07T08:37:24.789Z</time></trkpt><trkpt lat="38.49589" lon="16.2431533"><ele>1215.0</ele><time>2026-04-07T08:37:25.789Z</time></trkpt><trkpt lat="38.4958367" lon="16.2431083"><ele>1215.3333333333333</ele><time>2026-04-07T08:37:26.79Z</time></trkpt><trkpt lat="38.4957683" lon="16.24306"><ele>1215.6666666666665</ele><time>2026-04-07T08:37:28.79Z</time></trkpt><trkpt lat="38.4956933" lon="16.2430633"><ele>1216.0</ele><time>2026-04-07T08:37:32.789Z</time></trkpt><trkpt lat="38.4956267" lon="16.2431167"><ele>1216.3333333333333</ele><time>2026-04-07T08:37:35.789Z</time></trkpt><trkpt lat="38.4955767" lon="16.243195"><ele>1216.6666666666665</ele><time>2026-04-07T08:37:37.789Z</time></trkpt><trkpt lat="38.4955133" lon="16.24326"><ele>1217.0</ele><time>2026-04-07T08:37:39.789Z</time></trkpt><trkpt lat="38.4954433" lon="16.2433067"><ele>1217.3333333333333</ele><time>2026-04-07T08:37:41.79Z</time></trkpt><trkpt lat="38.49538" lon="16.24334"><ele>1217.6666666666667</ele><time>2026-04-07T08:37:43.789Z</time></trkpt><trkpt lat="38.4952933" lon="16.2433583"><ele>1218.0</ele><time>2026-04-07T08:37:46.789Z</time></trkpt><trkpt lat="38.4952083" lon="16.2433333"><ele>1218.8333333333333</ele><time>2026-04-07T08:37:49.789Z</time></trkpt><trkpt lat="38.495115" lon="16.2433133"><ele>1219.6666666666667</ele><time>2026-04-07T08:37:52.789Z</time></trkpt><trkpt lat="38.49505" lon="16.2432867"><ele>1220.5</ele><time>2026-04-07T08:37:54.789Z</time></trkpt><trkpt lat="38.4949733" lon="16.2432717"><ele>1221.3333333333335</ele><time>2026-04-07T08:38:04.789Z</time></trkpt><trkpt lat="38.4948817" lon="16.24324"><ele>1222.1666666666667</ele><time>2026-04-07T08:38:07.789Z</time></trkpt><trkpt lat="38.494815" lon="16.2432233"><ele>1223.0</ele><time>2026-04-07T08:38:09.789Z</time></trkpt><trkpt lat="38.4947417" lon="16.2432117"><ele>1223.0</ele><time>2026-04-07T08:38:11.789Z</time></trkpt><trkpt lat="38.494635" lon="16.2432117"><ele>1223.0</ele><time>2026-04-07T08:38:13.789Z</time></trkpt><trkpt lat="38.4945183" lon="16.2432067"><ele>1223.0</ele><time>2026-04-07T08:38:15.79Z</time></trkpt><trkpt lat="38.494405" lon="16.2431917"><ele>1223.0</ele><time>2026-04-07T08:38:17.79Z</time></trkpt><trkpt lat="38.4942883" lon="16.2431867"><ele>1223.8333333333335</ele><time>2026-04-07T08:38:19.789Z</time></trkpt><trkpt lat="38.4942183" lon="16.24318"><ele>1224.6666666666667</ele><time>2026-04-07T08:38:20.789Z</time></trkpt><trkpt lat="38.49411" lon="16.2431333"><ele>1225.5</ele><time>2026-04-07T08:38:22.789Z</time></trkpt><trkpt lat="38.49405" lon="16.243105"><ele>1226.3333333333333</ele><time>2026-04-07T08:38:23.79Z</time></trkpt><trkpt lat="38.4939617" lon="16.2430583"><ele>1227.1666666666665</ele><time>2026-04-07T08:38:25.789Z</time></trkpt><trkpt lat="38.493885" lon="16.2430383"><ele>1228.0</ele><time>2026-04-07T08:38:27.789Z</time></trkpt><trkpt lat="38.4938183" lon="16.2430117"><ele>1229.4</ele><time>2026-04-07T08:38:29.789Z</time></trkpt><trkpt lat="38.493735" lon="16.2429633"><ele>1230.8</ele><time>2026-04-07T08:38:31.789Z</time></trkpt><trkpt lat="38.493635" lon="16.2429117"><ele>1232.2</ele><time>2026-04-07T08:38:33.789Z</time></trkpt><trkpt lat="38.493535" lon="16.2428567"><ele>1233.6</ele><time>2026-04-07T08:38:35.79Z</time></trkpt><trkpt lat="38.4934317" lon="16.2428017"><ele>1235.0</ele><time>2026-04-07T08:38:37.789Z</time></trkpt><trkpt lat="38.4933567" lon="16.2427683"><ele>1235.0</ele><time>2026-04-07T08:38:39.789Z</time></trkpt><trkpt lat="38.4932833" lon="16.2427367"><ele>1235.0</ele><time>2026-04-07T08:38:41.79Z</time></trkpt><trkpt lat="38.4932083" lon="16.2427117"><ele>1235.0</ele><time>2026-04-07T08:38:43.789Z</time></trkpt><trkpt lat="38.4931367" lon="16.242675"><ele>1235.0</ele><time>2026-04-07T08:38:45.789Z</time></trkpt><trkpt lat="38.493045" lon="16.2426417"><ele>1235.0</ele><time>2026-04-07T08:38:47.789Z</time></trkpt><trkpt lat="38.4929633" lon="16.2426217"><ele>1235.0</ele><time>2026-04-07T08:38:49.789Z</time></trkpt><trkpt lat="38.4928767" lon="16.2426"><ele>1236.5</ele><time>2026-04-07T08:38:51.789Z</time></trkpt><trkpt lat="38.4927983" lon="16.2425683"><ele>1238.0</ele><time>2026-04-07T08:38:53.789Z</time></trkpt><trkpt lat="38.4927367" lon="16.24255"><ele>1239.5</ele><time>2026-04-07T08:38:54.789Z</time></trkpt><trkpt lat="38.4926717" lon="16.2425367"><ele>1241.0</ele><time>2026-04-07T08:38:55.789Z</time></trkpt><trkpt lat="38.4925683" lon="16.2425233"><ele>1242.5</ele><time>2026-04-07T08:38:57.789Z</time></trkpt><trkpt lat="38.4924883" lon="16.2425133"><ele>1244.0</ele><time>2026-04-07T08:38:58.789Z</time></trkpt><trkpt lat="38.49238" lon="16.2425"><ele>1244.0</ele><time>2026-04-07T08:39:00.79Z</time></trkpt><trkpt lat="38.4922767" lon="16.2424767"><ele>1244.0</ele><time>2026-04-07T08:39:02.789Z</time></trkpt><trkpt lat="38.4921717" lon="16.24245"><ele>1244.0</ele><time>2026-04-07T08:39:04.789Z</time></trkpt><trkpt lat="38.49207" lon="16.2424167"><ele>1244.0</ele><time>2026-04-07T08:39:06.79Z</time></trkpt><trkpt lat="38.49199" lon="16.2424283"><ele>1244.0</ele><time>2026-04-07T08:39:07.79Z</time></trkpt><trkpt lat="38.4918617" lon="16.242455"><ele>1243.6000000000001</ele><time>2026-04-07T08:39:09.79Z</time></trkpt><trkpt lat="38.4917867" lon="16.2424983"><ele>1243.2</ele><time>2026-04-07T08:39:11.79Z</time></trkpt><trkpt lat="38.4917117" lon="16.24258"><ele>1242.8000000000002</ele><time>2026-04-07T08:39:13.789Z</time></trkpt><trkpt lat="38.4916433" lon="16.2426817"><ele>1242.4</ele><time>2026-04-07T08:39:15.789Z</time></trkpt><trkpt lat="38.4916017" lon="16.2427983"><ele>1242.0</ele><time>2026-04-07T08:39:17.789Z</time></trkpt><trkpt lat="38.4915867" lon="16.2428783"><ele>1242.0</ele><time>2026-04-07T08:39:18.789Z</time></trkpt><trkpt lat="38.4915617" lon="16.24304"><ele>1242.0</ele><time>2026-04-07T08:39:20.789Z</time></trkpt><trkpt lat="38.49155" lon="16.2431217"><ele>1242.0</ele><time>2026-04-07T08:39:21.789Z</time></trkpt><trkpt lat="38.4915383" lon="16.2432033"><ele>1242.0</ele><time>2026-04-07T08:39:22.789Z</time></trkpt><trkpt lat="38.4915217" lon="16.2432867"><ele>1242.0</ele><time>2026-04-07T08:39:23.789Z</time></trkpt><trkpt lat="38.4914933" lon="16.2433633"><ele>1242.0</ele><time>2026-04-07T08:39:24.79Z</time></trkpt><trkpt lat="38.4914617" lon="16.24344"><ele>1242.8</ele><time>2026-04-07T08:39:25.789Z</time></trkpt><trkpt lat="38.4914267" lon="16.2435133"><ele>1243.6</ele><time>2026-04-07T08:39:26.789Z</time></trkpt><trkpt lat="38.491335" lon="16.2436017"><ele>1244.3999999999999</ele><time>2026-04-07T08:39:28.789Z</time></trkpt><trkpt lat="38.4912733" lon="16.2436233"><ele>1245.2</ele><time>2026-04-07T08:39:29.789Z</time></trkpt><trkpt lat="38.4911717" lon="16.24367"><ele>1246.0</ele><time>2026-04-07T08:39:31.789Z</time></trkpt><trkpt lat="38.4910833" lon="16.243745"><ele>1246.0</ele><time>2026-04-07T08:39:33.79Z</time></trkpt><trkpt lat="38.4910217" lon="16.2438617"><ele>1246.0</ele><time>2026-04-07T08:39:35.789Z</time></trkpt><trkpt lat="38.4909867" lon="16.24394"><ele>1246.0</ele><time>2026-04-07T08:39:36.789Z</time></trkpt><trkpt lat="38.4909517" lon="16.24401"><ele>1246.0</ele><time>2026-04-07T08:39:37.789Z</time></trkpt><trkpt lat="38.4908983" lon="16.2441083"><ele>1246.0</ele><time>2026-04-07T08:39:39.79Z</time></trkpt><trkpt lat="38.4908617" lon="16.2441883"><ele>1246.0</ele><time>2026-04-07T08:39:41.789Z</time></trkpt><trkpt lat="38.490835" lon="16.2442717"><ele>1248.0</ele><time>2026-04-07T08:39:43.789Z</time></trkpt><trkpt lat="38.4908133" lon="16.2443517"><ele>1250.0</ele><time>2026-04-07T08:39:45.789Z</time></trkpt><trkpt lat="38.49079" lon="16.244455"><ele>1252.0</ele><time>2026-04-07T08:39:48.789Z</time></trkpt><trkpt lat="38.4907667" lon="16.24453"><ele>1254.0</ele><time>2026-04-07T08:39:50.79Z</time></trkpt><trkpt lat="38.4907467" lon="16.244615"><ele>1256.0</ele><time>2026-04-07T08:39:52.79Z</time></trkpt><trkpt lat="38.4907183" lon="16.244705"><ele>1258.0</ele><time>2026-04-07T08:39:55.789Z</time></trkpt><trkpt lat="38.4906617" lon="16.24485"><ele>1259.6666666666665</ele><time>2026-04-07T08:40:02.789Z</time></trkpt><trkpt lat="38.4906417" lon="16.24496"><ele>1261.3333333333333</ele><time>2026-04-07T08:40:05.789Z</time></trkpt><trkpt lat="38.490615" lon="16.2450383"><ele>1263.0</ele><time>2026-04-07T08:40:07.789Z</time></trkpt><trkpt lat="38.4905867" lon="16.24512"><ele>1264.6666666666667</ele><time>2026-04-07T08:40:09.789Z</time></trkpt><trkpt lat="38.4905683" lon="16.2452067"><ele>1266.3333333333335</ele><time>2026-04-07T08:40:11.789Z</time></trkpt><trkpt lat="38.4905383" lon="16.24532"><ele>1268.0</ele><time>2026-04-07T08:40:14.79Z</time></trkpt><trkpt lat="38.4905183" lon="16.2454283"><ele>1268.0</ele><time>2026-04-07T08:40:17.789Z</time></trkpt><trkpt lat="38.4904667" lon="16.2455167"><ele>1268.0</ele><time>2026-04-07T08:40:20.789Z</time></trkpt><trkpt lat="38.4904083" lon="16.2455717"><ele>1268.0</ele><time>2026-04-07T08:40:23.789Z</time></trkpt><trkpt lat="38.4903317" lon="16.24564"><ele>1268.0</ele><time>2026-04-07T08:40:26.789Z</time></trkpt><trkpt lat="38.4902783" lon="16.2457017"><ele>1268.0</ele><time>2026-04-07T08:40:28.789Z</time></trkpt><trkpt lat="38.49021" lon="16.245775"><ele>1268.0</ele><time>2026-04-07T08:40:31.789Z</time></trkpt><trkpt lat="38.4901483" lon="16.24581"><ele>1268.8333333333335</ele><time>2026-04-07T08:40:33.789Z</time></trkpt><trkpt lat="38.4900767" lon="16.24591"><ele>1269.6666666666667</ele><time>2026-04-07T08:44:08.791Z</time></trkpt><trkpt lat="38.4901483" lon="16.2458667"><ele>1270.5</ele><time>2026-04-07T08:44:12.791Z</time></trkpt><trkpt lat="38.49021" lon="16.2458317"><ele>1271.3333333333333</ele><time>2026-04-07T08:44:15.79Z</time></trkpt><trkpt lat="38.490275" lon="16.24577"><ele>1272.1666666666665</ele><time>2026-04-07T08:44:18.791Z</time></trkpt><trkpt lat="38.4903483" lon="16.2457133"><ele>1273.0</ele><time>2026-04-07T08:44:22.79Z</time></trkpt><trkpt lat="38.4903933" lon="16.245645"><ele>1272.1666666666665</ele><time>2026-04-07T08:44:25.79Z</time></trkpt><trkpt lat="38.4904467" lon="16.24554"><ele>1271.3333333333333</ele><time>2026-04-07T08:44:28.79Z</time></trkpt><trkpt lat="38.4904817" lon="16.2454433"><ele>1270.5</ele><time>2026-04-07T08:44:30.79Z</time></trkpt><trkpt lat="38.4905133" lon="16.2453433"><ele>1269.6666666666667</ele><time>2026-04-07T08:44:32.791Z</time></trkpt><trkpt lat="38.4905217" lon="16.24524"><ele>1268.8333333333335</ele><time>2026-04-07T08:44:34.79Z</time></trkpt><trkpt lat="38.4905467" lon="16.2451633"><ele>1268.0</ele><time>2026-04-07T08:44:36.79Z</time></trkpt><trkpt lat="38.49059" lon="16.2450667"><ele>1268.0</ele><time>2026-04-07T08:44:39.79Z</time></trkpt><trkpt lat="38.4906283" lon="16.244975"><ele>1268.0</ele><time>2026-04-07T08:44:42.79Z</time></trkpt><trkpt lat="38.4906567" lon="16.24486"><ele>1268.0</ele><time>2026-04-07T08:44:45.79Z</time></trkpt><trkpt lat="38.49068" lon="16.2447767"><ele>1268.0</ele><time>2026-04-07T08:44:47.79Z</time></trkpt><trkpt lat="38.4907117" lon="16.24468"><ele>1268.0</ele><time>2026-04-07T08:44:49.79Z</time></trkpt><trkpt lat="38.4907417" lon="16.24458"><ele>1268.0</ele><time>2026-04-07T08:44:51.79Z</time></trkpt><trkpt lat="38.4907583" lon="16.2444783"><ele>1266.3333333333335</ele><time>2026-04-07T08:44:54.791Z</time></trkpt><trkpt lat="38.4907817" lon="16.2443867"><ele>1264.6666666666667</ele><time>2026-04-07T08:44:57.79Z</time></trkpt><trkpt lat="38.4908017" lon="16.2442883"><ele>1263.0</ele><time>2026-04-07T08:45:00.791Z</time></trkpt><trkpt lat="38.49085" lon="16.2442067"><ele>1261.3333333333333</ele><time>2026-04-07T08:45:02.791Z</time></trkpt><trkpt lat="38.4909033" lon="16.2441017"><ele>1259.6666666666665</ele><time>2026-04-07T08:45:04.79Z</time></trkpt><trkpt lat="38.4909633" lon="16.2440017"><ele>1258.0</ele><time>2026-04-07T08:45:06.791Z</time></trkpt><trkpt lat="38.4910133" lon="16.243915"><ele>1258.2</ele><time>2026-04-07T08:45:08.791Z</time></trkpt><trkpt lat="38.4911017" lon="16.2438217"><ele>1258.4</ele><time>2026-04-07T08:46:30.79Z</time></trkpt><trkpt lat="38.491175" lon="16.2437667"><ele>1258.6000000000001</ele><time>2026-04-07T08:46:32.791Z</time></trkpt><trkpt lat="38.491275" lon="16.24371"><ele>1258.8</ele><time>2026-04-07T08:46:34.79Z</time></trkpt><trkpt lat="38.4913567" lon="16.2436067"><ele>1259.0</ele><time>2026-04-07T08:46:36.79Z</time></trkpt><trkpt lat="38.4914217" lon="16.2434883"><ele>1259.0</ele><time>2026-04-07T08:46:38.79Z</time></trkpt><trkpt lat="38.4914567" lon="16.24342"><ele>1259.0</ele><time>2026-04-07T08:46:39.79Z</time></trkpt><trkpt lat="38.4914917" lon="16.2433467"><ele>1259.0</ele><time>2026-04-07T08:46:40.79Z</time></trkpt><trkpt lat="38.49153" lon="16.2432017"><ele>1259.0</ele><time>2026-04-07T08:46:42.79Z</time></trkpt><trkpt lat="38.4915617" lon="16.2430533"><ele>1259.0</ele><time>2026-04-07T08:46:44.79Z</time></trkpt><trkpt lat="38.4916033" lon="16.2429217"><ele>1256.1666666666667</ele><time>2026-04-07T08:46:46.791Z</time></trkpt><trkpt lat="38.4916367" lon="16.2428483"><ele>1253.3333333333335</ele><time>2026-04-07T08:46:47.791Z</time></trkpt><trkpt lat="38.4916983" lon="16.24275"><ele>1250.5</ele><time>2026-04-07T08:46:49.79Z</time></trkpt><trkpt lat="38.4917667" lon="16.2426717"><ele>1247.6666666666667</ele><time>2026-04-07T08:46:51.791Z</time></trkpt><trkpt lat="38.49183" lon="16.24264"><ele>1244.8333333333333</ele><time>2026-04-07T08:46:53.79Z</time></trkpt><trkpt lat="38.49192" lon="16.2426267"><ele>1242.0</ele><time>2026-04-07T08:46:55.79Z</time></trkpt><trkpt lat="38.492015" lon="16.242625"><ele>1242.4</ele><time>2026-04-07T08:46:57.791Z</time></trkpt><trkpt lat="38.49212" lon="16.2426333"><ele>1242.8000000000002</ele><time>2026-04-07T08:46:59.79Z</time></trkpt><trkpt lat="38.4922433" lon="16.2426333"><ele>1243.2</ele><time>2026-04-07T08:47:01.79Z</time></trkpt><trkpt lat="38.4923083" lon="16.242635"><ele>1243.6000000000001</ele><time>2026-04-07T08:47:02.79Z</time></trkpt><trkpt lat="38.492375" lon="16.2426367"><ele>1244.0</ele><time>2026-04-07T08:47:03.79Z</time></trkpt><trkpt lat="38.4924933" lon="16.2426583"><ele>1244.0</ele><time>2026-04-07T08:47:05.79Z</time></trkpt><trkpt lat="38.49256" lon="16.2426683"><ele>1244.0</ele><time>2026-04-07T08:47:06.79Z</time></trkpt><trkpt lat="38.4926317" lon="16.2426817"><ele>1244.0</ele><time>2026-04-07T08:47:07.791Z</time></trkpt><trkpt lat="38.4927083" lon="16.2426867"><ele>1244.0</ele><time>2026-04-07T08:47:08.79Z</time></trkpt><trkpt lat="38.4927933" lon="16.2426983"><ele>1244.0</ele><time>2026-04-07T08:47:09.79Z</time></trkpt><trkpt lat="38.492885" lon="16.24271"><ele>1244.0</ele><time>2026-04-07T08:47:10.79Z</time></trkpt><trkpt lat="38.4929683" lon="16.2427317"><ele>1242.5</ele><time>2026-04-07T08:47:11.79Z</time></trkpt><trkpt lat="38.4930533" lon="16.2427483"><ele>1241.0</ele><time>2026-04-07T08:47:12.79Z</time></trkpt><trkpt lat="38.4931167" lon="16.2427717"><ele>1239.5</ele><time>2026-04-07T08:47:13.791Z</time></trkpt><trkpt lat="38.49323" lon="16.2428067"><ele>1238.0</ele><time>2026-04-07T08:47:15.791Z</time></trkpt><trkpt lat="38.4932983" lon="16.2428417"><ele>1236.5</ele><time>2026-04-07T08:47:16.791Z</time></trkpt><trkpt lat="38.4933783" lon="16.2428833"><ele>1235.0</ele><time>2026-04-07T08:47:17.79Z</time></trkpt><trkpt lat="38.4934683" lon="16.24293"><ele>1235.0</ele><time>2026-04-07T08:47:18.79Z</time></trkpt><trkpt lat="38.4935533" lon="16.2429783"><ele>1235.0</ele><time>2026-04-07T08:47:19.79Z</time></trkpt><trkpt lat="38.4936333" lon="16.2430183"><ele>1235.0</ele><time>2026-04-07T08:47:20.79Z</time></trkpt><trkpt lat="38.4936967" lon="16.2430417"><ele>1235.0</ele><time>2026-04-07T08:47:21.791Z</time></trkpt><trkpt lat="38.4937583" lon="16.2430633"><ele>1235.0</ele><time>2026-04-07T08:47:22.791Z</time></trkpt><trkpt lat="38.49382" lon="16.2430817"><ele>1235.0</ele><time>2026-04-07T08:47:23.79Z</time></trkpt><trkpt lat="38.493935" lon="16.2431383"><ele>1233.6</ele><time>2026-04-07T08:47:25.791Z</time></trkpt><trkpt lat="38.49406" lon="16.243195"><ele>1232.2</ele><time>2026-04-07T08:47:27.79Z</time></trkpt><trkpt lat="38.4941367" lon="16.24322"><ele>1230.8</ele><time>2026-04-07T08:47:28.79Z</time></trkpt><trkpt lat="38.49422" lon="16.2432367"><ele>1229.4</ele><time>2026-04-07T08:47:29.79Z</time></trkpt><trkpt lat="38.494305" lon="16.2432483"><ele>1228.0</ele><time>2026-04-07T08:47:30.79Z</time></trkpt><trkpt lat="38.4943883" lon="16.24326"><ele>1228.0</ele><time>2026-04-07T08:47:31.79Z</time></trkpt><trkpt lat="38.49446" lon="16.2432633"><ele>1228.0</ele><time>2026-04-07T08:47:32.79Z</time></trkpt><trkpt lat="38.4945883" lon="16.243255"><ele>1228.0</ele><time>2026-04-07T08:47:34.79Z</time></trkpt><trkpt lat="38.4946483" lon="16.243285"><ele>1228.0</ele><time>2026-04-07T08:47:36.791Z</time></trkpt><trkpt lat="38.4947183" lon="16.2433067"><ele>1228.0</ele><time>2026-04-07T08:47:39.791Z</time></trkpt><trkpt lat="38.4947917" lon="16.2433117"><ele>1228.0</ele><time>2026-04-07T08:47:42.79Z</time></trkpt><trkpt lat="38.4948583" lon="16.2433283"><ele>1227.1666666666665</ele><time>2026-04-07T08:47:45.79Z</time></trkpt><trkpt lat="38.49493" lon="16.24336"><ele>1226.3333333333333</ele><time>2026-04-07T08:47:47.79Z</time></trkpt><trkpt lat="38.4950067" lon="16.243395"><ele>1225.5</ele><time>2026-04-07T08:47:49.79Z</time></trkpt><trkpt lat="38.49507" lon="16.2434067"><ele>1224.6666666666667</ele><time>2026-04-07T08:47:51.791Z</time></trkpt><trkpt lat="38.4951567" lon="16.2434467"><ele>1223.8333333333335</ele><time>2026-04-07T08:47:54.79Z</time></trkpt><trkpt lat="38.4952483" lon="16.2434333"><ele>1223.0</ele><time>2026-04-07T08:47:57.791Z</time></trkpt><trkpt lat="38.4953283" lon="16.24339"><ele>1223.0</ele><time>2026-04-07T08:47:59.79Z</time></trkpt><trkpt lat="38.4953817" lon="16.2433317"><ele>1223.0</ele><time>2026-04-07T08:48:01.791Z</time></trkpt><trkpt lat="38.495435" lon="16.2432733"><ele>1223.0</ele><time>2026-04-07T08:48:03.79Z</time></trkpt><trkpt lat="38.4955" lon="16.243195"><ele>1223.0</ele><time>2026-04-07T08:48:05.79Z</time></trkpt><trkpt lat="38.4955617" lon="16.24315"><ele>1223.0</ele><time>2026-04-07T08:48:07.79Z</time></trkpt><trkpt lat="38.495625" lon="16.2431117"><ele>1223.0</ele><time>2026-04-07T08:48:10.79Z</time></trkpt><trkpt lat="38.495715" lon="16.2430983"><ele>1222.0</ele><time>2026-04-07T08:48:14.791Z</time></trkpt><trkpt lat="38.4958033" lon="16.243155"><ele>1221.0</ele><time>2026-04-07T08:48:17.79Z</time></trkpt><trkpt lat="38.4958617" lon="16.243215"><ele>1220.0</ele><time>2026-04-07T08:48:20.791Z</time></trkpt><trkpt lat="38.49594" lon="16.243295"><ele>1219.0</ele><time>2026-04-07T08:48:23.79Z</time></trkpt><trkpt lat="38.4960083" lon="16.2433683"><ele>1218.0</ele><time>2026-04-07T08:48:25.79Z</time></trkpt><trkpt lat="38.496085" lon="16.2434517"><ele>1218.0</ele><time>2026-04-07T08:48:27.79Z</time></trkpt><trkpt lat="38.4961683" lon="16.243525"><ele>1218.0</ele><time>2026-04-07T08:48:29.79Z</time></trkpt><trkpt lat="38.4962667" lon="16.2435917"><ele>1218.0</ele><time>2026-04-07T08:48:31.791Z</time></trkpt><trkpt lat="38.4963767" lon="16.2436467"><ele>1218.0</ele><time>2026-04-07T08:48:33.79Z</time></trkpt><trkpt lat="38.4964783" lon="16.2436967"><ele>1218.0</ele><time>2026-04-07T08:48:35.791Z</time></trkpt><trkpt lat="38.496545" lon="16.2437267"><ele>1217.2</ele><time>2026-04-07T08:48:37.79Z</time></trkpt><trkpt lat="38.4966417" lon="16.24374"><ele>1216.4</ele><time>2026-04-07T08:48:40.79Z</time></trkpt><trkpt lat="38.4967333" lon="16.24376"><ele>1215.6000000000001</ele><time>2026-04-07T08:48:42.79Z</time></trkpt><trkpt lat="38.496835" lon="16.2438033"><ele>1214.8</ele><time>2026-04-07T08:48:44.79Z</time></trkpt><trkpt lat="38.496945" lon="16.2438483"><ele>1214.0</ele><time>2026-04-07T08:48:46.79Z</time></trkpt><trkpt lat="38.4970067" lon="16.24387"><ele>1213.0</ele><time>2026-04-07T08:48:47.79Z</time></trkpt><trkpt lat="38.49712" lon="16.2439217"><ele>1212.0</ele><time>2026-04-07T08:48:49.79Z</time></trkpt><trkpt lat="38.4972433" lon="16.2439883"><ele>1211.0</ele><time>2026-04-07T08:48:51.79Z</time></trkpt><trkpt lat="38.497305" lon="16.2440333"><ele>1210.0</ele><time>2026-04-07T08:48:52.791Z</time></trkpt><trkpt lat="38.4973683" lon="16.2441017"><ele>1209.0</ele><time>2026-04-07T08:48:53.79Z</time></trkpt><trkpt lat="38.4974433" lon="16.2441867"><ele>1209.0</ele><time>2026-04-07T08:48:54.79Z</time></trkpt><trkpt lat="38.4975167" lon="16.244265"><ele>1209.0</ele><time>2026-04-07T08:48:55.79Z</time></trkpt><trkpt lat="38.4975867" lon="16.2443533"><ele>1209.0</ele><time>2026-04-07T08:48:56.79Z</time></trkpt><trkpt lat="38.4976533" lon="16.2444417"><ele>1209.0</ele><time>2026-04-07T08:48:57.79Z</time></trkpt><trkpt lat="38.4977217" lon="16.2445333"><ele>1209.0</ele><time>2026-04-07T08:48:58.791Z</time></trkpt><trkpt lat="38.4977883" lon="16.244615"><ele>1209.0</ele><time>2026-04-07T08:48:59.79Z</time></trkpt><trkpt lat="38.49784" lon="16.2447017"><ele>1209.0</ele><time>2026-04-07T08:49:00.79Z</time></trkpt><trkpt lat="38.4978883" lon="16.2447733"><ele>1209.0</ele><time>2026-04-07T08:49:01.79Z</time></trkpt><trkpt lat="38.4979583" lon="16.2448617"><ele>1209.0</ele><time>2026-04-07T08:49:02.79Z</time></trkpt><trkpt lat="38.4980333" lon="16.244945"><ele>1209.0</ele><time>2026-04-07T08:49:03.79Z</time></trkpt><trkpt lat="38.4981167" lon="16.24502"><ele>1207.4</ele><time>2026-04-07T08:49:04.791Z</time></trkpt><trkpt lat="38.4982033" lon="16.2450733"><ele>1205.8000000000002</ele><time>2026-04-07T08:49:05.791Z</time></trkpt><trkpt lat="38.4982933" lon="16.2451183"><ele>1204.1999999999998</ele><time>2026-04-07T08:49:06.791Z</time></trkpt><trkpt lat="38.4983817" lon="16.2451517"><ele>1202.6</ele><time>2026-04-07T08:49:07.79Z</time></trkpt><trkpt lat="38.4984683" lon="16.2451783"><ele>1201.0</ele><time>2026-04-07T08:49:08.79Z</time></trkpt><trkpt lat="38.49857" lon="16.245205"><ele>1201.0</ele><time>2026-04-07T08:49:09.79Z</time></trkpt><trkpt lat="38.4986683" lon="16.2452133"><ele>1201.0</ele><time>2026-04-07T08:49:10.791Z</time></trkpt><trkpt lat="38.49877" lon="16.2452133"><ele>1201.0</ele><time>2026-04-07T08:49:11.791Z</time></trkpt><trkpt lat="38.49888" lon="16.2452033"><ele>1201.0</ele><time>2026-04-07T08:49:12.79Z</time></trkpt><trkpt lat="38.4990033" lon="16.245185"><ele>1201.0</ele><time>2026-04-07T08:49:13.79Z</time></trkpt><trkpt lat="38.499135" lon="16.2451583"><ele>1200.75</ele><time>2026-04-07T08:49:14.79Z</time></trkpt><trkpt lat="38.49928" lon="16.2451333"><ele>1200.5</ele><time>2026-04-07T08:49:15.79Z</time></trkpt><trkpt lat="38.4994217" lon="16.2451033"><ele>1200.25</ele><time>2026-04-07T08:49:16.79Z</time></trkpt><trkpt lat="38.4995667" lon="16.24508"><ele>1200.0</ele><time>2026-04-07T08:49:17.791Z</time></trkpt><trkpt lat="38.4996933" lon="16.2450633"><ele>1199.25</ele><time>2026-04-07T08:49:18.791Z</time></trkpt><trkpt lat="38.4998133" lon="16.2450667"><ele>1198.5</ele><time>2026-04-07T08:49:19.79Z</time></trkpt><trkpt lat="38.4999383" lon="16.24509"><ele>1197.75</ele><time>2026-04-07T08:49:20.791Z</time></trkpt><trkpt lat="38.500065" lon="16.2451267"><ele>1197.0</ele><time>2026-04-07T08:49:21.79Z</time></trkpt><trkpt lat="38.5001783" lon="16.2451817"><ele>1197.0</ele><time>2026-04-07T08:49:22.79Z</time></trkpt><trkpt lat="38.5003283" lon="16.245285"><ele>1197.0</ele><time>2026-04-07T08:49:23.79Z</time></trkpt><trkpt lat="38.50045" lon="16.2453867"><ele>1197.0</ele><time>2026-04-07T08:49:24.79Z</time></trkpt><trkpt lat="38.5005867" lon="16.2455083"><ele>1196.0</ele><time>2026-04-07T08:49:25.791Z</time></trkpt><trkpt lat="38.5007133" lon="16.24563"><ele>1195.0</ele><time>2026-04-07T08:49:26.791Z</time></trkpt><trkpt lat="38.5008517" lon="16.24577"><ele>1194.0</ele><time>2026-04-07T08:49:27.79Z</time></trkpt><trkpt lat="38.5009833" lon="16.2459"><ele>1194.0</ele><time>2026-04-07T08:49:28.79Z</time></trkpt><trkpt lat="38.5011133" lon="16.2460167"><ele>1194.0</ele><time>2026-04-07T08:49:29.791Z</time></trkpt><trkpt lat="38.50124" lon="16.2461383"><ele>1194.0</ele><time>2026-04-07T08:49:30.79Z</time></trkpt><trkpt lat="38.501365" lon="16.2462633"><ele>1194.3333333333333</ele><time>2026-04-07T08:49:31.79Z</time></trkpt><trkpt lat="38.50149" lon="16.2464"><ele>1194.6666666666665</ele><time>2026-04-07T08:49:32.79Z</time></trkpt><trkpt lat="38.501605" lon="16.2465267"><ele>1195.0</ele><time>2026-04-07T08:49:33.79Z</time></trkpt><trkpt lat="38.50172" lon="16.2466633"><ele>1193.6666666666665</ele><time>2026-04-07T08:49:34.79Z</time></trkpt><trkpt lat="38.5018267" lon="16.2468067"><ele>1192.3333333333333</ele><time>2026-04-07T08:49:35.79Z</time></trkpt><trkpt lat="38.5019283" lon="16.2469483"><ele>1191.0</ele><time>2026-04-07T08:49:36.791Z</time></trkpt><trkpt lat="38.5020217" lon="16.2470917"><ele>1192.0</ele><time>2026-04-07T08:49:37.79Z</time></trkpt><trkpt lat="38.50212" lon="16.2472433"><ele>1193.0</ele><time>2026-04-07T08:49:38.79Z</time></trkpt><trkpt lat="38.502205" lon="16.247395"><ele>1194.0</ele><time>2026-04-07T08:49:39.79Z</time></trkpt><trkpt lat="38.5022767" lon="16.2475467"><ele>1195.0</ele><time>2026-04-07T08:49:40.79Z</time></trkpt><trkpt lat="38.50235" lon="16.24772"><ele>1195.0</ele><time>2026-04-07T08:49:41.79Z</time></trkpt><trkpt lat="38.5024" lon="16.2478583"><ele>1195.0</ele><time>2026-04-07T08:49:42.791Z</time></trkpt><trkpt lat="38.5024567" lon="16.24801"><ele>1195.0</ele><time>2026-04-07T08:49:43.79Z</time></trkpt><trkpt lat="38.5025117" lon="16.248145"><ele>1195.0</ele><time>2026-04-07T08:49:44.791Z</time></trkpt><trkpt lat="38.5025633" lon="16.2482667"><ele>1194.2</ele><time>2026-04-07T08:49:45.79Z</time></trkpt><trkpt lat="38.5026133" lon="16.248385"><ele>1193.4</ele><time>2026-04-07T08:49:46.79Z</time></trkpt><trkpt lat="38.5026783" lon="16.2484883"><ele>1192.6</ele><time>2026-04-07T08:49:47.791Z</time></trkpt><trkpt lat="38.5027583" lon="16.2485733"><ele>1191.8</ele><time>2026-04-07T08:49:48.791Z</time></trkpt><trkpt lat="38.5028517" lon="16.2486367"><ele>1191.0</ele><time>2026-04-07T08:49:49.79Z</time></trkpt><trkpt lat="38.50293" lon="16.24865"><ele>1190.75</ele><time>2026-04-07T08:49:50.79Z</time></trkpt><trkpt lat="38.503025" lon="16.2486733"><ele>1190.5</ele><time>2026-04-07T08:49:51.79Z</time></trkpt><trkpt lat="38.5031317" lon="16.248665"><ele>1190.25</ele><time>2026-04-07T08:49:52.79Z</time></trkpt><trkpt lat="38.503265" lon="16.2486483"><ele>1190.0</ele><time>2026-04-07T08:49:53.79Z</time></trkpt><trkpt lat="38.50339" lon="16.2486167"><ele>1190.0</ele><time>2026-04-07T08:49:54.79Z</time></trkpt><trkpt lat="38.50351" lon="16.2485767"><ele>1190.0</ele><time>2026-04-07T08:49:55.791Z</time></trkpt><trkpt lat="38.5036283" lon="16.2485317"><ele>1190.0</ele><time>2026-04-07T08:49:56.79Z</time></trkpt><trkpt lat="38.5037383" lon="16.2484833"><ele>1190.0</ele><time>2026-04-07T08:49:57.79Z</time></trkpt><trkpt lat="38.5038367" lon="16.2484067"><ele>1190.0</ele><time>2026-04-07T08:49:58.79Z</time></trkpt><trkpt lat="38.5039333" lon="16.248315"><ele>1190.0</ele><time>2026-04-07T08:49:59.79Z</time></trkpt><trkpt lat="38.5040367" lon="16.2482233"><ele>1190.0</ele><time>2026-04-07T08:50:00.791Z</time></trkpt><trkpt lat="38.5041417" lon="16.2481383"><ele>1190.0</ele><time>2026-04-07T08:50:01.791Z</time></trkpt><trkpt lat="38.5042533" lon="16.2480717"><ele>1190.0</ele><time>2026-04-07T08:50:02.79Z</time></trkpt><trkpt lat="38.50437" lon="16.2480217"><ele>1190.0</ele><time>2026-04-07T08:50:03.79Z</time></trkpt><trkpt lat="38.50449" lon="16.247975"><ele>1190.0</ele><time>2026-04-07T08:50:04.791Z</time></trkpt><trkpt lat="38.504625" lon="16.2479533"><ele>1190.0</ele><time>2026-04-07T08:50:05.791Z</time></trkpt><trkpt lat="38.504745" lon="16.2479617"><ele>1190.25</ele><time>2026-04-07T08:50:06.79Z</time></trkpt><trkpt lat="38.50488" lon="16.2480117"><ele>1190.5</ele><time>2026-04-07T08:50:07.79Z</time></trkpt><trkpt lat="38.5050017" lon="16.2480667"><ele>1190.75</ele><time>2026-04-07T08:50:08.79Z</time></trkpt><trkpt lat="38.5051383" lon="16.248145"><ele>1191.0</ele><time>2026-04-07T08:50:09.79Z</time></trkpt><trkpt lat="38.505265" lon="16.2482167"><ele>1191.3333333333333</ele><time>2026-04-07T08:50:10.79Z</time></trkpt><trkpt lat="38.5054" lon="16.2482933"><ele>1191.6666666666665</ele><time>2026-04-07T08:50:11.791Z</time></trkpt><trkpt lat="38.5055467" lon="16.2483717"><ele>1192.0</ele><time>2026-04-07T08:50:12.791Z</time></trkpt><trkpt lat="38.5056983" lon="16.2484367"><ele>1192.0</ele><time>2026-04-07T08:50:13.791Z</time></trkpt><trkpt lat="38.50585" lon="16.2485033"><ele>1192.0</ele><time>2026-04-07T08:50:14.79Z</time></trkpt><trkpt lat="38.506005" lon="16.2485783"><ele>1192.0</ele><time>2026-04-07T08:50:15.791Z</time></trkpt><trkpt lat="38.506165" lon="16.2486517"><ele>1190.3333333333333</ele><time>2026-04-07T08:50:16.79Z</time></trkpt><trkpt lat="38.5063317" lon="16.2487233"><ele>1188.6666666666667</ele><time>2026-04-07T08:50:17.79Z</time></trkpt><trkpt lat="38.5064867" lon="16.248795"><ele>1187.0</ele><time>2026-04-07T08:50:18.79Z</time></trkpt><trkpt lat="38.5066283" lon="16.2488583"><ele>1187.0</ele><time>2026-04-07T08:50:19.79Z</time></trkpt><trkpt lat="38.506775" lon="16.2489033"><ele>1187.0</ele><time>2026-04-07T08:50:20.79Z</time></trkpt><trkpt lat="38.50692" lon="16.2489567"><ele>1187.0</ele><time>2026-04-07T08:50:21.79Z</time></trkpt><trkpt lat="38.5070617" lon="16.2490183"><ele>1186.5</ele><time>2026-04-07T08:50:22.79Z</time></trkpt><trkpt lat="38.5071917" lon="16.249085"><ele>1186.0</ele><time>2026-04-07T08:50:23.79Z</time></trkpt><trkpt lat="38.5073217" lon="16.2491367"><ele>1185.5</ele><time>2026-04-07T08:50:24.791Z</time></trkpt><trkpt lat="38.5074567" lon="16.249175"><ele>1185.0</ele><time>2026-04-07T08:50:25.79Z</time></trkpt><trkpt lat="38.5075933" lon="16.2492017"><ele>1185.0</ele><time>2026-04-07T08:50:26.79Z</time></trkpt><trkpt lat="38.5077233" lon="16.2492133"><ele>1185.0</ele><time>2026-04-07T08:50:27.79Z</time></trkpt><trkpt lat="38.5078417" lon="16.249235"><ele>1185.0</ele><time>2026-04-07T08:50:28.79Z</time></trkpt><trkpt lat="38.507955" lon="16.2492617"><ele>1185.0</ele><time>2026-04-07T08:50:29.79Z</time></trkpt><trkpt lat="38.5080433" lon="16.2493167"><ele>1183.4</ele><time>2026-04-07T08:50:30.791Z</time></trkpt><trkpt lat="38.50813" lon="16.249375"><ele>1181.8</ele><time>2026-04-07T08:50:31.791Z</time></trkpt><trkpt lat="38.5081933" lon="16.2494467"><ele>1180.2</ele><time>2026-04-07T08:50:32.79Z</time></trkpt><trkpt lat="38.5082167" lon="16.2495217"><ele>1178.6</ele><time>2026-04-07T08:50:33.791Z</time></trkpt><trkpt lat="38.5081833" lon="16.249705"><ele>1177.0</ele><time>2026-04-07T08:50:35.79Z</time></trkpt><trkpt lat="38.508125" lon="16.2498133"><ele>1176.5</ele><time>2026-04-07T08:50:36.79Z</time></trkpt><trkpt lat="38.5080483" lon="16.2499333"><ele>1176.0</ele><time>2026-04-07T08:50:37.79Z</time></trkpt><trkpt lat="38.5079667" lon="16.2500367"><ele>1175.5</ele><time>2026-04-07T08:50:38.79Z</time></trkpt><trkpt lat="38.5078767" lon="16.25014"><ele>1175.0</ele><time>2026-04-07T08:50:39.79Z</time></trkpt><trkpt lat="38.5077833" lon="16.2502483"><ele>1175.4</ele><time>2026-04-07T08:50:40.79Z</time></trkpt><trkpt lat="38.5077033" lon="16.250345"><ele>1175.8</ele><time>2026-04-07T08:50:41.791Z</time></trkpt><trkpt lat="38.50764" lon="16.2504483"><ele>1176.2</ele><time>2026-04-07T08:50:42.79Z</time></trkpt><trkpt lat="38.5075867" lon="16.250565"><ele>1176.6</ele><time>2026-04-07T08:50:43.79Z</time></trkpt><trkpt lat="38.507555" lon="16.2506683"><ele>1177.0</ele><time>2026-04-07T08:50:44.79Z</time></trkpt><trkpt lat="38.5075383" lon="16.250795"><ele>1177.0</ele><time>2026-04-07T08:50:45.79Z</time></trkpt><trkpt lat="38.5075167" lon="16.250945"><ele>1177.0</ele><time>2026-04-07T08:50:46.79Z</time></trkpt><trkpt lat="38.5075017" lon="16.2510883"><ele>1177.0</ele><time>2026-04-07T08:50:47.79Z</time></trkpt><trkpt lat="38.5075017" lon="16.2512417"><ele>1177.0</ele><time>2026-04-07T08:50:48.79Z</time></trkpt><trkpt lat="38.507495" lon="16.2513833"><ele>1176.0</ele><time>2026-04-07T08:50:49.79Z</time></trkpt><trkpt lat="38.5074983" lon="16.2515233"><ele>1175.0</ele><time>2026-04-07T08:50:50.79Z</time></trkpt><trkpt lat="38.50751" lon="16.2516583"><ele>1174.0</ele><time>2026-04-07T08:50:51.79Z</time></trkpt><trkpt lat="38.50753" lon="16.2517883"><ele>1173.0</ele><time>2026-04-07T08:50:52.791Z</time></trkpt><trkpt lat="38.507565" lon="16.251905"><ele>1172.0</ele><time>2026-04-07T08:50:53.79Z</time></trkpt><trkpt lat="38.5076117" lon="16.2520167"><ele>1172.0</ele><time>2026-04-07T08:50:54.79Z</time></trkpt><trkpt lat="38.5076633" lon="16.2521317"><ele>1172.0</ele><time>2026-04-07T08:50:55.79Z</time></trkpt><trkpt lat="38.5077133" lon="16.252255"><ele>1172.0</ele><time>2026-04-07T08:50:56.79Z</time></trkpt><trkpt lat="38.5077717" lon="16.2523783"><ele>1172.0</ele><time>2026-04-07T08:50:57.79Z</time></trkpt><trkpt lat="38.5078267" lon="16.252505"><ele>1172.0</ele><time>2026-04-07T08:50:58.79Z</time></trkpt><trkpt lat="38.5078783" lon="16.25263"><ele>1172.6666666666667</ele><time>2026-04-07T08:50:59.79Z</time></trkpt><trkpt lat="38.50792" lon="16.2527583"><ele>1173.3333333333335</ele><time>2026-04-07T08:51:00.79Z</time></trkpt><trkpt lat="38.50795" lon="16.2528583"><ele>1174.0</ele><time>2026-04-07T08:51:01.79Z</time></trkpt><trkpt lat="38.5079683" lon="16.2529367"><ele>1174.6666666666667</ele><time>2026-04-07T08:51:02.79Z</time></trkpt><trkpt lat="38.5079833" lon="16.2530583"><ele>1175.3333333333333</ele><time>2026-04-07T08:51:04.791Z</time></trkpt><trkpt lat="38.5079783" lon="16.25315"><ele>1176.0</ele><time>2026-04-07T08:51:06.791Z</time></trkpt><trkpt lat="38.5079617" lon="16.253255"><ele>1176.0</ele><time>2026-04-07T08:51:08.791Z</time></trkpt><trkpt lat="38.50794" lon="16.253385"><ele>1176.0</ele><time>2026-04-07T08:51:10.79Z</time></trkpt><trkpt lat="38.50792" lon="16.2535317"><ele>1176.0</ele><time>2026-04-07T08:51:12.79Z</time></trkpt><trkpt lat="38.5078867" lon="16.2536317"><ele>1176.0</ele><time>2026-04-07T08:51:13.79Z</time></trkpt><trkpt lat="38.5078583" lon="16.253755"><ele>1176.0</ele><time>2026-04-07T08:51:14.79Z</time></trkpt><trkpt lat="38.5078133" lon="16.2538983"><ele>1174.5</ele><time>2026-04-07T08:51:15.791Z</time></trkpt><trkpt lat="38.50779" lon="16.2540433"><ele>1173.0</ele><time>2026-04-07T08:51:16.79Z</time></trkpt><trkpt lat="38.507775" lon="16.2542117"><ele>1171.5</ele><time>2026-04-07T08:51:17.79Z</time></trkpt><trkpt lat="38.50778" lon="16.2543833"><ele>1170.0</ele><time>2026-04-07T08:51:18.79Z</time></trkpt><trkpt lat="38.5077867" lon="16.2545583"><ele>1170.0</ele><time>2026-04-07T08:51:19.79Z</time></trkpt><trkpt lat="38.5077967" lon="16.254735"><ele>1170.0</ele><time>2026-04-07T08:51:20.79Z</time></trkpt><trkpt lat="38.5078017" lon="16.254915"><ele>1170.0</ele><time>2026-04-07T08:51:21.79Z</time></trkpt><trkpt lat="38.50779" lon="16.2550983"><ele>1170.0</ele><time>2026-04-07T08:51:22.791Z</time></trkpt><trkpt lat="38.5077683" lon="16.25527"><ele>1170.2</ele><time>2026-04-07T08:51:23.79Z</time></trkpt><trkpt lat="38.507735" lon="16.2554133"><ele>1170.4</ele><time>2026-04-07T08:51:24.79Z</time></trkpt><trkpt lat="38.5076933" lon="16.2555417"><ele>1170.6</ele><time>2026-04-07T08:51:25.791Z</time></trkpt><trkpt lat="38.5076383" lon="16.2556583"><ele>1170.8</ele><time>2026-04-07T08:51:26.791Z</time></trkpt><trkpt lat="38.5075683" lon="16.2557667"><ele>1171.0</ele><time>2026-04-07T08:51:27.79Z</time></trkpt><trkpt lat="38.5074783" lon="16.25587"><ele>1170.75</ele><time>2026-04-07T08:51:28.79Z</time></trkpt><trkpt lat="38.50737" lon="16.2559583"><ele>1170.5</ele><time>2026-04-07T08:51:29.79Z</time></trkpt><trkpt lat="38.5072517" lon="16.256065"><ele>1170.25</ele><time>2026-04-07T08:51:30.79Z</time></trkpt><trkpt lat="38.5071367" lon="16.2561717"><ele>1170.0</ele><time>2026-04-07T08:51:31.791Z</time></trkpt><trkpt lat="38.5070233" lon="16.2562817"><ele>1170.0</ele><time>2026-04-07T08:51:32.79Z</time></trkpt><trkpt lat="38.506905" lon="16.2563933"><ele>1170.0</ele><time>2026-04-07T08:51:33.79Z</time></trkpt><trkpt lat="38.50679" lon="16.2565083"><ele>1170.0</ele><time>2026-04-07T08:51:34.79Z</time></trkpt><trkpt lat="38.506675" lon="16.2566333"><ele>1170.0</ele><time>2026-04-07T08:51:35.79Z</time></trkpt><trkpt lat="38.5065683" lon="16.2567783"><ele>1171.3333333333333</ele><time>2026-04-07T08:51:36.79Z</time></trkpt><trkpt lat="38.506465" lon="16.256945"><ele>1172.6666666666665</ele><time>2026-04-07T08:51:37.79Z</time></trkpt><trkpt lat="38.5063783" lon="16.2571267"><ele>1174.0</ele><time>2026-04-07T08:51:38.79Z</time></trkpt><trkpt lat="38.506305" lon="16.257335"><ele>1174.5</ele><time>2026-04-07T08:51:39.79Z</time></trkpt><trkpt lat="38.5062617" lon="16.2575167"><ele>1175.0</ele><time>2026-04-07T08:51:40.79Z</time></trkpt><trkpt lat="38.50623" lon="16.2576867"><ele>1175.5</ele><time>2026-04-07T08:51:41.79Z</time></trkpt><trkpt lat="38.50623" lon="16.2578817"><ele>1176.0</ele><time>2026-04-07T08:51:42.79Z</time></trkpt><trkpt lat="38.506265" lon="16.2580767"><ele>1177.3333333333333</ele><time>2026-04-07T08:51:43.79Z</time></trkpt><trkpt lat="38.5063383" lon="16.2582633"><ele>1178.6666666666665</ele><time>2026-04-07T08:51:44.791Z</time></trkpt><trkpt lat="38.50644" lon="16.2584417"><ele>1180.0</ele><time>2026-04-07T08:51:45.79Z</time></trkpt><trkpt lat="38.5065767" lon="16.2586033"><ele>1180.0</ele><time>2026-04-07T08:51:46.79Z</time></trkpt><trkpt lat="38.5067367" lon="16.2587617"><ele>1180.0</ele><time>2026-04-07T08:51:47.791Z</time></trkpt><trkpt lat="38.5069117" lon="16.258925"><ele>1180.0</ele><time>2026-04-07T08:51:48.791Z</time></trkpt><trkpt lat="38.50707" lon="16.2590733"><ele>1180.3333333333333</ele><time>2026-04-07T08:51:49.79Z</time></trkpt><trkpt lat="38.5072217" lon="16.259225"><ele>1180.6666666666667</ele><time>2026-04-07T08:51:50.79Z</time></trkpt><trkpt lat="38.5073633" lon="16.2593767"><ele>1181.0</ele><time>2026-04-07T08:51:51.79Z</time></trkpt><trkpt lat="38.5074917" lon="16.2595083"><ele>1181.0</ele><time>2026-04-07T08:51:52.79Z</time></trkpt><trkpt lat="38.5076217" lon="16.259635"><ele>1181.0</ele><time>2026-04-07T08:51:53.79Z</time></trkpt><trkpt lat="38.5077483" lon="16.2597633"><ele>1181.0</ele><time>2026-04-07T08:51:54.79Z</time></trkpt><trkpt lat="38.5078667" lon="16.2598817"><ele>1181.0</ele><time>2026-04-07T08:51:55.79Z</time></trkpt><trkpt lat="38.5079733" lon="16.2600083"><ele>1181.0</ele><time>2026-04-07T08:51:56.791Z</time></trkpt><trkpt lat="38.50809" lon="16.2601433"><ele>1181.0</ele><time>2026-04-07T08:51:57.79Z</time></trkpt><trkpt lat="38.5082067" lon="16.2602617"><ele>1181.0</ele><time>2026-04-07T08:51:58.79Z</time></trkpt><trkpt lat="38.508325" lon="16.2603783"><ele>1181.0</ele><time>2026-04-07T08:51:59.791Z</time></trkpt><trkpt lat="38.5084533" lon="16.2604883"><ele>1181.0</ele><time>2026-04-07T08:52:00.79Z</time></trkpt><trkpt lat="38.5085833" lon="16.2605917"><ele>1181.25</ele><time>2026-04-07T08:52:01.79Z</time></trkpt><trkpt lat="38.50871" lon="16.2607083"><ele>1181.5</ele><time>2026-04-07T08:52:02.791Z</time></trkpt><trkpt lat="38.508825" lon="16.26083"><ele>1181.75</ele><time>2026-04-07T08:52:03.79Z</time></trkpt><trkpt lat="38.50892" lon="16.2609367"><ele>1182.0</ele><time>2026-04-07T08:52:04.79Z</time></trkpt><trkpt lat="38.5089933" lon="16.2610533"><ele>1181.6666666666667</ele><time>2026-04-07T08:52:05.79Z</time></trkpt><trkpt lat="38.5090383" lon="16.2611733"><ele>1181.3333333333333</ele><time>2026-04-07T08:52:06.79Z</time></trkpt><trkpt lat="38.5090633" lon="16.2612967"><ele>1181.0</ele><time>2026-04-07T08:52:07.79Z</time></trkpt><trkpt lat="38.5090767" lon="16.2613967"><ele>1180.6666666666665</ele><time>2026-04-07T08:52:08.79Z</time></trkpt><trkpt lat="38.5090583" lon="16.2615"><ele>1180.3333333333333</ele><time>2026-04-07T08:52:10.79Z</time></trkpt><trkpt lat="38.50905" lon="16.2616"><ele>1180.0</ele><time>2026-04-07T08:52:12.791Z</time></trkpt><trkpt lat="38.509055" lon="16.2617133"><ele>1179.4</ele><time>2026-04-07T08:52:14.79Z</time></trkpt><trkpt lat="38.50906" lon="16.261825"><ele>1178.8</ele><time>2026-04-07T08:52:16.791Z</time></trkpt><trkpt lat="38.5090833" lon="16.2619667"><ele>1178.2</ele><time>2026-04-07T08:52:18.79Z</time></trkpt><trkpt lat="38.5090983" lon="16.262095"><ele>1177.6</ele><time>2026-04-07T08:52:20.79Z</time></trkpt><trkpt lat="38.509105" lon="16.2622533"><ele>1177.0</ele><time>2026-04-07T08:52:22.791Z</time></trkpt><trkpt lat="38.5090867" lon="16.26235"><ele>1177.0</ele><time>2026-04-07T08:52:23.79Z</time></trkpt><trkpt lat="38.5090517" lon="16.2624383"><ele>1177.0</ele><time>2026-04-07T08:52:24.79Z</time></trkpt><trkpt lat="38.5090083" lon="16.26251"><ele>1177.0</ele><time>2026-04-07T08:52:25.791Z</time></trkpt><trkpt lat="38.50894" lon="16.2625733"><ele>1177.0</ele><time>2026-04-07T08:52:26.79Z</time></trkpt><trkpt lat="38.508865" lon="16.2626183"><ele>1177.0</ele><time>2026-04-07T08:52:27.79Z</time></trkpt><trkpt lat="38.50875" lon="16.26268"><ele>1177.0</ele><time>2026-04-07T08:52:28.79Z</time></trkpt><trkpt lat="38.508605" lon="16.2627467"><ele>1174.75</ele><time>2026-04-07T08:52:29.79Z</time></trkpt><trkpt lat="38.5085" lon="16.2628383"><ele>1172.5</ele><time>2026-04-07T08:52:30.79Z</time></trkpt><trkpt lat="38.508365" lon="16.2629683"><ele>1170.25</ele><time>2026-04-07T08:52:31.79Z</time></trkpt><trkpt lat="38.5082717" lon="16.2630667"><ele>1168.0</ele><time>2026-04-07T08:52:32.79Z</time></trkpt><trkpt lat="38.5082033" lon="16.26316"><ele>1168.0</ele><time>2026-04-07T08:52:33.79Z</time></trkpt><trkpt lat="38.5081467" lon="16.2632717"><ele>1168.0</ele><time>2026-04-07T08:52:34.79Z</time></trkpt><trkpt lat="38.5081133" lon="16.2633767"><ele>1168.0</ele><time>2026-04-07T08:52:35.79Z</time></trkpt><trkpt lat="38.5081" lon="16.26349"><ele>1168.0</ele><time>2026-04-07T08:52:36.79Z</time></trkpt><trkpt lat="38.5081267" lon="16.2635967"><ele>1168.0</ele><time>2026-04-07T08:52:37.791Z</time></trkpt><trkpt lat="38.5081917" lon="16.2637"><ele>1168.0</ele><time>2026-04-07T08:52:38.79Z</time></trkpt><trkpt lat="38.5082933" lon="16.2638167"><ele>1168.0</ele><time>2026-04-07T08:52:39.79Z</time></trkpt><trkpt lat="38.508435" lon="16.2639317"><ele>1168.0</ele><time>2026-04-07T08:52:40.79Z</time></trkpt><trkpt lat="38.5085633" lon="16.2640267"><ele>1166.2</ele><time>2026-04-07T08:52:41.79Z</time></trkpt><trkpt lat="38.5086783" lon="16.2640967"><ele>1164.4</ele><time>2026-04-07T08:52:42.79Z</time></trkpt><trkpt lat="38.508755" lon="16.264165"><ele>1162.6000000000001</ele><time>2026-04-07T08:52:43.79Z</time></trkpt><trkpt lat="38.5088183" lon="16.264235"><ele>1160.8</ele><time>2026-04-07T08:52:44.79Z</time></trkpt><trkpt lat="38.5088267" lon="16.26439"><ele>1159.0</ele><time>2026-04-07T08:52:46.791Z</time></trkpt><trkpt lat="38.5087383" lon="16.2645083"><ele>1159.0</ele><time>2026-04-07T08:52:48.79Z</time></trkpt><trkpt lat="38.5086583" lon="16.2645433"><ele>1159.0</ele><time>2026-04-07T08:52:49.79Z</time></trkpt><trkpt lat="38.5085617" lon="16.26458"><ele>1159.0</ele><time>2026-04-07T08:52:50.79Z</time></trkpt><trkpt lat="38.5084583" lon="16.2646267"><ele>1159.0</ele><time>2026-04-07T08:52:51.79Z</time></trkpt><trkpt lat="38.5083483" lon="16.2646883"><ele>1159.0</ele><time>2026-04-07T08:52:52.79Z</time></trkpt><trkpt lat="38.5082333" lon="16.26478"><ele>1158.25</ele><time>2026-04-07T08:52:53.79Z</time></trkpt><trkpt lat="38.50814" lon="16.2648817"><ele>1157.5</ele><time>2026-04-07T08:52:54.79Z</time></trkpt><trkpt lat="38.508045" lon="16.265"><ele>1156.75</ele><time>2026-04-07T08:52:55.79Z</time></trkpt><trkpt lat="38.5079583" lon="16.2651317"><ele>1156.0</ele><time>2026-04-07T08:52:56.79Z</time></trkpt><trkpt lat="38.5078683" lon="16.265305"><ele>1153.3333333333333</ele><time>2026-04-07T08:52:57.79Z</time></trkpt><trkpt lat="38.50777" lon="16.2654867"><ele>1150.6666666666667</ele><time>2026-04-07T08:52:58.79Z</time></trkpt><trkpt lat="38.5076483" lon="16.2656917"><ele>1148.0</ele><time>2026-04-07T08:52:59.79Z</time></trkpt><trkpt lat="38.507525" lon="16.2658967"><ele>1148.0</ele><time>2026-04-07T08:53:00.791Z</time></trkpt><trkpt lat="38.5074017" lon="16.26609"><ele>1148.0</ele><time>2026-04-07T08:53:01.791Z</time></trkpt><trkpt lat="38.5072767" lon="16.26627"><ele>1148.0</ele><time>2026-04-07T08:53:02.79Z</time></trkpt><trkpt lat="38.50715" lon="16.26644"><ele>1146.5</ele><time>2026-04-07T08:53:03.791Z</time></trkpt><trkpt lat="38.507035" lon="16.2665833"><ele>1145.0</ele><time>2026-04-07T08:53:04.791Z</time></trkpt><trkpt lat="38.50694" lon="16.2667033"><ele>1143.5</ele><time>2026-04-07T08:53:05.79Z</time></trkpt><trkpt lat="38.5068267" lon="16.266825"><ele>1142.0</ele><time>2026-04-07T08:53:06.791Z</time></trkpt><trkpt lat="38.506735" lon="16.266925"><ele>1142.0</ele><time>2026-04-07T08:53:07.79Z</time></trkpt><trkpt lat="38.5066383" lon="16.2670083"><ele>1142.0</ele><time>2026-04-07T08:53:08.79Z</time></trkpt><trkpt lat="38.5065233" lon="16.267095"><ele>1142.0</ele><time>2026-04-07T08:53:09.79Z</time></trkpt><trkpt lat="38.5064117" lon="16.2671567"><ele>1142.0</ele><time>2026-04-07T08:53:10.79Z</time></trkpt><trkpt lat="38.5063033" lon="16.2672367"><ele>1141.75</ele><time>2026-04-07T08:53:11.79Z</time></trkpt><trkpt lat="38.5062" lon="16.2673133"><ele>1141.5</ele><time>2026-04-07T08:53:12.791Z</time></trkpt><trkpt lat="38.5061" lon="16.2673767"><ele>1141.25</ele><time>2026-04-07T08:53:13.791Z</time></trkpt><trkpt lat="38.5059933" lon="16.2674533"><ele>1141.0</ele><time>2026-04-07T08:53:14.79Z</time></trkpt><trkpt lat="38.5058833" lon="16.267525"><ele>1141.0</ele><time>2026-04-07T08:53:15.79Z</time></trkpt><trkpt lat="38.5057717" lon="16.2676233"><ele>1141.0</ele><time>2026-04-07T08:53:16.79Z</time></trkpt><trkpt lat="38.5056767" lon="16.2677383"><ele>1141.0</ele><time>2026-04-07T08:53:17.791Z</time></trkpt><trkpt lat="38.5056" lon="16.26787"><ele>1141.0</ele><time>2026-04-07T08:53:18.79Z</time></trkpt><trkpt lat="38.5055417" lon="16.2680083"><ele>1140.75</ele><time>2026-04-07T08:53:19.791Z</time></trkpt><trkpt lat="38.5055" lon="16.268185"><ele>1140.5</ele><time>2026-04-07T08:53:20.79Z</time></trkpt><trkpt lat="38.5054717" lon="16.2683433"><ele>1140.25</ele><time>2026-04-07T08:53:21.79Z</time></trkpt><trkpt lat="38.5054633" lon="16.268495"><ele>1140.0</ele><time>2026-04-07T08:53:22.79Z</time></trkpt><trkpt lat="38.505485" lon="16.26864"><ele>1140.0</ele><time>2026-04-07T08:53:23.79Z</time></trkpt><trkpt lat="38.5055333" lon="16.268775"><ele>1140.0</ele><time>2026-04-07T08:53:24.791Z</time></trkpt><trkpt lat="38.50561" lon="16.2689067"><ele>1140.0</ele><time>2026-04-07T08:53:25.791Z</time></trkpt><trkpt lat="38.5057083" lon="16.2690183"><ele>1140.0</ele><time>2026-04-07T08:53:26.791Z</time></trkpt><trkpt lat="38.5058183" lon="16.2691217"><ele>1138.5</ele><time>2026-04-07T08:53:27.79Z</time></trkpt><trkpt lat="38.5059217" lon="16.2692183"><ele>1137.0</ele><time>2026-04-07T08:53:28.791Z</time></trkpt><trkpt lat="38.506015" lon="16.269305"><ele>1135.5</ele><time>2026-04-07T08:53:29.791Z</time></trkpt><trkpt lat="38.5061" lon="16.2693867"><ele>1134.0</ele><time>2026-04-07T08:53:30.79Z</time></trkpt><trkpt lat="38.5061767" lon="16.2694833"><ele>1134.25</ele><time>2026-04-07T08:53:31.79Z</time></trkpt><trkpt lat="38.506265" lon="16.269605"><ele>1134.5</ele><time>2026-04-07T08:53:32.791Z</time></trkpt><trkpt lat="38.5063417" lon="16.2697217"><ele>1134.75</ele><time>2026-04-07T08:53:33.79Z</time></trkpt><trkpt lat="38.5064" lon="16.26984"><ele>1135.0</ele><time>2026-04-07T08:53:34.79Z</time></trkpt><trkpt lat="38.5064483" lon="16.2699833"><ele>1134.0</ele><time>2026-04-07T08:53:35.79Z</time></trkpt><trkpt lat="38.5064717" lon="16.2701183"><ele>1133.0</ele><time>2026-04-07T08:53:36.791Z</time></trkpt><trkpt lat="38.50648" lon="16.27026"><ele>1132.0</ele><time>2026-04-07T08:53:37.79Z</time></trkpt><trkpt lat="38.5064583" lon="16.2704167"><ele>1131.0</ele><time>2026-04-07T08:53:38.79Z</time></trkpt><trkpt lat="38.50643" lon="16.2705867"><ele>1130.75</ele><time>2026-04-07T08:53:39.79Z</time></trkpt><trkpt lat="38.5063833" lon="16.27076"><ele>1130.5</ele><time>2026-04-07T08:53:40.79Z</time></trkpt><trkpt lat="38.506345" lon="16.2709417"><ele>1130.25</ele><time>2026-04-07T08:53:41.791Z</time></trkpt><trkpt lat="38.5063067" lon="16.2711183"><ele>1130.0</ele><time>2026-04-07T08:53:42.79Z</time></trkpt><trkpt lat="38.5062683" lon="16.27131"><ele>1128.25</ele><time>2026-04-07T08:53:43.79Z</time></trkpt><trkpt lat="38.5062383" lon="16.271475"><ele>1126.5</ele><time>2026-04-07T08:53:44.791Z</time></trkpt><trkpt lat="38.5062033" lon="16.2716217"><ele>1124.75</ele><time>2026-04-07T08:53:45.791Z</time></trkpt><trkpt lat="38.50618" lon="16.271765"><ele>1123.0</ele><time>2026-04-07T08:53:46.79Z</time></trkpt><trkpt lat="38.5061617" lon="16.2719133"><ele>1123.0</ele><time>2026-04-07T08:53:47.791Z</time></trkpt><trkpt lat="38.5061367" lon="16.272055"><ele>1123.0</ele><time>2026-04-07T08:53:48.79Z</time></trkpt><trkpt lat="38.5061017" lon="16.272195"><ele>1123.0</ele><time>2026-04-07T08:53:49.791Z</time></trkpt><trkpt lat="38.5060667" lon="16.2723333"><ele>1123.0</ele><time>2026-04-07T08:53:50.79Z</time></trkpt><trkpt lat="38.50604" lon="16.2724633"><ele>1123.0</ele><time>2026-04-07T08:53:51.791Z</time></trkpt><trkpt lat="38.5060033" lon="16.27259"><ele>1123.8</ele><time>2026-04-07T08:53:52.79Z</time></trkpt><trkpt lat="38.5059767" lon="16.272695"><ele>1124.6</ele><time>2026-04-07T08:53:53.79Z</time></trkpt><trkpt lat="38.5059583" lon="16.27279"><ele>1125.4</ele><time>2026-04-07T08:53:54.791Z</time></trkpt><trkpt lat="38.5059433" lon="16.272885"><ele>1126.2</ele><time>2026-04-07T08:53:55.79Z</time></trkpt><trkpt lat="38.5059783" lon="16.2730433"><ele>1127.0</ele><time>2026-04-07T08:53:57.79Z</time></trkpt><trkpt lat="38.50604" lon="16.2731317"><ele>1127.0</ele><time>2026-04-07T08:53:58.79Z</time></trkpt><trkpt lat="38.5061167" lon="16.2732267"><ele>1127.0</ele><time>2026-04-07T08:53:59.791Z</time></trkpt><trkpt lat="38.5062133" lon="16.27331"><ele>1127.0</ele><time>2026-04-07T08:54:00.791Z</time></trkpt><trkpt lat="38.506325" lon="16.27338"><ele>1127.0</ele><time>2026-04-07T08:54:01.791Z</time></trkpt><trkpt lat="38.5064633" lon="16.2734383"><ele>1127.75</ele><time>2026-04-07T08:54:02.79Z</time></trkpt><trkpt lat="38.5066033" lon="16.27347"><ele>1128.5</ele><time>2026-04-07T08:54:03.79Z</time></trkpt><trkpt lat="38.5067417" lon="16.273485"><ele>1129.25</ele><time>2026-04-07T08:54:04.79Z</time></trkpt><trkpt lat="38.5068917" lon="16.2734933"><ele>1130.0</ele><time>2026-04-07T08:54:05.79Z</time></trkpt><trkpt lat="38.5070283" lon="16.2735133"><ele>1130.5</ele><time>2026-04-07T08:54:06.79Z</time></trkpt><trkpt lat="38.5071517" lon="16.2735617"><ele>1131.0</ele><time>2026-04-07T08:54:07.79Z</time></trkpt><trkpt lat="38.50727" lon="16.2736567"><ele>1131.5</ele><time>2026-04-07T08:54:08.791Z</time></trkpt><trkpt lat="38.5073633" lon="16.2737517"><ele>1132.0</ele><time>2026-04-07T08:54:09.79Z</time></trkpt><trkpt lat="38.507445" lon="16.2738817"><ele>1131.5</ele><time>2026-04-07T08:54:10.79Z</time></trkpt><trkpt lat="38.5075083" lon="16.2740267"><ele>1131.0</ele><time>2026-04-07T08:54:11.79Z</time></trkpt><trkpt lat="38.5075817" lon="16.274175"><ele>1130.5</ele><time>2026-04-07T08:54:12.791Z</time></trkpt><trkpt lat="38.5076583" lon="16.2743167"><ele>1130.0</ele><time>2026-04-07T08:54:13.79Z</time></trkpt><trkpt lat="38.50776" lon="16.2744367"><ele>1130.0</ele><time>2026-04-07T08:54:14.79Z</time></trkpt><trkpt lat="38.5078867" lon="16.2745383"><ele>1130.0</ele><time>2026-04-07T08:54:15.79Z</time></trkpt><trkpt lat="38.5080333" lon="16.27464"><ele>1130.0</ele><time>2026-04-07T08:54:16.79Z</time></trkpt><trkpt lat="38.5081817" lon="16.2747267"><ele>1127.6666666666667</ele><time>2026-04-07T08:54:17.79Z</time></trkpt><trkpt lat="38.5083433" lon="16.2748233"><ele>1125.3333333333333</ele><time>2026-04-07T08:54:18.791Z</time></trkpt><trkpt lat="38.5085017" lon="16.2749067"><ele>1123.0</ele><time>2026-04-07T08:54:19.79Z</time></trkpt><trkpt lat="38.508645" lon="16.2749817"><ele>1120.5</ele><time>2026-04-07T08:54:20.79Z</time></trkpt><trkpt lat="38.5087783" lon="16.2750467"><ele>1118.0</ele><time>2026-04-07T08:54:21.791Z</time></trkpt><trkpt lat="38.5088983" lon="16.2751183"><ele>1115.5</ele><time>2026-04-07T08:54:22.791Z</time></trkpt><trkpt lat="38.5089867" lon="16.2751767"><ele>1113.0</ele><time>2026-04-07T08:54:23.79Z</time></trkpt><trkpt lat="38.5090633" lon="16.275235"><ele>1113.0</ele><time>2026-04-07T08:54:24.79Z</time></trkpt><trkpt lat="38.50913" lon="16.2753133"><ele>1113.0</ele><time>2026-04-07T08:54:25.79Z</time></trkpt><trkpt lat="38.50918" lon="16.2754033"><ele>1113.0</ele><time>2026-04-07T08:54:26.79Z</time></trkpt><trkpt lat="38.50921" lon="16.2755033"><ele>1113.0</ele><time>2026-04-07T08:54:27.79Z</time></trkpt><trkpt lat="38.5092067" lon="16.2756117"><ele>1113.0</ele><time>2026-04-07T08:54:28.79Z</time></trkpt><trkpt lat="38.50919" lon="16.275735"><ele>1113.0</ele><time>2026-04-07T08:54:29.79Z</time></trkpt><trkpt lat="38.5091633" lon="16.27587"><ele>1112.5</ele><time>2026-04-07T08:54:30.79Z</time></trkpt><trkpt lat="38.50912" lon="16.276025"><ele>1112.0</ele><time>2026-04-07T08:54:31.791Z</time></trkpt><trkpt lat="38.5090583" lon="16.2761967"><ele>1111.5</ele><time>2026-04-07T08:54:32.79Z</time></trkpt><trkpt lat="38.5089933" lon="16.2763833"><ele>1111.0</ele><time>2026-04-07T08:54:33.79Z</time></trkpt><trkpt lat="38.5089317" lon="16.2765967"><ele>1110.0</ele><time>2026-04-07T08:54:34.79Z</time></trkpt><trkpt lat="38.5088667" lon="16.2768183"><ele>1109.0</ele><time>2026-04-07T08:54:35.79Z</time></trkpt><trkpt lat="38.5088367" lon="16.2769933"><ele>1108.0</ele><time>2026-04-07T08:54:36.79Z</time></trkpt><trkpt lat="38.5088" lon="16.2772117"><ele>1106.6666666666665</ele><time>2026-04-07T08:54:37.79Z</time></trkpt><trkpt lat="38.5087683" lon="16.2774333"><ele>1105.3333333333333</ele><time>2026-04-07T08:54:38.79Z</time></trkpt><trkpt lat="38.5087683" lon="16.2776217"><ele>1104.0</ele><time>2026-04-07T08:54:39.79Z</time></trkpt><trkpt lat="38.5087633" lon="16.27783"><ele>1104.0</ele><time>2026-04-07T08:54:40.79Z</time></trkpt><trkpt lat="38.5087517" lon="16.2780433"><ele>1104.0</ele><time>2026-04-07T08:54:41.791Z</time></trkpt><trkpt lat="38.50875" lon="16.278255"><ele>1104.0</ele><time>2026-04-07T08:54:42.791Z</time></trkpt><trkpt lat="38.5087417" lon="16.278455"><ele>1104.0</ele><time>2026-04-07T08:54:43.79Z</time></trkpt><trkpt lat="38.5087417" lon="16.2786583"><ele>1104.0</ele><time>2026-04-07T08:54:44.79Z</time></trkpt><trkpt lat="38.5087567" lon="16.27887"><ele>1104.0</ele><time>2026-04-07T08:54:45.79Z</time></trkpt><trkpt lat="38.5087883" lon="16.2790733"><ele>1099.6666666666667</ele><time>2026-04-07T08:54:46.79Z</time></trkpt><trkpt lat="38.508835" lon="16.2792983"><ele>1095.3333333333335</ele><time>2026-04-07T08:54:47.79Z</time></trkpt><trkpt lat="38.5089067" lon="16.27952"><ele>1091.0</ele><time>2026-04-07T08:54:48.791Z</time></trkpt><trkpt lat="38.5089783" lon="16.2797233"><ele>1090.0</ele><time>2026-04-07T08:54:49.791Z</time></trkpt><trkpt lat="38.509055" lon="16.279935"><ele>1089.0</ele><time>2026-04-07T08:54:50.791Z</time></trkpt><trkpt lat="38.5091383" lon="16.2801233"><ele>1088.0</ele><time>2026-04-07T08:54:51.791Z</time></trkpt><trkpt lat="38.5092267" lon="16.2803133"><ele>1088.0</ele><time>2026-04-07T08:54:52.79Z</time></trkpt><trkpt lat="38.5093083" lon="16.2804917"><ele>1088.0</ele><time>2026-04-07T08:54:53.79Z</time></trkpt><trkpt lat="38.5093833" lon="16.2806733"><ele>1088.0</ele><time>2026-04-07T08:54:54.79Z</time></trkpt><trkpt lat="38.50945" lon="16.28084"><ele>1088.2</ele><time>2026-04-07T08:54:55.79Z</time></trkpt><trkpt lat="38.5095083" lon="16.2809967"><ele>1088.4</ele><time>2026-04-07T08:54:56.79Z</time></trkpt><trkpt lat="38.5095533" lon="16.281135"><ele>1088.6000000000001</ele><time>2026-04-07T08:54:57.79Z</time></trkpt><trkpt lat="38.5095867" lon="16.2812367"><ele>1088.8</ele><time>2026-04-07T08:54:58.79Z</time></trkpt><trkpt lat="38.5096133" lon="16.281315"><ele>1089.0</ele><time>2026-04-07T08:54:59.791Z</time></trkpt><trkpt lat="38.5096383" lon="16.28139"><ele>1088.4</ele><time>2026-04-07T08:55:00.791Z</time></trkpt><trkpt lat="38.5096683" lon="16.2815017"><ele>1087.8000000000002</ele><time>2026-04-07T08:55:02.79Z</time></trkpt><trkpt lat="38.50969" lon="16.2815933"><ele>1087.1999999999998</ele><time>2026-04-07T08:55:05.79Z</time></trkpt><trkpt lat="38.50972" lon="16.2816917"><ele>1086.6</ele><time>2026-04-07T08:55:07.79Z</time></trkpt><trkpt lat="38.5097517" lon="16.2818167"><ele>1086.0</ele><time>2026-04-07T08:55:09.791Z</time></trkpt><trkpt lat="38.5098083" lon="16.2819633"><ele>1086.0</ele><time>2026-04-07T08:55:11.79Z</time></trkpt><trkpt lat="38.5098383" lon="16.2820683"><ele>1086.0</ele><time>2026-04-07T08:55:12.79Z</time></trkpt><trkpt lat="38.5098767" lon="16.2821883"><ele>1086.0</ele><time>2026-04-07T08:55:13.791Z</time></trkpt><trkpt lat="38.5099167" lon="16.2823167"><ele>1086.0</ele><time>2026-04-07T08:55:14.791Z</time></trkpt><trkpt lat="38.50996" lon="16.2824633"><ele>1086.0</ele><time>2026-04-07T08:55:15.79Z</time></trkpt><trkpt lat="38.5100067" lon="16.2826183"><ele>1085.75</ele><time>2026-04-07T08:55:16.79Z</time></trkpt><trkpt lat="38.5100533" lon="16.282775"><ele>1085.5</ele><time>2026-04-07T08:55:17.79Z</time></trkpt><trkpt lat="38.5101017" lon="16.282945"><ele>1085.25</ele><time>2026-04-07T08:55:18.79Z</time></trkpt><trkpt lat="38.51015" lon="16.2831183"><ele>1085.0</ele><time>2026-04-07T08:55:19.791Z</time></trkpt><trkpt lat="38.5101933" lon="16.2833117"><ele>1084.6666666666667</ele><time>2026-04-07T08:55:20.79Z</time></trkpt><trkpt lat="38.5102383" lon="16.2835083"><ele>1084.3333333333333</ele><time>2026-04-07T08:55:21.79Z</time></trkpt><trkpt lat="38.5102783" lon="16.283725"><ele>1084.0</ele><time>2026-04-07T08:55:22.791Z</time></trkpt><trkpt lat="38.51032" lon="16.2839683"><ele>1084.0</ele><time>2026-04-07T08:55:23.791Z</time></trkpt><trkpt lat="38.5103633" lon="16.2842217"><ele>1084.0</ele><time>2026-04-07T08:55:24.791Z</time></trkpt><trkpt lat="38.5103933" lon="16.28446"><ele>1084.0</ele><time>2026-04-07T08:55:25.79Z</time></trkpt><trkpt lat="38.5104217" lon="16.2846967"><ele>1081.3333333333333</ele><time>2026-04-07T08:55:26.79Z</time></trkpt><trkpt lat="38.51044" lon="16.2849217"><ele>1078.6666666666667</ele><time>2026-04-07T08:55:27.79Z</time></trkpt><trkpt lat="38.5104567" lon="16.2851667"><ele>1076.0</ele><time>2026-04-07T08:55:28.79Z</time></trkpt><trkpt lat="38.510475" lon="16.2854133"><ele>1078.3333333333335</ele><time>2026-04-07T08:55:29.79Z</time></trkpt><trkpt lat="38.510505" lon="16.2856483"><ele>1080.6666666666667</ele><time>2026-04-07T08:55:30.791Z</time></trkpt><trkpt lat="38.510515" lon="16.2858717"><ele>1083.0</ele><time>2026-04-07T08:55:31.791Z</time></trkpt><trkpt lat="38.51051" lon="16.28609"><ele>1083.0</ele><time>2026-04-07T08:55:32.79Z</time></trkpt><trkpt lat="38.5105" lon="16.2863133"><ele>1083.0</ele><time>2026-04-07T08:55:33.791Z</time></trkpt><trkpt lat="38.5104683" lon="16.2865433"><ele>1083.0</ele><time>2026-04-07T08:55:34.79Z</time></trkpt><trkpt lat="38.5104383" lon="16.28676"><ele>1079.6666666666667</ele><time>2026-04-07T08:55:35.791Z</time></trkpt><trkpt lat="38.5104067" lon="16.2869783"><ele>1076.3333333333335</ele><time>2026-04-07T08:55:36.79Z</time></trkpt><trkpt lat="38.510375" lon="16.2871717"><ele>1073.0</ele><time>2026-04-07T08:55:37.79Z</time></trkpt><trkpt lat="38.5103533" lon="16.2873433"><ele>1073.0</ele><time>2026-04-07T08:55:38.79Z</time></trkpt><trkpt lat="38.5103533" lon="16.287485"><ele>1073.0</ele><time>2026-04-07T08:55:39.79Z</time></trkpt><trkpt lat="38.510375" lon="16.287605"><ele>1073.0</ele><time>2026-04-07T08:55:40.79Z</time></trkpt><trkpt lat="38.5104383" lon="16.28769"><ele>1073.0</ele><time>2026-04-07T08:55:41.791Z</time></trkpt><trkpt lat="38.5105333" lon="16.28776"><ele>1073.0</ele><time>2026-04-07T08:55:42.791Z</time></trkpt><trkpt lat="38.5106417" lon="16.2878217"><ele>1073.25</ele><time>2026-04-07T08:55:43.79Z</time></trkpt><trkpt lat="38.5107567" lon="16.2878683"><ele>1073.5</ele><time>2026-04-07T08:55:44.791Z</time></trkpt><trkpt lat="38.5108733" lon="16.2879417"><ele>1073.75</ele><time>2026-04-07T08:55:45.791Z</time></trkpt><trkpt lat="38.5109883" lon="16.2880433"><ele>1074.0</ele><time>2026-04-07T08:55:46.79Z</time></trkpt><trkpt lat="38.5110967" lon="16.2881633"><ele>1074.0</ele><time>2026-04-07T08:55:47.79Z</time></trkpt><trkpt lat="38.5111967" lon="16.2883"><ele>1074.0</ele><time>2026-04-07T08:55:48.791Z</time></trkpt><trkpt lat="38.51129" lon="16.2884517"><ele>1074.0</ele><time>2026-04-07T08:55:49.79Z</time></trkpt><trkpt lat="38.51138" lon="16.288635"><ele>1072.0</ele><time>2026-04-07T08:55:50.79Z</time></trkpt><trkpt lat="38.511475" lon="16.2888183"><ele>1070.0</ele><time>2026-04-07T08:55:51.791Z</time></trkpt><trkpt lat="38.5115683" lon="16.2889983"><ele>1068.0</ele><time>2026-04-07T08:55:52.79Z</time></trkpt><trkpt lat="38.511665" lon="16.2891733"><ele>1068.0</ele><time>2026-04-07T08:55:53.79Z</time></trkpt><trkpt lat="38.5117517" lon="16.2893533"><ele>1068.0</ele><time>2026-04-07T08:55:54.791Z</time></trkpt><trkpt lat="38.5118517" lon="16.2895367"><ele>1068.0</ele><time>2026-04-07T08:55:55.79Z</time></trkpt><trkpt lat="38.511955" lon="16.289735"><ele>1066.6666666666667</ele><time>2026-04-07T08:55:56.79Z</time></trkpt><trkpt lat="38.51206" lon="16.2899383"><ele>1065.3333333333335</ele><time>2026-04-07T08:55:57.791Z</time></trkpt><trkpt lat="38.512155" lon="16.2901417"><ele>1064.0</ele><time>2026-04-07T08:55:58.791Z</time></trkpt><trkpt lat="38.5122333" lon="16.290355"><ele>1064.0</ele><time>2026-04-07T08:55:59.791Z</time></trkpt><trkpt lat="38.5123" lon="16.29057"><ele>1064.0</ele><time>2026-04-07T08:56:00.79Z</time></trkpt><trkpt lat="38.5123683" lon="16.2907833"><ele>1064.0</ele><time>2026-04-07T08:56:01.791Z</time></trkpt><trkpt lat="38.512445" lon="16.29099"><ele>1063.5</ele><time>2026-04-07T08:56:02.79Z</time></trkpt><trkpt lat="38.5125017" lon="16.2911783"><ele>1063.0</ele><time>2026-04-07T08:56:03.79Z</time></trkpt><trkpt lat="38.51255" lon="16.29136"><ele>1062.5</ele><time>2026-04-07T08:56:04.79Z</time></trkpt><trkpt lat="38.5125767" lon="16.291525"><ele>1062.0</ele><time>2026-04-07T08:56:05.791Z</time></trkpt><trkpt lat="38.51259" lon="16.2917017"><ele>1062.0</ele><time>2026-04-07T08:56:06.79Z</time></trkpt><trkpt lat="38.5126017" lon="16.2919217"><ele>1062.0</ele><time>2026-04-07T08:56:07.79Z</time></trkpt><trkpt lat="38.5125967" lon="16.2921367"><ele>1062.0</ele><time>2026-04-07T08:56:08.791Z</time></trkpt><trkpt lat="38.512595" lon="16.29235"><ele>1062.0</ele><time>2026-04-07T08:56:09.79Z</time></trkpt><trkpt lat="38.512585" lon="16.2925567"><ele>1062.0</ele><time>2026-04-07T08:56:10.791Z</time></trkpt><trkpt lat="38.5125867" lon="16.2927517"><ele>1062.0</ele><time>2026-04-07T08:56:11.79Z</time></trkpt><trkpt lat="38.512605" lon="16.29296"><ele>1059.6666666666667</ele><time>2026-04-07T08:56:12.79Z</time></trkpt><trkpt lat="38.512625" lon="16.29317"><ele>1057.3333333333335</ele><time>2026-04-07T08:56:13.79Z</time></trkpt><trkpt lat="38.512655" lon="16.2933733"><ele>1055.0</ele><time>2026-04-07T08:56:14.79Z</time></trkpt><trkpt lat="38.512695" lon="16.2935567"><ele>1055.0</ele><time>2026-04-07T08:56:15.791Z</time></trkpt><trkpt lat="38.512745" lon="16.2937083"><ele>1055.0</ele><time>2026-04-07T08:56:16.79Z</time></trkpt><trkpt lat="38.512795" lon="16.2938333"><ele>1055.0</ele><time>2026-04-07T08:56:17.79Z</time></trkpt><trkpt lat="38.512845" lon="16.293925"><ele>1055.0</ele><time>2026-04-07T08:56:18.791Z</time></trkpt><trkpt lat="38.512905" lon="16.293995"><ele>1055.0</ele><time>2026-04-07T08:56:19.79Z</time></trkpt><trkpt lat="38.512965" lon="16.2940467"><ele>1054.8</ele><time>2026-04-07T08:56:20.79Z</time></trkpt><trkpt lat="38.5130367" lon="16.2940767"><ele>1054.6</ele><time>2026-04-07T08:56:21.791Z</time></trkpt><trkpt lat="38.5131233" lon="16.29409"><ele>1054.4</ele><time>2026-04-07T08:56:22.791Z</time></trkpt><trkpt lat="38.5132317" lon="16.2940917"><ele>1054.2</ele><time>2026-04-07T08:56:23.79Z</time></trkpt><trkpt lat="38.5133417" lon="16.2941067"><ele>1054.0</ele><time>2026-04-07T08:56:24.791Z</time></trkpt><trkpt lat="38.51348" lon="16.2941083"><ele>1054.0</ele><time>2026-04-07T08:56:25.79Z</time></trkpt><trkpt lat="38.513625" lon="16.29409"><ele>1054.0</ele><time>2026-04-07T08:56:26.79Z</time></trkpt><trkpt lat="38.513775" lon="16.2940383"><ele>1054.0</ele><time>2026-04-07T08:56:27.79Z</time></trkpt><trkpt lat="38.5139217" lon="16.2939667"><ele>1054.25</ele><time>2026-04-07T08:56:28.79Z</time></trkpt><trkpt lat="38.5140383" lon="16.2939167"><ele>1054.5</ele><time>2026-04-07T08:56:29.791Z</time></trkpt><trkpt lat="38.51417" lon="16.293855"><ele>1054.75</ele><time>2026-04-07T08:56:30.79Z</time></trkpt><trkpt lat="38.5142983" lon="16.293815"><ele>1055.0</ele><time>2026-04-07T08:56:31.791Z</time></trkpt><trkpt lat="38.5144017" lon="16.2938367"><ele>1055.0</ele><time>2026-04-07T08:56:32.791Z</time></trkpt><trkpt lat="38.514495" lon="16.29386"><ele>1055.0</ele><time>2026-04-07T08:56:33.79Z</time></trkpt><trkpt lat="38.5145667" lon="16.2939033"><ele>1055.0</ele><time>2026-04-07T08:56:34.791Z</time></trkpt><trkpt lat="38.5146133" lon="16.2939683"><ele>1055.0</ele><time>2026-04-07T08:56:35.79Z</time></trkpt><trkpt lat="38.514625" lon="16.29406"><ele>1055.0</ele><time>2026-04-07T08:56:36.79Z</time></trkpt><trkpt lat="38.514635" lon="16.2941883"><ele>1055.0</ele><time>2026-04-07T08:56:37.79Z</time></trkpt><trkpt lat="38.5146683" lon="16.2943333"><ele>1049.5</ele><time>2026-04-07T08:56:38.79Z</time></trkpt><trkpt lat="38.5147183" lon="16.2944717"><ele>1044.0</ele><time>2026-04-07T08:56:39.79Z</time></trkpt><trkpt lat="38.5147933" lon="16.2945933"><ele>1038.5</ele><time>2026-04-07T08:56:40.79Z</time></trkpt><trkpt lat="38.5148917" lon="16.2947033"><ele>1033.0</ele><time>2026-04-07T08:56:41.79Z</time></trkpt><trkpt lat="38.5149933" lon="16.2948183"><ele>1031.75</ele><time>2026-04-07T08:56:42.791Z</time></trkpt><trkpt lat="38.51509" lon="16.294935"><ele>1030.5</ele><time>2026-04-07T08:56:43.79Z</time></trkpt><trkpt lat="38.51517" lon="16.2950567"><ele>1029.25</ele><time>2026-04-07T08:56:44.79Z</time></trkpt><trkpt lat="38.5152417" lon="16.2952117"><ele>1028.0</ele><time>2026-04-07T08:56:45.79Z</time></trkpt><trkpt lat="38.515315" lon="16.295395"><ele>1024.6666666666667</ele><time>2026-04-07T08:56:46.79Z</time></trkpt><trkpt lat="38.5153883" lon="16.2955983"><ele>1021.3333333333333</ele><time>2026-04-07T08:56:47.79Z</time></trkpt><trkpt lat="38.5154533" lon="16.295815"><ele>1018.0</ele><time>2026-04-07T08:56:48.79Z</time></trkpt><trkpt lat="38.5155233" lon="16.2960317"><ele>1016.0</ele><time>2026-04-07T08:56:49.791Z</time></trkpt><trkpt lat="38.5155983" lon="16.2962367"><ele>1014.0</ele><time>2026-04-07T08:56:50.79Z</time></trkpt><trkpt lat="38.5156883" lon="16.29642"><ele>1012.0</ele><time>2026-04-07T08:56:51.791Z</time></trkpt><trkpt lat="38.5157983" lon="16.29659"><ele>1010.6666666666666</ele><time>2026-04-07T08:56:52.791Z</time></trkpt><trkpt lat="38.5159183" lon="16.296775"><ele>1009.3333333333333</ele><time>2026-04-07T08:56:53.791Z</time></trkpt><trkpt lat="38.5160417" lon="16.29697"><ele>1008.0</ele><time>2026-04-07T08:56:54.79Z</time></trkpt><trkpt lat="38.5161517" lon="16.29715"><ele>1005.5</ele><time>2026-04-07T08:56:55.79Z</time></trkpt><trkpt lat="38.5162267" lon="16.297295"><ele>1003.0</ele><time>2026-04-07T08:56:56.79Z</time></trkpt><trkpt lat="38.516295" lon="16.2974417"><ele>1000.5</ele><time>2026-04-07T08:56:57.79Z</time></trkpt><trkpt lat="38.5163467" lon="16.297605"><ele>998.0</ele><time>2026-04-07T08:56:58.791Z</time></trkpt><trkpt lat="38.5164" lon="16.2977967"><ele>996.6666666666667</ele><time>2026-04-07T08:56:59.79Z</time></trkpt><trkpt lat="38.5164467" lon="16.298"><ele>995.3333333333333</ele><time>2026-04-07T08:57:00.79Z</time></trkpt><trkpt lat="38.5164817" lon="16.29821"><ele>994.0</ele><time>2026-04-07T08:57:01.79Z</time></trkpt><trkpt lat="38.5165033" lon="16.298425"><ele>992.3333333333333</ele><time>2026-04-07T08:57:02.791Z</time></trkpt><trkpt lat="38.5165083" lon="16.298655"><ele>990.6666666666667</ele><time>2026-04-07T08:57:03.79Z</time></trkpt><trkpt lat="38.51649" lon="16.2988733"><ele>989.0</ele><time>2026-04-07T08:57:04.791Z</time></trkpt><trkpt lat="38.5164633" lon="16.2990867"><ele>987.75</ele><time>2026-04-07T08:57:05.79Z</time></trkpt><trkpt lat="38.516435" lon="16.2992667"><ele>986.5</ele><time>2026-04-07T08:57:06.79Z</time></trkpt><trkpt lat="38.5164233" lon="16.299435"><ele>985.25</ele><time>2026-04-07T08:57:07.791Z</time></trkpt><trkpt lat="38.516445" lon="16.2996133"><ele>984.0</ele><time>2026-04-07T08:57:08.791Z</time></trkpt><trkpt lat="38.5165067" lon="16.29981"><ele>981.3333333333333</ele><time>2026-04-07T08:57:09.79Z</time></trkpt><trkpt lat="38.5165783" lon="16.30001"><ele>978.6666666666666</ele><time>2026-04-07T08:57:10.79Z</time></trkpt><trkpt lat="38.51666" lon="16.3002083"><ele>976.0</ele><time>2026-04-07T08:57:11.791Z</time></trkpt><trkpt lat="38.5167333" lon="16.300415"><ele>974.6666666666666</ele><time>2026-04-07T08:57:12.79Z</time></trkpt><trkpt lat="38.5168" lon="16.3006233"><ele>973.3333333333333</ele><time>2026-04-07T08:57:13.79Z</time></trkpt><trkpt lat="38.51688" lon="16.3008233"><ele>972.0</ele><time>2026-04-07T08:57:14.79Z</time></trkpt><trkpt lat="38.5169567" lon="16.3010183"><ele>972.0</ele><time>2026-04-07T08:57:15.79Z</time></trkpt><trkpt lat="38.5170117" lon="16.3011917"><ele>972.0</ele><time>2026-04-07T08:57:16.791Z</time></trkpt><trkpt lat="38.5170633" lon="16.301365"><ele>972.0</ele><time>2026-04-07T08:57:17.79Z</time></trkpt><trkpt lat="38.5171067" lon="16.301525"><ele>972.0</ele><time>2026-04-07T08:57:18.79Z</time></trkpt><trkpt lat="38.5171283" lon="16.301665"><ele>971.75</ele><time>2026-04-07T08:57:19.79Z</time></trkpt><trkpt lat="38.5171067" lon="16.3018083"><ele>971.5</ele><time>2026-04-07T08:57:20.791Z</time></trkpt><trkpt lat="38.51705" lon="16.3019333"><ele>971.25</ele><time>2026-04-07T08:57:21.79Z</time></trkpt><trkpt lat="38.5169983" lon="16.3020717"><ele>971.0</ele><time>2026-04-07T08:57:22.79Z</time></trkpt><trkpt lat="38.51694" lon="16.3022383"><ele>970.6666666666667</ele><time>2026-04-07T08:57:23.791Z</time></trkpt><trkpt lat="38.51689" lon="16.3024133"><ele>970.3333333333333</ele><time>2026-04-07T08:57:24.79Z</time></trkpt><trkpt lat="38.5168467" lon="16.3026017"><ele>970.0</ele><time>2026-04-07T08:57:25.791Z</time></trkpt><trkpt lat="38.5168183" lon="16.3028117"><ele>970.0</ele><time>2026-04-07T08:57:26.791Z</time></trkpt><trkpt lat="38.516795" lon="16.303055"><ele>970.0</ele><time>2026-04-07T08:57:27.79Z</time></trkpt><trkpt lat="38.5167733" lon="16.303285"><ele>970.0</ele><time>2026-04-07T08:57:28.79Z</time></trkpt><trkpt lat="38.5167533" lon="16.303495"><ele>969.0</ele><time>2026-04-07T08:57:29.79Z</time></trkpt><trkpt lat="38.5167317" lon="16.30369"><ele>968.0</ele><time>2026-04-07T08:57:30.791Z</time></trkpt><trkpt lat="38.516695" lon="16.30388"><ele>967.0</ele><time>2026-04-07T08:57:31.79Z</time></trkpt><trkpt lat="38.5166467" lon="16.3040567"><ele>965.6666666666666</ele><time>2026-04-07T08:57:32.79Z</time></trkpt><trkpt lat="38.5165633" lon="16.304245"><ele>964.3333333333333</ele><time>2026-04-07T08:57:33.791Z</time></trkpt><trkpt lat="38.5164767" lon="16.3044467"><ele>963.0</ele><time>2026-04-07T08:57:34.79Z</time></trkpt><trkpt lat="38.5163883" lon="16.3046567"><ele>961.3333333333333</ele><time>2026-04-07T08:57:35.791Z</time></trkpt><trkpt lat="38.5162983" lon="16.3048783"><ele>959.6666666666666</ele><time>2026-04-07T08:57:36.791Z</time></trkpt><trkpt lat="38.516195" lon="16.3050983"><ele>958.0</ele><time>2026-04-07T08:57:37.79Z</time></trkpt><trkpt lat="38.5160983" lon="16.305345"><ele>955.6666666666666</ele><time>2026-04-07T08:57:38.79Z</time></trkpt><trkpt lat="38.5159933" lon="16.3055917"><ele>953.3333333333333</ele><time>2026-04-07T08:57:39.79Z</time></trkpt><trkpt lat="38.5158867" lon="16.305835"><ele>951.0</ele><time>2026-04-07T08:57:40.79Z</time></trkpt><trkpt lat="38.515775" lon="16.3060917"><ele>951.0</ele><time>2026-04-07T08:57:41.79Z</time></trkpt><trkpt lat="38.5156567" lon="16.30635"><ele>951.0</ele><time>2026-04-07T08:57:42.79Z</time></trkpt><trkpt lat="38.515545" lon="16.306595"><ele>950.3333333333333</ele><time>2026-04-07T08:57:43.79Z</time></trkpt><trkpt lat="38.5154333" lon="16.3068233"><ele>949.6666666666666</ele><time>2026-04-07T08:57:44.79Z</time></trkpt><trkpt lat="38.51533" lon="16.30704"><ele>949.0</ele><time>2026-04-07T08:57:45.79Z</time></trkpt><trkpt lat="38.5152233" lon="16.307245"><ele>946.0</ele><time>2026-04-07T08:57:46.79Z</time></trkpt><trkpt lat="38.51513" lon="16.3074317"><ele>943.0</ele><time>2026-04-07T08:57:47.79Z</time></trkpt><trkpt lat="38.5150533" lon="16.3076067"><ele>940.0</ele><time>2026-04-07T08:57:48.79Z</time></trkpt><trkpt lat="38.51498" lon="16.3077633"><ele>940.0</ele><time>2026-04-07T08:57:49.79Z</time></trkpt><trkpt lat="38.5149117" lon="16.3079083"><ele>940.0</ele><time>2026-04-07T08:57:50.79Z</time></trkpt><trkpt lat="38.5148417" lon="16.308035"><ele>940.0</ele><time>2026-04-07T08:57:51.79Z</time></trkpt><trkpt lat="38.5147617" lon="16.3081367"><ele>940.0</ele><time>2026-04-07T08:57:52.791Z</time></trkpt><trkpt lat="38.51468" lon="16.3082117"><ele>939.9999999999999</ele><time>2026-04-07T08:57:53.79Z</time></trkpt><trkpt lat="38.514595" lon="16.30829"><ele>940.0</ele><time>2026-04-07T08:57:54.79Z</time></trkpt><trkpt lat="38.51453" lon="16.3083483"><ele>940.0</ele><time>2026-04-07T08:57:55.791Z</time></trkpt><trkpt lat="38.5144783" lon="16.3084083"><ele>940.0</ele><time>2026-04-07T08:57:56.79Z</time></trkpt><trkpt lat="38.5144417" lon="16.308475"><ele>939.9999999999999</ele><time>2026-04-07T08:57:57.79Z</time></trkpt><trkpt lat="38.514395" lon="16.3086067"><ele>940.0</ele><time>2026-04-07T08:57:59.79Z</time></trkpt><trkpt lat="38.514385" lon="16.3086867"><ele>940.0</ele><time>2026-04-07T08:58:00.79Z</time></trkpt><trkpt lat="38.51437" lon="16.30879"><ele>940.0</ele><time>2026-04-07T08:58:01.791Z</time></trkpt><trkpt lat="38.51437" lon="16.3089117"><ele>940.0</ele><time>2026-04-07T08:58:02.79Z</time></trkpt><trkpt lat="38.514365" lon="16.30904"><ele>940.0</ele><time>2026-04-07T08:58:03.791Z</time></trkpt><trkpt lat="38.5143783" lon="16.30918"><ele>940.0</ele><time>2026-04-07T08:58:04.79Z</time></trkpt><trkpt lat="38.5143983" lon="16.30933"><ele>939.3333333333333</ele><time>2026-04-07T08:58:05.791Z</time></trkpt><trkpt lat="38.51443" lon="16.3094833"><ele>938.6666666666667</ele><time>2026-04-07T08:58:06.79Z</time></trkpt><trkpt lat="38.5145083" lon="16.309685"><ele>938.0</ele><time>2026-04-07T08:58:07.79Z</time></trkpt><trkpt lat="38.5145917" lon="16.309885"><ele>936.0</ele><time>2026-04-07T08:58:08.791Z</time></trkpt><trkpt lat="38.51467" lon="16.3100683"><ele>934.0</ele><time>2026-04-07T08:58:09.79Z</time></trkpt><trkpt lat="38.5147567" lon="16.3102633"><ele>932.0</ele><time>2026-04-07T08:58:10.79Z</time></trkpt><trkpt lat="38.514845" lon="16.3104583"><ele>932.0</ele><time>2026-04-07T08:58:11.79Z</time></trkpt><trkpt lat="38.5149467" lon="16.3106717"><ele>932.0</ele><time>2026-04-07T08:58:12.79Z</time></trkpt><trkpt lat="38.5150417" lon="16.3108633"><ele>932.0</ele><time>2026-04-07T08:58:13.79Z</time></trkpt><trkpt lat="38.5151183" lon="16.3110367"><ele>932.0</ele><time>2026-04-07T08:58:14.79Z</time></trkpt><trkpt lat="38.5151933" lon="16.3112"><ele>932.0</ele><time>2026-04-07T08:58:15.79Z</time></trkpt><trkpt lat="38.5152517" lon="16.3113617"><ele>932.0</ele><time>2026-04-07T08:58:16.79Z</time></trkpt><trkpt lat="38.5153183" lon="16.3115083"><ele>932.0</ele><time>2026-04-07T08:58:17.791Z</time></trkpt><trkpt lat="38.51537" lon="16.311645"><ele>932.2</ele><time>2026-04-07T08:58:18.79Z</time></trkpt><trkpt lat="38.5154" lon="16.3117683"><ele>932.4000000000001</ele><time>2026-04-07T08:58:19.79Z</time></trkpt><trkpt lat="38.5154133" lon="16.3118883"><ele>932.5999999999999</ele><time>2026-04-07T08:58:20.791Z</time></trkpt><trkpt lat="38.51541" lon="16.31202"><ele>932.8</ele><time>2026-04-07T08:58:21.79Z</time></trkpt><trkpt lat="38.5154083" lon="16.31217"><ele>933.0</ele><time>2026-04-07T08:58:22.79Z</time></trkpt><trkpt lat="38.5153917" lon="16.3123367"><ele>932.4</ele><time>2026-04-07T08:58:23.791Z</time></trkpt><trkpt lat="38.5153667" lon="16.312495"><ele>931.8</ele><time>2026-04-07T08:58:24.79Z</time></trkpt><trkpt lat="38.5153517" lon="16.3126333"><ele>931.2</ele><time>2026-04-07T08:58:25.791Z</time></trkpt><trkpt lat="38.5153317" lon="16.3127567"><ele>930.6</ele><time>2026-04-07T08:58:26.79Z</time></trkpt><trkpt lat="38.5152883" lon="16.3128583"><ele>930.0</ele><time>2026-04-07T08:58:27.79Z</time></trkpt><trkpt lat="38.5152317" lon="16.3129417"><ele>930.0</ele><time>2026-04-07T08:58:28.79Z</time></trkpt><trkpt lat="38.5151567" lon="16.3130217"><ele>930.0</ele><time>2026-04-07T08:58:29.791Z</time></trkpt><trkpt lat="38.5150667" lon="16.3130883"><ele>930.0</ele><time>2026-04-07T08:58:30.791Z</time></trkpt><trkpt lat="38.51495" lon="16.3131267"><ele>930.0</ele><time>2026-04-07T08:58:31.79Z</time></trkpt><trkpt lat="38.5147917" lon="16.3131683"><ele>929.1666666666666</ele><time>2026-04-07T08:58:32.791Z</time></trkpt><trkpt lat="38.5146883" lon="16.3131917"><ele>928.3333333333333</ele><time>2026-04-07T08:58:33.79Z</time></trkpt><trkpt lat="38.5146117" lon="16.3132383"><ele>927.5</ele><time>2026-04-07T08:58:34.791Z</time></trkpt><trkpt lat="38.51455" lon="16.31329"><ele>926.6666666666666</ele><time>2026-04-07T08:58:35.791Z</time></trkpt><trkpt lat="38.5145133" lon="16.3133567"><ele>925.8333333333333</ele><time>2026-04-07T08:58:36.791Z</time></trkpt><trkpt lat="38.514495" lon="16.3134467"><ele>925.0</ele><time>2026-04-07T08:58:37.79Z</time></trkpt><trkpt lat="38.5144833" lon="16.3135467"><ele>925.0</ele><time>2026-04-07T08:58:38.791Z</time></trkpt><trkpt lat="38.5145033" lon="16.3136583"><ele>925.0</ele><time>2026-04-07T08:58:39.79Z</time></trkpt><trkpt lat="38.5145167" lon="16.313785"><ele>925.0</ele><time>2026-04-07T08:58:40.79Z</time></trkpt><trkpt lat="38.5144983" lon="16.3139317"><ele>925.0</ele><time>2026-04-07T08:58:41.791Z</time></trkpt><trkpt lat="38.5144967" lon="16.31407"><ele>925.0</ele><time>2026-04-07T08:58:42.791Z</time></trkpt><trkpt lat="38.5144817" lon="16.3141833"><ele>923.8</ele><time>2026-04-07T08:58:43.79Z</time></trkpt><trkpt lat="38.5144533" lon="16.3142617"><ele>922.6</ele><time>2026-04-07T08:58:44.79Z</time></trkpt><trkpt lat="38.5144217" lon="16.31438"><ele>921.4000000000001</ele><time>2026-04-07T08:58:46.791Z</time></trkpt><trkpt lat="38.5144683" lon="16.3145317"><ele>920.2</ele><time>2026-04-07T08:58:48.791Z</time></trkpt><trkpt lat="38.5145233" lon="16.3146067"><ele>919.0</ele><time>2026-04-07T08:58:49.79Z</time></trkpt><trkpt lat="38.5145983" lon="16.31469"><ele>916.0</ele><time>2026-04-07T08:58:50.791Z</time></trkpt><trkpt lat="38.5146833" lon="16.3147867"><ele>913.0000000000001</ele><time>2026-04-07T08:58:51.79Z</time></trkpt><trkpt lat="38.5147567" lon="16.31489"><ele>910.0000000000001</ele><time>2026-04-07T08:58:52.79Z</time></trkpt><trkpt lat="38.5147917" lon="16.3149917"><ele>907.0</ele><time>2026-04-07T08:58:53.79Z</time></trkpt><trkpt lat="38.5148067" lon="16.3150983"><ele>904.0</ele><time>2026-04-07T08:58:54.791Z</time></trkpt><trkpt lat="38.5147933" lon="16.315205"><ele>904.0</ele><time>2026-04-07T08:58:55.79Z</time></trkpt><trkpt lat="38.5147533" lon="16.3153167"><ele>904.0</ele><time>2026-04-07T08:58:56.791Z</time></trkpt><trkpt lat="38.5147083" lon="16.3154333"><ele>904.0</ele><time>2026-04-07T08:58:57.79Z</time></trkpt><trkpt lat="38.5146433" lon="16.31557"><ele>904.0</ele><time>2026-04-07T08:58:58.79Z</time></trkpt><trkpt lat="38.5145717" lon="16.3157083"><ele>902.75</ele><time>2026-04-07T08:58:59.79Z</time></trkpt><trkpt lat="38.5145117" lon="16.3158583"><ele>901.5</ele><time>2026-04-07T08:59:00.79Z</time></trkpt><trkpt lat="38.51446" lon="16.316005"><ele>900.25</ele><time>2026-04-07T08:59:01.79Z</time></trkpt><trkpt lat="38.5144367" lon="16.316155"><ele>899.0</ele><time>2026-04-07T08:59:02.79Z</time></trkpt><trkpt lat="38.5144517" lon="16.3162917"><ele>900.25</ele><time>2026-04-07T08:59:03.79Z</time></trkpt><trkpt lat="38.514495" lon="16.3164217"><ele>901.5</ele><time>2026-04-07T08:59:04.79Z</time></trkpt><trkpt lat="38.5145833" lon="16.3165317"><ele>902.75</ele><time>2026-04-07T08:59:05.79Z</time></trkpt><trkpt lat="38.514685" lon="16.316635"><ele>904.0</ele><time>2026-04-07T08:59:06.791Z</time></trkpt><trkpt lat="38.514785" lon="16.3167317"><ele>905.2</ele><time>2026-04-07T08:59:07.79Z</time></trkpt><trkpt lat="38.5148783" lon="16.3168233"><ele>906.4000000000001</ele><time>2026-04-07T08:59:08.79Z</time></trkpt><trkpt lat="38.514965" lon="16.31691"><ele>907.6</ele><time>2026-04-07T08:59:09.791Z</time></trkpt><trkpt lat="38.5150483" lon="16.316995"><ele>908.8</ele><time>2026-04-07T08:59:10.791Z</time></trkpt><trkpt lat="38.5151317" lon="16.3170783"><ele>910.0</ele><time>2026-04-07T08:59:11.79Z</time></trkpt><trkpt lat="38.51521" lon="16.3171583"><ele>910.2</ele><time>2026-04-07T08:59:12.79Z</time></trkpt><trkpt lat="38.5152867" lon="16.3172383"><ele>910.4</ele><time>2026-04-07T08:59:13.791Z</time></trkpt><trkpt lat="38.5153667" lon="16.317325"><ele>910.5999999999999</ele><time>2026-04-07T08:59:14.79Z</time></trkpt><trkpt lat="38.5154483" lon="16.3174083"><ele>910.8</ele><time>2026-04-07T08:59:15.79Z</time></trkpt><trkpt lat="38.5155117" lon="16.3175"><ele>911.0</ele><time>2026-04-07T08:59:16.79Z</time></trkpt><trkpt lat="38.5155717" lon="16.3176083"><ele>911.5999999999999</ele><time>2026-04-07T08:59:17.791Z</time></trkpt><trkpt lat="38.5156333" lon="16.317725"><ele>912.1999999999999</ele><time>2026-04-07T08:59:18.791Z</time></trkpt><trkpt lat="38.5156967" lon="16.317855"><ele>912.8000000000001</ele><time>2026-04-07T08:59:19.79Z</time></trkpt><trkpt lat="38.51575" lon="16.3179767"><ele>913.4000000000001</ele><time>2026-04-07T08:59:20.791Z</time></trkpt><trkpt lat="38.5157767" lon="16.3180967"><ele>914.0</ele><time>2026-04-07T08:59:21.79Z</time></trkpt><trkpt lat="38.5157817" lon="16.3182017"><ele>914.1666666666667</ele><time>2026-04-07T08:59:22.79Z</time></trkpt><trkpt lat="38.5157733" lon="16.3183083"><ele>914.3333333333334</ele><time>2026-04-07T08:59:23.79Z</time></trkpt><trkpt lat="38.5157367" lon="16.3183967"><ele>914.5</ele><time>2026-04-07T08:59:24.79Z</time></trkpt><trkpt lat="38.515675" lon="16.318465"><ele>914.6666666666667</ele><time>2026-04-07T08:59:25.791Z</time></trkpt><trkpt lat="38.5156067" lon="16.3185083"><ele>914.8333333333334</ele><time>2026-04-07T08:59:26.79Z</time></trkpt><trkpt lat="38.5155267" lon="16.3185333"><ele>915.0</ele><time>2026-04-07T08:59:27.79Z</time></trkpt><trkpt lat="38.51544" lon="16.318525"><ele>916.0</ele><time>2026-04-07T08:59:28.79Z</time></trkpt><trkpt lat="38.51534" lon="16.3184467"><ele>917.0</ele><time>2026-04-07T08:59:29.79Z</time></trkpt><trkpt lat="38.5152433" lon="16.3183483"><ele>918.0</ele><time>2026-04-07T08:59:30.79Z</time></trkpt><trkpt lat="38.51514" lon="16.3182633"><ele>919.0</ele><time>2026-04-07T08:59:31.79Z</time></trkpt><trkpt lat="38.515035" lon="16.3182033"><ele>919.0</ele><time>2026-04-07T08:59:32.79Z</time></trkpt><trkpt lat="38.5149167" lon="16.3181817"><ele>919.0</ele><time>2026-04-07T08:59:33.79Z</time></trkpt><trkpt lat="38.5147983" lon="16.3181717"><ele>919.0</ele><time>2026-04-07T08:59:34.791Z</time></trkpt><trkpt lat="38.5146817" lon="16.3181683"><ele>919.0</ele><time>2026-04-07T08:59:35.791Z</time></trkpt><trkpt lat="38.5145667" lon="16.3181867"><ele>919.0</ele><time>2026-04-07T08:59:36.79Z</time></trkpt><trkpt lat="38.5144467" lon="16.3182217"><ele>919.0</ele><time>2026-04-07T08:59:37.791Z</time></trkpt><trkpt lat="38.51434" lon="16.3182717"><ele>919.0</ele><time>2026-04-07T08:59:38.79Z</time></trkpt><trkpt lat="38.5142217" lon="16.3183233"><ele>919.0</ele><time>2026-04-07T08:59:39.79Z</time></trkpt><trkpt lat="38.514115" lon="16.31837"><ele>919.0</ele><time>2026-04-07T08:59:40.79Z</time></trkpt><trkpt lat="38.5140117" lon="16.3184333"><ele>919.0000000000001</ele><time>2026-04-07T08:59:41.79Z</time></trkpt><trkpt lat="38.5139083" lon="16.3185"><ele>919.0000000000001</ele><time>2026-04-07T08:59:42.791Z</time></trkpt><trkpt lat="38.5138233" lon="16.3185817"><ele>919.0</ele><time>2026-04-07T08:59:43.791Z</time></trkpt><trkpt lat="38.5137533" lon="16.318665"><ele>919.0</ele><time>2026-04-07T08:59:44.79Z</time></trkpt><trkpt lat="38.5137" lon="16.3187483"><ele>918.9999999999999</ele><time>2026-04-07T08:59:45.791Z</time></trkpt><trkpt lat="38.5136567" lon="16.3188217"><ele>919.0</ele><time>2026-04-07T08:59:46.79Z</time></trkpt><trkpt lat="38.513615" lon="16.3189017"><ele>919.0</ele><time>2026-04-07T08:59:47.791Z</time></trkpt><trkpt lat="38.51358" lon="16.3189767"><ele>919.0</ele><time>2026-04-07T08:59:48.791Z</time></trkpt><trkpt lat="38.5135733" lon="16.319115"><ele>918.9999999999999</ele><time>2026-04-07T08:59:50.79Z</time></trkpt><trkpt lat="38.5135683" lon="16.3192367"><ele>919.0</ele><time>2026-04-07T08:59:52.791Z</time></trkpt><trkpt lat="38.51352" lon="16.3193817"><ele>919.0</ele><time>2026-04-07T08:59:54.79Z</time></trkpt><trkpt lat="38.513475" lon="16.3195033"><ele>919.0000000000001</ele><time>2026-04-07T08:59:56.791Z</time></trkpt><trkpt lat="38.5134667" lon="16.319635"><ele>919.0000000000001</ele><time>2026-04-07T08:59:58.79Z</time></trkpt><trkpt lat="38.51352" lon="16.31969"><ele>919.0</ele><time>2026-04-07T08:59:59.791Z</time></trkpt><trkpt lat="38.513595" lon="16.31975"><ele>919.0</ele><time>2026-04-07T09:00:00.791Z</time></trkpt><trkpt lat="38.5136867" lon="16.319825"><ele>920.0</ele><time>2026-04-07T09:00:01.79Z</time></trkpt><trkpt lat="38.5137917" lon="16.31992"><ele>921.0</ele><time>2026-04-07T09:00:02.79Z</time></trkpt><trkpt lat="38.513895" lon="16.32002"><ele>922.0</ele><time>2026-04-07T09:00:03.79Z</time></trkpt><trkpt lat="38.5139883" lon="16.3201067"><ele>923.0</ele><time>2026-04-07T09:00:04.79Z</time></trkpt><trkpt lat="38.514075" lon="16.32019"><ele>923.0000000000001</ele><time>2026-04-07T09:00:05.791Z</time></trkpt><trkpt lat="38.514145" lon="16.320265"><ele>923.0</ele><time>2026-04-07T09:00:06.79Z</time></trkpt><trkpt lat="38.5142117" lon="16.3203467"><ele>923.0</ele><time>2026-04-07T09:00:07.791Z</time></trkpt><trkpt lat="38.5142533" lon="16.32041"><ele>923.0</ele><time>2026-04-07T09:00:08.79Z</time></trkpt><trkpt lat="38.5142683" lon="16.320535"><ele>923.0000000000001</ele><time>2026-04-07T09:00:10.79Z</time></trkpt><trkpt lat="38.5142133" lon="16.320585"><ele>923.0</ele><time>2026-04-07T09:00:12.791Z</time></trkpt><trkpt lat="38.51408" lon="16.3205133"><ele>923.0</ele><time>2026-04-07T09:00:14.79Z</time></trkpt><trkpt lat="38.51399" lon="16.320475"><ele>923.0</ele><time>2026-04-07T09:00:15.791Z</time></trkpt><trkpt lat="38.5139083" lon="16.3204333"><ele>923.0</ele><time>2026-04-07T09:00:16.79Z</time></trkpt><trkpt lat="38.5138133" lon="16.3203933"><ele>923.0</ele><time>2026-04-07T09:00:17.79Z</time></trkpt><trkpt lat="38.5137217" lon="16.3203533"><ele>923.0</ele><time>2026-04-07T09:00:18.79Z</time></trkpt><trkpt lat="38.51364" lon="16.3203133"><ele>921.5000000000001</ele><time>2026-04-07T09:00:19.79Z</time></trkpt><trkpt lat="38.5135683" lon="16.320275"><ele>920.0</ele><time>2026-04-07T09:00:20.79Z</time></trkpt><trkpt lat="38.5135" lon="16.3202367"><ele>918.5</ele><time>2026-04-07T09:00:21.79Z</time></trkpt><trkpt lat="38.513435" lon="16.3202133"><ele>917.0</ele><time>2026-04-07T09:00:22.791Z</time></trkpt><trkpt lat="38.5133733" lon="16.3201833"><ele>915.5000000000001</ele><time>2026-04-07T09:00:23.791Z</time></trkpt><trkpt lat="38.5132567" lon="16.3201833"><ele>914.0</ele><time>2026-04-07T09:00:25.79Z</time></trkpt><trkpt lat="38.5131617" lon="16.320165"><ele>914.0000000000001</ele><time>2026-04-07T09:00:27.79Z</time></trkpt><trkpt lat="38.5130667" lon="16.3201617"><ele>914.0</ele><time>2026-04-07T09:00:29.791Z</time></trkpt><trkpt lat="38.5129917" lon="16.3201883"><ele>914.0</ele><time>2026-04-07T09:00:32.791Z</time></trkpt><trkpt lat="38.5129833" lon="16.32031"><ele>914.0</ele><time>2026-04-07T09:00:35.79Z</time></trkpt><trkpt lat="38.5129717" lon="16.3204233"><ele>914.0000000000001</ele><time>2026-04-07T09:00:37.79Z</time></trkpt><trkpt lat="38.5129433" lon="16.3205283"><ele>914.0</ele><time>2026-04-07T09:00:39.791Z</time></trkpt><trkpt lat="38.5129117" lon="16.3206117"><ele>914.1666666666667</ele><time>2026-04-07T09:00:41.79Z</time></trkpt><trkpt lat="38.512875" lon="16.320685"><ele>914.3333333333334</ele><time>2026-04-07T09:00:43.79Z</time></trkpt><trkpt lat="38.5128233" lon="16.3207383"><ele>914.5</ele><time>2026-04-07T09:00:45.791Z</time></trkpt><trkpt lat="38.5127283" lon="16.3207333"><ele>914.6666666666667</ele><time>2026-04-07T09:00:48.79Z</time></trkpt><trkpt lat="38.51266" lon="16.32062"><ele>914.8333333333334</ele><time>2026-04-07T09:00:50.791Z</time></trkpt><trkpt lat="38.5126217" lon="16.3205433"><ele>915.0</ele><time>2026-04-07T09:00:51.79Z</time></trkpt><trkpt lat="38.512585" lon="16.32045"><ele>913.3333333333334</ele><time>2026-04-07T09:00:52.79Z</time></trkpt><trkpt lat="38.5125383" lon="16.320365"><ele>911.6666666666667</ele><time>2026-04-07T09:00:53.79Z</time></trkpt><trkpt lat="38.512485" lon="16.3203033"><ele>910.0</ele><time>2026-04-07T09:00:54.79Z</time></trkpt><trkpt lat="38.5124167" lon="16.3202633"><ele>908.3333333333334</ele><time>2026-04-07T09:00:55.79Z</time></trkpt><trkpt lat="38.5123267" lon="16.3202333"><ele>906.6666666666667</ele><time>2026-04-07T09:00:56.791Z</time></trkpt><trkpt lat="38.5122333" lon="16.32021"><ele>905.0</ele><time>2026-04-07T09:00:57.79Z</time></trkpt><trkpt lat="38.5121267" lon="16.3201867"><ele>903.5000000000001</ele><time>2026-04-07T09:00:58.79Z</time></trkpt><trkpt lat="38.51203" lon="16.32015"><ele>902.0</ele><time>2026-04-07T09:00:59.79Z</time></trkpt><trkpt lat="38.511965" lon="16.3201"><ele>900.5</ele><time>2026-04-07T09:01:00.79Z</time></trkpt><trkpt lat="38.511905" lon="16.3200317"><ele>899.0</ele><time>2026-04-07T09:01:01.791Z</time></trkpt><trkpt lat="38.5118567" lon="16.3199717"><ele>897.5000000000001</ele><time>2026-04-07T09:01:02.79Z</time></trkpt><trkpt lat="38.5118" lon="16.3198633"><ele>896.0</ele><time>2026-04-07T09:01:04.79Z</time></trkpt><trkpt lat="38.511725" lon="16.31979"><ele>896.0</ele><time>2026-04-07T09:01:06.791Z</time></trkpt><trkpt lat="38.51161" lon="16.319765"><ele>896.0</ele><time>2026-04-07T09:01:08.79Z</time></trkpt><trkpt lat="38.5115117" lon="16.3197967"><ele>896.0</ele><time>2026-04-07T09:01:10.79Z</time></trkpt><trkpt lat="38.5114483" lon="16.3199283"><ele>896.0</ele><time>2026-04-07T09:01:12.79Z</time></trkpt><trkpt lat="38.5114167" lon="16.3200933"><ele>896.0000000000001</ele><time>2026-04-07T09:01:14.79Z</time></trkpt><trkpt lat="38.5114067" lon="16.32019"><ele>896.0</ele><time>2026-04-07T09:01:15.791Z</time></trkpt><trkpt lat="38.5113933" lon="16.3202833"><ele>896.0</ele><time>2026-04-07T09:01:16.791Z</time></trkpt><trkpt lat="38.5113683" lon="16.3203633"><ele>896.0</ele><time>2026-04-07T09:01:17.79Z</time></trkpt><trkpt lat="38.5113117" lon="16.320485"><ele>896.0000000000001</ele><time>2026-04-07T09:01:19.79Z</time></trkpt><trkpt lat="38.5112483" lon="16.3205967"><ele>896.0</ele><time>2026-04-07T09:01:21.79Z</time></trkpt><trkpt lat="38.5111917" lon="16.32072"><ele>894.0000000000001</ele><time>2026-04-07T09:01:23.79Z</time></trkpt><trkpt lat="38.5111233" lon="16.3208017"><ele>892.0</ele><time>2026-04-07T09:01:25.79Z</time></trkpt><trkpt lat="38.511055" lon="16.320845"><ele>890.0</ele><time>2026-04-07T09:01:29.791Z</time></trkpt><trkpt lat="38.5111133" lon="16.32079"><ele>888.0</ele><time>2026-04-07T09:01:37.79Z</time></trkpt><trkpt lat="38.51119" lon="16.3207333"><ele>886.0000000000001</ele><time>2026-04-07T09:01:40.791Z</time></trkpt><trkpt lat="38.5112417" lon="16.320645"><ele>884.0</ele><time>2026-04-07T09:01:43.79Z</time></trkpt><trkpt lat="38.5112833" lon="16.3205683"><ele>886.0000000000001</ele><time>2026-04-07T09:01:45.79Z</time></trkpt><trkpt lat="38.5113517" lon="16.320445"><ele>888.0</ele><time>2026-04-07T09:01:47.791Z</time></trkpt><trkpt lat="38.5113917" lon="16.3203667"><ele>890.0</ele><time>2026-04-07T09:01:48.79Z</time></trkpt><trkpt lat="38.51143" lon="16.3202733"><ele>892.0</ele><time>2026-04-07T09:01:49.79Z</time></trkpt><trkpt lat="38.51145" lon="16.32017"><ele>894.0000000000001</ele><time>2026-04-07T09:01:50.79Z</time></trkpt><trkpt lat="38.5114683" lon="16.32006"><ele>896.0</ele><time>2026-04-07T09:01:51.79Z</time></trkpt><trkpt lat="38.5114767" lon="16.319955"><ele>896.0</ele><time>2026-04-07T09:01:52.79Z</time></trkpt><trkpt lat="38.5115083" lon="16.319825"><ele>895.9999999999999</ele><time>2026-04-07T09:01:54.79Z</time></trkpt><trkpt lat="38.5115983" lon="16.3197917"><ele>895.9999999999999</ele><time>2026-04-07T09:01:56.79Z</time></trkpt><trkpt lat="38.5117217" lon="16.319795"><ele>896.0</ele><time>2026-04-07T09:01:58.791Z</time></trkpt><trkpt lat="38.5117983" lon="16.3198033"><ele>896.0</ele><time>2026-04-07T09:01:59.79Z</time></trkpt><trkpt lat="38.5118817" lon="16.3198133"><ele>896.0000000000001</ele><time>2026-04-07T09:02:00.791Z</time></trkpt><trkpt lat="38.5119733" lon="16.3198167"><ele>896.0</ele><time>2026-04-07T09:02:01.791Z</time></trkpt><trkpt lat="38.512055" lon="16.319835"><ele>896.0</ele><time>2026-04-07T09:02:02.79Z</time></trkpt><trkpt lat="38.5121417" lon="16.31985"><ele>896.0</ele><time>2026-04-07T09:02:03.791Z</time></trkpt><trkpt lat="38.5122233" lon="16.31987"><ele>896.0000000000001</ele><time>2026-04-07T09:02:04.791Z</time></trkpt><trkpt lat="38.512305" lon="16.319895"><ele>896.0</ele><time>2026-04-07T09:02:05.79Z</time></trkpt><trkpt lat="38.5123767" lon="16.319905"><ele>897.5000000000001</ele><time>2026-04-07T09:02:06.79Z</time></trkpt><trkpt lat="38.5124483" lon="16.3199083"><ele>899.0</ele><time>2026-04-07T09:02:07.79Z</time></trkpt><trkpt lat="38.5125283" lon="16.3198833"><ele>900.5</ele><time>2026-04-07T09:02:08.79Z</time></trkpt><trkpt lat="38.5126033" lon="16.3198417"><ele>902.0</ele><time>2026-04-07T09:02:09.79Z</time></trkpt><trkpt lat="38.5126783" lon="16.3197883"><ele>903.5000000000001</ele><time>2026-04-07T09:02:10.791Z</time></trkpt><trkpt lat="38.512745" lon="16.3196983"><ele>905.0</ele><time>2026-04-07T09:02:11.79Z</time></trkpt><trkpt lat="38.5128033" lon="16.319605"><ele>905.5000000000001</ele><time>2026-04-07T09:02:12.79Z</time></trkpt><trkpt lat="38.512865" lon="16.3195133"><ele>906.0</ele><time>2026-04-07T09:02:13.79Z</time></trkpt><trkpt lat="38.5129267" lon="16.31943"><ele>906.5</ele><time>2026-04-07T09:02:14.791Z</time></trkpt><trkpt lat="38.51299" lon="16.31935"><ele>907.0</ele><time>2026-04-07T09:02:15.791Z</time></trkpt><trkpt lat="38.5130517" lon="16.319265"><ele>907.5000000000001</ele><time>2026-04-07T09:02:16.791Z</time></trkpt><trkpt lat="38.5131083" lon="16.3191833"><ele>908.0</ele><time>2026-04-07T09:02:17.791Z</time></trkpt><trkpt lat="38.5131683" lon="16.3191067"><ele>909.8333333333334</ele><time>2026-04-07T09:02:18.79Z</time></trkpt><trkpt lat="38.513225" lon="16.3190433"><ele>911.6666666666667</ele><time>2026-04-07T09:02:19.79Z</time></trkpt><trkpt lat="38.5132767" lon="16.3189917"><ele>913.5</ele><time>2026-04-07T09:02:20.79Z</time></trkpt><trkpt lat="38.5133683" lon="16.318975"><ele>915.3333333333333</ele><time>2026-04-07T09:02:22.791Z</time></trkpt><trkpt lat="38.5134483" lon="16.3190517"><ele>917.1666666666666</ele><time>2026-04-07T09:02:24.79Z</time></trkpt><trkpt lat="38.5135333" lon="16.3191467"><ele>919.0</ele><time>2026-04-07T09:02:26.791Z</time></trkpt><trkpt lat="38.5135933" lon="16.3192117"><ele>919.0</ele><time>2026-04-07T09:02:28.79Z</time></trkpt><trkpt lat="38.5136583" lon="16.3192533"><ele>919.0000000000001</ele><time>2026-04-07T09:02:30.79Z</time></trkpt><trkpt lat="38.5137633" lon="16.3193267"><ele>919.0000000000001</ele><time>2026-04-07T09:02:32.79Z</time></trkpt><trkpt lat="38.5138417" lon="16.3193867"><ele>919.0</ele><time>2026-04-07T09:02:33.791Z</time></trkpt><trkpt lat="38.513935" lon="16.31945"><ele>919.0</ele><time>2026-04-07T09:02:34.791Z</time></trkpt><trkpt lat="38.5140217" lon="16.3195217"><ele>920.0</ele><time>2026-04-07T09:02:35.79Z</time></trkpt><trkpt lat="38.5141217" lon="16.319595"><ele>921.0</ele><time>2026-04-07T09:02:36.79Z</time></trkpt><trkpt lat="38.514225" lon="16.319665"><ele>922.0</ele><time>2026-04-07T09:02:37.79Z</time></trkpt><trkpt lat="38.51433" lon="16.319745"><ele>923.0</ele><time>2026-04-07T09:02:38.791Z</time></trkpt><trkpt lat="38.5144417" lon="16.319805"><ele>923.0</ele><time>2026-04-07T09:02:39.791Z</time></trkpt><trkpt lat="38.51455" lon="16.31987"><ele>923.0</ele><time>2026-04-07T09:02:40.791Z</time></trkpt><trkpt lat="38.5146433" lon="16.31995"><ele>923.0</ele><time>2026-04-07T09:02:41.79Z</time></trkpt><trkpt lat="38.5147367" lon="16.3200167"><ele>923.0</ele><time>2026-04-07T09:02:42.79Z</time></trkpt><trkpt lat="38.5148367" lon="16.32008"><ele>925.25</ele><time>2026-04-07T09:02:43.79Z</time></trkpt><trkpt lat="38.5149433" lon="16.32014"><ele>927.5</ele><time>2026-04-07T09:02:44.791Z</time></trkpt><trkpt lat="38.5150517" lon="16.3201917"><ele>929.75</ele><time>2026-04-07T09:02:45.79Z</time></trkpt><trkpt lat="38.5151567" lon="16.320265"><ele>932.0</ele><time>2026-04-07T09:02:46.791Z</time></trkpt><trkpt lat="38.515255" lon="16.3203317"><ele>932.0</ele><time>2026-04-07T09:02:47.79Z</time></trkpt><trkpt lat="38.5153483" lon="16.3203983"><ele>932.0</ele><time>2026-04-07T09:02:48.79Z</time></trkpt><trkpt lat="38.5154433" lon="16.3204667"><ele>932.0</ele><time>2026-04-07T09:02:49.79Z</time></trkpt><trkpt lat="38.5155533" lon="16.3205117"><ele>932.0</ele><time>2026-04-07T09:02:50.79Z</time></trkpt><trkpt lat="38.51566" lon="16.3205767"><ele>934.0</ele><time>2026-04-07T09:02:51.79Z</time></trkpt><trkpt lat="38.5157683" lon="16.3206333"><ele>936.0</ele><time>2026-04-07T09:02:52.79Z</time></trkpt><trkpt lat="38.515875" lon="16.3206817"><ele>938.0</ele><time>2026-04-07T09:02:53.79Z</time></trkpt><trkpt lat="38.51598" lon="16.3207133"><ele>940.0</ele><time>2026-04-07T09:02:54.791Z</time></trkpt><trkpt lat="38.5160883" lon="16.3207533"><ele>940.0</ele><time>2026-04-07T09:02:55.79Z</time></trkpt><trkpt lat="38.5162067" lon="16.320785"><ele>940.0</ele><time>2026-04-07T09:02:56.79Z</time></trkpt><trkpt lat="38.5163433" lon="16.3208"><ele>940.0</ele><time>2026-04-07T09:02:57.79Z</time></trkpt><trkpt lat="38.5164767" lon="16.320815"><ele>940.0</ele><time>2026-04-07T09:02:58.79Z</time></trkpt><trkpt lat="38.51661" lon="16.3208317"><ele>941.75</ele><time>2026-04-07T09:02:59.79Z</time></trkpt><trkpt lat="38.5167417" lon="16.32084"><ele>943.5</ele><time>2026-04-07T09:03:00.79Z</time></trkpt><trkpt lat="38.5168683" lon="16.32084"><ele>945.25</ele><time>2026-04-07T09:03:01.79Z</time></trkpt><trkpt lat="38.5170067" lon="16.3208267"><ele>947.0</ele><time>2026-04-07T09:03:02.791Z</time></trkpt><trkpt lat="38.5171483" lon="16.32082"><ele>948.25</ele><time>2026-04-07T09:03:03.791Z</time></trkpt><trkpt lat="38.51728" lon="16.3208083"><ele>949.5</ele><time>2026-04-07T09:03:04.791Z</time></trkpt><trkpt lat="38.517405" lon="16.3208"><ele>950.75</ele><time>2026-04-07T09:03:05.791Z</time></trkpt><trkpt lat="38.5175367" lon="16.3208033"><ele>952.0</ele><time>2026-04-07T09:03:06.791Z</time></trkpt><trkpt lat="38.51766" lon="16.3208133"><ele>952.0</ele><time>2026-04-07T09:03:07.791Z</time></trkpt><trkpt lat="38.517785" lon="16.3208383"><ele>952.0</ele><time>2026-04-07T09:03:08.792Z</time></trkpt><trkpt lat="38.5179067" lon="16.3209067"><ele>952.0</ele><time>2026-04-07T09:03:09.791Z</time></trkpt><trkpt lat="38.5180117" lon="16.3209717"><ele>952.0</ele><time>2026-04-07T09:03:10.792Z</time></trkpt><trkpt lat="38.5181283" lon="16.3210433"><ele>954.0</ele><time>2026-04-07T09:03:11.791Z</time></trkpt><trkpt lat="38.51823" lon="16.321125"><ele>956.0</ele><time>2026-04-07T09:03:12.791Z</time></trkpt><trkpt lat="38.518315" lon="16.3212183"><ele>958.0</ele><time>2026-04-07T09:03:13.791Z</time></trkpt><trkpt lat="38.518385" lon="16.32133"><ele>960.0</ele><time>2026-04-07T09:03:14.791Z</time></trkpt><trkpt lat="38.5184583" lon="16.3214167"><ele>962.0</ele><time>2026-04-07T09:03:15.791Z</time></trkpt><trkpt lat="38.5185367" lon="16.3214983"><ele>963.6</ele><time>2026-04-07T09:03:16.791Z</time></trkpt><trkpt lat="38.5186183" lon="16.321535"><ele>965.2</ele><time>2026-04-07T09:03:17.791Z</time></trkpt><trkpt lat="38.5186983" lon="16.3215117"><ele>966.8</ele><time>2026-04-07T09:03:18.791Z</time></trkpt><trkpt lat="38.51878" lon="16.321455"><ele>968.4</ele><time>2026-04-07T09:03:19.792Z</time></trkpt><trkpt lat="38.5188483" lon="16.3213617"><ele>970.0</ele><time>2026-04-07T09:03:20.791Z</time></trkpt><trkpt lat="38.5188883" lon="16.3212417"><ele>972.6</ele><time>2026-04-07T09:03:21.792Z</time></trkpt><trkpt lat="38.518905" lon="16.3210917"><ele>975.2</ele><time>2026-04-07T09:03:22.791Z</time></trkpt><trkpt lat="38.518905" lon="16.3209567"><ele>977.8</ele><time>2026-04-07T09:03:23.791Z</time></trkpt><trkpt lat="38.5188917" lon="16.320825"><ele>980.4</ele><time>2026-04-07T09:03:24.792Z</time></trkpt><trkpt lat="38.518865" lon="16.320685"><ele>983.0</ele><time>2026-04-07T09:03:25.791Z</time></trkpt><trkpt lat="38.5188233" lon="16.3205083"><ele>985.0</ele><time>2026-04-07T09:03:26.791Z</time></trkpt><trkpt lat="38.5187917" lon="16.32034"><ele>987.0</ele><time>2026-04-07T09:03:27.791Z</time></trkpt><trkpt lat="38.5187617" lon="16.3201783"><ele>989.0</ele><time>2026-04-07T09:03:28.791Z</time></trkpt><trkpt lat="38.518735" lon="16.320025"><ele>991.0</ele><time>2026-04-07T09:03:29.791Z</time></trkpt><trkpt lat="38.518735" lon="16.3198733"><ele>991.5</ele><time>2026-04-07T09:03:30.791Z</time></trkpt><trkpt lat="38.518765" lon="16.3197183"><ele>992.0</ele><time>2026-04-07T09:03:31.791Z</time></trkpt><trkpt lat="38.5188233" lon="16.3195833"><ele>992.5</ele><time>2026-04-07T09:03:32.791Z</time></trkpt><trkpt lat="38.5188967" lon="16.3194483"><ele>993.0</ele><time>2026-04-07T09:03:33.791Z</time></trkpt><trkpt lat="38.51898" lon="16.3193133"><ele>993.0</ele><time>2026-04-07T09:03:34.791Z</time></trkpt><trkpt lat="38.5190867" lon="16.3191517"><ele>993.0</ele><time>2026-04-07T09:03:35.791Z</time></trkpt><trkpt lat="38.5191817" lon="16.31902"><ele>993.0</ele><time>2026-04-07T09:03:36.791Z</time></trkpt><trkpt lat="38.51927" lon="16.3189167"><ele>993.0</ele><time>2026-04-07T09:03:37.792Z</time></trkpt><trkpt lat="38.5193617" lon="16.31884"><ele>992.0</ele><time>2026-04-07T09:03:38.792Z</time></trkpt><trkpt lat="38.5194683" lon="16.31878"><ele>991.0</ele><time>2026-04-07T09:03:39.791Z</time></trkpt><trkpt lat="38.5195833" lon="16.3187417"><ele>990.0</ele><time>2026-04-07T09:03:40.791Z</time></trkpt><trkpt lat="38.5196883" lon="16.318705"><ele>989.0</ele><time>2026-04-07T09:03:41.791Z</time></trkpt><trkpt lat="38.5198" lon="16.3186767"><ele>989.0</ele><time>2026-04-07T09:03:42.792Z</time></trkpt><trkpt lat="38.519915" lon="16.3186567"><ele>989.0</ele><time>2026-04-07T09:03:43.791Z</time></trkpt><trkpt lat="38.520025" lon="16.3186617"><ele>989.0</ele><time>2026-04-07T09:03:44.792Z</time></trkpt><trkpt lat="38.52014" lon="16.3186883"><ele>989.0</ele><time>2026-04-07T09:03:45.792Z</time></trkpt><trkpt lat="38.52025" lon="16.318725"><ele>989.0</ele><time>2026-04-07T09:03:46.791Z</time></trkpt><trkpt lat="38.520365" lon="16.3187783"><ele>989.0</ele><time>2026-04-07T09:03:47.792Z</time></trkpt><trkpt lat="38.52049" lon="16.3188683"><ele>989.0</ele><time>2026-04-07T09:03:48.791Z</time></trkpt><trkpt lat="38.5205983" lon="16.3189583"><ele>989.0</ele><time>2026-04-07T09:03:49.791Z</time></trkpt><trkpt lat="38.52071" lon="16.3190367"><ele>993.75</ele><time>2026-04-07T09:03:50.791Z</time></trkpt><trkpt lat="38.5208183" lon="16.319105"><ele>998.5</ele><time>2026-04-07T09:03:51.792Z</time></trkpt><trkpt lat="38.5209567" lon="16.3192033"><ele>1003.25</ele><time>2026-04-07T09:03:52.791Z</time></trkpt><trkpt lat="38.52107" lon="16.3192617"><ele>1008.0</ele><time>2026-04-07T09:03:53.792Z</time></trkpt><trkpt lat="38.5211917" lon="16.3193183"><ele>1007.5</ele><time>2026-04-07T09:03:54.791Z</time></trkpt><trkpt lat="38.5213217" lon="16.31938"><ele>1007.0</ele><time>2026-04-07T09:03:55.792Z</time></trkpt><trkpt lat="38.5214567" lon="16.3194433"><ele>1006.5</ele><time>2026-04-07T09:03:56.792Z</time></trkpt><trkpt lat="38.5215867" lon="16.3195033"><ele>1006.0</ele><time>2026-04-07T09:03:57.791Z</time></trkpt><trkpt lat="38.52173" lon="16.3195633"><ele>1006.0</ele><time>2026-04-07T09:03:58.791Z</time></trkpt><trkpt lat="38.5218833" lon="16.3196183"><ele>1006.0</ele><time>2026-04-07T09:03:59.791Z</time></trkpt><trkpt lat="38.52203" lon="16.3196633"><ele>1006.0</ele><time>2026-04-07T09:04:00.791Z</time></trkpt><trkpt lat="38.5221867" lon="16.319725"><ele>1006.3333333333333</ele><time>2026-04-07T09:04:01.791Z</time></trkpt><trkpt lat="38.522335" lon="16.3197567"><ele>1006.6666666666667</ele><time>2026-04-07T09:04:02.792Z</time></trkpt><trkpt lat="38.5224883" lon="16.3198083"><ele>1007.0</ele><time>2026-04-07T09:04:03.791Z</time></trkpt><trkpt lat="38.5226333" lon="16.3198667"><ele>1007.0</ele><time>2026-04-07T09:04:04.792Z</time></trkpt><trkpt lat="38.5227617" lon="16.31993"><ele>1007.0</ele><time>2026-04-07T09:04:05.791Z</time></trkpt><trkpt lat="38.5228767" lon="16.3200167"><ele>1007.0</ele><time>2026-04-07T09:04:06.791Z</time></trkpt><trkpt lat="38.5229883" lon="16.3200833"><ele>1007.0</ele><time>2026-04-07T09:04:07.792Z</time></trkpt><trkpt lat="38.5231333" lon="16.3201383"><ele>1004.75</ele><time>2026-04-07T09:04:08.791Z</time></trkpt><trkpt lat="38.5232617" lon="16.3201967"><ele>1002.5</ele><time>2026-04-07T09:04:09.791Z</time></trkpt><trkpt lat="38.5233767" lon="16.3202267"><ele>1000.25</ele><time>2026-04-07T09:04:10.791Z</time></trkpt><trkpt lat="38.5235083" lon="16.3202283"><ele>998.0</ele><time>2026-04-07T09:04:11.792Z</time></trkpt><trkpt lat="38.5236433" lon="16.3202133"><ele>996.6666666666667</ele><time>2026-04-07T09:04:12.791Z</time></trkpt><trkpt lat="38.52379" lon="16.32017"><ele>995.3333333333333</ele><time>2026-04-07T09:04:13.791Z</time></trkpt><trkpt lat="38.5239417" lon="16.3201133"><ele>994.0</ele><time>2026-04-07T09:04:14.791Z</time></trkpt><trkpt lat="38.52409" lon="16.3200683"><ele>994.0</ele><time>2026-04-07T09:04:15.791Z</time></trkpt><trkpt lat="38.5242283" lon="16.3200517"><ele>994.0</ele><time>2026-04-07T09:04:16.792Z</time></trkpt><trkpt lat="38.524355" lon="16.3200467"><ele>994.0</ele><time>2026-04-07T09:04:17.792Z</time></trkpt><trkpt lat="38.5244667" lon="16.320045"><ele>994.0</ele><time>2026-04-07T09:04:18.791Z</time></trkpt><trkpt lat="38.5245517" lon="16.3200683"><ele>993.9999999999999</ele><time>2026-04-07T09:04:19.792Z</time></trkpt><trkpt lat="38.5246167" lon="16.3200833"><ele>994.0</ele><time>2026-04-07T09:04:20.791Z</time></trkpt><trkpt lat="38.524705" lon="16.3201"><ele>994.0</ele><time>2026-04-07T09:04:22.791Z</time></trkpt><trkpt lat="38.5247817" lon="16.3201317"><ele>994.0</ele><time>2026-04-07T09:04:24.791Z</time></trkpt><trkpt lat="38.524695" lon="16.3200567"><ele>993.9999999999999</ele><time>2026-04-07T09:04:32.791Z</time></trkpt><trkpt lat="38.524605" lon="16.3200383"><ele>994.0</ele><time>2026-04-07T09:04:33.791Z</time></trkpt><trkpt lat="38.524495" lon="16.3200233"><ele>994.0</ele><time>2026-04-07T09:04:34.792Z</time></trkpt><trkpt lat="38.5243767" lon="16.3200133"><ele>994.0</ele><time>2026-04-07T09:04:35.791Z</time></trkpt><trkpt lat="38.52425" lon="16.3200117"><ele>994.0</ele><time>2026-04-07T09:04:36.791Z</time></trkpt><trkpt lat="38.5241117" lon="16.320015"><ele>994.0</ele><time>2026-04-07T09:04:37.791Z</time></trkpt><trkpt lat="38.5239767" lon="16.3200383"><ele>994.0</ele><time>2026-04-07T09:04:38.791Z</time></trkpt><trkpt lat="38.523855" lon="16.3200683"><ele>994.0</ele><time>2026-04-07T09:04:39.791Z</time></trkpt><trkpt lat="38.5236433" lon="16.3201267"><ele>994.0</ele><time>2026-04-07T09:04:41.792Z</time></trkpt><trkpt lat="38.5235667" lon="16.3201483"><ele>994.0</ele><time>2026-04-07T09:04:42.791Z</time></trkpt><trkpt lat="38.523475" lon="16.3201467"><ele>994.6666666666666</ele><time>2026-04-07T09:04:44.792Z</time></trkpt><trkpt lat="38.52338" lon="16.320125"><ele>995.3333333333333</ele><time>2026-04-07T09:04:46.791Z</time></trkpt><trkpt lat="38.52331" lon="16.3200967"><ele>996.0</ele><time>2026-04-07T09:04:47.792Z</time></trkpt><trkpt lat="38.5232317" lon="16.3200433"><ele>996.6666666666667</ele><time>2026-04-07T09:04:48.792Z</time></trkpt><trkpt lat="38.5231583" lon="16.3199833"><ele>997.3333333333334</ele><time>2026-04-07T09:04:49.791Z</time></trkpt><trkpt lat="38.5231033" lon="16.319925"><ele>998.0</ele><time>2026-04-07T09:04:50.791Z</time></trkpt><trkpt lat="38.523005" lon="16.3198817"><ele>1000.25</ele><time>2026-04-07T09:04:52.791Z</time></trkpt><trkpt lat="38.5228717" lon="16.3199367"><ele>1002.5</ele><time>2026-04-07T09:04:54.791Z</time></trkpt><trkpt lat="38.5227817" lon="16.31998"><ele>1004.75</ele><time>2026-04-07T09:04:55.791Z</time></trkpt><trkpt lat="38.52268" lon="16.3200283"><ele>1007.0</ele><time>2026-04-07T09:04:56.792Z</time></trkpt><trkpt lat="38.5225783" lon="16.3200733"><ele>1007.0</ele><time>2026-04-07T09:04:57.791Z</time></trkpt><trkpt lat="38.5224767" lon="16.3201233"><ele>1007.0</ele><time>2026-04-07T09:04:58.792Z</time></trkpt><trkpt lat="38.5223067" lon="16.3202283"><ele>1007.0</ele><time>2026-04-07T09:05:00.791Z</time></trkpt><trkpt lat="38.5222433" lon="16.3202967"><ele>1007.0</ele><time>2026-04-07T09:05:01.791Z</time></trkpt><trkpt lat="38.5221883" lon="16.3203417"><ele>1007.0</ele><time>2026-04-07T09:05:02.791Z</time></trkpt><trkpt lat="38.5221367" lon="16.3204133"><ele>1007.0</ele><time>2026-04-07T09:05:03.791Z</time></trkpt><trkpt lat="38.522095" lon="16.3205183"><ele>1007.0</ele><time>2026-04-07T09:05:04.792Z</time></trkpt><trkpt lat="38.522045" lon="16.3206517"><ele>1007.0</ele><time>2026-04-07T09:05:05.792Z</time></trkpt><trkpt lat="38.5220017" lon="16.320785"><ele>1007.0</ele><time>2026-04-07T09:05:06.792Z</time></trkpt><trkpt lat="38.52197" lon="16.32094"><ele>1007.0</ele><time>2026-04-07T09:05:07.791Z</time></trkpt><trkpt lat="38.5219383" lon="16.3210867"><ele>1006.8</ele><time>2026-04-07T09:05:08.791Z</time></trkpt><trkpt lat="38.521915" lon="16.3212183"><ele>1006.6</ele><time>2026-04-07T09:05:09.792Z</time></trkpt><trkpt lat="38.5218833" lon="16.3213383"><ele>1006.3999999999999</ele><time>2026-04-07T09:05:10.792Z</time></trkpt><trkpt lat="38.52185" lon="16.3214433"><ele>1006.1999999999999</ele><time>2026-04-07T09:05:11.791Z</time></trkpt><trkpt lat="38.5218117" lon="16.3215333"><ele>1006.0</ele><time>2026-04-07T09:05:12.791Z</time></trkpt><trkpt lat="38.5217567" lon="16.3216233"><ele>1006.0</ele><time>2026-04-07T09:05:13.791Z</time></trkpt><trkpt lat="38.5216983" lon="16.321705"><ele>1005.9999999999999</ele><time>2026-04-07T09:05:14.791Z</time></trkpt><trkpt lat="38.5216283" lon="16.321785"><ele>1005.9999999999999</ele><time>2026-04-07T09:05:15.791Z</time></trkpt><trkpt lat="38.5215567" lon="16.3218683"><ele>1006.0</ele><time>2026-04-07T09:05:16.791Z</time></trkpt><trkpt lat="38.5214867" lon="16.3219583"><ele>1006.0</ele><time>2026-04-07T09:05:17.791Z</time></trkpt><trkpt lat="38.5214267" lon="16.3220433"><ele>1005.9999999999999</ele><time>2026-04-07T09:05:18.791Z</time></trkpt><trkpt lat="38.5213533" lon="16.32213"><ele>1006.0</ele><time>2026-04-07T09:05:19.791Z</time></trkpt><trkpt lat="38.5212883" lon="16.322215"><ele>1006.0</ele><time>2026-04-07T09:05:20.792Z</time></trkpt><trkpt lat="38.5212383" lon="16.3222967"><ele>1006.0</ele><time>2026-04-07T09:05:21.792Z</time></trkpt><trkpt lat="38.5211967" lon="16.3223833"><ele>1005.9999999999999</ele><time>2026-04-07T09:05:22.791Z</time></trkpt><trkpt lat="38.5211633" lon="16.322475"><ele>1006.0</ele><time>2026-04-07T09:05:23.791Z</time></trkpt><trkpt lat="38.5211283" lon="16.3225783"><ele>1004.4</ele><time>2026-04-07T09:05:24.792Z</time></trkpt><trkpt lat="38.521095" lon="16.3226733"><ele>1002.8</ele><time>2026-04-07T09:05:25.791Z</time></trkpt><trkpt lat="38.5210667" lon="16.3227533"><ele>1001.1999999999999</ele><time>2026-04-07T09:05:26.791Z</time></trkpt><trkpt lat="38.5209933" lon="16.3228933"><ele>999.5999999999999</ele><time>2026-04-07T09:05:28.792Z</time></trkpt><trkpt lat="38.5209467" lon="16.322975"><ele>998.0</ele><time>2026-04-07T09:05:29.792Z</time></trkpt><trkpt lat="38.5208983" lon="16.3230717"><ele>997.8</ele><time>2026-04-07T09:05:30.791Z</time></trkpt><trkpt lat="38.5208433" lon="16.3231683"><ele>997.5999999999999</ele><time>2026-04-07T09:05:31.792Z</time></trkpt><trkpt lat="38.5207783" lon="16.3232867"><ele>997.4000000000001</ele><time>2026-04-07T09:05:32.791Z</time></trkpt><trkpt lat="38.520715" lon="16.3234083"><ele>997.2</ele><time>2026-04-07T09:05:33.791Z</time></trkpt><trkpt lat="38.520645" lon="16.32353"><ele>997.0</ele><time>2026-04-07T09:05:34.791Z</time></trkpt><trkpt lat="38.5205733" lon="16.323635"><ele>997.0</ele><time>2026-04-07T09:05:35.791Z</time></trkpt><trkpt lat="38.5205033" lon="16.32373"><ele>997.0</ele><time>2026-04-07T09:05:36.791Z</time></trkpt><trkpt lat="38.52043" lon="16.323825"><ele>997.0</ele><time>2026-04-07T09:05:37.792Z</time></trkpt><trkpt lat="38.5203633" lon="16.3239133"><ele>997.0</ele><time>2026-04-07T09:05:38.791Z</time></trkpt><trkpt lat="38.520295" lon="16.3239933"><ele>997.0</ele><time>2026-04-07T09:05:39.791Z</time></trkpt><trkpt lat="38.52022" lon="16.3240583"><ele>997.6</ele><time>2026-04-07T09:05:40.792Z</time></trkpt><trkpt lat="38.5201433" lon="16.3241067"><ele>998.2</ele><time>2026-04-07T09:05:41.791Z</time></trkpt><trkpt lat="38.5200567" lon="16.3241467"><ele>998.8</ele><time>2026-04-07T09:05:42.791Z</time></trkpt><trkpt lat="38.5199733" lon="16.324185"><ele>999.4</ele><time>2026-04-07T09:05:43.792Z</time></trkpt><trkpt lat="38.5198817" lon="16.3242233"><ele>1000.0</ele><time>2026-04-07T09:05:44.791Z</time></trkpt><trkpt lat="38.51979" lon="16.3242583"><ele>1000.0</ele><time>2026-04-07T09:05:45.791Z</time></trkpt><trkpt lat="38.519695" lon="16.3242967"><ele>1000.0</ele><time>2026-04-07T09:05:46.791Z</time></trkpt><trkpt lat="38.5195933" lon="16.324335"><ele>1000.0</ele><time>2026-04-07T09:05:47.791Z</time></trkpt><trkpt lat="38.5194933" lon="16.3243833"><ele>1000.0</ele><time>2026-04-07T09:05:48.792Z</time></trkpt><trkpt lat="38.519395" lon="16.3244283"><ele>1000.0</ele><time>2026-04-07T09:05:49.792Z</time></trkpt><trkpt lat="38.5192967" lon="16.3244817"><ele>999.6666666666666</ele><time>2026-04-07T09:05:50.792Z</time></trkpt><trkpt lat="38.51921" lon="16.32452"><ele>999.3333333333333</ele><time>2026-04-07T09:05:51.791Z</time></trkpt><trkpt lat="38.51913" lon="16.3245467"><ele>999.0</ele><time>2026-04-07T09:05:52.791Z</time></trkpt><trkpt lat="38.5190633" lon="16.32457"><ele>998.6666666666667</ele><time>2026-04-07T09:05:53.791Z</time></trkpt><trkpt lat="38.519" lon="16.32459"><ele>998.3333333333334</ele><time>2026-04-07T09:05:54.792Z</time></trkpt><trkpt lat="38.518895" lon="16.3246217"><ele>998.0</ele><time>2026-04-07T09:05:56.791Z</time></trkpt><trkpt lat="38.51882" lon="16.324655"><ele>998.0000000000001</ele><time>2026-04-07T09:05:58.792Z</time></trkpt><trkpt lat="38.51874" lon="16.3246767"><ele>998.0</ele><time>2026-04-07T09:06:01.792Z</time></trkpt><trkpt lat="38.5186667" lon="16.3247033"><ele>998.0</ele><time>2026-04-07T09:06:04.791Z</time></trkpt><trkpt lat="38.5186717" lon="16.3247933"><ele>998.0</ele><time>2026-04-07T09:06:08.791Z</time></trkpt><trkpt lat="38.51873" lon="16.3247167"><ele>998.0000000000001</ele><time>2026-04-07T09:06:13.791Z</time></trkpt><trkpt lat="38.5187867" lon="16.3246717"><ele>998.0</ele><time>2026-04-07T09:06:15.791Z</time></trkpt><trkpt lat="38.518855" lon="16.3246367"><ele>998.0</ele><time>2026-04-07T09:06:17.791Z</time></trkpt><trkpt lat="38.51893" lon="16.3246133"><ele>998.0</ele><time>2026-04-07T09:06:19.791Z</time></trkpt><trkpt lat="38.519035" lon="16.32458"><ele>998.0</ele><time>2026-04-07T09:06:21.791Z</time></trkpt><trkpt lat="38.5191467" lon="16.3245433"><ele>998.0</ele><time>2026-04-07T09:06:23.791Z</time></trkpt><trkpt lat="38.5192617" lon="16.3245133"><ele>998.0</ele><time>2026-04-07T09:06:25.791Z</time></trkpt><trkpt lat="38.5193233" lon="16.3244817"><ele>998.0</ele><time>2026-04-07T09:06:26.792Z</time></trkpt><trkpt lat="38.519395" lon="16.3244483"><ele>998.0</ele><time>2026-04-07T09:06:27.792Z</time></trkpt><trkpt lat="38.5194867" lon="16.3244067"><ele>998.0</ele><time>2026-04-07T09:06:28.791Z</time></trkpt><trkpt lat="38.5195933" lon="16.324365"><ele>998.0</ele><time>2026-04-07T09:06:29.791Z</time></trkpt><trkpt lat="38.5197067" lon="16.3243117"><ele>998.0</ele><time>2026-04-07T09:06:30.792Z</time></trkpt><trkpt lat="38.51981" lon="16.32427"><ele>998.4</ele><time>2026-04-07T09:06:31.791Z</time></trkpt><trkpt lat="38.5199017" lon="16.3242317"><ele>998.8</ele><time>2026-04-07T09:06:32.792Z</time></trkpt><trkpt lat="38.5199967" lon="16.3241933"><ele>999.2</ele><time>2026-04-07T09:06:33.792Z</time></trkpt><trkpt lat="38.5200917" lon="16.32415"><ele>999.6</ele><time>2026-04-07T09:06:34.791Z</time></trkpt><trkpt lat="38.5201967" lon="16.3241"><ele>1000.0</ele><time>2026-04-07T09:06:35.791Z</time></trkpt><trkpt lat="38.5203033" lon="16.32403"><ele>999.25</ele><time>2026-04-07T09:06:36.791Z</time></trkpt><trkpt lat="38.5204017" lon="16.323935"><ele>998.5</ele><time>2026-04-07T09:06:37.792Z</time></trkpt><trkpt lat="38.5204917" lon="16.3238083"><ele>997.75</ele><time>2026-04-07T09:06:38.791Z</time></trkpt><trkpt lat="38.5205833" lon="16.323675"><ele>997.0</ele><time>2026-04-07T09:06:39.791Z</time></trkpt><trkpt lat="38.5206683" lon="16.32354"><ele>997.0</ele><time>2026-04-07T09:06:40.791Z</time></trkpt><trkpt lat="38.52074" lon="16.3234033"><ele>997.0</ele><time>2026-04-07T09:06:41.792Z</time></trkpt><trkpt lat="38.520805" lon="16.3232683"><ele>997.0</ele><time>2026-04-07T09:06:42.792Z</time></trkpt><trkpt lat="38.52087" lon="16.3231517"><ele>997.0</ele><time>2026-04-07T09:06:43.791Z</time></trkpt><trkpt lat="38.5209383" lon="16.32306"><ele>997.1666666666666</ele><time>2026-04-07T09:06:44.791Z</time></trkpt><trkpt lat="38.5209833" lon="16.322975"><ele>997.3333333333333</ele><time>2026-04-07T09:06:45.792Z</time></trkpt><trkpt lat="38.5210267" lon="16.3228817"><ele>997.5</ele><time>2026-04-07T09:06:46.791Z</time></trkpt><trkpt lat="38.5210683" lon="16.3227917"><ele>997.6666666666667</ele><time>2026-04-07T09:06:47.791Z</time></trkpt><trkpt lat="38.5211033" lon="16.3227083"><ele>997.8333333333334</ele><time>2026-04-07T09:06:48.791Z</time></trkpt><trkpt lat="38.5211383" lon="16.32261"><ele>998.0</ele><time>2026-04-07T09:06:49.792Z</time></trkpt><trkpt lat="38.521175" lon="16.3225017"><ele>998.0000000000001</ele><time>2026-04-07T09:06:50.791Z</time></trkpt><trkpt lat="38.521205" lon="16.322395"><ele>998.0</ele><time>2026-04-07T09:06:51.791Z</time></trkpt><trkpt lat="38.5212367" lon="16.3223033"><ele>998.0</ele><time>2026-04-07T09:06:52.791Z</time></trkpt><trkpt lat="38.521275" lon="16.3222233"><ele>998.0</ele><time>2026-04-07T09:06:53.792Z</time></trkpt><trkpt lat="38.5213267" lon="16.322145"><ele>998.0000000000001</ele><time>2026-04-07T09:06:54.792Z</time></trkpt><trkpt lat="38.5213783" lon="16.3220683"><ele>998.0</ele><time>2026-04-07T09:06:55.791Z</time></trkpt><trkpt lat="38.5214417" lon="16.32198"><ele>999.5999999999999</ele><time>2026-04-07T09:06:56.791Z</time></trkpt><trkpt lat="38.521505" lon="16.3218967"><ele>1001.1999999999999</ele><time>2026-04-07T09:06:57.791Z</time></trkpt><trkpt lat="38.5215717" lon="16.3218117"><ele>1002.8</ele><time>2026-04-07T09:06:58.791Z</time></trkpt><trkpt lat="38.5216367" lon="16.3217267"><ele>1004.4</ele><time>2026-04-07T09:06:59.792Z</time></trkpt><trkpt lat="38.5217117" lon="16.3216333"><ele>1006.0</ele><time>2026-04-07T09:07:00.791Z</time></trkpt><trkpt lat="38.52178" lon="16.32155"><ele>1006.0</ele><time>2026-04-07T09:07:01.791Z</time></trkpt><trkpt lat="38.521825" lon="16.3214533"><ele>1005.9999999999999</ele><time>2026-04-07T09:07:02.791Z</time></trkpt><trkpt lat="38.521865" lon="16.3213433"><ele>1005.9999999999999</ele><time>2026-04-07T09:07:03.791Z</time></trkpt><trkpt lat="38.5218967" lon="16.3212083"><ele>1006.0</ele><time>2026-04-07T09:07:04.791Z</time></trkpt><trkpt lat="38.5219317" lon="16.3210633"><ele>1006.0</ele><time>2026-04-07T09:07:05.791Z</time></trkpt><trkpt lat="38.5219633" lon="16.3209267"><ele>1006.1999999999999</ele><time>2026-04-07T09:07:06.791Z</time></trkpt><trkpt lat="38.521985" lon="16.3208033"><ele>1006.3999999999999</ele><time>2026-04-07T09:07:07.791Z</time></trkpt><trkpt lat="38.5220217" lon="16.3206867"><ele>1006.6</ele><time>2026-04-07T09:07:08.792Z</time></trkpt><trkpt lat="38.5220633" lon="16.3205733"><ele>1006.8</ele><time>2026-04-07T09:07:09.791Z</time></trkpt><trkpt lat="38.522115" lon="16.3204717"><ele>1007.0</ele><time>2026-04-07T09:07:10.791Z</time></trkpt><trkpt lat="38.5221733" lon="16.3203783"><ele>1007.0</ele><time>2026-04-07T09:07:11.791Z</time></trkpt><trkpt lat="38.5222367" lon="16.3202967"><ele>1007.0</ele><time>2026-04-07T09:07:12.791Z</time></trkpt><trkpt lat="38.52232" lon="16.320225"><ele>1007.0</ele><time>2026-04-07T09:07:13.791Z</time></trkpt><trkpt lat="38.5224167" lon="16.3201667"><ele>1007.0</ele><time>2026-04-07T09:07:14.791Z</time></trkpt><trkpt lat="38.5225117" lon="16.3201117"><ele>1007.0</ele><time>2026-04-07T09:07:15.791Z</time></trkpt><trkpt lat="38.5226267" lon="16.320065"><ele>1007.0000000000001</ele><time>2026-04-07T09:07:16.791Z</time></trkpt><trkpt lat="38.5227283" lon="16.320045"><ele>1007.0</ele><time>2026-04-07T09:07:17.791Z</time></trkpt><trkpt lat="38.522815" lon="16.32002"><ele>1007.0</ele><time>2026-04-07T09:07:18.791Z</time></trkpt><trkpt lat="38.5228867" lon="16.3200117"><ele>1007.0</ele><time>2026-04-07T09:07:19.791Z</time></trkpt><trkpt lat="38.5229483" lon="16.3199817"><ele>1007.0000000000001</ele><time>2026-04-07T09:07:20.792Z</time></trkpt><trkpt lat="38.5230283" lon="16.3199667"><ele>1007.0</ele><time>2026-04-07T09:07:22.791Z</time></trkpt><trkpt lat="38.5231067" lon="16.3200183"><ele>1005.2</ele><time>2026-04-07T09:07:24.791Z</time></trkpt><trkpt lat="38.5231583" lon="16.320075"><ele>1003.4000000000001</ele><time>2026-04-07T09:07:25.791Z</time></trkpt><trkpt lat="38.5232317" lon="16.32011"><ele>1001.5999999999999</ele><time>2026-04-07T09:07:26.792Z</time></trkpt><trkpt lat="38.5233217" lon="16.3201583"><ele>999.8</ele><time>2026-04-07T09:07:27.792Z</time></trkpt><trkpt lat="38.5234217" lon="16.3201883"><ele>998.0</ele><time>2026-04-07T09:07:28.791Z</time></trkpt><trkpt lat="38.5235433" lon="16.3201833"><ele>998.0</ele><time>2026-04-07T09:07:29.791Z</time></trkpt><trkpt lat="38.5236783" lon="16.3201617"><ele>998.0</ele><time>2026-04-07T09:07:30.791Z</time></trkpt><trkpt lat="38.5238217" lon="16.3201083"><ele>998.0</ele><time>2026-04-07T09:07:31.792Z</time></trkpt><trkpt lat="38.5239717" lon="16.3200583"><ele>998.0</ele><time>2026-04-07T09:07:32.791Z</time></trkpt><trkpt lat="38.5241217" lon="16.320035"><ele>996.6666666666667</ele><time>2026-04-07T09:07:33.791Z</time></trkpt><trkpt lat="38.52428" lon="16.320025"><ele>995.3333333333333</ele><time>2026-04-07T09:07:34.792Z</time></trkpt><trkpt lat="38.5244433" lon="16.32004"><ele>994.0</ele><time>2026-04-07T09:07:35.791Z</time></trkpt><trkpt lat="38.524615" lon="16.3200683"><ele>993.6666666666666</ele><time>2026-04-07T09:07:36.791Z</time></trkpt><trkpt lat="38.524785" lon="16.3201"><ele>993.3333333333333</ele><time>2026-04-07T09:07:37.791Z</time></trkpt><trkpt lat="38.52496" lon="16.3201333"><ele>993.0</ele><time>2026-04-07T09:07:38.791Z</time></trkpt><trkpt lat="38.5251517" lon="16.3201733"><ele>993.0</ele><time>2026-04-07T09:07:39.791Z</time></trkpt><trkpt lat="38.5253533" lon="16.3202083"><ele>993.0</ele><time>2026-04-07T09:07:40.792Z</time></trkpt><trkpt lat="38.5255633" lon="16.3202533"><ele>993.0</ele><time>2026-04-07T09:07:41.791Z</time></trkpt><trkpt lat="38.5257933" lon="16.3203"><ele>991.0</ele><time>2026-04-07T09:07:42.791Z</time></trkpt><trkpt lat="38.52603" lon="16.3203467"><ele>989.0</ele><time>2026-04-07T09:07:43.791Z</time></trkpt><trkpt lat="38.5262717" lon="16.3203917"><ele>989.0</ele><time>2026-04-07T09:07:44.791Z</time></trkpt><trkpt lat="38.5265167" lon="16.320435"><ele>989.0</ele><time>2026-04-07T09:07:45.792Z</time></trkpt><trkpt lat="38.5267533" lon="16.3204767"><ele>989.0</ele><time>2026-04-07T09:07:46.791Z</time></trkpt><trkpt lat="38.5269833" lon="16.3205183"><ele>989.0</ele><time>2026-04-07T09:07:47.792Z</time></trkpt><trkpt lat="38.5272217" lon="16.3205583"><ele>989.5</ele><time>2026-04-07T09:07:48.791Z</time></trkpt><trkpt lat="38.527455" lon="16.3205967"><ele>990.0</ele><time>2026-04-07T09:07:49.791Z</time></trkpt><trkpt lat="38.5276783" lon="16.32065"><ele>991.0</ele><time>2026-04-07T09:07:50.791Z</time></trkpt><trkpt lat="38.5278983" lon="16.32069"><ele>992.0</ele><time>2026-04-07T09:07:51.792Z</time></trkpt><trkpt lat="38.52812" lon="16.3207283"><ele>993.0</ele><time>2026-04-07T09:07:52.792Z</time></trkpt><trkpt lat="38.5283517" lon="16.3207683"><ele>993.0</ele><time>2026-04-07T09:07:53.792Z</time></trkpt><trkpt lat="38.5285783" lon="16.3208067"><ele>993.0</ele><time>2026-04-07T09:07:54.791Z</time></trkpt><trkpt lat="38.52881" lon="16.32084"><ele>995.0</ele><time>2026-04-07T09:07:55.791Z</time></trkpt><trkpt lat="38.529025" lon="16.320885"><ele>997.0</ele><time>2026-04-07T09:07:56.791Z</time></trkpt><trkpt lat="38.529235" lon="16.3209367"><ele>999.0</ele><time>2026-04-07T09:07:57.791Z</time></trkpt><trkpt lat="38.5294483" lon="16.3209883"><ele>999.0</ele><time>2026-04-07T09:07:58.791Z</time></trkpt><trkpt lat="38.5296583" lon="16.32103"><ele>999.0</ele><time>2026-04-07T09:07:59.791Z</time></trkpt><trkpt lat="38.5298717" lon="16.3210683"><ele>999.0</ele><time>2026-04-07T09:08:00.792Z</time></trkpt><trkpt lat="38.5300883" lon="16.3211"><ele>999.0</ele><time>2026-04-07T09:08:01.791Z</time></trkpt><trkpt lat="38.530295" lon="16.3211433"><ele>999.0</ele><time>2026-04-07T09:08:02.791Z</time></trkpt><trkpt lat="38.5304983" lon="16.3211783"><ele>999.0</ele><time>2026-04-07T09:08:03.792Z</time></trkpt><trkpt lat="38.5307067" lon="16.3212117"><ele>999.0</ele><time>2026-04-07T09:08:04.791Z</time></trkpt><trkpt lat="38.5309167" lon="16.3212483"><ele>999.0</ele><time>2026-04-07T09:08:05.791Z</time></trkpt><trkpt lat="38.53113" lon="16.3212883"><ele>999.0</ele><time>2026-04-07T09:08:06.791Z</time></trkpt><trkpt lat="38.531345" lon="16.3213283"><ele>1001.0</ele><time>2026-04-07T09:08:07.792Z</time></trkpt><trkpt lat="38.531565" lon="16.3213667"><ele>1003.0</ele><time>2026-04-07T09:08:08.791Z</time></trkpt><trkpt lat="38.5317633" lon="16.3214083"><ele>1005.0</ele><time>2026-04-07T09:08:09.792Z</time></trkpt><trkpt lat="38.5319417" lon="16.3214467"><ele>1005.0</ele><time>2026-04-07T09:08:10.791Z</time></trkpt><trkpt lat="38.532095" lon="16.3214783"><ele>1005.0</ele><time>2026-04-07T09:08:11.791Z</time></trkpt><trkpt lat="38.5322383" lon="16.32151"><ele>1005.0</ele><time>2026-04-07T09:08:12.792Z</time></trkpt><trkpt lat="38.5323817" lon="16.321525"><ele>1005.0</ele><time>2026-04-07T09:08:13.791Z</time></trkpt><trkpt lat="38.5325267" lon="16.3215167"><ele>1005.0</ele><time>2026-04-07T09:08:14.791Z</time></trkpt><trkpt lat="38.5326633" lon="16.3214717"><ele>1005.0</ele><time>2026-04-07T09:08:15.792Z</time></trkpt><trkpt lat="38.5327967" lon="16.321395"><ele>1005.0</ele><time>2026-04-07T09:08:16.791Z</time></trkpt><trkpt lat="38.5329283" lon="16.3212917"><ele>1005.0</ele><time>2026-04-07T09:08:17.791Z</time></trkpt><trkpt lat="38.5330567" lon="16.3211483"><ele>1004.0</ele><time>2026-04-07T09:08:18.791Z</time></trkpt><trkpt lat="38.5331983" lon="16.3209733"><ele>1003.0</ele><time>2026-04-07T09:08:19.791Z</time></trkpt><trkpt lat="38.5333467" lon="16.3207833"><ele>1002.0</ele><time>2026-04-07T09:08:20.792Z</time></trkpt><trkpt lat="38.5334833" lon="16.3205933"><ele>1002.0</ele><time>2026-04-07T09:08:21.792Z</time></trkpt><trkpt lat="38.5336217" lon="16.3203833"><ele>1002.0</ele><time>2026-04-07T09:08:22.791Z</time></trkpt><trkpt lat="38.5337717" lon="16.320175"><ele>1002.0</ele><time>2026-04-07T09:08:23.791Z</time></trkpt><trkpt lat="38.533925" lon="16.319955"><ele>1002.0</ele><time>2026-04-07T09:08:24.791Z</time></trkpt><trkpt lat="38.5340883" lon="16.319725"><ele>1002.0</ele><time>2026-04-07T09:08:25.792Z</time></trkpt><trkpt lat="38.5342467" lon="16.319495"><ele>1002.0</ele><time>2026-04-07T09:08:26.792Z</time></trkpt><trkpt lat="38.5344083" lon="16.319285"><ele>1002.0</ele><time>2026-04-07T09:08:27.791Z</time></trkpt><trkpt lat="38.5345717" lon="16.3190917"><ele>1004.0</ele><time>2026-04-07T09:08:28.791Z</time></trkpt><trkpt lat="38.53476" lon="16.3189117"><ele>1006.0</ele><time>2026-04-07T09:08:29.792Z</time></trkpt><trkpt lat="38.5349517" lon="16.318745"><ele>1006.0</ele><time>2026-04-07T09:08:30.792Z</time></trkpt><trkpt lat="38.535145" lon="16.31859"><ele>1006.0</ele><time>2026-04-07T09:08:31.792Z</time></trkpt><trkpt lat="38.53532" lon="16.318455"><ele>1006.0</ele><time>2026-04-07T09:08:32.791Z</time></trkpt><trkpt lat="38.53548" lon="16.3183417"><ele>1007.3333333333333</ele><time>2026-04-07T09:08:33.792Z</time></trkpt><trkpt lat="38.53564" lon="16.3182633"><ele>1008.6666666666667</ele><time>2026-04-07T09:08:34.791Z</time></trkpt><trkpt lat="38.5358017" lon="16.3182333"><ele>1010.0</ele><time>2026-04-07T09:08:35.791Z</time></trkpt><trkpt lat="38.5359583" lon="16.318245"><ele>1010.0</ele><time>2026-04-07T09:08:36.792Z</time></trkpt><trkpt lat="38.5361067" lon="16.3182967"><ele>1010.0</ele><time>2026-04-07T09:08:37.791Z</time></trkpt><trkpt lat="38.536255" lon="16.318335"><ele>1010.0</ele><time>2026-04-07T09:08:38.791Z</time></trkpt><trkpt lat="38.5363883" lon="16.3183383"><ele>1010.0</ele><time>2026-04-07T09:08:39.791Z</time></trkpt><trkpt lat="38.5364783" lon="16.3182783"><ele>1010.5</ele><time>2026-04-07T09:08:40.791Z</time></trkpt><trkpt lat="38.5365433" lon="16.3181683"><ele>1011.0</ele><time>2026-04-07T09:08:41.791Z</time></trkpt><trkpt lat="38.5365733" lon="16.3180117"><ele>1011.5</ele><time>2026-04-07T09:08:42.791Z</time></trkpt><trkpt lat="38.536595" lon="16.3178567"><ele>1012.0</ele><time>2026-04-07T09:08:43.791Z</time></trkpt><trkpt lat="38.5366317" lon="16.31771"><ele>1012.0</ele><time>2026-04-07T09:08:44.791Z</time></trkpt><trkpt lat="38.5367083" lon="16.3175883"><ele>1012.0</ele><time>2026-04-07T09:08:45.791Z</time></trkpt><trkpt lat="38.536815" lon="16.3174817"><ele>1012.0</ele><time>2026-04-07T09:08:46.792Z</time></trkpt><trkpt lat="38.5369467" lon="16.3174"><ele>1012.0</ele><time>2026-04-07T09:08:47.791Z</time></trkpt><trkpt lat="38.53708" lon="16.3173067"><ele>1013.3333333333333</ele><time>2026-04-07T09:08:48.791Z</time></trkpt><trkpt lat="38.5372033" lon="16.3171817"><ele>1014.6666666666667</ele><time>2026-04-07T09:08:49.792Z</time></trkpt><trkpt lat="38.53731" lon="16.3170433"><ele>1016.0</ele><time>2026-04-07T09:08:50.791Z</time></trkpt><trkpt lat="38.537405" lon="16.3169033"><ele>1016.0</ele><time>2026-04-07T09:08:51.791Z</time></trkpt><trkpt lat="38.53748" lon="16.3167667"><ele>1016.0</ele><time>2026-04-07T09:08:52.791Z</time></trkpt><trkpt lat="38.53756" lon="16.3166533"><ele>1016.0</ele><time>2026-04-07T09:08:53.791Z</time></trkpt><trkpt lat="38.5376433" lon="16.3165583"><ele>1016.0</ele><time>2026-04-07T09:08:54.791Z</time></trkpt><trkpt lat="38.5377233" lon="16.3164967"><ele>1016.0000000000001</ele><time>2026-04-07T09:08:55.791Z</time></trkpt><trkpt lat="38.537795" lon="16.3164583"><ele>1016.0</ele><time>2026-04-07T09:08:56.791Z</time></trkpt><trkpt lat="38.5378683" lon="16.31643"><ele>1016.0</ele><time>2026-04-07T09:08:57.791Z</time></trkpt><trkpt lat="38.5379383" lon="16.3164067"><ele>1016.0</ele><time>2026-04-07T09:08:58.792Z</time></trkpt><trkpt lat="38.5380083" lon="16.3163817"><ele>1016.0000000000001</ele><time>2026-04-07T09:08:59.791Z</time></trkpt><trkpt lat="38.5380817" lon="16.31635"><ele>1016.0</ele><time>2026-04-07T09:09:00.791Z</time></trkpt><trkpt lat="38.53817" lon="16.3163117"><ele>1019.0</ele><time>2026-04-07T09:09:01.791Z</time></trkpt><trkpt lat="38.5382733" lon="16.3162683"><ele>1022.0</ele><time>2026-04-07T09:09:02.791Z</time></trkpt><trkpt lat="38.53839" lon="16.3162333"><ele>1025.0</ele><time>2026-04-07T09:09:03.791Z</time></trkpt><trkpt lat="38.5385133" lon="16.3161983"><ele>1028.0</ele><time>2026-04-07T09:09:04.791Z</time></trkpt><trkpt lat="38.5386483" lon="16.31615"><ele>1028.3333333333335</ele><time>2026-04-07T09:09:05.792Z</time></trkpt><trkpt lat="38.5387933" lon="16.3160933"><ele>1028.6666666666667</ele><time>2026-04-07T09:09:06.792Z</time></trkpt><trkpt lat="38.538945" lon="16.3160367"><ele>1029.0</ele><time>2026-04-07T09:09:07.791Z</time></trkpt><trkpt lat="38.539095" lon="16.3159817"><ele>1029.0</ele><time>2026-04-07T09:09:08.791Z</time></trkpt><trkpt lat="38.5392267" lon="16.315935"><ele>1029.0</ele><time>2026-04-07T09:09:09.792Z</time></trkpt><trkpt lat="38.5393233" lon="16.315905"><ele>1029.0</ele><time>2026-04-07T09:09:10.792Z</time></trkpt><trkpt lat="38.5394083" lon="16.3158683"><ele>1029.0</ele><time>2026-04-07T09:09:12.791Z</time></trkpt><trkpt lat="38.539315" lon="16.3158467"><ele>1029.0</ele><time>2026-04-07T09:09:22.792Z</time></trkpt><trkpt lat="38.5392417" lon="16.3158683"><ele>1029.0</ele><time>2026-04-07T09:09:23.791Z</time></trkpt><trkpt lat="38.5391433" lon="16.3158983"><ele>1029.0</ele><time>2026-04-07T09:09:24.791Z</time></trkpt><trkpt lat="38.5390267" lon="16.3159417"><ele>1029.0</ele><time>2026-04-07T09:09:25.792Z</time></trkpt><trkpt lat="38.5388783" lon="16.3159917"><ele>1029.0</ele><time>2026-04-07T09:09:26.792Z</time></trkpt><trkpt lat="38.5387267" lon="16.3160467"><ele>1028.75</ele><time>2026-04-07T09:09:27.791Z</time></trkpt><trkpt lat="38.53858" lon="16.3160967"><ele>1028.5</ele><time>2026-04-07T09:09:28.791Z</time></trkpt><trkpt lat="38.5384367" lon="16.3161483"><ele>1028.25</ele><time>2026-04-07T09:09:29.792Z</time></trkpt><trkpt lat="38.5383167" lon="16.3161867"><ele>1028.0</ele><time>2026-04-07T09:09:30.791Z</time></trkpt><trkpt lat="38.5382083" lon="16.3162283"><ele>1028.0</ele><time>2026-04-07T09:09:31.791Z</time></trkpt><trkpt lat="38.5381133" lon="16.3162567"><ele>1028.0</ele><time>2026-04-07T09:09:32.791Z</time></trkpt><trkpt lat="38.5380383" lon="16.316285"><ele>1028.0</ele><time>2026-04-07T09:09:33.791Z</time></trkpt><trkpt lat="38.537935" lon="16.3163217"><ele>1028.0</ele><time>2026-04-07T09:09:35.791Z</time></trkpt><trkpt lat="38.5378567" lon="16.316345"><ele>1028.0</ele><time>2026-04-07T09:09:37.791Z</time></trkpt><trkpt lat="38.5377983" lon="16.3163783"><ele>1028.0</ele><time>2026-04-07T09:09:39.792Z</time></trkpt><trkpt lat="38.537745" lon="16.316435"><ele>1027.5</ele><time>2026-04-07T09:09:43.791Z</time></trkpt><trkpt lat="38.53768" lon="16.31649"><ele>1027.0</ele><time>2026-04-07T09:09:48.791Z</time></trkpt><trkpt lat="38.53777" lon="16.3164883"><ele>1026.5</ele><time>2026-04-07T09:09:52.792Z</time></trkpt><trkpt lat="38.5378633" lon="16.3164383"><ele>1026.0</ele><time>2026-04-07T09:09:54.791Z</time></trkpt><trkpt lat="38.5379333" lon="16.3164233"><ele>1025.5</ele><time>2026-04-07T09:09:57.791Z</time></trkpt><trkpt lat="38.5378417" lon="16.31638"><ele>1025.0</ele><time>2026-04-07T09:10:04.791Z</time></trkpt><trkpt lat="38.5377567" lon="16.3163683"><ele>1023.8333333333334</ele><time>2026-04-07T09:10:06.791Z</time></trkpt><trkpt lat="38.5377033" lon="16.31632"><ele>1022.6666666666667</ele><time>2026-04-07T09:10:08.791Z</time></trkpt><trkpt lat="38.5376617" lon="16.3162417"><ele>1021.5</ele><time>2026-04-07T09:10:11.791Z</time></trkpt><trkpt lat="38.53759" lon="16.316185"><ele>1020.3333333333333</ele><time>2026-04-07T09:10:14.791Z</time></trkpt><trkpt lat="38.5375467" lon="16.3160983"><ele>1019.1666666666666</ele><time>2026-04-07T09:10:16.791Z</time></trkpt><trkpt lat="38.5375233" lon="16.315985"><ele>1018.0</ele><time>2026-04-07T09:10:18.792Z</time></trkpt><trkpt lat="38.5374967" lon="16.3158867"><ele>1017.9999999999999</ele><time>2026-04-07T09:10:20.791Z</time></trkpt><trkpt lat="38.5374667" lon="16.31578"><ele>1018.0</ele><time>2026-04-07T09:10:22.792Z</time></trkpt><trkpt lat="38.5374467" lon="16.315685"><ele>1018.0</ele><time>2026-04-07T09:10:24.791Z</time></trkpt><trkpt lat="38.53742" lon="16.3156033"><ele>1018.0</ele><time>2026-04-07T09:10:27.791Z</time></trkpt><trkpt lat="38.5374217" lon="16.315745"><ele>1017.9999999999999</ele><time>2026-04-07T09:10:33.791Z</time></trkpt><trkpt lat="38.537455" lon="16.315835"><ele>1018.0</ele><time>2026-04-07T09:10:34.791Z</time></trkpt><trkpt lat="38.5374967" lon="16.31594"><ele>1017.9999999999999</ele><time>2026-04-07T09:10:35.791Z</time></trkpt><trkpt lat="38.53754" lon="16.3160533"><ele>1018.0</ele><time>2026-04-07T09:10:36.792Z</time></trkpt><trkpt lat="38.5375633" lon="16.3161667"><ele>1018.0</ele><time>2026-04-07T09:10:37.791Z</time></trkpt><trkpt lat="38.5375983" lon="16.316275"><ele>1018.0</ele><time>2026-04-07T09:10:38.791Z</time></trkpt><trkpt lat="38.53762" lon="16.31636"><ele>1017.9999999999999</ele><time>2026-04-07T09:10:39.791Z</time></trkpt><trkpt lat="38.5376533" lon="16.3164717"><ele>1018.0</ele><time>2026-04-07T09:10:41.792Z</time></trkpt><trkpt lat="38.53772" lon="16.3164883"><ele>1017.6666666666666</ele><time>2026-04-07T09:10:43.792Z</time></trkpt><trkpt lat="38.5378317" lon="16.3164617"><ele>1017.3333333333333</ele><time>2026-04-07T09:10:45.791Z</time></trkpt><trkpt lat="38.5378983" lon="16.31644"><ele>1017.0</ele><time>2026-04-07T09:10:46.791Z</time></trkpt><trkpt lat="38.5379683" lon="16.3164167"><ele>1016.6666666666667</ele><time>2026-04-07T09:10:47.792Z</time></trkpt><trkpt lat="38.5380517" lon="16.3163633"><ele>1016.3333333333334</ele><time>2026-04-07T09:10:48.792Z</time></trkpt><trkpt lat="38.5381183" lon="16.31634"><ele>1016.0</ele><time>2026-04-07T09:10:49.791Z</time></trkpt><trkpt lat="38.53819" lon="16.31631"><ele>1018.0000000000001</ele><time>2026-04-07T09:10:50.792Z</time></trkpt><trkpt lat="38.53826" lon="16.3162867"><ele>1020.0</ele><time>2026-04-07T09:10:51.792Z</time></trkpt><trkpt lat="38.53833" lon="16.31626"><ele>1022.0</ele><time>2026-04-07T09:10:52.791Z</time></trkpt><trkpt lat="38.5384083" lon="16.316235"><ele>1024.0</ele><time>2026-04-07T09:10:53.791Z</time></trkpt><trkpt lat="38.5384917" lon="16.316195"><ele>1026.0</ele><time>2026-04-07T09:10:54.791Z</time></trkpt><trkpt lat="38.5385833" lon="16.3161567"><ele>1028.0</ele><time>2026-04-07T09:10:55.792Z</time></trkpt><trkpt lat="38.5386833" lon="16.316125"><ele>1028.25</ele><time>2026-04-07T09:10:56.791Z</time></trkpt><trkpt lat="38.5387867" lon="16.316085"><ele>1028.5</ele><time>2026-04-07T09:10:57.791Z</time></trkpt><trkpt lat="38.5388967" lon="16.316045"><ele>1028.75</ele><time>2026-04-07T09:10:58.791Z</time></trkpt><trkpt lat="38.5390117" lon="16.3159967"><ele>1029.0</ele><time>2026-04-07T09:10:59.791Z</time></trkpt><trkpt lat="38.5391333" lon="16.3159483"><ele>1029.0</ele><time>2026-04-07T09:11:00.791Z</time></trkpt><trkpt lat="38.5392533" lon="16.315895"><ele>1029.0</ele><time>2026-04-07T09:11:01.791Z</time></trkpt><trkpt lat="38.5393817" lon="16.31584"><ele>1029.0</ele><time>2026-04-07T09:11:02.791Z</time></trkpt><trkpt lat="38.53951" lon="16.3157817"><ele>1029.0</ele><time>2026-04-07T09:11:03.792Z</time></trkpt><trkpt lat="38.5396267" lon="16.3157517"><ele>1029.4</ele><time>2026-04-07T09:11:04.791Z</time></trkpt><trkpt lat="38.5397683" lon="16.3157083"><ele>1029.8000000000002</ele><time>2026-04-07T09:11:05.791Z</time></trkpt><trkpt lat="38.53987" lon="16.3156867"><ele>1030.1999999999998</ele><time>2026-04-07T09:11:06.791Z</time></trkpt><trkpt lat="38.5399733" lon="16.3156633"><ele>1030.6</ele><time>2026-04-07T09:11:07.791Z</time></trkpt><trkpt lat="38.54006" lon="16.315675"><ele>1031.0</ele><time>2026-04-07T09:11:08.791Z</time></trkpt><trkpt lat="38.540145" lon="16.31571"><ele>1031.0</ele><time>2026-04-07T09:11:09.791Z</time></trkpt><trkpt lat="38.5402083" lon="16.3157717"><ele>1031.0</ele><time>2026-04-07T09:11:10.791Z</time></trkpt><trkpt lat="38.5402883" lon="16.31584"><ele>1031.0</ele><time>2026-04-07T09:11:11.791Z</time></trkpt><trkpt lat="38.5403733" lon="16.3159"><ele>1031.0</ele><time>2026-04-07T09:11:12.791Z</time></trkpt><trkpt lat="38.5404817" lon="16.3159417"><ele>1031.0</ele><time>2026-04-07T09:11:13.792Z</time></trkpt><trkpt lat="38.54061" lon="16.3159683"><ele>1029.75</ele><time>2026-04-07T09:11:14.792Z</time></trkpt><trkpt lat="38.5407383" lon="16.3159717"><ele>1028.5</ele><time>2026-04-07T09:11:15.791Z</time></trkpt><trkpt lat="38.5408833" lon="16.3159467"><ele>1027.25</ele><time>2026-04-07T09:11:16.792Z</time></trkpt><trkpt lat="38.541015" lon="16.315905"><ele>1026.0</ele><time>2026-04-07T09:11:17.792Z</time></trkpt><trkpt lat="38.541155" lon="16.3158567"><ele>1025.25</ele><time>2026-04-07T09:11:18.791Z</time></trkpt><trkpt lat="38.54128" lon="16.315815"><ele>1024.5</ele><time>2026-04-07T09:11:19.791Z</time></trkpt><trkpt lat="38.5414083" lon="16.3157833"><ele>1023.75</ele><time>2026-04-07T09:11:20.792Z</time></trkpt><trkpt lat="38.54155" lon="16.3157533"><ele>1023.0</ele><time>2026-04-07T09:11:21.792Z</time></trkpt><trkpt lat="38.541695" lon="16.31573"><ele>1023.0</ele><time>2026-04-07T09:11:22.791Z</time></trkpt><trkpt lat="38.54183" lon="16.3157117"><ele>1023.0</ele><time>2026-04-07T09:11:23.791Z</time></trkpt><trkpt lat="38.54196" lon="16.31568"><ele>1023.0</ele><time>2026-04-07T09:11:24.791Z</time></trkpt><trkpt lat="38.5420783" lon="16.3156517"><ele>1023.0</ele><time>2026-04-07T09:11:25.791Z</time></trkpt><trkpt lat="38.5422067" lon="16.3156267"><ele>1022.25</ele><time>2026-04-07T09:11:26.791Z</time></trkpt><trkpt lat="38.5423217" lon="16.315605"><ele>1021.5</ele><time>2026-04-07T09:11:27.791Z</time></trkpt><trkpt lat="38.5424383" lon="16.315595"><ele>1020.75</ele><time>2026-04-07T09:11:28.791Z</time></trkpt><trkpt lat="38.5425533" lon="16.3155967"><ele>1020.0</ele><time>2026-04-07T09:11:29.791Z</time></trkpt><trkpt lat="38.5426667" lon="16.3156183"><ele>1020.0</ele><time>2026-04-07T09:11:30.791Z</time></trkpt><trkpt lat="38.54278" lon="16.3156583"><ele>1020.0</ele><time>2026-04-07T09:11:31.792Z</time></trkpt><trkpt lat="38.54289" lon="16.31574"><ele>1020.0</ele><time>2026-04-07T09:11:32.791Z</time></trkpt><trkpt lat="38.5429983" lon="16.3158217"><ele>1020.0</ele><time>2026-04-07T09:11:33.791Z</time></trkpt><trkpt lat="38.5431" lon="16.3159267"><ele>1018.75</ele><time>2026-04-07T09:11:34.792Z</time></trkpt><trkpt lat="38.54318" lon="16.3160683"><ele>1017.5</ele><time>2026-04-07T09:11:35.791Z</time></trkpt><trkpt lat="38.54326" lon="16.316225"><ele>1016.25</ele><time>2026-04-07T09:11:36.791Z</time></trkpt><trkpt lat="38.5433367" lon="16.3163717"><ele>1015.0</ele><time>2026-04-07T09:11:37.791Z</time></trkpt><trkpt lat="38.5434133" lon="16.3165017"><ele>1015.0</ele><time>2026-04-07T09:11:38.792Z</time></trkpt><trkpt lat="38.5435067" lon="16.3166167"><ele>1015.0</ele><time>2026-04-07T09:11:39.791Z</time></trkpt><trkpt lat="38.5436" lon="16.3167083"><ele>1015.0</ele><time>2026-04-07T09:11:40.792Z</time></trkpt><trkpt lat="38.54371" lon="16.3167883"><ele>1015.0</ele><time>2026-04-07T09:11:41.792Z</time></trkpt><trkpt lat="38.5438417" lon="16.3168633"><ele>1013.0</ele><time>2026-04-07T09:11:42.791Z</time></trkpt><trkpt lat="38.5439733" lon="16.31694"><ele>1011.0</ele><time>2026-04-07T09:11:43.792Z</time></trkpt><trkpt lat="38.5441017" lon="16.3170233"><ele>1009.0</ele><time>2026-04-07T09:11:44.791Z</time></trkpt><trkpt lat="38.5442133" lon="16.3171333"><ele>1007.0</ele><time>2026-04-07T09:11:45.791Z</time></trkpt><trkpt lat="38.5443217" lon="16.3172383"><ele>1006.75</ele><time>2026-04-07T09:11:46.792Z</time></trkpt><trkpt lat="38.544395" lon="16.3173383"><ele>1006.5</ele><time>2026-04-07T09:11:47.791Z</time></trkpt><trkpt lat="38.5444517" lon="16.3174617"><ele>1006.25</ele><time>2026-04-07T09:11:48.792Z</time></trkpt><trkpt lat="38.5445033" lon="16.3176267"><ele>1006.0</ele><time>2026-04-07T09:11:49.792Z</time></trkpt><trkpt lat="38.5445383" lon="16.317765"><ele>1006.0</ele><time>2026-04-07T09:11:50.792Z</time></trkpt><trkpt lat="38.54457" lon="16.3178917"><ele>1005.9999999999999</ele><time>2026-04-07T09:11:51.791Z</time></trkpt><trkpt lat="38.5445783" lon="16.3179833"><ele>1005.9999999999999</ele><time>2026-04-07T09:11:52.791Z</time></trkpt><trkpt lat="38.5445267" lon="16.3181"><ele>1006.0</ele><time>2026-04-07T09:11:54.791Z</time></trkpt><trkpt lat="38.5443833" lon="16.3181017"><ele>1006.0</ele><time>2026-04-07T09:11:56.792Z</time></trkpt><trkpt lat="38.5442667" lon="16.3180617"><ele>1006.0</ele><time>2026-04-07T09:11:57.792Z</time></trkpt><trkpt lat="38.544125" lon="16.3180017"><ele>1006.0</ele><time>2026-04-07T09:11:58.791Z</time></trkpt><trkpt lat="38.5439767" lon="16.31794"><ele>1006.0</ele><time>2026-04-07T09:11:59.792Z</time></trkpt><trkpt lat="38.5438333" lon="16.3178917"><ele>1006.0</ele><time>2026-04-07T09:12:00.792Z</time></trkpt><trkpt lat="38.543725" lon="16.3178667"><ele>1005.9999999999999</ele><time>2026-04-07T09:12:01.791Z</time></trkpt><trkpt lat="38.543635" lon="16.31786"><ele>1005.9999999999999</ele><time>2026-04-07T09:12:02.791Z</time></trkpt><trkpt lat="38.5435633" lon="16.3178683"><ele>1006.0</ele><time>2026-04-07T09:12:03.791Z</time></trkpt><trkpt lat="38.54348" lon="16.3179217"><ele>1006.0</ele><time>2026-04-07T09:12:05.792Z</time></trkpt><trkpt lat="38.543505" lon="16.318075"><ele>1006.0</ele><time>2026-04-07T09:12:07.791Z</time></trkpt><trkpt lat="38.5435767" lon="16.31817"><ele>1006.0</ele><time>2026-04-07T09:12:08.792Z</time></trkpt><trkpt lat="38.5436383" lon="16.318265"><ele>1006.0</ele><time>2026-04-07T09:12:09.791Z</time></trkpt><trkpt lat="38.54373" lon="16.3183817"><ele>1006.0</ele><time>2026-04-07T09:12:10.791Z</time></trkpt><trkpt lat="38.5438833" lon="16.3185417"><ele>1004.6666666666666</ele><time>2026-04-07T09:12:11.791Z</time></trkpt><trkpt lat="38.54402" lon="16.3186667"><ele>1003.3333333333333</ele><time>2026-04-07T09:12:12.791Z</time></trkpt><trkpt lat="38.5442017" lon="16.31879"><ele>1002.0</ele><time>2026-04-07T09:12:13.791Z</time></trkpt><trkpt lat="38.5443983" lon="16.3189067"><ele>997.3333333333333</ele><time>2026-04-07T09:12:14.792Z</time></trkpt><trkpt lat="38.5445767" lon="16.31899"><ele>992.6666666666666</ele><time>2026-04-07T09:12:15.791Z</time></trkpt><trkpt lat="38.5447567" lon="16.319035"><ele>988.0</ele><time>2026-04-07T09:12:16.791Z</time></trkpt><trkpt lat="38.5449283" lon="16.319085"><ele>988.0</ele><time>2026-04-07T09:12:17.791Z</time></trkpt><trkpt lat="38.5450883" lon="16.3191117"><ele>988.0</ele><time>2026-04-07T09:12:18.791Z</time></trkpt><trkpt lat="38.5452283" lon="16.3191417"><ele>988.0</ele><time>2026-04-07T09:12:19.792Z</time></trkpt><trkpt lat="38.5453483" lon="16.31918"><ele>988.0</ele><time>2026-04-07T09:12:20.791Z</time></trkpt><trkpt lat="38.545465" lon="16.3192467"><ele>986.0</ele><time>2026-04-07T09:12:21.792Z</time></trkpt><trkpt lat="38.5455767" lon="16.3193317"><ele>984.0</ele><time>2026-04-07T09:12:22.792Z</time></trkpt><trkpt lat="38.545685" lon="16.31942"><ele>982.0</ele><time>2026-04-07T09:12:23.791Z</time></trkpt><trkpt lat="38.5457917" lon="16.319525"><ele>980.0</ele><time>2026-04-07T09:12:24.791Z</time></trkpt><trkpt lat="38.5458783" lon="16.319635"><ele>981.25</ele><time>2026-04-07T09:12:25.791Z</time></trkpt><trkpt lat="38.545945" lon="16.3197667"><ele>982.5</ele><time>2026-04-07T09:12:26.791Z</time></trkpt><trkpt lat="38.545975" lon="16.3199117"><ele>983.75</ele><time>2026-04-07T09:12:27.791Z</time></trkpt><trkpt lat="38.5459817" lon="16.320055"><ele>985.0</ele><time>2026-04-07T09:12:28.792Z</time></trkpt><trkpt lat="38.5459783" lon="16.3201867"><ele>985.0</ele><time>2026-04-07T09:12:29.791Z</time></trkpt><trkpt lat="38.54598" lon="16.3203317"><ele>985.0</ele><time>2026-04-07T09:12:30.792Z</time></trkpt><trkpt lat="38.5460017" lon="16.320475"><ele>985.0</ele><time>2026-04-07T09:12:31.791Z</time></trkpt><trkpt lat="38.546055" lon="16.320605"><ele>985.0</ele><time>2026-04-07T09:12:32.792Z</time></trkpt><trkpt lat="38.5461233" lon="16.3207117"><ele>979.75</ele><time>2026-04-07T09:12:33.791Z</time></trkpt><trkpt lat="38.5462217" lon="16.3208317"><ele>974.5</ele><time>2026-04-07T09:12:34.791Z</time></trkpt><trkpt lat="38.5463467" lon="16.3209367"><ele>969.25</ele><time>2026-04-07T09:12:35.792Z</time></trkpt><trkpt lat="38.5464783" lon="16.3210217"><ele>964.0</ele><time>2026-04-07T09:12:36.792Z</time></trkpt><trkpt lat="38.5466167" lon="16.3210867"><ele>964.0</ele><time>2026-04-07T09:12:37.791Z</time></trkpt><trkpt lat="38.5467417" lon="16.321145"><ele>964.0000000000001</ele><time>2026-04-07T09:12:38.791Z</time></trkpt><trkpt lat="38.546855" lon="16.3211733"><ele>964.0000000000001</ele><time>2026-04-07T09:12:39.791Z</time></trkpt><trkpt lat="38.546955" lon="16.32116"><ele>964.0</ele><time>2026-04-07T09:12:40.791Z</time></trkpt><trkpt lat="38.5470383" lon="16.3210883"><ele>964.0</ele><time>2026-04-07T09:12:41.791Z</time></trkpt><trkpt lat="38.5471033" lon="16.3209767"><ele>963.25</ele><time>2026-04-07T09:12:42.791Z</time></trkpt><trkpt lat="38.5471567" lon="16.3208517"><ele>962.5</ele><time>2026-04-07T09:12:43.791Z</time></trkpt><trkpt lat="38.5472" lon="16.3206933"><ele>961.75</ele><time>2026-04-07T09:12:44.792Z</time></trkpt><trkpt lat="38.5472267" lon="16.3205283"><ele>961.0</ele><time>2026-04-07T09:12:45.792Z</time></trkpt><trkpt lat="38.5472633" lon="16.3203583"><ele>960.25</ele><time>2026-04-07T09:12:46.791Z</time></trkpt><trkpt lat="38.547285" lon="16.320195"><ele>959.5</ele><time>2026-04-07T09:12:47.791Z</time></trkpt><trkpt lat="38.5472867" lon="16.320045"><ele>958.75</ele><time>2026-04-07T09:12:48.791Z</time></trkpt><trkpt lat="38.5472517" lon="16.3199067"><ele>958.0</ele><time>2026-04-07T09:12:49.791Z</time></trkpt><trkpt lat="38.5471833" lon="16.3197733"><ele>957.5</ele><time>2026-04-07T09:12:50.791Z</time></trkpt><trkpt lat="38.54708" lon="16.3196483"><ele>957.0</ele><time>2026-04-07T09:12:51.791Z</time></trkpt><trkpt lat="38.546975" lon="16.3195433"><ele>956.5</ele><time>2026-04-07T09:12:52.791Z</time></trkpt><trkpt lat="38.5468683" lon="16.3194517"><ele>956.0</ele><time>2026-04-07T09:12:53.792Z</time></trkpt><trkpt lat="38.54677" lon="16.3193833"><ele>958.8</ele><time>2026-04-07T09:12:54.791Z</time></trkpt><trkpt lat="38.5466967" lon="16.3193267"><ele>961.5999999999999</ele><time>2026-04-07T09:12:55.791Z</time></trkpt><trkpt lat="38.5466383" lon="16.3192183"><ele>964.4</ele><time>2026-04-07T09:12:57.792Z</time></trkpt><trkpt lat="38.5466783" lon="16.3191517"><ele>967.2</ele><time>2026-04-07T09:12:59.791Z</time></trkpt><trkpt lat="38.5467967" lon="16.3191317"><ele>970.0</ele><time>2026-04-07T09:13:01.792Z</time></trkpt><trkpt lat="38.5468867" lon="16.3191033"><ele>969.9999999999999</ele><time>2026-04-07T09:13:02.791Z</time></trkpt><trkpt lat="38.5469717" lon="16.3190717"><ele>970.0</ele><time>2026-04-07T09:13:03.791Z</time></trkpt><trkpt lat="38.5470583" lon="16.3190433"><ele>970.0</ele><time>2026-04-07T09:13:04.791Z</time></trkpt><trkpt lat="38.5471433" lon="16.3190033"><ele>970.0</ele><time>2026-04-07T09:13:05.791Z</time></trkpt><trkpt lat="38.54722" lon="16.318965"><ele>969.9999999999999</ele><time>2026-04-07T09:13:06.791Z</time></trkpt><trkpt lat="38.5473033" lon="16.3189383"><ele>970.0</ele><time>2026-04-07T09:13:07.791Z</time></trkpt><trkpt lat="38.5473817" lon="16.318905"><ele>967.8</ele><time>2026-04-07T09:13:08.792Z</time></trkpt><trkpt lat="38.5474683" lon="16.3188783"><ele>965.6</ele><time>2026-04-07T09:13:09.792Z</time></trkpt><trkpt lat="38.54756" lon="16.3188517"><ele>963.4000000000001</ele><time>2026-04-07T09:13:10.791Z</time></trkpt><trkpt lat="38.5476667" lon="16.318825"><ele>961.2</ele><time>2026-04-07T09:13:11.791Z</time></trkpt><trkpt lat="38.5477833" lon="16.3188033"><ele>959.0</ele><time>2026-04-07T09:13:12.792Z</time></trkpt><trkpt lat="38.547905" lon="16.3187767"><ele>957.75</ele><time>2026-04-07T09:13:13.791Z</time></trkpt><trkpt lat="38.5480333" lon="16.3187567"><ele>956.5</ele><time>2026-04-07T09:13:14.792Z</time></trkpt><trkpt lat="38.548135" lon="16.3187333"><ele>955.25</ele><time>2026-04-07T09:13:15.791Z</time></trkpt><trkpt lat="38.5482533" lon="16.3187067"><ele>954.0</ele><time>2026-04-07T09:13:16.791Z</time></trkpt><trkpt lat="38.5483867" lon="16.318685"><ele>954.0</ele><time>2026-04-07T09:13:17.791Z</time></trkpt><trkpt lat="38.5485167" lon="16.3186633"><ele>954.0</ele><time>2026-04-07T09:13:18.791Z</time></trkpt><trkpt lat="38.5486467" lon="16.3186383"><ele>954.0</ele><time>2026-04-07T09:13:19.791Z</time></trkpt><trkpt lat="38.548785" lon="16.31862"><ele>954.0</ele><time>2026-04-07T09:13:20.791Z</time></trkpt><trkpt lat="38.54892" lon="16.3185967"><ele>952.5</ele><time>2026-04-07T09:13:21.791Z</time></trkpt><trkpt lat="38.5490617" lon="16.318575"><ele>951.0</ele><time>2026-04-07T09:13:22.791Z</time></trkpt><trkpt lat="38.5491867" lon="16.3185483"><ele>949.5</ele><time>2026-04-07T09:13:23.792Z</time></trkpt><trkpt lat="38.5493283" lon="16.3185383"><ele>948.0</ele><time>2026-04-07T09:13:24.791Z</time></trkpt><trkpt lat="38.5494517" lon="16.31854"><ele>946.4</ele><time>2026-04-07T09:13:25.791Z</time></trkpt><trkpt lat="38.549565" lon="16.3185633"><ele>944.8</ele><time>2026-04-07T09:13:26.791Z</time></trkpt><trkpt lat="38.5496733" lon="16.3186133"><ele>943.2</ele><time>2026-04-07T09:13:27.791Z</time></trkpt><trkpt lat="38.5497733" lon="16.3186833"><ele>941.6</ele><time>2026-04-07T09:13:28.792Z</time></trkpt><trkpt lat="38.549865" lon="16.3187467"><ele>940.0</ele><time>2026-04-07T09:13:29.791Z</time></trkpt><trkpt lat="38.5499383" lon="16.3188417"><ele>940.2</ele><time>2026-04-07T09:13:30.791Z</time></trkpt><trkpt lat="38.5500017" lon="16.31894"><ele>940.4</ele><time>2026-04-07T09:13:31.791Z</time></trkpt><trkpt lat="38.5500683" lon="16.3190333"><ele>940.5999999999999</ele><time>2026-04-07T09:13:32.791Z</time></trkpt><trkpt lat="38.5501333" lon="16.31912"><ele>940.8</ele><time>2026-04-07T09:13:33.791Z</time></trkpt><trkpt lat="38.5501983" lon="16.3192067"><ele>941.0</ele><time>2026-04-07T09:13:34.791Z</time></trkpt><trkpt lat="38.5502533" lon="16.3192883"><ele>941.0000000000001</ele><time>2026-04-07T09:13:35.792Z</time></trkpt><trkpt lat="38.5502983" lon="16.319385"><ele>941.0</ele><time>2026-04-07T09:13:36.791Z</time></trkpt><trkpt lat="38.5503283" lon="16.3194817"><ele>941.0</ele><time>2026-04-07T09:13:37.791Z</time></trkpt><trkpt lat="38.5503317" lon="16.3195817"><ele>941.0</ele><time>2026-04-07T09:13:38.791Z</time></trkpt><trkpt lat="38.55031" lon="16.3196633"><ele>941.0000000000001</ele><time>2026-04-07T09:13:39.791Z</time></trkpt><trkpt lat="38.5502617" lon="16.319725"><ele>941.0</ele><time>2026-04-07T09:13:40.791Z</time></trkpt><trkpt lat="38.5501767" lon="16.319765"><ele>939.4</ele><time>2026-04-07T09:13:41.791Z</time></trkpt><trkpt lat="38.55008" lon="16.31979"><ele>937.8</ele><time>2026-04-07T09:13:42.791Z</time></trkpt><trkpt lat="38.5499767" lon="16.319815"><ele>936.1999999999999</ele><time>2026-04-07T09:13:43.791Z</time></trkpt><trkpt lat="38.549875" lon="16.3198517"><ele>934.5999999999999</ele><time>2026-04-07T09:13:44.791Z</time></trkpt><trkpt lat="38.5497917" lon="16.319905"><ele>933.0</ele><time>2026-04-07T09:13:45.791Z</time></trkpt><trkpt lat="38.54971" lon="16.3199817"><ele>933.0</ele><time>2026-04-07T09:13:46.792Z</time></trkpt><trkpt lat="38.5496567" lon="16.3200767"><ele>933.0</ele><time>2026-04-07T09:13:47.792Z</time></trkpt><trkpt lat="38.5496383" lon="16.3202"><ele>933.0</ele><time>2026-04-07T09:13:48.791Z</time></trkpt><trkpt lat="38.5496433" lon="16.3203383"><ele>933.0</ele><time>2026-04-07T09:13:49.791Z</time></trkpt><trkpt lat="38.5496833" lon="16.3204867"><ele>933.0</ele><time>2026-04-07T09:13:50.791Z</time></trkpt><trkpt lat="38.5497633" lon="16.3206717"><ele>930.0</ele><time>2026-04-07T09:13:51.791Z</time></trkpt><trkpt lat="38.5498417" lon="16.320845"><ele>927.0</ele><time>2026-04-07T09:13:52.791Z</time></trkpt><trkpt lat="38.5499117" lon="16.3209933"><ele>924.0</ele><time>2026-04-07T09:13:53.792Z</time></trkpt><trkpt lat="38.5500067" lon="16.3211417"><ele>921.0</ele><time>2026-04-07T09:13:54.792Z</time></trkpt><trkpt lat="38.5501167" lon="16.3212567"><ele>921.0</ele><time>2026-04-07T09:13:55.791Z</time></trkpt><trkpt lat="38.5502533" lon="16.321355"><ele>921.0</ele><time>2026-04-07T09:13:56.792Z</time></trkpt><trkpt lat="38.5503867" lon="16.3214567"><ele>921.0</ele><time>2026-04-07T09:13:57.791Z</time></trkpt><trkpt lat="38.5505267" lon="16.3215767"><ele>917.6666666666667</ele><time>2026-04-07T09:13:58.791Z</time></trkpt><trkpt lat="38.5506433" lon="16.3217167"><ele>914.3333333333334</ele><time>2026-04-07T09:13:59.791Z</time></trkpt><trkpt lat="38.5507583" lon="16.3218717"><ele>911.0</ele><time>2026-04-07T09:14:00.792Z</time></trkpt><trkpt lat="38.5508683" lon="16.3220117"><ele>911.0</ele><time>2026-04-07T09:14:01.791Z</time></trkpt><trkpt lat="38.551" lon="16.32213"><ele>911.0</ele><time>2026-04-07T09:14:02.791Z</time></trkpt><trkpt lat="38.551145" lon="16.322215"><ele>911.0</ele><time>2026-04-07T09:14:03.792Z</time></trkpt><trkpt lat="38.55127" lon="16.3222783"><ele>909.5</ele><time>2026-04-07T09:14:04.791Z</time></trkpt><trkpt lat="38.5513933" lon="16.3223067"><ele>908.0</ele><time>2026-04-07T09:14:05.791Z</time></trkpt><trkpt lat="38.5515267" lon="16.3222983"><ele>906.5</ele><time>2026-04-07T09:14:06.791Z</time></trkpt><trkpt lat="38.5516517" lon="16.32228"><ele>905.0</ele><time>2026-04-07T09:14:07.791Z</time></trkpt><trkpt lat="38.5517633" lon="16.3222617"><ele>905.0</ele><time>2026-04-07T09:14:08.791Z</time></trkpt><trkpt lat="38.5518717" lon="16.32226"><ele>905.0</ele><time>2026-04-07T09:14:09.791Z</time></trkpt><trkpt lat="38.5519733" lon="16.3222883"><ele>905.0</ele><time>2026-04-07T09:14:10.791Z</time></trkpt><trkpt lat="38.5520583" lon="16.3223617"><ele>905.0</ele><time>2026-04-07T09:14:11.791Z</time></trkpt><trkpt lat="38.55213" lon="16.32246"><ele>905.0</ele><time>2026-04-07T09:14:12.791Z</time></trkpt><trkpt lat="38.5521917" lon="16.322595"><ele>903.75</ele><time>2026-04-07T09:14:13.791Z</time></trkpt><trkpt lat="38.5522583" lon="16.3227433"><ele>902.5</ele><time>2026-04-07T09:14:14.791Z</time></trkpt><trkpt lat="38.5523367" lon="16.32288"><ele>901.25</ele><time>2026-04-07T09:14:15.791Z</time></trkpt><trkpt lat="38.5524167" lon="16.3229867"><ele>900.0</ele><time>2026-04-07T09:14:16.792Z</time></trkpt><trkpt lat="38.5525" lon="16.32306"><ele>900.0</ele><time>2026-04-07T09:14:17.791Z</time></trkpt><trkpt lat="38.552595" lon="16.3230917"><ele>900.0</ele><time>2026-04-07T09:14:18.791Z</time></trkpt><trkpt lat="38.5527017" lon="16.32306"><ele>900.0</ele><time>2026-04-07T09:14:19.791Z</time></trkpt><trkpt lat="38.5528333" lon="16.3229983"><ele>900.0</ele><time>2026-04-07T09:14:20.792Z</time></trkpt><trkpt lat="38.5529733" lon="16.3229283"><ele>898.25</ele><time>2026-04-07T09:14:21.791Z</time></trkpt><trkpt lat="38.5531183" lon="16.322885"><ele>896.5</ele><time>2026-04-07T09:14:22.792Z</time></trkpt><trkpt lat="38.5532483" lon="16.3229033"><ele>894.75</ele><time>2026-04-07T09:14:23.791Z</time></trkpt><trkpt lat="38.5533883" lon="16.322955"><ele>893.0</ele><time>2026-04-07T09:14:24.792Z</time></trkpt><trkpt lat="38.5535367" lon="16.3230533"><ele>890.6666666666667</ele><time>2026-04-07T09:14:25.791Z</time></trkpt><trkpt lat="38.553675" lon="16.3231683"><ele>888.3333333333333</ele><time>2026-04-07T09:14:26.792Z</time></trkpt><trkpt lat="38.55379" lon="16.3233067"><ele>886.0</ele><time>2026-04-07T09:14:27.792Z</time></trkpt><trkpt lat="38.5538983" lon="16.3234717"><ele>886.0</ele><time>2026-04-07T09:14:28.791Z</time></trkpt><trkpt lat="38.554005" lon="16.3236683"><ele>886.0</ele><time>2026-04-07T09:14:29.792Z</time></trkpt><trkpt lat="38.5540983" lon="16.3238867"><ele>886.0</ele><time>2026-04-07T09:14:30.792Z</time></trkpt><trkpt lat="38.554195" lon="16.3241033"><ele>883.6666666666666</ele><time>2026-04-07T09:14:31.791Z</time></trkpt><trkpt lat="38.5542983" lon="16.3243233"><ele>881.3333333333333</ele><time>2026-04-07T09:14:32.792Z</time></trkpt><trkpt lat="38.554405" lon="16.324555"><ele>879.0</ele><time>2026-04-07T09:14:33.791Z</time></trkpt><trkpt lat="38.5545067" lon="16.324795"><ele>877.6666666666667</ele><time>2026-04-07T09:14:34.791Z</time></trkpt><trkpt lat="38.55462" lon="16.3250283"><ele>876.3333333333334</ele><time>2026-04-07T09:14:35.792Z</time></trkpt><trkpt lat="38.554725" lon="16.3252767"><ele>875.0</ele><time>2026-04-07T09:14:36.791Z</time></trkpt><trkpt lat="38.5548267" lon="16.325505"><ele>873.6666666666667</ele><time>2026-04-07T09:14:37.792Z</time></trkpt><trkpt lat="38.5549133" lon="16.3257217"><ele>872.3333333333333</ele><time>2026-04-07T09:14:38.792Z</time></trkpt><trkpt lat="38.5550067" lon="16.3259233"><ele>871.0</ele><time>2026-04-07T09:14:39.791Z</time></trkpt><trkpt lat="38.55509" lon="16.3261083"><ele>871.0</ele><time>2026-04-07T09:14:40.792Z</time></trkpt><trkpt lat="38.5551683" lon="16.3262833"><ele>871.0</ele><time>2026-04-07T09:14:41.791Z</time></trkpt><trkpt lat="38.5552467" lon="16.3264217"><ele>871.0</ele><time>2026-04-07T09:14:42.791Z</time></trkpt><trkpt lat="38.5553317" lon="16.32653"><ele>871.0</ele><time>2026-04-07T09:14:43.791Z</time></trkpt><trkpt lat="38.5554433" lon="16.3265883"><ele>869.25</ele><time>2026-04-07T09:14:44.791Z</time></trkpt><trkpt lat="38.5555733" lon="16.3266167"><ele>867.5</ele><time>2026-04-07T09:14:45.791Z</time></trkpt><trkpt lat="38.5557267" lon="16.3266067"><ele>865.75</ele><time>2026-04-07T09:14:46.791Z</time></trkpt><trkpt lat="38.555885" lon="16.3265883"><ele>864.0</ele><time>2026-04-07T09:14:47.792Z</time></trkpt><trkpt lat="38.5560533" lon="16.3265667"><ele>862.0</ele><time>2026-04-07T09:14:48.791Z</time></trkpt><trkpt lat="38.556235" lon="16.3265517"><ele>860.0</ele><time>2026-04-07T09:14:49.792Z</time></trkpt><trkpt lat="38.5564167" lon="16.32654"><ele>858.0</ele><time>2026-04-07T09:14:50.791Z</time></trkpt><trkpt lat="38.556605" lon="16.32653"><ele>858.0</ele><time>2026-04-07T09:14:51.791Z</time></trkpt><trkpt lat="38.5568033" lon="16.32652"><ele>858.0</ele><time>2026-04-07T09:14:52.791Z</time></trkpt><trkpt lat="38.5570033" lon="16.326505"><ele>858.0</ele><time>2026-04-07T09:14:53.791Z</time></trkpt><trkpt lat="38.5571983" lon="16.3264833"><ele>857.0</ele><time>2026-04-07T09:14:54.792Z</time></trkpt><trkpt lat="38.557385" lon="16.3264683"><ele>856.0</ele><time>2026-04-07T09:14:55.791Z</time></trkpt><trkpt lat="38.5575683" lon="16.3264483"><ele>855.0</ele><time>2026-04-07T09:14:56.792Z</time></trkpt><trkpt lat="38.5577517" lon="16.3264267"><ele>854.3333333333333</ele><time>2026-04-07T09:14:57.791Z</time></trkpt><trkpt lat="38.5579333" lon="16.3264167"><ele>853.6666666666666</ele><time>2026-04-07T09:14:58.791Z</time></trkpt><trkpt lat="38.5581117" lon="16.326405"><ele>853.0</ele><time>2026-04-07T09:14:59.791Z</time></trkpt><trkpt lat="38.55829" lon="16.326395"><ele>853.6666666666666</ele><time>2026-04-07T09:15:00.791Z</time></trkpt><trkpt lat="38.5584667" lon="16.326385"><ele>854.3333333333333</ele><time>2026-04-07T09:15:01.791Z</time></trkpt><trkpt lat="38.558635" lon="16.3263617"><ele>855.0</ele><time>2026-04-07T09:15:02.791Z</time></trkpt><trkpt lat="38.5588067" lon="16.3263483"><ele>853.3333333333333</ele><time>2026-04-07T09:15:03.791Z</time></trkpt><trkpt lat="38.5589817" lon="16.3263317"><ele>851.6666666666666</ele><time>2026-04-07T09:15:04.791Z</time></trkpt><trkpt lat="38.5591467" lon="16.326315"><ele>850.0</ele><time>2026-04-07T09:15:05.792Z</time></trkpt><trkpt lat="38.55931" lon="16.3263017"><ele>850.0</ele><time>2026-04-07T09:15:06.792Z</time></trkpt><trkpt lat="38.5594683" lon="16.3262883"><ele>850.0</ele><time>2026-04-07T09:15:07.792Z</time></trkpt><trkpt lat="38.55963" lon="16.3262767"><ele>850.0</ele><time>2026-04-07T09:15:08.792Z</time></trkpt><trkpt lat="38.5597883" lon="16.3262633"><ele>848.3333333333333</ele><time>2026-04-07T09:15:09.791Z</time></trkpt><trkpt lat="38.5599533" lon="16.3262367"><ele>846.6666666666667</ele><time>2026-04-07T09:15:10.791Z</time></trkpt><trkpt lat="38.5601217" lon="16.32622"><ele>845.0</ele><time>2026-04-07T09:15:11.792Z</time></trkpt><trkpt lat="38.560295" lon="16.3262033"><ele>844.3333333333334</ele><time>2026-04-07T09:15:12.791Z</time></trkpt><trkpt lat="38.5604667" lon="16.326195"><ele>843.6666666666667</ele><time>2026-04-07T09:15:13.791Z</time></trkpt><trkpt lat="38.5606317" lon="16.3261767"><ele>843.0</ele><time>2026-04-07T09:15:14.791Z</time></trkpt><trkpt lat="38.5608117" lon="16.326155"><ele>843.0</ele><time>2026-04-07T09:15:15.791Z</time></trkpt><trkpt lat="38.560985" lon="16.3261567"><ele>843.0</ele><time>2026-04-07T09:15:16.792Z</time></trkpt><trkpt lat="38.5611467" lon="16.3261417"><ele>843.0</ele><time>2026-04-07T09:15:17.791Z</time></trkpt><trkpt lat="38.56131" lon="16.3261383"><ele>841.75</ele><time>2026-04-07T09:15:18.791Z</time></trkpt><trkpt lat="38.5614717" lon="16.3261283"><ele>840.5</ele><time>2026-04-07T09:15:19.792Z</time></trkpt><trkpt lat="38.56162" lon="16.3261133"><ele>839.25</ele><time>2026-04-07T09:15:20.791Z</time></trkpt><trkpt lat="38.5617567" lon="16.3261033"><ele>838.0</ele><time>2026-04-07T09:15:21.791Z</time></trkpt><trkpt lat="38.5619" lon="16.3260933"><ele>836.0</ele><time>2026-04-07T09:15:22.791Z</time></trkpt><trkpt lat="38.5620467" lon="16.3260817"><ele>834.0</ele><time>2026-04-07T09:15:23.791Z</time></trkpt><trkpt lat="38.5622017" lon="16.3260667"><ele>832.0</ele><time>2026-04-07T09:15:24.792Z</time></trkpt><trkpt lat="38.5623617" lon="16.326055"><ele>832.0</ele><time>2026-04-07T09:15:25.792Z</time></trkpt><trkpt lat="38.56252" lon="16.32605"><ele>832.0</ele><time>2026-04-07T09:15:26.791Z</time></trkpt><trkpt lat="38.562675" lon="16.32604"><ele>832.0</ele><time>2026-04-07T09:15:27.792Z</time></trkpt><trkpt lat="38.5628317" lon="16.3260217"><ele>831.0</ele><time>2026-04-07T09:15:28.791Z</time></trkpt><trkpt lat="38.5629867" lon="16.326015"><ele>830.0</ele><time>2026-04-07T09:15:29.791Z</time></trkpt><trkpt lat="38.563145" lon="16.3260033"><ele>829.0</ele><time>2026-04-07T09:15:30.791Z</time></trkpt><trkpt lat="38.5632967" lon="16.3259983"><ele>829.0</ele><time>2026-04-07T09:15:31.792Z</time></trkpt><trkpt lat="38.5634467" lon="16.3259917"><ele>829.0</ele><time>2026-04-07T09:15:32.791Z</time></trkpt><trkpt lat="38.563595" lon="16.3259767"><ele>829.0</ele><time>2026-04-07T09:15:33.791Z</time></trkpt><trkpt lat="38.5637333" lon="16.325965"><ele>829.0</ele><time>2026-04-07T09:15:34.792Z</time></trkpt><trkpt lat="38.563865" lon="16.325955"><ele>828.6</ele><time>2026-04-07T09:15:35.791Z</time></trkpt><trkpt lat="38.563985" lon="16.3259433"><ele>828.2</ele><time>2026-04-07T09:15:36.791Z</time></trkpt><trkpt lat="38.5640983" lon="16.3259317"><ele>827.8000000000001</ele><time>2026-04-07T09:15:37.791Z</time></trkpt><trkpt lat="38.5641983" lon="16.32592"><ele>827.4000000000001</ele><time>2026-04-07T09:15:38.792Z</time></trkpt><trkpt lat="38.5642867" lon="16.3259133"><ele>827.0</ele><time>2026-04-07T09:15:39.791Z</time></trkpt><trkpt lat="38.5643717" lon="16.3259083"><ele>827.0000000000001</ele><time>2026-04-07T09:15:40.791Z</time></trkpt><trkpt lat="38.56446" lon="16.3258967"><ele>827.0</ele><time>2026-04-07T09:15:41.791Z</time></trkpt><trkpt lat="38.5645433" lon="16.3258883"><ele>827.0</ele><time>2026-04-07T09:15:42.792Z</time></trkpt><trkpt lat="38.5646183" lon="16.3258817"><ele>827.0</ele><time>2026-04-07T09:15:43.791Z</time></trkpt><trkpt lat="38.5646867" lon="16.3258617"><ele>827.0000000000001</ele><time>2026-04-07T09:15:44.791Z</time></trkpt><trkpt lat="38.564765" lon="16.325795"><ele>827.0</ele><time>2026-04-07T09:15:46.791Z</time></trkpt><trkpt lat="38.564775" lon="16.325625"><ele>826.6</ele><time>2026-04-07T09:15:48.792Z</time></trkpt><trkpt lat="38.5647633" lon="16.3255133"><ele>826.2</ele><time>2026-04-07T09:15:49.791Z</time></trkpt><trkpt lat="38.5647517" lon="16.325395"><ele>825.8</ele><time>2026-04-07T09:15:50.791Z</time></trkpt><trkpt lat="38.5647433" lon="16.3252667"><ele>825.4</ele><time>2026-04-07T09:15:51.791Z</time></trkpt><trkpt lat="38.5647517" lon="16.3251383"><ele>825.0</ele><time>2026-04-07T09:15:52.791Z</time></trkpt><trkpt lat="38.56477" lon="16.3250267"><ele>825.0</ele><time>2026-04-07T09:15:53.791Z</time></trkpt><trkpt lat="38.5648" lon="16.3249283"><ele>825.0</ele><time>2026-04-07T09:15:54.791Z</time></trkpt><trkpt lat="38.5648483" lon="16.32483"><ele>825.0</ele><time>2026-04-07T09:15:55.791Z</time></trkpt><trkpt lat="38.5649083" lon="16.324725"><ele>825.0</ele><time>2026-04-07T09:15:56.792Z</time></trkpt><trkpt lat="38.5649833" lon="16.3246067"><ele>825.0</ele><time>2026-04-07T09:15:57.791Z</time></trkpt><trkpt lat="38.5650683" lon="16.3244833"><ele>825.25</ele><time>2026-04-07T09:15:58.791Z</time></trkpt><trkpt lat="38.56516" lon="16.3243533"><ele>825.5</ele><time>2026-04-07T09:15:59.791Z</time></trkpt><trkpt lat="38.56526" lon="16.3242283"><ele>825.75</ele><time>2026-04-07T09:16:00.791Z</time></trkpt><trkpt lat="38.56537" lon="16.3240967"><ele>826.0</ele><time>2026-04-07T09:16:01.791Z</time></trkpt><trkpt lat="38.5654867" lon="16.3239583"><ele>825.3333333333333</ele><time>2026-04-07T09:16:02.791Z</time></trkpt><trkpt lat="38.5655983" lon="16.32381"><ele>824.6666666666667</ele><time>2026-04-07T09:16:03.792Z</time></trkpt><trkpt lat="38.5657083" lon="16.3236633"><ele>824.0</ele><time>2026-04-07T09:16:04.791Z</time></trkpt><trkpt lat="38.5658233" lon="16.3235233"><ele>824.0</ele><time>2026-04-07T09:16:05.791Z</time></trkpt><trkpt lat="38.5659433" lon="16.3233783"><ele>824.0</ele><time>2026-04-07T09:16:06.791Z</time></trkpt><trkpt lat="38.5660633" lon="16.32325"><ele>824.0</ele><time>2026-04-07T09:16:07.792Z</time></trkpt><trkpt lat="38.56618" lon="16.323135"><ele>822.6666666666667</ele><time>2026-04-07T09:16:08.791Z</time></trkpt><trkpt lat="38.566295" lon="16.32302"><ele>821.3333333333333</ele><time>2026-04-07T09:16:09.792Z</time></trkpt><trkpt lat="38.5664217" lon="16.3229017"><ele>820.0</ele><time>2026-04-07T09:16:10.792Z</time></trkpt><trkpt lat="38.5665367" lon="16.3227767"><ele>820.0</ele><time>2026-04-07T09:16:11.791Z</time></trkpt><trkpt lat="38.5666433" lon="16.3226683"><ele>820.0</ele><time>2026-04-07T09:16:12.792Z</time></trkpt><trkpt lat="38.5667383" lon="16.322555"><ele>820.0</ele><time>2026-04-07T09:16:13.791Z</time></trkpt><trkpt lat="38.5668317" lon="16.3224433"><ele>820.0</ele><time>2026-04-07T09:16:14.791Z</time></trkpt><trkpt lat="38.566895" lon="16.3223083"><ele>819.75</ele><time>2026-04-07T09:16:15.791Z</time></trkpt><trkpt lat="38.566925" lon="16.3221583"><ele>819.5</ele><time>2026-04-07T09:16:16.791Z</time></trkpt><trkpt lat="38.566935" lon="16.32199"><ele>819.25</ele><time>2026-04-07T09:16:17.791Z</time></trkpt><trkpt lat="38.5669233" lon="16.3218233"><ele>819.0</ele><time>2026-04-07T09:16:18.792Z</time></trkpt><trkpt lat="38.5668867" lon="16.3216667"><ele>819.0</ele><time>2026-04-07T09:16:19.792Z</time></trkpt><trkpt lat="38.5668417" lon="16.3215233"><ele>819.0</ele><time>2026-04-07T09:16:20.792Z</time></trkpt><trkpt lat="38.5668083" lon="16.3213917"><ele>819.0</ele><time>2026-04-07T09:16:21.791Z</time></trkpt><trkpt lat="38.5667967" lon="16.3212733"><ele>819.0</ele><time>2026-04-07T09:16:22.791Z</time></trkpt><trkpt lat="38.5668017" lon="16.321145"><ele>819.0</ele><time>2026-04-07T09:16:23.792Z</time></trkpt><trkpt lat="38.5668417" lon="16.3210317"><ele>819.0</ele><time>2026-04-07T09:16:24.791Z</time></trkpt><trkpt lat="38.566895" lon="16.320915"><ele>819.0</ele><time>2026-04-07T09:16:25.791Z</time></trkpt><trkpt lat="38.5669467" lon="16.3207817"><ele>819.0</ele><time>2026-04-07T09:16:26.791Z</time></trkpt><trkpt lat="38.5670067" lon="16.3206467"><ele>819.0</ele><time>2026-04-07T09:16:27.792Z</time></trkpt><trkpt lat="38.56707" lon="16.3205233"><ele>819.0</ele><time>2026-04-07T09:16:28.792Z</time></trkpt><trkpt lat="38.5671317" lon="16.3204133"><ele>819.0</ele><time>2026-04-07T09:16:29.791Z</time></trkpt><trkpt lat="38.5671867" lon="16.3203083"><ele>819.0</ele><time>2026-04-07T09:16:30.792Z</time></trkpt><trkpt lat="38.56723" lon="16.320205"><ele>819.0</ele><time>2026-04-07T09:16:31.792Z</time></trkpt><trkpt lat="38.5672733" lon="16.32011"><ele>819.0</ele><time>2026-04-07T09:16:32.791Z</time></trkpt><trkpt lat="38.567315" lon="16.3200433"><ele>819.0</ele><time>2026-04-07T09:16:33.791Z</time></trkpt><trkpt lat="38.5673667" lon="16.319985"><ele>819.0</ele><time>2026-04-07T09:16:34.792Z</time></trkpt><trkpt lat="38.5674717" lon="16.319955"><ele>819.0</ele><time>2026-04-07T09:16:36.791Z</time></trkpt><trkpt lat="38.567585" lon="16.320025"><ele>819.0</ele><time>2026-04-07T09:16:38.791Z</time></trkpt><trkpt lat="38.5676383" lon="16.3200917"><ele>819.0</ele><time>2026-04-07T09:16:39.791Z</time></trkpt><trkpt lat="38.5677" lon="16.3201883"><ele>819.0</ele><time>2026-04-07T09:16:40.792Z</time></trkpt><trkpt lat="38.5677733" lon="16.3202917"><ele>819.0</ele><time>2026-04-07T09:16:41.792Z</time></trkpt><trkpt lat="38.56785" lon="16.3203933"><ele>819.0</ele><time>2026-04-07T09:16:42.792Z</time></trkpt><trkpt lat="38.5679217" lon="16.3204933"><ele>819.0</ele><time>2026-04-07T09:16:43.791Z</time></trkpt><trkpt lat="38.5679967" lon="16.3206"><ele>819.0</ele><time>2026-04-07T09:16:44.791Z</time></trkpt><trkpt lat="38.568065" lon="16.3207117"><ele>819.0</ele><time>2026-04-07T09:16:45.791Z</time></trkpt><trkpt lat="38.5681233" lon="16.3208183"><ele>818.0</ele><time>2026-04-07T09:16:46.791Z</time></trkpt><trkpt lat="38.5681767" lon="16.32091"><ele>817.0</ele><time>2026-04-07T09:16:47.792Z</time></trkpt><trkpt lat="38.5682267" lon="16.321005"><ele>816.0</ele><time>2026-04-07T09:16:48.791Z</time></trkpt><trkpt lat="38.568285" lon="16.3211133"><ele>815.0</ele><time>2026-04-07T09:16:49.791Z</time></trkpt><trkpt lat="38.568345" lon="16.3212233"><ele>814.0</ele><time>2026-04-07T09:16:50.791Z</time></trkpt><trkpt lat="38.5684117" lon="16.321335"><ele>813.0</ele><time>2026-04-07T09:16:51.791Z</time></trkpt><trkpt lat="38.5684883" lon="16.3214567"><ele>812.0</ele><time>2026-04-07T09:16:52.791Z</time></trkpt><trkpt lat="38.5685667" lon="16.32159"><ele>811.0</ele><time>2026-04-07T09:16:53.792Z</time></trkpt><trkpt lat="38.5686367" lon="16.3217267"><ele>810.0</ele><time>2026-04-07T09:16:54.791Z</time></trkpt><trkpt lat="38.5687167" lon="16.32187"><ele>810.0</ele><time>2026-04-07T09:16:55.791Z</time></trkpt><trkpt lat="38.56881" lon="16.3220233"><ele>810.0</ele><time>2026-04-07T09:16:56.792Z</time></trkpt><trkpt lat="38.5688883" lon="16.3221783"><ele>810.0</ele><time>2026-04-07T09:16:57.791Z</time></trkpt><trkpt lat="38.56896" lon="16.3223133"><ele>810.0</ele><time>2026-04-07T09:16:58.792Z</time></trkpt><trkpt lat="38.569025" lon="16.32242"><ele>811.0</ele><time>2026-04-07T09:16:59.791Z</time></trkpt><trkpt lat="38.56908" lon="16.32251"><ele>812.0</ele><time>2026-04-07T09:17:00.791Z</time></trkpt><trkpt lat="38.5691267" lon="16.3225867"><ele>813.0</ele><time>2026-04-07T09:17:01.791Z</time></trkpt><trkpt lat="38.5691817" lon="16.32272"><ele>814.0</ele><time>2026-04-07T09:17:03.791Z</time></trkpt><trkpt lat="38.56922" lon="16.32279"><ele>815.0</ele><time>2026-04-07T09:17:04.791Z</time></trkpt><trkpt lat="38.5692617" lon="16.3228617"><ele>816.0</ele><time>2026-04-07T09:17:05.791Z</time></trkpt><trkpt lat="38.56931" lon="16.3229383"><ele>816.0</ele><time>2026-04-07T09:17:06.791Z</time></trkpt><trkpt lat="38.5693633" lon="16.3230233"><ele>816.0</ele><time>2026-04-07T09:17:07.792Z</time></trkpt><trkpt lat="38.5694133" lon="16.32311"><ele>816.0</ele><time>2026-04-07T09:17:08.791Z</time></trkpt><trkpt lat="38.5694733" lon="16.3232083"><ele>816.0</ele><time>2026-04-07T09:17:09.791Z</time></trkpt><trkpt lat="38.5695417" lon="16.3232983"><ele>816.0</ele><time>2026-04-07T09:17:10.792Z</time></trkpt><trkpt lat="38.569615" lon="16.3233733"><ele>815.7142857142858</ele><time>2026-04-07T09:17:11.792Z</time></trkpt><trkpt lat="38.5696817" lon="16.3234417"><ele>815.4285714285714</ele><time>2026-04-07T09:17:12.791Z</time></trkpt><trkpt lat="38.5697517" lon="16.3235133"><ele>815.1428571428571</ele><time>2026-04-07T09:17:13.792Z</time></trkpt><trkpt lat="38.5698083" lon="16.3235633"><ele>814.8571428571429</ele><time>2026-04-07T09:17:14.791Z</time></trkpt><trkpt lat="38.5698617" lon="16.32362"><ele>814.5714285714286</ele><time>2026-04-07T09:17:15.791Z</time></trkpt><trkpt lat="38.5699133" lon="16.3236767"><ele>814.2857142857143</ele><time>2026-04-07T09:17:16.792Z</time></trkpt><trkpt lat="38.5699583" lon="16.3237333"><ele>814.0</ele><time>2026-04-07T09:17:17.791Z</time></trkpt><trkpt lat="38.5700133" lon="16.3237967"><ele>813.9999999999999</ele><time>2026-04-07T09:17:18.791Z</time></trkpt><trkpt lat="38.570075" lon="16.32387"><ele>814.0</ele><time>2026-04-07T09:17:19.792Z</time></trkpt><trkpt lat="38.570145" lon="16.323935"><ele>814.0</ele><time>2026-04-07T09:17:20.791Z</time></trkpt><trkpt lat="38.5702183" lon="16.324"><ele>814.0</ele><time>2026-04-07T09:17:21.791Z</time></trkpt><trkpt lat="38.5702883" lon="16.3240583"><ele>813.9999999999999</ele><time>2026-04-07T09:17:22.792Z</time></trkpt><trkpt lat="38.5703517" lon="16.3241133"><ele>814.0</ele><time>2026-04-07T09:17:23.791Z</time></trkpt><trkpt lat="38.5704167" lon="16.3241783"><ele>813.4999999999999</ele><time>2026-04-07T09:17:24.791Z</time></trkpt><trkpt lat="38.5704883" lon="16.324235"><ele>813.0</ele><time>2026-04-07T09:17:25.791Z</time></trkpt><trkpt lat="38.57055" lon="16.3242967"><ele>812.5</ele><time>2026-04-07T09:17:26.791Z</time></trkpt><trkpt lat="38.5706167" lon="16.3243617"><ele>812.0</ele><time>2026-04-07T09:17:27.791Z</time></trkpt><trkpt lat="38.5706817" lon="16.3244233"><ele>811.4999999999999</ele><time>2026-04-07T09:17:28.791Z</time></trkpt><trkpt lat="38.570745" lon="16.324485"><ele>811.0</ele><time>2026-04-07T09:17:29.791Z</time></trkpt><trkpt lat="38.5708183" lon="16.3245533"><ele>810.9999999999999</ele><time>2026-04-07T09:17:30.791Z</time></trkpt><trkpt lat="38.5708967" lon="16.3246233"><ele>811.0</ele><time>2026-04-07T09:17:31.792Z</time></trkpt><trkpt lat="38.57097" lon="16.32469"><ele>811.0</ele><time>2026-04-07T09:17:32.791Z</time></trkpt><trkpt lat="38.5710333" lon="16.3247533"><ele>811.0</ele><time>2026-04-07T09:17:33.792Z</time></trkpt><trkpt lat="38.5710917" lon="16.3248083"><ele>810.9999999999999</ele><time>2026-04-07T09:17:34.792Z</time></trkpt><trkpt lat="38.5711433" lon="16.3248633"><ele>811.0</ele><time>2026-04-07T09:17:35.791Z</time></trkpt><trkpt lat="38.5711883" lon="16.3249233"><ele>810.8</ele><time>2026-04-07T09:17:36.791Z</time></trkpt><trkpt lat="38.5712733" lon="16.3250083"><ele>810.5999999999999</ele><time>2026-04-07T09:17:38.791Z</time></trkpt><trkpt lat="38.5713633" lon="16.3251067"><ele>810.4</ele><time>2026-04-07T09:17:40.791Z</time></trkpt><trkpt lat="38.5713967" lon="16.3251917"><ele>810.2</ele><time>2026-04-07T09:17:42.791Z</time></trkpt><trkpt lat="38.5714583" lon="16.3253233"><ele>810.0</ele><time>2026-04-07T09:17:52.791Z</time></trkpt><trkpt lat="38.5715817" lon="16.325385"><ele>810.0</ele><time>2026-04-07T09:17:54.792Z</time></trkpt><trkpt lat="38.5716617" lon="16.3254317"><ele>810.0</ele><time>2026-04-07T09:17:55.792Z</time></trkpt><trkpt lat="38.5717433" lon="16.32548"><ele>810.0</ele><time>2026-04-07T09:17:56.792Z</time></trkpt><trkpt lat="38.5718067" lon="16.325535"><ele>810.0</ele><time>2026-04-07T09:17:57.792Z</time></trkpt><trkpt lat="38.5718617" lon="16.325585"><ele>810.0</ele><time>2026-04-07T09:17:58.791Z</time></trkpt><trkpt lat="38.57195" lon="16.32567"><ele>810.0</ele><time>2026-04-07T09:18:00.792Z</time></trkpt><trkpt lat="38.5720267" lon="16.3257317"><ele>810.0</ele><time>2026-04-07T09:18:02.791Z</time></trkpt><trkpt lat="38.572095" lon="16.3257917"><ele>810.0</ele><time>2026-04-07T09:18:04.791Z</time></trkpt><trkpt lat="38.5721633" lon="16.3258617"><ele>810.0</ele><time>2026-04-07T09:18:06.792Z</time></trkpt><trkpt lat="38.5722383" lon="16.32593"><ele>810.0</ele><time>2026-04-07T09:18:08.791Z</time></trkpt><trkpt lat="38.572315" lon="16.32601"><ele>810.0</ele><time>2026-04-07T09:18:10.792Z</time></trkpt><trkpt lat="38.5723817" lon="16.32608"><ele>810.0</ele><time>2026-04-07T09:18:12.791Z</time></trkpt><trkpt lat="38.5724333" lon="16.3261383"><ele>810.0</ele><time>2026-04-07T09:18:14.792Z</time></trkpt><trkpt lat="38.5725117" lon="16.326205"><ele>810.0</ele><time>2026-04-07T09:18:17.792Z</time></trkpt><trkpt lat="38.5725817" lon="16.3262583"><ele>810.0</ele><time>2026-04-07T09:18:20.791Z</time></trkpt><trkpt lat="38.572635" lon="16.326315"><ele>810.0</ele><time>2026-04-07T09:18:25.791Z</time></trkpt><trkpt lat="38.5727067" lon="16.3263717"><ele>810.0</ele><time>2026-04-07T09:18:28.791Z</time></trkpt><trkpt lat="38.5727517" lon="16.32644"><ele>810.0</ele><time>2026-04-07T09:18:32.792Z</time></trkpt><trkpt lat="38.5728167" lon="16.3263767"><ele>809.5</ele><time>2026-04-07T09:18:35.791Z</time></trkpt><trkpt lat="38.5728633" lon="16.3262783"><ele>809.0</ele><time>2026-04-07T09:18:37.791Z</time></trkpt><trkpt lat="38.5729267" lon="16.3261533"><ele>808.5</ele><time>2026-04-07T09:18:39.791Z</time></trkpt><trkpt lat="38.5729617" lon="16.326085"><ele>808.0</ele><time>2026-04-07T09:18:40.791Z</time></trkpt><trkpt lat="38.57299" lon="16.3260017"><ele>807.5</ele><time>2026-04-07T09:18:41.791Z</time></trkpt><trkpt lat="38.5730217" lon="16.32592"><ele>807.0</ele><time>2026-04-07T09:18:42.791Z</time></trkpt><trkpt lat="38.573055" lon="16.3258433"><ele>807.0</ele><time>2026-04-07T09:18:43.791Z</time></trkpt><trkpt lat="38.573085" lon="16.32577"><ele>807.0</ele><time>2026-04-07T09:18:44.792Z</time></trkpt><trkpt lat="38.57314" lon="16.32563"><ele>807.0</ele><time>2026-04-07T09:18:46.792Z</time></trkpt><trkpt lat="38.5731667" lon="16.3255483"><ele>807.0</ele><time>2026-04-07T09:18:47.791Z</time></trkpt><trkpt lat="38.5732033" lon="16.325465"><ele>807.0</ele><time>2026-04-07T09:18:48.792Z</time></trkpt><trkpt lat="38.5732417" lon="16.32538"><ele>807.0</ele><time>2026-04-07T09:18:49.792Z</time></trkpt><trkpt lat="38.5732833" lon="16.3252883"><ele>807.0</ele><time>2026-04-07T09:18:50.792Z</time></trkpt><trkpt lat="38.5733267" lon="16.325195"><ele>807.0</ele><time>2026-04-07T09:18:51.791Z</time></trkpt><trkpt lat="38.5733683" lon="16.3251017"><ele>807.0</ele><time>2026-04-07T09:18:52.792Z</time></trkpt><trkpt lat="38.5734117" lon="16.3250083"><ele>807.0</ele><time>2026-04-07T09:18:53.791Z</time></trkpt><trkpt lat="38.57346" lon="16.3249067"><ele>807.0</ele><time>2026-04-07T09:18:54.791Z</time></trkpt><trkpt lat="38.5735017" lon="16.324805"><ele>807.0</ele><time>2026-04-07T09:18:55.791Z</time></trkpt><trkpt lat="38.573545" lon="16.3247117"><ele>807.0</ele><time>2026-04-07T09:18:56.791Z</time></trkpt><trkpt lat="38.5735883" lon="16.3246233"><ele>807.0</ele><time>2026-04-07T09:18:57.791Z</time></trkpt><trkpt lat="38.57363" lon="16.3245317"><ele>807.0</ele><time>2026-04-07T09:18:58.791Z</time></trkpt><trkpt lat="38.5736767" lon="16.3244417"><ele>807.0</ele><time>2026-04-07T09:18:59.792Z</time></trkpt><trkpt lat="38.573725" lon="16.3243483"><ele>807.0</ele><time>2026-04-07T09:19:00.791Z</time></trkpt><trkpt lat="38.5737717" lon="16.32425"><ele>807.0</ele><time>2026-04-07T09:19:01.791Z</time></trkpt><trkpt lat="38.5738167" lon="16.3241467"><ele>806.8</ele><time>2026-04-07T09:19:02.791Z</time></trkpt><trkpt lat="38.57386" lon="16.3240383"><ele>806.6</ele><time>2026-04-07T09:19:03.792Z</time></trkpt><trkpt lat="38.5739117" lon="16.3239267"><ele>806.4</ele><time>2026-04-07T09:19:04.791Z</time></trkpt><trkpt lat="38.5739667" lon="16.3238133"><ele>806.1999999999999</ele><time>2026-04-07T09:19:05.792Z</time></trkpt><trkpt lat="38.5740167" lon="16.3236983"><ele>806.0</ele><time>2026-04-07T09:19:06.791Z</time></trkpt><trkpt lat="38.5740717" lon="16.323585"><ele>806.4</ele><time>2026-04-07T09:19:07.792Z</time></trkpt><trkpt lat="38.574135" lon="16.32348"><ele>806.8</ele><time>2026-04-07T09:19:08.791Z</time></trkpt><trkpt lat="38.5741867" lon="16.3233633"><ele>807.1999999999999</ele><time>2026-04-07T09:19:09.792Z</time></trkpt><trkpt lat="38.5742383" lon="16.3232533"><ele>807.5999999999999</ele><time>2026-04-07T09:19:10.791Z</time></trkpt><trkpt lat="38.574285" lon="16.3231433"><ele>808.0</ele><time>2026-04-07T09:19:11.791Z</time></trkpt><trkpt lat="38.5743283" lon="16.3230367"><ele>807.9999999999999</ele><time>2026-04-07T09:19:12.792Z</time></trkpt><trkpt lat="38.57437" lon="16.3229433"><ele>808.0</ele><time>2026-04-07T09:19:13.791Z</time></trkpt><trkpt lat="38.5744083" lon="16.32286"><ele>808.0</ele><time>2026-04-07T09:19:14.791Z</time></trkpt><trkpt lat="38.574445" lon="16.3227783"><ele>808.0</ele><time>2026-04-07T09:19:15.791Z</time></trkpt><trkpt lat="38.57448" lon="16.322695"><ele>807.9999999999999</ele><time>2026-04-07T09:19:16.792Z</time></trkpt><trkpt lat="38.574515" lon="16.3226133"><ele>808.0</ele><time>2026-04-07T09:19:17.791Z</time></trkpt><trkpt lat="38.5745583" lon="16.3225283"><ele>808.1666666666666</ele><time>2026-04-07T09:19:18.791Z</time></trkpt><trkpt lat="38.5746167" lon="16.3224517"><ele>808.3333333333333</ele><time>2026-04-07T09:19:19.791Z</time></trkpt><trkpt lat="38.5746833" lon="16.3223833"><ele>808.5</ele><time>2026-04-07T09:19:20.791Z</time></trkpt><trkpt lat="38.57475" lon="16.3223317"><ele>808.6666666666667</ele><time>2026-04-07T09:19:21.792Z</time></trkpt><trkpt lat="38.57482" lon="16.3222883"><ele>808.8333333333334</ele><time>2026-04-07T09:19:22.791Z</time></trkpt><trkpt lat="38.5749" lon="16.32225"><ele>809.0</ele><time>2026-04-07T09:19:23.791Z</time></trkpt><trkpt lat="38.57498" lon="16.3222167"><ele>809.0000000000001</ele><time>2026-04-07T09:19:24.791Z</time></trkpt><trkpt lat="38.5750483" lon="16.3221883"><ele>809.0</ele><time>2026-04-07T09:19:25.791Z</time></trkpt><trkpt lat="38.5751467" lon="16.322145"><ele>809.0</ele><time>2026-04-07T09:19:27.791Z</time></trkpt><trkpt lat="38.5752317" lon="16.3221217"><ele>809.0</ele><time>2026-04-07T09:19:30.792Z</time></trkpt><trkpt lat="38.5753067" lon="16.3221467"><ele>809.0000000000001</ele><time>2026-04-07T09:19:35.791Z</time></trkpt><trkpt lat="38.5753733" lon="16.322255"><ele>809.0</ele><time>2026-04-07T09:19:38.791Z</time></trkpt><trkpt lat="38.5754133" lon="16.3223833"><ele>809.0</ele><time>2026-04-07T09:19:40.791Z</time></trkpt><trkpt lat="38.5754617" lon="16.3225133"><ele>809.0</ele><time>2026-04-07T09:19:42.791Z</time></trkpt><trkpt lat="38.5755217" lon="16.3226617"><ele>809.0</ele><time>2026-04-07T09:19:44.791Z</time></trkpt><trkpt lat="38.5755517" lon="16.3227467"><ele>809.0</ele><time>2026-04-07T09:19:45.791Z</time></trkpt><trkpt lat="38.5755867" lon="16.3228417"><ele>809.0</ele><time>2026-04-07T09:19:46.792Z</time></trkpt><trkpt lat="38.5756217" lon="16.322945"><ele>809.0</ele><time>2026-04-07T09:19:47.792Z</time></trkpt><trkpt lat="38.57566" lon="16.3230467"><ele>809.0</ele><time>2026-04-07T09:19:48.791Z</time></trkpt><trkpt lat="38.5757033" lon="16.3231483"><ele>809.0</ele><time>2026-04-07T09:19:49.791Z</time></trkpt><trkpt lat="38.57574" lon="16.3232517"><ele>809.0</ele><time>2026-04-07T09:19:50.791Z</time></trkpt><trkpt lat="38.57578" lon="16.32336"><ele>809.0</ele><time>2026-04-07T09:19:51.791Z</time></trkpt><trkpt lat="38.575815" lon="16.3234833"><ele>808.0</ele><time>2026-04-07T09:19:52.792Z</time></trkpt><trkpt lat="38.575855" lon="16.323615"><ele>807.0</ele><time>2026-04-07T09:19:53.791Z</time></trkpt><trkpt lat="38.5758933" lon="16.32376"><ele>806.0</ele><time>2026-04-07T09:19:54.791Z</time></trkpt><trkpt lat="38.5759383" lon="16.3239133"><ele>805.0</ele><time>2026-04-07T09:19:55.791Z</time></trkpt><trkpt lat="38.5759867" lon="16.3240767"><ele>804.75</ele><time>2026-04-07T09:19:56.791Z</time></trkpt><trkpt lat="38.5760383" lon="16.3242383"><ele>804.5</ele><time>2026-04-07T09:19:57.792Z</time></trkpt><trkpt lat="38.5760833" lon="16.3244083"><ele>804.25</ele><time>2026-04-07T09:19:58.791Z</time></trkpt><trkpt lat="38.576135" lon="16.3245617"><ele>804.0</ele><time>2026-04-07T09:19:59.792Z</time></trkpt><trkpt lat="38.5761817" lon="16.3247067"><ele>803.8000000000001</ele><time>2026-04-07T09:20:00.791Z</time></trkpt><trkpt lat="38.5762333" lon="16.3248467"><ele>803.6</ele><time>2026-04-07T09:20:01.791Z</time></trkpt><trkpt lat="38.5762733" lon="16.3249733"><ele>803.4</ele><time>2026-04-07T09:20:02.792Z</time></trkpt><trkpt lat="38.5763133" lon="16.325085"><ele>803.2</ele><time>2026-04-07T09:20:03.791Z</time></trkpt><trkpt lat="38.5763517" lon="16.3251933"><ele>803.0</ele><time>2026-04-07T09:20:04.791Z</time></trkpt><trkpt lat="38.576395" lon="16.325305"><ele>803.0</ele><time>2026-04-07T09:20:05.791Z</time></trkpt><trkpt lat="38.57643" lon="16.32542"><ele>803.0</ele><time>2026-04-07T09:20:06.791Z</time></trkpt><trkpt lat="38.5764567" lon="16.3255433"><ele>803.0</ele><time>2026-04-07T09:20:07.792Z</time></trkpt><trkpt lat="38.5764817" lon="16.32567"><ele>803.0</ele><time>2026-04-07T09:20:08.792Z</time></trkpt><trkpt lat="38.57652" lon="16.3257867"><ele>803.0</ele><time>2026-04-07T09:20:09.791Z</time></trkpt><trkpt lat="38.5765617" lon="16.3259117"><ele>803.25</ele><time>2026-04-07T09:20:10.791Z</time></trkpt><trkpt lat="38.57661" lon="16.3260433"><ele>803.5</ele><time>2026-04-07T09:20:11.791Z</time></trkpt><trkpt lat="38.5766567" lon="16.326175"><ele>803.75</ele><time>2026-04-07T09:20:12.791Z</time></trkpt><trkpt lat="38.5767033" lon="16.326315"><ele>804.0</ele><time>2026-04-07T09:20:13.791Z</time></trkpt><trkpt lat="38.57674" lon="16.32647"><ele>803.25</ele><time>2026-04-07T09:20:14.791Z</time></trkpt><trkpt lat="38.576785" lon="16.326615"><ele>802.5</ele><time>2026-04-07T09:20:15.791Z</time></trkpt><trkpt lat="38.5768283" lon="16.32676"><ele>801.75</ele><time>2026-04-07T09:20:16.792Z</time></trkpt><trkpt lat="38.5768767" lon="16.3269017"><ele>801.0</ele><time>2026-04-07T09:20:17.791Z</time></trkpt><trkpt lat="38.576925" lon="16.327035"><ele>801.0</ele><time>2026-04-07T09:20:18.791Z</time></trkpt><trkpt lat="38.57697" lon="16.32718"><ele>801.0</ele><time>2026-04-07T09:20:19.791Z</time></trkpt><trkpt lat="38.5770117" lon="16.3273267"><ele>801.0</ele><time>2026-04-07T09:20:20.791Z</time></trkpt><trkpt lat="38.577055" lon="16.32747"><ele>801.0</ele><time>2026-04-07T09:20:21.791Z</time></trkpt><trkpt lat="38.5770883" lon="16.32763"><ele>801.0</ele><time>2026-04-07T09:20:22.791Z</time></trkpt><trkpt lat="38.5771017" lon="16.327795"><ele>801.0</ele><time>2026-04-07T09:20:23.791Z</time></trkpt><trkpt lat="38.5771083" lon="16.3279517"><ele>801.0</ele><time>2026-04-07T09:20:24.791Z</time></trkpt><trkpt lat="38.5771117" lon="16.3281017"><ele>801.0</ele><time>2026-04-07T09:20:25.791Z</time></trkpt><trkpt lat="38.57711" lon="16.3282333"><ele>801.1999999999999</ele><time>2026-04-07T09:20:26.792Z</time></trkpt><trkpt lat="38.5771067" lon="16.3283733"><ele>801.4</ele><time>2026-04-07T09:20:27.791Z</time></trkpt><trkpt lat="38.5771017" lon="16.3285017"><ele>801.6</ele><time>2026-04-07T09:20:28.791Z</time></trkpt><trkpt lat="38.5770983" lon="16.3286267"><ele>801.8</ele><time>2026-04-07T09:20:29.791Z</time></trkpt><trkpt lat="38.5770967" lon="16.3287517"><ele>802.0</ele><time>2026-04-07T09:20:30.791Z</time></trkpt><trkpt lat="38.5770933" lon="16.3288767"><ele>802.0</ele><time>2026-04-07T09:20:31.792Z</time></trkpt><trkpt lat="38.5771017" lon="16.328975"><ele>802.0</ele><time>2026-04-07T09:20:32.791Z</time></trkpt><trkpt lat="38.577105" lon="16.3291"><ele>802.0</ele><time>2026-04-07T09:20:34.791Z</time></trkpt><trkpt lat="38.5771" lon="16.3292167"><ele>802.0</ele><time>2026-04-07T09:20:36.791Z</time></trkpt><trkpt lat="38.577095" lon="16.32937"><ele>802.0</ele><time>2026-04-07T09:20:38.791Z</time></trkpt><trkpt lat="38.577095" lon="16.329515"><ele>801.9999999999999</ele><time>2026-04-07T09:20:40.791Z</time></trkpt><trkpt lat="38.5770933" lon="16.3296267"><ele>802.0</ele><time>2026-04-07T09:20:42.791Z</time></trkpt><trkpt lat="38.5770917" lon="16.3297267"><ele>802.0</ele><time>2026-04-07T09:20:44.791Z</time></trkpt><trkpt lat="38.5771083" lon="16.3298433"><ele>802.0</ele><time>2026-04-07T09:20:46.791Z</time></trkpt><trkpt lat="38.5771083" lon="16.3299683"><ele>801.9999999999999</ele><time>2026-04-07T09:20:48.791Z</time></trkpt><trkpt lat="38.5771" lon="16.3300767"><ele>802.0</ele><time>2026-04-07T09:20:50.791Z</time></trkpt><trkpt lat="38.577085" lon="16.3301733"><ele>801.8333333333333</ele><time>2026-04-07T09:20:52.791Z</time></trkpt><trkpt lat="38.577045" lon="16.33025"><ele>801.6666666666666</ele><time>2026-04-07T09:20:54.792Z</time></trkpt><trkpt lat="38.5770317" lon="16.330335"><ele>801.5</ele><time>2026-04-07T09:20:56.791Z</time></trkpt><trkpt lat="38.57708" lon="16.330435"><ele>801.3333333333333</ele><time>2026-04-07T09:20:58.792Z</time></trkpt><trkpt lat="38.577155" lon="16.3305483"><ele>801.1666666666666</ele><time>2026-04-07T09:21:00.791Z</time></trkpt><trkpt lat="38.577185" lon="16.3306267"><ele>801.0</ele><time>2026-04-07T09:21:01.791Z</time></trkpt><trkpt lat="38.577205" lon="16.3307167"><ele>801.0</ele><time>2026-04-07T09:21:02.792Z</time></trkpt><trkpt lat="38.5772417" lon="16.330805"><ele>801.0</ele><time>2026-04-07T09:21:03.791Z</time></trkpt><trkpt lat="38.5772933" lon="16.3308967"><ele>801.0</ele><time>2026-04-07T09:21:04.791Z</time></trkpt><trkpt lat="38.577345" lon="16.330995"><ele>801.0</ele><time>2026-04-07T09:21:05.791Z</time></trkpt><trkpt lat="38.577395" lon="16.3311117"><ele>801.0</ele><time>2026-04-07T09:21:06.791Z</time></trkpt><trkpt lat="38.5774517" lon="16.3312317"><ele>801.0</ele><time>2026-04-07T09:21:07.791Z</time></trkpt><trkpt lat="38.5775167" lon="16.331365"><ele>801.0</ele><time>2026-04-07T09:21:08.792Z</time></trkpt><trkpt lat="38.5775767" lon="16.3314933"><ele>801.0</ele><time>2026-04-07T09:21:09.791Z</time></trkpt><trkpt lat="38.5776317" lon="16.331615"><ele>801.0</ele><time>2026-04-07T09:21:10.792Z</time></trkpt><trkpt lat="38.5776817" lon="16.3317333"><ele>800.5999999999999</ele><time>2026-04-07T09:21:11.792Z</time></trkpt><trkpt lat="38.57773" lon="16.331845"><ele>800.2</ele><time>2026-04-07T09:21:12.791Z</time></trkpt><trkpt lat="38.5777817" lon="16.3319567"><ele>799.8</ele><time>2026-04-07T09:21:13.791Z</time></trkpt><trkpt lat="38.5778233" lon="16.3320633"><ele>799.4000000000001</ele><time>2026-04-07T09:21:14.792Z</time></trkpt><trkpt lat="38.577865" lon="16.332155"><ele>799.0</ele><time>2026-04-07T09:21:15.791Z</time></trkpt><trkpt lat="38.57791" lon="16.3322433"><ele>798.6666666666666</ele><time>2026-04-07T09:21:16.791Z</time></trkpt><trkpt lat="38.5779567" lon="16.3323217"><ele>798.3333333333333</ele><time>2026-04-07T09:21:17.791Z</time></trkpt><trkpt lat="38.5780067" lon="16.3324017"><ele>798.0</ele><time>2026-04-07T09:21:18.791Z</time></trkpt><trkpt lat="38.5780683" lon="16.3324783"><ele>797.6666666666667</ele><time>2026-04-07T09:21:19.791Z</time></trkpt><trkpt lat="38.5781383" lon="16.33255"><ele>797.3333333333334</ele><time>2026-04-07T09:21:20.791Z</time></trkpt><trkpt lat="38.5782183" lon="16.332615"><ele>797.0</ele><time>2026-04-07T09:21:21.791Z</time></trkpt><trkpt lat="38.5783033" lon="16.3326783"><ele>797.0000000000001</ele><time>2026-04-07T09:21:22.791Z</time></trkpt><trkpt lat="38.57839" lon="16.3327433"><ele>797.0</ele><time>2026-04-07T09:21:23.791Z</time></trkpt><trkpt lat="38.578465" lon="16.3328083"><ele>797.0</ele><time>2026-04-07T09:21:24.791Z</time></trkpt><trkpt lat="38.5785283" lon="16.3328633"><ele>797.0</ele><time>2026-04-07T09:21:25.791Z</time></trkpt><trkpt lat="38.57859" lon="16.3329117"><ele>797.0000000000001</ele><time>2026-04-07T09:21:26.791Z</time></trkpt><trkpt lat="38.57866" lon="16.3329633"><ele>797.0</ele><time>2026-04-07T09:21:27.791Z</time></trkpt><trkpt lat="38.57873" lon="16.3330133"><ele>797.1666666666667</ele><time>2026-04-07T09:21:28.792Z</time></trkpt><trkpt lat="38.5788" lon="16.3330667"><ele>797.3333333333334</ele><time>2026-04-07T09:21:29.791Z</time></trkpt><trkpt lat="38.578875" lon="16.3331283"><ele>797.5</ele><time>2026-04-07T09:21:30.791Z</time></trkpt><trkpt lat="38.5789533" lon="16.3331833"><ele>797.6666666666667</ele><time>2026-04-07T09:21:31.791Z</time></trkpt><trkpt lat="38.5790267" lon="16.3332433"><ele>797.8333333333334</ele><time>2026-04-07T09:21:32.791Z</time></trkpt><trkpt lat="38.579105" lon="16.3332983"><ele>798.0</ele><time>2026-04-07T09:21:33.791Z</time></trkpt><trkpt lat="38.5791767" lon="16.3333533"><ele>798.0</ele><time>2026-04-07T09:21:34.791Z</time></trkpt><trkpt lat="38.5792417" lon="16.333395"><ele>798.0</ele><time>2026-04-07T09:21:35.791Z</time></trkpt><trkpt lat="38.5793017" lon="16.33344"><ele>798.0</ele><time>2026-04-07T09:21:36.791Z</time></trkpt><trkpt lat="38.5794067" lon="16.3334933"><ele>798.0</ele><time>2026-04-07T09:21:38.792Z</time></trkpt><trkpt lat="38.5795133" lon="16.333505"><ele>798.0</ele><time>2026-04-07T09:21:40.792Z</time></trkpt><trkpt lat="38.579645" lon="16.3334833"><ele>798.0</ele><time>2026-04-07T09:21:42.791Z</time></trkpt><trkpt lat="38.5797183" lon="16.33346"><ele>798.0</ele><time>2026-04-07T09:21:43.792Z</time></trkpt><trkpt lat="38.5797817" lon="16.333425"><ele>798.0</ele><time>2026-04-07T09:21:44.792Z</time></trkpt><trkpt lat="38.579845" lon="16.3334"><ele>798.0</ele><time>2026-04-07T09:21:45.791Z</time></trkpt><trkpt lat="38.5799067" lon="16.333365"><ele>798.0</ele><time>2026-04-07T09:21:46.791Z</time></trkpt><trkpt lat="38.579965" lon="16.3333333"><ele>798.0</ele><time>2026-04-07T09:21:47.791Z</time></trkpt><trkpt lat="38.5800233" lon="16.3332967"><ele>798.0</ele><time>2026-04-07T09:21:48.791Z</time></trkpt><trkpt lat="38.5800833" lon="16.33326"><ele>798.0</ele><time>2026-04-07T09:21:49.791Z</time></trkpt><trkpt lat="38.5801433" lon="16.333215"><ele>798.0</ele><time>2026-04-07T09:21:50.791Z</time></trkpt><trkpt lat="38.5802117" lon="16.3331733"><ele>798.0</ele><time>2026-04-07T09:21:51.791Z</time></trkpt><trkpt lat="38.580285" lon="16.333135"><ele>798.0</ele><time>2026-04-07T09:21:52.791Z</time></trkpt><trkpt lat="38.58035" lon="16.3330983"><ele>798.0</ele><time>2026-04-07T09:21:53.792Z</time></trkpt><trkpt lat="38.5804133" lon="16.3330683"><ele>798.0</ele><time>2026-04-07T09:21:54.791Z</time></trkpt><trkpt lat="38.58051" lon="16.33302"><ele>797.7142857142857</ele><time>2026-04-07T09:21:56.791Z</time></trkpt><trkpt lat="38.580585" lon="16.3329933"><ele>797.4285714285714</ele><time>2026-04-07T09:21:58.792Z</time></trkpt><trkpt lat="38.5806517" lon="16.3329567"><ele>797.1428571428571</ele><time>2026-04-07T09:22:01.791Z</time></trkpt><trkpt lat="38.5807167" lon="16.3329133"><ele>796.8571428571429</ele><time>2026-04-07T09:22:05.791Z</time></trkpt><trkpt lat="38.58077" lon="16.3328683"><ele>796.5714285714286</ele><time>2026-04-07T09:22:07.792Z</time></trkpt><trkpt lat="38.5808533" lon="16.332835"><ele>796.2857142857142</ele><time>2026-04-07T09:22:09.791Z</time></trkpt><trkpt lat="38.5808933" lon="16.33276"><ele>796.0</ele><time>2026-04-07T09:22:11.792Z</time></trkpt><trkpt lat="38.580835" lon="16.3327"><ele>795.9999999999999</ele><time>2026-04-07T09:22:15.791Z</time></trkpt><trkpt lat="38.5807417" lon="16.33267"><ele>796.0</ele><time>2026-04-07T09:22:18.791Z</time></trkpt><trkpt lat="38.5806617" lon="16.3326383"><ele>796.0</ele><time>2026-04-07T09:22:20.791Z</time></trkpt><trkpt lat="38.5805883" lon="16.3326083"><ele>796.0</ele><time>2026-04-07T09:22:22.791Z</time></trkpt><trkpt lat="38.5804933" lon="16.33258"><ele>795.9999999999999</ele><time>2026-04-07T09:22:25.792Z</time></trkpt><trkpt lat="38.5804233" lon="16.3325583"><ele>796.0</ele><time>2026-04-07T09:22:27.791Z</time></trkpt><trkpt lat="38.5803417" lon="16.3325333"><ele>796.5999999999999</ele><time>2026-04-07T09:22:29.791Z</time></trkpt><trkpt lat="38.58024" lon="16.33251"><ele>797.2</ele><time>2026-04-07T09:22:31.791Z</time></trkpt><trkpt lat="38.5801333" lon="16.332505"><ele>797.8</ele><time>2026-04-07T09:22:33.792Z</time></trkpt><trkpt lat="38.580055" lon="16.3324667"><ele>798.4000000000001</ele><time>2026-04-07T09:22:35.791Z</time></trkpt><trkpt lat="38.5799633" lon="16.3324217"><ele>799.0</ele><time>2026-04-07T09:22:37.791Z</time></trkpt><trkpt lat="38.5798883" lon="16.3323867"><ele>799.0</ele><time>2026-04-07T09:22:39.791Z</time></trkpt><trkpt lat="38.5798117" lon="16.332345"><ele>799.0</ele><time>2026-04-07T09:22:41.791Z</time></trkpt><trkpt lat="38.57966" lon="16.3323083"><ele>799.0</ele><time>2026-04-07T09:22:44.791Z</time></trkpt><trkpt lat="38.579535" lon="16.3322817"><ele>799.0</ele><time>2026-04-07T09:22:46.792Z</time></trkpt><trkpt lat="38.5794233" lon="16.3322633"><ele>799.0</ele><time>2026-04-07T09:22:48.792Z</time></trkpt><trkpt lat="38.5793283" lon="16.3322283"><ele>799.0</ele><time>2026-04-07T09:22:50.791Z</time></trkpt><trkpt lat="38.5792383" lon="16.3321817"><ele>799.0</ele><time>2026-04-07T09:22:52.792Z</time></trkpt><trkpt lat="38.5791167" lon="16.3320883"><ele>799.0</ele><time>2026-04-07T09:22:55.792Z</time></trkpt><trkpt lat="38.5790367" lon="16.332005"><ele>799.0</ele><time>2026-04-07T09:22:57.792Z</time></trkpt><trkpt lat="38.5789867" lon="16.331955"><ele>798.9999999999999</ele><time>2026-04-07T09:22:58.791Z</time></trkpt><trkpt lat="38.5789" lon="16.3318517"><ele>799.0</ele><time>2026-04-07T09:23:00.791Z</time></trkpt><trkpt lat="38.5788183" lon="16.33178"><ele>799.0</ele><time>2026-04-07T09:23:02.792Z</time></trkpt><trkpt lat="38.5787467" lon="16.331725"><ele>799.0</ele><time>2026-04-07T09:23:04.791Z</time></trkpt><trkpt lat="38.5786817" lon="16.331675"><ele>798.9999999999999</ele><time>2026-04-07T09:23:07.791Z</time></trkpt><trkpt lat="38.57863" lon="16.3316117"><ele>799.0</ele><time>2026-04-07T09:23:09.791Z</time></trkpt><trkpt lat="38.5785783" lon="16.3315367"><ele>798.9999999999999</ele><time>2026-04-07T09:23:11.791Z</time></trkpt><trkpt lat="38.57851" lon="16.33148"><ele>799.0</ele><time>2026-04-07T09:23:13.791Z</time></trkpt><trkpt lat="38.5784367" lon="16.3314083"><ele>799.0</ele><time>2026-04-07T09:23:15.791Z</time></trkpt><trkpt lat="38.57837" lon="16.331335"><ele>799.0</ele><time>2026-04-07T09:23:17.791Z</time></trkpt><trkpt lat="38.578325" lon="16.3312683"><ele>798.9999999999999</ele><time>2026-04-07T09:23:19.791Z</time></trkpt><trkpt lat="38.57826" lon="16.3312283"><ele>799.0</ele><time>2026-04-07T09:23:21.792Z</time></trkpt><trkpt lat="38.5781967" lon="16.33118"><ele>799.3333333333333</ele><time>2026-04-07T09:23:23.791Z</time></trkpt><trkpt lat="38.5781267" lon="16.33112"><ele>799.6666666666666</ele><time>2026-04-07T09:23:25.791Z</time></trkpt><trkpt lat="38.5780583" lon="16.3310617"><ele>800.0</ele><time>2026-04-07T09:23:27.792Z</time></trkpt><trkpt lat="38.5779967" lon="16.3309917"><ele>800.3333333333333</ele><time>2026-04-07T09:23:29.792Z</time></trkpt><trkpt lat="38.577935" lon="16.33094"><ele>800.6666666666666</ele><time>2026-04-07T09:23:31.791Z</time></trkpt><trkpt lat="38.5778667" lon="16.3308817"><ele>801.0</ele><time>2026-04-07T09:23:33.792Z</time></trkpt><trkpt lat="38.57779" lon="16.3308167"><ele>801.0</ele><time>2026-04-07T09:23:35.792Z</time></trkpt><trkpt lat="38.5776983" lon="16.330745"><ele>801.0</ele><time>2026-04-07T09:23:37.792Z</time></trkpt><trkpt lat="38.5776067" lon="16.3307"><ele>801.0</ele><time>2026-04-07T09:23:39.791Z</time></trkpt><trkpt lat="38.5775317" lon="16.3306567"><ele>801.0</ele><time>2026-04-07T09:23:41.791Z</time></trkpt><trkpt lat="38.5774367" lon="16.330595"><ele>801.0</ele><time>2026-04-07T09:23:43.791Z</time></trkpt><trkpt lat="38.57738" lon="16.33056"><ele>801.0</ele><time>2026-04-07T09:23:44.791Z</time></trkpt><trkpt lat="38.5772833" lon="16.3304967"><ele>801.0</ele><time>2026-04-07T09:23:46.791Z</time></trkpt><trkpt lat="38.57719" lon="16.330385"><ele>801.0</ele><time>2026-04-07T09:23:49.791Z</time></trkpt><trkpt lat="38.5771533" lon="16.3302867"><ele>801.0</ele><time>2026-04-07T09:23:51.791Z</time></trkpt><trkpt lat="38.5770717" lon="16.3302483"><ele>801.0</ele><time>2026-04-07T09:23:54.793Z</time></trkpt><trkpt lat="38.5769967" lon="16.3302517"><ele>800.6666666666666</ele><time>2026-04-07T09:23:56.792Z</time></trkpt><trkpt lat="38.5769167" lon="16.3302283"><ele>800.3333333333333</ele><time>2026-04-07T09:23:58.792Z</time></trkpt><trkpt lat="38.5768483" lon="16.3301917"><ele>800.0</ele><time>2026-04-07T09:24:00.792Z</time></trkpt><trkpt lat="38.5767917" lon="16.3301467"><ele>799.6666666666666</ele><time>2026-04-07T09:24:02.792Z</time></trkpt><trkpt lat="38.57674" lon="16.3300917"><ele>799.3333333333333</ele><time>2026-04-07T09:24:04.792Z</time></trkpt><trkpt lat="38.5766783" lon="16.3300217"><ele>799.0</ele><time>2026-04-07T09:24:07.793Z</time></trkpt><trkpt lat="38.576595" lon="16.3299633"><ele>798.9999999999999</ele><time>2026-04-07T09:24:10.792Z</time></trkpt><trkpt lat="38.5765267" lon="16.329925"><ele>799.0</ele><time>2026-04-07T09:24:12.792Z</time></trkpt><trkpt lat="38.5764567" lon="16.3298817"><ele>799.0</ele><time>2026-04-07T09:24:14.792Z</time></trkpt><trkpt lat="38.57637" lon="16.3298117"><ele>799.0</ele><time>2026-04-07T09:24:16.792Z</time></trkpt><trkpt lat="38.576285" lon="16.329735"><ele>798.9999999999999</ele><time>2026-04-07T09:24:18.792Z</time></trkpt><trkpt lat="38.5762067" lon="16.329685"><ele>799.0</ele><time>2026-04-07T09:24:20.792Z</time></trkpt><trkpt lat="38.5761467" lon="16.32962"><ele>799.5714285714286</ele><time>2026-04-07T09:24:22.792Z</time></trkpt><trkpt lat="38.5760867" lon="16.3295583"><ele>800.1428571428571</ele><time>2026-04-07T09:24:24.792Z</time></trkpt><trkpt lat="38.5760233" lon="16.32951"><ele>800.7142857142857</ele><time>2026-04-07T09:24:26.793Z</time></trkpt><trkpt lat="38.5759717" lon="16.32946"><ele>801.2857142857142</ele><time>2026-04-07T09:24:28.792Z</time></trkpt><trkpt lat="38.575915" lon="16.3294133"><ele>801.8571428571429</ele><time>2026-04-07T09:24:30.792Z</time></trkpt><trkpt lat="38.57587" lon="16.32933"><ele>802.4285714285713</ele><time>2026-04-07T09:24:33.792Z</time></trkpt><trkpt lat="38.5758167" lon="16.3292833"><ele>803.0</ele><time>2026-04-07T09:24:35.792Z</time></trkpt><trkpt lat="38.5757367" lon="16.3292117"><ele>803.0</ele><time>2026-04-07T09:24:37.792Z</time></trkpt><trkpt lat="38.5756467" lon="16.329135"><ele>803.0</ele><time>2026-04-07T09:24:39.792Z</time></trkpt><trkpt lat="38.5755483" lon="16.3290567"><ele>803.0</ele><time>2026-04-07T09:24:41.792Z</time></trkpt><trkpt lat="38.575485" lon="16.3290017"><ele>803.0</ele><time>2026-04-07T09:24:43.792Z</time></trkpt><trkpt lat="38.5754133" lon="16.3289467"><ele>803.0</ele><time>2026-04-07T09:24:45.792Z</time></trkpt><trkpt lat="38.5753017" lon="16.328845"><ele>803.5000000000001</ele><time>2026-04-07T09:24:47.793Z</time></trkpt><trkpt lat="38.575235" lon="16.328775"><ele>804.0</ele><time>2026-04-07T09:24:48.792Z</time></trkpt><trkpt lat="38.5751617" lon="16.3287033"><ele>804.5</ele><time>2026-04-07T09:24:49.793Z</time></trkpt><trkpt lat="38.5750717" lon="16.3286467"><ele>805.0</ele><time>2026-04-07T09:24:50.793Z</time></trkpt><trkpt lat="38.5749933" lon="16.3285967"><ele>805.5000000000001</ele><time>2026-04-07T09:24:51.793Z</time></trkpt><trkpt lat="38.574925" lon="16.3285383"><ele>806.0</ele><time>2026-04-07T09:24:52.793Z</time></trkpt><trkpt lat="38.574855" lon="16.3284683"><ele>806.0</ele><time>2026-04-07T09:24:53.792Z</time></trkpt><trkpt lat="38.5747733" lon="16.3284033"><ele>806.0</ele><time>2026-04-07T09:24:54.792Z</time></trkpt><trkpt lat="38.5746833" lon="16.3283383"><ele>806.0</ele><time>2026-04-07T09:24:55.793Z</time></trkpt><trkpt lat="38.5746017" lon="16.3282583"><ele>806.0</ele><time>2026-04-07T09:24:56.793Z</time></trkpt><trkpt lat="38.5745233" lon="16.3281733"><ele>806.0</ele><time>2026-04-07T09:24:57.792Z</time></trkpt><trkpt lat="38.5744433" lon="16.3280983"><ele>806.1999999999999</ele><time>2026-04-07T09:24:58.793Z</time></trkpt><trkpt lat="38.5743633" lon="16.3280217"><ele>806.4</ele><time>2026-04-07T09:24:59.792Z</time></trkpt><trkpt lat="38.5742833" lon="16.327935"><ele>806.6</ele><time>2026-04-07T09:25:00.792Z</time></trkpt><trkpt lat="38.5742017" lon="16.32785"><ele>806.8</ele><time>2026-04-07T09:25:01.793Z</time></trkpt><trkpt lat="38.5741117" lon="16.3278033"><ele>807.0</ele><time>2026-04-07T09:25:02.792Z</time></trkpt><trkpt lat="38.5740483" lon="16.327745"><ele>807.0</ele><time>2026-04-07T09:25:03.792Z</time></trkpt><trkpt lat="38.57399" lon="16.3276733"><ele>807.0</ele><time>2026-04-07T09:25:04.793Z</time></trkpt><trkpt lat="38.5739233" lon="16.3275983"><ele>807.0</ele><time>2026-04-07T09:25:05.792Z</time></trkpt><trkpt lat="38.573855" lon="16.3275067"><ele>807.0</ele><time>2026-04-07T09:25:06.792Z</time></trkpt><trkpt lat="38.5737783" lon="16.327415"><ele>807.0</ele><time>2026-04-07T09:25:07.792Z</time></trkpt><trkpt lat="38.5736967" lon="16.3273333"><ele>807.2</ele><time>2026-04-07T09:25:08.792Z</time></trkpt><trkpt lat="38.5736183" lon="16.3272517"><ele>807.4000000000001</ele><time>2026-04-07T09:25:09.792Z</time></trkpt><trkpt lat="38.5735367" lon="16.3271667"><ele>807.5999999999999</ele><time>2026-04-07T09:25:10.792Z</time></trkpt><trkpt lat="38.5734533" lon="16.3270867"><ele>807.8</ele><time>2026-04-07T09:25:11.793Z</time></trkpt><trkpt lat="38.5733683" lon="16.32701"><ele>808.0</ele><time>2026-04-07T09:25:12.792Z</time></trkpt><trkpt lat="38.5732833" lon="16.32695"><ele>807.9999999999999</ele><time>2026-04-07T09:25:13.793Z</time></trkpt><trkpt lat="38.5732217" lon="16.3268817"><ele>808.0</ele><time>2026-04-07T09:25:14.793Z</time></trkpt><trkpt lat="38.5731583" lon="16.3268133"><ele>808.0</ele><time>2026-04-07T09:25:15.792Z</time></trkpt><trkpt lat="38.573095" lon="16.32675"><ele>808.0</ele><time>2026-04-07T09:25:16.792Z</time></trkpt><trkpt lat="38.5730367" lon="16.3266933"><ele>807.9999999999999</ele><time>2026-04-07T09:25:17.793Z</time></trkpt><trkpt lat="38.5729817" lon="16.3266317"><ele>808.0</ele><time>2026-04-07T09:25:18.792Z</time></trkpt><trkpt lat="38.5729267" lon="16.326565"><ele>807.9999999999999</ele><time>2026-04-07T09:25:19.792Z</time></trkpt><trkpt lat="38.57286" lon="16.3264883"><ele>808.0</ele><time>2026-04-07T09:25:21.793Z</time></trkpt><trkpt lat="38.57278" lon="16.3264817"><ele>808.0</ele><time>2026-04-07T09:25:24.792Z</time></trkpt><trkpt lat="38.5727083" lon="16.3265283"><ele>808.0</ele><time>2026-04-07T09:25:27.792Z</time></trkpt><trkpt lat="38.572665" lon="16.3265933"><ele>807.9999999999999</ele><time>2026-04-07T09:25:29.792Z</time></trkpt><trkpt lat="38.5726233" lon="16.3266617"><ele>808.0</ele><time>2026-04-07T09:25:31.792Z</time></trkpt><trkpt lat="38.572555" lon="16.3267517"><ele>808.0</ele><time>2026-04-07T09:25:33.792Z</time></trkpt><trkpt lat="38.572495" lon="16.3268583"><ele>808.0</ele><time>2026-04-07T09:25:35.792Z</time></trkpt><trkpt lat="38.5724533" lon="16.3269217"><ele>808.0</ele><time>2026-04-07T09:25:36.793Z</time></trkpt><trkpt lat="38.5724117" lon="16.3269917"><ele>808.0</ele><time>2026-04-07T09:25:37.793Z</time></trkpt><trkpt lat="38.572365" lon="16.3270683"><ele>808.0</ele><time>2026-04-07T09:25:38.792Z</time></trkpt><trkpt lat="38.5723183" lon="16.3271367"><ele>808.0</ele><time>2026-04-07T09:25:39.792Z</time></trkpt><trkpt lat="38.57228" lon="16.3272017"><ele>808.0</ele><time>2026-04-07T09:25:40.792Z</time></trkpt><trkpt lat="38.5722383" lon="16.3272917"><ele>807.9999999999999</ele><time>2026-04-07T09:25:41.792Z</time></trkpt><trkpt lat="38.57218" lon="16.3273717"><ele>808.0</ele><time>2026-04-07T09:25:42.793Z</time></trkpt><trkpt lat="38.5721167" lon="16.327455"><ele>808.0</ele><time>2026-04-07T09:25:43.793Z</time></trkpt><trkpt lat="38.572055" lon="16.3275433"><ele>808.0</ele><time>2026-04-07T09:25:44.792Z</time></trkpt><trkpt lat="38.5720033" lon="16.327635"><ele>807.9999999999999</ele><time>2026-04-07T09:25:45.792Z</time></trkpt><trkpt lat="38.5719467" lon="16.327715"><ele>808.0</ele><time>2026-04-07T09:25:46.792Z</time></trkpt><trkpt lat="38.571905" lon="16.327795"><ele>807.9999999999999</ele><time>2026-04-07T09:25:47.792Z</time></trkpt><trkpt lat="38.5718733" lon="16.327865"><ele>808.0</ele><time>2026-04-07T09:25:48.792Z</time></trkpt><trkpt lat="38.57184" lon="16.3279683"><ele>808.0</ele><time>2026-04-07T09:25:50.792Z</time></trkpt><trkpt lat="38.5718883" lon="16.328025"><ele>808.0</ele><time>2026-04-07T09:25:52.792Z</time></trkpt><trkpt lat="38.57195" lon="16.32805"><ele>807.9999999999999</ele><time>2026-04-07T09:25:54.792Z</time></trkpt><trkpt lat="38.572065" lon="16.3281117"><ele>808.0</ele><time>2026-04-07T09:25:56.792Z</time></trkpt><trkpt lat="38.5721333" lon="16.32815"><ele>807.9999999999999</ele><time>2026-04-07T09:25:57.792Z</time></trkpt><trkpt lat="38.57219" lon="16.328185"><ele>808.0</ele><time>2026-04-07T09:25:58.792Z</time></trkpt><trkpt lat="38.5722517" lon="16.328295"><ele>808.0</ele><time>2026-04-07T09:26:00.792Z</time></trkpt><trkpt lat="38.5722717" lon="16.328445"><ele>808.0</ele><time>2026-04-07T09:26:02.793Z</time></trkpt><trkpt lat="38.5722433" lon="16.3285183"><ele>807.9999999999999</ele><time>2026-04-07T09:26:03.792Z</time></trkpt><trkpt lat="38.57219" lon="16.3286033"><ele>808.0</ele><time>2026-04-07T09:26:04.792Z</time></trkpt><trkpt lat="38.572125" lon="16.3287017"><ele>807.9999999999999</ele><time>2026-04-07T09:26:05.792Z</time></trkpt><trkpt lat="38.5720733" lon="16.32879"><ele>808.0</ele><time>2026-04-07T09:26:06.792Z</time></trkpt><trkpt lat="38.5720767" lon="16.328945"><ele>808.0</ele><time>2026-04-07T09:26:08.792Z</time></trkpt><trkpt lat="38.572115" lon="16.329015"><ele>808.0</ele><time>2026-04-07T09:26:09.793Z</time></trkpt><trkpt lat="38.5721733" lon="16.3290617"><ele>807.9999999999999</ele><time>2026-04-07T09:26:10.792Z</time></trkpt><trkpt lat="38.57224" lon="16.3290917"><ele>808.0</ele><time>2026-04-07T09:26:11.792Z</time></trkpt><trkpt lat="38.572305" lon="16.3291167"><ele>807.8333333333333</ele><time>2026-04-07T09:26:12.792Z</time></trkpt><trkpt lat="38.5723683" lon="16.3291433"><ele>807.6666666666666</ele><time>2026-04-07T09:26:13.792Z</time></trkpt><trkpt lat="38.5724383" lon="16.329185"><ele>807.5</ele><time>2026-04-07T09:26:14.792Z</time></trkpt><trkpt lat="38.57251" lon="16.3292283"><ele>807.3333333333333</ele><time>2026-04-07T09:26:15.792Z</time></trkpt><trkpt lat="38.572585" lon="16.3292767"><ele>807.1666666666666</ele><time>2026-04-07T09:26:16.793Z</time></trkpt><trkpt lat="38.5726633" lon="16.3293233"><ele>807.0</ele><time>2026-04-07T09:26:17.792Z</time></trkpt><trkpt lat="38.572745" lon="16.3293583"><ele>807.0</ele><time>2026-04-07T09:26:18.793Z</time></trkpt><trkpt lat="38.57283" lon="16.3293933"><ele>807.0</ele><time>2026-04-07T09:26:19.792Z</time></trkpt><trkpt lat="38.57292" lon="16.3294383"><ele>807.0</ele><time>2026-04-07T09:26:20.792Z</time></trkpt><trkpt lat="38.5730067" lon="16.3294883"><ele>807.0</ele><time>2026-04-07T09:26:21.792Z</time></trkpt><trkpt lat="38.5730983" lon="16.329535"><ele>807.0</ele><time>2026-04-07T09:26:22.792Z</time></trkpt><trkpt lat="38.5731983" lon="16.3295833"><ele>806.8</ele><time>2026-04-07T09:26:23.793Z</time></trkpt><trkpt lat="38.57329" lon="16.329625"><ele>806.6</ele><time>2026-04-07T09:26:24.793Z</time></trkpt><trkpt lat="38.5733833" lon="16.32967"><ele>806.4</ele><time>2026-04-07T09:26:25.793Z</time></trkpt><trkpt lat="38.5734533" lon="16.3297117"><ele>806.1999999999999</ele><time>2026-04-07T09:26:26.792Z</time></trkpt><trkpt lat="38.5735267" lon="16.32977"><ele>806.0</ele><time>2026-04-07T09:26:27.792Z</time></trkpt><trkpt lat="38.5736067" lon="16.3298317"><ele>805.6666666666667</ele><time>2026-04-07T09:26:28.793Z</time></trkpt><trkpt lat="38.5736833" lon="16.329895"><ele>805.3333333333334</ele><time>2026-04-07T09:26:29.793Z</time></trkpt><trkpt lat="38.5737667" lon="16.3299567"><ele>805.0</ele><time>2026-04-07T09:26:30.792Z</time></trkpt><trkpt lat="38.5738483" lon="16.330015"><ele>804.6666666666667</ele><time>2026-04-07T09:26:31.793Z</time></trkpt><trkpt lat="38.573925" lon="16.3300667"><ele>804.3333333333334</ele><time>2026-04-07T09:26:32.793Z</time></trkpt><trkpt lat="38.5739933" lon="16.3301167"><ele>804.0</ele><time>2026-04-07T09:26:33.792Z</time></trkpt><trkpt lat="38.5740517" lon="16.3301567"><ele>804.0</ele><time>2026-04-07T09:26:34.792Z</time></trkpt><trkpt lat="38.5741067" lon="16.3302033"><ele>804.0</ele><time>2026-04-07T09:26:35.793Z</time></trkpt><trkpt lat="38.5741583" lon="16.3302517"><ele>804.0</ele><time>2026-04-07T09:26:36.792Z</time></trkpt><trkpt lat="38.5742267" lon="16.3303033"><ele>804.0</ele><time>2026-04-07T09:26:37.793Z</time></trkpt><trkpt lat="38.5742967" lon="16.3303583"><ele>804.0</ele><time>2026-04-07T09:26:38.792Z</time></trkpt><trkpt lat="38.57437" lon="16.3304233"><ele>804.0</ele><time>2026-04-07T09:26:39.792Z</time></trkpt><trkpt lat="38.5744567" lon="16.330485"><ele>803.5</ele><time>2026-04-07T09:26:40.792Z</time></trkpt><trkpt lat="38.5745517" lon="16.33056"><ele>803.0</ele><time>2026-04-07T09:26:41.792Z</time></trkpt><trkpt lat="38.5746567" lon="16.3306367"><ele>802.5</ele><time>2026-04-07T09:26:42.792Z</time></trkpt><trkpt lat="38.5747667" lon="16.33072"><ele>802.0</ele><time>2026-04-07T09:26:43.792Z</time></trkpt><trkpt lat="38.5748917" lon="16.3308"><ele>802.0</ele><time>2026-04-07T09:26:44.792Z</time></trkpt><trkpt lat="38.575015" lon="16.330875"><ele>802.0</ele><time>2026-04-07T09:26:45.792Z</time></trkpt><trkpt lat="38.5751267" lon="16.330935"><ele>802.0</ele><time>2026-04-07T09:26:46.792Z</time></trkpt><trkpt lat="38.5752317" lon="16.3309867"><ele>802.0</ele><time>2026-04-07T09:26:47.792Z</time></trkpt><trkpt lat="38.5753333" lon="16.3310433"><ele>801.8</ele><time>2026-04-07T09:26:48.792Z</time></trkpt><trkpt lat="38.5754333" lon="16.3311"><ele>801.6</ele><time>2026-04-07T09:26:49.792Z</time></trkpt><trkpt lat="38.5755367" lon="16.3311467"><ele>801.4</ele><time>2026-04-07T09:26:50.792Z</time></trkpt><trkpt lat="38.5756217" lon="16.331195"><ele>801.1999999999999</ele><time>2026-04-07T09:26:51.792Z</time></trkpt><trkpt lat="38.5756983" lon="16.3312383"><ele>801.0</ele><time>2026-04-07T09:26:52.792Z</time></trkpt><trkpt lat="38.5757683" lon="16.3312833"><ele>801.0</ele><time>2026-04-07T09:26:53.792Z</time></trkpt><trkpt lat="38.5758317" lon="16.331325"><ele>801.0</ele><time>2026-04-07T09:26:54.792Z</time></trkpt><trkpt lat="38.575895" lon="16.3313567"><ele>801.0</ele><time>2026-04-07T09:26:55.793Z</time></trkpt><trkpt lat="38.57596" lon="16.331375"><ele>801.0</ele><time>2026-04-07T09:26:56.793Z</time></trkpt><trkpt lat="38.57603" lon="16.3313967"><ele>801.0</ele><time>2026-04-07T09:26:57.793Z</time></trkpt><trkpt lat="38.5760983" lon="16.3314233"><ele>801.0</ele><time>2026-04-07T09:26:58.793Z</time></trkpt><trkpt lat="38.576205" lon="16.3314683"><ele>800.8333333333334</ele><time>2026-04-07T09:27:00.793Z</time></trkpt><trkpt lat="38.5762633" lon="16.3315017"><ele>800.6666666666667</ele><time>2026-04-07T09:27:02.792Z</time></trkpt><trkpt lat="38.576345" lon="16.3315067"><ele>800.5</ele><time>2026-04-07T09:27:06.792Z</time></trkpt><trkpt lat="38.5764283" lon="16.3314767"><ele>800.3333333333334</ele><time>2026-04-07T09:27:08.793Z</time></trkpt><trkpt lat="38.57651" lon="16.3313733"><ele>800.1666666666667</ele><time>2026-04-07T09:27:10.792Z</time></trkpt><trkpt lat="38.5765583" lon="16.3312983"><ele>800.0</ele><time>2026-04-07T09:27:11.792Z</time></trkpt><trkpt lat="38.5766083" lon="16.3312083"><ele>800.0</ele><time>2026-04-07T09:27:12.792Z</time></trkpt><trkpt lat="38.5766583" lon="16.3311117"><ele>800.0</ele><time>2026-04-07T09:27:13.792Z</time></trkpt><trkpt lat="38.5767083" lon="16.3309967"><ele>800.0</ele><time>2026-04-07T09:27:14.793Z</time></trkpt><trkpt lat="38.5767583" lon="16.3308783"><ele>800.0</ele><time>2026-04-07T09:27:15.792Z</time></trkpt><trkpt lat="38.5768033" lon="16.3307633"><ele>800.0</ele><time>2026-04-07T09:27:16.793Z</time></trkpt><trkpt lat="38.57684" lon="16.3306667"><ele>800.0</ele><time>2026-04-07T09:27:17.792Z</time></trkpt><trkpt lat="38.576865" lon="16.33058"><ele>800.0</ele><time>2026-04-07T09:27:18.792Z</time></trkpt><trkpt lat="38.5768883" lon="16.33045"><ele>800.0</ele><time>2026-04-07T09:27:20.793Z</time></trkpt><trkpt lat="38.5768933" lon="16.330345"><ele>800.0</ele><time>2026-04-07T09:27:22.792Z</time></trkpt><trkpt lat="38.5769767" lon="16.3303483"><ele>800.0</ele><time>2026-04-07T09:27:26.792Z</time></trkpt><trkpt lat="38.57707" lon="16.3304383"><ele>800.25</ele><time>2026-04-07T09:27:28.793Z</time></trkpt><trkpt lat="38.5771283" lon="16.3305"><ele>800.5</ele><time>2026-04-07T09:27:29.792Z</time></trkpt><trkpt lat="38.5771833" lon="16.3306017"><ele>800.75</ele><time>2026-04-07T09:27:30.793Z</time></trkpt><trkpt lat="38.57724" lon="16.330745"><ele>801.0</ele><time>2026-04-07T09:27:31.792Z</time></trkpt><trkpt lat="38.577325" lon="16.330945"><ele>801.0</ele><time>2026-04-07T09:27:32.793Z</time></trkpt><trkpt lat="38.5774283" lon="16.3311617"><ele>801.0</ele><time>2026-04-07T09:27:33.792Z</time></trkpt><trkpt lat="38.5775317" lon="16.3313717"><ele>801.0</ele><time>2026-04-07T09:27:34.792Z</time></trkpt><trkpt lat="38.5776217" lon="16.3315633"><ele>800.3333333333333</ele><time>2026-04-07T09:27:35.792Z</time></trkpt><trkpt lat="38.577705" lon="16.3317467"><ele>799.6666666666666</ele><time>2026-04-07T09:27:36.792Z</time></trkpt><trkpt lat="38.5777867" lon="16.3319183"><ele>799.0</ele><time>2026-04-07T09:27:37.792Z</time></trkpt><trkpt lat="38.5778633" lon="16.332075"><ele>799.0</ele><time>2026-04-07T09:27:38.792Z</time></trkpt><trkpt lat="38.5779267" lon="16.33221"><ele>799.0</ele><time>2026-04-07T09:27:39.792Z</time></trkpt><trkpt lat="38.5779817" lon="16.33234"><ele>799.0</ele><time>2026-04-07T09:27:40.793Z</time></trkpt><trkpt lat="38.5780517" lon="16.3324383"><ele>799.0</ele><time>2026-04-07T09:27:41.793Z</time></trkpt><trkpt lat="38.57815" lon="16.3325267"><ele>798.3333333333333</ele><time>2026-04-07T09:27:42.792Z</time></trkpt><trkpt lat="38.5782717" lon="16.332635"><ele>797.6666666666667</ele><time>2026-04-07T09:27:43.792Z</time></trkpt><trkpt lat="38.57842" lon="16.3327517"><ele>797.0</ele><time>2026-04-07T09:27:44.792Z</time></trkpt><trkpt lat="38.578585" lon="16.3328783"><ele>797.3333333333334</ele><time>2026-04-07T09:27:45.792Z</time></trkpt><trkpt lat="38.5787617" lon="16.333"><ele>797.6666666666667</ele><time>2026-04-07T09:27:46.793Z</time></trkpt><trkpt lat="38.5789383" lon="16.3331283"><ele>798.0</ele><time>2026-04-07T09:27:47.793Z</time></trkpt><trkpt lat="38.5790867" lon="16.3332433"><ele>798.0</ele><time>2026-04-07T09:27:48.792Z</time></trkpt><trkpt lat="38.579205" lon="16.3333433"><ele>798.0</ele><time>2026-04-07T09:27:49.793Z</time></trkpt><trkpt lat="38.5793" lon="16.3334167"><ele>798.0</ele><time>2026-04-07T09:27:50.792Z</time></trkpt><trkpt lat="38.57939" lon="16.3334633"><ele>798.0</ele><time>2026-04-07T09:27:51.792Z</time></trkpt><trkpt lat="38.5794733" lon="16.33349"><ele>798.0</ele><time>2026-04-07T09:27:52.792Z</time></trkpt><trkpt lat="38.5795567" lon="16.3335"><ele>798.0</ele><time>2026-04-07T09:27:53.792Z</time></trkpt><trkpt lat="38.5796383" lon="16.3334867"><ele>798.0</ele><time>2026-04-07T09:27:54.793Z</time></trkpt><trkpt lat="38.5797167" lon="16.3334517"><ele>798.0</ele><time>2026-04-07T09:27:55.793Z</time></trkpt><trkpt lat="38.57979" lon="16.33341"><ele>798.0</ele><time>2026-04-07T09:27:56.792Z</time></trkpt><trkpt lat="38.579865" lon="16.33337"><ele>798.0</ele><time>2026-04-07T09:27:57.792Z</time></trkpt><trkpt lat="38.5799383" lon="16.33333"><ele>798.0</ele><time>2026-04-07T09:27:58.792Z</time></trkpt><trkpt lat="38.5800117" lon="16.3332917"><ele>798.0</ele><time>2026-04-07T09:27:59.792Z</time></trkpt><trkpt lat="38.5800817" lon="16.333255"><ele>798.0</ele><time>2026-04-07T09:28:00.792Z</time></trkpt><trkpt lat="38.5801483" lon="16.33322"><ele>798.0</ele><time>2026-04-07T09:28:01.792Z</time></trkpt><trkpt lat="38.5802167" lon="16.3331767"><ele>798.0</ele><time>2026-04-07T09:28:02.792Z</time></trkpt><trkpt lat="38.580295" lon="16.33312"><ele>798.0</ele><time>2026-04-07T09:28:03.792Z</time></trkpt><trkpt lat="38.5804" lon="16.33306"><ele>798.0</ele><time>2026-04-07T09:28:04.793Z</time></trkpt><trkpt lat="38.5805067" lon="16.3330067"><ele>797.5999999999999</ele><time>2026-04-07T09:28:05.793Z</time></trkpt><trkpt lat="38.5806117" lon="16.332955"><ele>797.1999999999999</ele><time>2026-04-07T09:28:06.792Z</time></trkpt><trkpt lat="38.580705" lon="16.332915"><ele>796.8</ele><time>2026-04-07T09:28:07.792Z</time></trkpt><trkpt lat="38.5807883" lon="16.3328883"><ele>796.4</ele><time>2026-04-07T09:28:08.792Z</time></trkpt><trkpt lat="38.5808733" lon="16.3328717"><ele>796.0</ele><time>2026-04-07T09:28:09.792Z</time></trkpt><trkpt lat="38.5809617" lon="16.3328567"><ele>796.0</ele><time>2026-04-07T09:28:10.793Z</time></trkpt><trkpt lat="38.581055" lon="16.3328583"><ele>796.0</ele><time>2026-04-07T09:28:11.792Z</time></trkpt><trkpt lat="38.5811483" lon="16.3328817"><ele>796.0</ele><time>2026-04-07T09:28:12.793Z</time></trkpt><trkpt lat="38.58124" lon="16.3329133"><ele>796.0</ele><time>2026-04-07T09:28:13.792Z</time></trkpt><trkpt lat="38.5813283" lon="16.332945"><ele>796.0</ele><time>2026-04-07T09:28:14.792Z</time></trkpt><trkpt lat="38.58141" lon="16.33298"><ele>796.0</ele><time>2026-04-07T09:28:15.792Z</time></trkpt><trkpt lat="38.581485" lon="16.333005"><ele>796.0</ele><time>2026-04-07T09:28:16.793Z</time></trkpt><trkpt lat="38.581565" lon="16.3330283"><ele>796.0</ele><time>2026-04-07T09:28:17.792Z</time></trkpt><trkpt lat="38.58166" lon="16.3330633"><ele>796.0</ele><time>2026-04-07T09:28:18.792Z</time></trkpt><trkpt lat="38.5817633" lon="16.333115"><ele>796.0</ele><time>2026-04-07T09:28:19.792Z</time></trkpt><trkpt lat="38.581865" lon="16.33319"><ele>796.0</ele><time>2026-04-07T09:28:20.792Z</time></trkpt><trkpt lat="38.5819767" lon="16.33328"><ele>796.0</ele><time>2026-04-07T09:28:21.793Z</time></trkpt><trkpt lat="38.5821067" lon="16.3333833"><ele>796.0</ele><time>2026-04-07T09:28:22.792Z</time></trkpt><trkpt lat="38.5822483" lon="16.3334917"><ele>798.3333333333333</ele><time>2026-04-07T09:28:23.792Z</time></trkpt><trkpt lat="38.5824" lon="16.33362"><ele>800.6666666666667</ele><time>2026-04-07T09:28:24.793Z</time></trkpt><trkpt lat="38.5825617" lon="16.3337617"><ele>803.0</ele><time>2026-04-07T09:28:25.792Z</time></trkpt><trkpt lat="38.5827367" lon="16.333915"><ele>804.3333333333334</ele><time>2026-04-07T09:28:26.792Z</time></trkpt><trkpt lat="38.58291" lon="16.3340667"><ele>805.6666666666667</ele><time>2026-04-07T09:28:27.793Z</time></trkpt><trkpt lat="38.58308" lon="16.3342233"><ele>807.0</ele><time>2026-04-07T09:28:28.792Z</time></trkpt><trkpt lat="38.5832283" lon="16.33437"><ele>807.0</ele><time>2026-04-07T09:28:29.793Z</time></trkpt><trkpt lat="38.5833717" lon="16.3345083"><ele>807.0</ele><time>2026-04-07T09:28:30.792Z</time></trkpt><trkpt lat="38.5835117" lon="16.3346483"><ele>807.0</ele><time>2026-04-07T09:28:31.792Z</time></trkpt><trkpt lat="38.5836683" lon="16.33478"><ele>807.3333333333333</ele><time>2026-04-07T09:28:32.792Z</time></trkpt><trkpt lat="38.5838183" lon="16.3349283"><ele>807.6666666666666</ele><time>2026-04-07T09:28:33.793Z</time></trkpt><trkpt lat="38.5839783" lon="16.33507"><ele>808.0</ele><time>2026-04-07T09:28:34.793Z</time></trkpt><trkpt lat="38.584125" lon="16.3352083"><ele>808.0</ele><time>2026-04-07T09:28:35.792Z</time></trkpt><trkpt lat="38.5842467" lon="16.3353367"><ele>808.0</ele><time>2026-04-07T09:28:36.793Z</time></trkpt><trkpt lat="38.584355" lon="16.3354533"><ele>808.0</ele><time>2026-04-07T09:28:37.793Z</time></trkpt><trkpt lat="38.5844483" lon="16.335585"><ele>808.0</ele><time>2026-04-07T09:28:38.792Z</time></trkpt><trkpt lat="38.584525" lon="16.3357533"><ele>809.0</ele><time>2026-04-07T09:28:39.792Z</time></trkpt><trkpt lat="38.5845917" lon="16.3359567"><ele>810.0</ele><time>2026-04-07T09:28:40.792Z</time></trkpt><trkpt lat="38.5846567" lon="16.3361617"><ele>811.0</ele><time>2026-04-07T09:28:41.792Z</time></trkpt><trkpt lat="38.5847117" lon="16.3363467"><ele>809.5</ele><time>2026-04-07T09:28:42.792Z</time></trkpt><trkpt lat="38.584755" lon="16.33651"><ele>808.0</ele><time>2026-04-07T09:28:43.792Z</time></trkpt><trkpt lat="38.584805" lon="16.336635"><ele>806.5</ele><time>2026-04-07T09:28:44.792Z</time></trkpt><trkpt lat="38.58488" lon="16.3367333"><ele>805.0</ele><time>2026-04-07T09:28:45.793Z</time></trkpt><trkpt lat="38.58497" lon="16.3367917"><ele>805.0</ele><time>2026-04-07T09:28:46.792Z</time></trkpt><trkpt lat="38.58508" lon="16.3368033"><ele>805.0</ele><time>2026-04-07T09:28:47.792Z</time></trkpt><trkpt lat="38.5851917" lon="16.3367417"><ele>805.0</ele><time>2026-04-07T09:28:48.792Z</time></trkpt><trkpt lat="38.5852883" lon="16.3366433"><ele>805.0</ele><time>2026-04-07T09:28:49.792Z</time></trkpt><trkpt lat="38.58537" lon="16.3365083"><ele>804.5</ele><time>2026-04-07T09:28:50.793Z</time></trkpt><trkpt lat="38.5854317" lon="16.33635"><ele>804.0</ele><time>2026-04-07T09:28:51.793Z</time></trkpt><trkpt lat="38.58546" lon="16.3361683"><ele>803.5</ele><time>2026-04-07T09:28:52.793Z</time></trkpt><trkpt lat="38.5854783" lon="16.335965"><ele>803.0</ele><time>2026-04-07T09:28:53.792Z</time></trkpt><trkpt lat="38.5855017" lon="16.3358017"><ele>803.0</ele><time>2026-04-07T09:28:54.792Z</time></trkpt><trkpt lat="38.5855467" lon="16.3356767"><ele>803.0</ele><time>2026-04-07T09:28:55.792Z</time></trkpt><trkpt lat="38.5856417" lon="16.3356067"><ele>803.0</ele><time>2026-04-07T09:28:56.793Z</time></trkpt><trkpt lat="38.5857517" lon="16.3355967"><ele>803.0</ele><time>2026-04-07T09:28:57.792Z</time></trkpt><trkpt lat="38.5858733" lon="16.33565"><ele>803.0</ele><time>2026-04-07T09:28:58.792Z</time></trkpt><trkpt lat="38.5860033" lon="16.3357517"><ele>803.0</ele><time>2026-04-07T09:28:59.792Z</time></trkpt><trkpt lat="38.5861167" lon="16.335895"><ele>803.0</ele><time>2026-04-07T09:29:00.792Z</time></trkpt><trkpt lat="38.5861983" lon="16.3360833"><ele>804.0</ele><time>2026-04-07T09:29:01.792Z</time></trkpt><trkpt lat="38.58627" lon="16.3362667"><ele>805.0</ele><time>2026-04-07T09:29:02.792Z</time></trkpt><trkpt lat="38.58635" lon="16.3364183"><ele>806.0</ele><time>2026-04-07T09:29:03.792Z</time></trkpt><trkpt lat="38.5864717" lon="16.336525"><ele>806.0</ele><time>2026-04-07T09:29:04.792Z</time></trkpt><trkpt lat="38.5866167" lon="16.3365917"><ele>806.0</ele><time>2026-04-07T09:29:05.792Z</time></trkpt><trkpt lat="38.58678" lon="16.3366333"><ele>806.0</ele><time>2026-04-07T09:29:06.792Z</time></trkpt><trkpt lat="38.586955" lon="16.336655"><ele>806.6666666666667</ele><time>2026-04-07T09:29:07.792Z</time></trkpt><trkpt lat="38.5871317" lon="16.3366217"><ele>807.3333333333333</ele><time>2026-04-07T09:29:08.792Z</time></trkpt><trkpt lat="38.5873" lon="16.33654"><ele>808.0</ele><time>2026-04-07T09:29:09.792Z</time></trkpt><trkpt lat="38.587455" lon="16.336425"><ele>810.0</ele><time>2026-04-07T09:29:10.792Z</time></trkpt><trkpt lat="38.5875817" lon="16.33629"><ele>812.0</ele><time>2026-04-07T09:29:11.792Z</time></trkpt><trkpt lat="38.5876767" lon="16.33613"><ele>814.0</ele><time>2026-04-07T09:29:12.792Z</time></trkpt><trkpt lat="38.5877683" lon="16.3360333"><ele>816.0</ele><time>2026-04-07T09:29:13.792Z</time></trkpt><trkpt lat="38.587885" lon="16.33599"><ele>816.0</ele><time>2026-04-07T09:29:14.792Z</time></trkpt><trkpt lat="38.5879983" lon="16.3360083"><ele>816.0</ele><time>2026-04-07T09:29:15.792Z</time></trkpt><trkpt lat="38.5881183" lon="16.336065"><ele>816.0</ele><time>2026-04-07T09:29:16.792Z</time></trkpt><trkpt lat="38.5882317" lon="16.3361333"><ele>816.0</ele><time>2026-04-07T09:29:17.792Z</time></trkpt><trkpt lat="38.5883417" lon="16.3361967"><ele>816.0</ele><time>2026-04-07T09:29:18.792Z</time></trkpt><trkpt lat="38.5884383" lon="16.3362517"><ele>816.0</ele><time>2026-04-07T09:29:19.792Z</time></trkpt><trkpt lat="38.5885067" lon="16.3362867"><ele>816.0</ele><time>2026-04-07T09:29:20.793Z</time></trkpt><trkpt lat="38.5885733" lon="16.33631"><ele>816.0</ele><time>2026-04-07T09:29:28.793Z</time></trkpt><trkpt lat="38.5886967" lon="16.336375"><ele>816.0</ele><time>2026-04-07T09:29:30.792Z</time></trkpt><trkpt lat="38.5887833" lon="16.336415"><ele>815.5999999999999</ele><time>2026-04-07T09:29:31.792Z</time></trkpt><trkpt lat="38.5888817" lon="16.3364533"><ele>815.2</ele><time>2026-04-07T09:29:32.792Z</time></trkpt><trkpt lat="38.5889917" lon="16.3364883"><ele>814.8</ele><time>2026-04-07T09:29:33.792Z</time></trkpt><trkpt lat="38.5891033" lon="16.3365333"><ele>814.4000000000001</ele><time>2026-04-07T09:29:34.792Z</time></trkpt><trkpt lat="38.5891967" lon="16.3365767"><ele>814.0</ele><time>2026-04-07T09:29:35.792Z</time></trkpt><trkpt lat="38.58927" lon="16.33662"><ele>814.0</ele><time>2026-04-07T09:29:36.792Z</time></trkpt><trkpt lat="38.589385" lon="16.33665"><ele>814.0</ele><time>2026-04-07T09:29:38.793Z</time></trkpt><trkpt lat="38.5894483" lon="16.33657"><ele>814.0</ele><time>2026-04-07T09:29:40.792Z</time></trkpt><trkpt lat="38.5894633" lon="16.3364167"><ele>814.0</ele><time>2026-04-07T09:29:42.792Z</time></trkpt><trkpt lat="38.5894817" lon="16.3363367"><ele>814.0</ele><time>2026-04-07T09:29:43.793Z</time></trkpt><trkpt lat="38.5895167" lon="16.3362483"><ele>814.2</ele><time>2026-04-07T09:29:44.792Z</time></trkpt><trkpt lat="38.5895533" lon="16.3361433"><ele>814.4000000000001</ele><time>2026-04-07T09:29:45.792Z</time></trkpt><trkpt lat="38.5895933" lon="16.3360233"><ele>814.6</ele><time>2026-04-07T09:29:46.792Z</time></trkpt><trkpt lat="38.58963" lon="16.3358917"><ele>814.8</ele><time>2026-04-07T09:29:47.792Z</time></trkpt><trkpt lat="38.589665" lon="16.3357483"><ele>815.0</ele><time>2026-04-07T09:29:48.792Z</time></trkpt><trkpt lat="38.5897" lon="16.3356167"><ele>815.1666666666667</ele><time>2026-04-07T09:29:49.793Z</time></trkpt><trkpt lat="38.58974" lon="16.3355017"><ele>815.3333333333334</ele><time>2026-04-07T09:29:50.792Z</time></trkpt><trkpt lat="38.589775" lon="16.3353983"><ele>815.5</ele><time>2026-04-07T09:29:51.792Z</time></trkpt><trkpt lat="38.5898083" lon="16.3353067"><ele>815.6666666666667</ele><time>2026-04-07T09:29:52.793Z</time></trkpt><trkpt lat="38.5898483" lon="16.335215"><ele>815.8333333333334</ele><time>2026-04-07T09:29:53.792Z</time></trkpt><trkpt lat="38.5898767" lon="16.3351217"><ele>816.0</ele><time>2026-04-07T09:29:54.792Z</time></trkpt><trkpt lat="38.58991" lon="16.3350233"><ele>816.0</ele><time>2026-04-07T09:29:55.792Z</time></trkpt><trkpt lat="38.58995" lon="16.3349183"><ele>816.0</ele><time>2026-04-07T09:29:56.792Z</time></trkpt><trkpt lat="38.5900067" lon="16.3347983"><ele>816.0</ele><time>2026-04-07T09:29:57.792Z</time></trkpt><trkpt lat="38.59007" lon="16.3346867"><ele>816.0</ele><time>2026-04-07T09:29:58.793Z</time></trkpt><trkpt lat="38.59014" lon="16.334585"><ele>816.0</ele><time>2026-04-07T09:29:59.792Z</time></trkpt><trkpt lat="38.59021" lon="16.3344917"><ele>816.0</ele><time>2026-04-07T09:30:00.792Z</time></trkpt><trkpt lat="38.5902883" lon="16.3343983"><ele>816.0</ele><time>2026-04-07T09:30:01.793Z</time></trkpt><trkpt lat="38.5903733" lon="16.3343133"><ele>816.0</ele><time>2026-04-07T09:30:02.792Z</time></trkpt><trkpt lat="38.5904533" lon="16.3342367"><ele>816.0</ele><time>2026-04-07T09:30:03.792Z</time></trkpt><trkpt lat="38.5905417" lon="16.334175"><ele>816.0</ele><time>2026-04-07T09:30:04.792Z</time></trkpt><trkpt lat="38.5906333" lon="16.3341133"><ele>816.25</ele><time>2026-04-07T09:30:05.792Z</time></trkpt><trkpt lat="38.59073" lon="16.3340533"><ele>816.5</ele><time>2026-04-07T09:30:06.792Z</time></trkpt><trkpt lat="38.59084" lon="16.3339883"><ele>816.75</ele><time>2026-04-07T09:30:07.792Z</time></trkpt><trkpt lat="38.5909433" lon="16.3339333"><ele>817.0</ele><time>2026-04-07T09:30:08.792Z</time></trkpt><trkpt lat="38.5910417" lon="16.3338733"><ele>817.0</ele><time>2026-04-07T09:30:09.792Z</time></trkpt><trkpt lat="38.59113" lon="16.33382"><ele>817.0</ele><time>2026-04-07T09:30:10.792Z</time></trkpt><trkpt lat="38.5912033" lon="16.3337783"><ele>817.0</ele><time>2026-04-07T09:30:11.793Z</time></trkpt><trkpt lat="38.5912967" lon="16.3336933"><ele>817.0</ele><time>2026-04-07T09:30:13.792Z</time></trkpt><trkpt lat="38.591395" lon="16.3336"><ele>817.0</ele><time>2026-04-07T09:30:15.792Z</time></trkpt><trkpt lat="38.5914417" lon="16.33354"><ele>815.1666666666666</ele><time>2026-04-07T09:30:16.792Z</time></trkpt><trkpt lat="38.591495" lon="16.333475"><ele>813.3333333333333</ele><time>2026-04-07T09:30:17.792Z</time></trkpt><trkpt lat="38.5915467" lon="16.3334083"><ele>811.5</ele><time>2026-04-07T09:30:18.792Z</time></trkpt><trkpt lat="38.591605" lon="16.3333283"><ele>809.6666666666667</ele><time>2026-04-07T09:30:19.792Z</time></trkpt><trkpt lat="38.59166" lon="16.3332467"><ele>807.8333333333334</ele><time>2026-04-07T09:30:20.793Z</time></trkpt><trkpt lat="38.591715" lon="16.33317"><ele>806.0</ele><time>2026-04-07T09:30:21.793Z</time></trkpt><trkpt lat="38.591765" lon="16.3330983"><ele>805.8</ele><time>2026-04-07T09:30:22.793Z</time></trkpt><trkpt lat="38.5918117" lon="16.3330333"><ele>805.5999999999999</ele><time>2026-04-07T09:30:23.792Z</time></trkpt><trkpt lat="38.5918917" lon="16.3329217"><ele>805.4</ele><time>2026-04-07T09:30:25.792Z</time></trkpt><trkpt lat="38.5919633" lon="16.332805"><ele>805.2</ele><time>2026-04-07T09:30:27.792Z</time></trkpt><trkpt lat="38.59202" lon="16.33271"><ele>805.0</ele><time>2026-04-07T09:30:29.792Z</time></trkpt><trkpt lat="38.59206" lon="16.3326317"><ele>804.9999999999999</ele><time>2026-04-07T09:30:31.792Z</time></trkpt><trkpt lat="38.5921133" lon="16.332555"><ele>805.0</ele><time>2026-04-07T09:30:53.793Z</time></trkpt><trkpt lat="38.5920883" lon="16.3324767"><ele>805.0</ele><time>2026-04-07T09:30:56.792Z</time></trkpt><trkpt lat="38.592025" lon="16.3325517"><ele>805.0</ele><time>2026-04-07T09:30:58.792Z</time></trkpt><trkpt lat="38.5919783" lon="16.3326417"><ele>804.9999999999999</ele><time>2026-04-07T09:30:59.793Z</time></trkpt><trkpt lat="38.5919133" lon="16.3327583"><ele>805.0</ele><time>2026-04-07T09:31:00.793Z</time></trkpt><trkpt lat="38.591835" lon="16.3328917"><ele>805.0</ele><time>2026-04-07T09:31:01.793Z</time></trkpt><trkpt lat="38.5917517" lon="16.3330283"><ele>805.0</ele><time>2026-04-07T09:31:02.792Z</time></trkpt><trkpt lat="38.5916617" lon="16.3331667"><ele>805.0</ele><time>2026-04-07T09:31:03.793Z</time></trkpt><trkpt lat="38.5915683" lon="16.3333117"><ele>805.0</ele><time>2026-04-07T09:31:04.792Z</time></trkpt><trkpt lat="38.5914617" lon="16.33345"><ele>805.3333333333333</ele><time>2026-04-07T09:31:05.792Z</time></trkpt><trkpt lat="38.5913367" lon="16.3335783"><ele>805.6666666666667</ele><time>2026-04-07T09:31:06.793Z</time></trkpt><trkpt lat="38.5911933" lon="16.3336917"><ele>806.0</ele><time>2026-04-07T09:31:07.792Z</time></trkpt><trkpt lat="38.5910467" lon="16.333785"><ele>807.0</ele><time>2026-04-07T09:31:08.792Z</time></trkpt><trkpt lat="38.5908933" lon="16.33388"><ele>808.0</ele><time>2026-04-07T09:31:09.793Z</time></trkpt><trkpt lat="38.5907333" lon="16.33397"><ele>809.0</ele><time>2026-04-07T09:31:10.793Z</time></trkpt><trkpt lat="38.5905767" lon="16.3340717"><ele>809.0</ele><time>2026-04-07T09:31:11.792Z</time></trkpt><trkpt lat="38.59042" lon="16.3341917"><ele>809.0</ele><time>2026-04-07T09:31:12.793Z</time></trkpt><trkpt lat="38.5902783" lon="16.3343217"><ele>809.0</ele><time>2026-04-07T09:31:13.792Z</time></trkpt><trkpt lat="38.59015" lon="16.33447"><ele>811.3333333333334</ele><time>2026-04-07T09:31:14.792Z</time></trkpt><trkpt lat="38.59003" lon="16.3346433"><ele>813.6666666666667</ele><time>2026-04-07T09:31:15.792Z</time></trkpt><trkpt lat="38.5899283" lon="16.3348217"><ele>816.0</ele><time>2026-04-07T09:31:16.792Z</time></trkpt><trkpt lat="38.5898533" lon="16.3349933"><ele>816.0</ele><time>2026-04-07T09:31:17.792Z</time></trkpt><trkpt lat="38.5897983" lon="16.33516"><ele>816.0</ele><time>2026-04-07T09:31:18.793Z</time></trkpt><trkpt lat="38.5897467" lon="16.3353133"><ele>816.0</ele><time>2026-04-07T09:31:19.792Z</time></trkpt><trkpt lat="38.5897" lon="16.335465"><ele>816.0</ele><time>2026-04-07T09:31:20.792Z</time></trkpt><trkpt lat="38.58965" lon="16.3356133"><ele>815.6666666666667</ele><time>2026-04-07T09:31:21.793Z</time></trkpt><trkpt lat="38.5895983" lon="16.3357517"><ele>815.3333333333334</ele><time>2026-04-07T09:31:22.792Z</time></trkpt><trkpt lat="38.5895" lon="16.3360117"><ele>815.0</ele><time>2026-04-07T09:31:24.792Z</time></trkpt><trkpt lat="38.5894517" lon="16.3361433"><ele>814.8333333333334</ele><time>2026-04-07T09:31:25.793Z</time></trkpt><trkpt lat="38.5894067" lon="16.336255"><ele>814.6666666666667</ele><time>2026-04-07T09:31:26.792Z</time></trkpt><trkpt lat="38.5893683" lon="16.3363317"><ele>814.5</ele><time>2026-04-07T09:31:27.792Z</time></trkpt><trkpt lat="38.5893233" lon="16.33643"><ele>814.3333333333333</ele><time>2026-04-07T09:31:29.792Z</time></trkpt><trkpt lat="38.589285" lon="16.3365183"><ele>814.1666666666666</ele><time>2026-04-07T09:31:31.792Z</time></trkpt><trkpt lat="38.589305" lon="16.3366517"><ele>814.0</ele><time>2026-04-07T09:31:33.792Z</time></trkpt><trkpt lat="38.5893567" lon="16.3367167"><ele>814.0</ele><time>2026-04-07T09:31:34.792Z</time></trkpt><trkpt lat="38.5894367" lon="16.33678"><ele>814.0</ele><time>2026-04-07T09:31:35.792Z</time></trkpt><trkpt lat="38.5895383" lon="16.33685"><ele>814.0</ele><time>2026-04-07T09:31:36.792Z</time></trkpt><trkpt lat="38.5896467" lon="16.336925"><ele>814.0</ele><time>2026-04-07T09:31:37.792Z</time></trkpt><trkpt lat="38.5897667" lon="16.337015"><ele>814.0</ele><time>2026-04-07T09:31:38.792Z</time></trkpt><trkpt lat="38.589895" lon="16.3370983"><ele>814.0</ele><time>2026-04-07T09:31:39.793Z</time></trkpt><trkpt lat="38.5900217" lon="16.3371867"><ele>814.0</ele><time>2026-04-07T09:31:40.792Z</time></trkpt><trkpt lat="38.5901733" lon="16.3372767"><ele>813.3333333333333</ele><time>2026-04-07T09:31:41.792Z</time></trkpt><trkpt lat="38.59034" lon="16.3373667"><ele>812.6666666666667</ele><time>2026-04-07T09:31:42.792Z</time></trkpt><trkpt lat="38.59053" lon="16.3374667"><ele>812.0</ele><time>2026-04-07T09:31:43.792Z</time></trkpt><trkpt lat="38.59073" lon="16.337575"><ele>811.0</ele><time>2026-04-07T09:31:44.792Z</time></trkpt><trkpt lat="38.59093" lon="16.3376917"><ele>810.0</ele><time>2026-04-07T09:31:45.792Z</time></trkpt><trkpt lat="38.591115" lon="16.337805"><ele>809.0</ele><time>2026-04-07T09:31:46.792Z</time></trkpt><trkpt lat="38.59129" lon="16.3379267"><ele>808.75</ele><time>2026-04-07T09:31:47.792Z</time></trkpt><trkpt lat="38.591445" lon="16.3380267"><ele>808.5</ele><time>2026-04-07T09:31:48.792Z</time></trkpt><trkpt lat="38.5915733" lon="16.338105"><ele>808.25</ele><time>2026-04-07T09:31:49.792Z</time></trkpt><trkpt lat="38.5916933" lon="16.3381517"><ele>808.0</ele><time>2026-04-07T09:31:50.792Z</time></trkpt><trkpt lat="38.5918033" lon="16.3381467"><ele>808.0</ele><time>2026-04-07T09:31:51.793Z</time></trkpt><trkpt lat="38.591915" lon="16.3380967"><ele>808.0</ele><time>2026-04-07T09:31:52.792Z</time></trkpt><trkpt lat="38.5920183" lon="16.3380067"><ele>808.0</ele><time>2026-04-07T09:31:53.792Z</time></trkpt><trkpt lat="38.59211" lon="16.33788"><ele>808.0</ele><time>2026-04-07T09:31:54.793Z</time></trkpt><trkpt lat="38.5922017" lon="16.3377367"><ele>806.0</ele><time>2026-04-07T09:31:55.792Z</time></trkpt><trkpt lat="38.5922883" lon="16.3375967"><ele>804.0</ele><time>2026-04-07T09:31:56.792Z</time></trkpt><trkpt lat="38.5923783" lon="16.33748"><ele>802.0</ele><time>2026-04-07T09:31:57.792Z</time></trkpt><trkpt lat="38.5924783" lon="16.3373517"><ele>800.0</ele><time>2026-04-07T09:31:58.792Z</time></trkpt><trkpt lat="38.5926017" lon="16.3372517"><ele>798.6666666666667</ele><time>2026-04-07T09:31:59.792Z</time></trkpt><trkpt lat="38.59274" lon="16.33716"><ele>797.3333333333333</ele><time>2026-04-07T09:32:00.792Z</time></trkpt><trkpt lat="38.5928933" lon="16.3370683"><ele>796.0</ele><time>2026-04-07T09:32:01.793Z</time></trkpt><trkpt lat="38.5930517" lon="16.336975"><ele>796.0</ele><time>2026-04-07T09:32:02.792Z</time></trkpt><trkpt lat="38.5932083" lon="16.33687"><ele>796.0</ele><time>2026-04-07T09:32:03.792Z</time></trkpt><trkpt lat="38.5933533" lon="16.336775"><ele>796.0</ele><time>2026-04-07T09:32:04.792Z</time></trkpt><trkpt lat="38.59348" lon="16.3366917"><ele>796.0</ele><time>2026-04-07T09:32:05.792Z</time></trkpt><trkpt lat="38.5935783" lon="16.3366183"><ele>796.0</ele><time>2026-04-07T09:32:06.792Z</time></trkpt><trkpt lat="38.59367" lon="16.3365583"><ele>796.0</ele><time>2026-04-07T09:32:07.792Z</time></trkpt><trkpt lat="38.5937533" lon="16.3365283"><ele>796.0</ele><time>2026-04-07T09:32:08.792Z</time></trkpt><trkpt lat="38.5938383" lon="16.3365333"><ele>796.0</ele><time>2026-04-07T09:32:09.793Z</time></trkpt><trkpt lat="38.593915" lon="16.3365883"><ele>794.25</ele><time>2026-04-07T09:32:10.793Z</time></trkpt><trkpt lat="38.5939733" lon="16.3367117"><ele>792.5</ele><time>2026-04-07T09:32:11.793Z</time></trkpt><trkpt lat="38.59402" lon="16.3368533"><ele>790.75</ele><time>2026-04-07T09:32:12.792Z</time></trkpt><trkpt lat="38.5940517" lon="16.33702"><ele>789.0</ele><time>2026-04-07T09:32:13.792Z</time></trkpt><trkpt lat="38.5940983" lon="16.3371767"><ele>789.75</ele><time>2026-04-07T09:32:14.792Z</time></trkpt><trkpt lat="38.59416" lon="16.33734"><ele>790.5</ele><time>2026-04-07T09:32:15.792Z</time></trkpt><trkpt lat="38.5942333" lon="16.3374867"><ele>791.25</ele><time>2026-04-07T09:32:16.792Z</time></trkpt><trkpt lat="38.5943117" lon="16.3376467"><ele>792.0</ele><time>2026-04-07T09:32:17.792Z</time></trkpt><trkpt lat="38.59437" lon="16.3378067"><ele>792.0</ele><time>2026-04-07T09:32:18.792Z</time></trkpt><trkpt lat="38.5944117" lon="16.3379633"><ele>792.0</ele><time>2026-04-07T09:32:19.792Z</time></trkpt><trkpt lat="38.5944533" lon="16.3380967"><ele>792.0</ele><time>2026-04-07T09:32:20.792Z</time></trkpt><trkpt lat="38.5945117" lon="16.338215"><ele>792.0</ele><time>2026-04-07T09:32:21.792Z</time></trkpt><trkpt lat="38.5945933" lon="16.33831"><ele>790.3333333333333</ele><time>2026-04-07T09:32:22.793Z</time></trkpt><trkpt lat="38.594705" lon="16.3384117"><ele>788.6666666666666</ele><time>2026-04-07T09:32:23.792Z</time></trkpt><trkpt lat="38.5948383" lon="16.3385117"><ele>787.0</ele><time>2026-04-07T09:32:24.792Z</time></trkpt><trkpt lat="38.5949767" lon="16.3386133"><ele>787.0</ele><time>2026-04-07T09:32:25.793Z</time></trkpt><trkpt lat="38.5951167" lon="16.3387117"><ele>787.0</ele><time>2026-04-07T09:32:26.792Z</time></trkpt><trkpt lat="38.5952533" lon="16.338825"><ele>787.0</ele><time>2026-04-07T09:32:27.792Z</time></trkpt><trkpt lat="38.595385" lon="16.338935"><ele>784.75</ele><time>2026-04-07T09:32:28.792Z</time></trkpt><trkpt lat="38.5955083" lon="16.33904"><ele>782.5</ele><time>2026-04-07T09:32:29.793Z</time></trkpt><trkpt lat="38.595625" lon="16.3391383"><ele>780.25</ele><time>2026-04-07T09:32:30.792Z</time></trkpt><trkpt lat="38.5957417" lon="16.3392467"><ele>778.0</ele><time>2026-04-07T09:32:31.793Z</time></trkpt><trkpt lat="38.5958483" lon="16.33935"><ele>778.0</ele><time>2026-04-07T09:32:32.792Z</time></trkpt><trkpt lat="38.59594" lon="16.33948"><ele>778.0</ele><time>2026-04-07T09:32:33.792Z</time></trkpt><trkpt lat="38.5960217" lon="16.3396267"><ele>778.0</ele><time>2026-04-07T09:32:34.792Z</time></trkpt><trkpt lat="38.5961" lon="16.3397617"><ele>778.0</ele><time>2026-04-07T09:32:35.793Z</time></trkpt><trkpt lat="38.59617" lon="16.3398933"><ele>776.4</ele><time>2026-04-07T09:32:36.792Z</time></trkpt><trkpt lat="38.59624" lon="16.3400167"><ele>774.8</ele><time>2026-04-07T09:32:37.792Z</time></trkpt><trkpt lat="38.5963067" lon="16.3401317"><ele>773.2</ele><time>2026-04-07T09:32:38.793Z</time></trkpt><trkpt lat="38.59637" lon="16.3402433"><ele>771.6</ele><time>2026-04-07T09:32:39.793Z</time></trkpt><trkpt lat="38.5964333" lon="16.34035"><ele>770.0</ele><time>2026-04-07T09:32:40.793Z</time></trkpt><trkpt lat="38.5965033" lon="16.3404583"><ele>770.0</ele><time>2026-04-07T09:32:41.792Z</time></trkpt><trkpt lat="38.5965717" lon="16.3405567"><ele>770.0</ele><time>2026-04-07T09:32:42.792Z</time></trkpt><trkpt lat="38.5966567" lon="16.340635"><ele>770.0</ele><time>2026-04-07T09:32:43.793Z</time></trkpt><trkpt lat="38.5967467" lon="16.34066"><ele>770.0</ele><time>2026-04-07T09:32:44.792Z</time></trkpt><trkpt lat="38.5968367" lon="16.3406567"><ele>770.0</ele><time>2026-04-07T09:32:45.792Z</time></trkpt><trkpt lat="38.5969283" lon="16.3406233"><ele>768.5</ele><time>2026-04-07T09:32:46.792Z</time></trkpt><trkpt lat="38.5970233" lon="16.3405467"><ele>767.0</ele><time>2026-04-07T09:32:47.792Z</time></trkpt><trkpt lat="38.59713" lon="16.3404433"><ele>765.5</ele><time>2026-04-07T09:32:48.792Z</time></trkpt><trkpt lat="38.59724" lon="16.34034"><ele>764.0</ele><time>2026-04-07T09:32:49.793Z</time></trkpt><trkpt lat="38.597365" lon="16.3402417"><ele>764.0</ele><time>2026-04-07T09:32:50.793Z</time></trkpt><trkpt lat="38.5975" lon="16.3401617"><ele>764.0</ele><time>2026-04-07T09:32:51.792Z</time></trkpt><trkpt lat="38.5976433" lon="16.3400833"><ele>764.0</ele><time>2026-04-07T09:32:52.793Z</time></trkpt><trkpt lat="38.5977833" lon="16.3400183"><ele>762.6666666666666</ele><time>2026-04-07T09:32:53.793Z</time></trkpt><trkpt lat="38.5979283" lon="16.3399517"><ele>761.3333333333334</ele><time>2026-04-07T09:32:54.792Z</time></trkpt><trkpt lat="38.5980817" lon="16.3398917"><ele>760.0</ele><time>2026-04-07T09:32:55.792Z</time></trkpt><trkpt lat="38.5982333" lon="16.339825"><ele>760.0</ele><time>2026-04-07T09:32:56.793Z</time></trkpt><trkpt lat="38.5983883" lon="16.3397567"><ele>760.0</ele><time>2026-04-07T09:32:57.792Z</time></trkpt><trkpt lat="38.5985367" lon="16.3396867"><ele>760.0</ele><time>2026-04-07T09:32:58.793Z</time></trkpt><trkpt lat="38.5986817" lon="16.3396217"><ele>760.0</ele><time>2026-04-07T09:32:59.792Z</time></trkpt><trkpt lat="38.5988267" lon="16.3395583"><ele>760.0</ele><time>2026-04-07T09:33:00.792Z</time></trkpt><trkpt lat="38.5989583" lon="16.3395067"><ele>760.0</ele><time>2026-04-07T09:33:01.793Z</time></trkpt><trkpt lat="38.5990867" lon="16.33945"><ele>760.0</ele><time>2026-04-07T09:33:02.792Z</time></trkpt><trkpt lat="38.5992067" lon="16.3393767"><ele>760.0</ele><time>2026-04-07T09:33:03.792Z</time></trkpt><trkpt lat="38.5993167" lon="16.3392883"><ele>760.0</ele><time>2026-04-07T09:33:04.793Z</time></trkpt><trkpt lat="38.5994017" lon="16.3391817"><ele>760.0</ele><time>2026-04-07T09:33:05.793Z</time></trkpt><trkpt lat="38.5994883" lon="16.3390417"><ele>760.0</ele><time>2026-04-07T09:33:06.792Z</time></trkpt><trkpt lat="38.5995667" lon="16.3388983"><ele>759.75</ele><time>2026-04-07T09:33:07.792Z</time></trkpt><trkpt lat="38.5996417" lon="16.33875"><ele>759.5</ele><time>2026-04-07T09:33:08.792Z</time></trkpt><trkpt lat="38.5997183" lon="16.33859"><ele>759.25</ele><time>2026-04-07T09:33:09.793Z</time></trkpt><trkpt lat="38.5998" lon="16.3384283"><ele>759.0</ele><time>2026-04-07T09:33:10.792Z</time></trkpt><trkpt lat="38.59988" lon="16.3382667"><ele>759.0</ele><time>2026-04-07T09:33:11.792Z</time></trkpt><trkpt lat="38.5999667" lon="16.33811"><ele>759.0</ele><time>2026-04-07T09:33:12.792Z</time></trkpt><trkpt lat="38.6000467" lon="16.3379517"><ele>759.0</ele><time>2026-04-07T09:33:13.792Z</time></trkpt><trkpt lat="38.6001233" lon="16.337795"><ele>759.0</ele><time>2026-04-07T09:33:14.793Z</time></trkpt><trkpt lat="38.600205" lon="16.337635"><ele>759.0</ele><time>2026-04-07T09:33:15.793Z</time></trkpt><trkpt lat="38.6002883" lon="16.3375"><ele>759.0</ele><time>2026-04-07T09:33:16.792Z</time></trkpt><trkpt lat="38.6003833" lon="16.33737"><ele>759.0</ele><time>2026-04-07T09:33:17.792Z</time></trkpt><trkpt lat="38.6004833" lon="16.3372583"><ele>759.0</ele><time>2026-04-07T09:33:18.792Z</time></trkpt><trkpt lat="38.600595" lon="16.33718"><ele>759.0</ele><time>2026-04-07T09:33:19.793Z</time></trkpt><trkpt lat="38.6007233" lon="16.3371317"><ele>759.0</ele><time>2026-04-07T09:33:20.793Z</time></trkpt><trkpt lat="38.600865" lon="16.33709"><ele>759.0</ele><time>2026-04-07T09:33:21.792Z</time></trkpt><trkpt lat="38.6009917" lon="16.3370517"><ele>759.0</ele><time>2026-04-07T09:33:22.792Z</time></trkpt><trkpt lat="38.6011117" lon="16.3370233"><ele>758.8000000000001</ele><time>2026-04-07T09:33:23.792Z</time></trkpt><trkpt lat="38.6012167" lon="16.3369983"><ele>758.6</ele><time>2026-04-07T09:33:24.793Z</time></trkpt><trkpt lat="38.60131" lon="16.336975"><ele>758.4</ele><time>2026-04-07T09:33:25.792Z</time></trkpt><trkpt lat="38.6014033" lon="16.3369517"><ele>758.2</ele><time>2026-04-07T09:33:26.793Z</time></trkpt><trkpt lat="38.601495" lon="16.3369333"><ele>758.0</ele><time>2026-04-07T09:33:27.792Z</time></trkpt><trkpt lat="38.6015817" lon="16.3369183"><ele>758.0000000000001</ele><time>2026-04-07T09:33:28.792Z</time></trkpt><trkpt lat="38.60166" lon="16.3369133"><ele>758.0</ele><time>2026-04-07T09:33:29.792Z</time></trkpt><trkpt lat="38.60173" lon="16.3369117"><ele>758.0</ele><time>2026-04-07T09:33:30.792Z</time></trkpt><trkpt lat="38.6017933" lon="16.3368983"><ele>758.0</ele><time>2026-04-07T09:33:31.792Z</time></trkpt><trkpt lat="38.6018533" lon="16.3368667"><ele>758.0</ele><time>2026-04-07T09:33:32.792Z</time></trkpt><trkpt lat="38.6019067" lon="16.3368233"><ele>758.0000000000001</ele><time>2026-04-07T09:33:33.792Z</time></trkpt><trkpt lat="38.6019633" lon="16.3367817"><ele>758.0</ele><time>2026-04-07T09:33:34.792Z</time></trkpt><trkpt lat="38.60203" lon="16.336765"><ele>757.8333333333333</ele><time>2026-04-07T09:33:36.792Z</time></trkpt><trkpt lat="38.6020983" lon="16.3367917"><ele>757.6666666666666</ele><time>2026-04-07T09:33:39.793Z</time></trkpt><trkpt lat="38.6021683" lon="16.3368433"><ele>757.5</ele><time>2026-04-07T09:33:42.792Z</time></trkpt><trkpt lat="38.6022633" lon="16.3368583"><ele>757.3333333333334</ele><time>2026-04-07T09:55:43.791Z</time></trkpt><trkpt lat="38.602365" lon="16.3369267"><ele>757.1666666666667</ele><time>2026-04-07T09:55:45.792Z</time></trkpt><trkpt lat="38.6024217" lon="16.33697"><ele>757.0</ele><time>2026-04-07T09:55:46.792Z</time></trkpt><trkpt lat="38.6025067" lon="16.3370467"><ele>757.0</ele><time>2026-04-07T09:55:48.792Z</time></trkpt><trkpt lat="38.6025767" lon="16.3371067"><ele>757.0</ele><time>2026-04-07T09:55:50.791Z</time></trkpt><trkpt lat="38.6026333" lon="16.3371467"><ele>757.0</ele><time>2026-04-07T09:55:52.792Z</time></trkpt><trkpt lat="38.6027" lon="16.33716"><ele>757.0</ele><time>2026-04-07T09:55:54.791Z</time></trkpt><trkpt lat="38.6027783" lon="16.3371883"><ele>757.0</ele><time>2026-04-07T09:55:56.791Z</time></trkpt><trkpt lat="38.6028517" lon="16.3372367"><ele>757.0</ele><time>2026-04-07T09:55:58.792Z</time></trkpt><trkpt lat="38.6029117" lon="16.3372633"><ele>757.0</ele><time>2026-04-07T09:56:00.792Z</time></trkpt><trkpt lat="38.6029567" lon="16.3371883"><ele>757.0</ele><time>2026-04-07T09:56:03.791Z</time></trkpt><trkpt lat="38.6028667" lon="16.3371633"><ele>757.0</ele><time>2026-04-07T09:56:07.791Z</time></trkpt><trkpt lat="38.6028033" lon="16.3371567"><ele>757.0</ele><time>2026-04-07T09:56:09.792Z</time></trkpt><trkpt lat="38.6027383" lon="16.3371233"><ele>757.0</ele><time>2026-04-07T09:56:12.791Z</time></trkpt><trkpt lat="38.60266" lon="16.3370867"><ele>757.0</ele><time>2026-04-07T09:56:15.791Z</time></trkpt><trkpt lat="38.6025933" lon="16.337075"><ele>757.0</ele><time>2026-04-07T09:56:19.791Z</time></trkpt><trkpt lat="38.60267" lon="16.3371383"><ele>757.0</ele><time>2026-04-07T09:56:23.792Z</time></trkpt><trkpt lat="38.60276" lon="16.3371683"><ele>757.0</ele><time>2026-04-07T09:56:25.791Z</time></trkpt><trkpt lat="38.6028517" lon="16.3371933"><ele>757.0</ele><time>2026-04-07T09:56:27.791Z</time></trkpt><trkpt lat="38.602935" lon="16.3371883"><ele>757.0</ele><time>2026-04-07T09:56:29.791Z</time></trkpt><trkpt lat="38.603005" lon="16.33714"><ele>757.0</ele><time>2026-04-07T09:56:31.791Z</time></trkpt><trkpt lat="38.6030583" lon="16.33705"><ele>757.0</ele><time>2026-04-07T09:56:33.791Z</time></trkpt><trkpt lat="38.6030933" lon="16.3369567"><ele>756.6666666666667</ele><time>2026-04-07T09:56:35.791Z</time></trkpt><trkpt lat="38.60312" lon="16.3368483"><ele>756.3333333333334</ele><time>2026-04-07T09:56:38.792Z</time></trkpt><trkpt lat="38.603175" lon="16.3367367"><ele>756.0</ele><time>2026-04-07T09:56:50.791Z</time></trkpt><trkpt lat="38.603205" lon="16.3366317"><ele>755.6666666666666</ele><time>2026-04-07T09:56:53.791Z</time></trkpt><trkpt lat="38.60317" lon="16.3365583"><ele>755.3333333333333</ele><time>2026-04-07T09:56:55.791Z</time></trkpt><trkpt lat="38.6030783" lon="16.3365033"><ele>755.0</ele><time>2026-04-07T09:56:57.792Z</time></trkpt><trkpt lat="38.603" lon="16.33644"><ele>755.6666666666666</ele><time>2026-04-07T09:56:59.791Z</time></trkpt><trkpt lat="38.6030267" lon="16.3363617"><ele>756.3333333333333</ele><time>2026-04-07T09:57:03.792Z</time></trkpt><trkpt lat="38.6030917" lon="16.3363567"><ele>757.0</ele><time>2026-04-07T09:57:05.792Z</time></trkpt><trkpt lat="38.6032" lon="16.33635"><ele>757.6666666666666</ele><time>2026-04-07T09:57:07.791Z</time></trkpt><trkpt lat="38.603275" lon="16.33635"><ele>758.3333333333334</ele><time>2026-04-07T09:57:08.791Z</time></trkpt><trkpt lat="38.6033567" lon="16.3363567"><ele>759.0</ele><time>2026-04-07T09:57:09.791Z</time></trkpt><trkpt lat="38.603435" lon="16.3363583"><ele>759.0</ele><time>2026-04-07T09:57:10.791Z</time></trkpt><trkpt lat="38.6035133" lon="16.3363633"><ele>759.0</ele><time>2026-04-07T09:57:11.792Z</time></trkpt><trkpt lat="38.6035833" lon="16.3363767"><ele>759.0</ele><time>2026-04-07T09:57:12.792Z</time></trkpt><trkpt lat="38.6036483" lon="16.3363867"><ele>759.0</ele><time>2026-04-07T09:57:13.792Z</time></trkpt><trkpt lat="38.603715" lon="16.3363983"><ele>759.0</ele><time>2026-04-07T09:57:14.792Z</time></trkpt><trkpt lat="38.6037917" lon="16.33641"><ele>759.0</ele><time>2026-04-07T09:57:15.791Z</time></trkpt><trkpt lat="38.603875" lon="16.3364217"><ele>759.0</ele><time>2026-04-07T09:57:16.792Z</time></trkpt><trkpt lat="38.603955" lon="16.33644"><ele>758.5</ele><time>2026-04-07T09:57:17.791Z</time></trkpt><trkpt lat="38.6040433" lon="16.33645"><ele>758.0</ele><time>2026-04-07T09:57:18.791Z</time></trkpt><trkpt lat="38.60413" lon="16.33646"><ele>757.5</ele><time>2026-04-07T09:57:19.791Z</time></trkpt><trkpt lat="38.6042133" lon="16.3364733"><ele>757.0</ele><time>2026-04-07T09:57:20.792Z</time></trkpt><trkpt lat="38.6042967" lon="16.33648"><ele>756.5</ele><time>2026-04-07T09:57:21.792Z</time></trkpt><trkpt lat="38.604385" lon="16.3364883"><ele>756.0</ele><time>2026-04-07T09:57:22.792Z</time></trkpt><trkpt lat="38.6044783" lon="16.336495"><ele>755.5999999999999</ele><time>2026-04-07T09:57:23.791Z</time></trkpt><trkpt lat="38.6045833" lon="16.3365067"><ele>755.2</ele><time>2026-04-07T09:57:24.792Z</time></trkpt><trkpt lat="38.6046917" lon="16.3365217"><ele>754.8</ele><time>2026-04-07T09:57:25.791Z</time></trkpt><trkpt lat="38.6047983" lon="16.33654"><ele>754.4000000000001</ele><time>2026-04-07T09:57:26.792Z</time></trkpt><trkpt lat="38.6049117" lon="16.3365517"><ele>754.0</ele><time>2026-04-07T09:57:27.791Z</time></trkpt><trkpt lat="38.6050367" lon="16.336565"><ele>754.0</ele><time>2026-04-07T09:57:28.791Z</time></trkpt><trkpt lat="38.6051583" lon="16.3365817"><ele>754.0</ele><time>2026-04-07T09:57:29.791Z</time></trkpt><trkpt lat="38.6052717" lon="16.3365967"><ele>754.0</ele><time>2026-04-07T09:57:30.791Z</time></trkpt><trkpt lat="38.6053883" lon="16.3366083"><ele>754.0</ele><time>2026-04-07T09:57:31.791Z</time></trkpt><trkpt lat="38.6055083" lon="16.3366117"><ele>753.5</ele><time>2026-04-07T09:57:32.791Z</time></trkpt><trkpt lat="38.6056167" lon="16.3366283"><ele>753.0</ele><time>2026-04-07T09:57:33.791Z</time></trkpt><trkpt lat="38.6057333" lon="16.336635"><ele>752.5</ele><time>2026-04-07T09:57:34.792Z</time></trkpt><trkpt lat="38.6058483" lon="16.3366583"><ele>752.0</ele><time>2026-04-07T09:57:35.792Z</time></trkpt><trkpt lat="38.60596" lon="16.3366767"><ele>752.0</ele><time>2026-04-07T09:57:36.791Z</time></trkpt><trkpt lat="38.6060733" lon="16.3366933"><ele>752.0</ele><time>2026-04-07T09:57:37.791Z</time></trkpt><trkpt lat="38.60619" lon="16.3367167"><ele>752.0</ele><time>2026-04-07T09:57:38.791Z</time></trkpt><trkpt lat="38.606305" lon="16.3367233"><ele>752.0</ele><time>2026-04-07T09:57:39.791Z</time></trkpt><trkpt lat="38.6064167" lon="16.3367167"><ele>751.75</ele><time>2026-04-07T09:57:40.791Z</time></trkpt><trkpt lat="38.606525" lon="16.3366967"><ele>751.5</ele><time>2026-04-07T09:57:41.791Z</time></trkpt><trkpt lat="38.6066417" lon="16.336645"><ele>751.25</ele><time>2026-04-07T09:57:42.791Z</time></trkpt><trkpt lat="38.60676" lon="16.3365783"><ele>751.0</ele><time>2026-04-07T09:57:43.791Z</time></trkpt><trkpt lat="38.6068833" lon="16.3365033"><ele>751.25</ele><time>2026-04-07T09:57:44.791Z</time></trkpt><trkpt lat="38.6070067" lon="16.3364383"><ele>751.5</ele><time>2026-04-07T09:57:45.791Z</time></trkpt><trkpt lat="38.6071317" lon="16.3363783"><ele>751.75</ele><time>2026-04-07T09:57:46.791Z</time></trkpt><trkpt lat="38.60725" lon="16.336315"><ele>752.0</ele><time>2026-04-07T09:57:47.791Z</time></trkpt><trkpt lat="38.6073633" lon="16.3362567"><ele>752.0</ele><time>2026-04-07T09:57:48.792Z</time></trkpt><trkpt lat="38.607475" lon="16.3362033"><ele>752.0</ele><time>2026-04-07T09:57:49.791Z</time></trkpt><trkpt lat="38.60759" lon="16.3361417"><ele>752.0</ele><time>2026-04-07T09:57:50.791Z</time></trkpt><trkpt lat="38.60771" lon="16.336085"><ele>752.0</ele><time>2026-04-07T09:57:51.791Z</time></trkpt><trkpt lat="38.6078283" lon="16.336015"><ele>751.75</ele><time>2026-04-07T09:57:52.791Z</time></trkpt><trkpt lat="38.6079517" lon="16.3359483"><ele>751.5</ele><time>2026-04-07T09:57:53.791Z</time></trkpt><trkpt lat="38.6080733" lon="16.335885"><ele>751.25</ele><time>2026-04-07T09:57:54.791Z</time></trkpt><trkpt lat="38.6081983" lon="16.335815"><ele>751.0</ele><time>2026-04-07T09:57:55.791Z</time></trkpt><trkpt lat="38.60832" lon="16.3357517"><ele>751.0</ele><time>2026-04-07T09:57:56.792Z</time></trkpt><trkpt lat="38.6084533" lon="16.3356767"><ele>751.0</ele><time>2026-04-07T09:57:57.791Z</time></trkpt><trkpt lat="38.6085817" lon="16.3356117"><ele>751.0</ele><time>2026-04-07T09:57:58.791Z</time></trkpt><trkpt lat="38.6086867" lon="16.3355567"><ele>751.0</ele><time>2026-04-07T09:57:59.791Z</time></trkpt><trkpt lat="38.6087767" lon="16.3355133"><ele>751.3333333333334</ele><time>2026-04-07T09:58:00.791Z</time></trkpt><trkpt lat="38.6088533" lon="16.3354783"><ele>751.6666666666667</ele><time>2026-04-07T09:58:01.792Z</time></trkpt><trkpt lat="38.6089133" lon="16.3354467"><ele>752.0</ele><time>2026-04-07T09:58:02.792Z</time></trkpt><trkpt lat="38.608985" lon="16.3354033"><ele>752.3333333333334</ele><time>2026-04-07T09:58:04.791Z</time></trkpt><trkpt lat="38.6090717" lon="16.335365"><ele>752.6666666666666</ele><time>2026-04-07T09:58:07.791Z</time></trkpt><trkpt lat="38.6091683" lon="16.3353233"><ele>753.0</ele><time>2026-04-07T09:58:09.792Z</time></trkpt><trkpt lat="38.6092833" lon="16.3352533"><ele>753.0</ele><time>2026-04-07T09:58:11.791Z</time></trkpt><trkpt lat="38.60935" lon="16.33521"><ele>753.0</ele><time>2026-04-07T09:58:12.791Z</time></trkpt><trkpt lat="38.6094217" lon="16.3351517"><ele>753.0</ele><time>2026-04-07T09:58:13.791Z</time></trkpt><trkpt lat="38.6094817" lon="16.3350983"><ele>753.0</ele><time>2026-04-07T09:58:14.792Z</time></trkpt><trkpt lat="38.6095467" lon="16.3350067"><ele>753.0</ele><time>2026-04-07T09:58:15.792Z</time></trkpt><trkpt lat="38.6096017" lon="16.3348967"><ele>753.0</ele><time>2026-04-07T09:58:16.792Z</time></trkpt><trkpt lat="38.6096533" lon="16.334765"><ele>755.2</ele><time>2026-04-07T09:58:17.791Z</time></trkpt><trkpt lat="38.6096983" lon="16.3346367"><ele>757.4</ele><time>2026-04-07T09:58:18.791Z</time></trkpt><trkpt lat="38.6097417" lon="16.3345033"><ele>759.6</ele><time>2026-04-07T09:58:19.792Z</time></trkpt><trkpt lat="38.6097817" lon="16.3343767"><ele>761.8000000000001</ele><time>2026-04-07T09:58:20.791Z</time></trkpt><trkpt lat="38.6098167" lon="16.3342617"><ele>764.0</ele><time>2026-04-07T09:58:21.791Z</time></trkpt><trkpt lat="38.609845" lon="16.3341633"><ele>764.0</ele><time>2026-04-07T09:58:22.791Z</time></trkpt><trkpt lat="38.609875" lon="16.3340883"><ele>764.0</ele><time>2026-04-07T09:58:23.792Z</time></trkpt><trkpt lat="38.6099167" lon="16.3340233"><ele>764.0</ele><time>2026-04-07T09:58:24.791Z</time></trkpt><trkpt lat="38.6100333" lon="16.333955"><ele>764.0</ele><time>2026-04-07T09:58:26.791Z</time></trkpt><trkpt lat="38.6101033" lon="16.3339417"><ele>764.0</ele><time>2026-04-07T09:58:27.792Z</time></trkpt><trkpt lat="38.61018" lon="16.333945"><ele>764.0</ele><time>2026-04-07T09:58:28.791Z</time></trkpt><trkpt lat="38.6102533" lon="16.3339833"><ele>764.0</ele><time>2026-04-07T09:58:29.792Z</time></trkpt><trkpt lat="38.6103133" lon="16.33402"><ele>764.0</ele><time>2026-04-07T09:58:30.791Z</time></trkpt><trkpt lat="38.6103667" lon="16.334075"><ele>764.0</ele><time>2026-04-07T09:58:31.791Z</time></trkpt><trkpt lat="38.61042" lon="16.3341417"><ele>764.0</ele><time>2026-04-07T09:58:32.792Z</time></trkpt><trkpt lat="38.61047" lon="16.3342033"><ele>764.0</ele><time>2026-04-07T09:58:33.792Z</time></trkpt><trkpt lat="38.61051" lon="16.33427"><ele>764.0</ele><time>2026-04-07T09:58:34.791Z</time></trkpt><trkpt lat="38.6105467" lon="16.33434"><ele>764.0</ele><time>2026-04-07T09:58:35.792Z</time></trkpt><trkpt lat="38.6105833" lon="16.33442"><ele>764.7142857142858</ele><time>2026-04-07T09:58:36.791Z</time></trkpt><trkpt lat="38.61061" lon="16.3344967"><ele>765.4285714285713</ele><time>2026-04-07T09:58:37.792Z</time></trkpt><trkpt lat="38.6106317" lon="16.3345817"><ele>766.1428571428571</ele><time>2026-04-07T09:58:38.791Z</time></trkpt><trkpt lat="38.6106467" lon="16.3346683"><ele>766.8571428571429</ele><time>2026-04-07T09:58:39.792Z</time></trkpt><trkpt lat="38.61065" lon="16.33476"><ele>767.5714285714287</ele><time>2026-04-07T09:58:40.791Z</time></trkpt><trkpt lat="38.6106567" lon="16.3348583"><ele>768.2857142857142</ele><time>2026-04-07T09:58:41.791Z</time></trkpt><trkpt lat="38.6106633" lon="16.334945"><ele>769.0</ele><time>2026-04-07T09:58:42.791Z</time></trkpt><trkpt lat="38.6106633" lon="16.335095"><ele>769.2</ele><time>2026-04-07T09:58:44.791Z</time></trkpt><trkpt lat="38.6106867" lon="16.335225"><ele>769.4000000000001</ele><time>2026-04-07T09:58:46.791Z</time></trkpt><trkpt lat="38.6107917" lon="16.3353167"><ele>769.6</ele><time>2026-04-07T09:58:48.791Z</time></trkpt><trkpt lat="38.61087" lon="16.3353383"><ele>769.8</ele><time>2026-04-07T09:58:49.791Z</time></trkpt><trkpt lat="38.6109533" lon="16.33535"><ele>770.0</ele><time>2026-04-07T09:58:50.792Z</time></trkpt><trkpt lat="38.61104" lon="16.3353483"><ele>770.0000000000001</ele><time>2026-04-07T09:58:51.791Z</time></trkpt><trkpt lat="38.6111233" lon="16.3353417"><ele>770.0</ele><time>2026-04-07T09:58:52.791Z</time></trkpt><trkpt lat="38.611205" lon="16.33531"><ele>770.0</ele><time>2026-04-07T09:58:53.792Z</time></trkpt><trkpt lat="38.611285" lon="16.3352767"><ele>770.0</ele><time>2026-04-07T09:58:54.791Z</time></trkpt><trkpt lat="38.611365" lon="16.335265"><ele>770.0000000000001</ele><time>2026-04-07T09:58:55.791Z</time></trkpt><trkpt lat="38.6114417" lon="16.33526"><ele>770.0</ele><time>2026-04-07T09:58:56.791Z</time></trkpt><trkpt lat="38.611525" lon="16.3352683"><ele>770.8571428571429</ele><time>2026-04-07T09:58:57.792Z</time></trkpt><trkpt lat="38.6116033" lon="16.3352683"><ele>771.7142857142858</ele><time>2026-04-07T09:58:58.792Z</time></trkpt><trkpt lat="38.6116733" lon="16.3352783"><ele>772.5714285714286</ele><time>2026-04-07T09:58:59.791Z</time></trkpt><trkpt lat="38.6117367" lon="16.3353"><ele>773.4285714285714</ele><time>2026-04-07T09:59:00.791Z</time></trkpt><trkpt lat="38.6118083" lon="16.335335"><ele>774.2857142857143</ele><time>2026-04-07T09:59:01.791Z</time></trkpt><trkpt lat="38.61187" lon="16.3353933"><ele>775.1428571428571</ele><time>2026-04-07T09:59:02.791Z</time></trkpt><trkpt lat="38.61193" lon="16.3354567"><ele>776.0</ele><time>2026-04-07T09:59:03.791Z</time></trkpt><trkpt lat="38.6119983" lon="16.3355233"><ele>776.1999999999999</ele><time>2026-04-07T09:59:04.792Z</time></trkpt><trkpt lat="38.6120717" lon="16.3355967"><ele>776.4</ele><time>2026-04-07T09:59:05.792Z</time></trkpt><trkpt lat="38.6121433" lon="16.3356817"><ele>776.6</ele><time>2026-04-07T09:59:06.791Z</time></trkpt><trkpt lat="38.6122183" lon="16.33577"><ele>776.8</ele><time>2026-04-07T09:59:07.792Z</time></trkpt><trkpt lat="38.6122833" lon="16.3358683"><ele>777.0</ele><time>2026-04-07T09:59:08.791Z</time></trkpt><trkpt lat="38.6123583" lon="16.335955"><ele>777.0</ele><time>2026-04-07T09:59:09.791Z</time></trkpt><trkpt lat="38.61243" lon="16.3360483"><ele>777.0</ele><time>2026-04-07T09:59:10.791Z</time></trkpt><trkpt lat="38.6125017" lon="16.3361333"><ele>777.0</ele><time>2026-04-07T09:59:11.791Z</time></trkpt><trkpt lat="38.6125733" lon="16.3362133"><ele>777.0</ele><time>2026-04-07T09:59:12.791Z</time></trkpt><trkpt lat="38.6126467" lon="16.3363117"><ele>777.0</ele><time>2026-04-07T09:59:13.791Z</time></trkpt><trkpt lat="38.6127267" lon="16.336415"><ele>778.0</ele><time>2026-04-07T09:59:14.791Z</time></trkpt><trkpt lat="38.6128083" lon="16.3365117"><ele>779.0</ele><time>2026-04-07T09:59:15.792Z</time></trkpt><trkpt lat="38.612895" lon="16.3366067"><ele>780.0</ele><time>2026-04-07T09:59:16.792Z</time></trkpt><trkpt lat="38.6129833" lon="16.3367083"><ele>781.0</ele><time>2026-04-07T09:59:17.791Z</time></trkpt><trkpt lat="38.61307" lon="16.33681"><ele>781.0</ele><time>2026-04-07T09:59:18.792Z</time></trkpt><trkpt lat="38.613155" lon="16.3369167"><ele>781.0</ele><time>2026-04-07T09:59:19.792Z</time></trkpt><trkpt lat="38.6132417" lon="16.3370133"><ele>781.0</ele><time>2026-04-07T09:59:20.791Z</time></trkpt><trkpt lat="38.6133133" lon="16.3371033"><ele>781.0</ele><time>2026-04-07T09:59:21.791Z</time></trkpt><trkpt lat="38.6133867" lon="16.337185"><ele>781.0</ele><time>2026-04-07T09:59:22.791Z</time></trkpt><trkpt lat="38.6134467" lon="16.33726"><ele>781.4999999999999</ele><time>2026-04-07T09:59:23.791Z</time></trkpt><trkpt lat="38.613505" lon="16.3373333"><ele>782.0</ele><time>2026-04-07T09:59:24.791Z</time></trkpt><trkpt lat="38.6135717" lon="16.33739"><ele>782.5</ele><time>2026-04-07T09:59:25.792Z</time></trkpt><trkpt lat="38.6136467" lon="16.3374317"><ele>783.0</ele><time>2026-04-07T09:59:26.791Z</time></trkpt><trkpt lat="38.61374" lon="16.3374483"><ele>783.4999999999999</ele><time>2026-04-07T09:59:27.791Z</time></trkpt><trkpt lat="38.6138317" lon="16.3374233"><ele>784.0</ele><time>2026-04-07T09:59:28.791Z</time></trkpt><trkpt lat="38.6139233" lon="16.33736"><ele>784.25</ele><time>2026-04-07T09:59:29.791Z</time></trkpt><trkpt lat="38.61402" lon="16.337275"><ele>784.5</ele><time>2026-04-07T09:59:30.792Z</time></trkpt><trkpt lat="38.614115" lon="16.337185"><ele>784.75</ele><time>2026-04-07T09:59:31.791Z</time></trkpt><trkpt lat="38.61422" lon="16.3370883"><ele>785.0</ele><time>2026-04-07T09:59:32.791Z</time></trkpt><trkpt lat="38.6143283" lon="16.33698"><ele>784.5</ele><time>2026-04-07T09:59:33.791Z</time></trkpt><trkpt lat="38.6144417" lon="16.336875"><ele>784.0</ele><time>2026-04-07T09:59:34.791Z</time></trkpt><trkpt lat="38.6145567" lon="16.3367683"><ele>783.5</ele><time>2026-04-07T09:59:35.791Z</time></trkpt><trkpt lat="38.6146733" lon="16.33666"><ele>783.0</ele><time>2026-04-07T09:59:36.791Z</time></trkpt><trkpt lat="38.614795" lon="16.3365467"><ele>782.6666666666667</ele><time>2026-04-07T09:59:37.791Z</time></trkpt><trkpt lat="38.61492" lon="16.336435"><ele>782.3333333333334</ele><time>2026-04-07T09:59:38.791Z</time></trkpt><trkpt lat="38.6150483" lon="16.3363183"><ele>782.0</ele><time>2026-04-07T09:59:39.791Z</time></trkpt><trkpt lat="38.6151717" lon="16.3362017"><ele>782.0</ele><time>2026-04-07T09:59:40.792Z</time></trkpt><trkpt lat="38.615295" lon="16.3360817"><ele>782.0</ele><time>2026-04-07T09:59:41.791Z</time></trkpt><trkpt lat="38.615405" lon="16.3359717"><ele>782.0</ele><time>2026-04-07T09:59:42.792Z</time></trkpt><trkpt lat="38.6155133" lon="16.3358717"><ele>782.0</ele><time>2026-04-07T09:59:43.791Z</time></trkpt><trkpt lat="38.6156133" lon="16.3357817"><ele>781.5</ele><time>2026-04-07T09:59:44.791Z</time></trkpt><trkpt lat="38.6157083" lon="16.335695"><ele>781.0</ele><time>2026-04-07T09:59:45.792Z</time></trkpt><trkpt lat="38.6158083" lon="16.3356033"><ele>780.5</ele><time>2026-04-07T09:59:46.792Z</time></trkpt><trkpt lat="38.61591" lon="16.3355017"><ele>780.0</ele><time>2026-04-07T09:59:47.791Z</time></trkpt><trkpt lat="38.616015" lon="16.3354"><ele>779.25</ele><time>2026-04-07T09:59:48.791Z</time></trkpt><trkpt lat="38.6161167" lon="16.3352967"><ele>778.5</ele><time>2026-04-07T09:59:49.792Z</time></trkpt><trkpt lat="38.6162267" lon="16.3352"><ele>777.75</ele><time>2026-04-07T09:59:50.791Z</time></trkpt><trkpt lat="38.616345" lon="16.3350967"><ele>777.0</ele><time>2026-04-07T09:59:51.791Z</time></trkpt><trkpt lat="38.6164667" lon="16.33499"><ele>776.6666666666667</ele><time>2026-04-07T09:59:52.791Z</time></trkpt><trkpt lat="38.61659" lon="16.3348683"><ele>776.3333333333334</ele><time>2026-04-07T09:59:53.792Z</time></trkpt><trkpt lat="38.6167133" lon="16.3347583"><ele>776.0</ele><time>2026-04-07T09:59:54.792Z</time></trkpt><trkpt lat="38.616835" lon="16.3346433"><ele>776.0</ele><time>2026-04-07T09:59:55.792Z</time></trkpt><trkpt lat="38.616955" lon="16.33453"><ele>776.0</ele><time>2026-04-07T09:59:56.791Z</time></trkpt><trkpt lat="38.61708" lon="16.334415"><ele>776.0</ele><time>2026-04-07T09:59:57.791Z</time></trkpt><trkpt lat="38.61721" lon="16.3342883"><ele>777.6666666666667</ele><time>2026-04-07T09:59:58.791Z</time></trkpt><trkpt lat="38.617335" lon="16.33416"><ele>779.3333333333333</ele><time>2026-04-07T09:59:59.791Z</time></trkpt><trkpt lat="38.6174683" lon="16.3340467"><ele>781.0</ele><time>2026-04-07T10:00:00.792Z</time></trkpt><trkpt lat="38.6175983" lon="16.3339533"><ele>781.75</ele><time>2026-04-07T10:00:01.791Z</time></trkpt><trkpt lat="38.6177367" lon="16.3338833"><ele>782.5</ele><time>2026-04-07T10:00:02.791Z</time></trkpt><trkpt lat="38.6178767" lon="16.3338483"><ele>783.25</ele><time>2026-04-07T10:00:03.791Z</time></trkpt><trkpt lat="38.61802" lon="16.3338383"><ele>784.0</ele><time>2026-04-07T10:00:04.791Z</time></trkpt><trkpt lat="38.6181817" lon="16.333845"><ele>783.6666666666666</ele><time>2026-04-07T10:00:05.791Z</time></trkpt><trkpt lat="38.6183333" lon="16.3338567"><ele>783.3333333333333</ele><time>2026-04-07T10:00:06.791Z</time></trkpt><trkpt lat="38.6184867" lon="16.33389"><ele>783.0</ele><time>2026-04-07T10:00:07.791Z</time></trkpt><trkpt lat="38.6186483" lon="16.33391"><ele>785.6666666666667</ele><time>2026-04-07T10:00:08.791Z</time></trkpt><trkpt lat="38.61882" lon="16.33393"><ele>788.3333333333334</ele><time>2026-04-07T10:00:09.791Z</time></trkpt><trkpt lat="38.6189683" lon="16.3339417"><ele>791.0</ele><time>2026-04-07T10:00:10.791Z</time></trkpt><trkpt lat="38.619105" lon="16.3339517"><ele>791.0</ele><time>2026-04-07T10:00:11.792Z</time></trkpt><trkpt lat="38.61923" lon="16.3339683"><ele>791.0</ele><time>2026-04-07T10:00:12.792Z</time></trkpt><trkpt lat="38.6193583" lon="16.333985"><ele>791.0</ele><time>2026-04-07T10:00:13.792Z</time></trkpt><trkpt lat="38.619475" lon="16.3340067"><ele>791.0</ele><time>2026-04-07T10:00:14.791Z</time></trkpt><trkpt lat="38.6195883" lon="16.334015"><ele>793.1999999999999</ele><time>2026-04-07T10:00:15.791Z</time></trkpt><trkpt lat="38.6196917" lon="16.3340167"><ele>795.4</ele><time>2026-04-07T10:00:16.792Z</time></trkpt><trkpt lat="38.6197817" lon="16.3340267"><ele>797.6</ele><time>2026-04-07T10:00:17.791Z</time></trkpt><trkpt lat="38.6198583" lon="16.3340667"><ele>799.8</ele><time>2026-04-07T10:00:18.791Z</time></trkpt><trkpt lat="38.61993" lon="16.3341217"><ele>802.0</ele><time>2026-04-07T10:00:19.791Z</time></trkpt><trkpt lat="38.6199933" lon="16.3342067"><ele>801.9999999999999</ele><time>2026-04-07T10:00:20.792Z</time></trkpt><trkpt lat="38.620045" lon="16.3342967"><ele>802.0</ele><time>2026-04-07T10:00:21.791Z</time></trkpt><trkpt lat="38.62008" lon="16.3343967"><ele>802.0</ele><time>2026-04-07T10:00:22.791Z</time></trkpt><trkpt lat="38.6201083" lon="16.3345"><ele>802.0</ele><time>2026-04-07T10:00:23.791Z</time></trkpt><trkpt lat="38.6201333" lon="16.3346167"><ele>801.9999999999999</ele><time>2026-04-07T10:00:24.791Z</time></trkpt><trkpt lat="38.6201633" lon="16.3347233"><ele>802.0</ele><time>2026-04-07T10:00:25.791Z</time></trkpt><trkpt lat="38.6202017" lon="16.3348233"><ele>801.2</ele><time>2026-04-07T10:00:26.791Z</time></trkpt><trkpt lat="38.62025" lon="16.3349167"><ele>800.4000000000001</ele><time>2026-04-07T10:00:27.792Z</time></trkpt><trkpt lat="38.6203133" lon="16.3350017"><ele>799.5999999999999</ele><time>2026-04-07T10:00:28.791Z</time></trkpt><trkpt lat="38.6203817" lon="16.33508"><ele>798.8</ele><time>2026-04-07T10:00:29.791Z</time></trkpt><trkpt lat="38.6204633" lon="16.3351383"><ele>798.0</ele><time>2026-04-07T10:00:30.791Z</time></trkpt><trkpt lat="38.6205567" lon="16.3351917"><ele>799.8</ele><time>2026-04-07T10:00:31.792Z</time></trkpt><trkpt lat="38.6206517" lon="16.3352417"><ele>801.5999999999999</ele><time>2026-04-07T10:00:32.792Z</time></trkpt><trkpt lat="38.6207417" lon="16.3352917"><ele>803.4000000000001</ele><time>2026-04-07T10:00:33.792Z</time></trkpt><trkpt lat="38.6208333" lon="16.3353367"><ele>805.2</ele><time>2026-04-07T10:00:34.791Z</time></trkpt><trkpt lat="38.6209283" lon="16.3353967"><ele>807.0</ele><time>2026-04-07T10:00:35.791Z</time></trkpt><trkpt lat="38.6210167" lon="16.3354533"><ele>807.0</ele><time>2026-04-07T10:00:36.791Z</time></trkpt><trkpt lat="38.6211067" lon="16.3355"><ele>807.0</ele><time>2026-04-07T10:00:37.791Z</time></trkpt><trkpt lat="38.62119" lon="16.33552"><ele>807.0</ele><time>2026-04-07T10:00:38.791Z</time></trkpt><trkpt lat="38.62128" lon="16.3355117"><ele>807.0</ele><time>2026-04-07T10:00:39.791Z</time></trkpt><trkpt lat="38.62137" lon="16.335485"><ele>807.0</ele><time>2026-04-07T10:00:40.791Z</time></trkpt><trkpt lat="38.6214367" lon="16.3354367"><ele>807.0</ele><time>2026-04-07T10:00:41.792Z</time></trkpt><trkpt lat="38.6214917" lon="16.3353583"><ele>806.5</ele><time>2026-04-07T10:00:42.791Z</time></trkpt><trkpt lat="38.62154" lon="16.3352617"><ele>806.0</ele><time>2026-04-07T10:00:43.792Z</time></trkpt><trkpt lat="38.6215783" lon="16.3351717"><ele>805.5</ele><time>2026-04-07T10:00:44.792Z</time></trkpt><trkpt lat="38.6216117" lon="16.3350917"><ele>805.0</ele><time>2026-04-07T10:00:45.791Z</time></trkpt><trkpt lat="38.62164" lon="16.335005"><ele>804.5</ele><time>2026-04-07T10:00:46.791Z</time></trkpt><trkpt lat="38.6216717" lon="16.3349167"><ele>804.0</ele><time>2026-04-07T10:00:47.791Z</time></trkpt><trkpt lat="38.6216883" lon="16.3348167"><ele>804.0</ele><time>2026-04-07T10:00:48.791Z</time></trkpt><trkpt lat="38.6216783" lon="16.3346983"><ele>804.0</ele><time>2026-04-07T10:00:49.791Z</time></trkpt><trkpt lat="38.6216417" lon="16.334585"><ele>804.0</ele><time>2026-04-07T10:00:50.791Z</time></trkpt><trkpt lat="38.621565" lon="16.3344483"><ele>804.0</ele><time>2026-04-07T10:00:51.791Z</time></trkpt><trkpt lat="38.6214583" lon="16.3342817"><ele>804.0</ele><time>2026-04-07T10:00:52.792Z</time></trkpt><trkpt lat="38.6213417" lon="16.3340917"><ele>804.0</ele><time>2026-04-07T10:00:53.792Z</time></trkpt><trkpt lat="38.621235" lon="16.3339"><ele>804.0</ele><time>2026-04-07T10:00:54.791Z</time></trkpt><trkpt lat="38.6211383" lon="16.3337067"><ele>807.0</ele><time>2026-04-07T10:00:55.792Z</time></trkpt><trkpt lat="38.621085" lon="16.3335117"><ele>810.0</ele><time>2026-04-07T10:00:56.791Z</time></trkpt><trkpt lat="38.621085" lon="16.3332967"><ele>813.0</ele><time>2026-04-07T10:00:57.791Z</time></trkpt><trkpt lat="38.6210867" lon="16.33307"><ele>815.0</ele><time>2026-04-07T10:00:58.792Z</time></trkpt><trkpt lat="38.6211" lon="16.3328567"><ele>817.0</ele><time>2026-04-07T10:00:59.791Z</time></trkpt><trkpt lat="38.6211417" lon="16.33267"><ele>819.0</ele><time>2026-04-07T10:01:00.791Z</time></trkpt><trkpt lat="38.6212167" lon="16.332515"><ele>813.0</ele><time>2026-04-07T10:01:01.791Z</time></trkpt><trkpt lat="38.6213117" lon="16.3323917"><ele>807.0</ele><time>2026-04-07T10:01:02.792Z</time></trkpt><trkpt lat="38.6214467" lon="16.3323117"><ele>801.0</ele><time>2026-04-07T10:01:03.792Z</time></trkpt><trkpt lat="38.6216267" lon="16.3322633"><ele>802.0</ele><time>2026-04-07T10:01:04.791Z</time></trkpt><trkpt lat="38.6218" lon="16.332215"><ele>803.0</ele><time>2026-04-07T10:01:05.791Z</time></trkpt><trkpt lat="38.6219867" lon="16.3321517"><ele>804.0</ele><time>2026-04-07T10:01:06.791Z</time></trkpt><trkpt lat="38.6221967" lon="16.3320283"><ele>799.5</ele><time>2026-04-07T10:01:07.791Z</time></trkpt><trkpt lat="38.62241" lon="16.3318783"><ele>795.0</ele><time>2026-04-07T10:01:08.791Z</time></trkpt><trkpt lat="38.6226417" lon="16.33171"><ele>793.0</ele><time>2026-04-07T10:01:09.791Z</time></trkpt><trkpt lat="38.62287" lon="16.3315517"><ele>791.0</ele><time>2026-04-07T10:01:10.791Z</time></trkpt><trkpt lat="38.62308" lon="16.3314067"><ele>790.6666666666667</ele><time>2026-04-07T10:01:11.791Z</time></trkpt><trkpt lat="38.6232733" lon="16.3312767"><ele>790.3333333333333</ele><time>2026-04-07T10:01:12.791Z</time></trkpt><trkpt lat="38.6234517" lon="16.33116"><ele>790.0</ele><time>2026-04-07T10:01:13.791Z</time></trkpt><trkpt lat="38.623635" lon="16.3310483"><ele>792.0</ele><time>2026-04-07T10:01:14.792Z</time></trkpt><trkpt lat="38.6238333" lon="16.3309633"><ele>794.0</ele><time>2026-04-07T10:01:15.791Z</time></trkpt><trkpt lat="38.6240483" lon="16.330895"><ele>796.0</ele><time>2026-04-07T10:01:16.792Z</time></trkpt><trkpt lat="38.6242617" lon="16.3308267"><ele>796.0</ele><time>2026-04-07T10:01:17.791Z</time></trkpt><trkpt lat="38.6244617" lon="16.33077"><ele>796.0</ele><time>2026-04-07T10:01:18.791Z</time></trkpt><trkpt lat="38.6246417" lon="16.3307183"><ele>796.0</ele><time>2026-04-07T10:01:19.792Z</time></trkpt><trkpt lat="38.6248017" lon="16.33067"><ele>797.0</ele><time>2026-04-07T10:01:20.791Z</time></trkpt><trkpt lat="38.6249567" lon="16.3306517"><ele>798.0</ele><time>2026-04-07T10:01:21.791Z</time></trkpt><trkpt lat="38.625105" lon="16.330645"><ele>799.0</ele><time>2026-04-07T10:01:22.792Z</time></trkpt><trkpt lat="38.6252433" lon="16.3306383"><ele>800.0</ele><time>2026-04-07T10:01:23.792Z</time></trkpt><trkpt lat="38.625375" lon="16.330635"><ele>800.2</ele><time>2026-04-07T10:01:24.791Z</time></trkpt><trkpt lat="38.6254967" lon="16.3306233"><ele>800.4</ele><time>2026-04-07T10:01:25.791Z</time></trkpt><trkpt lat="38.6256" lon="16.3305883"><ele>800.5999999999999</ele><time>2026-04-07T10:01:26.791Z</time></trkpt><trkpt lat="38.625675" lon="16.3305267"><ele>800.8</ele><time>2026-04-07T10:01:27.791Z</time></trkpt><trkpt lat="38.625745" lon="16.3304533"><ele>801.0</ele><time>2026-04-07T10:01:28.791Z</time></trkpt><trkpt lat="38.625815" lon="16.330385"><ele>799.5</ele><time>2026-04-07T10:01:29.791Z</time></trkpt><trkpt lat="38.62588" lon="16.3302917"><ele>798.0</ele><time>2026-04-07T10:01:30.791Z</time></trkpt><trkpt lat="38.62595" lon="16.3301833"><ele>796.5</ele><time>2026-04-07T10:01:31.792Z</time></trkpt><trkpt lat="38.626025" lon="16.3300717"><ele>795.0</ele><time>2026-04-07T10:01:32.791Z</time></trkpt><trkpt lat="38.626115" lon="16.3299417"><ele>795.6666666666667</ele><time>2026-04-07T10:01:33.791Z</time></trkpt><trkpt lat="38.6262183" lon="16.3297983"><ele>796.3333333333334</ele><time>2026-04-07T10:01:34.791Z</time></trkpt><trkpt lat="38.6263233" lon="16.329645"><ele>797.0</ele><time>2026-04-07T10:01:35.792Z</time></trkpt><trkpt lat="38.6264367" lon="16.3294917"><ele>797.0</ele><time>2026-04-07T10:01:36.791Z</time></trkpt><trkpt lat="38.6265383" lon="16.3293633"><ele>797.0</ele><time>2026-04-07T10:01:37.791Z</time></trkpt><trkpt lat="38.626635" lon="16.3292433"><ele>797.0</ele><time>2026-04-07T10:01:38.792Z</time></trkpt><trkpt lat="38.6267317" lon="16.3291167"><ele>797.0</ele><time>2026-04-07T10:01:39.791Z</time></trkpt><trkpt lat="38.6268233" lon="16.3289917"><ele>797.0</ele><time>2026-04-07T10:01:40.791Z</time></trkpt><trkpt lat="38.6269167" lon="16.3288817"><ele>797.0</ele><time>2026-04-07T10:01:41.791Z</time></trkpt><trkpt lat="38.627005" lon="16.32878"><ele>797.0</ele><time>2026-04-07T10:01:42.792Z</time></trkpt><trkpt lat="38.6271" lon="16.3286983"><ele>797.0</ele><time>2026-04-07T10:01:43.792Z</time></trkpt><trkpt lat="38.6271967" lon="16.328625"><ele>797.0</ele><time>2026-04-07T10:01:44.791Z</time></trkpt><trkpt lat="38.627285" lon="16.3285583"><ele>797.0</ele><time>2026-04-07T10:01:45.792Z</time></trkpt><trkpt lat="38.6273583" lon="16.3284717"><ele>797.0</ele><time>2026-04-07T10:01:46.791Z</time></trkpt><trkpt lat="38.6274133" lon="16.3283667"><ele>797.0</ele><time>2026-04-07T10:01:47.791Z</time></trkpt><trkpt lat="38.6274533" lon="16.3282583"><ele>797.0</ele><time>2026-04-07T10:01:48.791Z</time></trkpt><trkpt lat="38.627485" lon="16.3281433"><ele>796.1666666666667</ele><time>2026-04-07T10:01:49.791Z</time></trkpt><trkpt lat="38.6275167" lon="16.3280317"><ele>795.3333333333334</ele><time>2026-04-07T10:01:50.792Z</time></trkpt><trkpt lat="38.6275483" lon="16.327925"><ele>794.5</ele><time>2026-04-07T10:01:51.791Z</time></trkpt><trkpt lat="38.6275817" lon="16.3278217"><ele>793.6666666666667</ele><time>2026-04-07T10:01:52.791Z</time></trkpt><trkpt lat="38.627615" lon="16.3277283"><ele>792.8333333333334</ele><time>2026-04-07T10:01:53.791Z</time></trkpt><trkpt lat="38.6276633" lon="16.3276367"><ele>792.0</ele><time>2026-04-07T10:01:54.792Z</time></trkpt><trkpt lat="38.6277333" lon="16.327545"><ele>792.8</ele><time>2026-04-07T10:01:55.791Z</time></trkpt><trkpt lat="38.6278183" lon="16.327465"><ele>793.6</ele><time>2026-04-07T10:01:56.791Z</time></trkpt><trkpt lat="38.6279017" lon="16.3273917"><ele>794.4</ele><time>2026-04-07T10:01:57.791Z</time></trkpt><trkpt lat="38.6279933" lon="16.32733"><ele>795.1999999999999</ele><time>2026-04-07T10:01:58.792Z</time></trkpt><trkpt lat="38.6280917" lon="16.3272783"><ele>796.0</ele><time>2026-04-07T10:01:59.792Z</time></trkpt><trkpt lat="38.6281883" lon="16.3272267"><ele>795.9999999999999</ele><time>2026-04-07T10:02:00.792Z</time></trkpt><trkpt lat="38.628275" lon="16.327175"><ele>796.0</ele><time>2026-04-07T10:02:01.791Z</time></trkpt><trkpt lat="38.6283467" lon="16.3271017"><ele>796.0</ele><time>2026-04-07T10:02:02.791Z</time></trkpt><trkpt lat="38.6283917" lon="16.327025"><ele>796.0</ele><time>2026-04-07T10:02:03.791Z</time></trkpt><trkpt lat="38.6284167" lon="16.3269283"><ele>795.9999999999999</ele><time>2026-04-07T10:02:04.791Z</time></trkpt><trkpt lat="38.6284367" lon="16.3268083"><ele>796.0</ele><time>2026-04-07T10:02:05.792Z</time></trkpt><trkpt lat="38.6284367" lon="16.3266617"><ele>796.0</ele><time>2026-04-07T10:02:06.792Z</time></trkpt><trkpt lat="38.628435" lon="16.3265117"><ele>796.0</ele><time>2026-04-07T10:02:07.791Z</time></trkpt><trkpt lat="38.6284233" lon="16.3263267"><ele>796.0</ele><time>2026-04-07T10:02:08.792Z</time></trkpt><trkpt lat="38.6284117" lon="16.326155"><ele>796.0</ele><time>2026-04-07T10:02:09.791Z</time></trkpt><trkpt lat="38.6284233" lon="16.3259883"><ele>792.75</ele><time>2026-04-07T10:02:10.792Z</time></trkpt><trkpt lat="38.62846" lon="16.325835"><ele>789.5</ele><time>2026-04-07T10:02:11.791Z</time></trkpt><trkpt lat="38.628505" lon="16.3256967"><ele>786.25</ele><time>2026-04-07T10:02:12.791Z</time></trkpt><trkpt lat="38.6285717" lon="16.32558"><ele>783.0</ele><time>2026-04-07T10:02:13.792Z</time></trkpt><trkpt lat="38.6286517" lon="16.3254633"><ele>782.25</ele><time>2026-04-07T10:02:14.792Z</time></trkpt><trkpt lat="38.6287483" lon="16.3253533"><ele>781.5</ele><time>2026-04-07T10:02:15.791Z</time></trkpt><trkpt lat="38.6288433" lon="16.32526"><ele>780.75</ele><time>2026-04-07T10:02:16.791Z</time></trkpt><trkpt lat="38.62893" lon="16.32518"><ele>780.0</ele><time>2026-04-07T10:02:17.791Z</time></trkpt><trkpt lat="38.629015" lon="16.3251233"><ele>780.0</ele><time>2026-04-07T10:02:18.792Z</time></trkpt><trkpt lat="38.629095" lon="16.3250867"><ele>780.0</ele><time>2026-04-07T10:02:19.792Z</time></trkpt><trkpt lat="38.629185" lon="16.325085"><ele>780.0</ele><time>2026-04-07T10:02:20.791Z</time></trkpt><trkpt lat="38.62928" lon="16.3251217"><ele>780.0</ele><time>2026-04-07T10:02:21.791Z</time></trkpt><trkpt lat="38.6293633" lon="16.325195"><ele>780.0</ele><time>2026-04-07T10:02:22.791Z</time></trkpt><trkpt lat="38.6294467" lon="16.325285"><ele>777.2</ele><time>2026-04-07T10:02:23.791Z</time></trkpt><trkpt lat="38.6295117" lon="16.3253867"><ele>774.4</ele><time>2026-04-07T10:02:24.791Z</time></trkpt><trkpt lat="38.6295833" lon="16.3254717"><ele>771.5999999999999</ele><time>2026-04-07T10:02:25.792Z</time></trkpt><trkpt lat="38.629655" lon="16.325515"><ele>768.8</ele><time>2026-04-07T10:02:26.791Z</time></trkpt><trkpt lat="38.6297417" lon="16.3255117"><ele>766.0</ele><time>2026-04-07T10:02:27.791Z</time></trkpt><trkpt lat="38.6298233" lon="16.3254767"><ele>766.0</ele><time>2026-04-07T10:02:28.791Z</time></trkpt><trkpt lat="38.6298883" lon="16.32539"><ele>766.0</ele><time>2026-04-07T10:02:29.791Z</time></trkpt><trkpt lat="38.6299683" lon="16.3252867"><ele>766.0</ele><time>2026-04-07T10:02:30.791Z</time></trkpt><trkpt lat="38.6300633" lon="16.3252033"><ele>766.0</ele><time>2026-04-07T10:02:31.791Z</time></trkpt><trkpt lat="38.6301617" lon="16.3251817"><ele>766.0</ele><time>2026-04-07T10:02:32.791Z</time></trkpt><trkpt lat="38.630255" lon="16.3252183"><ele>764.5</ele><time>2026-04-07T10:02:33.791Z</time></trkpt><trkpt lat="38.6303367" lon="16.3253067"><ele>763.0</ele><time>2026-04-07T10:02:34.791Z</time></trkpt><trkpt lat="38.6304033" lon="16.3254233"><ele>761.5</ele><time>2026-04-07T10:02:35.791Z</time></trkpt><trkpt lat="38.630475" lon="16.3255383"><ele>760.0</ele><time>2026-04-07T10:02:36.791Z</time></trkpt><trkpt lat="38.6305667" lon="16.3256267"><ele>760.0</ele><time>2026-04-07T10:02:37.791Z</time></trkpt><trkpt lat="38.6306683" lon="16.325665"><ele>760.0</ele><time>2026-04-07T10:02:38.792Z</time></trkpt><trkpt lat="38.63078" lon="16.32566"><ele>760.0</ele><time>2026-04-07T10:02:39.791Z</time></trkpt><trkpt lat="38.6308833" lon="16.3255883"><ele>760.0</ele><time>2026-04-07T10:02:40.791Z</time></trkpt><trkpt lat="38.63096" lon="16.325475"><ele>760.0</ele><time>2026-04-07T10:02:41.792Z</time></trkpt><trkpt lat="38.631" lon="16.325335"><ele>760.0</ele><time>2026-04-07T10:02:42.791Z</time></trkpt><trkpt lat="38.6310433" lon="16.3251983"><ele>760.0</ele><time>2026-04-07T10:02:43.791Z</time></trkpt><trkpt lat="38.6311083" lon="16.3250983"><ele>760.0</ele><time>2026-04-07T10:02:44.791Z</time></trkpt><trkpt lat="38.6312017" lon="16.3250467"><ele>760.0</ele><time>2026-04-07T10:02:45.792Z</time></trkpt><trkpt lat="38.63131" lon="16.3250483"><ele>758.25</ele><time>2026-04-07T10:02:46.791Z</time></trkpt><trkpt lat="38.6314167" lon="16.3251"><ele>756.5</ele><time>2026-04-07T10:02:47.791Z</time></trkpt><trkpt lat="38.6315233" lon="16.3252033"><ele>754.75</ele><time>2026-04-07T10:02:48.791Z</time></trkpt><trkpt lat="38.6316233" lon="16.325335"><ele>753.0</ele><time>2026-04-07T10:02:49.791Z</time></trkpt><trkpt lat="38.63172" lon="16.3254917"><ele>751.6666666666666</ele><time>2026-04-07T10:02:50.791Z</time></trkpt><trkpt lat="38.6318267" lon="16.3256367"><ele>750.3333333333333</ele><time>2026-04-07T10:02:51.791Z</time></trkpt><trkpt lat="38.6319417" lon="16.325775"><ele>749.0</ele><time>2026-04-07T10:02:52.791Z</time></trkpt><trkpt lat="38.6320533" lon="16.3259117"><ele>749.0</ele><time>2026-04-07T10:02:53.791Z</time></trkpt><trkpt lat="38.6321833" lon="16.326025"><ele>749.0</ele><time>2026-04-07T10:02:54.791Z</time></trkpt><trkpt lat="38.6323217" lon="16.326115"><ele>749.0</ele><time>2026-04-07T10:02:55.791Z</time></trkpt><trkpt lat="38.632445" lon="16.3261883"><ele>749.0</ele><time>2026-04-07T10:02:56.791Z</time></trkpt><trkpt lat="38.63256" lon="16.3262533"><ele>749.0</ele><time>2026-04-07T10:02:57.792Z</time></trkpt><trkpt lat="38.632665" lon="16.3263367"><ele>749.0</ele><time>2026-04-07T10:02:58.791Z</time></trkpt><trkpt lat="38.6327517" lon="16.3264433"><ele>749.0</ele><time>2026-04-07T10:02:59.791Z</time></trkpt><trkpt lat="38.6328283" lon="16.3265767"><ele>749.0</ele><time>2026-04-07T10:03:00.791Z</time></trkpt><trkpt lat="38.6329" lon="16.326715"><ele>747.0</ele><time>2026-04-07T10:03:01.791Z</time></trkpt><trkpt lat="38.63296" lon="16.32684"><ele>745.0</ele><time>2026-04-07T10:03:02.791Z</time></trkpt><trkpt lat="38.6330483" lon="16.3269317"><ele>743.0</ele><time>2026-04-07T10:03:03.791Z</time></trkpt><trkpt lat="38.6331583" lon="16.32698"><ele>741.0</ele><time>2026-04-07T10:03:04.791Z</time></trkpt><trkpt lat="38.63327" lon="16.3269833"><ele>741.0</ele><time>2026-04-07T10:03:05.791Z</time></trkpt><trkpt lat="38.63338" lon="16.3269467"><ele>741.0</ele><time>2026-04-07T10:03:06.791Z</time></trkpt><trkpt lat="38.633485" lon="16.326875"><ele>741.0</ele><time>2026-04-07T10:03:07.791Z</time></trkpt><trkpt lat="38.633605" lon="16.3267967"><ele>741.0</ele><time>2026-04-07T10:03:08.791Z</time></trkpt><trkpt lat="38.6337283" lon="16.3267267"><ele>740.0</ele><time>2026-04-07T10:03:09.791Z</time></trkpt><trkpt lat="38.6338717" lon="16.32667"><ele>739.0</ele><time>2026-04-07T10:03:10.792Z</time></trkpt><trkpt lat="38.63402" lon="16.3266267"><ele>738.0</ele><time>2026-04-07T10:03:11.792Z</time></trkpt><trkpt lat="38.6341567" lon="16.326605"><ele>737.0</ele><time>2026-04-07T10:03:12.791Z</time></trkpt><trkpt lat="38.6342583" lon="16.3265817"><ele>737.0</ele><time>2026-04-07T10:03:13.791Z</time></trkpt><trkpt lat="38.634325" lon="16.326525"><ele>737.0</ele><time>2026-04-07T10:03:14.791Z</time></trkpt><trkpt lat="38.63436" lon="16.3264417"><ele>737.0</ele><time>2026-04-07T10:03:15.791Z</time></trkpt><trkpt lat="38.63437" lon="16.326355"><ele>737.0</ele><time>2026-04-07T10:03:16.791Z</time></trkpt><trkpt lat="38.6343933" lon="16.3262133"><ele>737.0</ele><time>2026-04-07T10:03:18.792Z</time></trkpt><trkpt lat="38.63444" lon="16.3261517"><ele>737.0</ele><time>2026-04-07T10:03:21.791Z</time></trkpt><trkpt lat="38.6345167" lon="16.3261367"><ele>738.5</ele><time>2026-04-07T10:03:24.791Z</time></trkpt><trkpt lat="38.6345883" lon="16.3261167"><ele>740.0</ele><time>2026-04-07T10:03:27.791Z</time></trkpt><trkpt lat="38.634675" lon="16.326115"><ele>741.5</ele><time>2026-04-07T10:03:30.792Z</time></trkpt><trkpt lat="38.6347833" lon="16.3261533"><ele>743.0</ele><time>2026-04-07T10:03:32.792Z</time></trkpt><trkpt lat="38.6348467" lon="16.3261783"><ele>744.5</ele><time>2026-04-07T10:03:33.791Z</time></trkpt><trkpt lat="38.63492" lon="16.3261933"><ele>746.0</ele><time>2026-04-07T10:03:34.792Z</time></trkpt><trkpt lat="38.6349967" lon="16.3262117"><ele>746.0</ele><time>2026-04-07T10:03:35.791Z</time></trkpt><trkpt lat="38.6350783" lon="16.3262283"><ele>746.0</ele><time>2026-04-07T10:03:36.791Z</time></trkpt><trkpt lat="38.63516" lon="16.3262517"><ele>746.0</ele><time>2026-04-07T10:03:37.791Z</time></trkpt><trkpt lat="38.635245" lon="16.326275"><ele>746.0</ele><time>2026-04-07T10:03:38.791Z</time></trkpt><trkpt lat="38.6353317" lon="16.326305"><ele>746.0</ele><time>2026-04-07T10:03:39.791Z</time></trkpt><trkpt lat="38.6354167" lon="16.32634"><ele>746.0</ele><time>2026-04-07T10:03:40.791Z</time></trkpt><trkpt lat="38.6355067" lon="16.3263733"><ele>745.5</ele><time>2026-04-07T10:03:41.791Z</time></trkpt><trkpt lat="38.6356017" lon="16.3264033"><ele>745.0</ele><time>2026-04-07T10:03:42.791Z</time></trkpt><trkpt lat="38.635685" lon="16.3264417"><ele>744.5</ele><time>2026-04-07T10:03:43.792Z</time></trkpt><trkpt lat="38.63576" lon="16.326475"><ele>744.0</ele><time>2026-04-07T10:03:44.792Z</time></trkpt><trkpt lat="38.6358333" lon="16.3265033"><ele>743.5</ele><time>2026-04-07T10:03:45.792Z</time></trkpt><trkpt lat="38.6359033" lon="16.3265317"><ele>743.0</ele><time>2026-04-07T10:03:46.791Z</time></trkpt><trkpt lat="38.63597" lon="16.32656"><ele>743.0</ele><time>2026-04-07T10:03:47.792Z</time></trkpt><trkpt lat="38.6360367" lon="16.32659"><ele>743.0</ele><time>2026-04-07T10:03:48.792Z</time></trkpt><trkpt lat="38.6361483" lon="16.326655"><ele>743.0</ele><time>2026-04-07T10:03:50.791Z</time></trkpt><trkpt lat="38.6362067" lon="16.32672"><ele>743.0</ele><time>2026-04-07T10:03:51.791Z</time></trkpt><trkpt lat="38.636265" lon="16.3267983"><ele>743.0</ele><time>2026-04-07T10:03:52.791Z</time></trkpt><trkpt lat="38.6363183" lon="16.3268817"><ele>743.0</ele><time>2026-04-07T10:03:53.791Z</time></trkpt><trkpt lat="38.6363617" lon="16.326995"><ele>743.5</ele><time>2026-04-07T10:03:54.791Z</time></trkpt><trkpt lat="38.636385" lon="16.3271317"><ele>744.0</ele><time>2026-04-07T10:03:55.792Z</time></trkpt><trkpt lat="38.6363967" lon="16.32728"><ele>744.5</ele><time>2026-04-07T10:03:56.791Z</time></trkpt><trkpt lat="38.6364033" lon="16.32744"><ele>745.0</ele><time>2026-04-07T10:03:57.791Z</time></trkpt><trkpt lat="38.6364033" lon="16.3275983"><ele>745.0</ele><time>2026-04-07T10:03:58.791Z</time></trkpt><trkpt lat="38.6364017" lon="16.3277667"><ele>745.0</ele><time>2026-04-07T10:03:59.791Z</time></trkpt><trkpt lat="38.63641" lon="16.3279567"><ele>745.0</ele><time>2026-04-07T10:04:00.791Z</time></trkpt><trkpt lat="38.63642" lon="16.328145"><ele>745.0</ele><time>2026-04-07T10:04:01.791Z</time></trkpt><trkpt lat="38.6364317" lon="16.3283217"><ele>743.25</ele><time>2026-04-07T10:04:02.791Z</time></trkpt><trkpt lat="38.6364517" lon="16.32848"><ele>741.5</ele><time>2026-04-07T10:04:03.791Z</time></trkpt><trkpt lat="38.6365017" lon="16.328645"><ele>739.75</ele><time>2026-04-07T10:04:04.791Z</time></trkpt><trkpt lat="38.636585" lon="16.3287967"><ele>738.0</ele><time>2026-04-07T10:04:05.791Z</time></trkpt><trkpt lat="38.6366983" lon="16.3289383"><ele>737.0</ele><time>2026-04-07T10:04:06.792Z</time></trkpt><trkpt lat="38.6368033" lon="16.3290967"><ele>736.0</ele><time>2026-04-07T10:04:07.791Z</time></trkpt><trkpt lat="38.6369033" lon="16.3292683"><ele>735.0</ele><time>2026-04-07T10:04:08.791Z</time></trkpt><trkpt lat="38.6370067" lon="16.3294317"><ele>739.6666666666666</ele><time>2026-04-07T10:04:09.791Z</time></trkpt><trkpt lat="38.6370883" lon="16.329615"><ele>744.3333333333333</ele><time>2026-04-07T10:04:10.791Z</time></trkpt><trkpt lat="38.6371367" lon="16.3298183"><ele>749.0</ele><time>2026-04-07T10:04:11.792Z</time></trkpt><trkpt lat="38.63716" lon="16.330025"><ele>749.0</ele><time>2026-04-07T10:04:12.791Z</time></trkpt><trkpt lat="38.637175" lon="16.3302217"><ele>749.0</ele><time>2026-04-07T10:04:13.791Z</time></trkpt><trkpt lat="38.6372083" lon="16.33041"><ele>749.0</ele><time>2026-04-07T10:04:14.791Z</time></trkpt><trkpt lat="38.63728" lon="16.3305817"><ele>744.0</ele><time>2026-04-07T10:04:15.791Z</time></trkpt><trkpt lat="38.6373783" lon="16.3307367"><ele>739.0</ele><time>2026-04-07T10:04:16.791Z</time></trkpt><trkpt lat="38.6375067" lon="16.3308683"><ele>734.0</ele><time>2026-04-07T10:04:17.791Z</time></trkpt><trkpt lat="38.63763" lon="16.331005"><ele>734.0</ele><time>2026-04-07T10:04:18.792Z</time></trkpt><trkpt lat="38.6377333" lon="16.33117"><ele>734.0</ele><time>2026-04-07T10:04:19.791Z</time></trkpt><trkpt lat="38.6378067" lon="16.3313617"><ele>734.0</ele><time>2026-04-07T10:04:20.791Z</time></trkpt><trkpt lat="38.6378583" lon="16.3315583"><ele>738.3333333333333</ele><time>2026-04-07T10:04:21.791Z</time></trkpt><trkpt lat="38.6378767" lon="16.3317883"><ele>742.6666666666666</ele><time>2026-04-07T10:04:22.791Z</time></trkpt><trkpt lat="38.63788" lon="16.3320083"><ele>747.0</ele><time>2026-04-07T10:04:23.791Z</time></trkpt><trkpt lat="38.6378833" lon="16.3322167"><ele>745.0</ele><time>2026-04-07T10:04:24.791Z</time></trkpt><trkpt lat="38.637905" lon="16.3324183"><ele>743.0</ele><time>2026-04-07T10:04:25.791Z</time></trkpt><trkpt lat="38.637955" lon="16.3325867"><ele>741.0</ele><time>2026-04-07T10:04:26.791Z</time></trkpt><trkpt lat="38.6380217" lon="16.3327183"><ele>739.0</ele><time>2026-04-07T10:04:27.791Z</time></trkpt><trkpt lat="38.6381033" lon="16.3328217"><ele>739.0</ele><time>2026-04-07T10:04:28.791Z</time></trkpt><trkpt lat="38.6381917" lon="16.3329183"><ele>739.0</ele><time>2026-04-07T10:04:29.791Z</time></trkpt><trkpt lat="38.6382867" lon="16.3330333"><ele>739.0</ele><time>2026-04-07T10:04:30.791Z</time></trkpt><trkpt lat="38.6383783" lon="16.33316"><ele>739.0</ele><time>2026-04-07T10:04:31.791Z</time></trkpt><trkpt lat="38.6384733" lon="16.3332933"><ele>735.75</ele><time>2026-04-07T10:04:32.792Z</time></trkpt><trkpt lat="38.638555" lon="16.3334217"><ele>732.5</ele><time>2026-04-07T10:04:33.791Z</time></trkpt><trkpt lat="38.6386183" lon="16.333555"><ele>729.25</ele><time>2026-04-07T10:04:34.791Z</time></trkpt><trkpt lat="38.6386417" lon="16.333705"><ele>726.0</ele><time>2026-04-07T10:04:35.792Z</time></trkpt><trkpt lat="38.6386133" lon="16.3338583"><ele>723.5</ele><time>2026-04-07T10:04:36.791Z</time></trkpt><trkpt lat="38.6385933" lon="16.3340217"><ele>721.0</ele><time>2026-04-07T10:04:37.792Z</time></trkpt><trkpt lat="38.6386017" lon="16.334185"><ele>718.5</ele><time>2026-04-07T10:04:38.791Z</time></trkpt><trkpt lat="38.6386517" lon="16.3343333"><ele>716.0</ele><time>2026-04-07T10:04:39.791Z</time></trkpt><trkpt lat="38.6387417" lon="16.334465"><ele>718.6666666666666</ele><time>2026-04-07T10:04:40.792Z</time></trkpt><trkpt lat="38.638855" lon="16.334585"><ele>721.3333333333334</ele><time>2026-04-07T10:04:41.791Z</time></trkpt><trkpt lat="38.6389917" lon="16.334695"><ele>724.0</ele><time>2026-04-07T10:04:42.791Z</time></trkpt><trkpt lat="38.63913" lon="16.3347967"><ele>724.0</ele><time>2026-04-07T10:04:43.791Z</time></trkpt><trkpt lat="38.639265" lon="16.33489"><ele>724.0</ele><time>2026-04-07T10:04:44.791Z</time></trkpt><trkpt lat="38.6393867" lon="16.3349883"><ele>724.0</ele><time>2026-04-07T10:04:45.791Z</time></trkpt><trkpt lat="38.6394817" lon="16.335095"><ele>724.0</ele><time>2026-04-07T10:04:46.791Z</time></trkpt><trkpt lat="38.6395433" lon="16.3352333"><ele>721.5</ele><time>2026-04-07T10:04:47.791Z</time></trkpt><trkpt lat="38.6395617" lon="16.3353883"><ele>719.0</ele><time>2026-04-07T10:04:48.791Z</time></trkpt><trkpt lat="38.6395283" lon="16.3355467"><ele>716.5</ele><time>2026-04-07T10:04:49.791Z</time></trkpt><trkpt lat="38.6394683" lon="16.3357"><ele>714.0</ele><time>2026-04-07T10:04:50.791Z</time></trkpt><trkpt lat="38.639405" lon="16.3358633"><ele>714.0</ele><time>2026-04-07T10:04:51.791Z</time></trkpt><trkpt lat="38.6393633" lon="16.3360217"><ele>714.0</ele><time>2026-04-07T10:04:52.791Z</time></trkpt><trkpt lat="38.639355" lon="16.3361767"><ele>714.0</ele><time>2026-04-07T10:04:53.792Z</time></trkpt><trkpt lat="38.6393683" lon="16.33635"><ele>714.0</ele><time>2026-04-07T10:04:54.791Z</time></trkpt><trkpt lat="38.6394167" lon="16.3365233"><ele>716.75</ele><time>2026-04-07T10:04:55.792Z</time></trkpt><trkpt lat="38.6394683" lon="16.3366717"><ele>719.5</ele><time>2026-04-07T10:04:56.791Z</time></trkpt><trkpt lat="38.639545" lon="16.336785"><ele>722.25</ele><time>2026-04-07T10:04:57.791Z</time></trkpt><trkpt lat="38.6396333" lon="16.3368717"><ele>725.0</ele><time>2026-04-07T10:04:58.791Z</time></trkpt><trkpt lat="38.6397467" lon="16.3368967"><ele>725.0</ele><time>2026-04-07T10:04:59.791Z</time></trkpt><trkpt lat="38.6398667" lon="16.33688"><ele>725.0</ele><time>2026-04-07T10:05:00.792Z</time></trkpt><trkpt lat="38.6399967" lon="16.3368317"><ele>725.0</ele><time>2026-04-07T10:05:01.791Z</time></trkpt><trkpt lat="38.6401033" lon="16.3367717"><ele>725.0</ele><time>2026-04-07T10:05:02.791Z</time></trkpt><trkpt lat="38.6402067" lon="16.3367317"><ele>727.8</ele><time>2026-04-07T10:05:03.791Z</time></trkpt><trkpt lat="38.6403017" lon="16.3367317"><ele>730.6</ele><time>2026-04-07T10:05:04.791Z</time></trkpt><trkpt lat="38.640375" lon="16.3367817"><ele>733.4000000000001</ele><time>2026-04-07T10:05:05.791Z</time></trkpt><trkpt lat="38.640415" lon="16.336885"><ele>736.2</ele><time>2026-04-07T10:05:06.791Z</time></trkpt><trkpt lat="38.6404317" lon="16.3370217"><ele>739.0</ele><time>2026-04-07T10:05:07.792Z</time></trkpt><trkpt lat="38.6404233" lon="16.3371917"><ele>736.25</ele><time>2026-04-07T10:05:08.792Z</time></trkpt><trkpt lat="38.6404217" lon="16.3373733"><ele>733.5</ele><time>2026-04-07T10:05:09.791Z</time></trkpt><trkpt lat="38.6404417" lon="16.3375367"><ele>730.75</ele><time>2026-04-07T10:05:10.791Z</time></trkpt><trkpt lat="38.6404767" lon="16.3376817"><ele>728.0</ele><time>2026-04-07T10:05:11.791Z</time></trkpt><trkpt lat="38.6404717" lon="16.33782"><ele>728.0</ele><time>2026-04-07T10:05:12.791Z</time></trkpt><trkpt lat="38.6404217" lon="16.3379367"><ele>728.0</ele><time>2026-04-07T10:05:13.791Z</time></trkpt><trkpt lat="38.6403667" lon="16.3380633"><ele>728.0</ele><time>2026-04-07T10:05:14.791Z</time></trkpt><trkpt lat="38.6403483" lon="16.3382083"><ele>728.0</ele><time>2026-04-07T10:05:15.791Z</time></trkpt><trkpt lat="38.6403767" lon="16.338355"><ele>726.75</ele><time>2026-04-07T10:05:16.791Z</time></trkpt><trkpt lat="38.640445" lon="16.338485"><ele>725.5</ele><time>2026-04-07T10:05:17.791Z</time></trkpt><trkpt lat="38.6405183" lon="16.3386083"><ele>724.25</ele><time>2026-04-07T10:05:18.791Z</time></trkpt><trkpt lat="38.6405617" lon="16.338755"><ele>723.0</ele><time>2026-04-07T10:05:19.792Z</time></trkpt><trkpt lat="38.6405733" lon="16.3389183"><ele>720.6666666666666</ele><time>2026-04-07T10:05:20.792Z</time></trkpt><trkpt lat="38.6405917" lon="16.3391083"><ele>718.3333333333333</ele><time>2026-04-07T10:05:21.791Z</time></trkpt><trkpt lat="38.6406367" lon="16.33932"><ele>716.0</ele><time>2026-04-07T10:05:22.791Z</time></trkpt><trkpt lat="38.6407267" lon="16.33953"><ele>713.6666666666666</ele><time>2026-04-07T10:05:23.791Z</time></trkpt><trkpt lat="38.6408283" lon="16.3397183"><ele>711.3333333333334</ele><time>2026-04-07T10:05:24.791Z</time></trkpt><trkpt lat="38.6409267" lon="16.3398867"><ele>709.0</ele><time>2026-04-07T10:05:25.792Z</time></trkpt><trkpt lat="38.6410033" lon="16.3400583"><ele>709.0</ele><time>2026-04-07T10:05:26.791Z</time></trkpt><trkpt lat="38.6410583" lon="16.3402217"><ele>709.0</ele><time>2026-04-07T10:05:27.792Z</time></trkpt><trkpt lat="38.641105" lon="16.34035"><ele>709.0</ele><time>2026-04-07T10:05:28.792Z</time></trkpt><trkpt lat="38.6411683" lon="16.34045"><ele>709.0</ele><time>2026-04-07T10:05:29.791Z</time></trkpt><trkpt lat="38.6412583" lon="16.340515"><ele>710.2</ele><time>2026-04-07T10:05:30.791Z</time></trkpt><trkpt lat="38.6413633" lon="16.340515"><ele>711.4000000000001</ele><time>2026-04-07T10:05:31.791Z</time></trkpt><trkpt lat="38.6414583" lon="16.3405"><ele>712.6</ele><time>2026-04-07T10:05:32.791Z</time></trkpt><trkpt lat="38.6415633" lon="16.3405083"><ele>713.8</ele><time>2026-04-07T10:05:33.792Z</time></trkpt><trkpt lat="38.641645" lon="16.3405533"><ele>715.0</ele><time>2026-04-07T10:05:34.791Z</time></trkpt><trkpt lat="38.6416917" lon="16.340635"><ele>715.0</ele><time>2026-04-07T10:05:35.792Z</time></trkpt><trkpt lat="38.6416933" lon="16.340725"><ele>715.0</ele><time>2026-04-07T10:05:36.791Z</time></trkpt><trkpt lat="38.6416667" lon="16.3408317"><ele>715.0</ele><time>2026-04-07T10:05:37.791Z</time></trkpt><trkpt lat="38.6415917" lon="16.3409533"><ele>715.0</ele><time>2026-04-07T10:05:38.791Z</time></trkpt><trkpt lat="38.6414817" lon="16.3410983"><ele>715.0</ele><time>2026-04-07T10:05:39.792Z</time></trkpt><trkpt lat="38.6413433" lon="16.3412617"><ele>715.5</ele><time>2026-04-07T10:05:40.792Z</time></trkpt><trkpt lat="38.6412283" lon="16.3414117"><ele>716.0</ele><time>2026-04-07T10:05:41.791Z</time></trkpt><trkpt lat="38.6411467" lon="16.341535"><ele>716.5</ele><time>2026-04-07T10:05:42.791Z</time></trkpt><trkpt lat="38.6410633" lon="16.3416183"><ele>717.0</ele><time>2026-04-07T10:05:43.791Z</time></trkpt><trkpt lat="38.6409817" lon="16.3416517"><ele>718.0</ele><time>2026-04-07T10:05:44.791Z</time></trkpt><trkpt lat="38.64089" lon="16.3416433"><ele>719.0</ele><time>2026-04-07T10:05:45.791Z</time></trkpt><trkpt lat="38.6407833" lon="16.341595"><ele>720.0</ele><time>2026-04-07T10:05:46.791Z</time></trkpt><trkpt lat="38.64066" lon="16.3415"><ele>721.0</ele><time>2026-04-07T10:05:47.791Z</time></trkpt><trkpt lat="38.6405317" lon="16.341395"><ele>718.3333333333334</ele><time>2026-04-07T10:05:48.791Z</time></trkpt><trkpt lat="38.64039" lon="16.3412867"><ele>715.6666666666666</ele><time>2026-04-07T10:05:49.791Z</time></trkpt><trkpt lat="38.64024" lon="16.341165"><ele>713.0</ele><time>2026-04-07T10:05:50.791Z</time></trkpt><trkpt lat="38.6400967" lon="16.3410367"><ele>713.0</ele><time>2026-04-07T10:05:51.792Z</time></trkpt><trkpt lat="38.63998" lon="16.3409033"><ele>713.0</ele><time>2026-04-07T10:05:52.792Z</time></trkpt><trkpt lat="38.63987" lon="16.34078"><ele>713.0</ele><time>2026-04-07T10:05:53.791Z</time></trkpt><trkpt lat="38.639745" lon="16.3407017"><ele>713.0</ele><time>2026-04-07T10:05:54.791Z</time></trkpt><trkpt lat="38.639605" lon="16.340635"><ele>714.5</ele><time>2026-04-07T10:05:55.791Z</time></trkpt><trkpt lat="38.6394617" lon="16.340585"><ele>716.0</ele><time>2026-04-07T10:05:56.792Z</time></trkpt><trkpt lat="38.6393233" lon="16.340505"><ele>717.5</ele><time>2026-04-07T10:05:57.791Z</time></trkpt><trkpt lat="38.6391967" lon="16.3404083"><ele>719.0</ele><time>2026-04-07T10:05:58.791Z</time></trkpt><trkpt lat="38.63908" lon="16.3403"><ele>715.2</ele><time>2026-04-07T10:05:59.791Z</time></trkpt><trkpt lat="38.63898" lon="16.3402133"><ele>711.4000000000001</ele><time>2026-04-07T10:06:00.791Z</time></trkpt><trkpt lat="38.6388933" lon="16.3401717"><ele>707.6</ele><time>2026-04-07T10:06:01.791Z</time></trkpt><trkpt lat="38.63881" lon="16.3401833"><ele>703.8</ele><time>2026-04-07T10:06:02.791Z</time></trkpt><trkpt lat="38.6387267" lon="16.3402567"><ele>700.0</ele><time>2026-04-07T10:06:03.791Z</time></trkpt><trkpt lat="38.6386517" lon="16.3403733"><ele>700.0</ele><time>2026-04-07T10:06:04.791Z</time></trkpt><trkpt lat="38.63859" lon="16.3405233"><ele>700.0</ele><time>2026-04-07T10:06:05.792Z</time></trkpt><trkpt lat="38.6385017" lon="16.34069"><ele>700.0</ele><time>2026-04-07T10:06:06.791Z</time></trkpt><trkpt lat="38.6383917" lon="16.3408467"><ele>703.0</ele><time>2026-04-07T10:06:07.792Z</time></trkpt><trkpt lat="38.6382683" lon="16.3409983"><ele>706.0</ele><time>2026-04-07T10:06:08.792Z</time></trkpt><trkpt lat="38.638135" lon="16.341145"><ele>709.0</ele><time>2026-04-07T10:06:09.791Z</time></trkpt><trkpt lat="38.6380183" lon="16.3412967"><ele>711.3333333333334</ele><time>2026-04-07T10:06:10.791Z</time></trkpt><trkpt lat="38.63791" lon="16.341445"><ele>713.6666666666666</ele><time>2026-04-07T10:06:11.791Z</time></trkpt><trkpt lat="38.6378233" lon="16.3416133"><ele>716.0</ele><time>2026-04-07T10:06:12.791Z</time></trkpt><trkpt lat="38.6377583" lon="16.3418"><ele>710.6666666666666</ele><time>2026-04-07T10:06:13.792Z</time></trkpt><trkpt lat="38.6377117" lon="16.3420033"><ele>705.3333333333334</ele><time>2026-04-07T10:06:14.791Z</time></trkpt><trkpt lat="38.6376833" lon="16.3422067"><ele>700.0</ele><time>2026-04-07T10:06:15.791Z</time></trkpt><trkpt lat="38.6376683" lon="16.3423883"><ele>700.0</ele><time>2026-04-07T10:06:16.791Z</time></trkpt><trkpt lat="38.6376933" lon="16.342535"><ele>700.0</ele><time>2026-04-07T10:06:17.792Z</time></trkpt><trkpt lat="38.6377483" lon="16.3426833"><ele>700.0</ele><time>2026-04-07T10:06:18.791Z</time></trkpt><trkpt lat="38.63784" lon="16.3428133"><ele>700.0</ele><time>2026-04-07T10:06:19.792Z</time></trkpt><trkpt lat="38.6379733" lon="16.3428983"><ele>704.6666666666667</ele><time>2026-04-07T10:06:20.791Z</time></trkpt><trkpt lat="38.63812" lon="16.3429517"><ele>709.3333333333334</ele><time>2026-04-07T10:06:21.792Z</time></trkpt><trkpt lat="38.6382783" lon="16.34297"><ele>714.0</ele><time>2026-04-07T10:06:22.792Z</time></trkpt><trkpt lat="38.63843" lon="16.3429767"><ele>714.0</ele><time>2026-04-07T10:06:23.791Z</time></trkpt><trkpt lat="38.6385733" lon="16.3430233"><ele>714.0</ele><time>2026-04-07T10:06:24.791Z</time></trkpt><trkpt lat="38.6386933" lon="16.343115"><ele>714.0</ele><time>2026-04-07T10:06:25.791Z</time></trkpt><trkpt lat="38.6387983" lon="16.3432367"><ele>714.0</ele><time>2026-04-07T10:06:26.791Z</time></trkpt><trkpt lat="38.6389267" lon="16.3433417"><ele>711.0</ele><time>2026-04-07T10:06:27.791Z</time></trkpt><trkpt lat="38.6390817" lon="16.343405"><ele>708.0</ele><time>2026-04-07T10:06:28.792Z</time></trkpt><trkpt lat="38.6392517" lon="16.34346"><ele>705.0</ele><time>2026-04-07T10:06:29.791Z</time></trkpt><trkpt lat="38.6394017" lon="16.3435517"><ele>703.6666666666666</ele><time>2026-04-07T10:06:30.791Z</time></trkpt><trkpt lat="38.639525" lon="16.3436917"><ele>702.3333333333333</ele><time>2026-04-07T10:06:31.791Z</time></trkpt><trkpt lat="38.6396483" lon="16.3438517"><ele>701.0</ele><time>2026-04-07T10:06:32.792Z</time></trkpt><trkpt lat="38.6397733" lon="16.3439833"><ele>701.0</ele><time>2026-04-07T10:06:33.791Z</time></trkpt><trkpt lat="38.6399267" lon="16.3440817"><ele>701.0</ele><time>2026-04-07T10:06:34.791Z</time></trkpt><trkpt lat="38.6400667" lon="16.3441483"><ele>701.0</ele><time>2026-04-07T10:06:35.791Z</time></trkpt><trkpt lat="38.6401783" lon="16.3442167"><ele>701.0</ele><time>2026-04-07T10:06:36.791Z</time></trkpt><trkpt lat="38.6402533" lon="16.3443017"><ele>701.0</ele><time>2026-04-07T10:06:37.791Z</time></trkpt><trkpt lat="38.6402983" lon="16.34441"><ele>701.0</ele><time>2026-04-07T10:06:38.791Z</time></trkpt><trkpt lat="38.6402867" lon="16.3445317"><ele>701.0</ele><time>2026-04-07T10:06:39.791Z</time></trkpt><trkpt lat="38.6402367" lon="16.344655"><ele>701.0</ele><time>2026-04-07T10:06:40.791Z</time></trkpt><trkpt lat="38.64015" lon="16.3447883"><ele>701.0</ele><time>2026-04-07T10:06:41.791Z</time></trkpt><trkpt lat="38.64006" lon="16.34496"><ele>701.3333333333333</ele><time>2026-04-07T10:06:42.792Z</time></trkpt><trkpt lat="38.6399817" lon="16.3451617"><ele>701.6666666666666</ele><time>2026-04-07T10:06:43.791Z</time></trkpt><trkpt lat="38.6399217" lon="16.3453683"><ele>702.0</ele><time>2026-04-07T10:06:44.792Z</time></trkpt><trkpt lat="38.63987" lon="16.34559"><ele>704.3333333333334</ele><time>2026-04-07T10:06:45.792Z</time></trkpt><trkpt lat="38.6398067" lon="16.3458133"><ele>706.6666666666667</ele><time>2026-04-07T10:06:46.791Z</time></trkpt><trkpt lat="38.63974" lon="16.3460333"><ele>709.0</ele><time>2026-04-07T10:06:47.792Z</time></trkpt><trkpt lat="38.63969" lon="16.346265"><ele>710.0</ele><time>2026-04-07T10:06:48.791Z</time></trkpt><trkpt lat="38.639655" lon="16.3464933"><ele>711.0</ele><time>2026-04-07T10:06:49.791Z</time></trkpt><trkpt lat="38.6396367" lon="16.34671"><ele>712.0</ele><time>2026-04-07T10:06:50.791Z</time></trkpt><trkpt lat="38.639635" lon="16.3469133"><ele>712.0</ele><time>2026-04-07T10:06:51.791Z</time></trkpt><trkpt lat="38.63966" lon="16.34709"><ele>712.0</ele><time>2026-04-07T10:06:52.791Z</time></trkpt><trkpt lat="38.6397183" lon="16.34725"><ele>712.0</ele><time>2026-04-07T10:06:53.792Z</time></trkpt><trkpt lat="38.63981" lon="16.3473817"><ele>712.0</ele><time>2026-04-07T10:06:54.791Z</time></trkpt><trkpt lat="38.639935" lon="16.3475017"><ele>710.25</ele><time>2026-04-07T10:06:55.791Z</time></trkpt><trkpt lat="38.640065" lon="16.3475983"><ele>708.5</ele><time>2026-04-07T10:06:56.791Z</time></trkpt><trkpt lat="38.6402067" lon="16.3476483"><ele>706.75</ele><time>2026-04-07T10:06:57.791Z</time></trkpt><trkpt lat="38.6403317" lon="16.3476683"><ele>705.0</ele><time>2026-04-07T10:06:58.791Z</time></trkpt><trkpt lat="38.6404483" lon="16.3476717"><ele>706.2</ele><time>2026-04-07T10:06:59.791Z</time></trkpt><trkpt lat="38.6405417" lon="16.34771"><ele>707.4</ele><time>2026-04-07T10:07:00.791Z</time></trkpt><trkpt lat="38.6406083" lon="16.3477683"><ele>708.5999999999999</ele><time>2026-04-07T10:07:01.791Z</time></trkpt><trkpt lat="38.6406383" lon="16.3478567"><ele>709.8</ele><time>2026-04-07T10:07:02.791Z</time></trkpt><trkpt lat="38.6406367" lon="16.34797"><ele>711.0</ele><time>2026-04-07T10:07:03.791Z</time></trkpt><trkpt lat="38.6406233" lon="16.3481083"><ele>711.0</ele><time>2026-04-07T10:07:04.791Z</time></trkpt><trkpt lat="38.6406017" lon="16.348275"><ele>711.0</ele><time>2026-04-07T10:07:05.791Z</time></trkpt><trkpt lat="38.6405833" lon="16.3484367"><ele>711.0</ele><time>2026-04-07T10:07:06.791Z</time></trkpt><trkpt lat="38.6405533" lon="16.34861"><ele>711.0</ele><time>2026-04-07T10:07:07.791Z</time></trkpt><trkpt lat="38.6405" lon="16.348775"><ele>713.0</ele><time>2026-04-07T10:07:08.791Z</time></trkpt><trkpt lat="38.64043" lon="16.3489133"><ele>715.0</ele><time>2026-04-07T10:07:09.791Z</time></trkpt><trkpt lat="38.64033" lon="16.3490317"><ele>717.0</ele><time>2026-04-07T10:07:10.791Z</time></trkpt><trkpt lat="38.640205" lon="16.349145"><ele>719.0</ele><time>2026-04-07T10:07:11.791Z</time></trkpt><trkpt lat="38.640075" lon="16.3492633"><ele>713.75</ele><time>2026-04-07T10:07:12.791Z</time></trkpt><trkpt lat="38.6399517" lon="16.3493483"><ele>708.5</ele><time>2026-04-07T10:07:13.792Z</time></trkpt><trkpt lat="38.6398467" lon="16.3494367"><ele>703.25</ele><time>2026-04-07T10:07:14.792Z</time></trkpt><trkpt lat="38.6397583" lon="16.34953"><ele>698.0</ele><time>2026-04-07T10:07:15.791Z</time></trkpt><trkpt lat="38.6396783" lon="16.3496417"><ele>700.75</ele><time>2026-04-07T10:07:16.791Z</time></trkpt><trkpt lat="38.6396067" lon="16.3497783"><ele>703.5</ele><time>2026-04-07T10:07:17.792Z</time></trkpt><trkpt lat="38.63955" lon="16.349925"><ele>706.25</ele><time>2026-04-07T10:07:18.792Z</time></trkpt><trkpt lat="38.6395133" lon="16.3500783"><ele>709.0</ele><time>2026-04-07T10:07:19.791Z</time></trkpt><trkpt lat="38.6395183" lon="16.350235"><ele>709.0</ele><time>2026-04-07T10:07:20.792Z</time></trkpt><trkpt lat="38.6395533" lon="16.3503783"><ele>709.0</ele><time>2026-04-07T10:07:21.792Z</time></trkpt><trkpt lat="38.6396117" lon="16.3505"><ele>709.0</ele><time>2026-04-07T10:07:22.791Z</time></trkpt><trkpt lat="38.6397033" lon="16.3505833"><ele>709.0</ele><time>2026-04-07T10:07:23.792Z</time></trkpt><trkpt lat="38.6398233" lon="16.350625"><ele>705.0</ele><time>2026-04-07T10:07:24.791Z</time></trkpt><trkpt lat="38.639965" lon="16.3506567"><ele>701.0</ele><time>2026-04-07T10:07:25.792Z</time></trkpt><trkpt lat="38.6401217" lon="16.35068"><ele>697.0</ele><time>2026-04-07T10:07:26.791Z</time></trkpt><trkpt lat="38.6402767" lon="16.3507133"><ele>699.3333333333334</ele><time>2026-04-07T10:07:27.792Z</time></trkpt><trkpt lat="38.6404333" lon="16.3507567"><ele>701.6666666666666</ele><time>2026-04-07T10:07:28.791Z</time></trkpt><trkpt lat="38.640585" lon="16.35081"><ele>704.0</ele><time>2026-04-07T10:07:29.791Z</time></trkpt><trkpt lat="38.6407383" lon="16.3508667"><ele>704.0</ele><time>2026-04-07T10:07:30.792Z</time></trkpt><trkpt lat="38.6408833" lon="16.350955"><ele>704.0</ele><time>2026-04-07T10:07:31.791Z</time></trkpt><trkpt lat="38.6410233" lon="16.3510433"><ele>704.0</ele><time>2026-04-07T10:07:32.791Z</time></trkpt><trkpt lat="38.6411667" lon="16.3511083"><ele>704.25</ele><time>2026-04-07T10:07:33.791Z</time></trkpt><trkpt lat="38.64131" lon="16.3511383"><ele>704.5</ele><time>2026-04-07T10:07:34.792Z</time></trkpt><trkpt lat="38.6414533" lon="16.351145"><ele>704.75</ele><time>2026-04-07T10:07:35.792Z</time></trkpt><trkpt lat="38.6415833" lon="16.3511517"><ele>705.0</ele><time>2026-04-07T10:07:36.791Z</time></trkpt><trkpt lat="38.64168" lon="16.3512067"><ele>705.0</ele><time>2026-04-07T10:07:37.791Z</time></trkpt><trkpt lat="38.6417383" lon="16.35131"><ele>705.0</ele><time>2026-04-07T10:07:38.792Z</time></trkpt><trkpt lat="38.6417467" lon="16.3514467"><ele>705.0</ele><time>2026-04-07T10:07:39.791Z</time></trkpt><trkpt lat="38.6417217" lon="16.3515983"><ele>705.0</ele><time>2026-04-07T10:07:40.791Z</time></trkpt><trkpt lat="38.6416883" lon="16.3517667"><ele>702.75</ele><time>2026-04-07T10:07:41.791Z</time></trkpt><trkpt lat="38.641635" lon="16.351955"><ele>700.5</ele><time>2026-04-07T10:07:42.792Z</time></trkpt><trkpt lat="38.6415983" lon="16.3521383"><ele>698.25</ele><time>2026-04-07T10:07:43.792Z</time></trkpt><trkpt lat="38.6415633" lon="16.3523133"><ele>696.0</ele><time>2026-04-07T10:07:44.791Z</time></trkpt><trkpt lat="38.6415567" lon="16.3524867"><ele>695.8</ele><time>2026-04-07T10:07:45.791Z</time></trkpt><trkpt lat="38.641565" lon="16.352635"><ele>695.5999999999999</ele><time>2026-04-07T10:07:46.791Z</time></trkpt><trkpt lat="38.6416017" lon="16.35277"><ele>695.4</ele><time>2026-04-07T10:07:47.791Z</time></trkpt><trkpt lat="38.6416683" lon="16.352875"><ele>695.2</ele><time>2026-04-07T10:07:48.791Z</time></trkpt><trkpt lat="38.6417533" lon="16.3529533"><ele>695.0</ele><time>2026-04-07T10:07:49.791Z</time></trkpt><trkpt lat="38.64186" lon="16.352985"><ele>694.5</ele><time>2026-04-07T10:07:50.791Z</time></trkpt><trkpt lat="38.6419883" lon="16.3529617"><ele>694.0</ele><time>2026-04-07T10:07:51.792Z</time></trkpt><trkpt lat="38.64212" lon="16.35291"><ele>693.5</ele><time>2026-04-07T10:07:52.791Z</time></trkpt><trkpt lat="38.6422617" lon="16.352825"><ele>693.0</ele><time>2026-04-07T10:07:53.791Z</time></trkpt><trkpt lat="38.6424033" lon="16.3527217"><ele>693.0</ele><time>2026-04-07T10:07:54.791Z</time></trkpt><trkpt lat="38.6425467" lon="16.3526467"><ele>693.0</ele><time>2026-04-07T10:07:55.791Z</time></trkpt><trkpt lat="38.6427" lon="16.3525917"><ele>693.0</ele><time>2026-04-07T10:07:56.792Z</time></trkpt><trkpt lat="38.6428567" lon="16.3525317"><ele>692.5</ele><time>2026-04-07T10:07:57.791Z</time></trkpt><trkpt lat="38.6430017" lon="16.352495"><ele>692.0</ele><time>2026-04-07T10:07:58.791Z</time></trkpt><trkpt lat="38.6431267" lon="16.35247"><ele>691.5</ele><time>2026-04-07T10:07:59.791Z</time></trkpt><trkpt lat="38.64323" lon="16.352485"><ele>691.0</ele><time>2026-04-07T10:08:00.792Z</time></trkpt><trkpt lat="38.6433117" lon="16.35255"><ele>691.0</ele><time>2026-04-07T10:08:01.791Z</time></trkpt><trkpt lat="38.6433683" lon="16.352665"><ele>691.0</ele><time>2026-04-07T10:08:02.791Z</time></trkpt><trkpt lat="38.6433983" lon="16.352795"><ele>691.0</ele><time>2026-04-07T10:08:03.791Z</time></trkpt><trkpt lat="38.6434467" lon="16.35294"><ele>691.0</ele><time>2026-04-07T10:08:04.792Z</time></trkpt><trkpt lat="38.6435283" lon="16.353085"><ele>688.3333333333334</ele><time>2026-04-07T10:08:05.791Z</time></trkpt><trkpt lat="38.6436383" lon="16.3532217"><ele>685.6666666666666</ele><time>2026-04-07T10:08:06.792Z</time></trkpt><trkpt lat="38.6437733" lon="16.3533483"><ele>683.0</ele><time>2026-04-07T10:08:07.792Z</time></trkpt><trkpt lat="38.6439117" lon="16.3534833"><ele>683.0</ele><time>2026-04-07T10:08:08.791Z</time></trkpt><trkpt lat="38.64406" lon="16.3536133"><ele>683.0</ele><time>2026-04-07T10:08:09.791Z</time></trkpt><trkpt lat="38.6441883" lon="16.3537467"><ele>683.0</ele><time>2026-04-07T10:08:10.791Z</time></trkpt><trkpt lat="38.6443217" lon="16.35388"><ele>684.6666666666666</ele><time>2026-04-07T10:08:11.791Z</time></trkpt><trkpt lat="38.6444417" lon="16.3540167"><ele>686.3333333333334</ele><time>2026-04-07T10:08:12.791Z</time></trkpt><trkpt lat="38.64456" lon="16.35416"><ele>688.0</ele><time>2026-04-07T10:08:13.791Z</time></trkpt><trkpt lat="38.6446783" lon="16.3543233"><ele>688.0</ele><time>2026-04-07T10:08:14.791Z</time></trkpt><trkpt lat="38.6447867" lon="16.3544833"><ele>688.0</ele><time>2026-04-07T10:08:15.791Z</time></trkpt><trkpt lat="38.64489" lon="16.3546633"><ele>688.0</ele><time>2026-04-07T10:08:16.791Z</time></trkpt><trkpt lat="38.6449733" lon="16.35486"><ele>685.6666666666667</ele><time>2026-04-07T10:08:17.791Z</time></trkpt><trkpt lat="38.64504" lon="16.3550783"><ele>683.3333333333334</ele><time>2026-04-07T10:08:18.791Z</time></trkpt><trkpt lat="38.6450917" lon="16.35531"><ele>681.0</ele><time>2026-04-07T10:08:19.792Z</time></trkpt><trkpt lat="38.64514" lon="16.35553"><ele>678.3333333333334</ele><time>2026-04-07T10:08:20.792Z</time></trkpt><trkpt lat="38.64518" lon="16.3557433"><ele>675.6666666666667</ele><time>2026-04-07T10:08:21.791Z</time></trkpt><trkpt lat="38.6452217" lon="16.35594"><ele>673.0</ele><time>2026-04-07T10:08:22.792Z</time></trkpt><trkpt lat="38.6452567" lon="16.3561167"><ele>675.25</ele><time>2026-04-07T10:08:23.792Z</time></trkpt><trkpt lat="38.6452967" lon="16.3562833"><ele>677.5</ele><time>2026-04-07T10:08:24.791Z</time></trkpt><trkpt lat="38.6453317" lon="16.35644"><ele>679.75</ele><time>2026-04-07T10:08:25.791Z</time></trkpt><trkpt lat="38.645385" lon="16.35659"><ele>682.0</ele><time>2026-04-07T10:08:26.791Z</time></trkpt><trkpt lat="38.6454633" lon="16.3567333"><ele>682.0</ele><time>2026-04-07T10:08:27.792Z</time></trkpt><trkpt lat="38.6455617" lon="16.3568717"><ele>682.0</ele><time>2026-04-07T10:08:28.792Z</time></trkpt><trkpt lat="38.6456767" lon="16.356995"><ele>682.0</ele><time>2026-04-07T10:08:29.791Z</time></trkpt><trkpt lat="38.6458133" lon="16.3571017"><ele>682.0</ele><time>2026-04-07T10:08:30.791Z</time></trkpt><trkpt lat="38.645975" lon="16.3571783"><ele>682.0</ele><time>2026-04-07T10:08:31.792Z</time></trkpt><trkpt lat="38.6461383" lon="16.35723"><ele>682.0</ele><time>2026-04-07T10:08:32.791Z</time></trkpt><trkpt lat="38.6462933" lon="16.357285"><ele>680.3333333333334</ele><time>2026-04-07T10:08:33.792Z</time></trkpt><trkpt lat="38.6464383" lon="16.3573683"><ele>678.6666666666666</ele><time>2026-04-07T10:08:34.792Z</time></trkpt><trkpt lat="38.6465517" lon="16.357495"><ele>677.0</ele><time>2026-04-07T10:08:35.791Z</time></trkpt><trkpt lat="38.6466633" lon="16.3576517"><ele>677.0</ele><time>2026-04-07T10:08:36.792Z</time></trkpt><trkpt lat="38.6467817" lon="16.357825"><ele>677.0</ele><time>2026-04-07T10:08:37.791Z</time></trkpt><trkpt lat="38.6468983" lon="16.3579983"><ele>677.0</ele><time>2026-04-07T10:08:38.792Z</time></trkpt><trkpt lat="38.6470033" lon="16.358155"><ele>678.0</ele><time>2026-04-07T10:08:39.791Z</time></trkpt><trkpt lat="38.6471067" lon="16.3582983"><ele>679.0</ele><time>2026-04-07T10:08:40.791Z</time></trkpt><trkpt lat="38.6471833" lon="16.3584233"><ele>680.0</ele><time>2026-04-07T10:08:41.791Z</time></trkpt><trkpt lat="38.6472583" lon="16.35853"><ele>681.0</ele><time>2026-04-07T10:08:42.791Z</time></trkpt><trkpt lat="38.6473367" lon="16.3586267"><ele>681.0</ele><time>2026-04-07T10:08:43.791Z</time></trkpt><trkpt lat="38.6473867" lon="16.3587183"><ele>681.0</ele><time>2026-04-07T10:08:44.792Z</time></trkpt><trkpt lat="38.6474233" lon="16.35882"><ele>681.0</ele><time>2026-04-07T10:08:45.793Z</time></trkpt><trkpt lat="38.6474433" lon="16.3589233"><ele>681.0</ele><time>2026-04-07T10:08:46.792Z</time></trkpt><trkpt lat="38.647455" lon="16.3590283"><ele>681.0</ele><time>2026-04-07T10:08:47.793Z</time></trkpt><trkpt lat="38.64747" lon="16.35912"><ele>681.0</ele><time>2026-04-07T10:08:48.792Z</time></trkpt><trkpt lat="38.6475333" lon="16.3592333"><ele>680.0</ele><time>2026-04-07T10:08:50.792Z</time></trkpt><trkpt lat="38.64764" lon="16.35927"><ele>679.0</ele><time>2026-04-07T10:08:52.792Z</time></trkpt><trkpt lat="38.647755" lon="16.359245"><ele>678.0</ele><time>2026-04-07T10:08:54.792Z</time></trkpt><trkpt lat="38.64785" lon="16.3592"><ele>677.0</ele><time>2026-04-07T10:08:56.792Z</time></trkpt><trkpt lat="38.64793" lon="16.3591617"><ele>676.0</ele><time>2026-04-07T10:08:58.793Z</time></trkpt><trkpt lat="38.6479767" lon="16.3591033"><ele>676.0</ele><time>2026-04-07T10:09:08.792Z</time></trkpt><trkpt lat="38.6479033" lon="16.3591383"><ele>676.0</ele><time>2026-04-07T10:09:10.792Z</time></trkpt><trkpt lat="38.647845" lon="16.35917"><ele>676.0</ele><time>2026-04-07T10:09:11.793Z</time></trkpt><trkpt lat="38.6477717" lon="16.3591983"><ele>676.0</ele><time>2026-04-07T10:09:12.792Z</time></trkpt><trkpt lat="38.6477033" lon="16.3592217"><ele>676.0</ele><time>2026-04-07T10:09:13.792Z</time></trkpt><trkpt lat="38.64763" lon="16.3592333"><ele>676.0</ele><time>2026-04-07T10:09:14.792Z</time></trkpt><trkpt lat="38.6475667" lon="16.3592133"><ele>676.0</ele><time>2026-04-07T10:09:15.793Z</time></trkpt><trkpt lat="38.6474817" lon="16.3590867"><ele>675.1999999999999</ele><time>2026-04-07T10:09:17.792Z</time></trkpt><trkpt lat="38.6474567" lon="16.3589833"><ele>674.4</ele><time>2026-04-07T10:09:18.793Z</time></trkpt><trkpt lat="38.647445" lon="16.35886"><ele>673.6</ele><time>2026-04-07T10:09:19.793Z</time></trkpt><trkpt lat="38.6474133" lon="16.3587483"><ele>672.8</ele><time>2026-04-07T10:09:20.792Z</time></trkpt><trkpt lat="38.6473667" lon="16.3586317"><ele>672.0</ele><time>2026-04-07T10:09:21.793Z</time></trkpt><trkpt lat="38.6473067" lon="16.3585333"><ele>674.25</ele><time>2026-04-07T10:09:22.792Z</time></trkpt><trkpt lat="38.6472367" lon="16.35843"><ele>676.5</ele><time>2026-04-07T10:09:23.793Z</time></trkpt><trkpt lat="38.6471583" lon="16.35831"><ele>678.75</ele><time>2026-04-07T10:09:24.792Z</time></trkpt><trkpt lat="38.6470783" lon="16.3581833"><ele>681.0</ele><time>2026-04-07T10:09:25.792Z</time></trkpt><trkpt lat="38.6469917" lon="16.358065"><ele>680.0</ele><time>2026-04-07T10:09:26.792Z</time></trkpt><trkpt lat="38.646905" lon="16.3579483"><ele>679.0</ele><time>2026-04-07T10:09:27.792Z</time></trkpt><trkpt lat="38.6468117" lon="16.357825"><ele>678.0</ele><time>2026-04-07T10:09:28.792Z</time></trkpt><trkpt lat="38.6467167" lon="16.3577017"><ele>677.0</ele><time>2026-04-07T10:09:29.792Z</time></trkpt><trkpt lat="38.64663" lon="16.35758"><ele>677.0</ele><time>2026-04-07T10:09:30.792Z</time></trkpt><trkpt lat="38.6465433" lon="16.35746"><ele>677.0</ele><time>2026-04-07T10:09:31.793Z</time></trkpt><trkpt lat="38.6464583" lon="16.3573583"><ele>677.0</ele><time>2026-04-07T10:09:32.792Z</time></trkpt><trkpt lat="38.6463667" lon="16.35728"><ele>677.0</ele><time>2026-04-07T10:09:33.792Z</time></trkpt><trkpt lat="38.6462733" lon="16.3572367"><ele>677.0</ele><time>2026-04-07T10:09:34.792Z</time></trkpt><trkpt lat="38.6461817" lon="16.3572033"><ele>677.0</ele><time>2026-04-07T10:09:35.792Z</time></trkpt><trkpt lat="38.6460983" lon="16.3571783"><ele>677.0</ele><time>2026-04-07T10:09:36.792Z</time></trkpt><trkpt lat="38.646025" lon="16.3571617"><ele>677.0</ele><time>2026-04-07T10:09:37.792Z</time></trkpt><trkpt lat="38.645945" lon="16.3571333"><ele>677.0</ele><time>2026-04-07T10:09:38.792Z</time></trkpt><trkpt lat="38.6458667" lon="16.3570917"><ele>677.0</ele><time>2026-04-07T10:09:39.792Z</time></trkpt><trkpt lat="38.645785" lon="16.3570433"><ele>677.8333333333333</ele><time>2026-04-07T10:09:40.792Z</time></trkpt><trkpt lat="38.6457117" lon="16.3569867"><ele>678.6666666666666</ele><time>2026-04-07T10:09:41.792Z</time></trkpt><trkpt lat="38.6456383" lon="16.356915"><ele>679.5</ele><time>2026-04-07T10:09:42.792Z</time></trkpt><trkpt lat="38.64557" lon="16.35684"><ele>680.3333333333334</ele><time>2026-04-07T10:09:43.792Z</time></trkpt><trkpt lat="38.6455133" lon="16.356775"><ele>681.1666666666667</ele><time>2026-04-07T10:09:44.792Z</time></trkpt><trkpt lat="38.64546" lon="16.3567067"><ele>682.0</ele><time>2026-04-07T10:09:45.792Z</time></trkpt><trkpt lat="38.6454133" lon="16.3566233"><ele>682.0</ele><time>2026-04-07T10:09:46.792Z</time></trkpt><trkpt lat="38.64537" lon="16.35653"><ele>682.0</ele><time>2026-04-07T10:09:47.792Z</time></trkpt><trkpt lat="38.6453417" lon="16.3564317"><ele>682.0</ele><time>2026-04-07T10:09:48.792Z</time></trkpt><trkpt lat="38.64532" lon="16.356335"><ele>682.0</ele><time>2026-04-07T10:09:49.792Z</time></trkpt><trkpt lat="38.6453067" lon="16.3562433"><ele>682.0</ele><time>2026-04-07T10:09:50.792Z</time></trkpt><trkpt lat="38.6452683" lon="16.3561217"><ele>682.0</ele><time>2026-04-07T10:09:52.793Z</time></trkpt><trkpt lat="38.6452017" lon="16.3561233"><ele>680.5</ele><time>2026-04-07T10:09:55.793Z</time></trkpt><trkpt lat="38.64517" lon="16.3563"><ele>679.0</ele><time>2026-04-07T10:09:58.792Z</time></trkpt><trkpt lat="38.645155" lon="16.3563783"><ele>677.5</ele><time>2026-04-07T10:09:59.792Z</time></trkpt><trkpt lat="38.6451367" lon="16.35647"><ele>676.0</ele><time>2026-04-07T10:10:00.792Z</time></trkpt><trkpt lat="38.6451183" lon="16.3565733"><ele>674.5</ele><time>2026-04-07T10:10:01.792Z</time></trkpt><trkpt lat="38.6450983" lon="16.356675"><ele>673.0</ele><time>2026-04-07T10:10:02.793Z</time></trkpt><trkpt lat="38.6450867" lon="16.3567783"><ele>672.1666666666667</ele><time>2026-04-07T10:10:03.793Z</time></trkpt><trkpt lat="38.64508" lon="16.3568767"><ele>671.3333333333334</ele><time>2026-04-07T10:10:04.792Z</time></trkpt><trkpt lat="38.6450767" lon="16.356965"><ele>670.5</ele><time>2026-04-07T10:10:05.792Z</time></trkpt><trkpt lat="38.6450917" lon="16.3570483"><ele>669.6666666666666</ele><time>2026-04-07T10:10:06.793Z</time></trkpt><trkpt lat="38.6451117" lon="16.35714"><ele>668.8333333333333</ele><time>2026-04-07T10:10:07.792Z</time></trkpt><trkpt lat="38.6451317" lon="16.3572467"><ele>668.0</ele><time>2026-04-07T10:10:08.792Z</time></trkpt><trkpt lat="38.6451533" lon="16.357365"><ele>667.8</ele><time>2026-04-07T10:10:09.792Z</time></trkpt><trkpt lat="38.6451917" lon="16.3574783"><ele>667.5999999999999</ele><time>2026-04-07T10:10:10.793Z</time></trkpt><trkpt lat="38.6452383" lon="16.357605"><ele>667.4000000000001</ele><time>2026-04-07T10:10:11.793Z</time></trkpt><trkpt lat="38.6452917" lon="16.35772"><ele>667.2</ele><time>2026-04-07T10:10:12.792Z</time></trkpt><trkpt lat="38.6453467" lon="16.35783"><ele>667.0</ele><time>2026-04-07T10:10:13.791Z</time></trkpt><trkpt lat="38.6454117" lon="16.3579383"><ele>664.8</ele><time>2026-04-07T10:10:14.791Z</time></trkpt><trkpt lat="38.6454783" lon="16.358045"><ele>662.6</ele><time>2026-04-07T10:10:15.792Z</time></trkpt><trkpt lat="38.6455333" lon="16.35816"><ele>660.4</ele><time>2026-04-07T10:10:16.791Z</time></trkpt><trkpt lat="38.6455733" lon="16.35827"><ele>658.1999999999999</ele><time>2026-04-07T10:10:17.792Z</time></trkpt><trkpt lat="38.64559" lon="16.3583883"><ele>656.0</ele><time>2026-04-07T10:10:18.791Z</time></trkpt><trkpt lat="38.6456" lon="16.3585017"><ele>656.0</ele><time>2026-04-07T10:10:19.791Z</time></trkpt><trkpt lat="38.64562" lon="16.3586167"><ele>656.0</ele><time>2026-04-07T10:10:20.791Z</time></trkpt><trkpt lat="38.64564" lon="16.3587367"><ele>656.0</ele><time>2026-04-07T10:10:21.791Z</time></trkpt><trkpt lat="38.64567" lon="16.35885"><ele>656.0</ele><time>2026-04-07T10:10:22.791Z</time></trkpt><trkpt lat="38.6457017" lon="16.3589583"><ele>656.0</ele><time>2026-04-07T10:10:23.791Z</time></trkpt><trkpt lat="38.64573" lon="16.3590733"><ele>654.4</ele><time>2026-04-07T10:10:24.791Z</time></trkpt><trkpt lat="38.64577" lon="16.3591833"><ele>652.8</ele><time>2026-04-07T10:10:25.791Z</time></trkpt><trkpt lat="38.6458133" lon="16.3593033"><ele>651.1999999999999</ele><time>2026-04-07T10:10:26.791Z</time></trkpt><trkpt lat="38.6458567" lon="16.359415"><ele>649.5999999999999</ele><time>2026-04-07T10:10:27.792Z</time></trkpt><trkpt lat="38.6459083" lon="16.3595317"><ele>648.0</ele><time>2026-04-07T10:10:28.791Z</time></trkpt><trkpt lat="38.645945" lon="16.3596483"><ele>646.0</ele><time>2026-04-07T10:10:29.791Z</time></trkpt><trkpt lat="38.6459833" lon="16.3597517"><ele>644.0</ele><time>2026-04-07T10:10:30.791Z</time></trkpt><trkpt lat="38.6460183" lon="16.35986"><ele>642.0</ele><time>2026-04-07T10:10:31.792Z</time></trkpt><trkpt lat="38.6460483" lon="16.359975"><ele>640.0</ele><time>2026-04-07T10:10:32.792Z</time></trkpt><trkpt lat="38.64608" lon="16.360075"><ele>638.0</ele><time>2026-04-07T10:10:33.791Z</time></trkpt><trkpt lat="38.6461067" lon="16.360185"><ele>638.0</ele><time>2026-04-07T10:10:34.792Z</time></trkpt><trkpt lat="38.646125" lon="16.3602917"><ele>638.0</ele><time>2026-04-07T10:10:35.791Z</time></trkpt><trkpt lat="38.6461367" lon="16.36039"><ele>638.0</ele><time>2026-04-07T10:10:36.791Z</time></trkpt><trkpt lat="38.6461367" lon="16.360515"><ele>638.0</ele><time>2026-04-07T10:10:37.792Z</time></trkpt><trkpt lat="38.6461217" lon="16.360655"><ele>638.0</ele><time>2026-04-07T10:10:38.791Z</time></trkpt><trkpt lat="38.6461067" lon="16.3607983"><ele>635.6</ele><time>2026-04-07T10:10:39.791Z</time></trkpt><trkpt lat="38.6460883" lon="16.3609317"><ele>633.1999999999999</ele><time>2026-04-07T10:10:40.792Z</time></trkpt><trkpt lat="38.6460833" lon="16.3610633"><ele>630.8</ele><time>2026-04-07T10:10:41.791Z</time></trkpt><trkpt lat="38.6460867" lon="16.3611817"><ele>628.4</ele><time>2026-04-07T10:10:42.791Z</time></trkpt><trkpt lat="38.6461067" lon="16.3612967"><ele>626.0</ele><time>2026-04-07T10:10:43.792Z</time></trkpt><trkpt lat="38.6461483" lon="16.36141"><ele>625.75</ele><time>2026-04-07T10:10:44.792Z</time></trkpt><trkpt lat="38.6462117" lon="16.3615267"><ele>625.5</ele><time>2026-04-07T10:10:45.791Z</time></trkpt><trkpt lat="38.646285" lon="16.3616383"><ele>625.25</ele><time>2026-04-07T10:10:46.791Z</time></trkpt><trkpt lat="38.6463717" lon="16.3617433"><ele>625.0</ele><time>2026-04-07T10:10:47.792Z</time></trkpt><trkpt lat="38.64644" lon="16.3618467"><ele>625.0</ele><time>2026-04-07T10:10:48.791Z</time></trkpt><trkpt lat="38.6465033" lon="16.3619667"><ele>625.0</ele><time>2026-04-07T10:10:49.791Z</time></trkpt><trkpt lat="38.64656" lon="16.3620933"><ele>625.0</ele><time>2026-04-07T10:10:50.792Z</time></trkpt><trkpt lat="38.64662" lon="16.3622183"><ele>625.0</ele><time>2026-04-07T10:10:51.791Z</time></trkpt><trkpt lat="38.6466833" lon="16.362355"><ele>624.75</ele><time>2026-04-07T10:10:52.791Z</time></trkpt><trkpt lat="38.6467517" lon="16.36249"><ele>624.5</ele><time>2026-04-07T10:10:53.791Z</time></trkpt><trkpt lat="38.646825" lon="16.3626283"><ele>624.25</ele><time>2026-04-07T10:10:54.791Z</time></trkpt><trkpt lat="38.6469033" lon="16.36276"><ele>624.0</ele><time>2026-04-07T10:10:55.792Z</time></trkpt><trkpt lat="38.64697" lon="16.3628917"><ele>624.0</ele><time>2026-04-07T10:10:56.792Z</time></trkpt><trkpt lat="38.6470333" lon="16.3630267"><ele>624.0</ele><time>2026-04-07T10:10:57.792Z</time></trkpt><trkpt lat="38.6471033" lon="16.3631483"><ele>624.0</ele><time>2026-04-07T10:10:58.791Z</time></trkpt><trkpt lat="38.64719" lon="16.3632583"><ele>624.0</ele><time>2026-04-07T10:10:59.793Z</time></trkpt><trkpt lat="38.6472867" lon="16.3633533"><ele>621.6</ele><time>2026-04-07T10:11:00.792Z</time></trkpt><trkpt lat="38.6473833" lon="16.3634417"><ele>619.2</ele><time>2026-04-07T10:11:01.792Z</time></trkpt><trkpt lat="38.647465" lon="16.363515"><ele>616.8000000000001</ele><time>2026-04-07T10:11:02.792Z</time></trkpt><trkpt lat="38.6475367" lon="16.3635883"><ele>614.4</ele><time>2026-04-07T10:11:03.792Z</time></trkpt><trkpt lat="38.6475983" lon="16.3636483"><ele>612.0</ele><time>2026-04-07T10:11:04.792Z</time></trkpt><trkpt lat="38.6476783" lon="16.3637333"><ele>612.0</ele><time>2026-04-07T10:11:06.793Z</time></trkpt><trkpt lat="38.6477367" lon="16.3637983"><ele>612.0</ele><time>2026-04-07T10:11:08.793Z</time></trkpt><trkpt lat="38.6477767" lon="16.3638833"><ele>612.0</ele><time>2026-04-07T10:11:10.792Z</time></trkpt><trkpt lat="38.6478017" lon="16.3640283"><ele>612.0</ele><time>2026-04-07T10:11:12.792Z</time></trkpt><trkpt lat="38.64781" lon="16.3641217"><ele>612.0</ele><time>2026-04-07T10:11:13.792Z</time></trkpt><trkpt lat="38.647825" lon="16.36422"><ele>612.0</ele><time>2026-04-07T10:11:14.792Z</time></trkpt><trkpt lat="38.6478483" lon="16.3643267"><ele>610.5</ele><time>2026-04-07T10:11:15.792Z</time></trkpt><trkpt lat="38.64788" lon="16.3644567"><ele>609.0</ele><time>2026-04-07T10:11:16.793Z</time></trkpt><trkpt lat="38.647915" lon="16.3645967"><ele>607.5</ele><time>2026-04-07T10:11:17.792Z</time></trkpt><trkpt lat="38.6479567" lon="16.3647367"><ele>606.0</ele><time>2026-04-07T10:11:18.792Z</time></trkpt><trkpt lat="38.6479933" lon="16.3648783"><ele>604.6</ele><time>2026-04-07T10:11:19.792Z</time></trkpt><trkpt lat="38.6480267" lon="16.3650167"><ele>603.2</ele><time>2026-04-07T10:11:20.792Z</time></trkpt><trkpt lat="38.64806" lon="16.365155"><ele>601.8</ele><time>2026-04-07T10:11:21.792Z</time></trkpt><trkpt lat="38.648095" lon="16.3652817"><ele>600.4</ele><time>2026-04-07T10:11:22.792Z</time></trkpt><trkpt lat="38.64813" lon="16.3654017"><ele>599.0</ele><time>2026-04-07T10:11:23.793Z</time></trkpt><trkpt lat="38.6481683" lon="16.3655183"><ele>598.8</ele><time>2026-04-07T10:11:24.793Z</time></trkpt><trkpt lat="38.6482183" lon="16.365635"><ele>598.5999999999999</ele><time>2026-04-07T10:11:25.792Z</time></trkpt><trkpt lat="38.648265" lon="16.3657483"><ele>598.4</ele><time>2026-04-07T10:11:26.793Z</time></trkpt><trkpt lat="38.6483217" lon="16.36586"><ele>598.1999999999999</ele><time>2026-04-07T10:11:27.792Z</time></trkpt><trkpt lat="38.648375" lon="16.3659633"><ele>598.0</ele><time>2026-04-07T10:11:28.792Z</time></trkpt><trkpt lat="38.6484183" lon="16.3660617"><ele>598.0</ele><time>2026-04-07T10:11:29.792Z</time></trkpt><trkpt lat="38.648445" lon="16.3661717"><ele>598.0</ele><time>2026-04-07T10:11:30.792Z</time></trkpt><trkpt lat="38.648465" lon="16.3662867"><ele>598.0</ele><time>2026-04-07T10:11:31.792Z</time></trkpt><trkpt lat="38.6484833" lon="16.366395"><ele>598.0</ele><time>2026-04-07T10:11:32.792Z</time></trkpt><trkpt lat="38.6485083" lon="16.3665083"><ele>598.0</ele><time>2026-04-07T10:11:33.792Z</time></trkpt><trkpt lat="38.64856" lon="16.366605"><ele>597.6666666666667</ele><time>2026-04-07T10:11:34.792Z</time></trkpt><trkpt lat="38.6486067" lon="16.366715"><ele>597.3333333333334</ele><time>2026-04-07T10:11:35.792Z</time></trkpt><trkpt lat="38.6486633" lon="16.3668033"><ele>597.0</ele><time>2026-04-07T10:11:36.792Z</time></trkpt><trkpt lat="38.6487167" lon="16.36688"><ele>596.6666666666666</ele><time>2026-04-07T10:11:37.792Z</time></trkpt><trkpt lat="38.6487633" lon="16.3669467"><ele>596.3333333333333</ele><time>2026-04-07T10:11:38.792Z</time></trkpt><trkpt lat="38.6488033" lon="16.3670117"><ele>596.0</ele><time>2026-04-07T10:11:39.793Z</time></trkpt><trkpt lat="38.648825" lon="16.3670883"><ele>594.2</ele><time>2026-04-07T10:11:40.792Z</time></trkpt><trkpt lat="38.648835" lon="16.3671767"><ele>592.4000000000001</ele><time>2026-04-07T10:11:41.793Z</time></trkpt><trkpt lat="38.648835" lon="16.367285"><ele>590.6</ele><time>2026-04-07T10:11:42.793Z</time></trkpt><trkpt lat="38.6488267" lon="16.367415"><ele>588.8000000000001</ele><time>2026-04-07T10:11:43.792Z</time></trkpt><trkpt lat="38.6488083" lon="16.3675633"><ele>587.0</ele><time>2026-04-07T10:11:44.792Z</time></trkpt><trkpt lat="38.648795" lon="16.3677033"><ele>585.6666666666666</ele><time>2026-04-07T10:11:45.792Z</time></trkpt><trkpt lat="38.648785" lon="16.3678217"><ele>584.3333333333333</ele><time>2026-04-07T10:11:46.793Z</time></trkpt><trkpt lat="38.6487833" lon="16.3679083"><ele>583.0</ele><time>2026-04-07T10:11:47.792Z</time></trkpt><trkpt lat="38.64878" lon="16.3680183"><ele>581.6666666666666</ele><time>2026-04-07T10:11:49.792Z</time></trkpt><trkpt lat="38.64881" lon="16.3681283"><ele>580.3333333333334</ele><time>2026-04-07T10:11:51.792Z</time></trkpt><trkpt lat="38.6488583" lon="16.3681917"><ele>579.0</ele><time>2026-04-07T10:11:52.792Z</time></trkpt><trkpt lat="38.6489217" lon="16.36826"><ele>578.3333333333334</ele><time>2026-04-07T10:11:53.792Z</time></trkpt><trkpt lat="38.64899" lon="16.3683367"><ele>577.6666666666666</ele><time>2026-04-07T10:11:54.792Z</time></trkpt><trkpt lat="38.6490517" lon="16.3684233"><ele>577.0</ele><time>2026-04-07T10:11:55.792Z</time></trkpt><trkpt lat="38.6491117" lon="16.368515"><ele>576.3333333333333</ele><time>2026-04-07T10:11:56.792Z</time></trkpt><trkpt lat="38.64917" lon="16.368605"><ele>575.6666666666666</ele><time>2026-04-07T10:11:57.793Z</time></trkpt><trkpt lat="38.64922" lon="16.3686833"><ele>575.0</ele><time>2026-04-07T10:11:58.792Z</time></trkpt><trkpt lat="38.6492917" lon="16.3687583"><ele>575.0</ele><time>2026-04-07T10:11:59.793Z</time></trkpt><trkpt lat="38.6493583" lon="16.3688083"><ele>575.0</ele><time>2026-04-07T10:12:00.792Z</time></trkpt><trkpt lat="38.64942" lon="16.3688517"><ele>575.0</ele><time>2026-04-07T10:12:01.792Z</time></trkpt><trkpt lat="38.6494867" lon="16.368895"><ele>575.0</ele><time>2026-04-07T10:12:02.792Z</time></trkpt><trkpt lat="38.64955" lon="16.368955"><ele>575.0</ele><time>2026-04-07T10:12:03.792Z</time></trkpt><trkpt lat="38.649605" lon="16.369025"><ele>575.0</ele><time>2026-04-07T10:12:04.792Z</time></trkpt><trkpt lat="38.649655" lon="16.369105"><ele>574.1666666666666</ele><time>2026-04-07T10:12:05.792Z</time></trkpt><trkpt lat="38.6496883" lon="16.3691833"><ele>573.3333333333333</ele><time>2026-04-07T10:12:06.792Z</time></trkpt><trkpt lat="38.6497333" lon="16.3693"><ele>572.5</ele><time>2026-04-07T10:12:08.793Z</time></trkpt><trkpt lat="38.6497683" lon="16.369415"><ele>571.6666666666666</ele><time>2026-04-07T10:12:10.792Z</time></trkpt><trkpt lat="38.64979" lon="16.3694917"><ele>570.8333333333334</ele><time>2026-04-07T10:12:11.793Z</time></trkpt><trkpt lat="38.6498183" lon="16.369575"><ele>570.0</ele><time>2026-04-07T10:12:12.792Z</time></trkpt><trkpt lat="38.6498483" lon="16.3696617"><ele>569.5</ele><time>2026-04-07T10:12:13.793Z</time></trkpt><trkpt lat="38.6498783" lon="16.369745"><ele>569.0</ele><time>2026-04-07T10:12:14.793Z</time></trkpt><trkpt lat="38.6498983" lon="16.36983"><ele>568.5</ele><time>2026-04-07T10:12:15.792Z</time></trkpt><trkpt lat="38.6499217" lon="16.36991"><ele>568.0</ele><time>2026-04-07T10:12:16.793Z</time></trkpt><trkpt lat="38.6499517" lon="16.37"><ele>567.5</ele><time>2026-04-07T10:12:17.792Z</time></trkpt><trkpt lat="38.6499883" lon="16.3700967"><ele>567.0</ele><time>2026-04-07T10:12:18.793Z</time></trkpt><trkpt lat="38.6500217" lon="16.37021"><ele>567.0</ele><time>2026-04-07T10:12:19.792Z</time></trkpt><trkpt lat="38.6500533" lon="16.3703133"><ele>567.0</ele><time>2026-04-07T10:12:20.793Z</time></trkpt><trkpt lat="38.6500783" lon="16.3704067"><ele>567.0</ele><time>2026-04-07T10:12:21.792Z</time></trkpt><trkpt lat="38.650115" lon="16.3705117"><ele>567.0</ele><time>2026-04-07T10:12:23.792Z</time></trkpt><trkpt lat="38.6501617" lon="16.37057"><ele>567.0</ele><time>2026-04-07T10:12:25.793Z</time></trkpt><trkpt lat="38.6502267" lon="16.3705983"><ele>567.0</ele><time>2026-04-07T10:12:27.792Z</time></trkpt><trkpt lat="38.650295" lon="16.370565"><ele>566.6666666666666</ele><time>2026-04-07T10:12:29.792Z</time></trkpt><trkpt lat="38.65037" lon="16.370515"><ele>566.3333333333334</ele><time>2026-04-07T10:12:32.792Z</time></trkpt><trkpt lat="38.6504333" lon="16.3705533"><ele>566.0</ele><time>2026-04-07T10:12:35.792Z</time></trkpt><trkpt lat="38.6503417" lon="16.370555"><ele>565.6666666666667</ele><time>2026-04-07T10:12:40.792Z</time></trkpt><trkpt lat="38.650265" lon="16.3705967"><ele>565.3333333333334</ele><time>2026-04-07T10:12:42.792Z</time></trkpt><trkpt lat="38.6502217" lon="16.3706617"><ele>565.0</ele><time>2026-04-07T10:12:44.792Z</time></trkpt><trkpt lat="38.6502317" lon="16.3707833"><ele>565.0</ele><time>2026-04-07T10:12:46.792Z</time></trkpt><trkpt lat="38.6502717" lon="16.370935"><ele>565.0</ele><time>2026-04-07T10:12:48.792Z</time></trkpt><trkpt lat="38.6503067" lon="16.37108"><ele>565.0</ele><time>2026-04-07T10:12:50.792Z</time></trkpt><trkpt lat="38.6503167" lon="16.37118"><ele>565.0</ele><time>2026-04-07T10:12:52.793Z</time></trkpt><trkpt lat="38.650325" lon="16.3712683"><ele>565.0</ele><time>2026-04-07T10:12:54.792Z</time></trkpt><trkpt lat="38.6503133" lon="16.3713717"><ele>565.0</ele><time>2026-04-07T10:12:58.792Z</time></trkpt><trkpt lat="38.650275" lon="16.3714467"><ele>565.0</ele><time>2026-04-07T10:13:00.793Z</time></trkpt><trkpt lat="38.6502383" lon="16.3715567"><ele>565.0</ele><time>2026-04-07T10:13:02.792Z</time></trkpt><trkpt lat="38.650205" lon="16.37168"><ele>565.0</ele><time>2026-04-07T10:13:04.792Z</time></trkpt><trkpt lat="38.6501817" lon="16.3718383"><ele>565.0</ele><time>2026-04-07T10:13:06.792Z</time></trkpt><trkpt lat="38.6501783" lon="16.37194"><ele>565.0</ele><time>2026-04-07T10:13:07.792Z</time></trkpt><trkpt lat="38.6501717" lon="16.3720517"><ele>565.0</ele><time>2026-04-07T10:13:08.792Z</time></trkpt><trkpt lat="38.6501733" lon="16.37217"><ele>565.0</ele><time>2026-04-07T10:13:09.793Z</time></trkpt><trkpt lat="38.6501767" lon="16.3722967"><ele>565.0</ele><time>2026-04-07T10:13:10.793Z</time></trkpt><trkpt lat="38.650175" lon="16.3724267"><ele>565.0</ele><time>2026-04-07T10:13:11.792Z</time></trkpt><trkpt lat="38.650165" lon="16.3725533"><ele>564.2</ele><time>2026-04-07T10:13:12.792Z</time></trkpt><trkpt lat="38.65015" lon="16.3726783"><ele>563.4</ele><time>2026-04-07T10:13:13.792Z</time></trkpt><trkpt lat="38.650125" lon="16.3728033"><ele>562.6</ele><time>2026-04-07T10:13:14.793Z</time></trkpt><trkpt lat="38.65009" lon="16.3729217"><ele>561.8</ele><time>2026-04-07T10:13:15.793Z</time></trkpt><trkpt lat="38.65005" lon="16.3730383"><ele>561.0</ele><time>2026-04-07T10:13:16.792Z</time></trkpt><trkpt lat="38.65" lon="16.3731417"><ele>560.6666666666666</ele><time>2026-04-07T10:13:17.792Z</time></trkpt><trkpt lat="38.6499583" lon="16.373255"><ele>560.3333333333334</ele><time>2026-04-07T10:13:18.792Z</time></trkpt><trkpt lat="38.6499267" lon="16.3733617"><ele>560.0</ele><time>2026-04-07T10:13:19.792Z</time></trkpt><trkpt lat="38.6498917" lon="16.373465"><ele>559.6666666666667</ele><time>2026-04-07T10:13:20.793Z</time></trkpt><trkpt lat="38.6498583" lon="16.3735633"><ele>559.3333333333334</ele><time>2026-04-07T10:13:21.792Z</time></trkpt><trkpt lat="38.6498333" lon="16.3736667"><ele>559.0</ele><time>2026-04-07T10:13:22.792Z</time></trkpt><trkpt lat="38.6498" lon="16.3737533"><ele>560.8333333333334</ele><time>2026-04-07T10:13:23.792Z</time></trkpt><trkpt lat="38.649765" lon="16.3738917"><ele>562.6666666666667</ele><time>2026-04-07T10:13:25.793Z</time></trkpt><trkpt lat="38.6497767" lon="16.373975"><ele>564.5</ele><time>2026-04-07T10:13:27.793Z</time></trkpt><trkpt lat="38.6498467" lon="16.3740317"><ele>566.3333333333334</ele><time>2026-04-07T10:13:30.792Z</time></trkpt><trkpt lat="38.6499333" lon="16.37401"><ele>568.1666666666666</ele><time>2026-04-07T10:13:32.792Z</time></trkpt><trkpt lat="38.6499933" lon="16.3739833"><ele>570.0</ele><time>2026-04-07T10:13:33.793Z</time></trkpt><trkpt lat="38.65006" lon="16.3739433"><ele>570.0</ele><time>2026-04-07T10:13:34.792Z</time></trkpt><trkpt lat="38.65014" lon="16.373895"><ele>570.0</ele><time>2026-04-07T10:13:35.792Z</time></trkpt><trkpt lat="38.6502267" lon="16.373845"><ele>570.0</ele><time>2026-04-07T10:13:36.792Z</time></trkpt><trkpt lat="38.6503217" lon="16.3737917"><ele>570.0</ele><time>2026-04-07T10:13:37.792Z</time></trkpt><trkpt lat="38.6504217" lon="16.3737417"><ele>570.0</ele><time>2026-04-07T10:13:38.793Z</time></trkpt><trkpt lat="38.65052" lon="16.3736883"><ele>569.6</ele><time>2026-04-07T10:13:39.793Z</time></trkpt><trkpt lat="38.65062" lon="16.373635"><ele>569.2</ele><time>2026-04-07T10:13:40.793Z</time></trkpt><trkpt lat="38.6507183" lon="16.3735867"><ele>568.8</ele><time>2026-04-07T10:13:41.793Z</time></trkpt><trkpt lat="38.6508017" lon="16.3735283"><ele>568.4</ele><time>2026-04-07T10:13:42.792Z</time></trkpt><trkpt lat="38.6508733" lon="16.37345"><ele>568.0</ele><time>2026-04-07T10:13:43.792Z</time></trkpt><trkpt lat="38.650935" lon="16.3733667"><ele>568.0</ele><time>2026-04-07T10:13:44.793Z</time></trkpt><trkpt lat="38.6509767" lon="16.3732817"><ele>568.0</ele><time>2026-04-07T10:13:45.792Z</time></trkpt><trkpt lat="38.6510217" lon="16.3731883"><ele>568.0</ele><time>2026-04-07T10:13:46.793Z</time></trkpt><trkpt lat="38.6510533" lon="16.373105"><ele>568.0</ele><time>2026-04-07T10:13:47.792Z</time></trkpt><trkpt lat="38.65109" lon="16.373"><ele>568.0</ele><time>2026-04-07T10:13:49.792Z</time></trkpt><trkpt lat="38.65118" lon="16.3729883"><ele>568.0</ele><time>2026-04-07T10:14:04.792Z</time></trkpt><trkpt lat="38.6512617" lon="16.3730433"><ele>571.0</ele><time>2026-04-07T10:14:06.792Z</time></trkpt><trkpt lat="38.6513333" lon="16.3731283"><ele>574.0</ele><time>2026-04-07T10:14:08.792Z</time></trkpt><trkpt lat="38.6513867" lon="16.37326"><ele>577.0</ele><time>2026-04-07T10:14:10.793Z</time></trkpt><trkpt lat="38.6514167" lon="16.3734133"><ele>580.0</ele><time>2026-04-07T10:14:12.792Z</time></trkpt><trkpt lat="38.6514383" lon="16.3735483"><ele>583.0</ele><time>2026-04-07T10:14:14.792Z</time></trkpt><trkpt lat="38.651445" lon="16.373685"><ele>583.0</ele><time>2026-04-07T10:14:16.792Z</time></trkpt><trkpt lat="38.651475" lon="16.3738367"><ele>583.0</ele><time>2026-04-07T10:14:18.792Z</time></trkpt><trkpt lat="38.65151" lon="16.37392"><ele>583.0</ele><time>2026-04-07T10:14:19.793Z</time></trkpt><trkpt lat="38.6515417" lon="16.3740117"><ele>583.0</ele><time>2026-04-07T10:14:20.793Z</time></trkpt><trkpt lat="38.651585" lon="16.3741083"><ele>583.0</ele><time>2026-04-07T10:14:21.792Z</time></trkpt><trkpt lat="38.6516367" lon="16.3742117"><ele>584.1666666666667</ele><time>2026-04-07T10:14:22.793Z</time></trkpt><trkpt lat="38.6516783" lon="16.3743067"><ele>585.3333333333334</ele><time>2026-04-07T10:14:23.792Z</time></trkpt><trkpt lat="38.6517183" lon="16.3743967"><ele>586.5</ele><time>2026-04-07T10:14:24.793Z</time></trkpt><trkpt lat="38.65176" lon="16.3744817"><ele>587.6666666666666</ele><time>2026-04-07T10:14:25.793Z</time></trkpt><trkpt lat="38.6517967" lon="16.3745633"><ele>588.8333333333333</ele><time>2026-04-07T10:14:26.792Z</time></trkpt><trkpt lat="38.6518617" lon="16.3746533"><ele>590.0</ele><time>2026-04-07T10:14:28.793Z</time></trkpt><trkpt lat="38.65195" lon="16.3746417"><ele>591.2</ele><time>2026-04-07T10:14:31.792Z</time></trkpt><trkpt lat="38.65205" lon="16.374535"><ele>592.4</ele><time>2026-04-07T10:14:33.792Z</time></trkpt><trkpt lat="38.6521033" lon="16.37446"><ele>593.6</ele><time>2026-04-07T10:14:34.793Z</time></trkpt><trkpt lat="38.652175" lon="16.374385"><ele>594.8</ele><time>2026-04-07T10:14:35.793Z</time></trkpt><trkpt lat="38.65224" lon="16.3742983"><ele>596.0</ele><time>2026-04-07T10:14:36.792Z</time></trkpt><trkpt lat="38.6523033" lon="16.3742133"><ele>596.0</ele><time>2026-04-07T10:14:37.792Z</time></trkpt><trkpt lat="38.6523733" lon="16.3741233"><ele>596.0</ele><time>2026-04-07T10:14:38.792Z</time></trkpt><trkpt lat="38.6524383" lon="16.3740333"><ele>596.0</ele><time>2026-04-07T10:14:39.792Z</time></trkpt><trkpt lat="38.6525017" lon="16.3739467"><ele>596.0</ele><time>2026-04-07T10:14:40.792Z</time></trkpt><trkpt lat="38.6525667" lon="16.3738583"><ele>596.0</ele><time>2026-04-07T10:14:41.793Z</time></trkpt><trkpt lat="38.6526383" lon="16.3737733"><ele>596.0</ele><time>2026-04-07T10:14:42.792Z</time></trkpt><trkpt lat="38.6527017" lon="16.3736933"><ele>596.0</ele><time>2026-04-07T10:14:43.792Z</time></trkpt><trkpt lat="38.6527567" lon="16.3736167"><ele>596.0</ele><time>2026-04-07T10:14:44.792Z</time></trkpt><trkpt lat="38.652805" lon="16.3735483"><ele>596.0</ele><time>2026-04-07T10:14:45.793Z</time></trkpt><trkpt lat="38.652855" lon="16.373485"><ele>596.0</ele><time>2026-04-07T10:14:46.792Z</time></trkpt><trkpt lat="38.652905" lon="16.3734067"><ele>596.0</ele><time>2026-04-07T10:14:47.792Z</time></trkpt><trkpt lat="38.6529583" lon="16.37331"><ele>596.0</ele><time>2026-04-07T10:14:48.792Z</time></trkpt><trkpt lat="38.65301" lon="16.3732017"><ele>596.0</ele><time>2026-04-07T10:14:49.792Z</time></trkpt><trkpt lat="38.6530633" lon="16.3730967"><ele>596.0</ele><time>2026-04-07T10:14:50.792Z</time></trkpt><trkpt lat="38.6531133" lon="16.373005"><ele>596.0</ele><time>2026-04-07T10:14:51.793Z</time></trkpt><trkpt lat="38.6531617" lon="16.3729217"><ele>596.0</ele><time>2026-04-07T10:14:52.793Z</time></trkpt><trkpt lat="38.65322" lon="16.3728283"><ele>596.4</ele><time>2026-04-07T10:14:54.792Z</time></trkpt><trkpt lat="38.65321" lon="16.37272"><ele>596.8</ele><time>2026-04-07T10:15:25.791Z</time></trkpt><trkpt lat="38.65315" lon="16.372665"><ele>597.1999999999999</ele><time>2026-04-07T10:15:27.791Z</time></trkpt><trkpt lat="38.6530267" lon="16.3725917"><ele>597.6</ele><time>2026-04-07T10:15:29.791Z</time></trkpt><trkpt lat="38.65294" lon="16.37256"><ele>598.0</ele><time>2026-04-07T10:15:30.791Z</time></trkpt><trkpt lat="38.6528467" lon="16.37252"><ele>597.1999999999999</ele><time>2026-04-07T10:15:31.792Z</time></trkpt><trkpt lat="38.6527683" lon="16.372465"><ele>596.4</ele><time>2026-04-07T10:15:32.791Z</time></trkpt><trkpt lat="38.6526983" lon="16.3724167"><ele>595.5999999999999</ele><time>2026-04-07T10:15:33.791Z</time></trkpt><trkpt lat="38.6526333" lon="16.3723767"><ele>594.8</ele><time>2026-04-07T10:15:34.791Z</time></trkpt><trkpt lat="38.65253" lon="16.3722883"><ele>594.0</ele><time>2026-04-07T10:15:36.791Z</time></trkpt><trkpt lat="38.6524333" lon="16.3721967"><ele>593.8</ele><time>2026-04-07T10:15:38.791Z</time></trkpt><trkpt lat="38.652355" lon="16.3721133"><ele>593.5999999999999</ele><time>2026-04-07T10:15:40.792Z</time></trkpt><trkpt lat="38.6522983" lon="16.3720217"><ele>593.4</ele><time>2026-04-07T10:15:42.791Z</time></trkpt><trkpt lat="38.6522783" lon="16.3719167"><ele>593.1999999999999</ele><time>2026-04-07T10:15:44.792Z</time></trkpt><trkpt lat="38.65228" lon="16.371785"><ele>593.0</ele><time>2026-04-07T10:15:46.791Z</time></trkpt><trkpt lat="38.652275" lon="16.3716733"><ele>593.0</ele><time>2026-04-07T10:15:48.791Z</time></trkpt><trkpt lat="38.6522167" lon="16.3716117"><ele>593.0</ele><time>2026-04-07T10:15:50.792Z</time></trkpt><trkpt lat="38.6521583" lon="16.37151"><ele>593.0</ele><time>2026-04-07T10:15:52.791Z</time></trkpt><trkpt lat="38.6521217" lon="16.37136"><ele>593.0</ele><time>2026-04-07T10:15:54.791Z</time></trkpt><trkpt lat="38.6520767" lon="16.37122"><ele>593.0</ele><time>2026-04-07T10:15:56.792Z</time></trkpt><trkpt lat="38.6520317" lon="16.3711067"><ele>592.1999999999999</ele><time>2026-04-07T10:15:58.791Z</time></trkpt><trkpt lat="38.6519817" lon="16.3710033"><ele>591.4</ele><time>2026-04-07T10:16:00.791Z</time></trkpt><trkpt lat="38.6518933" lon="16.3708917"><ele>590.5999999999999</ele><time>2026-04-07T10:16:02.791Z</time></trkpt><trkpt lat="38.65183" lon="16.3708367"><ele>589.8</ele><time>2026-04-07T10:16:03.791Z</time></trkpt><trkpt lat="38.6517783" lon="16.37078"><ele>589.0</ele><time>2026-04-07T10:16:04.791Z</time></trkpt><trkpt lat="38.6516917" lon="16.3707033"><ele>588.1666666666667</ele><time>2026-04-07T10:16:06.791Z</time></trkpt><trkpt lat="38.6516183" lon="16.3706833"><ele>587.3333333333334</ele><time>2026-04-07T10:16:08.791Z</time></trkpt><trkpt lat="38.651545" lon="16.3706867"><ele>586.5</ele><time>2026-04-07T10:16:10.792Z</time></trkpt><trkpt lat="38.6514583" lon="16.3707"><ele>585.6666666666666</ele><time>2026-04-07T10:16:12.791Z</time></trkpt><trkpt lat="38.6513833" lon="16.3707433"><ele>584.8333333333333</ele><time>2026-04-07T10:16:14.792Z</time></trkpt><trkpt lat="38.6513" lon="16.3708367"><ele>584.0</ele><time>2026-04-07T10:16:16.792Z</time></trkpt><trkpt lat="38.6512567" lon="16.3708967"><ele>584.0</ele><time>2026-04-07T10:16:17.791Z</time></trkpt><trkpt lat="38.6512183" lon="16.3710183"><ele>584.0</ele><time>2026-04-07T10:16:19.791Z</time></trkpt><trkpt lat="38.6511933" lon="16.3711417"><ele>584.0</ele><time>2026-04-07T10:16:21.792Z</time></trkpt><trkpt lat="38.6512133" lon="16.3712717"><ele>584.0</ele><time>2026-04-07T10:16:23.792Z</time></trkpt><trkpt lat="38.6512217" lon="16.3713817"><ele>584.0</ele><time>2026-04-07T10:16:26.791Z</time></trkpt><trkpt lat="38.65113" lon="16.371455"><ele>581.4</ele><time>2026-04-07T10:16:28.792Z</time></trkpt><trkpt lat="38.6510383" lon="16.3715533"><ele>578.8</ele><time>2026-04-07T10:16:30.791Z</time></trkpt><trkpt lat="38.6509633" lon="16.3716517"><ele>576.2</ele><time>2026-04-07T10:16:32.791Z</time></trkpt><trkpt lat="38.6508767" lon="16.3717333"><ele>573.6</ele><time>2026-04-07T10:16:34.791Z</time></trkpt><trkpt lat="38.650815" lon="16.3718083"><ele>571.0</ele><time>2026-04-07T10:16:37.791Z</time></trkpt><trkpt lat="38.6508417" lon="16.3719267"><ele>571.0</ele><time>2026-04-07T10:16:40.791Z</time></trkpt><trkpt lat="38.6508883" lon="16.372035"><ele>571.0</ele><time>2026-04-07T10:16:42.791Z</time></trkpt><trkpt lat="38.6509183" lon="16.3721617"><ele>571.0</ele><time>2026-04-07T10:16:44.791Z</time></trkpt><trkpt lat="38.650935" lon="16.3722417"><ele>571.0</ele><time>2026-04-07T10:16:45.791Z</time></trkpt><trkpt lat="38.6509517" lon="16.3723217"><ele>571.0</ele><time>2026-04-07T10:16:46.792Z</time></trkpt><trkpt lat="38.6509767" lon="16.3724367"><ele>571.0</ele><time>2026-04-07T10:16:48.791Z</time></trkpt><trkpt lat="38.650985" lon="16.3725667"><ele>570.4</ele><time>2026-04-07T10:16:50.791Z</time></trkpt><trkpt lat="38.6510183" lon="16.3727067"><ele>569.8</ele><time>2026-04-07T10:16:52.791Z</time></trkpt><trkpt lat="38.6510583" lon="16.372835"><ele>569.1999999999999</ele><time>2026-04-07T10:16:54.791Z</time></trkpt><trkpt lat="38.6510717" lon="16.3729367"><ele>568.6</ele><time>2026-04-07T10:16:56.791Z</time></trkpt><trkpt lat="38.6510517" lon="16.3730317"><ele>568.0</ele><time>2026-04-07T10:16:58.791Z</time></trkpt><trkpt lat="38.651005" lon="16.37313"><ele>568.0</ele><time>2026-04-07T10:17:00.792Z</time></trkpt><trkpt lat="38.6509433" lon="16.3732417"><ele>568.0</ele><time>2026-04-07T10:17:02.792Z</time></trkpt><trkpt lat="38.65087" lon="16.373375"><ele>568.0</ele><time>2026-04-07T10:17:04.791Z</time></trkpt><trkpt lat="38.65082" lon="16.3734317"><ele>568.0</ele><time>2026-04-07T10:17:05.791Z</time></trkpt><trkpt lat="38.6507533" lon="16.3734917"><ele>568.0</ele><time>2026-04-07T10:17:06.791Z</time></trkpt><trkpt lat="38.6506733" lon="16.373555"><ele>568.0</ele><time>2026-04-07T10:17:07.791Z</time></trkpt><trkpt lat="38.6505883" lon="16.373615"><ele>568.0</ele><time>2026-04-07T10:17:08.791Z</time></trkpt><trkpt lat="38.6504933" lon="16.3736733"><ele>568.0</ele><time>2026-04-07T10:17:09.791Z</time></trkpt><trkpt lat="38.6503983" lon="16.3737283"><ele>568.0</ele><time>2026-04-07T10:17:10.791Z</time></trkpt><trkpt lat="38.6503" lon="16.37378"><ele>568.0</ele><time>2026-04-07T10:17:11.791Z</time></trkpt><trkpt lat="38.6502083" lon="16.37382"><ele>568.3333333333334</ele><time>2026-04-07T10:17:12.792Z</time></trkpt><trkpt lat="38.6501333" lon="16.373865"><ele>568.6666666666667</ele><time>2026-04-07T10:17:13.791Z</time></trkpt><trkpt lat="38.650055" lon="16.3739067"><ele>569.0</ele><time>2026-04-07T10:17:14.791Z</time></trkpt><trkpt lat="38.6499833" lon="16.3739417"><ele>569.3333333333334</ele><time>2026-04-07T10:17:15.791Z</time></trkpt><trkpt lat="38.6499183" lon="16.373975"><ele>569.6666666666666</ele><time>2026-04-07T10:17:16.791Z</time></trkpt><trkpt lat="38.649805" lon="16.3740233"><ele>570.0</ele><time>2026-04-07T10:17:18.792Z</time></trkpt><trkpt lat="38.64973" lon="16.3740583"><ele>570.0</ele><time>2026-04-07T10:17:20.792Z</time></trkpt><trkpt lat="38.649725" lon="16.3739667"><ele>570.0</ele><time>2026-04-07T10:17:24.791Z</time></trkpt><trkpt lat="38.6497867" lon="16.373875"><ele>570.0</ele><time>2026-04-07T10:17:26.791Z</time></trkpt><trkpt lat="38.6498217" lon="16.3738033"><ele>570.0</ele><time>2026-04-07T10:17:27.791Z</time></trkpt><trkpt lat="38.6498533" lon="16.37371"><ele>570.0</ele><time>2026-04-07T10:17:28.792Z</time></trkpt><trkpt lat="38.64989" lon="16.3736017"><ele>570.0</ele><time>2026-04-07T10:17:29.792Z</time></trkpt><trkpt lat="38.64993" lon="16.3734883"><ele>568.2</ele><time>2026-04-07T10:17:30.792Z</time></trkpt><trkpt lat="38.6499717" lon="16.3733633"><ele>566.4</ele><time>2026-04-07T10:17:31.791Z</time></trkpt><trkpt lat="38.650015" lon="16.3732383"><ele>564.6</ele><time>2026-04-07T10:17:32.792Z</time></trkpt><trkpt lat="38.6500533" lon="16.3731217"><ele>562.8</ele><time>2026-04-07T10:17:33.791Z</time></trkpt><trkpt lat="38.6500967" lon="16.3730017"><ele>561.0</ele><time>2026-04-07T10:17:34.792Z</time></trkpt><trkpt lat="38.65013" lon="16.3728767"><ele>561.0</ele><time>2026-04-07T10:17:35.791Z</time></trkpt><trkpt lat="38.6501517" lon="16.37275"><ele>561.0</ele><time>2026-04-07T10:17:36.792Z</time></trkpt><trkpt lat="38.6501633" lon="16.3726183"><ele>561.0</ele><time>2026-04-07T10:17:37.791Z</time></trkpt><trkpt lat="38.6501717" lon="16.3724917"><ele>561.0</ele><time>2026-04-07T10:17:38.792Z</time></trkpt><trkpt lat="38.6501767" lon="16.3723717"><ele>561.0</ele><time>2026-04-07T10:17:39.791Z</time></trkpt><trkpt lat="38.6501867" lon="16.3722533"><ele>561.8</ele><time>2026-04-07T10:17:40.791Z</time></trkpt><trkpt lat="38.65019" lon="16.3721333"><ele>562.6</ele><time>2026-04-07T10:17:41.791Z</time></trkpt><trkpt lat="38.6501983" lon="16.3720167"><ele>563.4</ele><time>2026-04-07T10:17:42.791Z</time></trkpt><trkpt lat="38.6502067" lon="16.3719017"><ele>564.2</ele><time>2026-04-07T10:17:43.791Z</time></trkpt><trkpt lat="38.6502183" lon="16.3717867"><ele>565.0</ele><time>2026-04-07T10:17:44.791Z</time></trkpt><trkpt lat="38.6502333" lon="16.3716767"><ele>565.0</ele><time>2026-04-07T10:17:45.791Z</time></trkpt><trkpt lat="38.65025" lon="16.3715817"><ele>565.0</ele><time>2026-04-07T10:17:46.791Z</time></trkpt><trkpt lat="38.6502667" lon="16.3715017"><ele>565.0</ele><time>2026-04-07T10:17:47.791Z</time></trkpt><trkpt lat="38.6503" lon="16.37138"><ele>565.0</ele><time>2026-04-07T10:17:49.792Z</time></trkpt><trkpt lat="38.650325" lon="16.371285"><ele>565.0</ele><time>2026-04-07T10:17:51.792Z</time></trkpt><trkpt lat="38.65034" lon="16.3711933"><ele>565.0</ele><time>2026-04-07T10:17:53.791Z</time></trkpt><trkpt lat="38.6503333" lon="16.3710567"><ele>565.0</ele><time>2026-04-07T10:17:55.792Z</time></trkpt><trkpt lat="38.6503133" lon="16.3709783"><ele>565.0</ele><time>2026-04-07T10:17:56.792Z</time></trkpt><trkpt lat="38.65029" lon="16.3708967"><ele>565.0</ele><time>2026-04-07T10:17:57.791Z</time></trkpt><trkpt lat="38.650265" lon="16.37082"><ele>565.0</ele><time>2026-04-07T10:17:58.792Z</time></trkpt><trkpt lat="38.6502367" lon="16.3706767"><ele>565.0</ele><time>2026-04-07T10:18:00.791Z</time></trkpt><trkpt lat="38.6502617" lon="16.37057"><ele>565.0</ele><time>2026-04-07T10:18:02.791Z</time></trkpt><trkpt lat="38.6503417" lon="16.3705133"><ele>566.0</ele><time>2026-04-07T10:18:04.792Z</time></trkpt><trkpt lat="38.6504783" lon="16.370505"><ele>567.0</ele><time>2026-04-07T10:18:06.791Z</time></trkpt><trkpt lat="38.6505583" lon="16.3705117"><ele>568.0</ele><time>2026-04-07T10:18:07.791Z</time></trkpt><trkpt lat="38.6506367" lon="16.370525"><ele>569.0</ele><time>2026-04-07T10:18:08.791Z</time></trkpt><trkpt lat="38.6507183" lon="16.3705433"><ele>570.0</ele><time>2026-04-07T10:18:09.792Z</time></trkpt><trkpt lat="38.6507883" lon="16.3705783"><ele>570.0</ele><time>2026-04-07T10:18:10.791Z</time></trkpt><trkpt lat="38.6508517" lon="16.3706017"><ele>570.0</ele><time>2026-04-07T10:18:11.792Z</time></trkpt><trkpt lat="38.6509417" lon="16.3706167"><ele>570.0</ele><time>2026-04-07T10:18:13.791Z</time></trkpt><trkpt lat="38.6508733" lon="16.370595"><ele>570.0</ele><time>2026-04-07T10:18:31.791Z</time></trkpt><trkpt lat="38.6507217" lon="16.3705467"><ele>570.0</ele><time>2026-04-07T10:18:33.791Z</time></trkpt><trkpt lat="38.650615" lon="16.370525"><ele>570.0</ele><time>2026-04-07T10:18:34.792Z</time></trkpt><trkpt lat="38.6505217" lon="16.370515"><ele>570.0</ele><time>2026-04-07T10:18:35.791Z</time></trkpt><trkpt lat="38.6504383" lon="16.3705217"><ele>570.0</ele><time>2026-04-07T10:18:36.791Z</time></trkpt><trkpt lat="38.6503617" lon="16.370525"><ele>570.0</ele><time>2026-04-07T10:18:37.791Z</time></trkpt><trkpt lat="38.65029" lon="16.3705483"><ele>570.0</ele><time>2026-04-07T10:18:38.791Z</time></trkpt><trkpt lat="38.6502067" lon="16.3706133"><ele>570.0</ele><time>2026-04-07T10:18:40.791Z</time></trkpt><trkpt lat="38.6501917" lon="16.3707117"><ele>570.0</ele><time>2026-04-07T10:18:42.792Z</time></trkpt><trkpt lat="38.6502233" lon="16.370875"><ele>570.0</ele><time>2026-04-07T10:18:44.791Z</time></trkpt><trkpt lat="38.65025" lon="16.3709683"><ele>570.0</ele><time>2026-04-07T10:18:45.791Z</time></trkpt><trkpt lat="38.6502817" lon="16.3710567"><ele>570.0</ele><time>2026-04-07T10:18:46.791Z</time></trkpt><trkpt lat="38.6503117" lon="16.3711867"><ele>570.0</ele><time>2026-04-07T10:18:48.791Z</time></trkpt><trkpt lat="38.6503667" lon="16.37132"><ele>570.1666666666666</ele><time>2026-04-07T10:18:51.791Z</time></trkpt><trkpt lat="38.650435" lon="16.371375"><ele>570.3333333333334</ele><time>2026-04-07T10:18:53.791Z</time></trkpt><trkpt lat="38.6505033" lon="16.3714267"><ele>570.5</ele><time>2026-04-07T10:18:55.791Z</time></trkpt><trkpt lat="38.6505383" lon="16.37151"><ele>570.6666666666667</ele><time>2026-04-07T10:18:57.791Z</time></trkpt><trkpt lat="38.6505617" lon="16.371615"><ele>570.8333333333334</ele><time>2026-04-07T10:18:59.792Z</time></trkpt><trkpt lat="38.65059" lon="16.3717233"><ele>571.0</ele><time>2026-04-07T10:19:01.791Z</time></trkpt><trkpt lat="38.65063" lon="16.371825"><ele>571.0</ele><time>2026-04-07T10:19:03.791Z</time></trkpt><trkpt lat="38.6506683" lon="16.371915"><ele>571.0</ele><time>2026-04-07T10:19:05.791Z</time></trkpt><trkpt lat="38.650705" lon="16.3719933"><ele>571.0</ele><time>2026-04-07T10:19:07.792Z</time></trkpt><trkpt lat="38.6507383" lon="16.3720983"><ele>571.0</ele><time>2026-04-07T10:19:09.791Z</time></trkpt><trkpt lat="38.65075" lon="16.3722033"><ele>571.0</ele><time>2026-04-07T10:19:11.791Z</time></trkpt><trkpt lat="38.6508567" lon="16.3721917"><ele>571.0</ele><time>2026-04-07T10:19:14.791Z</time></trkpt><trkpt lat="38.65092" lon="16.3721333"><ele>571.0</ele><time>2026-04-07T10:19:16.792Z</time></trkpt><trkpt lat="38.6509583" lon="16.3720683"><ele>571.0</ele><time>2026-04-07T10:19:19.791Z</time></trkpt><trkpt lat="38.6509367" lon="16.3719733"><ele>571.0</ele><time>2026-04-07T10:19:22.792Z</time></trkpt><trkpt lat="38.6509117" lon="16.371895"><ele>571.0</ele><time>2026-04-07T10:19:24.791Z</time></trkpt><trkpt lat="38.6509433" lon="16.3719833"><ele>571.0</ele><time>2026-04-07T10:19:31.792Z</time></trkpt><trkpt lat="38.6509617" lon="16.3720783"><ele>571.0</ele><time>2026-04-07T10:19:33.791Z</time></trkpt><trkpt lat="38.6509183" lon="16.37215"><ele>571.0</ele><time>2026-04-07T10:19:35.792Z</time></trkpt><trkpt lat="38.6508367" lon="16.372195"><ele>571.0</ele><time>2026-04-07T10:19:37.791Z</time></trkpt><trkpt lat="38.6507467" lon="16.3721767"><ele>571.0</ele><time>2026-04-07T10:19:40.791Z</time></trkpt><trkpt lat="38.65069" lon="16.3720317"><ele>571.0</ele><time>2026-04-07T10:19:42.791Z</time></trkpt><trkpt lat="38.6506633" lon="16.3719283"><ele>571.0</ele><time>2026-04-07T10:19:43.792Z</time></trkpt><trkpt lat="38.6506333" lon="16.3718217"><ele>571.0</ele><time>2026-04-07T10:19:44.792Z</time></trkpt><trkpt lat="38.6506133" lon="16.3717217"><ele>571.0</ele><time>2026-04-07T10:19:45.791Z</time></trkpt><trkpt lat="38.6505867" lon="16.371625"><ele>571.0</ele><time>2026-04-07T10:19:46.792Z</time></trkpt><trkpt lat="38.6505533" lon="16.3714867"><ele>571.0</ele><time>2026-04-07T10:19:48.792Z</time></trkpt><trkpt lat="38.65053" lon="16.3714033"><ele>571.0</ele><time>2026-04-07T10:19:50.791Z</time></trkpt><trkpt lat="38.6504417" lon="16.3713517"><ele>571.0</ele><time>2026-04-07T10:19:52.792Z</time></trkpt><trkpt lat="38.6503483" lon="16.371355"><ele>569.8</ele><time>2026-04-07T10:19:54.792Z</time></trkpt><trkpt lat="38.6502733" lon="16.3714633"><ele>568.6</ele><time>2026-04-07T10:19:56.791Z</time></trkpt><trkpt lat="38.6502467" lon="16.3715633"><ele>567.4</ele><time>2026-04-07T10:19:57.791Z</time></trkpt><trkpt lat="38.6502217" lon="16.3716917"><ele>566.2</ele><time>2026-04-07T10:19:58.792Z</time></trkpt><trkpt lat="38.650205" lon="16.3718367"><ele>565.0</ele><time>2026-04-07T10:19:59.791Z</time></trkpt><trkpt lat="38.6501867" lon="16.371975"><ele>565.0</ele><time>2026-04-07T10:20:00.791Z</time></trkpt><trkpt lat="38.65018" lon="16.3720983"><ele>565.0</ele><time>2026-04-07T10:20:01.791Z</time></trkpt><trkpt lat="38.6501783" lon="16.3722367"><ele>565.0</ele><time>2026-04-07T10:20:02.791Z</time></trkpt><trkpt lat="38.6501767" lon="16.372385"><ele>565.0</ele><time>2026-04-07T10:20:03.791Z</time></trkpt><trkpt lat="38.6501683" lon="16.37254"><ele>565.0</ele><time>2026-04-07T10:20:04.792Z</time></trkpt><trkpt lat="38.65015" lon="16.3727033"><ele>564.0</ele><time>2026-04-07T10:20:05.791Z</time></trkpt><trkpt lat="38.6501167" lon="16.3728617"><ele>563.0</ele><time>2026-04-07T10:20:06.791Z</time></trkpt><trkpt lat="38.6500717" lon="16.37301"><ele>562.0</ele><time>2026-04-07T10:20:07.791Z</time></trkpt><trkpt lat="38.65002" lon="16.3731533"><ele>561.0</ele><time>2026-04-07T10:20:08.792Z</time></trkpt><trkpt lat="38.6499617" lon="16.3733017"><ele>560.6</ele><time>2026-04-07T10:20:09.791Z</time></trkpt><trkpt lat="38.6499117" lon="16.373445"><ele>560.2</ele><time>2026-04-07T10:20:10.791Z</time></trkpt><trkpt lat="38.6498683" lon="16.37357"><ele>559.8</ele><time>2026-04-07T10:20:11.792Z</time></trkpt><trkpt lat="38.64984" lon="16.3736733"><ele>559.4</ele><time>2026-04-07T10:20:12.791Z</time></trkpt><trkpt lat="38.6498167" lon="16.3737567"><ele>559.0</ele><time>2026-04-07T10:20:13.791Z</time></trkpt><trkpt lat="38.6497783" lon="16.37389"><ele>559.0</ele><time>2026-04-07T10:20:15.791Z</time></trkpt><trkpt lat="38.649785" lon="16.374"><ele>559.0</ele><time>2026-04-07T10:20:17.791Z</time></trkpt><trkpt lat="38.6498417" lon="16.3740417"><ele>559.0</ele><time>2026-04-07T10:20:19.791Z</time></trkpt><trkpt lat="38.64987" lon="16.3739367"><ele>559.0</ele><time>2026-04-07T10:20:22.792Z</time></trkpt><trkpt lat="38.6498583" lon="16.3737833"><ele>559.0</ele><time>2026-04-07T10:20:24.791Z</time></trkpt><trkpt lat="38.649875" lon="16.373685"><ele>559.0</ele><time>2026-04-07T10:20:25.791Z</time></trkpt><trkpt lat="38.6499083" lon="16.37356"><ele>559.0</ele><time>2026-04-07T10:20:26.791Z</time></trkpt><trkpt lat="38.6499533" lon="16.37342"><ele>559.0</ele><time>2026-04-07T10:20:27.791Z</time></trkpt><trkpt lat="38.649995" lon="16.3732883"><ele>559.0</ele><time>2026-04-07T10:20:28.791Z</time></trkpt><trkpt lat="38.6500333" lon="16.37316"><ele>559.0</ele><time>2026-04-07T10:20:29.792Z</time></trkpt><trkpt lat="38.6500683" lon="16.373065"><ele>559.0</ele><time>2026-04-07T10:20:30.791Z</time></trkpt><trkpt lat="38.6500933" lon="16.3729867"><ele>559.4</ele><time>2026-04-07T10:20:31.792Z</time></trkpt><trkpt lat="38.6501333" lon="16.3728683"><ele>559.8</ele><time>2026-04-07T10:20:33.792Z</time></trkpt><trkpt lat="38.6501617" lon="16.3727617"><ele>560.2</ele><time>2026-04-07T10:20:35.791Z</time></trkpt><trkpt lat="38.65019" lon="16.3726067"><ele>560.6</ele><time>2026-04-07T10:20:37.791Z</time></trkpt><trkpt lat="38.6501917" lon="16.3725167"><ele>561.0</ele><time>2026-04-07T10:20:38.791Z</time></trkpt><trkpt lat="38.65019" lon="16.37241"><ele>561.0</ele><time>2026-04-07T10:20:39.791Z</time></trkpt><trkpt lat="38.6501867" lon="16.3722933"><ele>561.0</ele><time>2026-04-07T10:20:40.792Z</time></trkpt><trkpt lat="38.650185" lon="16.37218"><ele>561.0</ele><time>2026-04-07T10:20:41.791Z</time></trkpt><trkpt lat="38.6501933" lon="16.3720817"><ele>561.0</ele><time>2026-04-07T10:20:42.792Z</time></trkpt><trkpt lat="38.6501967" lon="16.3719867"><ele>561.0</ele><time>2026-04-07T10:20:43.792Z</time></trkpt><trkpt lat="38.650205" lon="16.3718833"><ele>561.0</ele><time>2026-04-07T10:20:44.791Z</time></trkpt><trkpt lat="38.6502183" lon="16.3717783"><ele>561.6666666666666</ele><time>2026-04-07T10:20:45.791Z</time></trkpt><trkpt lat="38.6502333" lon="16.3716733"><ele>562.3333333333334</ele><time>2026-04-07T10:20:46.791Z</time></trkpt><trkpt lat="38.6502517" lon="16.371575"><ele>563.0</ele><time>2026-04-07T10:20:47.792Z</time></trkpt><trkpt lat="38.650275" lon="16.37149"><ele>563.6666666666667</ele><time>2026-04-07T10:20:48.791Z</time></trkpt><trkpt lat="38.6503167" lon="16.3713667"><ele>564.3333333333334</ele><time>2026-04-07T10:20:50.791Z</time></trkpt><trkpt lat="38.650375" lon="16.3713217"><ele>565.0</ele><time>2026-04-07T10:20:53.791Z</time></trkpt><trkpt lat="38.65044" lon="16.37136"><ele>566.2</ele><time>2026-04-07T10:20:56.791Z</time></trkpt><trkpt lat="38.650495" lon="16.371435"><ele>567.4</ele><time>2026-04-07T10:20:58.792Z</time></trkpt><trkpt lat="38.650535" lon="16.37155"><ele>568.6</ele><time>2026-04-07T10:21:00.791Z</time></trkpt><trkpt lat="38.6505733" lon="16.3716817"><ele>569.8</ele><time>2026-04-07T10:21:02.791Z</time></trkpt><trkpt lat="38.65063" lon="16.3718183"><ele>571.0</ele><time>2026-04-07T10:21:04.791Z</time></trkpt><trkpt lat="38.6506817" lon="16.3719417"><ele>571.0</ele><time>2026-04-07T10:21:06.792Z</time></trkpt><trkpt lat="38.650735" lon="16.3720333"><ele>571.0</ele><time>2026-04-07T10:21:16.791Z</time></trkpt><trkpt lat="38.650785" lon="16.372135"><ele>571.0</ele><time>2026-04-07T10:21:18.792Z</time></trkpt><trkpt lat="38.650865" lon="16.3721367"><ele>571.0</ele><time>2026-04-07T10:21:20.791Z</time></trkpt><trkpt lat="38.650925" lon="16.3721867"><ele>571.0</ele><time>2026-04-07T10:21:22.791Z</time></trkpt><trkpt lat="38.650975" lon="16.3723133"><ele>571.0</ele><time>2026-04-07T10:21:24.791Z</time></trkpt><trkpt lat="38.6509767" lon="16.372465"><ele>570.5</ele><time>2026-04-07T10:21:26.791Z</time></trkpt><trkpt lat="38.650985" lon="16.37255"><ele>570.0</ele><time>2026-04-07T10:21:27.791Z</time></trkpt><trkpt lat="38.65101" lon="16.3726417"><ele>569.5</ele><time>2026-04-07T10:21:28.791Z</time></trkpt><trkpt lat="38.6510333" lon="16.3727367"><ele>569.0</ele><time>2026-04-07T10:21:29.791Z</time></trkpt><trkpt lat="38.651065" lon="16.372815"><ele>568.5</ele><time>2026-04-07T10:21:30.791Z</time></trkpt><trkpt lat="38.6510933" lon="16.3729383"><ele>568.0</ele><time>2026-04-07T10:21:32.791Z</time></trkpt><trkpt lat="38.6510533" lon="16.3730683"><ele>568.0</ele><time>2026-04-07T10:21:34.791Z</time></trkpt><trkpt lat="38.6510183" lon="16.3731383"><ele>568.0</ele><time>2026-04-07T10:21:35.791Z</time></trkpt><trkpt lat="38.650975" lon="16.3732183"><ele>568.0</ele><time>2026-04-07T10:21:36.791Z</time></trkpt><trkpt lat="38.6509317" lon="16.3733033"><ele>568.0</ele><time>2026-04-07T10:21:37.791Z</time></trkpt><trkpt lat="38.6508883" lon="16.373375"><ele>568.0</ele><time>2026-04-07T10:21:38.791Z</time></trkpt><trkpt lat="38.6508" lon="16.3734717"><ele>568.0</ele><time>2026-04-07T10:21:40.791Z</time></trkpt><trkpt lat="38.6506917" lon="16.3735533"><ele>568.0</ele><time>2026-04-07T10:21:42.792Z</time></trkpt><trkpt lat="38.6506133" lon="16.3736117"><ele>568.0</ele><time>2026-04-07T10:21:44.792Z</time></trkpt><trkpt lat="38.65071" lon="16.3736033"><ele>568.0</ele><time>2026-04-07T10:21:49.791Z</time></trkpt><trkpt lat="38.6507667" lon="16.3735667"><ele>568.0</ele><time>2026-04-07T10:21:50.791Z</time></trkpt><trkpt lat="38.6508317" lon="16.373505"><ele>568.0</ele><time>2026-04-07T10:21:51.791Z</time></trkpt><trkpt lat="38.6508967" lon="16.37342"><ele>568.0</ele><time>2026-04-07T10:21:52.791Z</time></trkpt><trkpt lat="38.650955" lon="16.3733183"><ele>568.0</ele><time>2026-04-07T10:21:53.791Z</time></trkpt><trkpt lat="38.65101" lon="16.3732083"><ele>568.0</ele><time>2026-04-07T10:21:54.791Z</time></trkpt><trkpt lat="38.651055" lon="16.373105"><ele>568.0</ele><time>2026-04-07T10:21:55.791Z</time></trkpt><trkpt lat="38.6510817" lon="16.3730167"><ele>568.0</ele><time>2026-04-07T10:21:56.791Z</time></trkpt><trkpt lat="38.65109" lon="16.372925"><ele>568.0</ele><time>2026-04-07T10:21:57.791Z</time></trkpt><trkpt lat="38.6510867" lon="16.372835"><ele>568.0</ele><time>2026-04-07T10:21:58.791Z</time></trkpt><trkpt lat="38.6510683" lon="16.372745"><ele>568.0</ele><time>2026-04-07T10:21:59.791Z</time></trkpt><trkpt lat="38.651045" lon="16.3726567"><ele>568.0</ele><time>2026-04-07T10:22:00.792Z</time></trkpt><trkpt lat="38.65102" lon="16.3725667"><ele>568.0</ele><time>2026-04-07T10:22:01.791Z</time></trkpt><trkpt lat="38.6509983" lon="16.3724133"><ele>568.0</ele><time>2026-04-07T10:22:03.791Z</time></trkpt><trkpt lat="38.6509667" lon="16.372275"><ele>568.0</ele><time>2026-04-07T10:22:05.791Z</time></trkpt><trkpt lat="38.6509667" lon="16.372125"><ele>568.5</ele><time>2026-04-07T10:22:07.791Z</time></trkpt><trkpt lat="38.6509583" lon="16.3720183"><ele>569.0</ele><time>2026-04-07T10:22:09.791Z</time></trkpt><trkpt lat="38.6509083" lon="16.3719333"><ele>569.5</ele><time>2026-04-07T10:22:11.792Z</time></trkpt><trkpt lat="38.6509167" lon="16.37183"><ele>570.0</ele><time>2026-04-07T10:22:13.792Z</time></trkpt><trkpt lat="38.6509833" lon="16.37173"><ele>570.5</ele><time>2026-04-07T10:22:15.791Z</time></trkpt><trkpt lat="38.6510317" lon="16.3716633"><ele>571.0</ele><time>2026-04-07T10:22:16.791Z</time></trkpt><trkpt lat="38.651085" lon="16.371605"><ele>573.0</ele><time>2026-04-07T10:22:17.791Z</time></trkpt><trkpt lat="38.6511317" lon="16.3715433"><ele>575.0</ele><time>2026-04-07T10:22:18.792Z</time></trkpt><trkpt lat="38.6511867" lon="16.371495"><ele>577.0</ele><time>2026-04-07T10:22:19.792Z</time></trkpt><trkpt lat="38.6512717" lon="16.37143"><ele>579.0</ele><time>2026-04-07T10:22:21.791Z</time></trkpt><trkpt lat="38.651275" lon="16.3713267"><ele>581.0</ele><time>2026-04-07T10:22:23.791Z</time></trkpt><trkpt lat="38.6512783" lon="16.3712033"><ele>583.0</ele><time>2026-04-07T10:22:25.792Z</time></trkpt><trkpt lat="38.6512833" lon="16.3710633"><ele>583.1999999999999</ele><time>2026-04-07T10:22:27.791Z</time></trkpt><trkpt lat="38.6513333" lon="16.3709333"><ele>583.4</ele><time>2026-04-07T10:22:29.791Z</time></trkpt><trkpt lat="38.651375" lon="16.3708717"><ele>583.5999999999999</ele><time>2026-04-07T10:22:30.791Z</time></trkpt><trkpt lat="38.6514583" lon="16.3707633"><ele>583.8</ele><time>2026-04-07T10:22:32.792Z</time></trkpt><trkpt lat="38.65154" lon="16.3707083"><ele>584.0</ele><time>2026-04-07T10:22:34.792Z</time></trkpt><trkpt lat="38.6516533" lon="16.370705"><ele>584.0</ele><time>2026-04-07T10:22:36.792Z</time></trkpt><trkpt lat="38.6517533" lon="16.3707583"><ele>584.0</ele><time>2026-04-07T10:22:38.791Z</time></trkpt><trkpt lat="38.6518383" lon="16.3708617"><ele>584.0</ele><time>2026-04-07T10:22:40.791Z</time></trkpt><trkpt lat="38.651925" lon="16.37097"><ele>584.0</ele><time>2026-04-07T10:22:42.791Z</time></trkpt><trkpt lat="38.651995" lon="16.37109"><ele>585.0</ele><time>2026-04-07T10:22:44.791Z</time></trkpt><trkpt lat="38.6520433" lon="16.37122"><ele>586.0</ele><time>2026-04-07T10:22:46.792Z</time></trkpt><trkpt lat="38.6520883" lon="16.37135"><ele>587.0</ele><time>2026-04-07T10:22:48.792Z</time></trkpt><trkpt lat="38.6521167" lon="16.3714833"><ele>588.0</ele><time>2026-04-07T10:22:50.792Z</time></trkpt><trkpt lat="38.6521633" lon="16.3715933"><ele>589.0</ele><time>2026-04-07T10:22:52.791Z</time></trkpt><trkpt lat="38.6522167" lon="16.3716967"><ele>589.8</ele><time>2026-04-07T10:22:54.791Z</time></trkpt><trkpt lat="38.652235" lon="16.3718333"><ele>590.5999999999999</ele><time>2026-04-07T10:22:56.791Z</time></trkpt><trkpt lat="38.65224" lon="16.3719733"><ele>591.4</ele><time>2026-04-07T10:22:58.791Z</time></trkpt><trkpt lat="38.65227" lon="16.372075"><ele>592.1999999999999</ele><time>2026-04-07T10:23:00.792Z</time></trkpt><trkpt lat="38.6523567" lon="16.37215"><ele>593.0</ele><time>2026-04-07T10:23:02.792Z</time></trkpt><trkpt lat="38.6524317" lon="16.372225"><ele>593.1999999999999</ele><time>2026-04-07T10:23:04.792Z</time></trkpt><trkpt lat="38.6525183" lon="16.3723133"><ele>593.4</ele><time>2026-04-07T10:23:06.791Z</time></trkpt><trkpt lat="38.6526183" lon="16.3724"><ele>593.5999999999999</ele><time>2026-04-07T10:23:08.791Z</time></trkpt><trkpt lat="38.6526783" lon="16.3724567"><ele>593.8</ele><time>2026-04-07T10:23:09.791Z</time></trkpt><trkpt lat="38.65275" lon="16.372515"><ele>594.0</ele><time>2026-04-07T10:23:10.791Z</time></trkpt><trkpt lat="38.6528133" lon="16.3725683"><ele>594.6666666666666</ele><time>2026-04-07T10:23:11.791Z</time></trkpt><trkpt lat="38.6528833" lon="16.3725983"><ele>595.3333333333334</ele><time>2026-04-07T10:23:12.791Z</time></trkpt><trkpt lat="38.6529483" lon="16.3726267"><ele>596.0</ele><time>2026-04-07T10:23:13.792Z</time></trkpt><trkpt lat="38.653055" lon="16.3726617"><ele>596.6666666666667</ele><time>2026-04-07T10:23:15.792Z</time></trkpt><trkpt lat="38.6531383" lon="16.3727067"><ele>597.3333333333334</ele><time>2026-04-07T10:23:17.791Z</time></trkpt><trkpt lat="38.6531983" lon="16.3727417"><ele>598.0</ele><time>2026-04-07T10:23:20.792Z</time></trkpt><trkpt lat="38.653265" lon="16.37273"><ele>598.0</ele><time>2026-04-07T10:23:23.791Z</time></trkpt><trkpt lat="38.6533533" lon="16.3726767"><ele>598.0</ele><time>2026-04-07T10:23:25.791Z</time></trkpt><trkpt lat="38.6534083" lon="16.3726367"><ele>598.0</ele><time>2026-04-07T10:23:26.791Z</time></trkpt><trkpt lat="38.653505" lon="16.37256"><ele>598.0</ele><time>2026-04-07T10:23:28.792Z</time></trkpt><trkpt lat="38.6535883" lon="16.3724933"><ele>598.0</ele><time>2026-04-07T10:23:30.791Z</time></trkpt><trkpt lat="38.6536517" lon="16.3724467"><ele>598.0</ele><time>2026-04-07T10:23:32.791Z</time></trkpt><trkpt lat="38.6537283" lon="16.3724033"><ele>598.0</ele><time>2026-04-07T10:23:35.792Z</time></trkpt><trkpt lat="38.6537867" lon="16.3723517"><ele>598.0</ele><time>2026-04-07T10:23:37.792Z</time></trkpt><trkpt lat="38.6538783" lon="16.3722833"><ele>598.0</ele><time>2026-04-07T10:23:39.791Z</time></trkpt><trkpt lat="38.6539317" lon="16.372235"><ele>598.0</ele><time>2026-04-07T10:23:40.791Z</time></trkpt><trkpt lat="38.653995" lon="16.372185"><ele>598.0</ele><time>2026-04-07T10:23:41.792Z</time></trkpt><trkpt lat="38.6540633" lon="16.3721283"><ele>598.0</ele><time>2026-04-07T10:23:42.791Z</time></trkpt><trkpt lat="38.6541267" lon="16.3720733"><ele>598.1666666666667</ele><time>2026-04-07T10:23:43.792Z</time></trkpt><trkpt lat="38.6541883" lon="16.37202"><ele>598.3333333333334</ele><time>2026-04-07T10:23:44.791Z</time></trkpt><trkpt lat="38.6542483" lon="16.37197"><ele>598.5</ele><time>2026-04-07T10:23:45.791Z</time></trkpt><trkpt lat="38.6543033" lon="16.3719267"><ele>598.6666666666666</ele><time>2026-04-07T10:23:46.791Z</time></trkpt><trkpt lat="38.6544" lon="16.3718633"><ele>598.8333333333333</ele><time>2026-04-07T10:23:48.791Z</time></trkpt><trkpt lat="38.654475" lon="16.3718"><ele>599.0</ele><time>2026-04-07T10:23:50.791Z</time></trkpt><trkpt lat="38.6545467" lon="16.3717117"><ele>598.6666666666666</ele><time>2026-04-07T10:23:52.791Z</time></trkpt><trkpt lat="38.6546117" lon="16.3716367"><ele>598.3333333333333</ele><time>2026-04-07T10:23:54.791Z</time></trkpt><trkpt lat="38.6546667" lon="16.3715767"><ele>598.0</ele><time>2026-04-07T10:23:56.791Z</time></trkpt><trkpt lat="38.6547183" lon="16.3715"><ele>597.6666666666666</ele><time>2026-04-07T10:23:59.792Z</time></trkpt><trkpt lat="38.6546683" lon="16.37155"><ele>597.3333333333334</ele><time>2026-04-07T10:24:06.791Z</time></trkpt><trkpt lat="38.6545917" lon="16.3716467"><ele>597.0</ele><time>2026-04-07T10:24:08.791Z</time></trkpt><trkpt lat="38.6545367" lon="16.371695"><ele>597.0</ele><time>2026-04-07T10:24:09.791Z</time></trkpt><trkpt lat="38.6544833" lon="16.37174"><ele>597.0</ele><time>2026-04-07T10:24:10.791Z</time></trkpt><trkpt lat="38.6544017" lon="16.371825"><ele>597.0</ele><time>2026-04-07T10:24:12.791Z</time></trkpt><trkpt lat="38.6543367" lon="16.3718633"><ele>597.0</ele><time>2026-04-07T10:24:14.792Z</time></trkpt><trkpt lat="38.6542783" lon="16.3718967"><ele>597.0</ele><time>2026-04-07T10:24:16.792Z</time></trkpt><trkpt lat="38.6543717" lon="16.3718783"><ele>597.0</ele><time>2026-04-07T10:25:19.791Z</time></trkpt><trkpt lat="38.6544717" lon="16.3717783"><ele>597.0</ele><time>2026-04-07T10:25:21.791Z</time></trkpt><trkpt lat="38.65453" lon="16.37172"><ele>597.0</ele><time>2026-04-07T10:25:22.792Z</time></trkpt><trkpt lat="38.654585" lon="16.3716567"><ele>597.0</ele><time>2026-04-07T10:25:23.791Z</time></trkpt><trkpt lat="38.6546333" lon="16.3716"><ele>597.0</ele><time>2026-04-07T10:25:24.792Z</time></trkpt><trkpt lat="38.6547167" lon="16.3715083"><ele>597.0</ele><time>2026-04-07T10:25:26.792Z</time></trkpt><trkpt lat="38.6547883" lon="16.3714283"><ele>597.0</ele><time>2026-04-07T10:25:28.791Z</time></trkpt><trkpt lat="38.6548717" lon="16.3713433"><ele>597.5</ele><time>2026-04-07T10:25:30.791Z</time></trkpt><trkpt lat="38.654965" lon="16.3712367"><ele>598.0</ele><time>2026-04-07T10:25:32.791Z</time></trkpt><trkpt lat="38.6550217" lon="16.37118"><ele>598.5</ele><time>2026-04-07T10:25:33.792Z</time></trkpt><trkpt lat="38.6550767" lon="16.3711117"><ele>599.0</ele><time>2026-04-07T10:25:34.792Z</time></trkpt><trkpt lat="38.6551333" lon="16.3710483"><ele>599.5</ele><time>2026-04-07T10:25:35.792Z</time></trkpt><trkpt lat="38.655185" lon="16.370985"><ele>600.0</ele><time>2026-04-07T10:25:36.792Z</time></trkpt><trkpt lat="38.655275" lon="16.3708967"><ele>600.2</ele><time>2026-04-07T10:25:38.791Z</time></trkpt><trkpt lat="38.655335" lon="16.3708183"><ele>600.4</ele><time>2026-04-07T10:25:40.792Z</time></trkpt><trkpt lat="38.655405" lon="16.370715"><ele>600.6</ele><time>2026-04-07T10:25:42.791Z</time></trkpt><trkpt lat="38.655465" lon="16.3706167"><ele>600.8</ele><time>2026-04-07T10:25:44.791Z</time></trkpt><trkpt lat="38.6555333" lon="16.370505"><ele>601.0</ele><time>2026-04-07T10:25:46.791Z</time></trkpt><trkpt lat="38.6555867" lon="16.370415"><ele>601.0</ele><time>2026-04-07T10:25:48.791Z</time></trkpt><trkpt lat="38.6555217" lon="16.370465"><ele>601.0</ele><time>2026-04-07T10:25:53.791Z</time></trkpt><trkpt lat="38.6554667" lon="16.37058"><ele>601.0</ele><time>2026-04-07T10:25:55.791Z</time></trkpt><trkpt lat="38.6553883" lon="16.3706983"><ele>601.0</ele><time>2026-04-07T10:25:57.791Z</time></trkpt><trkpt lat="38.6553367" lon="16.370775"><ele>601.0</ele><time>2026-04-07T10:25:58.792Z</time></trkpt><trkpt lat="38.6552867" lon="16.3708533"><ele>600.8</ele><time>2026-04-07T10:25:59.792Z</time></trkpt><trkpt lat="38.6552283" lon="16.3709317"><ele>600.6</ele><time>2026-04-07T10:26:00.792Z</time></trkpt><trkpt lat="38.6551583" lon="16.3710117"><ele>600.4</ele><time>2026-04-07T10:26:01.791Z</time></trkpt><trkpt lat="38.6550867" lon="16.3710883"><ele>600.2</ele><time>2026-04-07T10:26:02.791Z</time></trkpt><trkpt lat="38.6550183" lon="16.37117"><ele>600.0</ele><time>2026-04-07T10:26:03.791Z</time></trkpt><trkpt lat="38.6549417" lon="16.371255"><ele>600.0</ele><time>2026-04-07T10:26:04.791Z</time></trkpt><trkpt lat="38.6548583" lon="16.371335"><ele>600.0</ele><time>2026-04-07T10:26:05.792Z</time></trkpt><trkpt lat="38.6547833" lon="16.371415"><ele>600.0</ele><time>2026-04-07T10:26:06.791Z</time></trkpt><trkpt lat="38.6547183" lon="16.3714867"><ele>600.0</ele><time>2026-04-07T10:26:07.792Z</time></trkpt><trkpt lat="38.6546517" lon="16.3715717"><ele>600.0</ele><time>2026-04-07T10:26:08.791Z</time></trkpt><trkpt lat="38.6545883" lon="16.3716383"><ele>599.8333333333334</ele><time>2026-04-07T10:26:09.791Z</time></trkpt><trkpt lat="38.6545267" lon="16.3717"><ele>599.6666666666666</ele><time>2026-04-07T10:26:10.791Z</time></trkpt><trkpt lat="38.6544717" lon="16.3717517"><ele>599.5</ele><time>2026-04-07T10:26:11.792Z</time></trkpt><trkpt lat="38.6544167" lon="16.3717983"><ele>599.3333333333333</ele><time>2026-04-07T10:26:12.791Z</time></trkpt><trkpt lat="38.6543633" lon="16.371845"><ele>599.1666666666666</ele><time>2026-04-07T10:26:13.791Z</time></trkpt><trkpt lat="38.6542633" lon="16.3719383"><ele>599.0</ele><time>2026-04-07T10:26:15.792Z</time></trkpt><trkpt lat="38.6542033" lon="16.3719783"><ele>599.0</ele><time>2026-04-07T10:26:16.791Z</time></trkpt><trkpt lat="38.6541433" lon="16.3720217"><ele>599.0</ele><time>2026-04-07T10:26:17.792Z</time></trkpt><trkpt lat="38.6540767" lon="16.372075"><ele>599.0</ele><time>2026-04-07T10:26:18.791Z</time></trkpt><trkpt lat="38.6540067" lon="16.372135"><ele>599.0</ele><time>2026-04-07T10:26:19.791Z</time></trkpt><trkpt lat="38.6539417" lon="16.372185"><ele>599.0</ele><time>2026-04-07T10:26:20.791Z</time></trkpt><trkpt lat="38.6538767" lon="16.3722367"><ele>599.0</ele><time>2026-04-07T10:26:21.791Z</time></trkpt><trkpt lat="38.65382" lon="16.3722783"><ele>599.0</ele><time>2026-04-07T10:26:22.791Z</time></trkpt><trkpt lat="38.653745" lon="16.3723433"><ele>598.8333333333333</ele><time>2026-04-07T10:26:24.791Z</time></trkpt><trkpt lat="38.6537367" lon="16.372445"><ele>598.6666666666666</ele><time>2026-04-07T10:26:27.792Z</time></trkpt><trkpt lat="38.6537683" lon="16.3725383"><ele>598.5</ele><time>2026-04-07T10:26:29.791Z</time></trkpt><trkpt lat="38.6538567" lon="16.3726217"><ele>598.3333333333334</ele><time>2026-04-07T10:26:31.791Z</time></trkpt><trkpt lat="38.653915" lon="16.3726717"><ele>598.1666666666667</ele><time>2026-04-07T10:26:32.792Z</time></trkpt><trkpt lat="38.6539817" lon="16.3727267"><ele>598.0</ele><time>2026-04-07T10:26:33.791Z</time></trkpt><trkpt lat="38.6540533" lon="16.3727833"><ele>598.0</ele><time>2026-04-07T10:26:34.792Z</time></trkpt><trkpt lat="38.6541217" lon="16.372855"><ele>598.0</ele><time>2026-04-07T10:26:35.791Z</time></trkpt><trkpt lat="38.6541983" lon="16.3729383"><ele>598.0</ele><time>2026-04-07T10:26:36.792Z</time></trkpt><trkpt lat="38.6542633" lon="16.3730217"><ele>598.0</ele><time>2026-04-07T10:26:37.792Z</time></trkpt><trkpt lat="38.6543283" lon="16.373115"><ele>598.0</ele><time>2026-04-07T10:26:38.792Z</time></trkpt><trkpt lat="38.6543967" lon="16.373225"><ele>596.8</ele><time>2026-04-07T10:26:39.792Z</time></trkpt><trkpt lat="38.6544633" lon="16.3733383"><ele>595.5999999999999</ele><time>2026-04-07T10:26:40.791Z</time></trkpt><trkpt lat="38.65453" lon="16.3734367"><ele>594.4000000000001</ele><time>2026-04-07T10:26:41.791Z</time></trkpt><trkpt lat="38.654595" lon="16.37353"><ele>593.2</ele><time>2026-04-07T10:26:42.792Z</time></trkpt><trkpt lat="38.6546483" lon="16.3736183"><ele>592.0</ele><time>2026-04-07T10:26:43.791Z</time></trkpt><trkpt lat="38.654685" lon="16.3737067"><ele>592.0</ele><time>2026-04-07T10:26:44.791Z</time></trkpt><trkpt lat="38.6547183" lon="16.3737967"><ele>592.0</ele><time>2026-04-07T10:26:45.791Z</time></trkpt><trkpt lat="38.65474" lon="16.3739"><ele>592.0</ele><time>2026-04-07T10:26:46.791Z</time></trkpt><trkpt lat="38.654755" lon="16.374015"><ele>592.0</ele><time>2026-04-07T10:26:47.791Z</time></trkpt><trkpt lat="38.6547633" lon="16.374145"><ele>592.0</ele><time>2026-04-07T10:26:48.791Z</time></trkpt><trkpt lat="38.6547817" lon="16.3742633"><ele>592.0</ele><time>2026-04-07T10:26:49.791Z</time></trkpt><trkpt lat="38.65479" lon="16.3743783"><ele>591.3333333333334</ele><time>2026-04-07T10:26:50.792Z</time></trkpt><trkpt lat="38.6548067" lon="16.37449"><ele>590.6666666666667</ele><time>2026-04-07T10:26:51.791Z</time></trkpt><trkpt lat="38.65482" lon="16.3745933"><ele>590.0</ele><time>2026-04-07T10:26:52.792Z</time></trkpt><trkpt lat="38.654825" lon="16.3746817"><ele>589.3333333333334</ele><time>2026-04-07T10:26:53.791Z</time></trkpt><trkpt lat="38.6548133" lon="16.3747983"><ele>588.6666666666666</ele><time>2026-04-07T10:26:55.792Z</time></trkpt><trkpt lat="38.6547633" lon="16.37491"><ele>588.0</ele><time>2026-04-07T10:26:57.791Z</time></trkpt><trkpt lat="38.6547233" lon="16.3750633"><ele>588.0</ele><time>2026-04-07T10:26:59.791Z</time></trkpt><trkpt lat="38.6547033" lon="16.3751533"><ele>588.0</ele><time>2026-04-07T10:27:00.791Z</time></trkpt><trkpt lat="38.6546617" lon="16.3752833"><ele>588.0</ele><time>2026-04-07T10:27:02.791Z</time></trkpt><trkpt lat="38.654635" lon="16.37538"><ele>588.0</ele><time>2026-04-07T10:27:04.792Z</time></trkpt><trkpt lat="38.654635" lon="16.3754933"><ele>588.0</ele><time>2026-04-07T10:27:06.791Z</time></trkpt><trkpt lat="38.6546433" lon="16.3756133"><ele>588.0</ele><time>2026-04-07T10:27:08.791Z</time></trkpt><trkpt lat="38.654685" lon="16.3757533"><ele>588.0</ele><time>2026-04-07T10:27:10.791Z</time></trkpt><trkpt lat="38.6547167" lon="16.3758233"><ele>588.0</ele><time>2026-04-07T10:27:11.791Z</time></trkpt><trkpt lat="38.6547483" lon="16.3758983"><ele>588.0</ele><time>2026-04-07T10:27:12.791Z</time></trkpt><trkpt lat="38.6547867" lon="16.3759783"><ele>588.0</ele><time>2026-04-07T10:27:13.792Z</time></trkpt><trkpt lat="38.6548233" lon="16.376055"><ele>588.0</ele><time>2026-04-07T10:27:14.791Z</time></trkpt><trkpt lat="38.654865" lon="16.37613"><ele>588.0</ele><time>2026-04-07T10:27:15.791Z</time></trkpt><trkpt lat="38.6549267" lon="16.3762617"><ele>588.0</ele><time>2026-04-07T10:27:17.791Z</time></trkpt><trkpt lat="38.6549717" lon="16.37634"><ele>588.0</ele><time>2026-04-07T10:27:19.791Z</time></trkpt><trkpt lat="38.6549233" lon="16.376255"><ele>588.0</ele><time>2026-04-07T10:27:30.791Z</time></trkpt><trkpt lat="38.6548983" lon="16.37618"><ele>588.0</ele><time>2026-04-07T10:27:31.792Z</time></trkpt><trkpt lat="38.6548617" lon="16.3760917"><ele>588.0</ele><time>2026-04-07T10:27:32.791Z</time></trkpt><trkpt lat="38.6548217" lon="16.3759933"><ele>588.0</ele><time>2026-04-07T10:27:33.791Z</time></trkpt><trkpt lat="38.65478" lon="16.375895"><ele>588.0</ele><time>2026-04-07T10:27:34.791Z</time></trkpt><trkpt lat="38.6547433" lon="16.375795"><ele>588.0</ele><time>2026-04-07T10:27:35.791Z</time></trkpt><trkpt lat="38.6547183" lon="16.37571"><ele>588.0</ele><time>2026-04-07T10:27:36.791Z</time></trkpt><trkpt lat="38.6547" lon="16.37563"><ele>588.0</ele><time>2026-04-07T10:27:37.791Z</time></trkpt><trkpt lat="38.6546867" lon="16.3755417"><ele>588.0</ele><time>2026-04-07T10:27:38.791Z</time></trkpt><trkpt lat="38.654675" lon="16.375385"><ele>588.0</ele><time>2026-04-07T10:27:40.792Z</time></trkpt><trkpt lat="38.6546883" lon="16.37529"><ele>588.0</ele><time>2026-04-07T10:27:41.791Z</time></trkpt><trkpt lat="38.6547083" lon="16.3751883"><ele>588.0</ele><time>2026-04-07T10:27:42.792Z</time></trkpt><trkpt lat="38.6547367" lon="16.375075"><ele>588.0</ele><time>2026-04-07T10:27:43.791Z</time></trkpt><trkpt lat="38.6547633" lon="16.3749767"><ele>588.0</ele><time>2026-04-07T10:27:44.791Z</time></trkpt><trkpt lat="38.65479" lon="16.3748867"><ele>588.0</ele><time>2026-04-07T10:27:45.792Z</time></trkpt><trkpt lat="38.6548167" lon="16.3748083"><ele>588.0</ele><time>2026-04-07T10:27:46.792Z</time></trkpt><trkpt lat="38.65487" lon="16.37472"><ele>588.0</ele><time>2026-04-07T10:27:48.791Z</time></trkpt><trkpt lat="38.654975" lon="16.3746917"><ele>588.0</ele><time>2026-04-07T10:27:50.791Z</time></trkpt><trkpt lat="38.6550467" lon="16.3746983"><ele>588.0</ele><time>2026-04-07T10:27:51.792Z</time></trkpt><trkpt lat="38.6551183" lon="16.3747167"><ele>588.0</ele><time>2026-04-07T10:27:52.791Z</time></trkpt><trkpt lat="38.655195" lon="16.3747483"><ele>588.0</ele><time>2026-04-07T10:27:53.791Z</time></trkpt><trkpt lat="38.655275" lon="16.3747817"><ele>588.0</ele><time>2026-04-07T10:27:54.791Z</time></trkpt><trkpt lat="38.6553517" lon="16.37482"><ele>587.5</ele><time>2026-04-07T10:27:55.792Z</time></trkpt><trkpt lat="38.6554367" lon="16.374855"><ele>587.0</ele><time>2026-04-07T10:27:56.792Z</time></trkpt><trkpt lat="38.6555167" lon="16.374905"><ele>586.5</ele><time>2026-04-07T10:27:57.791Z</time></trkpt><trkpt lat="38.6556" lon="16.3749567"><ele>586.0</ele><time>2026-04-07T10:27:58.792Z</time></trkpt><trkpt lat="38.6556817" lon="16.3750117"><ele>585.5</ele><time>2026-04-07T10:27:59.791Z</time></trkpt><trkpt lat="38.65576" lon="16.375055"><ele>585.0</ele><time>2026-04-07T10:28:00.791Z</time></trkpt><trkpt lat="38.6558367" lon="16.3750933"><ele>585.0</ele><time>2026-04-07T10:28:01.791Z</time></trkpt><trkpt lat="38.6559117" lon="16.37512"><ele>585.0</ele><time>2026-04-07T10:28:02.791Z</time></trkpt><trkpt lat="38.655985" lon="16.3751383"><ele>585.0</ele><time>2026-04-07T10:28:03.791Z</time></trkpt><trkpt lat="38.65605" lon="16.37515"><ele>585.0</ele><time>2026-04-07T10:28:04.791Z</time></trkpt><trkpt lat="38.6561133" lon="16.3751683"><ele>585.0</ele><time>2026-04-07T10:28:05.792Z</time></trkpt><trkpt lat="38.656185" lon="16.3751917"><ele>585.0</ele><time>2026-04-07T10:28:06.791Z</time></trkpt><trkpt lat="38.6562567" lon="16.37522"><ele>585.0</ele><time>2026-04-07T10:28:07.791Z</time></trkpt><trkpt lat="38.6563283" lon="16.375255"><ele>584.8</ele><time>2026-04-07T10:28:08.792Z</time></trkpt><trkpt lat="38.6564067" lon="16.3752967"><ele>584.6</ele><time>2026-04-07T10:28:09.791Z</time></trkpt><trkpt lat="38.65649" lon="16.37534"><ele>584.4</ele><time>2026-04-07T10:28:10.792Z</time></trkpt><trkpt lat="38.6565867" lon="16.3754183"><ele>584.2</ele><time>2026-04-07T10:28:11.791Z</time></trkpt><trkpt lat="38.6566667" lon="16.3754783"><ele>584.0</ele><time>2026-04-07T10:28:12.791Z</time></trkpt><trkpt lat="38.6567467" lon="16.3755433"><ele>584.0</ele><time>2026-04-07T10:28:13.791Z</time></trkpt><trkpt lat="38.6568417" lon="16.3756183"><ele>584.0</ele><time>2026-04-07T10:28:14.791Z</time></trkpt><trkpt lat="38.6569367" lon="16.3757067"><ele>584.0</ele><time>2026-04-07T10:28:15.791Z</time></trkpt><trkpt lat="38.65703" lon="16.3757867"><ele>584.0</ele><time>2026-04-07T10:28:16.792Z</time></trkpt><trkpt lat="38.6571067" lon="16.3758667"><ele>584.0</ele><time>2026-04-07T10:28:17.791Z</time></trkpt><trkpt lat="38.657165" lon="16.3759517"><ele>581.4</ele><time>2026-04-07T10:28:18.791Z</time></trkpt><trkpt lat="38.6572317" lon="16.3760417"><ele>578.8</ele><time>2026-04-07T10:28:19.791Z</time></trkpt><trkpt lat="38.657295" lon="16.3761467"><ele>576.2</ele><time>2026-04-07T10:28:20.791Z</time></trkpt><trkpt lat="38.6573733" lon="16.3762517"><ele>573.6</ele><time>2026-04-07T10:28:21.791Z</time></trkpt><trkpt lat="38.6574533" lon="16.3763667"><ele>571.0</ele><time>2026-04-07T10:28:22.791Z</time></trkpt><trkpt lat="38.6575317" lon="16.3764817"><ele>571.0</ele><time>2026-04-07T10:28:23.792Z</time></trkpt><trkpt lat="38.657615" lon="16.3765933"><ele>571.0</ele><time>2026-04-07T10:28:24.792Z</time></trkpt><trkpt lat="38.6576967" lon="16.376695"><ele>571.0</ele><time>2026-04-07T10:28:25.791Z</time></trkpt><trkpt lat="38.6577683" lon="16.3767767"><ele>571.0</ele><time>2026-04-07T10:28:26.791Z</time></trkpt><trkpt lat="38.6578167" lon="16.3768367"><ele>571.0</ele><time>2026-04-07T10:28:27.791Z</time></trkpt><trkpt lat="38.6578783" lon="16.3769033"><ele>572.6666666666667</ele><time>2026-04-07T10:28:29.792Z</time></trkpt><trkpt lat="38.6578917" lon="16.37703"><ele>574.3333333333334</ele><time>2026-04-07T10:28:32.791Z</time></trkpt><trkpt lat="38.6578767" lon="16.3771133"><ele>576.0</ele><time>2026-04-07T10:28:33.791Z</time></trkpt><trkpt lat="38.6578667" lon="16.3772133"><ele>577.6666666666666</ele><time>2026-04-07T10:28:34.791Z</time></trkpt><trkpt lat="38.6578533" lon="16.3773217"><ele>579.3333333333333</ele><time>2026-04-07T10:28:35.791Z</time></trkpt><trkpt lat="38.65784" lon="16.3774367"><ele>581.0</ele><time>2026-04-07T10:28:36.792Z</time></trkpt><trkpt lat="38.6578267" lon="16.3775617"><ele>581.0</ele><time>2026-04-07T10:28:37.791Z</time></trkpt><trkpt lat="38.6578183" lon="16.37767"><ele>581.0</ele><time>2026-04-07T10:28:38.791Z</time></trkpt><trkpt lat="38.657805" lon="16.3777617"><ele>581.0</ele><time>2026-04-07T10:28:39.791Z</time></trkpt><trkpt lat="38.65779" lon="16.3778533"><ele>581.0</ele><time>2026-04-07T10:28:41.792Z</time></trkpt><trkpt lat="38.6578417" lon="16.3777933"><ele>581.0</ele><time>2026-04-07T10:28:46.792Z</time></trkpt><trkpt lat="38.6578633" lon="16.377645"><ele>581.0</ele><time>2026-04-07T10:28:48.792Z</time></trkpt><trkpt lat="38.6578783" lon="16.3775183"><ele>581.0</ele><time>2026-04-07T10:28:49.791Z</time></trkpt><trkpt lat="38.6578967" lon="16.37738"><ele>581.0</ele><time>2026-04-07T10:28:50.792Z</time></trkpt><trkpt lat="38.6579117" lon="16.3772167"><ele>581.0</ele><time>2026-04-07T10:28:51.791Z</time></trkpt><trkpt lat="38.6579333" lon="16.3770267"><ele>581.0</ele><time>2026-04-07T10:28:52.791Z</time></trkpt><trkpt lat="38.657955" lon="16.3768417"><ele>581.6666666666666</ele><time>2026-04-07T10:28:53.792Z</time></trkpt><trkpt lat="38.657975" lon="16.3766483"><ele>582.3333333333334</ele><time>2026-04-07T10:28:54.791Z</time></trkpt><trkpt lat="38.6579917" lon="16.376445"><ele>583.0</ele><time>2026-04-07T10:28:55.791Z</time></trkpt><trkpt lat="38.658015" lon="16.37604"><ele>584.0</ele><time>2026-04-07T10:28:57.791Z</time></trkpt><trkpt lat="38.6580367" lon="16.3756283"><ele>585.0</ele><time>2026-04-07T10:28:59.791Z</time></trkpt><trkpt lat="38.6580533" lon="16.3754433"><ele>586.0</ele><time>2026-04-07T10:29:00.791Z</time></trkpt><trkpt lat="38.6580767" lon="16.375265"><ele>587.0</ele><time>2026-04-07T10:29:01.792Z</time></trkpt><trkpt lat="38.65811" lon="16.3750883"><ele>588.0</ele><time>2026-04-07T10:29:02.791Z</time></trkpt><trkpt lat="38.6581567" lon="16.3749183"><ele>589.0</ele><time>2026-04-07T10:29:03.791Z</time></trkpt><trkpt lat="38.6581967" lon="16.3747367"><ele>589.3333333333334</ele><time>2026-04-07T10:29:04.792Z</time></trkpt><trkpt lat="38.6582567" lon="16.374555"><ele>589.6666666666666</ele><time>2026-04-07T10:29:05.792Z</time></trkpt><trkpt lat="38.6583033" lon="16.374345"><ele>590.0</ele><time>2026-04-07T10:29:06.792Z</time></trkpt><trkpt lat="38.6583433" lon="16.3741367"><ele>590.0</ele><time>2026-04-07T10:29:07.791Z</time></trkpt><trkpt lat="38.6583717" lon="16.3739183"><ele>590.0</ele><time>2026-04-07T10:29:08.792Z</time></trkpt><trkpt lat="38.6584033" lon="16.373725"><ele>590.0</ele><time>2026-04-07T10:29:09.792Z</time></trkpt><trkpt lat="38.6584317" lon="16.373545"><ele>590.25</ele><time>2026-04-07T10:29:10.791Z</time></trkpt><trkpt lat="38.6584667" lon="16.3733667"><ele>590.5</ele><time>2026-04-07T10:29:11.791Z</time></trkpt><trkpt lat="38.6585033" lon="16.3731933"><ele>590.75</ele><time>2026-04-07T10:29:12.792Z</time></trkpt><trkpt lat="38.65855" lon="16.3730233"><ele>591.0</ele><time>2026-04-07T10:29:13.791Z</time></trkpt><trkpt lat="38.65861" lon="16.37286"><ele>593.0</ele><time>2026-04-07T10:29:14.792Z</time></trkpt><trkpt lat="38.6586717" lon="16.372685"><ele>595.0</ele><time>2026-04-07T10:29:15.792Z</time></trkpt><trkpt lat="38.6587283" lon="16.37251"><ele>597.0</ele><time>2026-04-07T10:29:16.792Z</time></trkpt><trkpt lat="38.6587767" lon="16.3723333"><ele>599.0</ele><time>2026-04-07T10:29:17.792Z</time></trkpt><trkpt lat="38.6588" lon="16.3721583"><ele>599.0</ele><time>2026-04-07T10:29:18.791Z</time></trkpt><trkpt lat="38.658805" lon="16.3719833"><ele>599.0</ele><time>2026-04-07T10:29:19.791Z</time></trkpt><trkpt lat="38.6587783" lon="16.37182"><ele>599.0</ele><time>2026-04-07T10:29:20.791Z</time></trkpt><trkpt lat="38.6587133" lon="16.3716967"><ele>599.0</ele><time>2026-04-07T10:29:21.791Z</time></trkpt><trkpt lat="38.658635" lon="16.3716033"><ele>599.3333333333333</ele><time>2026-04-07T10:29:22.791Z</time></trkpt><trkpt lat="38.6585583" lon="16.3715333"><ele>599.6666666666666</ele><time>2026-04-07T10:29:23.791Z</time></trkpt><trkpt lat="38.65849" lon="16.371485"><ele>600.0</ele><time>2026-04-07T10:29:24.791Z</time></trkpt><trkpt lat="38.65843" lon="16.371445"><ele>600.3333333333334</ele><time>2026-04-07T10:29:25.792Z</time></trkpt><trkpt lat="38.6583783" lon="16.3713983"><ele>600.6666666666667</ele><time>2026-04-07T10:29:26.792Z</time></trkpt><trkpt lat="38.6582783" lon="16.3713267"><ele>601.0</ele><time>2026-04-07T10:29:28.791Z</time></trkpt><trkpt lat="38.65818" lon="16.37126"><ele>601.0</ele><time>2026-04-07T10:29:30.791Z</time></trkpt><trkpt lat="38.6580683" lon="16.37117"><ele>601.0</ele><time>2026-04-07T10:29:32.791Z</time></trkpt><trkpt lat="38.6579933" lon="16.3711117"><ele>601.0</ele><time>2026-04-07T10:29:33.791Z</time></trkpt><trkpt lat="38.65791" lon="16.37105"><ele>601.0</ele><time>2026-04-07T10:29:34.791Z</time></trkpt><trkpt lat="38.6578233" lon="16.37098"><ele>601.0</ele><time>2026-04-07T10:29:35.792Z</time></trkpt><trkpt lat="38.6577317" lon="16.3709117"><ele>600.8</ele><time>2026-04-07T10:29:36.792Z</time></trkpt><trkpt lat="38.6576417" lon="16.37084"><ele>600.6</ele><time>2026-04-07T10:29:37.791Z</time></trkpt><trkpt lat="38.65756" lon="16.370755"><ele>600.4</ele><time>2026-04-07T10:29:38.791Z</time></trkpt><trkpt lat="38.6574983" lon="16.3706467"><ele>600.2</ele><time>2026-04-07T10:29:39.791Z</time></trkpt><trkpt lat="38.6574583" lon="16.3705233"><ele>600.0</ele><time>2026-04-07T10:29:40.791Z</time></trkpt><trkpt lat="38.6574367" lon="16.3703933"><ele>601.25</ele><time>2026-04-07T10:29:41.791Z</time></trkpt><trkpt lat="38.6574383" lon="16.3702533"><ele>602.5</ele><time>2026-04-07T10:29:42.791Z</time></trkpt><trkpt lat="38.65748" lon="16.3700967"><ele>603.75</ele><time>2026-04-07T10:29:43.791Z</time></trkpt><trkpt lat="38.6575317" lon="16.3699333"><ele>605.0</ele><time>2026-04-07T10:29:44.792Z</time></trkpt><trkpt lat="38.65758" lon="16.3697733"><ele>605.5</ele><time>2026-04-07T10:29:45.791Z</time></trkpt><trkpt lat="38.6576333" lon="16.3696083"><ele>606.0</ele><time>2026-04-07T10:29:46.791Z</time></trkpt><trkpt lat="38.65768" lon="16.3694383"><ele>606.5</ele><time>2026-04-07T10:29:47.791Z</time></trkpt><trkpt lat="38.6577183" lon="16.36928"><ele>607.0</ele><time>2026-04-07T10:29:48.791Z</time></trkpt><trkpt lat="38.657735" lon="16.3691317"><ele>607.0</ele><time>2026-04-07T10:29:49.792Z</time></trkpt><trkpt lat="38.65774" lon="16.3689833"><ele>607.0</ele><time>2026-04-07T10:29:50.791Z</time></trkpt><trkpt lat="38.657725" lon="16.3688417"><ele>607.0</ele><time>2026-04-07T10:29:51.791Z</time></trkpt><trkpt lat="38.6577" lon="16.3686833"><ele>607.0</ele><time>2026-04-07T10:29:52.791Z</time></trkpt><trkpt lat="38.6576667" lon="16.36853"><ele>607.6</ele><time>2026-04-07T10:29:53.791Z</time></trkpt><trkpt lat="38.6576317" lon="16.3683983"><ele>608.2</ele><time>2026-04-07T10:29:54.791Z</time></trkpt><trkpt lat="38.6575967" lon="16.3682933"><ele>608.8</ele><time>2026-04-07T10:29:55.791Z</time></trkpt><trkpt lat="38.6575367" lon="16.3682"><ele>609.4</ele><time>2026-04-07T10:29:56.791Z</time></trkpt><trkpt lat="38.657455" lon="16.36811"><ele>610.0</ele><time>2026-04-07T10:29:57.791Z</time></trkpt><trkpt lat="38.6573467" lon="16.3680467"><ele>611.75</ele><time>2026-04-07T10:29:58.791Z</time></trkpt><trkpt lat="38.6572333" lon="16.36801"><ele>613.5</ele><time>2026-04-07T10:29:59.792Z</time></trkpt><trkpt lat="38.65711" lon="16.3679717"><ele>615.25</ele><time>2026-04-07T10:30:00.792Z</time></trkpt><trkpt lat="38.656985" lon="16.36793"><ele>617.0</ele><time>2026-04-07T10:30:01.792Z</time></trkpt><trkpt lat="38.6568883" lon="16.3678867"><ele>617.0</ele><time>2026-04-07T10:30:02.791Z</time></trkpt><trkpt lat="38.65681" lon="16.3678483"><ele>617.0</ele><time>2026-04-07T10:30:03.791Z</time></trkpt><trkpt lat="38.656725" lon="16.3678183"><ele>617.0</ele><time>2026-04-07T10:30:05.792Z</time></trkpt><trkpt lat="38.6567417" lon="16.3679"><ele>617.0</ele><time>2026-04-07T10:30:09.791Z</time></trkpt><trkpt lat="38.6568117" lon="16.3679067"><ele>617.0</ele><time>2026-04-07T10:30:11.791Z</time></trkpt><trkpt lat="38.6569283" lon="16.3679367"><ele>617.0</ele><time>2026-04-07T10:30:13.792Z</time></trkpt><trkpt lat="38.6570217" lon="16.36798"><ele>615.25</ele><time>2026-04-07T10:30:14.792Z</time></trkpt><trkpt lat="38.6571367" lon="16.3680383"><ele>613.5</ele><time>2026-04-07T10:30:15.792Z</time></trkpt><trkpt lat="38.657255" lon="16.3680933"><ele>611.75</ele><time>2026-04-07T10:30:16.791Z</time></trkpt><trkpt lat="38.65737" lon="16.3681467"><ele>610.0</ele><time>2026-04-07T10:30:17.791Z</time></trkpt><trkpt lat="38.6574683" lon="16.3682017"><ele>610.0</ele><time>2026-04-07T10:30:18.792Z</time></trkpt><trkpt lat="38.6575467" lon="16.368285"><ele>610.0</ele><time>2026-04-07T10:30:19.792Z</time></trkpt><trkpt lat="38.6575917" lon="16.3683817"><ele>610.0</ele><time>2026-04-07T10:30:20.792Z</time></trkpt><trkpt lat="38.6576283" lon="16.3684917"><ele>610.0</ele><time>2026-04-07T10:30:21.791Z</time></trkpt><trkpt lat="38.657655" lon="16.3686083"><ele>610.0</ele><time>2026-04-07T10:30:22.792Z</time></trkpt><trkpt lat="38.65768" lon="16.36874"><ele>609.25</ele><time>2026-04-07T10:30:23.791Z</time></trkpt><trkpt lat="38.6577083" lon="16.3688917"><ele>608.5</ele><time>2026-04-07T10:30:24.792Z</time></trkpt><trkpt lat="38.65773" lon="16.36905"><ele>607.75</ele><time>2026-04-07T10:30:25.792Z</time></trkpt><trkpt lat="38.6577183" lon="16.3692133"><ele>607.0</ele><time>2026-04-07T10:30:26.791Z</time></trkpt><trkpt lat="38.6576867" lon="16.3693883"><ele>607.0</ele><time>2026-04-07T10:30:27.792Z</time></trkpt><trkpt lat="38.6576433" lon="16.36957"><ele>607.0</ele><time>2026-04-07T10:30:28.791Z</time></trkpt><trkpt lat="38.65759" lon="16.36975"><ele>607.0</ele><time>2026-04-07T10:30:29.791Z</time></trkpt><trkpt lat="38.657545" lon="16.3699383"><ele>606.5</ele><time>2026-04-07T10:30:30.791Z</time></trkpt><trkpt lat="38.6574917" lon="16.3701133"><ele>606.0</ele><time>2026-04-07T10:30:31.791Z</time></trkpt><trkpt lat="38.65745" lon="16.3702783"><ele>605.5</ele><time>2026-04-07T10:30:32.791Z</time></trkpt><trkpt lat="38.6574317" lon="16.3704383"><ele>605.0</ele><time>2026-04-07T10:30:33.791Z</time></trkpt><trkpt lat="38.65743" lon="16.3705883"><ele>603.75</ele><time>2026-04-07T10:30:34.791Z</time></trkpt><trkpt lat="38.65746" lon="16.3707267"><ele>602.5</ele><time>2026-04-07T10:30:35.791Z</time></trkpt><trkpt lat="38.65753" lon="16.3708417"><ele>601.25</ele><time>2026-04-07T10:30:36.791Z</time></trkpt><trkpt lat="38.65762" lon="16.3709383"><ele>600.0</ele><time>2026-04-07T10:30:37.791Z</time></trkpt><trkpt lat="38.6577383" lon="16.3710183"><ele>600.25</ele><time>2026-04-07T10:30:38.792Z</time></trkpt><trkpt lat="38.65787" lon="16.371095"><ele>600.5</ele><time>2026-04-07T10:30:39.792Z</time></trkpt><trkpt lat="38.6580017" lon="16.3711817"><ele>600.75</ele><time>2026-04-07T10:30:40.791Z</time></trkpt><trkpt lat="38.6581083" lon="16.371275"><ele>601.0</ele><time>2026-04-07T10:30:41.791Z</time></trkpt><trkpt lat="38.6581983" lon="16.371345"><ele>600.6666666666667</ele><time>2026-04-07T10:30:42.792Z</time></trkpt><trkpt lat="38.6582783" lon="16.3713983"><ele>600.3333333333334</ele><time>2026-04-07T10:30:43.792Z</time></trkpt><trkpt lat="38.65835" lon="16.3714467"><ele>600.0</ele><time>2026-04-07T10:30:44.791Z</time></trkpt><trkpt lat="38.6584183" lon="16.3714933"><ele>599.6666666666666</ele><time>2026-04-07T10:30:45.791Z</time></trkpt><trkpt lat="38.6584933" lon="16.3715483"><ele>599.3333333333333</ele><time>2026-04-07T10:30:46.791Z</time></trkpt><trkpt lat="38.658585" lon="16.37161"><ele>599.0</ele><time>2026-04-07T10:30:47.791Z</time></trkpt><trkpt lat="38.6586517" lon="16.37169"><ele>599.0</ele><time>2026-04-07T10:30:48.792Z</time></trkpt><trkpt lat="38.658715" lon="16.3717883"><ele>599.0</ele><time>2026-04-07T10:30:49.791Z</time></trkpt><trkpt lat="38.6587683" lon="16.3719083"><ele>599.0</ele><time>2026-04-07T10:30:50.791Z</time></trkpt><trkpt lat="38.6587967" lon="16.372055"><ele>599.0</ele><time>2026-04-07T10:30:51.792Z</time></trkpt><trkpt lat="38.6587867" lon="16.37222"><ele>599.0</ele><time>2026-04-07T10:30:52.791Z</time></trkpt><trkpt lat="38.658755" lon="16.3723933"><ele>599.0</ele><time>2026-04-07T10:30:53.791Z</time></trkpt><trkpt lat="38.6587033" lon="16.3725617"><ele>599.0</ele><time>2026-04-07T10:30:54.792Z</time></trkpt><trkpt lat="38.658645" lon="16.37273"><ele>599.0</ele><time>2026-04-07T10:30:55.791Z</time></trkpt><trkpt lat="38.6585817" lon="16.3729"><ele>595.3333333333333</ele><time>2026-04-07T10:30:56.791Z</time></trkpt><trkpt lat="38.65852" lon="16.373085"><ele>591.6666666666666</ele><time>2026-04-07T10:30:57.792Z</time></trkpt><trkpt lat="38.6584717" lon="16.3732767"><ele>588.0</ele><time>2026-04-07T10:30:58.792Z</time></trkpt><trkpt lat="38.6584217" lon="16.3734733"><ele>588.0</ele><time>2026-04-07T10:30:59.791Z</time></trkpt><trkpt lat="38.6583833" lon="16.3736967"><ele>588.0</ele><time>2026-04-07T10:31:00.792Z</time></trkpt><trkpt lat="38.6583483" lon="16.3739283"><ele>588.0</ele><time>2026-04-07T10:31:01.791Z</time></trkpt><trkpt lat="38.6582667" lon="16.3744017"><ele>588.3333333333334</ele><time>2026-04-07T10:31:03.791Z</time></trkpt><trkpt lat="38.6582217" lon="16.374615"><ele>588.6666666666667</ele><time>2026-04-07T10:31:04.792Z</time></trkpt><trkpt lat="38.6581667" lon="16.374825"><ele>589.0</ele><time>2026-04-07T10:31:05.792Z</time></trkpt><trkpt lat="38.658115" lon="16.37502"><ele>589.0</ele><time>2026-04-07T10:31:06.792Z</time></trkpt><trkpt lat="38.6580617" lon="16.3752117"><ele>589.0</ele><time>2026-04-07T10:31:07.791Z</time></trkpt><trkpt lat="38.65802" lon="16.375415"><ele>589.0</ele><time>2026-04-07T10:31:08.791Z</time></trkpt><trkpt lat="38.6579883" lon="16.375645"><ele>587.6666666666667</ele><time>2026-04-07T10:31:09.791Z</time></trkpt><trkpt lat="38.6579733" lon="16.3758717"><ele>586.3333333333334</ele><time>2026-04-07T10:31:10.791Z</time></trkpt><trkpt lat="38.6579667" lon="16.376105"><ele>585.0</ele><time>2026-04-07T10:31:11.792Z</time></trkpt><trkpt lat="38.6579633" lon="16.376355"><ele>584.3333333333334</ele><time>2026-04-07T10:31:12.792Z</time></trkpt><trkpt lat="38.65796" lon="16.3765883"><ele>583.6666666666667</ele><time>2026-04-07T10:31:13.791Z</time></trkpt><trkpt lat="38.6579383" lon="16.376825"><ele>583.0</ele><time>2026-04-07T10:31:14.791Z</time></trkpt><trkpt lat="38.657915" lon="16.37705"><ele>582.3333333333334</ele><time>2026-04-07T10:31:15.791Z</time></trkpt><trkpt lat="38.65789" lon="16.377255"><ele>581.6666666666666</ele><time>2026-04-07T10:31:16.791Z</time></trkpt><trkpt lat="38.6578617" lon="16.3774717"><ele>581.0</ele><time>2026-04-07T10:31:17.791Z</time></trkpt><trkpt lat="38.6578317" lon="16.3776967"><ele>581.0</ele><time>2026-04-07T10:31:18.791Z</time></trkpt><trkpt lat="38.657805" lon="16.3779267"><ele>581.0</ele><time>2026-04-07T10:31:19.791Z</time></trkpt><trkpt lat="38.6577733" lon="16.3781733"><ele>581.0</ele><time>2026-04-07T10:31:20.791Z</time></trkpt><trkpt lat="38.657745" lon="16.37842"><ele>576.3333333333333</ele><time>2026-04-07T10:31:21.791Z</time></trkpt><trkpt lat="38.6577267" lon="16.3786617"><ele>571.6666666666666</ele><time>2026-04-07T10:31:22.791Z</time></trkpt><trkpt lat="38.65772" lon="16.3788917"><ele>567.0</ele><time>2026-04-07T10:31:23.791Z</time></trkpt><trkpt lat="38.6577283" lon="16.379125"><ele>566.0</ele><time>2026-04-07T10:31:24.791Z</time></trkpt><trkpt lat="38.6577567" lon="16.3793733"><ele>565.0</ele><time>2026-04-07T10:31:25.792Z</time></trkpt><trkpt lat="38.6577967" lon="16.37962"><ele>564.0</ele><time>2026-04-07T10:31:26.791Z</time></trkpt><trkpt lat="38.6578217" lon="16.3798733"><ele>565.3333333333334</ele><time>2026-04-07T10:31:27.791Z</time></trkpt><trkpt lat="38.65783" lon="16.3801333"><ele>566.6666666666667</ele><time>2026-04-07T10:31:28.791Z</time></trkpt><trkpt lat="38.657835" lon="16.3803817"><ele>568.0</ele><time>2026-04-07T10:31:29.791Z</time></trkpt><trkpt lat="38.6578283" lon="16.3806167"><ele>568.0</ele><time>2026-04-07T10:31:30.792Z</time></trkpt><trkpt lat="38.6578217" lon="16.3808167"><ele>568.0</ele><time>2026-04-07T10:31:31.791Z</time></trkpt><trkpt lat="38.65782" lon="16.3809817"><ele>568.0</ele><time>2026-04-07T10:31:32.792Z</time></trkpt><trkpt lat="38.657805" lon="16.3811167"><ele>568.0</ele><time>2026-04-07T10:31:33.791Z</time></trkpt><trkpt lat="38.6577833" lon="16.38125"><ele>564.0</ele><time>2026-04-07T10:31:34.791Z</time></trkpt><trkpt lat="38.6577483" lon="16.3813783"><ele>560.0</ele><time>2026-04-07T10:31:35.792Z</time></trkpt><trkpt lat="38.6577117" lon="16.38153"><ele>556.0</ele><time>2026-04-07T10:31:36.792Z</time></trkpt><trkpt lat="38.6576817" lon="16.3816917"><ele>552.0</ele><time>2026-04-07T10:31:37.792Z</time></trkpt><trkpt lat="38.6576683" lon="16.3818583"><ele>552.0</ele><time>2026-04-07T10:31:38.791Z</time></trkpt><trkpt lat="38.6576833" lon="16.382025"><ele>552.0</ele><time>2026-04-07T10:31:39.791Z</time></trkpt><trkpt lat="38.6577133" lon="16.3821767"><ele>552.0</ele><time>2026-04-07T10:31:40.791Z</time></trkpt><trkpt lat="38.65775" lon="16.382315"><ele>552.0</ele><time>2026-04-07T10:31:41.792Z</time></trkpt><trkpt lat="38.6578267" lon="16.382425"><ele>553.25</ele><time>2026-04-07T10:31:42.792Z</time></trkpt><trkpt lat="38.65793" lon="16.38251"><ele>554.5</ele><time>2026-04-07T10:31:43.791Z</time></trkpt><trkpt lat="38.6580467" lon="16.382575"><ele>555.75</ele><time>2026-04-07T10:31:44.791Z</time></trkpt><trkpt lat="38.6581717" lon="16.3826167"><ele>557.0</ele><time>2026-04-07T10:31:45.791Z</time></trkpt><trkpt lat="38.6582883" lon="16.382635"><ele>557.0</ele><time>2026-04-07T10:31:46.791Z</time></trkpt><trkpt lat="38.6583933" lon="16.3826067"><ele>557.0</ele><time>2026-04-07T10:31:47.791Z</time></trkpt><trkpt lat="38.6584767" lon="16.3825417"><ele>557.0</ele><time>2026-04-07T10:31:48.791Z</time></trkpt><trkpt lat="38.65854" lon="16.38243"><ele>557.0</ele><time>2026-04-07T10:31:49.792Z</time></trkpt><trkpt lat="38.6586033" lon="16.3823083"><ele>557.0</ele><time>2026-04-07T10:31:50.792Z</time></trkpt><trkpt lat="38.65867" lon="16.3821933"><ele>558.25</ele><time>2026-04-07T10:31:51.791Z</time></trkpt><trkpt lat="38.6587517" lon="16.38209"><ele>559.5</ele><time>2026-04-07T10:31:52.791Z</time></trkpt><trkpt lat="38.6588633" lon="16.3820133"><ele>560.75</ele><time>2026-04-07T10:31:53.791Z</time></trkpt><trkpt lat="38.6589883" lon="16.381965"><ele>562.0</ele><time>2026-04-07T10:31:54.791Z</time></trkpt><trkpt lat="38.65912" lon="16.3819267"><ele>562.0</ele><time>2026-04-07T10:31:55.791Z</time></trkpt><trkpt lat="38.65926" lon="16.3819017"><ele>562.0</ele><time>2026-04-07T10:31:56.791Z</time></trkpt><trkpt lat="38.659395" lon="16.381865"><ele>562.0</ele><time>2026-04-07T10:31:57.791Z</time></trkpt><trkpt lat="38.6595567" lon="16.38181"><ele>562.0</ele><time>2026-04-07T10:31:58.791Z</time></trkpt><trkpt lat="38.6597" lon="16.3817183"><ele>556.6666666666667</ele><time>2026-04-07T10:31:59.791Z</time></trkpt><trkpt lat="38.65984" lon="16.3816117"><ele>551.3333333333334</ele><time>2026-04-07T10:32:00.791Z</time></trkpt><trkpt lat="38.6599733" lon="16.3815067"><ele>546.0</ele><time>2026-04-07T10:32:01.792Z</time></trkpt><trkpt lat="38.6600967" lon="16.3814167"><ele>546.0</ele><time>2026-04-07T10:32:02.792Z</time></trkpt><trkpt lat="38.6602167" lon="16.381355"><ele>546.0</ele><time>2026-04-07T10:32:03.791Z</time></trkpt><trkpt lat="38.660325" lon="16.3813033"><ele>546.0</ele><time>2026-04-07T10:32:04.791Z</time></trkpt><trkpt lat="38.66042" lon="16.38123"><ele>546.0</ele><time>2026-04-07T10:32:05.791Z</time></trkpt><trkpt lat="38.6604933" lon="16.38112"><ele>545.8333333333334</ele><time>2026-04-07T10:32:06.791Z</time></trkpt><trkpt lat="38.6605517" lon="16.3810083"><ele>545.6666666666666</ele><time>2026-04-07T10:32:07.792Z</time></trkpt><trkpt lat="38.6605933" lon="16.380895"><ele>545.5</ele><time>2026-04-07T10:32:08.791Z</time></trkpt><trkpt lat="38.6606483" lon="16.3807967"><ele>545.3333333333333</ele><time>2026-04-07T10:32:09.792Z</time></trkpt><trkpt lat="38.6607117" lon="16.3807417"><ele>545.1666666666666</ele><time>2026-04-07T10:32:10.792Z</time></trkpt><trkpt lat="38.660775" lon="16.38074"><ele>545.0</ele><time>2026-04-07T10:32:11.791Z</time></trkpt><trkpt lat="38.6608483" lon="16.3807867"><ele>545.0</ele><time>2026-04-07T10:32:12.791Z</time></trkpt><trkpt lat="38.66093" lon="16.38085"><ele>545.0</ele><time>2026-04-07T10:32:13.791Z</time></trkpt><trkpt lat="38.66102" lon="16.3809067"><ele>545.0</ele><time>2026-04-07T10:32:14.791Z</time></trkpt><trkpt lat="38.6611017" lon="16.380935"><ele>545.0</ele><time>2026-04-07T10:32:15.791Z</time></trkpt><trkpt lat="38.6611833" lon="16.380905"><ele>545.0</ele><time>2026-04-07T10:32:16.792Z</time></trkpt><trkpt lat="38.6612683" lon="16.3808483"><ele>544.6666666666666</ele><time>2026-04-07T10:32:17.791Z</time></trkpt><trkpt lat="38.661345" lon="16.380785"><ele>544.3333333333333</ele><time>2026-04-07T10:32:18.791Z</time></trkpt><trkpt lat="38.661425" lon="16.3807283"><ele>544.0</ele><time>2026-04-07T10:32:19.791Z</time></trkpt><trkpt lat="38.661495" lon="16.3807033"><ele>543.6666666666666</ele><time>2026-04-07T10:32:20.791Z</time></trkpt><trkpt lat="38.6615967" lon="16.3807617"><ele>543.3333333333334</ele><time>2026-04-07T10:32:22.791Z</time></trkpt><trkpt lat="38.66162" lon="16.38084"><ele>543.0</ele><time>2026-04-07T10:32:23.792Z</time></trkpt><trkpt lat="38.66162" lon="16.38095"><ele>543.0</ele><time>2026-04-07T10:32:24.792Z</time></trkpt><trkpt lat="38.661595" lon="16.381095"><ele>543.0</ele><time>2026-04-07T10:32:25.792Z</time></trkpt><trkpt lat="38.6615283" lon="16.381245"><ele>543.0</ele><time>2026-04-07T10:32:26.791Z</time></trkpt><trkpt lat="38.6614567" lon="16.38139"><ele>543.0</ele><time>2026-04-07T10:32:27.791Z</time></trkpt><trkpt lat="38.6613783" lon="16.3815267"><ele>544.5</ele><time>2026-04-07T10:32:28.792Z</time></trkpt><trkpt lat="38.6612983" lon="16.3816567"><ele>546.0</ele><time>2026-04-07T10:32:29.791Z</time></trkpt><trkpt lat="38.6612283" lon="16.3817733"><ele>547.5</ele><time>2026-04-07T10:32:30.792Z</time></trkpt><trkpt lat="38.6611567" lon="16.38191"><ele>549.0</ele><time>2026-04-07T10:32:31.791Z</time></trkpt><trkpt lat="38.661075" lon="16.3820533"><ele>546.75</ele><time>2026-04-07T10:32:32.791Z</time></trkpt><trkpt lat="38.6609983" lon="16.382175"><ele>544.5</ele><time>2026-04-07T10:32:33.791Z</time></trkpt><trkpt lat="38.6608983" lon="16.3823017"><ele>542.25</ele><time>2026-04-07T10:32:34.791Z</time></trkpt><trkpt lat="38.660795" lon="16.3824283"><ele>540.0</ele><time>2026-04-07T10:32:35.791Z</time></trkpt><trkpt lat="38.6607017" lon="16.3825617"><ele>540.0</ele><time>2026-04-07T10:32:36.792Z</time></trkpt><trkpt lat="38.660605" lon="16.3827083"><ele>540.0</ele><time>2026-04-07T10:32:37.791Z</time></trkpt><trkpt lat="38.660525" lon="16.382855"><ele>540.0</ele><time>2026-04-07T10:32:38.791Z</time></trkpt><trkpt lat="38.6604633" lon="16.38299"><ele>540.0</ele><time>2026-04-07T10:32:39.791Z</time></trkpt><trkpt lat="38.6603933" lon="16.3830967"><ele>539.25</ele><time>2026-04-07T10:32:40.791Z</time></trkpt><trkpt lat="38.6603167" lon="16.383215"><ele>538.5</ele><time>2026-04-07T10:32:41.791Z</time></trkpt><trkpt lat="38.660225" lon="16.383335"><ele>537.75</ele><time>2026-04-07T10:32:42.791Z</time></trkpt><trkpt lat="38.6601267" lon="16.3834617"><ele>537.0</ele><time>2026-04-07T10:32:43.792Z</time></trkpt><trkpt lat="38.660035" lon="16.3835733"><ele>537.0</ele><time>2026-04-07T10:32:44.791Z</time></trkpt><trkpt lat="38.6599417" lon="16.3836967"><ele>537.0</ele><time>2026-04-07T10:32:45.792Z</time></trkpt><trkpt lat="38.6598633" lon="16.38382"><ele>537.0</ele><time>2026-04-07T10:32:46.792Z</time></trkpt><trkpt lat="38.6598" lon="16.3839417"><ele>537.0</ele><time>2026-04-07T10:32:47.791Z</time></trkpt><trkpt lat="38.65978" lon="16.3840817"><ele>536.5</ele><time>2026-04-07T10:32:48.791Z</time></trkpt><trkpt lat="38.6597917" lon="16.3842317"><ele>536.0</ele><time>2026-04-07T10:32:49.792Z</time></trkpt><trkpt lat="38.6598317" lon="16.3844183"><ele>535.5</ele><time>2026-04-07T10:32:50.791Z</time></trkpt><trkpt lat="38.6598817" lon="16.3846217"><ele>535.0</ele><time>2026-04-07T10:32:51.791Z</time></trkpt><trkpt lat="38.6599367" lon="16.3848283"><ele>535.0</ele><time>2026-04-07T10:32:52.792Z</time></trkpt><trkpt lat="38.6599883" lon="16.38503"><ele>535.0</ele><time>2026-04-07T10:32:53.792Z</time></trkpt><trkpt lat="38.6600283" lon="16.3851967"><ele>535.0</ele><time>2026-04-07T10:32:54.792Z</time></trkpt><trkpt lat="38.660085" lon="16.3853283"><ele>535.0</ele><time>2026-04-07T10:32:55.791Z</time></trkpt><trkpt lat="38.660175" lon="16.3854233"><ele>536.0</ele><time>2026-04-07T10:32:56.792Z</time></trkpt><trkpt lat="38.6602833" lon="16.3854917"><ele>537.0</ele><time>2026-04-07T10:32:57.792Z</time></trkpt><trkpt lat="38.6603933" lon="16.3855633"><ele>538.0</ele><time>2026-04-07T10:32:58.791Z</time></trkpt><trkpt lat="38.6605033" lon="16.38565"><ele>539.0</ele><time>2026-04-07T10:32:59.791Z</time></trkpt><trkpt lat="38.6605817" lon="16.3857783"><ele>539.0</ele><time>2026-04-07T10:33:00.791Z</time></trkpt><trkpt lat="38.6606233" lon="16.38593"><ele>539.0</ele><time>2026-04-07T10:33:01.791Z</time></trkpt><trkpt lat="38.6606583" lon="16.3860933"><ele>539.0</ele><time>2026-04-07T10:33:02.791Z</time></trkpt><trkpt lat="38.6606883" lon="16.3862467"><ele>539.0</ele><time>2026-04-07T10:33:03.791Z</time></trkpt><trkpt lat="38.660725" lon="16.3863617"><ele>536.4</ele><time>2026-04-07T10:33:04.792Z</time></trkpt><trkpt lat="38.6607867" lon="16.3864333"><ele>533.8</ele><time>2026-04-07T10:33:05.791Z</time></trkpt><trkpt lat="38.66086" lon="16.386465"><ele>531.2</ele><time>2026-04-07T10:33:06.791Z</time></trkpt><trkpt lat="38.6609367" lon="16.386465"><ele>528.6</ele><time>2026-04-07T10:33:07.791Z</time></trkpt><trkpt lat="38.661035" lon="16.38642"><ele>526.0</ele><time>2026-04-07T10:33:08.791Z</time></trkpt><trkpt lat="38.6611567" lon="16.38635"><ele>531.3333333333334</ele><time>2026-04-07T10:33:09.791Z</time></trkpt><trkpt lat="38.6612933" lon="16.3862617"><ele>536.6666666666666</ele><time>2026-04-07T10:33:10.791Z</time></trkpt><trkpt lat="38.6614383" lon="16.3861583"><ele>542.0</ele><time>2026-04-07T10:33:11.791Z</time></trkpt><trkpt lat="38.66157" lon="16.38609"><ele>542.0</ele><time>2026-04-07T10:33:12.791Z</time></trkpt><trkpt lat="38.661695" lon="16.3860683"><ele>542.0</ele><time>2026-04-07T10:33:13.791Z</time></trkpt><trkpt lat="38.661815" lon="16.386085"><ele>542.0</ele><time>2026-04-07T10:33:14.791Z</time></trkpt><trkpt lat="38.6619333" lon="16.386155"><ele>542.0</ele><time>2026-04-07T10:33:15.792Z</time></trkpt><trkpt lat="38.6620567" lon="16.3862467"><ele>537.3333333333333</ele><time>2026-04-07T10:33:16.792Z</time></trkpt><trkpt lat="38.66219" lon="16.3863633"><ele>532.6666666666666</ele><time>2026-04-07T10:33:17.791Z</time></trkpt><trkpt lat="38.662325" lon="16.38649"><ele>528.0</ele><time>2026-04-07T10:33:18.791Z</time></trkpt><trkpt lat="38.6624483" lon="16.3866133"><ele>528.0</ele><time>2026-04-07T10:33:19.792Z</time></trkpt><trkpt lat="38.6625683" lon="16.3867083"><ele>528.0</ele><time>2026-04-07T10:33:20.791Z</time></trkpt><trkpt lat="38.6626983" lon="16.3867717"><ele>528.0</ele><time>2026-04-07T10:33:21.791Z</time></trkpt><trkpt lat="38.6628267" lon="16.3867867"><ele>528.0</ele><time>2026-04-07T10:33:22.791Z</time></trkpt><trkpt lat="38.662965" lon="16.38675"><ele>527.25</ele><time>2026-04-07T10:33:23.791Z</time></trkpt><trkpt lat="38.6631033" lon="16.38669"><ele>526.5</ele><time>2026-04-07T10:33:24.792Z</time></trkpt><trkpt lat="38.663225" lon="16.3866233"><ele>525.75</ele><time>2026-04-07T10:33:25.791Z</time></trkpt><trkpt lat="38.663345" lon="16.386595"><ele>525.0</ele><time>2026-04-07T10:33:26.791Z</time></trkpt><trkpt lat="38.66347" lon="16.386615"><ele>525.0</ele><time>2026-04-07T10:33:27.792Z</time></trkpt><trkpt lat="38.6635967" lon="16.3866917"><ele>525.0</ele><time>2026-04-07T10:33:28.791Z</time></trkpt><trkpt lat="38.663725" lon="16.38679"><ele>525.0</ele><time>2026-04-07T10:33:29.792Z</time></trkpt><trkpt lat="38.6638367" lon="16.3869183"><ele>525.0</ele><time>2026-04-07T10:33:30.792Z</time></trkpt><trkpt lat="38.6639383" lon="16.387055"><ele>525.25</ele><time>2026-04-07T10:33:31.791Z</time></trkpt><trkpt lat="38.664015" lon="16.3871933"><ele>525.5</ele><time>2026-04-07T10:33:32.792Z</time></trkpt><trkpt lat="38.66407" lon="16.3873433"><ele>525.75</ele><time>2026-04-07T10:33:33.792Z</time></trkpt><trkpt lat="38.6640983" lon="16.3875117"><ele>526.0</ele><time>2026-04-07T10:33:34.792Z</time></trkpt><trkpt lat="38.6641283" lon="16.3876867"><ele>526.0</ele><time>2026-04-07T10:33:35.791Z</time></trkpt><trkpt lat="38.6641683" lon="16.3878483"><ele>526.0</ele><time>2026-04-07T10:33:36.792Z</time></trkpt><trkpt lat="38.6642283" lon="16.388005"><ele>526.0</ele><time>2026-04-07T10:33:37.792Z</time></trkpt><trkpt lat="38.6642967" lon="16.3881567"><ele>526.0</ele><time>2026-04-07T10:33:38.792Z</time></trkpt><trkpt lat="38.6643767" lon="16.3882883"><ele>526.0</ele><time>2026-04-07T10:33:39.792Z</time></trkpt><trkpt lat="38.6644683" lon="16.3883917"><ele>526.0</ele><time>2026-04-07T10:33:40.792Z</time></trkpt><trkpt lat="38.6645683" lon="16.38847"><ele>526.0</ele><time>2026-04-07T10:33:41.791Z</time></trkpt><trkpt lat="38.664685" lon="16.3885"><ele>526.0</ele><time>2026-04-07T10:33:42.791Z</time></trkpt><trkpt lat="38.6648083" lon="16.388485"><ele>526.0</ele><time>2026-04-07T10:33:43.791Z</time></trkpt><trkpt lat="38.664935" lon="16.3884333"><ele>526.0</ele><time>2026-04-07T10:33:44.792Z</time></trkpt><trkpt lat="38.66507" lon="16.3883683"><ele>526.0</ele><time>2026-04-07T10:33:45.792Z</time></trkpt><trkpt lat="38.6652217" lon="16.3882983"><ele>526.0</ele><time>2026-04-07T10:33:46.792Z</time></trkpt><trkpt lat="38.6653583" lon="16.38826"><ele>526.0</ele><time>2026-04-07T10:33:47.792Z</time></trkpt><trkpt lat="38.6654883" lon="16.3882533"><ele>526.0</ele><time>2026-04-07T10:33:48.791Z</time></trkpt><trkpt lat="38.66559" lon="16.3882867"><ele>526.0</ele><time>2026-04-07T10:33:49.791Z</time></trkpt><trkpt lat="38.6656817" lon="16.3883633"><ele>526.0</ele><time>2026-04-07T10:33:50.792Z</time></trkpt><trkpt lat="38.6657417" lon="16.3884733"><ele>526.0</ele><time>2026-04-07T10:33:51.791Z</time></trkpt><trkpt lat="38.6657817" lon="16.3886233"><ele>526.0</ele><time>2026-04-07T10:33:52.791Z</time></trkpt><trkpt lat="38.6658217" lon="16.3887917"><ele>526.0</ele><time>2026-04-07T10:33:53.791Z</time></trkpt><trkpt lat="38.66586" lon="16.3889683"><ele>526.0</ele><time>2026-04-07T10:33:54.791Z</time></trkpt><trkpt lat="38.6659067" lon="16.389155"><ele>526.0</ele><time>2026-04-07T10:33:55.791Z</time></trkpt><trkpt lat="38.6659533" lon="16.38935"><ele>524.0</ele><time>2026-04-07T10:33:56.792Z</time></trkpt><trkpt lat="38.6659967" lon="16.3895567"><ele>522.0</ele><time>2026-04-07T10:33:57.791Z</time></trkpt><trkpt lat="38.6660467" lon="16.3897617"><ele>520.0</ele><time>2026-04-07T10:33:58.791Z</time></trkpt><trkpt lat="38.6660933" lon="16.3899633"><ele>519.6666666666667</ele><time>2026-04-07T10:33:59.792Z</time></trkpt><trkpt lat="38.666135" lon="16.3901533"><ele>519.3333333333334</ele><time>2026-04-07T10:34:00.791Z</time></trkpt><trkpt lat="38.666145" lon="16.3903567"><ele>519.0</ele><time>2026-04-07T10:34:01.792Z</time></trkpt><trkpt lat="38.6661333" lon="16.3905533"><ele>520.0</ele><time>2026-04-07T10:34:02.791Z</time></trkpt><trkpt lat="38.666105" lon="16.39075"><ele>521.0</ele><time>2026-04-07T10:34:03.791Z</time></trkpt><trkpt lat="38.6660617" lon="16.3909467"><ele>522.0</ele><time>2026-04-07T10:34:04.791Z</time></trkpt><trkpt lat="38.6660133" lon="16.3911517"><ele>522.75</ele><time>2026-04-07T10:34:05.791Z</time></trkpt><trkpt lat="38.6659867" lon="16.39135"><ele>523.5</ele><time>2026-04-07T10:34:06.791Z</time></trkpt><trkpt lat="38.6659767" lon="16.391545"><ele>524.25</ele><time>2026-04-07T10:34:07.792Z</time></trkpt><trkpt lat="38.6659617" lon="16.3917017"><ele>525.0</ele><time>2026-04-07T10:34:08.792Z</time></trkpt><trkpt lat="38.6659317" lon="16.39184"><ele>525.0</ele><time>2026-04-07T10:34:09.792Z</time></trkpt><trkpt lat="38.66588" lon="16.3919433"><ele>525.0</ele><time>2026-04-07T10:34:10.791Z</time></trkpt><trkpt lat="38.6658067" lon="16.3920033"><ele>525.0</ele><time>2026-04-07T10:34:11.792Z</time></trkpt><trkpt lat="38.6657117" lon="16.3920317"><ele>525.0</ele><time>2026-04-07T10:34:12.791Z</time></trkpt><trkpt lat="38.6656017" lon="16.3920333"><ele>525.0</ele><time>2026-04-07T10:34:13.791Z</time></trkpt><trkpt lat="38.665485" lon="16.392045"><ele>525.0</ele><time>2026-04-07T10:34:14.791Z</time></trkpt><trkpt lat="38.665375" lon="16.392075"><ele>525.0</ele><time>2026-04-07T10:34:15.792Z</time></trkpt><trkpt lat="38.6653017" lon="16.3921167"><ele>525.0</ele><time>2026-04-07T10:34:16.792Z</time></trkpt><trkpt lat="38.66525" lon="16.392205"><ele>525.0</ele><time>2026-04-07T10:34:18.791Z</time></trkpt><trkpt lat="38.6652967" lon="16.39228"><ele>525.0</ele><time>2026-04-07T10:34:20.791Z</time></trkpt><trkpt lat="38.665425" lon="16.39235"><ele>525.8</ele><time>2026-04-07T10:34:22.791Z</time></trkpt><trkpt lat="38.6655067" lon="16.3923983"><ele>526.6</ele><time>2026-04-07T10:34:23.791Z</time></trkpt><trkpt lat="38.66558" lon="16.3924833"><ele>527.4</ele><time>2026-04-07T10:34:24.791Z</time></trkpt><trkpt lat="38.6656517" lon="16.3925883"><ele>528.2</ele><time>2026-04-07T10:34:25.791Z</time></trkpt><trkpt lat="38.6657217" lon="16.3927017"><ele>529.0</ele><time>2026-04-07T10:34:26.791Z</time></trkpt><trkpt lat="38.6657983" lon="16.3928317"><ele>529.0</ele><time>2026-04-07T10:34:27.791Z</time></trkpt><trkpt lat="38.6658767" lon="16.3929433"><ele>529.0</ele><time>2026-04-07T10:34:28.792Z</time></trkpt><trkpt lat="38.66596" lon="16.3930217"><ele>529.0</ele><time>2026-04-07T10:34:29.791Z</time></trkpt><trkpt lat="38.66608" lon="16.3930567"><ele>529.0</ele><time>2026-04-07T10:34:30.791Z</time></trkpt><trkpt lat="38.6662267" lon="16.39307"><ele>532.0</ele><time>2026-04-07T10:34:31.791Z</time></trkpt><trkpt lat="38.6663633" lon="16.3930767"><ele>535.0</ele><time>2026-04-07T10:34:32.791Z</time></trkpt><trkpt lat="38.66648" lon="16.3930983"><ele>538.0</ele><time>2026-04-07T10:34:33.791Z</time></trkpt><trkpt lat="38.66658" lon="16.3931533"><ele>541.0</ele><time>2026-04-07T10:34:34.792Z</time></trkpt><trkpt lat="38.6666617" lon="16.3932417"><ele>541.0</ele><time>2026-04-07T10:34:35.791Z</time></trkpt><trkpt lat="38.666735" lon="16.3933767"><ele>541.0</ele><time>2026-04-07T10:34:36.791Z</time></trkpt><trkpt lat="38.6667917" lon="16.393525"><ele>541.0</ele><time>2026-04-07T10:34:37.791Z</time></trkpt><trkpt lat="38.6668533" lon="16.3936817"><ele>541.0</ele><time>2026-04-07T10:34:38.792Z</time></trkpt><trkpt lat="38.666925" lon="16.3938417"><ele>542.0</ele><time>2026-04-07T10:34:39.791Z</time></trkpt><trkpt lat="38.66701" lon="16.39402"><ele>543.0</ele><time>2026-04-07T10:34:40.792Z</time></trkpt><trkpt lat="38.6671067" lon="16.3942"><ele>544.0</ele><time>2026-04-07T10:34:41.791Z</time></trkpt><trkpt lat="38.6672117" lon="16.3943783"><ele>544.0</ele><time>2026-04-07T10:34:42.792Z</time></trkpt><trkpt lat="38.66731" lon="16.3945567"><ele>544.0</ele><time>2026-04-07T10:34:43.792Z</time></trkpt><trkpt lat="38.6674083" lon="16.3947333"><ele>544.0</ele><time>2026-04-07T10:34:44.791Z</time></trkpt><trkpt lat="38.6675117" lon="16.3949"><ele>544.0</ele><time>2026-04-07T10:34:45.791Z</time></trkpt><trkpt lat="38.6676417" lon="16.395045"><ele>544.0</ele><time>2026-04-07T10:34:46.792Z</time></trkpt><trkpt lat="38.6677833" lon="16.3951617"><ele>544.0</ele><time>2026-04-07T10:34:47.791Z</time></trkpt><trkpt lat="38.6679317" lon="16.3952683"><ele>544.0</ele><time>2026-04-07T10:34:48.792Z</time></trkpt><trkpt lat="38.6680683" lon="16.39539"><ele>544.0</ele><time>2026-04-07T10:34:49.792Z</time></trkpt><trkpt lat="38.66819" lon="16.395535"><ele>544.0</ele><time>2026-04-07T10:34:50.792Z</time></trkpt><trkpt lat="38.6682967" lon="16.3957017"><ele>543.6666666666667</ele><time>2026-04-07T10:34:51.792Z</time></trkpt><trkpt lat="38.6683883" lon="16.3958817"><ele>543.3333333333334</ele><time>2026-04-07T10:34:52.791Z</time></trkpt><trkpt lat="38.6684733" lon="16.3960767"><ele>543.0</ele><time>2026-04-07T10:34:53.791Z</time></trkpt><trkpt lat="38.6685433" lon="16.3962767"><ele>544.0</ele><time>2026-04-07T10:34:54.791Z</time></trkpt><trkpt lat="38.6686083" lon="16.3964833"><ele>545.0</ele><time>2026-04-07T10:34:55.791Z</time></trkpt><trkpt lat="38.6686667" lon="16.396685"><ele>546.0</ele><time>2026-04-07T10:34:56.791Z</time></trkpt><trkpt lat="38.6687183" lon="16.3968667"><ele>546.3333333333334</ele><time>2026-04-07T10:34:57.791Z</time></trkpt><trkpt lat="38.6687683" lon="16.3970483"><ele>546.6666666666667</ele><time>2026-04-07T10:34:58.792Z</time></trkpt><trkpt lat="38.6688333" lon="16.3972233"><ele>547.0</ele><time>2026-04-07T10:34:59.791Z</time></trkpt><trkpt lat="38.6689017" lon="16.3974"><ele>547.0</ele><time>2026-04-07T10:35:00.791Z</time></trkpt><trkpt lat="38.6689817" lon="16.39757"><ele>547.0</ele><time>2026-04-07T10:35:01.791Z</time></trkpt><trkpt lat="38.66907" lon="16.3977417"><ele>547.0</ele><time>2026-04-07T10:35:02.791Z</time></trkpt><trkpt lat="38.6691733" lon="16.3979083"><ele>546.3333333333334</ele><time>2026-04-07T10:35:03.791Z</time></trkpt><trkpt lat="38.66929" lon="16.3980717"><ele>545.6666666666666</ele><time>2026-04-07T10:35:04.792Z</time></trkpt><trkpt lat="38.6694167" lon="16.398225"><ele>545.0</ele><time>2026-04-07T10:35:05.791Z</time></trkpt><trkpt lat="38.6695433" lon="16.398365"><ele>542.6666666666666</ele><time>2026-04-07T10:35:06.791Z</time></trkpt><trkpt lat="38.6696783" lon="16.3985117"><ele>540.3333333333334</ele><time>2026-04-07T10:35:07.791Z</time></trkpt><trkpt lat="38.6698167" lon="16.3986517"><ele>538.0</ele><time>2026-04-07T10:35:08.791Z</time></trkpt><trkpt lat="38.6699483" lon="16.3987967"><ele>538.3333333333334</ele><time>2026-04-07T10:35:09.792Z</time></trkpt><trkpt lat="38.6700933" lon="16.3989283"><ele>538.6666666666666</ele><time>2026-04-07T10:35:10.791Z</time></trkpt><trkpt lat="38.6702267" lon="16.3990667"><ele>539.0</ele><time>2026-04-07T10:35:11.791Z</time></trkpt><trkpt lat="38.67037" lon="16.399195"><ele>537.0</ele><time>2026-04-07T10:35:12.792Z</time></trkpt><trkpt lat="38.67053" lon="16.399305"><ele>535.0</ele><time>2026-04-07T10:35:13.791Z</time></trkpt><trkpt lat="38.6707017" lon="16.3994133"><ele>533.0</ele><time>2026-04-07T10:35:14.792Z</time></trkpt><trkpt lat="38.6708783" lon="16.3995267"><ele>533.0</ele><time>2026-04-07T10:35:15.792Z</time></trkpt><trkpt lat="38.6710433" lon="16.3996417"><ele>533.0</ele><time>2026-04-07T10:35:16.791Z</time></trkpt><trkpt lat="38.6712017" lon="16.3997567"><ele>533.0</ele><time>2026-04-07T10:35:17.791Z</time></trkpt><trkpt lat="38.671355" lon="16.399895"><ele>532.3333333333333</ele><time>2026-04-07T10:35:18.791Z</time></trkpt><trkpt lat="38.6715067" lon="16.400055"><ele>531.6666666666666</ele><time>2026-04-07T10:35:19.791Z</time></trkpt><trkpt lat="38.671645" lon="16.4002183"><ele>531.0</ele><time>2026-04-07T10:35:20.791Z</time></trkpt><trkpt lat="38.6717867" lon="16.4003733"><ele>531.0</ele><time>2026-04-07T10:35:21.791Z</time></trkpt><trkpt lat="38.6719233" lon="16.4005217"><ele>531.0</ele><time>2026-04-07T10:35:22.791Z</time></trkpt><trkpt lat="38.672055" lon="16.4006583"><ele>531.0</ele><time>2026-04-07T10:35:23.791Z</time></trkpt><trkpt lat="38.6721917" lon="16.4007933"><ele>531.0</ele><time>2026-04-07T10:35:24.791Z</time></trkpt><trkpt lat="38.6723267" lon="16.4009217"><ele>531.0</ele><time>2026-04-07T10:35:25.791Z</time></trkpt><trkpt lat="38.6724667" lon="16.4010483"><ele>531.0</ele><time>2026-04-07T10:35:26.791Z</time></trkpt><trkpt lat="38.6725867" lon="16.4011667"><ele>531.0</ele><time>2026-04-07T10:35:27.791Z</time></trkpt><trkpt lat="38.6726983" lon="16.4012867"><ele>531.0</ele><time>2026-04-07T10:35:28.792Z</time></trkpt><trkpt lat="38.6728217" lon="16.4013917"><ele>531.0</ele><time>2026-04-07T10:35:29.791Z</time></trkpt><trkpt lat="38.6729383" lon="16.4014883"><ele>531.0</ele><time>2026-04-07T10:35:30.792Z</time></trkpt><trkpt lat="38.673065" lon="16.4015883"><ele>529.75</ele><time>2026-04-07T10:35:31.792Z</time></trkpt><trkpt lat="38.673195" lon="16.401685"><ele>528.5</ele><time>2026-04-07T10:35:32.791Z</time></trkpt><trkpt lat="38.6733033" lon="16.4017917"><ele>527.25</ele><time>2026-04-07T10:35:33.792Z</time></trkpt><trkpt lat="38.6734" lon="16.401905"><ele>526.0</ele><time>2026-04-07T10:35:34.791Z</time></trkpt><trkpt lat="38.6734883" lon="16.4020067"><ele>526.0</ele><time>2026-04-07T10:35:35.791Z</time></trkpt><trkpt lat="38.6735617" lon="16.4021083"><ele>526.0</ele><time>2026-04-07T10:35:36.791Z</time></trkpt><trkpt lat="38.6736267" lon="16.4022033"><ele>526.0</ele><time>2026-04-07T10:35:37.792Z</time></trkpt><trkpt lat="38.673675" lon="16.4022833"><ele>526.0</ele><time>2026-04-07T10:35:38.791Z</time></trkpt><trkpt lat="38.673745" lon="16.4024183"><ele>526.0</ele><time>2026-04-07T10:35:40.791Z</time></trkpt><trkpt lat="38.67378" lon="16.4024867"><ele>524.8</ele><time>2026-04-07T10:35:41.792Z</time></trkpt><trkpt lat="38.67384" lon="16.40254"><ele>523.6</ele><time>2026-04-07T10:35:42.791Z</time></trkpt><trkpt lat="38.67392" lon="16.4026033"><ele>522.4</ele><time>2026-04-07T10:35:43.791Z</time></trkpt><trkpt lat="38.6740333" lon="16.402665"><ele>521.2</ele><time>2026-04-07T10:35:44.791Z</time></trkpt><trkpt lat="38.674155" lon="16.40274"><ele>520.0</ele><time>2026-04-07T10:35:45.792Z</time></trkpt><trkpt lat="38.67429" lon="16.4028133"><ele>520.0</ele><time>2026-04-07T10:35:46.791Z</time></trkpt><trkpt lat="38.6744317" lon="16.4028917"><ele>520.0</ele><time>2026-04-07T10:35:47.791Z</time></trkpt><trkpt lat="38.6745733" lon="16.40297"><ele>520.0</ele><time>2026-04-07T10:35:48.791Z</time></trkpt><trkpt lat="38.6747" lon="16.4030567"><ele>519.5</ele><time>2026-04-07T10:35:49.791Z</time></trkpt><trkpt lat="38.67482" lon="16.4031533"><ele>519.0</ele><time>2026-04-07T10:35:50.791Z</time></trkpt><trkpt lat="38.6749283" lon="16.4032517"><ele>518.5</ele><time>2026-04-07T10:35:51.791Z</time></trkpt><trkpt lat="38.6749917" lon="16.4033483"><ele>518.0</ele><time>2026-04-07T10:35:52.791Z</time></trkpt><trkpt lat="38.6750267" lon="16.4034417"><ele>518.0</ele><time>2026-04-07T10:35:53.792Z</time></trkpt><trkpt lat="38.6750467" lon="16.4035217"><ele>518.0</ele><time>2026-04-07T10:35:54.791Z</time></trkpt><trkpt lat="38.6751283" lon="16.4036117"><ele>518.0</ele><time>2026-04-07T10:35:56.791Z</time></trkpt><trkpt lat="38.6752333" lon="16.4036433"><ele>518.0</ele><time>2026-04-07T10:35:58.791Z</time></trkpt><trkpt lat="38.6753083" lon="16.4036933"><ele>518.0</ele><time>2026-04-07T10:36:00.792Z</time></trkpt><trkpt lat="38.6754" lon="16.4037983"><ele>516.75</ele><time>2026-04-07T10:36:02.791Z</time></trkpt><trkpt lat="38.675465" lon="16.4038933"><ele>515.5</ele><time>2026-04-07T10:36:03.792Z</time></trkpt><trkpt lat="38.6755483" lon="16.4039933"><ele>514.25</ele><time>2026-04-07T10:36:04.791Z</time></trkpt><trkpt lat="38.675635" lon="16.4041067"><ele>513.0</ele><time>2026-04-07T10:36:05.791Z</time></trkpt><trkpt lat="38.6757267" lon="16.4042217"><ele>513.0</ele><time>2026-04-07T10:36:06.791Z</time></trkpt><trkpt lat="38.6758217" lon="16.4043317"><ele>513.0</ele><time>2026-04-07T10:36:07.792Z</time></trkpt><trkpt lat="38.67592" lon="16.4044483"><ele>513.0</ele><time>2026-04-07T10:36:08.791Z</time></trkpt><trkpt lat="38.6760133" lon="16.4045517"><ele>513.0</ele><time>2026-04-07T10:36:09.791Z</time></trkpt><trkpt lat="38.6761" lon="16.4046567"><ele>511.75</ele><time>2026-04-07T10:36:10.791Z</time></trkpt><trkpt lat="38.6761867" lon="16.4047717"><ele>510.5</ele><time>2026-04-07T10:36:11.792Z</time></trkpt><trkpt lat="38.6762767" lon="16.4048967"><ele>509.25</ele><time>2026-04-07T10:36:12.791Z</time></trkpt><trkpt lat="38.67638" lon="16.40504"><ele>508.0</ele><time>2026-04-07T10:36:13.791Z</time></trkpt><trkpt lat="38.6765033" lon="16.4052183"><ele>508.0</ele><time>2026-04-07T10:36:14.791Z</time></trkpt><trkpt lat="38.6766383" lon="16.4054283"><ele>508.0</ele><time>2026-04-07T10:36:15.791Z</time></trkpt><trkpt lat="38.6767717" lon="16.405645"><ele>508.0</ele><time>2026-04-07T10:36:16.792Z</time></trkpt><trkpt lat="38.6769033" lon="16.405825"><ele>510.6666666666667</ele><time>2026-04-07T10:36:17.791Z</time></trkpt><trkpt lat="38.6770367" lon="16.4059833"><ele>513.3333333333334</ele><time>2026-04-07T10:36:18.791Z</time></trkpt><trkpt lat="38.6771733" lon="16.406115"><ele>516.0</ele><time>2026-04-07T10:36:19.792Z</time></trkpt><trkpt lat="38.6773117" lon="16.4062183"><ele>516.0</ele><time>2026-04-07T10:36:20.791Z</time></trkpt><trkpt lat="38.6774667" lon="16.406305"><ele>516.0</ele><time>2026-04-07T10:36:21.792Z</time></trkpt><trkpt lat="38.67763" lon="16.4063617"><ele>516.0</ele><time>2026-04-07T10:36:22.792Z</time></trkpt><trkpt lat="38.6777667" lon="16.4064233"><ele>518.75</ele><time>2026-04-07T10:36:23.791Z</time></trkpt><trkpt lat="38.677905" lon="16.40647"><ele>521.5</ele><time>2026-04-07T10:36:24.791Z</time></trkpt><trkpt lat="38.678035" lon="16.4065117"><ele>524.25</ele><time>2026-04-07T10:36:25.791Z</time></trkpt><trkpt lat="38.6781617" lon="16.406535"><ele>527.0</ele><time>2026-04-07T10:36:26.791Z</time></trkpt><trkpt lat="38.6783067" lon="16.4065517"><ele>527.0</ele><time>2026-04-07T10:36:27.791Z</time></trkpt><trkpt lat="38.6784667" lon="16.4065583"><ele>527.0</ele><time>2026-04-07T10:36:28.791Z</time></trkpt><trkpt lat="38.6786183" lon="16.406565"><ele>527.0</ele><time>2026-04-07T10:36:29.791Z</time></trkpt><trkpt lat="38.678765" lon="16.406555"><ele>527.25</ele><time>2026-04-07T10:36:30.791Z</time></trkpt><trkpt lat="38.6789083" lon="16.4065533"><ele>527.5</ele><time>2026-04-07T10:36:31.791Z</time></trkpt><trkpt lat="38.6790617" lon="16.40657"><ele>527.75</ele><time>2026-04-07T10:36:32.791Z</time></trkpt><trkpt lat="38.6792083" lon="16.4066183"><ele>528.0</ele><time>2026-04-07T10:36:33.791Z</time></trkpt><trkpt lat="38.6793767" lon="16.4066633"><ele>526.0</ele><time>2026-04-07T10:36:34.792Z</time></trkpt><trkpt lat="38.679555" lon="16.4067133"><ele>524.0</ele><time>2026-04-07T10:36:35.791Z</time></trkpt><trkpt lat="38.67972" lon="16.40676"><ele>522.0</ele><time>2026-04-07T10:36:36.792Z</time></trkpt><trkpt lat="38.67989" lon="16.4068017"><ele>522.0</ele><time>2026-04-07T10:36:37.791Z</time></trkpt><trkpt lat="38.68005" lon="16.4068567"><ele>522.0</ele><time>2026-04-07T10:36:38.791Z</time></trkpt><trkpt lat="38.6802017" lon="16.4069317"><ele>522.0</ele><time>2026-04-07T10:36:39.792Z</time></trkpt><trkpt lat="38.6803567" lon="16.4070233"><ele>522.0</ele><time>2026-04-07T10:36:40.791Z</time></trkpt><trkpt lat="38.6804917" lon="16.4071217"><ele>522.0</ele><time>2026-04-07T10:36:41.791Z</time></trkpt><trkpt lat="38.6806083" lon="16.4072167"><ele>522.0</ele><time>2026-04-07T10:36:42.791Z</time></trkpt><trkpt lat="38.68072" lon="16.4073083"><ele>522.0</ele><time>2026-04-07T10:36:43.791Z</time></trkpt><trkpt lat="38.6808217" lon="16.4074133"><ele>522.0</ele><time>2026-04-07T10:36:44.792Z</time></trkpt><trkpt lat="38.680915" lon="16.407535"><ele>522.0</ele><time>2026-04-07T10:36:45.791Z</time></trkpt><trkpt lat="38.681015" lon="16.407665"><ele>522.0</ele><time>2026-04-07T10:36:46.792Z</time></trkpt><trkpt lat="38.681115" lon="16.4077933"><ele>522.0</ele><time>2026-04-07T10:36:47.791Z</time></trkpt><trkpt lat="38.6812233" lon="16.407925"><ele>522.8000000000001</ele><time>2026-04-07T10:36:48.792Z</time></trkpt><trkpt lat="38.6813283" lon="16.408035"><ele>523.6</ele><time>2026-04-07T10:36:49.791Z</time></trkpt><trkpt lat="38.6814267" lon="16.408125"><ele>524.4000000000001</ele><time>2026-04-07T10:36:50.791Z</time></trkpt><trkpt lat="38.68151" lon="16.4081883"><ele>525.2</ele><time>2026-04-07T10:36:51.792Z</time></trkpt><trkpt lat="38.6815767" lon="16.408225"><ele>526.0</ele><time>2026-04-07T10:36:52.791Z</time></trkpt><trkpt lat="38.6816417" lon="16.4082533"><ele>526.0</ele><time>2026-04-07T10:36:54.792Z</time></trkpt><trkpt lat="38.68174" lon="16.4081783"><ele>526.0</ele><time>2026-04-07T10:36:57.791Z</time></trkpt><trkpt lat="38.6817883" lon="16.4081017"><ele>526.0</ele><time>2026-04-07T10:36:58.792Z</time></trkpt><trkpt lat="38.6818567" lon="16.408005"><ele>526.0</ele><time>2026-04-07T10:36:59.791Z</time></trkpt><trkpt lat="38.681935" lon="16.4079017"><ele>526.0</ele><time>2026-04-07T10:37:00.792Z</time></trkpt><trkpt lat="38.6820083" lon="16.4077717"><ele>524.0</ele><time>2026-04-07T10:37:01.792Z</time></trkpt><trkpt lat="38.6820733" lon="16.40765"><ele>522.0</ele><time>2026-04-07T10:37:02.791Z</time></trkpt><trkpt lat="38.682125" lon="16.40753"><ele>520.0</ele><time>2026-04-07T10:37:03.791Z</time></trkpt><trkpt lat="38.6821833" lon="16.4074167"><ele>518.0</ele><time>2026-04-07T10:37:04.791Z</time></trkpt><trkpt lat="38.6822383" lon="16.4073067"><ele>516.0</ele><time>2026-04-07T10:37:05.792Z</time></trkpt><trkpt lat="38.6823" lon="16.4072133"><ele>514.8333333333334</ele><time>2026-04-07T10:37:06.791Z</time></trkpt><trkpt lat="38.682365" lon="16.407125"><ele>513.6666666666666</ele><time>2026-04-07T10:37:07.791Z</time></trkpt><trkpt lat="38.682425" lon="16.4070367"><ele>512.5</ele><time>2026-04-07T10:37:08.791Z</time></trkpt><trkpt lat="38.6824817" lon="16.4069417"><ele>511.3333333333333</ele><time>2026-04-07T10:37:09.791Z</time></trkpt><trkpt lat="38.6825333" lon="16.4068533"><ele>510.16666666666663</ele><time>2026-04-07T10:37:10.791Z</time></trkpt><trkpt lat="38.68258" lon="16.40678"><ele>509.0</ele><time>2026-04-07T10:37:11.791Z</time></trkpt><trkpt lat="38.682625" lon="16.4067233"><ele>509.0</ele><time>2026-04-07T10:37:12.791Z</time></trkpt><trkpt lat="38.6827183" lon="16.4066367"><ele>509.0</ele><time>2026-04-07T10:37:14.791Z</time></trkpt><trkpt lat="38.6828317" lon="16.4066033"><ele>509.0</ele><time>2026-04-07T10:37:16.791Z</time></trkpt><trkpt lat="38.6829433" lon="16.4066483"><ele>509.0</ele><time>2026-04-07T10:37:18.791Z</time></trkpt><trkpt lat="38.6830483" lon="16.4067317"><ele>507.8333333333333</ele><time>2026-04-07T10:37:20.791Z</time></trkpt><trkpt lat="38.6831317" lon="16.4067533"><ele>506.66666666666663</ele><time>2026-04-07T10:37:22.791Z</time></trkpt><trkpt lat="38.683195" lon="16.4067233"><ele>505.5</ele><time>2026-04-07T10:37:24.791Z</time></trkpt><trkpt lat="38.6832633" lon="16.406635"><ele>504.33333333333337</ele><time>2026-04-07T10:37:26.791Z</time></trkpt><trkpt lat="38.68331" lon="16.4065583"><ele>503.1666666666667</ele><time>2026-04-07T10:37:27.791Z</time></trkpt><trkpt lat="38.683375" lon="16.4064917"><ele>502.0</ele><time>2026-04-07T10:37:28.792Z</time></trkpt><trkpt lat="38.68345" lon="16.4064267"><ele>502.00000000000006</ele><time>2026-04-07T10:37:29.791Z</time></trkpt><trkpt lat="38.6835317" lon="16.40637"><ele>502.0</ele><time>2026-04-07T10:37:30.791Z</time></trkpt><trkpt lat="38.6836117" lon="16.406335"><ele>502.0</ele><time>2026-04-07T10:37:31.791Z</time></trkpt><trkpt lat="38.683695" lon="16.4063183"><ele>502.0</ele><time>2026-04-07T10:37:32.792Z</time></trkpt><trkpt lat="38.6837767" lon="16.4063383"><ele>502.00000000000006</ele><time>2026-04-07T10:37:33.791Z</time></trkpt><trkpt lat="38.6838517" lon="16.4063917"><ele>502.0</ele><time>2026-04-07T10:37:34.791Z</time></trkpt><trkpt lat="38.683925" lon="16.406475"><ele>500.0</ele><time>2026-04-07T10:37:35.792Z</time></trkpt><trkpt lat="38.6839933" lon="16.4065833"><ele>498.0</ele><time>2026-04-07T10:37:36.792Z</time></trkpt><trkpt lat="38.6840517" lon="16.4067167"><ele>496.0</ele><time>2026-04-07T10:37:37.791Z</time></trkpt><trkpt lat="38.6841" lon="16.4068717"><ele>494.0</ele><time>2026-04-07T10:37:38.791Z</time></trkpt><trkpt lat="38.6841567" lon="16.40703"><ele>493.0</ele><time>2026-04-07T10:37:39.791Z</time></trkpt><trkpt lat="38.684215" lon="16.407195"><ele>492.0</ele><time>2026-04-07T10:37:40.792Z</time></trkpt><trkpt lat="38.6842733" lon="16.40737"><ele>491.0</ele><time>2026-04-07T10:37:41.791Z</time></trkpt><trkpt lat="38.6843383" lon="16.4075617"><ele>491.0</ele><time>2026-04-07T10:37:42.791Z</time></trkpt><trkpt lat="38.6844033" lon="16.4077683"><ele>491.0</ele><time>2026-04-07T10:37:43.791Z</time></trkpt><trkpt lat="38.6844533" lon="16.4079833"><ele>491.0</ele><time>2026-04-07T10:37:44.791Z</time></trkpt><trkpt lat="38.6844967" lon="16.4082067"><ele>492.0</ele><time>2026-04-07T10:37:45.791Z</time></trkpt><trkpt lat="38.6845333" lon="16.4084267"><ele>493.0</ele><time>2026-04-07T10:37:46.791Z</time></trkpt><trkpt lat="38.6845733" lon="16.4086283"><ele>494.0</ele><time>2026-04-07T10:37:47.791Z</time></trkpt><trkpt lat="38.6846183" lon="16.4088033"><ele>491.0</ele><time>2026-04-07T10:37:48.791Z</time></trkpt><trkpt lat="38.6846583" lon="16.40895"><ele>488.0</ele><time>2026-04-07T10:37:49.791Z</time></trkpt><trkpt lat="38.6847033" lon="16.40907"><ele>485.0</ele><time>2026-04-07T10:37:50.791Z</time></trkpt><trkpt lat="38.6847667" lon="16.40916"><ele>482.0</ele><time>2026-04-07T10:37:51.791Z</time></trkpt><trkpt lat="38.684855" lon="16.4092083"><ele>479.0</ele><time>2026-04-07T10:37:52.791Z</time></trkpt><trkpt lat="38.68496" lon="16.4092183"><ele>479.0</ele><time>2026-04-07T10:37:53.792Z</time></trkpt><trkpt lat="38.6850667" lon="16.4092067"><ele>479.0</ele><time>2026-04-07T10:37:54.792Z</time></trkpt><trkpt lat="38.68518" lon="16.4091717"><ele>479.0</ele><time>2026-04-07T10:37:55.791Z</time></trkpt><trkpt lat="38.6853" lon="16.409145"><ele>479.0</ele><time>2026-04-07T10:37:56.791Z</time></trkpt><trkpt lat="38.6854117" lon="16.4091533"><ele>477.6</ele><time>2026-04-07T10:37:57.791Z</time></trkpt><trkpt lat="38.68552" lon="16.40917"><ele>476.2</ele><time>2026-04-07T10:37:58.791Z</time></trkpt><trkpt lat="38.6856367" lon="16.409175"><ele>474.80000000000007</ele><time>2026-04-07T10:37:59.792Z</time></trkpt><trkpt lat="38.68574" lon="16.4091517"><ele>473.40000000000003</ele><time>2026-04-07T10:38:00.791Z</time></trkpt><trkpt lat="38.685835" lon="16.4090883"><ele>472.0</ele><time>2026-04-07T10:38:01.791Z</time></trkpt><trkpt lat="38.6859267" lon="16.4089817"><ele>472.0</ele><time>2026-04-07T10:38:02.791Z</time></trkpt><trkpt lat="38.6860133" lon="16.4088633"><ele>472.0</ele><time>2026-04-07T10:38:03.791Z</time></trkpt><trkpt lat="38.68609" lon="16.4087433"><ele>472.0</ele><time>2026-04-07T10:38:04.792Z</time></trkpt><trkpt lat="38.6861667" lon="16.4086083"><ele>472.0</ele><time>2026-04-07T10:38:05.791Z</time></trkpt><trkpt lat="38.6862283" lon="16.408475"><ele>470.0</ele><time>2026-04-07T10:38:06.791Z</time></trkpt><trkpt lat="38.6862833" lon="16.408335"><ele>468.0</ele><time>2026-04-07T10:38:07.791Z</time></trkpt><trkpt lat="38.6863283" lon="16.4082033"><ele>466.0</ele><time>2026-04-07T10:38:08.792Z</time></trkpt><trkpt lat="38.686375" lon="16.4080633"><ele>464.0</ele><time>2026-04-07T10:38:09.791Z</time></trkpt><trkpt lat="38.6864167" lon="16.4079167"><ele>464.0</ele><time>2026-04-07T10:38:10.791Z</time></trkpt><trkpt lat="38.6864533" lon="16.40777"><ele>464.0</ele><time>2026-04-07T10:38:11.792Z</time></trkpt><trkpt lat="38.6864767" lon="16.4076233"><ele>464.0</ele><time>2026-04-07T10:38:12.791Z</time></trkpt><trkpt lat="38.6864767" lon="16.4074633"><ele>464.0</ele><time>2026-04-07T10:38:13.791Z</time></trkpt><trkpt lat="38.6864567" lon="16.4073083"><ele>463.0</ele><time>2026-04-07T10:38:14.791Z</time></trkpt><trkpt lat="38.686415" lon="16.4071583"><ele>462.0</ele><time>2026-04-07T10:38:15.791Z</time></trkpt><trkpt lat="38.68636" lon="16.4070017"><ele>461.0</ele><time>2026-04-07T10:38:16.791Z</time></trkpt><trkpt lat="38.686325" lon="16.4068483"><ele>460.0</ele><time>2026-04-07T10:38:17.791Z</time></trkpt><trkpt lat="38.6863083" lon="16.40669"><ele>460.0</ele><time>2026-04-07T10:38:18.791Z</time></trkpt><trkpt lat="38.686315" lon="16.4065467"><ele>460.0</ele><time>2026-04-07T10:38:19.791Z</time></trkpt><trkpt lat="38.6863217" lon="16.4064083"><ele>460.0</ele><time>2026-04-07T10:38:20.791Z</time></trkpt><trkpt lat="38.6863333" lon="16.4062733"><ele>460.0</ele><time>2026-04-07T10:38:21.791Z</time></trkpt><trkpt lat="38.6863383" lon="16.40614"><ele>460.0</ele><time>2026-04-07T10:38:22.791Z</time></trkpt><trkpt lat="38.6863267" lon="16.4059983"><ele>459.0</ele><time>2026-04-07T10:38:23.791Z</time></trkpt><trkpt lat="38.6863117" lon="16.4058433"><ele>458.0</ele><time>2026-04-07T10:38:24.792Z</time></trkpt><trkpt lat="38.686295" lon="16.40568"><ele>457.0</ele><time>2026-04-07T10:38:25.791Z</time></trkpt><trkpt lat="38.68629" lon="16.40552"><ele>456.0</ele><time>2026-04-07T10:38:26.791Z</time></trkpt><trkpt lat="38.6863" lon="16.4053533"><ele>455.75</ele><time>2026-04-07T10:38:27.791Z</time></trkpt><trkpt lat="38.6863167" lon="16.4051867"><ele>455.5</ele><time>2026-04-07T10:38:28.791Z</time></trkpt><trkpt lat="38.686325" lon="16.4050233"><ele>455.25</ele><time>2026-04-07T10:38:29.791Z</time></trkpt><trkpt lat="38.686305" lon="16.404845"><ele>455.0</ele><time>2026-04-07T10:38:30.791Z</time></trkpt><trkpt lat="38.6862667" lon="16.4046717"><ele>453.5</ele><time>2026-04-07T10:38:31.792Z</time></trkpt><trkpt lat="38.686215" lon="16.404505"><ele>452.0</ele><time>2026-04-07T10:38:32.791Z</time></trkpt><trkpt lat="38.68616" lon="16.404345"><ele>450.5</ele><time>2026-04-07T10:38:33.791Z</time></trkpt><trkpt lat="38.6861133" lon="16.404185"><ele>449.0</ele><time>2026-04-07T10:38:34.792Z</time></trkpt><trkpt lat="38.68607" lon="16.40403"><ele>451.2</ele><time>2026-04-07T10:38:35.791Z</time></trkpt><trkpt lat="38.6860233" lon="16.403885"><ele>453.4</ele><time>2026-04-07T10:38:36.791Z</time></trkpt><trkpt lat="38.68598" lon="16.403755"><ele>455.6</ele><time>2026-04-07T10:38:37.791Z</time></trkpt><trkpt lat="38.6859483" lon="16.4036217"><ele>457.8</ele><time>2026-04-07T10:38:38.791Z</time></trkpt><trkpt lat="38.6859267" lon="16.4035033"><ele>460.0</ele><time>2026-04-07T10:38:39.791Z</time></trkpt><trkpt lat="38.68594" lon="16.4033933"><ele>460.0</ele><time>2026-04-07T10:38:40.791Z</time></trkpt><trkpt lat="38.6859733" lon="16.4032933"><ele>460.0</ele><time>2026-04-07T10:38:41.791Z</time></trkpt><trkpt lat="38.6860317" lon="16.4032233"><ele>460.0</ele><time>2026-04-07T10:38:42.791Z</time></trkpt><trkpt lat="38.6861117" lon="16.40318"><ele>460.0</ele><time>2026-04-07T10:38:43.791Z</time></trkpt><trkpt lat="38.6862083" lon="16.4031633"><ele>460.0</ele><time>2026-04-07T10:38:44.791Z</time></trkpt><trkpt lat="38.68633" lon="16.4031483"><ele>457.25</ele><time>2026-04-07T10:38:45.791Z</time></trkpt><trkpt lat="38.686455" lon="16.4031283"><ele>454.5</ele><time>2026-04-07T10:38:46.791Z</time></trkpt><trkpt lat="38.6865883" lon="16.403105"><ele>451.75</ele><time>2026-04-07T10:38:47.791Z</time></trkpt><trkpt lat="38.6867333" lon="16.403085"><ele>449.0</ele><time>2026-04-07T10:38:48.791Z</time></trkpt><trkpt lat="38.6868783" lon="16.4030567"><ele>449.25</ele><time>2026-04-07T10:38:49.792Z</time></trkpt><trkpt lat="38.6870133" lon="16.40304"><ele>449.5</ele><time>2026-04-07T10:38:50.791Z</time></trkpt><trkpt lat="38.6871483" lon="16.40304"><ele>449.75</ele><time>2026-04-07T10:38:51.791Z</time></trkpt><trkpt lat="38.6872683" lon="16.4030917"><ele>450.0</ele><time>2026-04-07T10:38:52.792Z</time></trkpt><trkpt lat="38.6874017" lon="16.4031517"><ele>450.0</ele><time>2026-04-07T10:38:53.792Z</time></trkpt><trkpt lat="38.6875233" lon="16.4031983"><ele>450.0</ele><time>2026-04-07T10:38:54.791Z</time></trkpt><trkpt lat="38.68765" lon="16.4032067"><ele>450.0</ele><time>2026-04-07T10:38:55.792Z</time></trkpt><trkpt lat="38.687775" lon="16.4031733"><ele>450.0</ele><time>2026-04-07T10:38:56.792Z</time></trkpt><trkpt lat="38.6878983" lon="16.4030967"><ele>451.0</ele><time>2026-04-07T10:38:57.791Z</time></trkpt><trkpt lat="38.6880133" lon="16.40298"><ele>452.0</ele><time>2026-04-07T10:38:58.792Z</time></trkpt><trkpt lat="38.688115" lon="16.40284"><ele>453.0</ele><time>2026-04-07T10:38:59.791Z</time></trkpt><trkpt lat="38.688205" lon="16.4026867"><ele>454.0</ele><time>2026-04-07T10:39:00.792Z</time></trkpt><trkpt lat="38.6882667" lon="16.4025333"><ele>454.0</ele><time>2026-04-07T10:39:01.792Z</time></trkpt><trkpt lat="38.6883067" lon="16.4023833"><ele>454.0</ele><time>2026-04-07T10:39:02.792Z</time></trkpt><trkpt lat="38.6883433" lon="16.4022383"><ele>454.0</ele><time>2026-04-07T10:39:03.792Z</time></trkpt><trkpt lat="38.6884067" lon="16.4021083"><ele>454.0</ele><time>2026-04-07T10:39:04.791Z</time></trkpt><trkpt lat="38.6884867" lon="16.4019867"><ele>454.5</ele><time>2026-04-07T10:39:05.791Z</time></trkpt><trkpt lat="38.68859" lon="16.4018917"><ele>455.0</ele><time>2026-04-07T10:39:06.791Z</time></trkpt><trkpt lat="38.6887083" lon="16.40183"><ele>455.5</ele><time>2026-04-07T10:39:07.791Z</time></trkpt><trkpt lat="38.68883" lon="16.40179"><ele>456.0</ele><time>2026-04-07T10:39:08.792Z</time></trkpt><trkpt lat="38.6889517" lon="16.4017783"><ele>456.25</ele><time>2026-04-07T10:39:09.791Z</time></trkpt><trkpt lat="38.68909" lon="16.401785"><ele>456.5</ele><time>2026-04-07T10:39:10.791Z</time></trkpt><trkpt lat="38.6892283" lon="16.4017983"><ele>456.75</ele><time>2026-04-07T10:39:11.791Z</time></trkpt><trkpt lat="38.6893733" lon="16.401825"><ele>457.0</ele><time>2026-04-07T10:39:12.791Z</time></trkpt><trkpt lat="38.6895233" lon="16.40185"><ele>460.0</ele><time>2026-04-07T10:39:13.791Z</time></trkpt><trkpt lat="38.6896783" lon="16.401885"><ele>463.0</ele><time>2026-04-07T10:39:14.791Z</time></trkpt><trkpt lat="38.6898267" lon="16.401945"><ele>466.0</ele><time>2026-04-07T10:39:15.791Z</time></trkpt><trkpt lat="38.689975" lon="16.4020217"><ele>466.0</ele><time>2026-04-07T10:39:16.791Z</time></trkpt><trkpt lat="38.690105" lon="16.4021033"><ele>466.0</ele><time>2026-04-07T10:39:17.791Z</time></trkpt><trkpt lat="38.6902283" lon="16.402175"><ele>466.0</ele><time>2026-04-07T10:39:18.792Z</time></trkpt><trkpt lat="38.6903567" lon="16.4022333"><ele>466.0</ele><time>2026-04-07T10:39:19.791Z</time></trkpt><trkpt lat="38.6904867" lon="16.4022717"><ele>466.25</ele><time>2026-04-07T10:39:20.791Z</time></trkpt><trkpt lat="38.690605" lon="16.4022833"><ele>466.5</ele><time>2026-04-07T10:39:21.791Z</time></trkpt><trkpt lat="38.6907317" lon="16.4022867"><ele>466.75</ele><time>2026-04-07T10:39:22.791Z</time></trkpt><trkpt lat="38.6908567" lon="16.402275"><ele>467.0</ele><time>2026-04-07T10:39:23.791Z</time></trkpt><trkpt lat="38.69098" lon="16.4022367"><ele>467.5</ele><time>2026-04-07T10:39:24.791Z</time></trkpt><trkpt lat="38.6911017" lon="16.4021817"><ele>468.0</ele><time>2026-04-07T10:39:25.792Z</time></trkpt><trkpt lat="38.691235" lon="16.4021183"><ele>468.5</ele><time>2026-04-07T10:39:26.792Z</time></trkpt><trkpt lat="38.6913683" lon="16.40206"><ele>469.0</ele><time>2026-04-07T10:39:27.792Z</time></trkpt><trkpt lat="38.691495" lon="16.4020033"><ele>469.0</ele><time>2026-04-07T10:39:28.791Z</time></trkpt><trkpt lat="38.691605" lon="16.4019483"><ele>469.0</ele><time>2026-04-07T10:39:29.791Z</time></trkpt><trkpt lat="38.6917133" lon="16.4019117"><ele>469.0</ele><time>2026-04-07T10:39:30.792Z</time></trkpt><trkpt lat="38.6918183" lon="16.4018967"><ele>469.0</ele><time>2026-04-07T10:39:31.791Z</time></trkpt><trkpt lat="38.6919283" lon="16.401905"><ele>469.0</ele><time>2026-04-07T10:39:32.791Z</time></trkpt><trkpt lat="38.69204" lon="16.4019267"><ele>469.0</ele><time>2026-04-07T10:39:33.791Z</time></trkpt><trkpt lat="38.692165" lon="16.4019633"><ele>469.0</ele><time>2026-04-07T10:39:34.791Z</time></trkpt><trkpt lat="38.6923167" lon="16.402"><ele>469.0</ele><time>2026-04-07T10:39:35.792Z</time></trkpt><trkpt lat="38.69248" lon="16.40204"><ele>469.0</ele><time>2026-04-07T10:39:36.792Z</time></trkpt><trkpt lat="38.69265" lon="16.4020767"><ele>470.0</ele><time>2026-04-07T10:39:37.791Z</time></trkpt><trkpt lat="38.6928167" lon="16.4021183"><ele>471.0</ele><time>2026-04-07T10:39:38.791Z</time></trkpt><trkpt lat="38.692975" lon="16.402155"><ele>472.0</ele><time>2026-04-07T10:39:39.791Z</time></trkpt><trkpt lat="38.6931217" lon="16.4021833"><ele>472.0</ele><time>2026-04-07T10:39:40.792Z</time></trkpt><trkpt lat="38.69325" lon="16.40223"><ele>472.0</ele><time>2026-04-07T10:39:41.791Z</time></trkpt><trkpt lat="38.693365" lon="16.4022833"><ele>472.0</ele><time>2026-04-07T10:39:42.791Z</time></trkpt><trkpt lat="38.6934683" lon="16.4023733"><ele>472.0</ele><time>2026-04-07T10:39:43.792Z</time></trkpt><trkpt lat="38.69356" lon="16.4024933"><ele>472.0</ele><time>2026-04-07T10:39:44.791Z</time></trkpt><trkpt lat="38.6936333" lon="16.40264"><ele>472.0</ele><time>2026-04-07T10:39:45.792Z</time></trkpt><trkpt lat="38.6937033" lon="16.4027867"><ele>472.0</ele><time>2026-04-07T10:39:46.791Z</time></trkpt><trkpt lat="38.69378" lon="16.4029267"><ele>472.0</ele><time>2026-04-07T10:39:47.791Z</time></trkpt><trkpt lat="38.6938567" lon="16.4030617"><ele>472.25</ele><time>2026-04-07T10:39:48.791Z</time></trkpt><trkpt lat="38.6939333" lon="16.403195"><ele>472.5</ele><time>2026-04-07T10:39:49.791Z</time></trkpt><trkpt lat="38.6940317" lon="16.4033133"><ele>472.75</ele><time>2026-04-07T10:39:50.792Z</time></trkpt><trkpt lat="38.6941417" lon="16.40341"><ele>473.0</ele><time>2026-04-07T10:39:51.791Z</time></trkpt><trkpt lat="38.6942633" lon="16.4035083"><ele>473.0</ele><time>2026-04-07T10:39:52.791Z</time></trkpt><trkpt lat="38.6943883" lon="16.4036133"><ele>473.0</ele><time>2026-04-07T10:39:53.791Z</time></trkpt><trkpt lat="38.6945167" lon="16.4037183"><ele>473.0</ele><time>2026-04-07T10:39:54.792Z</time></trkpt><trkpt lat="38.694645" lon="16.403825"><ele>472.75</ele><time>2026-04-07T10:39:55.792Z</time></trkpt><trkpt lat="38.694775" lon="16.4039267"><ele>472.5</ele><time>2026-04-07T10:39:56.791Z</time></trkpt><trkpt lat="38.6949017" lon="16.4040233"><ele>472.25</ele><time>2026-04-07T10:39:57.792Z</time></trkpt><trkpt lat="38.6950217" lon="16.4041183"><ele>472.0</ele><time>2026-04-07T10:39:58.792Z</time></trkpt><trkpt lat="38.6951317" lon="16.404205"><ele>472.0</ele><time>2026-04-07T10:39:59.792Z</time></trkpt><trkpt lat="38.6952267" lon="16.4042867"><ele>472.00000000000006</ele><time>2026-04-07T10:40:00.791Z</time></trkpt><trkpt lat="38.695315" lon="16.4043633"><ele>472.00000000000006</ele><time>2026-04-07T10:40:01.791Z</time></trkpt><trkpt lat="38.69539" lon="16.4044317"><ele>472.0</ele><time>2026-04-07T10:40:02.791Z</time></trkpt><trkpt lat="38.695465" lon="16.404495"><ele>472.0</ele><time>2026-04-07T10:40:03.791Z</time></trkpt><trkpt lat="38.6955383" lon="16.4045467"><ele>472.00000000000006</ele><time>2026-04-07T10:40:04.791Z</time></trkpt><trkpt lat="38.6955917" lon="16.4045933"><ele>472.0</ele><time>2026-04-07T10:40:05.791Z</time></trkpt><trkpt lat="38.6956517" lon="16.4046833"><ele>472.0</ele><time>2026-04-07T10:40:07.791Z</time></trkpt><trkpt lat="38.695645" lon="16.4047917"><ele>472.0</ele><time>2026-04-07T10:40:09.791Z</time></trkpt><trkpt lat="38.6955767" lon="16.40485"><ele>472.00000000000006</ele><time>2026-04-07T10:40:12.791Z</time></trkpt><trkpt lat="38.6955183" lon="16.4047867"><ele>472.0</ele><time>2026-04-07T10:40:15.791Z</time></trkpt><trkpt lat="38.6955533" lon="16.4048767"><ele>472.0</ele><time>2026-04-07T10:40:19.791Z</time></trkpt><trkpt lat="38.69563" lon="16.40486"><ele>472.00000000000006</ele><time>2026-04-07T10:46:35.791Z</time></trkpt><trkpt lat="38.6956933" lon="16.4049033"><ele>472.00000000000006</ele><time>2026-04-07T10:46:38.791Z</time></trkpt><trkpt lat="38.6958267" lon="16.404895"><ele>472.0</ele><time>2026-04-07T10:50:29.791Z</time></trkpt><trkpt lat="38.695905" lon="16.4048333"><ele>472.0</ele><time>2026-04-07T10:50:32.791Z</time></trkpt><trkpt lat="38.696005" lon="16.4049367"><ele>472.0</ele><time>2026-04-07T10:50:34.791Z</time></trkpt><trkpt lat="38.6960817" lon="16.404995"><ele>472.00000000000006</ele><time>2026-04-07T10:50:35.791Z</time></trkpt><trkpt lat="38.6961517" lon="16.40505"><ele>472.00000000000006</ele><time>2026-04-07T10:50:36.791Z</time></trkpt><trkpt lat="38.6962267" lon="16.4051067"><ele>472.0</ele><time>2026-04-07T10:50:37.792Z</time></trkpt><trkpt lat="38.6963117" lon="16.4051733"><ele>472.0</ele><time>2026-04-07T10:50:38.791Z</time></trkpt><trkpt lat="38.69641" lon="16.40525"><ele>472.0</ele><time>2026-04-07T10:50:39.791Z</time></trkpt><trkpt lat="38.6965167" lon="16.4053217"><ele>472.0</ele><time>2026-04-07T10:50:40.792Z</time></trkpt><trkpt lat="38.6966233" lon="16.4054"><ele>472.0</ele><time>2026-04-07T10:50:41.791Z</time></trkpt><trkpt lat="38.6967317" lon="16.4054867"><ele>472.0</ele><time>2026-04-07T10:50:42.791Z</time></trkpt><trkpt lat="38.6968367" lon="16.405565"><ele>470.40000000000003</ele><time>2026-04-07T10:50:43.791Z</time></trkpt><trkpt lat="38.69693" lon="16.4056433"><ele>468.80000000000007</ele><time>2026-04-07T10:50:44.791Z</time></trkpt><trkpt lat="38.6970167" lon="16.4057233"><ele>467.2</ele><time>2026-04-07T10:50:45.792Z</time></trkpt><trkpt lat="38.6971117" lon="16.4058083"><ele>465.6</ele><time>2026-04-07T10:50:46.792Z</time></trkpt><trkpt lat="38.6971883" lon="16.4059067"><ele>464.0</ele><time>2026-04-07T10:50:47.791Z</time></trkpt><trkpt lat="38.6972467" lon="16.40602"><ele>464.0</ele><time>2026-04-07T10:50:48.791Z</time></trkpt><trkpt lat="38.6973033" lon="16.4061467"><ele>464.0</ele><time>2026-04-07T10:50:49.791Z</time></trkpt><trkpt lat="38.69734" lon="16.4062783"><ele>464.0</ele><time>2026-04-07T10:50:50.791Z</time></trkpt><trkpt lat="38.6973683" lon="16.4064033"><ele>464.0</ele><time>2026-04-07T10:50:51.791Z</time></trkpt><trkpt lat="38.6973933" lon="16.4065383"><ele>464.0</ele><time>2026-04-07T10:50:52.791Z</time></trkpt><trkpt lat="38.697425" lon="16.40668"><ele>463.75</ele><time>2026-04-07T10:50:53.791Z</time></trkpt><trkpt lat="38.6974517" lon="16.4068417"><ele>463.5</ele><time>2026-04-07T10:50:54.792Z</time></trkpt><trkpt lat="38.6974833" lon="16.407015"><ele>463.25</ele><time>2026-04-07T10:50:55.791Z</time></trkpt><trkpt lat="38.6975183" lon="16.4071917"><ele>463.0</ele><time>2026-04-07T10:50:56.791Z</time></trkpt><trkpt lat="38.6975583" lon="16.4073717"><ele>462.5</ele><time>2026-04-07T10:50:57.791Z</time></trkpt><trkpt lat="38.6975867" lon="16.4075617"><ele>462.0</ele><time>2026-04-07T10:50:58.792Z</time></trkpt><trkpt lat="38.6976217" lon="16.40774"><ele>461.5</ele><time>2026-04-07T10:50:59.791Z</time></trkpt><trkpt lat="38.69766" lon="16.4079133"><ele>461.0</ele><time>2026-04-07T10:51:00.792Z</time></trkpt><trkpt lat="38.697695" lon="16.4080733"><ele>461.0</ele><time>2026-04-07T10:51:01.791Z</time></trkpt><trkpt lat="38.6977217" lon="16.4082133"><ele>461.0</ele><time>2026-04-07T10:51:02.791Z</time></trkpt><trkpt lat="38.6977483" lon="16.4083417"><ele>461.0</ele><time>2026-04-07T10:51:03.791Z</time></trkpt><trkpt lat="38.6977717" lon="16.40845"><ele>461.0</ele><time>2026-04-07T10:51:04.791Z</time></trkpt><trkpt lat="38.6978467" lon="16.40856"><ele>461.0</ele><time>2026-04-07T10:51:06.791Z</time></trkpt><trkpt lat="38.6979467" lon="16.4085467"><ele>458.66666666666663</ele><time>2026-04-07T10:51:08.792Z</time></trkpt><trkpt lat="38.698005" lon="16.4084067"><ele>456.3333333333333</ele><time>2026-04-07T10:51:10.792Z</time></trkpt><trkpt lat="38.698015" lon="16.4083133"><ele>454.0</ele><time>2026-04-07T10:51:11.791Z</time></trkpt><trkpt lat="38.6980317" lon="16.40822"><ele>451.66666666666663</ele><time>2026-04-07T10:51:12.791Z</time></trkpt><trkpt lat="38.6980483" lon="16.4081217"><ele>449.3333333333333</ele><time>2026-04-07T10:51:13.792Z</time></trkpt><trkpt lat="38.6980617" lon="16.40802"><ele>447.0</ele><time>2026-04-07T10:51:14.791Z</time></trkpt><trkpt lat="38.6980833" lon="16.40792"><ele>447.0</ele><time>2026-04-07T10:51:15.791Z</time></trkpt><trkpt lat="38.69811" lon="16.407825"><ele>447.0</ele><time>2026-04-07T10:51:16.792Z</time></trkpt><trkpt lat="38.6981383" lon="16.4077317"><ele>447.0</ele><time>2026-04-07T10:51:17.792Z</time></trkpt><trkpt lat="38.6981767" lon="16.4076483"><ele>447.0</ele><time>2026-04-07T10:51:18.791Z</time></trkpt><trkpt lat="38.6982267" lon="16.407585"><ele>447.0</ele><time>2026-04-07T10:51:19.791Z</time></trkpt><trkpt lat="38.6983317" lon="16.4075417"><ele>447.0</ele><time>2026-04-07T10:51:21.791Z</time></trkpt><trkpt lat="38.6983983" lon="16.4076583"><ele>447.0</ele><time>2026-04-07T10:51:23.792Z</time></trkpt><trkpt lat="38.6984" lon="16.407765"><ele>447.00000000000006</ele><time>2026-04-07T10:51:24.792Z</time></trkpt><trkpt lat="38.6983833" lon="16.4078917"><ele>447.00000000000006</ele><time>2026-04-07T10:51:25.792Z</time></trkpt><trkpt lat="38.6983483" lon="16.4080367"><ele>447.0</ele><time>2026-04-07T10:51:26.791Z</time></trkpt><trkpt lat="38.6983167" lon="16.4081967"><ele>447.0</ele><time>2026-04-07T10:51:27.791Z</time></trkpt><trkpt lat="38.6982883" lon="16.40834"><ele>446.20000000000005</ele><time>2026-04-07T10:51:28.792Z</time></trkpt><trkpt lat="38.69827" lon="16.4084717"><ele>445.40000000000003</ele><time>2026-04-07T10:51:29.791Z</time></trkpt><trkpt lat="38.69826" lon="16.40858"><ele>444.59999999999997</ele><time>2026-04-07T10:51:30.792Z</time></trkpt><trkpt lat="38.698285" lon="16.408705"><ele>443.79999999999995</ele><time>2026-04-07T10:51:32.792Z</time></trkpt><trkpt lat="38.6983833" lon="16.4086983"><ele>443.0</ele><time>2026-04-07T10:51:34.791Z</time></trkpt><trkpt lat="38.6984467" lon="16.408625"><ele>443.0</ele><time>2026-04-07T10:51:35.791Z</time></trkpt><trkpt lat="38.6985167" lon="16.4085133"><ele>443.0</ele><time>2026-04-07T10:51:36.791Z</time></trkpt><trkpt lat="38.6985983" lon="16.40839"><ele>443.0</ele><time>2026-04-07T10:51:37.792Z</time></trkpt><trkpt lat="38.6986717" lon="16.408275"><ele>443.0</ele><time>2026-04-07T10:51:38.792Z</time></trkpt><trkpt lat="38.6987233" lon="16.4081483"><ele>440.2</ele><time>2026-04-07T10:51:39.791Z</time></trkpt><trkpt lat="38.6987583" lon="16.4080217"><ele>437.4</ele><time>2026-04-07T10:51:40.791Z</time></trkpt><trkpt lat="38.6988083" lon="16.4078983"><ele>434.59999999999997</ele><time>2026-04-07T10:51:41.792Z</time></trkpt><trkpt lat="38.69887" lon="16.4077967"><ele>431.79999999999995</ele><time>2026-04-07T10:51:42.791Z</time></trkpt><trkpt lat="38.6989617" lon="16.407705"><ele>429.0</ele><time>2026-04-07T10:51:43.792Z</time></trkpt><trkpt lat="38.69905" lon="16.407605"><ele>429.0</ele><time>2026-04-07T10:51:44.791Z</time></trkpt><trkpt lat="38.6991317" lon="16.407485"><ele>429.0</ele><time>2026-04-07T10:51:45.791Z</time></trkpt><trkpt lat="38.6992" lon="16.4073767"><ele>429.0</ele><time>2026-04-07T10:51:46.791Z</time></trkpt><trkpt lat="38.6993033" lon="16.4072733"><ele>429.0</ele><time>2026-04-07T10:51:47.791Z</time></trkpt><trkpt lat="38.699415" lon="16.4071883"><ele>427.0</ele><time>2026-04-07T10:51:48.791Z</time></trkpt><trkpt lat="38.69953" lon="16.4071033"><ele>425.0</ele><time>2026-04-07T10:51:49.791Z</time></trkpt><trkpt lat="38.6996367" lon="16.4070017"><ele>423.0</ele><time>2026-04-07T10:51:50.792Z</time></trkpt><trkpt lat="38.6997233" lon="16.406905"><ele>421.0</ele><time>2026-04-07T10:51:51.791Z</time></trkpt><trkpt lat="38.6998083" lon="16.4067917"><ele>421.0</ele><time>2026-04-07T10:51:52.792Z</time></trkpt><trkpt lat="38.6998833" lon="16.4066867"><ele>421.0</ele><time>2026-04-07T10:51:53.791Z</time></trkpt><trkpt lat="38.6999383" lon="16.4065983"><ele>421.0</ele><time>2026-04-07T10:51:54.791Z</time></trkpt><trkpt lat="38.69999" lon="16.4065317"><ele>421.0</ele><time>2026-04-07T10:51:55.791Z</time></trkpt><trkpt lat="38.700085" lon="16.4065167"><ele>421.0</ele><time>2026-04-07T10:51:57.791Z</time></trkpt><trkpt lat="38.7001" lon="16.4066417"><ele>421.0</ele><time>2026-04-07T10:51:59.792Z</time></trkpt><trkpt lat="38.7000733" lon="16.4067383"><ele>421.0</ele><time>2026-04-07T10:52:00.791Z</time></trkpt><trkpt lat="38.70001" lon="16.406865"><ele>421.0</ele><time>2026-04-07T10:52:01.792Z</time></trkpt><trkpt lat="38.6999233" lon="16.4069983"><ele>421.0</ele><time>2026-04-07T10:52:02.791Z</time></trkpt><trkpt lat="38.6998317" lon="16.4071367"><ele>416.33333333333337</ele><time>2026-04-07T10:52:03.791Z</time></trkpt><trkpt lat="38.6997433" lon="16.40729"><ele>411.66666666666663</ele><time>2026-04-07T10:52:04.792Z</time></trkpt><trkpt lat="38.6996467" lon="16.40745"><ele>407.0</ele><time>2026-04-07T10:52:05.792Z</time></trkpt><trkpt lat="38.6995667" lon="16.4076283"><ele>407.0</ele><time>2026-04-07T10:52:06.791Z</time></trkpt><trkpt lat="38.6994983" lon="16.4078417"><ele>407.0</ele><time>2026-04-07T10:52:07.792Z</time></trkpt><trkpt lat="38.699445" lon="16.4080633"><ele>407.0</ele><time>2026-04-07T10:52:08.791Z</time></trkpt><trkpt lat="38.6994183" lon="16.4082617"><ele>405.3333333333333</ele><time>2026-04-07T10:52:09.792Z</time></trkpt><trkpt lat="38.6994183" lon="16.4084617"><ele>403.66666666666663</ele><time>2026-04-07T10:52:10.792Z</time></trkpt><trkpt lat="38.6994533" lon="16.4086667"><ele>402.0</ele><time>2026-04-07T10:52:11.791Z</time></trkpt><trkpt lat="38.6995267" lon="16.4088517"><ele>402.0</ele><time>2026-04-07T10:52:12.791Z</time></trkpt><trkpt lat="38.6996317" lon="16.40902"><ele>402.0</ele><time>2026-04-07T10:52:13.791Z</time></trkpt><trkpt lat="38.6997333" lon="16.4091467"><ele>402.0</ele><time>2026-04-07T10:52:14.791Z</time></trkpt><trkpt lat="38.6998267" lon="16.4092567"><ele>402.0</ele><time>2026-04-07T10:52:15.792Z</time></trkpt><trkpt lat="38.6999033" lon="16.4093533"><ele>402.0</ele><time>2026-04-07T10:52:16.791Z</time></trkpt><trkpt lat="38.699935" lon="16.4094783"><ele>402.0</ele><time>2026-04-07T10:52:17.791Z</time></trkpt><trkpt lat="38.69997" lon="16.4096233"><ele>402.0</ele><time>2026-04-07T10:52:18.791Z</time></trkpt><trkpt lat="38.6999917" lon="16.4097967"><ele>402.0</ele><time>2026-04-07T10:52:19.792Z</time></trkpt><trkpt lat="38.6999983" lon="16.4099683"><ele>404.75</ele><time>2026-04-07T10:52:20.792Z</time></trkpt><trkpt lat="38.7000033" lon="16.4101233"><ele>407.5</ele><time>2026-04-07T10:52:21.792Z</time></trkpt><trkpt lat="38.7000217" lon="16.4102683"><ele>410.25</ele><time>2026-04-07T10:52:22.791Z</time></trkpt><trkpt lat="38.7000717" lon="16.410405"><ele>413.0</ele><time>2026-04-07T10:52:23.792Z</time></trkpt><trkpt lat="38.7001483" lon="16.4105383"><ele>405.3333333333333</ele><time>2026-04-07T10:52:24.791Z</time></trkpt><trkpt lat="38.700255" lon="16.4106783"><ele>397.66666666666663</ele><time>2026-04-07T10:52:25.791Z</time></trkpt><trkpt lat="38.7003633" lon="16.410835"><ele>390.0</ele><time>2026-04-07T10:52:26.791Z</time></trkpt><trkpt lat="38.7004783" lon="16.4109733"><ele>390.0</ele><time>2026-04-07T10:52:27.791Z</time></trkpt><trkpt lat="38.70059" lon="16.4110867"><ele>390.0</ele><time>2026-04-07T10:52:28.791Z</time></trkpt><trkpt lat="38.700695" lon="16.41116"><ele>390.0</ele><time>2026-04-07T10:52:29.791Z</time></trkpt><trkpt lat="38.7008183" lon="16.4111833"><ele>390.0</ele><time>2026-04-07T10:52:30.791Z</time></trkpt><trkpt lat="38.700945" lon="16.41118"><ele>390.0</ele><time>2026-04-07T10:52:31.791Z</time></trkpt><trkpt lat="38.7010733" lon="16.4111233"><ele>390.0</ele><time>2026-04-07T10:52:32.791Z</time></trkpt><trkpt lat="38.70123" lon="16.4110367"><ele>390.0</ele><time>2026-04-07T10:52:33.791Z</time></trkpt><trkpt lat="38.70139" lon="16.4109383"><ele>389.0</ele><time>2026-04-07T10:52:34.791Z</time></trkpt><trkpt lat="38.7015467" lon="16.4108433"><ele>388.0</ele><time>2026-04-07T10:52:35.791Z</time></trkpt><trkpt lat="38.7016967" lon="16.4107517"><ele>387.0</ele><time>2026-04-07T10:52:36.791Z</time></trkpt><trkpt lat="38.701845" lon="16.4106633"><ele>386.33333333333337</ele><time>2026-04-07T10:52:37.791Z</time></trkpt><trkpt lat="38.7019933" lon="16.41057"><ele>385.6666666666667</ele><time>2026-04-07T10:52:38.791Z</time></trkpt><trkpt lat="38.7021533" lon="16.4104733"><ele>385.0</ele><time>2026-04-07T10:52:39.792Z</time></trkpt><trkpt lat="38.7023183" lon="16.41037"><ele>385.6666666666667</ele><time>2026-04-07T10:52:40.791Z</time></trkpt><trkpt lat="38.7024767" lon="16.410265"><ele>386.33333333333337</ele><time>2026-04-07T10:52:41.792Z</time></trkpt><trkpt lat="38.7026433" lon="16.41017"><ele>387.0</ele><time>2026-04-07T10:52:42.791Z</time></trkpt><trkpt lat="38.702815" lon="16.4100683"><ele>387.0</ele><time>2026-04-07T10:52:43.791Z</time></trkpt><trkpt lat="38.7029933" lon="16.4099567"><ele>387.0</ele><time>2026-04-07T10:52:44.791Z</time></trkpt><trkpt lat="38.7031667" lon="16.409855"><ele>387.0</ele><time>2026-04-07T10:52:45.792Z</time></trkpt><trkpt lat="38.7033333" lon="16.409755"><ele>386.66666666666663</ele><time>2026-04-07T10:52:46.791Z</time></trkpt><trkpt lat="38.7035017" lon="16.4096517"><ele>386.3333333333333</ele><time>2026-04-07T10:52:47.792Z</time></trkpt><trkpt lat="38.703665" lon="16.4095533"><ele>386.0</ele><time>2026-04-07T10:52:48.791Z</time></trkpt><trkpt lat="38.7038367" lon="16.4094533"><ele>386.0</ele><time>2026-04-07T10:52:49.791Z</time></trkpt><trkpt lat="38.7040083" lon="16.4093483"><ele>386.0</ele><time>2026-04-07T10:52:50.791Z</time></trkpt><trkpt lat="38.7041783" lon="16.409245"><ele>386.0</ele><time>2026-04-07T10:52:51.792Z</time></trkpt><trkpt lat="38.704355" lon="16.4091417"><ele>386.3333333333333</ele><time>2026-04-07T10:52:52.792Z</time></trkpt><trkpt lat="38.7045367" lon="16.4090483"><ele>386.66666666666663</ele><time>2026-04-07T10:52:53.791Z</time></trkpt><trkpt lat="38.7047117" lon="16.4089467"><ele>387.0</ele><time>2026-04-07T10:52:54.791Z</time></trkpt><trkpt lat="38.704885" lon="16.4088467"><ele>386.66666666666663</ele><time>2026-04-07T10:52:55.791Z</time></trkpt><trkpt lat="38.705055" lon="16.408745"><ele>386.3333333333333</ele><time>2026-04-07T10:52:56.792Z</time></trkpt><trkpt lat="38.705225" lon="16.4086367"><ele>386.0</ele><time>2026-04-07T10:52:57.792Z</time></trkpt><trkpt lat="38.7053933" lon="16.4085317"><ele>387.0</ele><time>2026-04-07T10:52:58.791Z</time></trkpt><trkpt lat="38.7055717" lon="16.4084367"><ele>388.0</ele><time>2026-04-07T10:52:59.791Z</time></trkpt><trkpt lat="38.70575" lon="16.4083367"><ele>389.0</ele><time>2026-04-07T10:53:00.791Z</time></trkpt><trkpt lat="38.7059267" lon="16.4082383"><ele>389.66666666666663</ele><time>2026-04-07T10:53:01.792Z</time></trkpt><trkpt lat="38.706105" lon="16.4081333"><ele>390.33333333333337</ele><time>2026-04-07T10:53:02.792Z</time></trkpt><trkpt lat="38.706285" lon="16.4080283"><ele>391.0</ele><time>2026-04-07T10:53:03.791Z</time></trkpt><trkpt lat="38.70646" lon="16.4079233"><ele>391.0</ele><time>2026-04-07T10:53:04.792Z</time></trkpt><trkpt lat="38.70662" lon="16.40782"><ele>391.0</ele><time>2026-04-07T10:53:05.791Z</time></trkpt><trkpt lat="38.706785" lon="16.4077267"><ele>391.0</ele><time>2026-04-07T10:53:06.791Z</time></trkpt><trkpt lat="38.706935" lon="16.4076333"><ele>391.6666666666667</ele><time>2026-04-07T10:53:07.791Z</time></trkpt><trkpt lat="38.707095" lon="16.4075417"><ele>392.33333333333337</ele><time>2026-04-07T10:53:08.791Z</time></trkpt><trkpt lat="38.707255" lon="16.4074467"><ele>393.0</ele><time>2026-04-07T10:53:09.791Z</time></trkpt><trkpt lat="38.707415" lon="16.40735"><ele>393.0</ele><time>2026-04-07T10:53:10.791Z</time></trkpt><trkpt lat="38.707575" lon="16.40725"><ele>393.0</ele><time>2026-04-07T10:53:11.791Z</time></trkpt><trkpt lat="38.70774" lon="16.4071533"><ele>393.0</ele><time>2026-04-07T10:53:12.791Z</time></trkpt><trkpt lat="38.7078917" lon="16.4070683"><ele>394.0</ele><time>2026-04-07T10:53:13.792Z</time></trkpt><trkpt lat="38.708025" lon="16.4069933"><ele>395.0</ele><time>2026-04-07T10:53:14.791Z</time></trkpt><trkpt lat="38.70815" lon="16.4069283"><ele>396.0</ele><time>2026-04-07T10:53:15.791Z</time></trkpt><trkpt lat="38.7082583" lon="16.4068717"><ele>397.0</ele><time>2026-04-07T10:53:16.792Z</time></trkpt><trkpt lat="38.7083517" lon="16.4068217"><ele>397.00000000000006</ele><time>2026-04-07T10:53:17.792Z</time></trkpt><trkpt lat="38.7084267" lon="16.4067833"><ele>397.0</ele><time>2026-04-07T10:53:18.791Z</time></trkpt><trkpt lat="38.70851" lon="16.4067117"><ele>397.0</ele><time>2026-04-07T10:53:20.791Z</time></trkpt><trkpt lat="38.70844" lon="16.4067367"><ele>397.0</ele><time>2026-04-07T10:53:27.792Z</time></trkpt><trkpt lat="38.7083717" lon="16.4067733"><ele>397.00000000000006</ele><time>2026-04-07T10:53:28.791Z</time></trkpt><trkpt lat="38.7082917" lon="16.4068233"><ele>397.0</ele><time>2026-04-07T10:53:29.791Z</time></trkpt><trkpt lat="38.7081933" lon="16.4068733"><ele>397.0</ele><time>2026-04-07T10:53:30.791Z</time></trkpt><trkpt lat="38.7080817" lon="16.40693"><ele>397.0</ele><time>2026-04-07T10:53:31.792Z</time></trkpt><trkpt lat="38.7079617" lon="16.4069967"><ele>397.0</ele><time>2026-04-07T10:53:32.792Z</time></trkpt><trkpt lat="38.7078383" lon="16.4070667"><ele>397.0</ele><time>2026-04-07T10:53:33.791Z</time></trkpt><trkpt lat="38.7077133" lon="16.407145"><ele>396.0</ele><time>2026-04-07T10:53:34.791Z</time></trkpt><trkpt lat="38.7075833" lon="16.40722"><ele>395.0</ele><time>2026-04-07T10:53:35.792Z</time></trkpt><trkpt lat="38.707455" lon="16.407295"><ele>394.0</ele><time>2026-04-07T10:53:36.791Z</time></trkpt><trkpt lat="38.707355" lon="16.40735"><ele>393.0</ele><time>2026-04-07T10:53:37.792Z</time></trkpt><trkpt lat="38.70728" lon="16.4073983"><ele>393.0</ele><time>2026-04-07T10:53:38.792Z</time></trkpt><trkpt lat="38.707215" lon="16.407445"><ele>393.0</ele><time>2026-04-07T10:53:39.792Z</time></trkpt><trkpt lat="38.7071467" lon="16.40749"><ele>393.0</ele><time>2026-04-07T10:53:40.791Z</time></trkpt><trkpt lat="38.7070517" lon="16.40755"><ele>393.0</ele><time>2026-04-07T10:53:41.792Z</time></trkpt><trkpt lat="38.7069533" lon="16.40761"><ele>393.0</ele><time>2026-04-07T10:53:42.792Z</time></trkpt><trkpt lat="38.706845" lon="16.4076783"><ele>392.5</ele><time>2026-04-07T10:53:43.792Z</time></trkpt><trkpt lat="38.7067333" lon="16.40774"><ele>392.0</ele><time>2026-04-07T10:53:44.792Z</time></trkpt><trkpt lat="38.7066133" lon="16.4078117"><ele>391.5</ele><time>2026-04-07T10:53:45.791Z</time></trkpt><trkpt lat="38.7064917" lon="16.4078767"><ele>391.0</ele><time>2026-04-07T10:53:46.791Z</time></trkpt><trkpt lat="38.70638" lon="16.40794"><ele>391.25</ele><time>2026-04-07T10:53:47.791Z</time></trkpt><trkpt lat="38.7062633" lon="16.4080067"><ele>391.5</ele><time>2026-04-07T10:53:48.792Z</time></trkpt><trkpt lat="38.706145" lon="16.4080817"><ele>391.75</ele><time>2026-04-07T10:53:49.791Z</time></trkpt><trkpt lat="38.7060333" lon="16.4081483"><ele>392.0</ele><time>2026-04-07T10:53:50.791Z</time></trkpt><trkpt lat="38.7059317" lon="16.4082033"><ele>391.40000000000003</ele><time>2026-04-07T10:53:51.791Z</time></trkpt><trkpt lat="38.7058367" lon="16.408255"><ele>390.8</ele><time>2026-04-07T10:53:52.791Z</time></trkpt><trkpt lat="38.705755" lon="16.4082967"><ele>390.2</ele><time>2026-04-07T10:53:53.791Z</time></trkpt><trkpt lat="38.70568" lon="16.4083417"><ele>389.6</ele><time>2026-04-07T10:53:54.792Z</time></trkpt><trkpt lat="38.70561" lon="16.4083833"><ele>389.0</ele><time>2026-04-07T10:53:55.791Z</time></trkpt><trkpt lat="38.7055267" lon="16.4084817"><ele>389.0</ele><time>2026-04-07T10:53:57.792Z</time></trkpt><trkpt lat="38.7055333" lon="16.4085983"><ele>389.0</ele><time>2026-04-07T10:53:59.792Z</time></trkpt><trkpt lat="38.70561" lon="16.4087383"><ele>389.0</ele><time>2026-04-07T10:54:01.791Z</time></trkpt><trkpt lat="38.70565" lon="16.4088333"><ele>389.0</ele><time>2026-04-07T10:54:02.791Z</time></trkpt><trkpt lat="38.7056867" lon="16.4089467"><ele>389.0</ele><time>2026-04-07T10:54:03.791Z</time></trkpt><trkpt lat="38.7057333" lon="16.409065"><ele>388.6</ele><time>2026-04-07T10:54:04.791Z</time></trkpt><trkpt lat="38.7057867" lon="16.40919"><ele>388.2</ele><time>2026-04-07T10:54:05.791Z</time></trkpt><trkpt lat="38.7058217" lon="16.40931"><ele>387.8</ele><time>2026-04-07T10:54:06.791Z</time></trkpt><trkpt lat="38.7058583" lon="16.4094283"><ele>387.40000000000003</ele><time>2026-04-07T10:54:07.792Z</time></trkpt><trkpt lat="38.7058667" lon="16.4095633"><ele>387.0</ele><time>2026-04-07T10:54:08.791Z</time></trkpt><trkpt lat="38.7058667" lon="16.4097133"><ele>386.8</ele><time>2026-04-07T10:54:09.791Z</time></trkpt><trkpt lat="38.7058667" lon="16.4098617"><ele>386.6</ele><time>2026-04-07T10:54:10.792Z</time></trkpt><trkpt lat="38.7058583" lon="16.4100167"><ele>386.40000000000003</ele><time>2026-04-07T10:54:11.791Z</time></trkpt><trkpt lat="38.70587" lon="16.4101517"><ele>386.20000000000005</ele><time>2026-04-07T10:54:12.791Z</time></trkpt><trkpt lat="38.7058667" lon="16.410285"><ele>386.0</ele><time>2026-04-07T10:54:13.792Z</time></trkpt><trkpt lat="38.70589" lon="16.41041"><ele>385.8</ele><time>2026-04-07T10:54:14.792Z</time></trkpt><trkpt lat="38.7059317" lon="16.41052"><ele>385.6</ele><time>2026-04-07T10:54:15.791Z</time></trkpt><trkpt lat="38.7060133" lon="16.410625"><ele>385.4</ele><time>2026-04-07T10:54:16.791Z</time></trkpt><trkpt lat="38.7061117" lon="16.4107183"><ele>385.2</ele><time>2026-04-07T10:54:17.791Z</time></trkpt><trkpt lat="38.7062083" lon="16.410795"><ele>385.0</ele><time>2026-04-07T10:54:18.791Z</time></trkpt><trkpt lat="38.7063067" lon="16.41087"><ele>385.4</ele><time>2026-04-07T10:54:19.791Z</time></trkpt><trkpt lat="38.7063967" lon="16.4109417"><ele>385.8</ele><time>2026-04-07T10:54:20.792Z</time></trkpt><trkpt lat="38.7064933" lon="16.411015"><ele>386.20000000000005</ele><time>2026-04-07T10:54:21.792Z</time></trkpt><trkpt lat="38.7065917" lon="16.4110867"><ele>386.6</ele><time>2026-04-07T10:54:22.792Z</time></trkpt><trkpt lat="38.7066917" lon="16.4111633"><ele>387.0</ele><time>2026-04-07T10:54:23.791Z</time></trkpt><trkpt lat="38.7067933" lon="16.4112433"><ele>387.0</ele><time>2026-04-07T10:54:24.791Z</time></trkpt><trkpt lat="38.7068933" lon="16.411325"><ele>387.0</ele><time>2026-04-07T10:54:25.791Z</time></trkpt><trkpt lat="38.70699" lon="16.411425"><ele>387.0</ele><time>2026-04-07T10:54:26.791Z</time></trkpt><trkpt lat="38.707075" lon="16.41151"><ele>387.0</ele><time>2026-04-07T10:54:27.791Z</time></trkpt><trkpt lat="38.7071383" lon="16.4115617"><ele>387.0</ele><time>2026-04-07T10:54:28.791Z</time></trkpt><trkpt lat="38.7071933" lon="16.41162"><ele>387.0</ele><time>2026-04-07T10:54:30.792Z</time></trkpt><trkpt lat="38.707235" lon="16.4116867"><ele>387.0</ele><time>2026-04-07T10:54:33.791Z</time></trkpt><trkpt lat="38.7072983" lon="16.4117217"><ele>387.0</ele><time>2026-04-07T10:54:35.791Z</time></trkpt><trkpt lat="38.7074133" lon="16.4117083"><ele>387.0</ele><time>2026-04-07T10:54:37.791Z</time></trkpt><trkpt lat="38.70748" lon="16.411675"><ele>387.0</ele><time>2026-04-07T10:54:38.792Z</time></trkpt><trkpt lat="38.707555" lon="16.411635"><ele>387.0</ele><time>2026-04-07T10:54:39.792Z</time></trkpt><trkpt lat="38.7076283" lon="16.4115983"><ele>387.0</ele><time>2026-04-07T10:54:40.791Z</time></trkpt><trkpt lat="38.70769" lon="16.4115717"><ele>387.0</ele><time>2026-04-07T10:54:41.791Z</time></trkpt><trkpt lat="38.7077817" lon="16.4115583"><ele>387.0</ele><time>2026-04-07T10:54:43.791Z</time></trkpt><trkpt lat="38.707865" lon="16.4115767"><ele>387.0</ele><time>2026-04-07T10:54:45.792Z</time></trkpt><trkpt lat="38.7079583" lon="16.4115867"><ele>387.0</ele><time>2026-04-07T10:54:47.791Z</time></trkpt><trkpt lat="38.7080633" lon="16.4116083"><ele>387.0</ele><time>2026-04-07T10:54:49.791Z</time></trkpt><trkpt lat="38.7081617" lon="16.41164"><ele>387.1666666666667</ele><time>2026-04-07T10:54:51.792Z</time></trkpt><trkpt lat="38.7082817" lon="16.4116733"><ele>387.33333333333337</ele><time>2026-04-07T10:54:53.791Z</time></trkpt><trkpt lat="38.708355" lon="16.4116883"><ele>387.5</ele><time>2026-04-07T10:54:54.791Z</time></trkpt><trkpt lat="38.7084317" lon="16.4117083"><ele>387.6666666666667</ele><time>2026-04-07T10:54:55.791Z</time></trkpt><trkpt lat="38.708505" lon="16.4117283"><ele>387.83333333333337</ele><time>2026-04-07T10:54:56.792Z</time></trkpt><trkpt lat="38.7085817" lon="16.41175"><ele>388.0</ele><time>2026-04-07T10:54:57.791Z</time></trkpt><trkpt lat="38.7086433" lon="16.4117717"><ele>389.59999999999997</ele><time>2026-04-07T10:54:58.791Z</time></trkpt><trkpt lat="38.7087233" lon="16.4118417"><ele>391.2</ele><time>2026-04-07T10:55:00.791Z</time></trkpt><trkpt lat="38.7087433" lon="16.4119417"><ele>392.8</ele><time>2026-04-07T10:55:02.791Z</time></trkpt><trkpt lat="38.7087483" lon="16.412095"><ele>394.4</ele><time>2026-04-07T10:55:04.792Z</time></trkpt><trkpt lat="38.708745" lon="16.4121933"><ele>396.0</ele><time>2026-04-07T10:55:05.791Z</time></trkpt><trkpt lat="38.7087417" lon="16.4123117"><ele>397.4</ele><time>2026-04-07T10:55:06.791Z</time></trkpt><trkpt lat="38.7087467" lon="16.41244"><ele>398.8</ele><time>2026-04-07T10:55:07.791Z</time></trkpt><trkpt lat="38.7087483" lon="16.4125817"><ele>400.2</ele><time>2026-04-07T10:55:08.791Z</time></trkpt><trkpt lat="38.708745" lon="16.4127283"><ele>401.59999999999997</ele><time>2026-04-07T10:55:09.792Z</time></trkpt><trkpt lat="38.7087417" lon="16.4128683"><ele>403.0</ele><time>2026-04-07T10:55:10.791Z</time></trkpt><trkpt lat="38.7087333" lon="16.413005"><ele>403.79999999999995</ele><time>2026-04-07T10:55:11.792Z</time></trkpt><trkpt lat="38.7087167" lon="16.4131417"><ele>404.6</ele><time>2026-04-07T10:55:12.791Z</time></trkpt><trkpt lat="38.7086967" lon="16.4132583"><ele>405.4</ele><time>2026-04-07T10:55:13.791Z</time></trkpt><trkpt lat="38.708685" lon="16.41337"><ele>406.20000000000005</ele><time>2026-04-07T10:55:14.791Z</time></trkpt><trkpt lat="38.7086717" lon="16.4134883"><ele>407.0</ele><time>2026-04-07T10:55:15.791Z</time></trkpt><trkpt lat="38.7086567" lon="16.4136017"><ele>406.99999999999994</ele><time>2026-04-07T10:55:16.791Z</time></trkpt><trkpt lat="38.70864" lon="16.4137083"><ele>407.0</ele><time>2026-04-07T10:55:17.792Z</time></trkpt><trkpt lat="38.708625" lon="16.4138267"><ele>407.0</ele><time>2026-04-07T10:55:18.791Z</time></trkpt><trkpt lat="38.70861" lon="16.4139433"><ele>407.0</ele><time>2026-04-07T10:55:19.791Z</time></trkpt><trkpt lat="38.708595" lon="16.414045"><ele>406.99999999999994</ele><time>2026-04-07T10:55:20.791Z</time></trkpt><trkpt lat="38.7085817" lon="16.414135"><ele>407.0</ele><time>2026-04-07T10:55:21.791Z</time></trkpt><trkpt lat="38.70855" lon="16.4142833"><ele>407.6</ele><time>2026-04-07T10:55:23.792Z</time></trkpt><trkpt lat="38.7085533" lon="16.414425"><ele>408.20000000000005</ele><time>2026-04-07T10:55:25.791Z</time></trkpt><trkpt lat="38.7085667" lon="16.4145167"><ele>408.8</ele><time>2026-04-07T10:55:27.791Z</time></trkpt><trkpt lat="38.708585" lon="16.4143867"><ele>409.4</ele><time>2026-04-07T10:55:32.792Z</time></trkpt><trkpt lat="38.7085867" lon="16.41424"><ele>410.0</ele><time>2026-04-07T10:55:34.791Z</time></trkpt><trkpt lat="38.7086117" lon="16.4140983"><ele>410.0</ele><time>2026-04-07T10:55:36.792Z</time></trkpt><trkpt lat="38.708635" lon="16.4139467"><ele>410.0</ele><time>2026-04-07T10:55:38.792Z</time></trkpt><trkpt lat="38.708665" lon="16.4137917"><ele>410.0</ele><time>2026-04-07T10:55:40.791Z</time></trkpt><trkpt lat="38.70868" lon="16.41371"><ele>410.0</ele><time>2026-04-07T10:55:41.792Z</time></trkpt><trkpt lat="38.7086883" lon="16.4135533"><ele>410.0</ele><time>2026-04-07T10:55:43.792Z</time></trkpt><trkpt lat="38.7087" lon="16.4134683"><ele>409.5714285714286</ele><time>2026-04-07T10:55:44.792Z</time></trkpt><trkpt lat="38.7087067" lon="16.4133783"><ele>409.1428571428571</ele><time>2026-04-07T10:55:45.791Z</time></trkpt><trkpt lat="38.7087167" lon="16.4132833"><ele>408.7142857142857</ele><time>2026-04-07T10:55:46.791Z</time></trkpt><trkpt lat="38.708725" lon="16.4131917"><ele>408.28571428571433</ele><time>2026-04-07T10:55:47.791Z</time></trkpt><trkpt lat="38.708735" lon="16.4131033"><ele>407.8571428571429</ele><time>2026-04-07T10:55:48.792Z</time></trkpt><trkpt lat="38.7087467" lon="16.4130067"><ele>407.42857142857144</ele><time>2026-04-07T10:55:49.792Z</time></trkpt><trkpt lat="38.7087583" lon="16.4129133"><ele>407.0</ele><time>2026-04-07T10:55:50.791Z</time></trkpt><trkpt lat="38.7087633" lon="16.4128267"><ele>406.3333333333333</ele><time>2026-04-07T10:55:51.791Z</time></trkpt><trkpt lat="38.7087667" lon="16.4127367"><ele>405.66666666666663</ele><time>2026-04-07T10:55:52.792Z</time></trkpt><trkpt lat="38.7087783" lon="16.4126467"><ele>405.0</ele><time>2026-04-07T10:55:53.792Z</time></trkpt><trkpt lat="38.7087867" lon="16.41256"><ele>404.33333333333337</ele><time>2026-04-07T10:55:54.792Z</time></trkpt><trkpt lat="38.708785" lon="16.412455"><ele>403.6666666666667</ele><time>2026-04-07T10:55:55.791Z</time></trkpt><trkpt lat="38.70878" lon="16.412355"><ele>403.0</ele><time>2026-04-07T10:55:56.791Z</time></trkpt><trkpt lat="38.70877" lon="16.41225"><ele>401.59999999999997</ele><time>2026-04-07T10:55:57.792Z</time></trkpt><trkpt lat="38.7087667" lon="16.4121383"><ele>400.2</ele><time>2026-04-07T10:55:58.791Z</time></trkpt><trkpt lat="38.7087667" lon="16.4120383"><ele>398.8</ele><time>2026-04-07T10:55:59.792Z</time></trkpt><trkpt lat="38.708795" lon="16.4119033"><ele>397.4</ele><time>2026-04-07T10:56:01.791Z</time></trkpt><trkpt lat="38.7088567" lon="16.4118333"><ele>396.0</ele><time>2026-04-07T10:56:03.791Z</time></trkpt><trkpt lat="38.7089483" lon="16.4118067"><ele>396.0</ele><time>2026-04-07T10:56:05.791Z</time></trkpt><trkpt lat="38.7090633" lon="16.4117967"><ele>396.0</ele><time>2026-04-07T10:56:07.791Z</time></trkpt><trkpt lat="38.709145" lon="16.4117917"><ele>396.0</ele><time>2026-04-07T10:56:09.792Z</time></trkpt><trkpt lat="38.7092067" lon="16.4117483"><ele>396.0</ele><time>2026-04-07T10:56:12.792Z</time></trkpt><trkpt lat="38.709115" lon="16.4117933"><ele>396.0</ele><time>2026-04-07T10:56:20.791Z</time></trkpt><trkpt lat="38.7090183" lon="16.4118"><ele>396.0</ele><time>2026-04-07T10:56:22.791Z</time></trkpt><trkpt lat="38.70892" lon="16.4118133"><ele>396.0</ele><time>2026-04-07T10:56:24.791Z</time></trkpt><trkpt lat="38.70884" lon="16.4118483"><ele>396.0</ele><time>2026-04-07T10:56:26.791Z</time></trkpt><trkpt lat="38.708785" lon="16.4119067"><ele>396.0</ele><time>2026-04-07T10:56:28.791Z</time></trkpt><trkpt lat="38.7087417" lon="16.412045"><ele>396.0</ele><time>2026-04-07T10:56:30.791Z</time></trkpt><trkpt lat="38.7087233" lon="16.41215"><ele>397.75</ele><time>2026-04-07T10:56:31.791Z</time></trkpt><trkpt lat="38.7087233" lon="16.4122683"><ele>399.5</ele><time>2026-04-07T10:56:32.791Z</time></trkpt><trkpt lat="38.70873" lon="16.4124067"><ele>401.25</ele><time>2026-04-07T10:56:33.791Z</time></trkpt><trkpt lat="38.70873" lon="16.4127183"><ele>403.0</ele><time>2026-04-07T10:56:35.791Z</time></trkpt><trkpt lat="38.70872" lon="16.4128783"><ele>404.0</ele><time>2026-04-07T10:56:36.791Z</time></trkpt><trkpt lat="38.70871" lon="16.4130417"><ele>405.0</ele><time>2026-04-07T10:56:37.792Z</time></trkpt><trkpt lat="38.7086967" lon="16.4132067"><ele>406.0</ele><time>2026-04-07T10:56:38.791Z</time></trkpt><trkpt lat="38.7086817" lon="16.4133683"><ele>407.0</ele><time>2026-04-07T10:56:39.791Z</time></trkpt><trkpt lat="38.70867" lon="16.4135383"><ele>407.0</ele><time>2026-04-07T10:56:40.791Z</time></trkpt><trkpt lat="38.7086533" lon="16.41372"><ele>407.0</ele><time>2026-04-07T10:56:41.792Z</time></trkpt><trkpt lat="38.7086317" lon="16.4138983"><ele>407.0</ele><time>2026-04-07T10:56:42.792Z</time></trkpt><trkpt lat="38.7086083" lon="16.4140733"><ele>407.0</ele><time>2026-04-07T10:56:43.791Z</time></trkpt><trkpt lat="38.7085883" lon="16.414235"><ele>407.75</ele><time>2026-04-07T10:56:44.791Z</time></trkpt><trkpt lat="38.7085817" lon="16.4144033"><ele>408.5</ele><time>2026-04-07T10:56:45.792Z</time></trkpt><trkpt lat="38.7085883" lon="16.4145717"><ele>409.25</ele><time>2026-04-07T10:56:46.792Z</time></trkpt><trkpt lat="38.708605" lon="16.41473"><ele>410.0</ele><time>2026-04-07T10:56:47.791Z</time></trkpt><trkpt lat="38.7086267" lon="16.414895"><ele>411.0</ele><time>2026-04-07T10:56:48.792Z</time></trkpt><trkpt lat="38.7086433" lon="16.4150617"><ele>412.0</ele><time>2026-04-07T10:56:49.79Z</time></trkpt><trkpt lat="38.7086583" lon="16.4152283"><ele>413.0</ele><time>2026-04-07T10:56:50.791Z</time></trkpt><trkpt lat="38.7086733" lon="16.4153967"><ele>414.0</ele><time>2026-04-07T10:56:51.79Z</time></trkpt><trkpt lat="38.7086867" lon="16.4155533"><ele>414.0</ele><time>2026-04-07T10:56:52.79Z</time></trkpt><trkpt lat="38.7087067" lon="16.415715"><ele>414.0</ele><time>2026-04-07T10:56:53.79Z</time></trkpt><trkpt lat="38.7087217" lon="16.4158867"><ele>414.0</ele><time>2026-04-07T10:56:54.79Z</time></trkpt><trkpt lat="38.708735" lon="16.41605"><ele>414.0</ele><time>2026-04-07T10:56:55.79Z</time></trkpt><trkpt lat="38.708755" lon="16.416205"><ele>414.0</ele><time>2026-04-07T10:56:56.79Z</time></trkpt><trkpt lat="38.7087883" lon="16.416365"><ele>414.0</ele><time>2026-04-07T10:56:57.79Z</time></trkpt><trkpt lat="38.7088367" lon="16.41652"><ele>414.0</ele><time>2026-04-07T10:56:58.79Z</time></trkpt><trkpt lat="38.7088933" lon="16.4166683"><ele>414.0</ele><time>2026-04-07T10:56:59.79Z</time></trkpt><trkpt lat="38.70898" lon="16.41679"><ele>414.0</ele><time>2026-04-07T10:57:00.79Z</time></trkpt><trkpt lat="38.70909" lon="16.4169"><ele>414.0</ele><time>2026-04-07T10:57:01.79Z</time></trkpt><trkpt lat="38.7091817" lon="16.4169867"><ele>414.0</ele><time>2026-04-07T10:57:02.79Z</time></trkpt><trkpt lat="38.7092633" lon="16.4170517"><ele>414.0</ele><time>2026-04-07T10:57:03.79Z</time></trkpt><trkpt lat="38.7093383" lon="16.4171"><ele>414.0</ele><time>2026-04-07T10:57:04.791Z</time></trkpt><trkpt lat="38.7094383" lon="16.41716"><ele>413.6666666666667</ele><time>2026-04-07T10:57:06.79Z</time></trkpt><trkpt lat="38.7095067" lon="16.41714"><ele>413.33333333333337</ele><time>2026-04-07T10:57:09.79Z</time></trkpt><trkpt lat="38.70954" lon="16.41707"><ele>413.0</ele><time>2026-04-07T10:57:11.79Z</time></trkpt><trkpt lat="38.709575" lon="16.4169233"><ele>412.6666666666667</ele><time>2026-04-07T10:57:13.79Z</time></trkpt><trkpt lat="38.70959" lon="16.416815"><ele>412.33333333333337</ele><time>2026-04-07T10:57:14.791Z</time></trkpt><trkpt lat="38.7096183" lon="16.4166933"><ele>412.0</ele><time>2026-04-07T10:57:15.791Z</time></trkpt><trkpt lat="38.7096317" lon="16.41656"><ele>412.0</ele><time>2026-04-07T10:57:16.79Z</time></trkpt><trkpt lat="38.7096467" lon="16.41641"><ele>412.0</ele><time>2026-04-07T10:57:17.791Z</time></trkpt><trkpt lat="38.7096583" lon="16.4162667"><ele>412.0</ele><time>2026-04-07T10:57:18.79Z</time></trkpt><trkpt lat="38.70967" lon="16.416135"><ele>412.0</ele><time>2026-04-07T10:57:19.79Z</time></trkpt><trkpt lat="38.7096767" lon="16.41601"><ele>412.0</ele><time>2026-04-07T10:57:20.79Z</time></trkpt><trkpt lat="38.7096883" lon="16.4158833"><ele>412.00000000000006</ele><time>2026-04-07T10:57:21.791Z</time></trkpt><trkpt lat="38.7097" lon="16.4157583"><ele>412.0</ele><time>2026-04-07T10:57:22.79Z</time></trkpt><trkpt lat="38.709715" lon="16.41563"><ele>412.0</ele><time>2026-04-07T10:57:23.79Z</time></trkpt><trkpt lat="38.7097233" lon="16.4155167"><ele>412.0</ele><time>2026-04-07T10:57:24.79Z</time></trkpt><trkpt lat="38.70973" lon="16.41542"><ele>412.00000000000006</ele><time>2026-04-07T10:57:25.79Z</time></trkpt><trkpt lat="38.7097417" lon="16.4153383"><ele>412.0</ele><time>2026-04-07T10:57:26.791Z</time></trkpt><trkpt lat="38.7097517" lon="16.415185"><ele>412.20000000000005</ele><time>2026-04-07T10:57:28.791Z</time></trkpt><trkpt lat="38.709775" lon="16.4150467"><ele>412.4</ele><time>2026-04-07T10:57:30.79Z</time></trkpt><trkpt lat="38.7097733" lon="16.4149033"><ele>412.6</ele><time>2026-04-07T10:57:32.791Z</time></trkpt><trkpt lat="38.70977" lon="16.4147733"><ele>412.79999999999995</ele><time>2026-04-07T10:57:34.79Z</time></trkpt><trkpt lat="38.7097883" lon="16.41464"><ele>413.0</ele><time>2026-04-07T10:57:36.791Z</time></trkpt><trkpt lat="38.7098133" lon="16.4144717"><ele>412.59999999999997</ele><time>2026-04-07T10:57:38.79Z</time></trkpt><trkpt lat="38.70982" lon="16.4143617"><ele>412.2</ele><time>2026-04-07T10:57:39.791Z</time></trkpt><trkpt lat="38.7098383" lon="16.4142333"><ele>411.8</ele><time>2026-04-07T10:57:40.79Z</time></trkpt><trkpt lat="38.709855" lon="16.4141083"><ele>411.4</ele><time>2026-04-07T10:57:41.79Z</time></trkpt><trkpt lat="38.7098633" lon="16.413985"><ele>411.0</ele><time>2026-04-07T10:57:42.79Z</time></trkpt><trkpt lat="38.7098817" lon="16.4138733"><ele>410.85714285714283</ele><time>2026-04-07T10:57:43.79Z</time></trkpt><trkpt lat="38.7099" lon="16.413765"><ele>410.71428571428567</ele><time>2026-04-07T10:57:44.79Z</time></trkpt><trkpt lat="38.7099083" lon="16.4136617"><ele>410.57142857142856</ele><time>2026-04-07T10:57:45.791Z</time></trkpt><trkpt lat="38.7099167" lon="16.4135617"><ele>410.42857142857144</ele><time>2026-04-07T10:57:46.79Z</time></trkpt><trkpt lat="38.70993" lon="16.41348"><ele>410.2857142857143</ele><time>2026-04-07T10:57:47.791Z</time></trkpt><trkpt lat="38.7099433" lon="16.4133983"><ele>410.14285714285717</ele><time>2026-04-07T10:57:48.79Z</time></trkpt><trkpt lat="38.7099567" lon="16.4133083"><ele>410.0</ele><time>2026-04-07T10:57:49.79Z</time></trkpt><trkpt lat="38.7099667" lon="16.413225"><ele>410.0</ele><time>2026-04-07T10:57:50.79Z</time></trkpt><trkpt lat="38.709975" lon="16.4131433"><ele>410.0</ele><time>2026-04-07T10:57:51.791Z</time></trkpt><trkpt lat="38.71001" lon="16.41299"><ele>410.0</ele><time>2026-04-07T10:57:53.79Z</time></trkpt><trkpt lat="38.7100333" lon="16.4128417"><ele>410.0</ele><time>2026-04-07T10:57:55.79Z</time></trkpt><trkpt lat="38.7100467" lon="16.4127"><ele>410.0</ele><time>2026-04-07T10:57:57.791Z</time></trkpt><trkpt lat="38.7100583" lon="16.412545"><ele>409.6</ele><time>2026-04-07T10:57:59.791Z</time></trkpt><trkpt lat="38.71008" lon="16.412385"><ele>409.2</ele><time>2026-04-07T10:58:01.79Z</time></trkpt><trkpt lat="38.7100967" lon="16.4122433"><ele>408.79999999999995</ele><time>2026-04-07T10:58:03.79Z</time></trkpt><trkpt lat="38.710115" lon="16.4121117"><ele>408.4</ele><time>2026-04-07T10:58:05.791Z</time></trkpt><trkpt lat="38.7101117" lon="16.41198"><ele>408.0</ele><time>2026-04-07T10:58:07.79Z</time></trkpt><trkpt lat="38.7101083" lon="16.4118517"><ele>407.6666666666667</ele><time>2026-04-07T10:58:09.791Z</time></trkpt><trkpt lat="38.710115" lon="16.4117233"><ele>407.33333333333337</ele><time>2026-04-07T10:58:11.79Z</time></trkpt><trkpt lat="38.7101283" lon="16.4115717"><ele>407.0</ele><time>2026-04-07T10:58:13.79Z</time></trkpt><trkpt lat="38.710125" lon="16.4114833"><ele>406.6666666666667</ele><time>2026-04-07T10:58:14.791Z</time></trkpt><trkpt lat="38.710115" lon="16.4113967"><ele>406.33333333333337</ele><time>2026-04-07T10:58:15.79Z</time></trkpt><trkpt lat="38.7101083" lon="16.411305"><ele>406.0</ele><time>2026-04-07T10:58:16.791Z</time></trkpt><trkpt lat="38.7101167" lon="16.41121"><ele>406.0</ele><time>2026-04-07T10:58:17.791Z</time></trkpt><trkpt lat="38.71012" lon="16.4110133"><ele>406.0</ele><time>2026-04-07T10:58:19.79Z</time></trkpt><trkpt lat="38.7101267" lon="16.410915"><ele>406.0</ele><time>2026-04-07T10:58:20.791Z</time></trkpt><trkpt lat="38.7101217" lon="16.4108283"><ele>406.0</ele><time>2026-04-07T10:58:21.791Z</time></trkpt><trkpt lat="38.7101167" lon="16.4106933"><ele>406.0</ele><time>2026-04-07T10:58:23.79Z</time></trkpt><trkpt lat="38.7101417" lon="16.41057"><ele>406.00000000000006</ele><time>2026-04-07T10:58:25.791Z</time></trkpt><trkpt lat="38.710175" lon="16.4104767"><ele>406.0</ele><time>2026-04-07T10:58:27.79Z</time></trkpt><trkpt lat="38.7101117" lon="16.410535"><ele>406.0</ele><time>2026-04-07T10:58:33.79Z</time></trkpt><trkpt lat="38.7101033" lon="16.41067"><ele>406.0</ele><time>2026-04-07T10:58:35.79Z</time></trkpt><trkpt lat="38.7100917" lon="16.41076"><ele>406.00000000000006</ele><time>2026-04-07T10:58:36.79Z</time></trkpt><trkpt lat="38.7100767" lon="16.4108433"><ele>406.0</ele><time>2026-04-07T10:58:37.79Z</time></trkpt><trkpt lat="38.710075" lon="16.410925"><ele>406.0</ele><time>2026-04-07T10:58:38.791Z</time></trkpt><trkpt lat="38.7100683" lon="16.4110067"><ele>406.0</ele><time>2026-04-07T10:58:39.79Z</time></trkpt><trkpt lat="38.7100683" lon="16.4111583"><ele>406.0</ele><time>2026-04-07T10:58:41.791Z</time></trkpt><trkpt lat="38.7100717" lon="16.4113133"><ele>406.0</ele><time>2026-04-07T10:58:43.791Z</time></trkpt><trkpt lat="38.7100683" lon="16.4114667"><ele>406.0</ele><time>2026-04-07T10:58:45.79Z</time></trkpt><trkpt lat="38.7100667" lon="16.4116167"><ele>405.83333333333337</ele><time>2026-04-07T10:58:47.79Z</time></trkpt><trkpt lat="38.71006" lon="16.4117"><ele>405.6666666666667</ele><time>2026-04-07T10:58:48.79Z</time></trkpt><trkpt lat="38.7100783" lon="16.411855"><ele>405.5</ele><time>2026-04-07T10:58:50.79Z</time></trkpt><trkpt lat="38.7100733" lon="16.4119383"><ele>405.33333333333337</ele><time>2026-04-07T10:58:51.791Z</time></trkpt><trkpt lat="38.7100683" lon="16.41202"><ele>405.1666666666667</ele><time>2026-04-07T10:58:52.791Z</time></trkpt><trkpt lat="38.7100567" lon="16.4121117"><ele>405.0</ele><time>2026-04-07T10:58:53.791Z</time></trkpt><trkpt lat="38.7100383" lon="16.41227"><ele>405.4285714285714</ele><time>2026-04-07T10:58:55.79Z</time></trkpt><trkpt lat="38.710025" lon="16.4123517"><ele>405.85714285714283</ele><time>2026-04-07T10:58:56.79Z</time></trkpt><trkpt lat="38.7100117" lon="16.41249"><ele>406.2857142857143</ele><time>2026-04-07T10:58:58.79Z</time></trkpt><trkpt lat="38.7100067" lon="16.4125717"><ele>406.71428571428567</ele><time>2026-04-07T10:58:59.79Z</time></trkpt><trkpt lat="38.7099967" lon="16.4126583"><ele>407.14285714285717</ele><time>2026-04-07T10:59:00.79Z</time></trkpt><trkpt lat="38.7099967" lon="16.4127417"><ele>407.57142857142856</ele><time>2026-04-07T10:59:01.791Z</time></trkpt><trkpt lat="38.7099933" lon="16.4128317"><ele>408.0</ele><time>2026-04-07T10:59:02.79Z</time></trkpt><trkpt lat="38.7099917" lon="16.4129983"><ele>408.4</ele><time>2026-04-07T10:59:04.79Z</time></trkpt><trkpt lat="38.70997" lon="16.413145"><ele>408.79999999999995</ele><time>2026-04-07T10:59:06.79Z</time></trkpt><trkpt lat="38.7099233" lon="16.4132867"><ele>409.2</ele><time>2026-04-07T10:59:08.79Z</time></trkpt><trkpt lat="38.7098917" lon="16.41344"><ele>409.6</ele><time>2026-04-07T10:59:10.791Z</time></trkpt><trkpt lat="38.7098767" lon="16.41352"><ele>410.0</ele><time>2026-04-07T10:59:11.79Z</time></trkpt><trkpt lat="38.7098467" lon="16.4136867"><ele>409.99999999999994</ele><time>2026-04-07T10:59:13.79Z</time></trkpt><trkpt lat="38.7098417" lon="16.4137817"><ele>410.0</ele><time>2026-04-07T10:59:14.79Z</time></trkpt><trkpt lat="38.7098383" lon="16.413885"><ele>410.0</ele><time>2026-04-07T10:59:15.79Z</time></trkpt><trkpt lat="38.709835" lon="16.4139933"><ele>410.0</ele><time>2026-04-07T10:59:16.79Z</time></trkpt><trkpt lat="38.709825" lon="16.4141033"><ele>409.99999999999994</ele><time>2026-04-07T10:59:17.791Z</time></trkpt><trkpt lat="38.70982" lon="16.41421"><ele>410.0</ele><time>2026-04-07T10:59:18.79Z</time></trkpt><trkpt lat="38.7098117" lon="16.4143183"><ele>410.16666666666663</ele><time>2026-04-07T10:59:19.79Z</time></trkpt><trkpt lat="38.7098" lon="16.4144267"><ele>410.3333333333333</ele><time>2026-04-07T10:59:20.791Z</time></trkpt><trkpt lat="38.70979" lon="16.414535"><ele>410.5</ele><time>2026-04-07T10:59:21.79Z</time></trkpt><trkpt lat="38.70978" lon="16.4146417"><ele>410.66666666666663</ele><time>2026-04-07T10:59:22.79Z</time></trkpt><trkpt lat="38.7097733" lon="16.41474"><ele>410.8333333333333</ele><time>2026-04-07T10:59:23.791Z</time></trkpt><trkpt lat="38.7097733" lon="16.41485"><ele>411.0</ele><time>2026-04-07T10:59:24.79Z</time></trkpt><trkpt lat="38.709775" lon="16.414955"><ele>411.20000000000005</ele><time>2026-04-07T10:59:25.791Z</time></trkpt><trkpt lat="38.709765" lon="16.4150783"><ele>411.40000000000003</ele><time>2026-04-07T10:59:26.79Z</time></trkpt><trkpt lat="38.7097467" lon="16.4151883"><ele>411.6</ele><time>2026-04-07T10:59:27.791Z</time></trkpt><trkpt lat="38.7097317" lon="16.415295"><ele>411.8</ele><time>2026-04-07T10:59:28.79Z</time></trkpt><trkpt lat="38.7097217" lon="16.4154133"><ele>412.0</ele><time>2026-04-07T10:59:29.791Z</time></trkpt><trkpt lat="38.709715" lon="16.41553"><ele>412.0</ele><time>2026-04-07T10:59:30.79Z</time></trkpt><trkpt lat="38.7097133" lon="16.4156517"><ele>412.0</ele><time>2026-04-07T10:59:31.791Z</time></trkpt><trkpt lat="38.709705" lon="16.4157817"><ele>412.0</ele><time>2026-04-07T10:59:32.79Z</time></trkpt><trkpt lat="38.7096867" lon="16.415905"><ele>412.0</ele><time>2026-04-07T10:59:33.791Z</time></trkpt><trkpt lat="38.70967" lon="16.4160267"><ele>412.0</ele><time>2026-04-07T10:59:34.79Z</time></trkpt><trkpt lat="38.70966" lon="16.4161533"><ele>412.0</ele><time>2026-04-07T10:59:35.79Z</time></trkpt><trkpt lat="38.709645" lon="16.4162833"><ele>412.0</ele><time>2026-04-07T10:59:36.79Z</time></trkpt><trkpt lat="38.7096333" lon="16.4164083"><ele>412.0</ele><time>2026-04-07T10:59:37.79Z</time></trkpt><trkpt lat="38.7096183" lon="16.416535"><ele>412.0</ele><time>2026-04-07T10:59:38.791Z</time></trkpt><trkpt lat="38.709605" lon="16.41665"><ele>412.0</ele><time>2026-04-07T10:59:39.79Z</time></trkpt><trkpt lat="38.70959" lon="16.4167433"><ele>412.00000000000006</ele><time>2026-04-07T10:59:40.79Z</time></trkpt><trkpt lat="38.7095683" lon="16.416835"><ele>412.0</ele><time>2026-04-07T10:59:41.791Z</time></trkpt><trkpt lat="38.709555" lon="16.41692"><ele>412.0</ele><time>2026-04-07T10:59:42.791Z</time></trkpt><trkpt lat="38.7095317" lon="16.4170383"><ele>412.0</ele><time>2026-04-07T10:59:44.79Z</time></trkpt><trkpt lat="38.709475" lon="16.4171017"><ele>412.00000000000006</ele><time>2026-04-07T10:59:47.79Z</time></trkpt><trkpt lat="38.7094067" lon="16.4170767"><ele>412.0</ele><time>2026-04-07T10:59:49.791Z</time></trkpt><trkpt lat="38.7093217" lon="16.4170317"><ele>412.33333333333337</ele><time>2026-04-07T10:59:51.791Z</time></trkpt><trkpt lat="38.709215" lon="16.4169717"><ele>412.6666666666667</ele><time>2026-04-07T10:59:53.79Z</time></trkpt><trkpt lat="38.7091583" lon="16.4169283"><ele>413.0</ele><time>2026-04-07T10:59:54.79Z</time></trkpt><trkpt lat="38.7090917" lon="16.4168767"><ele>413.33333333333337</ele><time>2026-04-07T10:59:55.79Z</time></trkpt><trkpt lat="38.709025" lon="16.4168233"><ele>413.6666666666667</ele><time>2026-04-07T10:59:56.79Z</time></trkpt><trkpt lat="38.7089633" lon="16.4167533"><ele>414.0</ele><time>2026-04-07T10:59:57.79Z</time></trkpt><trkpt lat="38.7089067" lon="16.416665"><ele>414.0</ele><time>2026-04-07T10:59:58.791Z</time></trkpt><trkpt lat="38.708865" lon="16.4165733"><ele>414.0</ele><time>2026-04-07T10:59:59.79Z</time></trkpt><trkpt lat="38.708835" lon="16.4164833"><ele>414.0</ele><time>2026-04-07T11:00:00.791Z</time></trkpt><trkpt lat="38.7088083" lon="16.416395"><ele>414.0</ele><time>2026-04-07T11:00:01.79Z</time></trkpt><trkpt lat="38.7087917" lon="16.4163017"><ele>414.0</ele><time>2026-04-07T11:00:02.79Z</time></trkpt><trkpt lat="38.7087717" lon="16.416185"><ele>414.0</ele><time>2026-04-07T11:00:03.79Z</time></trkpt><trkpt lat="38.7087467" lon="16.4160417"><ele>414.0</ele><time>2026-04-07T11:00:04.79Z</time></trkpt><trkpt lat="38.7087217" lon="16.41588"><ele>414.0</ele><time>2026-04-07T11:00:05.79Z</time></trkpt><trkpt lat="38.7087067" lon="16.41572"><ele>414.0</ele><time>2026-04-07T11:00:06.79Z</time></trkpt><trkpt lat="38.7086783" lon="16.4155467"><ele>414.0</ele><time>2026-04-07T11:00:07.79Z</time></trkpt><trkpt lat="38.70866" lon="16.4153717"><ele>414.0</ele><time>2026-04-07T11:00:08.79Z</time></trkpt><trkpt lat="38.7086467" lon="16.4152033"><ele>414.0</ele><time>2026-04-07T11:00:09.79Z</time></trkpt><trkpt lat="38.7086467" lon="16.415045"><ele>414.0</ele><time>2026-04-07T11:00:10.79Z</time></trkpt><trkpt lat="38.70863" lon="16.414875"><ele>414.0</ele><time>2026-04-07T11:00:11.79Z</time></trkpt><trkpt lat="38.7086183" lon="16.4147067"><ele>413.0</ele><time>2026-04-07T11:00:12.79Z</time></trkpt><trkpt lat="38.70861" lon="16.41454"><ele>412.0</ele><time>2026-04-07T11:00:13.791Z</time></trkpt><trkpt lat="38.7086167" lon="16.4143733"><ele>411.0</ele><time>2026-04-07T11:00:14.79Z</time></trkpt><trkpt lat="38.7086233" lon="16.4142"><ele>410.0</ele><time>2026-04-07T11:00:15.79Z</time></trkpt><trkpt lat="38.7086433" lon="16.4140383"><ele>410.0</ele><time>2026-04-07T11:00:16.79Z</time></trkpt><trkpt lat="38.7086617" lon="16.4138817"><ele>410.0</ele><time>2026-04-07T11:00:17.79Z</time></trkpt><trkpt lat="38.7086783" lon="16.4137233"><ele>410.0</ele><time>2026-04-07T11:00:18.79Z</time></trkpt><trkpt lat="38.7086967" lon="16.4135667"><ele>410.0</ele><time>2026-04-07T11:00:19.791Z</time></trkpt><trkpt lat="38.7087083" lon="16.41342"><ele>409.0</ele><time>2026-04-07T11:00:20.79Z</time></trkpt><trkpt lat="38.7087183" lon="16.4132517"><ele>408.0</ele><time>2026-04-07T11:00:21.79Z</time></trkpt><trkpt lat="38.7087267" lon="16.4130867"><ele>407.0</ele><time>2026-04-07T11:00:22.79Z</time></trkpt><trkpt lat="38.7087367" lon="16.4127983"><ele>406.20000000000005</ele><time>2026-04-07T11:00:24.79Z</time></trkpt><trkpt lat="38.70874" lon="16.41266"><ele>405.4</ele><time>2026-04-07T11:00:25.79Z</time></trkpt><trkpt lat="38.7087467" lon="16.4125267"><ele>404.6</ele><time>2026-04-07T11:00:26.79Z</time></trkpt><trkpt lat="38.70875" lon="16.4123983"><ele>403.79999999999995</ele><time>2026-04-07T11:00:27.79Z</time></trkpt><trkpt lat="38.7087517" lon="16.4122717"><ele>403.0</ele><time>2026-04-07T11:00:28.791Z</time></trkpt><trkpt lat="38.7087533" lon="16.4121483"><ele>401.59999999999997</ele><time>2026-04-07T11:00:29.791Z</time></trkpt><trkpt lat="38.7087567" lon="16.41202"><ele>400.2</ele><time>2026-04-07T11:00:30.79Z</time></trkpt><trkpt lat="38.7087533" lon="16.4119133"><ele>398.8</ele><time>2026-04-07T11:00:31.79Z</time></trkpt><trkpt lat="38.70874" lon="16.41183"><ele>397.4</ele><time>2026-04-07T11:00:32.79Z</time></trkpt><trkpt lat="38.7086583" lon="16.411695"><ele>396.0</ele><time>2026-04-07T11:00:34.79Z</time></trkpt><trkpt lat="38.70858" lon="16.41165"><ele>394.0</ele><time>2026-04-07T11:00:35.79Z</time></trkpt><trkpt lat="38.7084483" lon="16.411635"><ele>392.0</ele><time>2026-04-07T11:00:36.79Z</time></trkpt><trkpt lat="38.7082967" lon="16.4116117"><ele>390.0</ele><time>2026-04-07T11:00:37.79Z</time></trkpt><trkpt lat="38.7081483" lon="16.4115783"><ele>388.0</ele><time>2026-04-07T11:00:38.79Z</time></trkpt><trkpt lat="38.7079967" lon="16.4115417"><ele>388.0</ele><time>2026-04-07T11:00:39.791Z</time></trkpt><trkpt lat="38.7078433" lon="16.4115283"><ele>388.0</ele><time>2026-04-07T11:00:40.791Z</time></trkpt><trkpt lat="38.7076933" lon="16.4115417"><ele>388.0</ele><time>2026-04-07T11:00:41.79Z</time></trkpt><trkpt lat="38.7075517" lon="16.41159"><ele>387.79999999999995</ele><time>2026-04-07T11:00:42.79Z</time></trkpt><trkpt lat="38.70744" lon="16.411635"><ele>387.6</ele><time>2026-04-07T11:00:43.79Z</time></trkpt><trkpt lat="38.70735" lon="16.4116617"><ele>387.4</ele><time>2026-04-07T11:00:44.79Z</time></trkpt><trkpt lat="38.7072583" lon="16.4116583"><ele>387.20000000000005</ele><time>2026-04-07T11:00:45.791Z</time></trkpt><trkpt lat="38.7071617" lon="16.411625"><ele>387.0</ele><time>2026-04-07T11:00:46.79Z</time></trkpt><trkpt lat="38.707045" lon="16.4115417"><ele>387.0</ele><time>2026-04-07T11:00:47.791Z</time></trkpt><trkpt lat="38.70692" lon="16.411425"><ele>387.0</ele><time>2026-04-07T11:00:48.79Z</time></trkpt><trkpt lat="38.7067933" lon="16.4113"><ele>387.0</ele><time>2026-04-07T11:00:49.79Z</time></trkpt><trkpt lat="38.7066883" lon="16.4111833"><ele>387.0</ele><time>2026-04-07T11:00:50.79Z</time></trkpt><trkpt lat="38.7065817" lon="16.4110967"><ele>387.0</ele><time>2026-04-07T11:00:51.79Z</time></trkpt><trkpt lat="38.7065017" lon="16.4110217"><ele>387.0</ele><time>2026-04-07T11:00:52.791Z</time></trkpt><trkpt lat="38.7064283" lon="16.4109417"><ele>387.0</ele><time>2026-04-07T11:00:53.79Z</time></trkpt><trkpt lat="38.7063433" lon="16.4108717"><ele>387.0</ele><time>2026-04-07T11:00:54.79Z</time></trkpt><trkpt lat="38.7062467" lon="16.410795"><ele>387.0</ele><time>2026-04-07T11:00:55.79Z</time></trkpt><trkpt lat="38.7061467" lon="16.4107183"><ele>387.0</ele><time>2026-04-07T11:00:56.79Z</time></trkpt><trkpt lat="38.70606" lon="16.41065"><ele>387.0</ele><time>2026-04-07T11:00:57.79Z</time></trkpt><trkpt lat="38.7059883" lon="16.4105733"><ele>387.0</ele><time>2026-04-07T11:00:58.79Z</time></trkpt><trkpt lat="38.7059167" lon="16.4104917"><ele>387.0</ele><time>2026-04-07T11:00:59.79Z</time></trkpt><trkpt lat="38.7058633" lon="16.4103817"><ele>386.75</ele><time>2026-04-07T11:01:00.79Z</time></trkpt><trkpt lat="38.7058317" lon="16.4102633"><ele>386.5</ele><time>2026-04-07T11:01:01.79Z</time></trkpt><trkpt lat="38.7058283" lon="16.4101267"><ele>386.25</ele><time>2026-04-07T11:01:02.791Z</time></trkpt><trkpt lat="38.7058417" lon="16.4099733"><ele>386.0</ele><time>2026-04-07T11:01:03.79Z</time></trkpt><trkpt lat="38.7058517" lon="16.409805"><ele>386.25</ele><time>2026-04-07T11:01:04.79Z</time></trkpt><trkpt lat="38.7058633" lon="16.4096267"><ele>386.5</ele><time>2026-04-07T11:01:05.79Z</time></trkpt><trkpt lat="38.705865" lon="16.4094467"><ele>386.75</ele><time>2026-04-07T11:01:06.79Z</time></trkpt><trkpt lat="38.7058333" lon="16.4092717"><ele>387.0</ele><time>2026-04-07T11:01:07.79Z</time></trkpt><trkpt lat="38.7057817" lon="16.4091033"><ele>387.0</ele><time>2026-04-07T11:01:08.79Z</time></trkpt><trkpt lat="38.7057267" lon="16.4089317"><ele>387.0</ele><time>2026-04-07T11:01:09.79Z</time></trkpt><trkpt lat="38.7056717" lon="16.4087817"><ele>387.0</ele><time>2026-04-07T11:01:10.79Z</time></trkpt><trkpt lat="38.7056283" lon="16.4086567"><ele>387.0</ele><time>2026-04-07T11:01:11.79Z</time></trkpt><trkpt lat="38.7056017" lon="16.4085683"><ele>387.40000000000003</ele><time>2026-04-07T11:01:12.79Z</time></trkpt><trkpt lat="38.7055883" lon="16.40845"><ele>387.8</ele><time>2026-04-07T11:01:14.791Z</time></trkpt><trkpt lat="38.70565" lon="16.40837"><ele>388.2</ele><time>2026-04-07T11:01:16.79Z</time></trkpt><trkpt lat="38.7057183" lon="16.408335"><ele>388.6</ele><time>2026-04-07T11:01:17.79Z</time></trkpt><trkpt lat="38.7058167" lon="16.4082833"><ele>389.0</ele><time>2026-04-07T11:01:18.79Z</time></trkpt><trkpt lat="38.7059467" lon="16.4082217"><ele>389.66666666666663</ele><time>2026-04-07T11:01:19.79Z</time></trkpt><trkpt lat="38.7061" lon="16.408145"><ele>390.33333333333337</ele><time>2026-04-07T11:01:20.79Z</time></trkpt><trkpt lat="38.7062567" lon="16.4080633"><ele>391.0</ele><time>2026-04-07T11:01:21.791Z</time></trkpt><trkpt lat="38.706415" lon="16.407955"><ele>391.0</ele><time>2026-04-07T11:01:22.791Z</time></trkpt><trkpt lat="38.706585" lon="16.40785"><ele>391.0</ele><time>2026-04-07T11:01:23.79Z</time></trkpt><trkpt lat="38.7067583" lon="16.4077583"><ele>391.0</ele><time>2026-04-07T11:01:24.79Z</time></trkpt><trkpt lat="38.7069167" lon="16.4076633"><ele>391.6666666666667</ele><time>2026-04-07T11:01:25.79Z</time></trkpt><trkpt lat="38.70707" lon="16.40757"><ele>392.33333333333337</ele><time>2026-04-07T11:01:26.79Z</time></trkpt><trkpt lat="38.707215" lon="16.4074783"><ele>393.0</ele><time>2026-04-07T11:01:27.79Z</time></trkpt><trkpt lat="38.707355" lon="16.4073917"><ele>393.0</ele><time>2026-04-07T11:01:28.79Z</time></trkpt><trkpt lat="38.7074867" lon="16.40732"><ele>393.0</ele><time>2026-04-07T11:01:29.79Z</time></trkpt><trkpt lat="38.7076067" lon="16.4072417"><ele>393.0</ele><time>2026-04-07T11:01:30.791Z</time></trkpt><trkpt lat="38.7077233" lon="16.407165"><ele>393.0</ele><time>2026-04-07T11:01:31.791Z</time></trkpt><trkpt lat="38.7078483" lon="16.4070867"><ele>394.33333333333337</ele><time>2026-04-07T11:01:32.791Z</time></trkpt><trkpt lat="38.70798" lon="16.4070067"><ele>395.6666666666667</ele><time>2026-04-07T11:01:33.79Z</time></trkpt><trkpt lat="38.7081217" lon="16.4069167"><ele>397.0</ele><time>2026-04-07T11:01:34.79Z</time></trkpt><trkpt lat="38.7082617" lon="16.4068383"><ele>397.0</ele><time>2026-04-07T11:01:35.79Z</time></trkpt><trkpt lat="38.7083983" lon="16.4067583"><ele>397.0</ele><time>2026-04-07T11:01:36.79Z</time></trkpt><trkpt lat="38.708525" lon="16.4066833"><ele>397.0</ele><time>2026-04-07T11:01:37.791Z</time></trkpt><trkpt lat="38.7086483" lon="16.4066233"><ele>397.0</ele><time>2026-04-07T11:01:38.79Z</time></trkpt><trkpt lat="38.7087617" lon="16.4065433"><ele>398.0</ele><time>2026-04-07T11:01:39.79Z</time></trkpt><trkpt lat="38.7088667" lon="16.4064733"><ele>399.0</ele><time>2026-04-07T11:01:40.791Z</time></trkpt><trkpt lat="38.7089767" lon="16.4063983"><ele>400.0</ele><time>2026-04-07T11:01:41.79Z</time></trkpt><trkpt lat="38.7091033" lon="16.40633"><ele>401.0</ele><time>2026-04-07T11:01:42.791Z</time></trkpt><trkpt lat="38.7092167" lon="16.40627"><ele>401.20000000000005</ele><time>2026-04-07T11:01:43.79Z</time></trkpt><trkpt lat="38.7093133" lon="16.4062083"><ele>401.40000000000003</ele><time>2026-04-07T11:01:44.79Z</time></trkpt><trkpt lat="38.709405" lon="16.40615"><ele>401.6</ele><time>2026-04-07T11:01:45.79Z</time></trkpt><trkpt lat="38.7095017" lon="16.4061233"><ele>401.8</ele><time>2026-04-07T11:01:46.79Z</time></trkpt><trkpt lat="38.709605" lon="16.4061283"><ele>402.0</ele><time>2026-04-07T11:01:47.791Z</time></trkpt><trkpt lat="38.709715" lon="16.40616"><ele>402.40000000000003</ele><time>2026-04-07T11:01:48.79Z</time></trkpt><trkpt lat="38.7098233" lon="16.4062067"><ele>402.8</ele><time>2026-04-07T11:01:49.791Z</time></trkpt><trkpt lat="38.709915" lon="16.4062533"><ele>403.2</ele><time>2026-04-07T11:01:50.791Z</time></trkpt><trkpt lat="38.7099983" lon="16.4063233"><ele>403.6</ele><time>2026-04-07T11:01:51.79Z</time></trkpt><trkpt lat="38.71006" lon="16.40643"><ele>404.0</ele><time>2026-04-07T11:01:52.79Z</time></trkpt><trkpt lat="38.7101167" lon="16.4065417"><ele>404.0</ele><time>2026-04-07T11:01:53.791Z</time></trkpt><trkpt lat="38.7101633" lon="16.4066567"><ele>404.0</ele><time>2026-04-07T11:01:54.79Z</time></trkpt><trkpt lat="38.7101933" lon="16.406775"><ele>404.0</ele><time>2026-04-07T11:01:55.791Z</time></trkpt><trkpt lat="38.710225" lon="16.4068883"><ele>404.0</ele><time>2026-04-07T11:01:56.79Z</time></trkpt><trkpt lat="38.7102767" lon="16.4069733"><ele>404.0</ele><time>2026-04-07T11:01:57.79Z</time></trkpt><trkpt lat="38.7103517" lon="16.4070367"><ele>404.4</ele><time>2026-04-07T11:01:58.79Z</time></trkpt><trkpt lat="38.7104367" lon="16.4070683"><ele>404.79999999999995</ele><time>2026-04-07T11:01:59.791Z</time></trkpt><trkpt lat="38.7105233" lon="16.4070867"><ele>405.20000000000005</ele><time>2026-04-07T11:02:00.791Z</time></trkpt><trkpt lat="38.71062" lon="16.4070783"><ele>405.6</ele><time>2026-04-07T11:02:01.791Z</time></trkpt><trkpt lat="38.7107167" lon="16.4070433"><ele>406.0</ele><time>2026-04-07T11:02:02.791Z</time></trkpt><trkpt lat="38.71082" lon="16.4069917"><ele>406.0</ele><time>2026-04-07T11:02:03.79Z</time></trkpt><trkpt lat="38.7109217" lon="16.4069467"><ele>406.0</ele><time>2026-04-07T11:02:04.791Z</time></trkpt><trkpt lat="38.7110183" lon="16.4069267"><ele>406.0</ele><time>2026-04-07T11:02:05.79Z</time></trkpt><trkpt lat="38.7111033" lon="16.406945"><ele>406.0</ele><time>2026-04-07T11:02:06.79Z</time></trkpt><trkpt lat="38.7111933" lon="16.4069917"><ele>406.0</ele><time>2026-04-07T11:02:07.791Z</time></trkpt><trkpt lat="38.711275" lon="16.4070583"><ele>407.00000000000006</ele><time>2026-04-07T11:02:08.791Z</time></trkpt><trkpt lat="38.7113417" lon="16.4071233"><ele>408.0</ele><time>2026-04-07T11:02:09.791Z</time></trkpt><trkpt lat="38.7114033" lon="16.4071783"><ele>409.0</ele><time>2026-04-07T11:02:10.79Z</time></trkpt><trkpt lat="38.71146" lon="16.4072317"><ele>410.0</ele><time>2026-04-07T11:02:11.79Z</time></trkpt><trkpt lat="38.7115117" lon="16.407305"><ele>411.00000000000006</ele><time>2026-04-07T11:02:12.79Z</time></trkpt><trkpt lat="38.7115517" lon="16.4073917"><ele>412.0</ele><time>2026-04-07T11:02:13.79Z</time></trkpt><trkpt lat="38.71158" lon="16.4074783"><ele>412.33333333333337</ele><time>2026-04-07T11:02:14.79Z</time></trkpt><trkpt lat="38.711605" lon="16.4075717"><ele>412.6666666666667</ele><time>2026-04-07T11:02:15.791Z</time></trkpt><trkpt lat="38.7116217" lon="16.4076683"><ele>413.0</ele><time>2026-04-07T11:02:16.791Z</time></trkpt><trkpt lat="38.7116367" lon="16.4077717"><ele>413.33333333333337</ele><time>2026-04-07T11:02:17.79Z</time></trkpt><trkpt lat="38.7116567" lon="16.4078733"><ele>413.6666666666667</ele><time>2026-04-07T11:02:18.79Z</time></trkpt><trkpt lat="38.7116767" lon="16.4079783"><ele>414.0</ele><time>2026-04-07T11:02:19.791Z</time></trkpt><trkpt lat="38.7117017" lon="16.4080733"><ele>414.0</ele><time>2026-04-07T11:02:20.79Z</time></trkpt><trkpt lat="38.7117267" lon="16.40817"><ele>414.0</ele><time>2026-04-07T11:02:21.79Z</time></trkpt><trkpt lat="38.711735" lon="16.40827"><ele>414.0</ele><time>2026-04-07T11:02:22.79Z</time></trkpt><trkpt lat="38.71175" lon="16.4083567"><ele>414.0</ele><time>2026-04-07T11:02:23.791Z</time></trkpt><trkpt lat="38.7117683" lon="16.4084583"><ele>414.0</ele><time>2026-04-07T11:02:24.79Z</time></trkpt><trkpt lat="38.7117933" lon="16.4085367"><ele>414.0</ele><time>2026-04-07T11:02:25.79Z</time></trkpt><trkpt lat="38.7118333" lon="16.4086217"><ele>414.0</ele><time>2026-04-07T11:02:26.79Z</time></trkpt><trkpt lat="38.711885" lon="16.4087017"><ele>414.0</ele><time>2026-04-07T11:02:27.79Z</time></trkpt><trkpt lat="38.7119417" lon="16.40879"><ele>414.0</ele><time>2026-04-07T11:02:28.79Z</time></trkpt><trkpt lat="38.7120083" lon="16.408855"><ele>414.0</ele><time>2026-04-07T11:02:29.79Z</time></trkpt><trkpt lat="38.71209" lon="16.40892"><ele>414.0</ele><time>2026-04-07T11:02:30.79Z</time></trkpt><trkpt lat="38.7121767" lon="16.4089817"><ele>414.0</ele><time>2026-04-07T11:02:31.791Z</time></trkpt><trkpt lat="38.7122583" lon="16.4090417"><ele>415.8333333333333</ele><time>2026-04-07T11:02:32.79Z</time></trkpt><trkpt lat="38.7123367" lon="16.4091117"><ele>417.66666666666663</ele><time>2026-04-07T11:02:33.79Z</time></trkpt><trkpt lat="38.7124" lon="16.4091983"><ele>419.5</ele><time>2026-04-07T11:02:34.791Z</time></trkpt><trkpt lat="38.7124517" lon="16.40929"><ele>421.3333333333333</ele><time>2026-04-07T11:02:35.79Z</time></trkpt><trkpt lat="38.7124967" lon="16.4093783"><ele>423.16666666666663</ele><time>2026-04-07T11:02:36.791Z</time></trkpt><trkpt lat="38.7125233" lon="16.40946"><ele>425.0</ele><time>2026-04-07T11:02:37.79Z</time></trkpt><trkpt lat="38.7125333" lon="16.409625"><ele>424.2</ele><time>2026-04-07T11:02:39.79Z</time></trkpt><trkpt lat="38.7125233" lon="16.4097333"><ele>423.4</ele><time>2026-04-07T11:02:40.79Z</time></trkpt><trkpt lat="38.7125233" lon="16.40985"><ele>422.6</ele><time>2026-04-07T11:02:41.791Z</time></trkpt><trkpt lat="38.71254" lon="16.40998"><ele>421.8</ele><time>2026-04-07T11:02:42.79Z</time></trkpt><trkpt lat="38.712575" lon="16.4101117"><ele>421.0</ele><time>2026-04-07T11:02:43.79Z</time></trkpt><trkpt lat="38.712615" lon="16.41024"><ele>421.0</ele><time>2026-04-07T11:02:44.79Z</time></trkpt><trkpt lat="38.7126517" lon="16.410365"><ele>421.0</ele><time>2026-04-07T11:02:45.791Z</time></trkpt><trkpt lat="38.71269" lon="16.4104833"><ele>421.0</ele><time>2026-04-07T11:02:46.79Z</time></trkpt><trkpt lat="38.7127283" lon="16.41059"><ele>421.0</ele><time>2026-04-07T11:02:47.79Z</time></trkpt><trkpt lat="38.71277" lon="16.4106933"><ele>421.0</ele><time>2026-04-07T11:02:48.791Z</time></trkpt><trkpt lat="38.71281" lon="16.41079"><ele>424.1666666666667</ele><time>2026-04-07T11:02:49.79Z</time></trkpt><trkpt lat="38.7128433" lon="16.4108883"><ele>427.33333333333337</ele><time>2026-04-07T11:02:50.79Z</time></trkpt><trkpt lat="38.71288" lon="16.4109717"><ele>430.5</ele><time>2026-04-07T11:02:51.791Z</time></trkpt><trkpt lat="38.71293" lon="16.4110383"><ele>433.66666666666663</ele><time>2026-04-07T11:02:52.79Z</time></trkpt><trkpt lat="38.7129833" lon="16.4111133"><ele>436.8333333333333</ele><time>2026-04-07T11:02:53.791Z</time></trkpt><trkpt lat="38.71303" lon="16.41118"><ele>440.0</ele><time>2026-04-07T11:02:54.79Z</time></trkpt><trkpt lat="38.713075" lon="16.4112533"><ele>439.49999999999994</ele><time>2026-04-07T11:02:55.791Z</time></trkpt><trkpt lat="38.7131417" lon="16.4113917"><ele>439.0</ele><time>2026-04-07T11:02:57.79Z</time></trkpt><trkpt lat="38.713155" lon="16.411475"><ele>438.5</ele><time>2026-04-07T11:02:58.79Z</time></trkpt><trkpt lat="38.7131467" lon="16.411555"><ele>438.0</ele><time>2026-04-07T11:02:59.79Z</time></trkpt><trkpt lat="38.7131233" lon="16.41163"><ele>437.49999999999994</ele><time>2026-04-07T11:03:00.79Z</time></trkpt><trkpt lat="38.7131017" lon="16.4117083"><ele>437.0</ele><time>2026-04-07T11:03:02.79Z</time></trkpt><trkpt lat="38.713075" lon="16.4118383"><ele>437.0</ele><time>2026-04-07T11:03:31.79Z</time></trkpt><trkpt lat="38.7130667" lon="16.411945"><ele>437.00000000000006</ele><time>2026-04-07T11:03:32.791Z</time></trkpt><trkpt lat="38.7130717" lon="16.4120633"><ele>437.00000000000006</ele><time>2026-04-07T11:03:33.79Z</time></trkpt><trkpt lat="38.713095" lon="16.412195"><ele>437.0</ele><time>2026-04-07T11:03:34.79Z</time></trkpt><trkpt lat="38.7131317" lon="16.4123183"><ele>437.0</ele><time>2026-04-07T11:03:35.79Z</time></trkpt><trkpt lat="38.7131933" lon="16.4124283"><ele>436.20000000000005</ele><time>2026-04-07T11:03:36.791Z</time></trkpt><trkpt lat="38.7132533" lon="16.4125233"><ele>435.40000000000003</ele><time>2026-04-07T11:03:37.79Z</time></trkpt><trkpt lat="38.7133117" lon="16.4126"><ele>434.59999999999997</ele><time>2026-04-07T11:03:38.79Z</time></trkpt><trkpt lat="38.7133683" lon="16.4126567"><ele>433.79999999999995</ele><time>2026-04-07T11:03:39.79Z</time></trkpt><trkpt lat="38.7134667" lon="16.4127117"><ele>433.0</ele><time>2026-04-07T11:03:41.79Z</time></trkpt><trkpt lat="38.713575" lon="16.412705"><ele>436.2</ele><time>2026-04-07T11:03:43.79Z</time></trkpt><trkpt lat="38.7136483" lon="16.41269"><ele>439.4</ele><time>2026-04-07T11:03:44.79Z</time></trkpt><trkpt lat="38.7137467" lon="16.4126533"><ele>442.59999999999997</ele><time>2026-04-07T11:03:45.79Z</time></trkpt><trkpt lat="38.71387" lon="16.4126167"><ele>445.79999999999995</ele><time>2026-04-07T11:03:46.79Z</time></trkpt><trkpt lat="38.7140083" lon="16.4125767"><ele>449.0</ele><time>2026-04-07T11:03:47.79Z</time></trkpt><trkpt lat="38.7141483" lon="16.4125433"><ele>449.0</ele><time>2026-04-07T11:03:48.79Z</time></trkpt><trkpt lat="38.7142783" lon="16.412545"><ele>449.0</ele><time>2026-04-07T11:03:49.79Z</time></trkpt><trkpt lat="38.7143967" lon="16.4125733"><ele>449.0</ele><time>2026-04-07T11:03:50.79Z</time></trkpt><trkpt lat="38.7144883" lon="16.412655"><ele>449.0</ele><time>2026-04-07T11:03:51.791Z</time></trkpt><trkpt lat="38.714565" lon="16.4127667"><ele>452.5</ele><time>2026-04-07T11:03:52.79Z</time></trkpt><trkpt lat="38.7146283" lon="16.4128933"><ele>456.0</ele><time>2026-04-07T11:03:53.79Z</time></trkpt><trkpt lat="38.7146633" lon="16.4130433"><ele>459.5</ele><time>2026-04-07T11:03:54.791Z</time></trkpt><trkpt lat="38.7146817" lon="16.413215"><ele>463.0</ele><time>2026-04-07T11:03:55.79Z</time></trkpt><trkpt lat="38.7146967" lon="16.4133833"><ele>463.0</ele><time>2026-04-07T11:03:56.79Z</time></trkpt><trkpt lat="38.714705" lon="16.4135483"><ele>463.0</ele><time>2026-04-07T11:03:57.79Z</time></trkpt><trkpt lat="38.7147117" lon="16.4137"><ele>463.0</ele><time>2026-04-07T11:03:58.79Z</time></trkpt><trkpt lat="38.7147317" lon="16.4138433"><ele>463.0</ele><time>2026-04-07T11:03:59.79Z</time></trkpt><trkpt lat="38.714775" lon="16.4139733"><ele>462.2</ele><time>2026-04-07T11:04:00.79Z</time></trkpt><trkpt lat="38.714835" lon="16.4140833"><ele>461.4</ele><time>2026-04-07T11:04:01.79Z</time></trkpt><trkpt lat="38.7149267" lon="16.41416"><ele>460.59999999999997</ele><time>2026-04-07T11:04:02.791Z</time></trkpt><trkpt lat="38.71503" lon="16.4142067"><ele>459.79999999999995</ele><time>2026-04-07T11:04:03.79Z</time></trkpt><trkpt lat="38.7151333" lon="16.4142233"><ele>459.0</ele><time>2026-04-07T11:04:04.79Z</time></trkpt><trkpt lat="38.7152483" lon="16.4141983"><ele>459.0</ele><time>2026-04-07T11:04:05.791Z</time></trkpt><trkpt lat="38.7153783" lon="16.4141483"><ele>459.0</ele><time>2026-04-07T11:04:06.79Z</time></trkpt><trkpt lat="38.71551" lon="16.4140867"><ele>459.0</ele><time>2026-04-07T11:04:07.79Z</time></trkpt><trkpt lat="38.7156467" lon="16.4140133"><ele>459.0</ele><time>2026-04-07T11:04:08.79Z</time></trkpt><trkpt lat="38.7157833" lon="16.4139367"><ele>459.0</ele><time>2026-04-07T11:04:09.79Z</time></trkpt><trkpt lat="38.715915" lon="16.4138917"><ele>459.0</ele><time>2026-04-07T11:04:10.79Z</time></trkpt><trkpt lat="38.7160533" lon="16.41385"><ele>459.0</ele><time>2026-04-07T11:04:11.791Z</time></trkpt><trkpt lat="38.7161917" lon="16.4138133"><ele>459.0</ele><time>2026-04-07T11:04:12.791Z</time></trkpt><trkpt lat="38.7163183" lon="16.4137933"><ele>463.4</ele><time>2026-04-07T11:04:13.791Z</time></trkpt><trkpt lat="38.7164133" lon="16.4138133"><ele>467.79999999999995</ele><time>2026-04-07T11:04:14.79Z</time></trkpt><trkpt lat="38.7165017" lon="16.41387"><ele>472.20000000000005</ele><time>2026-04-07T11:04:15.79Z</time></trkpt><trkpt lat="38.71655" lon="16.4139567"><ele>476.6</ele><time>2026-04-07T11:04:16.79Z</time></trkpt><trkpt lat="38.71659" lon="16.4140733"><ele>481.0</ele><time>2026-04-07T11:04:17.791Z</time></trkpt><trkpt lat="38.7165917" lon="16.4142183"><ele>481.0</ele><time>2026-04-07T11:04:18.79Z</time></trkpt><trkpt lat="38.71658" lon="16.41437"><ele>481.0</ele><time>2026-04-07T11:04:19.79Z</time></trkpt><trkpt lat="38.7165367" lon="16.4145117"><ele>481.0</ele><time>2026-04-07T11:04:20.79Z</time></trkpt><trkpt lat="38.7164667" lon="16.4146183"><ele>481.0</ele><time>2026-04-07T11:04:21.791Z</time></trkpt><trkpt lat="38.71635" lon="16.4146967"><ele>481.5</ele><time>2026-04-07T11:04:22.79Z</time></trkpt><trkpt lat="38.71624" lon="16.4147617"><ele>482.0</ele><time>2026-04-07T11:04:23.79Z</time></trkpt><trkpt lat="38.7161467" lon="16.4148467"><ele>482.5</ele><time>2026-04-07T11:04:24.79Z</time></trkpt><trkpt lat="38.7160967" lon="16.4149567"><ele>483.0</ele><time>2026-04-07T11:04:25.791Z</time></trkpt><trkpt lat="38.71611" lon="16.4151067"><ele>483.0</ele><time>2026-04-07T11:04:26.79Z</time></trkpt><trkpt lat="38.7161517" lon="16.4152583"><ele>483.0</ele><time>2026-04-07T11:04:27.79Z</time></trkpt><trkpt lat="38.716215" lon="16.41541"><ele>483.0</ele><time>2026-04-07T11:04:28.79Z</time></trkpt><trkpt lat="38.716285" lon="16.4155633"><ele>483.0</ele><time>2026-04-07T11:04:29.791Z</time></trkpt><trkpt lat="38.7163567" lon="16.415725"><ele>482.25</ele><time>2026-04-07T11:04:30.79Z</time></trkpt><trkpt lat="38.7164367" lon="16.41589"><ele>481.5</ele><time>2026-04-07T11:04:31.79Z</time></trkpt><trkpt lat="38.7165083" lon="16.4160517"><ele>480.75</ele><time>2026-04-07T11:04:32.79Z</time></trkpt><trkpt lat="38.7165833" lon="16.4162083"><ele>480.0</ele><time>2026-04-07T11:04:33.791Z</time></trkpt><trkpt lat="38.7166667" lon="16.416355"><ele>481.25</ele><time>2026-04-07T11:04:34.79Z</time></trkpt><trkpt lat="38.7167467" lon="16.4164867"><ele>482.5</ele><time>2026-04-07T11:04:35.79Z</time></trkpt><trkpt lat="38.7168367" lon="16.4166017"><ele>483.75</ele><time>2026-04-07T11:04:36.79Z</time></trkpt><trkpt lat="38.7169417" lon="16.41669"><ele>485.0</ele><time>2026-04-07T11:04:37.79Z</time></trkpt><trkpt lat="38.717065" lon="16.416745"><ele>485.0</ele><time>2026-04-07T11:04:38.791Z</time></trkpt><trkpt lat="38.7171983" lon="16.4167517"><ele>485.0</ele><time>2026-04-07T11:04:39.791Z</time></trkpt><trkpt lat="38.7173283" lon="16.4167917"><ele>485.0</ele><time>2026-04-07T11:04:40.79Z</time></trkpt><trkpt lat="38.7174517" lon="16.4168783"><ele>485.0</ele><time>2026-04-07T11:04:41.791Z</time></trkpt><trkpt lat="38.7175633" lon="16.4169867"><ele>485.0</ele><time>2026-04-07T11:04:42.79Z</time></trkpt><trkpt lat="38.71767" lon="16.4171233"><ele>485.0</ele><time>2026-04-07T11:04:43.79Z</time></trkpt><trkpt lat="38.7177883" lon="16.4172533"><ele>485.0</ele><time>2026-04-07T11:04:44.79Z</time></trkpt><trkpt lat="38.7179017" lon="16.4173967"><ele>487.5</ele><time>2026-04-07T11:04:45.79Z</time></trkpt><trkpt lat="38.71801" lon="16.41753"><ele>490.0</ele><time>2026-04-07T11:04:46.79Z</time></trkpt><trkpt lat="38.7181" lon="16.41767"><ele>492.5</ele><time>2026-04-07T11:04:47.79Z</time></trkpt><trkpt lat="38.7181767" lon="16.4178133"><ele>495.0</ele><time>2026-04-07T11:04:48.79Z</time></trkpt><trkpt lat="38.7182333" lon="16.41796"><ele>494.5</ele><time>2026-04-07T11:04:49.79Z</time></trkpt><trkpt lat="38.71827" lon="16.4181167"><ele>494.0</ele><time>2026-04-07T11:04:50.79Z</time></trkpt><trkpt lat="38.7182733" lon="16.4182833"><ele>493.5</ele><time>2026-04-07T11:04:51.791Z</time></trkpt><trkpt lat="38.7182533" lon="16.4184383"><ele>493.0</ele><time>2026-04-07T11:04:52.79Z</time></trkpt><trkpt lat="38.71823" lon="16.418595"><ele>493.0</ele><time>2026-04-07T11:04:53.79Z</time></trkpt><trkpt lat="38.7182233" lon="16.418745"><ele>493.0</ele><time>2026-04-07T11:04:54.79Z</time></trkpt><trkpt lat="38.7182383" lon="16.4188933"><ele>493.0</ele><time>2026-04-07T11:04:55.791Z</time></trkpt><trkpt lat="38.7182717" lon="16.4190467"><ele>493.0</ele><time>2026-04-07T11:04:56.791Z</time></trkpt><trkpt lat="38.7183117" lon="16.4192017"><ele>492.75</ele><time>2026-04-07T11:04:57.791Z</time></trkpt><trkpt lat="38.7183467" lon="16.4193617"><ele>492.5</ele><time>2026-04-07T11:04:58.79Z</time></trkpt><trkpt lat="38.7183817" lon="16.41952"><ele>492.25</ele><time>2026-04-07T11:04:59.79Z</time></trkpt><trkpt lat="38.7184067" lon="16.41969"><ele>492.0</ele><time>2026-04-07T11:05:00.79Z</time></trkpt><trkpt lat="38.7184017" lon="16.4198483"><ele>491.75</ele><time>2026-04-07T11:05:01.791Z</time></trkpt><trkpt lat="38.7183783" lon="16.4200067"><ele>491.5</ele><time>2026-04-07T11:05:02.79Z</time></trkpt><trkpt lat="38.71836" lon="16.4201667"><ele>491.25</ele><time>2026-04-07T11:05:03.79Z</time></trkpt><trkpt lat="38.7183733" lon="16.4203267"><ele>491.0</ele><time>2026-04-07T11:05:04.79Z</time></trkpt><trkpt lat="38.7184183" lon="16.4204833"><ele>490.25</ele><time>2026-04-07T11:05:05.791Z</time></trkpt><trkpt lat="38.718485" lon="16.4206383"><ele>489.5</ele><time>2026-04-07T11:05:06.79Z</time></trkpt><trkpt lat="38.7185467" lon="16.4207983"><ele>488.75</ele><time>2026-04-07T11:05:07.79Z</time></trkpt><trkpt lat="38.7186" lon="16.42096"><ele>488.0</ele><time>2026-04-07T11:05:08.79Z</time></trkpt><trkpt lat="38.7186533" lon="16.4211017"><ele>490.75</ele><time>2026-04-07T11:05:09.791Z</time></trkpt><trkpt lat="38.71871" lon="16.421245"><ele>493.5</ele><time>2026-04-07T11:05:10.79Z</time></trkpt><trkpt lat="38.71878" lon="16.42138"><ele>496.25</ele><time>2026-04-07T11:05:11.79Z</time></trkpt><trkpt lat="38.7188783" lon="16.421495"><ele>499.0</ele><time>2026-04-07T11:05:12.791Z</time></trkpt><trkpt lat="38.7189883" lon="16.421595"><ele>499.0</ele><time>2026-04-07T11:05:13.79Z</time></trkpt><trkpt lat="38.7191233" lon="16.42166"><ele>499.0</ele><time>2026-04-07T11:05:14.791Z</time></trkpt><trkpt lat="38.71926" lon="16.4217167"><ele>499.0</ele><time>2026-04-07T11:05:15.79Z</time></trkpt><trkpt lat="38.7193833" lon="16.42176"><ele>499.0</ele><time>2026-04-07T11:05:16.79Z</time></trkpt><trkpt lat="38.7194967" lon="16.4218"><ele>500.1666666666667</ele><time>2026-04-07T11:05:17.791Z</time></trkpt><trkpt lat="38.7195933" lon="16.4218367"><ele>501.33333333333337</ele><time>2026-04-07T11:05:18.79Z</time></trkpt><trkpt lat="38.719675" lon="16.421875"><ele>502.5</ele><time>2026-04-07T11:05:19.79Z</time></trkpt><trkpt lat="38.71975" lon="16.42191"><ele>503.66666666666663</ele><time>2026-04-07T11:05:20.791Z</time></trkpt><trkpt lat="38.7198117" lon="16.4219483"><ele>504.8333333333333</ele><time>2026-04-07T11:05:21.79Z</time></trkpt><trkpt lat="38.7198967" lon="16.422025"><ele>506.0</ele><time>2026-04-07T11:05:23.791Z</time></trkpt><trkpt lat="38.7199733" lon="16.4220917"><ele>506.0</ele><time>2026-04-07T11:05:25.79Z</time></trkpt><trkpt lat="38.72004" lon="16.4221467"><ele>506.0</ele><time>2026-04-07T11:05:44.79Z</time></trkpt><trkpt lat="38.7201633" lon="16.4222367"><ele>506.0</ele><time>2026-04-07T11:05:46.79Z</time></trkpt><trkpt lat="38.72024" lon="16.4222983"><ele>506.0</ele><time>2026-04-07T11:05:47.79Z</time></trkpt><trkpt lat="38.72032" lon="16.4223767"><ele>506.0</ele><time>2026-04-07T11:05:48.79Z</time></trkpt><trkpt lat="38.72039" lon="16.4224417"><ele>503.8333333333333</ele><time>2026-04-07T11:05:49.791Z</time></trkpt><trkpt lat="38.7204633" lon="16.422495"><ele>501.66666666666663</ele><time>2026-04-07T11:05:50.791Z</time></trkpt><trkpt lat="38.7205383" lon="16.42252"><ele>499.5</ele><time>2026-04-07T11:05:51.79Z</time></trkpt><trkpt lat="38.7206217" lon="16.4225183"><ele>497.33333333333337</ele><time>2026-04-07T11:05:52.79Z</time></trkpt><trkpt lat="38.7207017" lon="16.4224783"><ele>495.1666666666667</ele><time>2026-04-07T11:05:53.79Z</time></trkpt><trkpt lat="38.7207883" lon="16.4223917"><ele>493.0</ele><time>2026-04-07T11:05:54.791Z</time></trkpt><trkpt lat="38.7208567" lon="16.42226"><ele>494.0</ele><time>2026-04-07T11:05:55.79Z</time></trkpt><trkpt lat="38.720915" lon="16.4221067"><ele>494.99999999999994</ele><time>2026-04-07T11:05:56.791Z</time></trkpt><trkpt lat="38.7209633" lon="16.421975"><ele>495.99999999999994</ele><time>2026-04-07T11:05:57.79Z</time></trkpt><trkpt lat="38.7210167" lon="16.4218683"><ele>497.0</ele><time>2026-04-07T11:05:58.79Z</time></trkpt><trkpt lat="38.7211017" lon="16.4218083"><ele>498.0</ele><time>2026-04-07T11:05:59.79Z</time></trkpt><trkpt lat="38.7211833" lon="16.421795"><ele>498.0</ele><time>2026-04-07T11:06:00.79Z</time></trkpt><trkpt lat="38.7212717" lon="16.421825"><ele>497.99999999999994</ele><time>2026-04-07T11:06:01.79Z</time></trkpt><trkpt lat="38.7213483" lon="16.4219"><ele>497.99999999999994</ele><time>2026-04-07T11:06:02.791Z</time></trkpt><trkpt lat="38.721435" lon="16.42201"><ele>498.0</ele><time>2026-04-07T11:06:03.791Z</time></trkpt><trkpt lat="38.7215117" lon="16.4220883"><ele>498.0</ele><time>2026-04-07T11:06:04.791Z</time></trkpt><trkpt lat="38.721595" lon="16.4221317"><ele>494.5</ele><time>2026-04-07T11:06:05.791Z</time></trkpt><trkpt lat="38.72169" lon="16.422155"><ele>491.0</ele><time>2026-04-07T11:06:06.79Z</time></trkpt><trkpt lat="38.7217967" lon="16.42215"><ele>487.5</ele><time>2026-04-07T11:06:07.79Z</time></trkpt><trkpt lat="38.72193" lon="16.4221167"><ele>484.0</ele><time>2026-04-07T11:06:08.791Z</time></trkpt><trkpt lat="38.7220617" lon="16.42205"><ele>484.0</ele><time>2026-04-07T11:06:09.79Z</time></trkpt><trkpt lat="38.7222" lon="16.4219667"><ele>484.0</ele><time>2026-04-07T11:06:10.79Z</time></trkpt><trkpt lat="38.7223233" lon="16.421825"><ele>484.0</ele><time>2026-04-07T11:06:11.79Z</time></trkpt><trkpt lat="38.7224283" lon="16.4216617"><ele>484.0</ele><time>2026-04-07T11:06:12.79Z</time></trkpt><trkpt lat="38.7225317" lon="16.4214983"><ele>484.0</ele><time>2026-04-07T11:06:13.79Z</time></trkpt><trkpt lat="38.7226333" lon="16.4213333"><ele>484.0</ele><time>2026-04-07T11:06:14.791Z</time></trkpt><trkpt lat="38.7227433" lon="16.4211817"><ele>483.0</ele><time>2026-04-07T11:06:15.79Z</time></trkpt><trkpt lat="38.7228633" lon="16.4210567"><ele>482.0</ele><time>2026-04-07T11:06:16.79Z</time></trkpt><trkpt lat="38.7229967" lon="16.42095"><ele>481.0</ele><time>2026-04-07T11:06:17.79Z</time></trkpt><trkpt lat="38.7231283" lon="16.420855"><ele>481.0</ele><time>2026-04-07T11:06:18.791Z</time></trkpt><trkpt lat="38.7232767" lon="16.4207733"><ele>481.0</ele><time>2026-04-07T11:06:19.79Z</time></trkpt><trkpt lat="38.7234267" lon="16.4207167"><ele>481.0</ele><time>2026-04-07T11:06:20.791Z</time></trkpt><trkpt lat="38.72359" lon="16.42069"><ele>478.75</ele><time>2026-04-07T11:06:21.79Z</time></trkpt><trkpt lat="38.7237433" lon="16.420655"><ele>476.5</ele><time>2026-04-07T11:06:22.791Z</time></trkpt><trkpt lat="38.7238817" lon="16.4206117"><ele>474.25</ele><time>2026-04-07T11:06:23.791Z</time></trkpt><trkpt lat="38.7240033" lon="16.42053"><ele>472.0</ele><time>2026-04-07T11:06:24.791Z</time></trkpt><trkpt lat="38.7241133" lon="16.420405"><ele>472.0</ele><time>2026-04-07T11:06:25.79Z</time></trkpt><trkpt lat="38.7242067" lon="16.4202417"><ele>472.0</ele><time>2026-04-07T11:06:26.79Z</time></trkpt><trkpt lat="38.7242833" lon="16.42005"><ele>472.0</ele><time>2026-04-07T11:06:27.79Z</time></trkpt><trkpt lat="38.724345" lon="16.41987"><ele>470.0</ele><time>2026-04-07T11:06:28.79Z</time></trkpt><trkpt lat="38.7244083" lon="16.4197233"><ele>468.0</ele><time>2026-04-07T11:06:29.79Z</time></trkpt><trkpt lat="38.7245117" lon="16.4196067"><ele>466.0</ele><time>2026-04-07T11:06:30.791Z</time></trkpt><trkpt lat="38.7246183" lon="16.4195767"><ele>464.0</ele><time>2026-04-07T11:06:31.79Z</time></trkpt><trkpt lat="38.7247217" lon="16.4196017"><ele>464.0</ele><time>2026-04-07T11:06:32.79Z</time></trkpt><trkpt lat="38.7248267" lon="16.41967"><ele>464.0</ele><time>2026-04-07T11:06:33.79Z</time></trkpt><trkpt lat="38.724925" lon="16.41977"><ele>464.0</ele><time>2026-04-07T11:06:34.791Z</time></trkpt><trkpt lat="38.7249933" lon="16.419865"><ele>464.0</ele><time>2026-04-07T11:06:35.79Z</time></trkpt><trkpt lat="38.7250333" lon="16.4199767"><ele>464.0</ele><time>2026-04-07T11:06:36.79Z</time></trkpt><trkpt lat="38.7250383" lon="16.420095"><ele>464.0</ele><time>2026-04-07T11:06:37.79Z</time></trkpt><trkpt lat="38.725005" lon="16.4202183"><ele>464.0</ele><time>2026-04-07T11:06:38.79Z</time></trkpt><trkpt lat="38.72494" lon="16.4203417"><ele>464.0</ele><time>2026-04-07T11:06:39.79Z</time></trkpt><trkpt lat="38.724885" lon="16.4204717"><ele>464.0</ele><time>2026-04-07T11:06:40.79Z</time></trkpt><trkpt lat="38.724845" lon="16.420615"><ele>465.0</ele><time>2026-04-07T11:06:41.791Z</time></trkpt><trkpt lat="38.7248133" lon="16.420775"><ele>466.0</ele><time>2026-04-07T11:06:42.79Z</time></trkpt><trkpt lat="38.72481" lon="16.4209467"><ele>467.0</ele><time>2026-04-07T11:06:43.79Z</time></trkpt><trkpt lat="38.724815" lon="16.4211383"><ele>468.0</ele><time>2026-04-07T11:06:44.79Z</time></trkpt><trkpt lat="38.7248317" lon="16.421335"><ele>470.0</ele><time>2026-04-07T11:06:45.79Z</time></trkpt><trkpt lat="38.7248417" lon="16.4215483"><ele>472.0</ele><time>2026-04-07T11:06:46.79Z</time></trkpt><trkpt lat="38.7248567" lon="16.4217583"><ele>474.0</ele><time>2026-04-07T11:06:47.79Z</time></trkpt><trkpt lat="38.7248667" lon="16.4219633"><ele>475.0</ele><time>2026-04-07T11:06:48.791Z</time></trkpt><trkpt lat="38.7248883" lon="16.4221717"><ele>476.0</ele><time>2026-04-07T11:06:49.79Z</time></trkpt><trkpt lat="38.7249067" lon="16.4223783"><ele>477.0</ele><time>2026-04-07T11:06:50.79Z</time></trkpt><trkpt lat="38.7249567" lon="16.4225833"><ele>477.0</ele><time>2026-04-07T11:06:51.79Z</time></trkpt><trkpt lat="38.725015" lon="16.4227767"><ele>477.0</ele><time>2026-04-07T11:06:52.791Z</time></trkpt><trkpt lat="38.7250667" lon="16.4229483"><ele>477.0</ele><time>2026-04-07T11:06:53.791Z</time></trkpt><trkpt lat="38.7251" lon="16.4231067"><ele>477.0</ele><time>2026-04-07T11:06:54.79Z</time></trkpt><trkpt lat="38.725105" lon="16.4232583"><ele>478.0</ele><time>2026-04-07T11:06:55.79Z</time></trkpt><trkpt lat="38.7250767" lon="16.423405"><ele>479.0</ele><time>2026-04-07T11:06:56.79Z</time></trkpt><trkpt lat="38.72501" lon="16.423545"><ele>480.0</ele><time>2026-04-07T11:06:57.791Z</time></trkpt><trkpt lat="38.7249233" lon="16.4236583"><ele>481.0</ele><time>2026-04-07T11:06:58.79Z</time></trkpt><trkpt lat="38.724845" lon="16.4237517"><ele>481.0</ele><time>2026-04-07T11:06:59.79Z</time></trkpt><trkpt lat="38.7247483" lon="16.42381"><ele>481.0</ele><time>2026-04-07T11:07:00.79Z</time></trkpt><trkpt lat="38.724655" lon="16.4238767"><ele>481.0</ele><time>2026-04-07T11:07:01.791Z</time></trkpt><trkpt lat="38.7246" lon="16.42396"><ele>481.0</ele><time>2026-04-07T11:07:02.79Z</time></trkpt><trkpt lat="38.7245783" lon="16.4240617"><ele>481.0</ele><time>2026-04-07T11:07:03.79Z</time></trkpt><trkpt lat="38.7246" lon="16.424165"><ele>481.50000000000006</ele><time>2026-04-07T11:07:04.79Z</time></trkpt><trkpt lat="38.7246483" lon="16.424245"><ele>482.0</ele><time>2026-04-07T11:07:05.79Z</time></trkpt><trkpt lat="38.7247183" lon="16.4243217"><ele>482.5</ele><time>2026-04-07T11:07:06.791Z</time></trkpt><trkpt lat="38.7247933" lon="16.4243583"><ele>483.0</ele><time>2026-04-07T11:07:07.79Z</time></trkpt><trkpt lat="38.7248783" lon="16.4244283"><ele>483.50000000000006</ele><time>2026-04-07T11:07:09.791Z</time></trkpt><trkpt lat="38.7249567" lon="16.4245"><ele>484.0</ele><time>2026-04-07T11:07:11.791Z</time></trkpt><trkpt lat="38.7250333" lon="16.4245567"><ele>484.00000000000006</ele><time>2026-04-07T11:07:13.79Z</time></trkpt><trkpt lat="38.7251233" lon="16.4246183"><ele>484.0</ele><time>2026-04-07T11:07:15.79Z</time></trkpt><trkpt lat="38.7252" lon="16.424695"><ele>484.0</ele><time>2026-04-07T11:07:17.79Z</time></trkpt><trkpt lat="38.7252567" lon="16.4247417"><ele>484.0</ele><time>2026-04-07T11:07:19.791Z</time></trkpt><trkpt lat="38.7253283" lon="16.4247767"><ele>484.00000000000006</ele><time>2026-04-07T11:07:22.79Z</time></trkpt><trkpt lat="38.7253867" lon="16.4248217"><ele>484.0</ele><time>2026-04-07T11:07:35.79Z</time></trkpt><trkpt lat="38.725435" lon="16.4248767"><ele>483.1666666666667</ele><time>2026-04-07T11:07:37.79Z</time></trkpt><trkpt lat="38.725515" lon="16.4249633"><ele>482.33333333333337</ele><time>2026-04-07T11:07:39.791Z</time></trkpt><trkpt lat="38.7255667" lon="16.4250267"><ele>481.5</ele><time>2026-04-07T11:07:40.79Z</time></trkpt><trkpt lat="38.7256417" lon="16.4250933"><ele>480.66666666666663</ele><time>2026-04-07T11:07:41.79Z</time></trkpt><trkpt lat="38.7257133" lon="16.42515"><ele>479.8333333333333</ele><time>2026-04-07T11:07:42.79Z</time></trkpt><trkpt lat="38.7257783" lon="16.4251917"><ele>479.0</ele><time>2026-04-07T11:07:43.79Z</time></trkpt><trkpt lat="38.7258467" lon="16.4252167"><ele>478.99999999999994</ele><time>2026-04-07T11:07:44.79Z</time></trkpt><trkpt lat="38.7259417" lon="16.4251967"><ele>479.0</ele><time>2026-04-07T11:07:46.79Z</time></trkpt><trkpt lat="38.7260167" lon="16.4250817"><ele>479.0</ele><time>2026-04-07T11:07:48.79Z</time></trkpt><trkpt lat="38.7260433" lon="16.4250033"><ele>479.0</ele><time>2026-04-07T11:07:49.79Z</time></trkpt><trkpt lat="38.7260783" lon="16.4249083"><ele>478.99999999999994</ele><time>2026-04-07T11:07:50.79Z</time></trkpt><trkpt lat="38.72611" lon="16.424815"><ele>479.0</ele><time>2026-04-07T11:07:51.791Z</time></trkpt><trkpt lat="38.72614" lon="16.424725"><ele>476.79999999999995</ele><time>2026-04-07T11:07:52.791Z</time></trkpt><trkpt lat="38.7261717" lon="16.4246267"><ele>474.59999999999997</ele><time>2026-04-07T11:07:53.791Z</time></trkpt><trkpt lat="38.7262017" lon="16.4245217"><ele>472.4</ele><time>2026-04-07T11:07:54.79Z</time></trkpt><trkpt lat="38.7262367" lon="16.424425"><ele>470.2</ele><time>2026-04-07T11:07:55.79Z</time></trkpt><trkpt lat="38.7262717" lon="16.424315"><ele>468.0</ele><time>2026-04-07T11:07:56.79Z</time></trkpt><trkpt lat="38.7263117" lon="16.42419"><ele>468.0</ele><time>2026-04-07T11:07:57.79Z</time></trkpt><trkpt lat="38.7263617" lon="16.4240517"><ele>468.0</ele><time>2026-04-07T11:07:58.79Z</time></trkpt><trkpt lat="38.7264167" lon="16.4239067"><ele>468.0</ele><time>2026-04-07T11:07:59.79Z</time></trkpt><trkpt lat="38.726475" lon="16.423755"><ele>468.0</ele><time>2026-04-07T11:08:00.791Z</time></trkpt><trkpt lat="38.726535" lon="16.4236"><ele>470.25</ele><time>2026-04-07T11:08:01.79Z</time></trkpt><trkpt lat="38.7266" lon="16.4234367"><ele>472.5</ele><time>2026-04-07T11:08:02.79Z</time></trkpt><trkpt lat="38.726655" lon="16.4232833"><ele>474.75</ele><time>2026-04-07T11:08:03.79Z</time></trkpt><trkpt lat="38.7267083" lon="16.4231333"><ele>477.0</ele><time>2026-04-07T11:08:04.79Z</time></trkpt><trkpt lat="38.7267617" lon="16.4229983"><ele>477.1666666666667</ele><time>2026-04-07T11:08:05.79Z</time></trkpt><trkpt lat="38.7268167" lon="16.4228883"><ele>477.33333333333337</ele><time>2026-04-07T11:08:06.791Z</time></trkpt><trkpt lat="38.7268867" lon="16.4228083"><ele>477.5</ele><time>2026-04-07T11:08:07.79Z</time></trkpt><trkpt lat="38.726955" lon="16.4227633"><ele>477.6666666666667</ele><time>2026-04-07T11:08:08.791Z</time></trkpt><trkpt lat="38.7270217" lon="16.4227667"><ele>477.83333333333337</ele><time>2026-04-07T11:08:09.791Z</time></trkpt><trkpt lat="38.727095" lon="16.422815"><ele>478.0</ele><time>2026-04-07T11:08:10.79Z</time></trkpt><trkpt lat="38.7271517" lon="16.4229133"><ele>476.25</ele><time>2026-04-07T11:08:11.79Z</time></trkpt><trkpt lat="38.7271817" lon="16.42306"><ele>474.5</ele><time>2026-04-07T11:08:12.791Z</time></trkpt><trkpt lat="38.727195" lon="16.423235"><ele>472.75</ele><time>2026-04-07T11:08:13.79Z</time></trkpt><trkpt lat="38.7272217" lon="16.4233967"><ele>471.0</ele><time>2026-04-07T11:08:14.79Z</time></trkpt><trkpt lat="38.7272483" lon="16.4235383"><ele>471.0</ele><time>2026-04-07T11:08:15.79Z</time></trkpt><trkpt lat="38.7273083" lon="16.4236567"><ele>471.0</ele><time>2026-04-07T11:08:16.791Z</time></trkpt><trkpt lat="38.7273983" lon="16.4237533"><ele>471.0</ele><time>2026-04-07T11:08:17.79Z</time></trkpt><trkpt lat="38.7275167" lon="16.42382"><ele>471.0</ele><time>2026-04-07T11:08:18.791Z</time></trkpt><trkpt lat="38.727645" lon="16.4238817"><ele>469.75</ele><time>2026-04-07T11:08:19.79Z</time></trkpt><trkpt lat="38.7277767" lon="16.42394"><ele>468.5</ele><time>2026-04-07T11:08:20.791Z</time></trkpt><trkpt lat="38.7279183" lon="16.424"><ele>467.25</ele><time>2026-04-07T11:08:21.79Z</time></trkpt><trkpt lat="38.7280567" lon="16.424055"><ele>466.0</ele><time>2026-04-07T11:08:22.79Z</time></trkpt><trkpt lat="38.7281767" lon="16.424115"><ele>466.0</ele><time>2026-04-07T11:08:23.791Z</time></trkpt><trkpt lat="38.7282733" lon="16.424175"><ele>466.0</ele><time>2026-04-07T11:08:24.79Z</time></trkpt><trkpt lat="38.7283583" lon="16.42424"><ele>466.0</ele><time>2026-04-07T11:08:25.79Z</time></trkpt><trkpt lat="38.7284417" lon="16.4243067"><ele>466.0</ele><time>2026-04-07T11:08:26.79Z</time></trkpt><trkpt lat="38.72851" lon="16.4243783"><ele>466.0</ele><time>2026-04-07T11:08:27.79Z</time></trkpt><trkpt lat="38.7285733" lon="16.42446"><ele>465.8</ele><time>2026-04-07T11:08:28.79Z</time></trkpt><trkpt lat="38.7286483" lon="16.4245367"><ele>465.6</ele><time>2026-04-07T11:08:29.79Z</time></trkpt><trkpt lat="38.728725" lon="16.4246183"><ele>465.4</ele><time>2026-04-07T11:08:30.79Z</time></trkpt><trkpt lat="38.7287917" lon="16.4247017"><ele>465.2</ele><time>2026-04-07T11:08:31.79Z</time></trkpt><trkpt lat="38.7288683" lon="16.42478"><ele>465.0</ele><time>2026-04-07T11:08:32.79Z</time></trkpt><trkpt lat="38.7289317" lon="16.4248567"><ele>465.0</ele><time>2026-04-07T11:08:33.79Z</time></trkpt><trkpt lat="38.729" lon="16.4249383"><ele>465.0</ele><time>2026-04-07T11:08:34.79Z</time></trkpt><trkpt lat="38.7290733" lon="16.4250083"><ele>465.0</ele><time>2026-04-07T11:08:35.79Z</time></trkpt><trkpt lat="38.729145" lon="16.4250867"><ele>465.0</ele><time>2026-04-07T11:08:36.791Z</time></trkpt><trkpt lat="38.7292183" lon="16.42517"><ele>465.0</ele><time>2026-04-07T11:08:37.79Z</time></trkpt><trkpt lat="38.7293033" lon="16.42527"><ele>465.0</ele><time>2026-04-07T11:08:38.79Z</time></trkpt><trkpt lat="38.7293917" lon="16.425375"><ele>465.0</ele><time>2026-04-07T11:08:39.791Z</time></trkpt><trkpt lat="38.7294833" lon="16.4254917"><ele>465.0</ele><time>2026-04-07T11:08:40.79Z</time></trkpt><trkpt lat="38.7295683" lon="16.42562"><ele>465.0</ele><time>2026-04-07T11:08:41.79Z</time></trkpt><trkpt lat="38.729645" lon="16.42575"><ele>464.6</ele><time>2026-04-07T11:08:42.79Z</time></trkpt><trkpt lat="38.7297033" lon="16.4258733"><ele>464.2</ele><time>2026-04-07T11:08:43.791Z</time></trkpt><trkpt lat="38.72976" lon="16.4259783"><ele>463.79999999999995</ele><time>2026-04-07T11:08:44.791Z</time></trkpt><trkpt lat="38.729805" lon="16.42608"><ele>463.4</ele><time>2026-04-07T11:08:45.79Z</time></trkpt><trkpt lat="38.729835" lon="16.4261783"><ele>463.0</ele><time>2026-04-07T11:08:46.79Z</time></trkpt><trkpt lat="38.7298383" lon="16.4262833"><ele>463.4</ele><time>2026-04-07T11:08:47.79Z</time></trkpt><trkpt lat="38.7298017" lon="16.4263767"><ele>463.79999999999995</ele><time>2026-04-07T11:08:48.79Z</time></trkpt><trkpt lat="38.7297483" lon="16.4264883"><ele>464.2</ele><time>2026-04-07T11:08:49.79Z</time></trkpt><trkpt lat="38.7296617" lon="16.4265717"><ele>464.6</ele><time>2026-04-07T11:08:50.79Z</time></trkpt><trkpt lat="38.7295483" lon="16.4266467"><ele>465.0</ele><time>2026-04-07T11:08:51.79Z</time></trkpt><trkpt lat="38.7294417" lon="16.4267183"><ele>463.4</ele><time>2026-04-07T11:08:52.791Z</time></trkpt><trkpt lat="38.729355" lon="16.426805"><ele>461.8</ele><time>2026-04-07T11:08:53.791Z</time></trkpt><trkpt lat="38.7292783" lon="16.4268833"><ele>460.20000000000005</ele><time>2026-04-07T11:08:54.791Z</time></trkpt><trkpt lat="38.729215" lon="16.4269883"><ele>458.6</ele><time>2026-04-07T11:08:55.79Z</time></trkpt><trkpt lat="38.7291767" lon="16.4270983"><ele>457.0</ele><time>2026-04-07T11:08:56.79Z</time></trkpt><trkpt lat="38.7291533" lon="16.4272267"><ele>457.0</ele><time>2026-04-07T11:08:57.791Z</time></trkpt><trkpt lat="38.72914" lon="16.42736"><ele>457.0</ele><time>2026-04-07T11:08:58.79Z</time></trkpt><trkpt lat="38.729135" lon="16.427505"><ele>457.0</ele><time>2026-04-07T11:08:59.79Z</time></trkpt><trkpt lat="38.7291683" lon="16.42765"><ele>457.0</ele><time>2026-04-07T11:09:00.791Z</time></trkpt><trkpt lat="38.7292217" lon="16.427785"><ele>457.0</ele><time>2026-04-07T11:09:01.79Z</time></trkpt><trkpt lat="38.7292783" lon="16.4279117"><ele>457.0</ele><time>2026-04-07T11:09:02.791Z</time></trkpt><trkpt lat="38.72933" lon="16.4280383"><ele>457.0</ele><time>2026-04-07T11:09:03.791Z</time></trkpt><trkpt lat="38.729375" lon="16.4281767"><ele>457.0</ele><time>2026-04-07T11:09:04.791Z</time></trkpt><trkpt lat="38.7294183" lon="16.4283167"><ele>459.5</ele><time>2026-04-07T11:09:05.79Z</time></trkpt><trkpt lat="38.7294283" lon="16.428465"><ele>462.0</ele><time>2026-04-07T11:09:06.79Z</time></trkpt><trkpt lat="38.7294367" lon="16.42864"><ele>464.5</ele><time>2026-04-07T11:09:07.79Z</time></trkpt><trkpt lat="38.7294417" lon="16.4288217"><ele>467.0</ele><time>2026-04-07T11:09:08.79Z</time></trkpt><trkpt lat="38.72944" lon="16.4290067"><ele>467.75</ele><time>2026-04-07T11:09:09.79Z</time></trkpt><trkpt lat="38.7294367" lon="16.42918"><ele>468.5</ele><time>2026-04-07T11:09:10.79Z</time></trkpt><trkpt lat="38.7294317" lon="16.4293633"><ele>469.25</ele><time>2026-04-07T11:09:11.79Z</time></trkpt><trkpt lat="38.7294233" lon="16.4295467"><ele>470.0</ele><time>2026-04-07T11:09:12.79Z</time></trkpt><trkpt lat="38.7294267" lon="16.4297167"><ele>470.75</ele><time>2026-04-07T11:09:13.791Z</time></trkpt><trkpt lat="38.72943" lon="16.429885"><ele>471.5</ele><time>2026-04-07T11:09:14.791Z</time></trkpt><trkpt lat="38.7294233" lon="16.4300467"><ele>472.25</ele><time>2026-04-07T11:09:15.791Z</time></trkpt><trkpt lat="38.7294067" lon="16.4302017"><ele>473.0</ele><time>2026-04-07T11:09:16.79Z</time></trkpt><trkpt lat="38.72939" lon="16.4303483"><ele>472.0</ele><time>2026-04-07T11:09:17.791Z</time></trkpt><trkpt lat="38.7293567" lon="16.4304667"><ele>470.99999999999994</ele><time>2026-04-07T11:09:18.79Z</time></trkpt><trkpt lat="38.729315" lon="16.4305717"><ele>469.99999999999994</ele><time>2026-04-07T11:09:19.79Z</time></trkpt><trkpt lat="38.7292533" lon="16.4306667"><ele>469.0</ele><time>2026-04-07T11:09:20.791Z</time></trkpt><trkpt lat="38.7291933" lon="16.4307717"><ele>468.0</ele><time>2026-04-07T11:09:21.791Z</time></trkpt><trkpt lat="38.7291267" lon="16.4308733"><ele>468.0</ele><time>2026-04-07T11:09:22.79Z</time></trkpt><trkpt lat="38.7290617" lon="16.4309767"><ele>467.99999999999994</ele><time>2026-04-07T11:09:23.79Z</time></trkpt><trkpt lat="38.729" lon="16.4310933"><ele>467.99999999999994</ele><time>2026-04-07T11:09:24.791Z</time></trkpt><trkpt lat="38.7289433" lon="16.4312183"><ele>468.0</ele><time>2026-04-07T11:09:25.79Z</time></trkpt><trkpt lat="38.7288767" lon="16.431335"><ele>468.0</ele><time>2026-04-07T11:09:26.79Z</time></trkpt><trkpt lat="38.7288183" lon="16.4314517"><ele>469.79999999999995</ele><time>2026-04-07T11:09:27.791Z</time></trkpt><trkpt lat="38.7287683" lon="16.43156"><ele>471.59999999999997</ele><time>2026-04-07T11:09:28.79Z</time></trkpt><trkpt lat="38.728725" lon="16.43167"><ele>473.40000000000003</ele><time>2026-04-07T11:09:29.79Z</time></trkpt><trkpt lat="38.728675" lon="16.4317667"><ele>475.20000000000005</ele><time>2026-04-07T11:09:30.79Z</time></trkpt><trkpt lat="38.7286233" lon="16.431855"><ele>477.0</ele><time>2026-04-07T11:09:31.79Z</time></trkpt><trkpt lat="38.72858" lon="16.43195"><ele>475.8333333333333</ele><time>2026-04-07T11:09:32.79Z</time></trkpt><trkpt lat="38.72854" lon="16.43204"><ele>474.66666666666663</ele><time>2026-04-07T11:09:33.79Z</time></trkpt><trkpt lat="38.728495" lon="16.43213"><ele>473.5</ele><time>2026-04-07T11:09:34.79Z</time></trkpt><trkpt lat="38.7284517" lon="16.4322317"><ele>472.3333333333333</ele><time>2026-04-07T11:09:35.791Z</time></trkpt><trkpt lat="38.7284033" lon="16.43233"><ele>471.16666666666663</ele><time>2026-04-07T11:09:36.79Z</time></trkpt><trkpt lat="38.72836" lon="16.43244"><ele>470.0</ele><time>2026-04-07T11:09:37.79Z</time></trkpt><trkpt lat="38.7283217" lon="16.43256"><ele>470.0</ele><time>2026-04-07T11:09:38.79Z</time></trkpt><trkpt lat="38.7282917" lon="16.432685"><ele>470.0</ele><time>2026-04-07T11:09:39.79Z</time></trkpt><trkpt lat="38.7282633" lon="16.4328083"><ele>470.0</ele><time>2026-04-07T11:09:40.791Z</time></trkpt><trkpt lat="38.72822" lon="16.4329317"><ele>470.0</ele><time>2026-04-07T11:09:41.79Z</time></trkpt><trkpt lat="38.7281817" lon="16.433055"><ele>470.0</ele><time>2026-04-07T11:09:42.791Z</time></trkpt><trkpt lat="38.7281533" lon="16.43318"><ele>471.75</ele><time>2026-04-07T11:09:43.791Z</time></trkpt><trkpt lat="38.7281133" lon="16.433305"><ele>473.5</ele><time>2026-04-07T11:09:44.79Z</time></trkpt><trkpt lat="38.7280867" lon="16.4334583"><ele>475.25</ele><time>2026-04-07T11:09:45.79Z</time></trkpt><trkpt lat="38.7280667" lon="16.4336417"><ele>477.0</ele><time>2026-04-07T11:09:46.79Z</time></trkpt><trkpt lat="38.72804" lon="16.4338467"><ele>479.33333333333337</ele><time>2026-04-07T11:09:47.791Z</time></trkpt><trkpt lat="38.7279983" lon="16.43406"><ele>481.6666666666667</ele><time>2026-04-07T11:09:48.791Z</time></trkpt><trkpt lat="38.7279417" lon="16.43427"><ele>484.0</ele><time>2026-04-07T11:09:49.79Z</time></trkpt><trkpt lat="38.7278733" lon="16.43444"><ele>484.0</ele><time>2026-04-07T11:09:50.79Z</time></trkpt><trkpt lat="38.727825" lon="16.4345967"><ele>484.0</ele><time>2026-04-07T11:09:51.791Z</time></trkpt><trkpt lat="38.7278" lon="16.4347617"><ele>484.0</ele><time>2026-04-07T11:09:52.79Z</time></trkpt><trkpt lat="38.7278117" lon="16.4349417"><ele>484.0</ele><time>2026-04-07T11:09:53.79Z</time></trkpt><trkpt lat="38.7278433" lon="16.4351267"><ele>486.33333333333337</ele><time>2026-04-07T11:09:54.79Z</time></trkpt><trkpt lat="38.727885" lon="16.4353217"><ele>488.66666666666663</ele><time>2026-04-07T11:09:55.791Z</time></trkpt><trkpt lat="38.727925" lon="16.435525"><ele>491.0</ele><time>2026-04-07T11:09:56.791Z</time></trkpt><trkpt lat="38.7279617" lon="16.4357367"><ele>491.0</ele><time>2026-04-07T11:09:57.79Z</time></trkpt><trkpt lat="38.7280967" lon="16.4362767"><ele>491.0</ele><time>2026-04-07T11:10:00.79Z</time></trkpt><trkpt lat="38.7281383" lon="16.4364433"><ele>491.0</ele><time>2026-04-07T11:10:01.79Z</time></trkpt><trkpt lat="38.7281567" lon="16.4366183"><ele>491.0</ele><time>2026-04-07T11:10:02.79Z</time></trkpt><trkpt lat="38.728135" lon="16.4367983"><ele>491.0</ele><time>2026-04-07T11:10:03.79Z</time></trkpt><trkpt lat="38.728105" lon="16.4369817"><ele>491.0</ele><time>2026-04-07T11:10:04.79Z</time></trkpt><trkpt lat="38.7280733" lon="16.4371767"><ele>491.0</ele><time>2026-04-07T11:10:05.791Z</time></trkpt><trkpt lat="38.7280567" lon="16.4373833"><ele>491.0</ele><time>2026-04-07T11:10:06.791Z</time></trkpt><trkpt lat="38.7280633" lon="16.4375917"><ele>491.0</ele><time>2026-04-07T11:10:07.791Z</time></trkpt><trkpt lat="38.7280917" lon="16.4378083"><ele>490.3333333333333</ele><time>2026-04-07T11:10:08.79Z</time></trkpt><trkpt lat="38.7281283" lon="16.438025"><ele>489.66666666666663</ele><time>2026-04-07T11:10:09.79Z</time></trkpt><trkpt lat="38.7281767" lon="16.438235"><ele>489.0</ele><time>2026-04-07T11:10:10.79Z</time></trkpt><trkpt lat="38.7282117" lon="16.4384317"><ele>489.0</ele><time>2026-04-07T11:10:11.79Z</time></trkpt><trkpt lat="38.728235" lon="16.438625"><ele>489.0</ele><time>2026-04-07T11:10:12.79Z</time></trkpt><trkpt lat="38.7282267" lon="16.4388217"><ele>489.0</ele><time>2026-04-07T11:10:13.791Z</time></trkpt><trkpt lat="38.7281883" lon="16.439015"><ele>488.66666666666663</ele><time>2026-04-07T11:10:14.79Z</time></trkpt><trkpt lat="38.7281233" lon="16.43921"><ele>488.3333333333333</ele><time>2026-04-07T11:10:15.79Z</time></trkpt><trkpt lat="38.7280683" lon="16.4393933"><ele>488.0</ele><time>2026-04-07T11:10:16.791Z</time></trkpt><trkpt lat="38.7280283" lon="16.4395633"><ele>487.25</ele><time>2026-04-07T11:10:17.791Z</time></trkpt><trkpt lat="38.7280317" lon="16.4397283"><ele>486.5</ele><time>2026-04-07T11:10:18.79Z</time></trkpt><trkpt lat="38.7280667" lon="16.4398833"><ele>485.75</ele><time>2026-04-07T11:10:19.79Z</time></trkpt><trkpt lat="38.7281117" lon="16.440035"><ele>485.0</ele><time>2026-04-07T11:10:20.79Z</time></trkpt><trkpt lat="38.7282" lon="16.4401517"><ele>485.0</ele><time>2026-04-07T11:10:21.79Z</time></trkpt><trkpt lat="38.72832" lon="16.4402383"><ele>485.0</ele><time>2026-04-07T11:10:22.79Z</time></trkpt><trkpt lat="38.72846" lon="16.4402967"><ele>485.0</ele><time>2026-04-07T11:10:23.79Z</time></trkpt><trkpt lat="38.72861" lon="16.44033"><ele>485.0</ele><time>2026-04-07T11:10:24.79Z</time></trkpt><trkpt lat="38.7287617" lon="16.4403483"><ele>484.0</ele><time>2026-04-07T11:10:25.79Z</time></trkpt><trkpt lat="38.7289117" lon="16.4403667"><ele>483.0</ele><time>2026-04-07T11:10:26.79Z</time></trkpt><trkpt lat="38.729065" lon="16.4404133"><ele>482.0</ele><time>2026-04-07T11:10:27.79Z</time></trkpt><trkpt lat="38.7292167" lon="16.4404833"><ele>482.0</ele><time>2026-04-07T11:10:28.791Z</time></trkpt><trkpt lat="38.729375" lon="16.44056"><ele>482.0</ele><time>2026-04-07T11:10:29.79Z</time></trkpt><trkpt lat="38.7295133" lon="16.440645"><ele>482.0</ele><time>2026-04-07T11:10:30.79Z</time></trkpt><trkpt lat="38.729645" lon="16.4406917"><ele>483.3333333333333</ele><time>2026-04-07T11:10:31.791Z</time></trkpt><trkpt lat="38.7297767" lon="16.4406933"><ele>484.66666666666663</ele><time>2026-04-07T11:10:32.79Z</time></trkpt><trkpt lat="38.7299333" lon="16.4406567"><ele>486.0</ele><time>2026-04-07T11:10:33.791Z</time></trkpt><trkpt lat="38.73008" lon="16.4405733"><ele>487.66666666666663</ele><time>2026-04-07T11:10:34.791Z</time></trkpt><trkpt lat="38.7302017" lon="16.440455"><ele>489.3333333333333</ele><time>2026-04-07T11:10:35.79Z</time></trkpt><trkpt lat="38.73031" lon="16.4403033"><ele>491.0</ele><time>2026-04-07T11:10:36.79Z</time></trkpt><trkpt lat="38.73041" lon="16.44014"><ele>491.0</ele><time>2026-04-07T11:10:37.79Z</time></trkpt><trkpt lat="38.7305067" lon="16.4399867"><ele>491.0</ele><time>2026-04-07T11:10:38.79Z</time></trkpt><trkpt lat="38.730625" lon="16.4398483"><ele>491.0</ele><time>2026-04-07T11:10:39.79Z</time></trkpt><trkpt lat="38.7307367" lon="16.43974"><ele>491.0</ele><time>2026-04-07T11:10:40.79Z</time></trkpt><trkpt lat="38.7308567" lon="16.4396667"><ele>491.0</ele><time>2026-04-07T11:10:41.79Z</time></trkpt><trkpt lat="38.7309867" lon="16.4395917"><ele>491.0</ele><time>2026-04-07T11:10:42.79Z</time></trkpt><trkpt lat="38.7311167" lon="16.439505"><ele>491.0</ele><time>2026-04-07T11:10:43.79Z</time></trkpt><trkpt lat="38.7312367" lon="16.4393983"><ele>493.66666666666663</ele><time>2026-04-07T11:10:44.79Z</time></trkpt><trkpt lat="38.731355" lon="16.4392717"><ele>496.33333333333337</ele><time>2026-04-07T11:10:45.791Z</time></trkpt><trkpt lat="38.7314483" lon="16.4391133"><ele>499.0</ele><time>2026-04-07T11:10:46.79Z</time></trkpt><trkpt lat="38.7315367" lon="16.4389483"><ele>502.25</ele><time>2026-04-07T11:10:47.79Z</time></trkpt><trkpt lat="38.731615" lon="16.43877"><ele>505.5</ele><time>2026-04-07T11:10:48.79Z</time></trkpt><trkpt lat="38.7316983" lon="16.438615"><ele>508.75</ele><time>2026-04-07T11:10:49.79Z</time></trkpt><trkpt lat="38.7317833" lon="16.4385"><ele>512.0</ele><time>2026-04-07T11:10:50.791Z</time></trkpt><trkpt lat="38.7318667" lon="16.438425"><ele>510.40000000000003</ele><time>2026-04-07T11:10:51.79Z</time></trkpt><trkpt lat="38.7319483" lon="16.4383917"><ele>508.80000000000007</ele><time>2026-04-07T11:10:52.79Z</time></trkpt><trkpt lat="38.73203" lon="16.4384167"><ele>507.2</ele><time>2026-04-07T11:10:53.79Z</time></trkpt><trkpt lat="38.7320917" lon="16.4384917"><ele>505.6</ele><time>2026-04-07T11:10:54.79Z</time></trkpt><trkpt lat="38.7321267" lon="16.4386117"><ele>504.0</ele><time>2026-04-07T11:10:55.79Z</time></trkpt><trkpt lat="38.7321367" lon="16.4387583"><ele>506.75</ele><time>2026-04-07T11:10:56.79Z</time></trkpt><trkpt lat="38.7321083" lon="16.4389167"><ele>509.5</ele><time>2026-04-07T11:10:57.79Z</time></trkpt><trkpt lat="38.7320467" lon="16.4391"><ele>512.25</ele><time>2026-04-07T11:10:58.79Z</time></trkpt><trkpt lat="38.7319717" lon="16.43929"><ele>515.0</ele><time>2026-04-07T11:10:59.79Z</time></trkpt><trkpt lat="38.7319167" lon="16.439485"><ele>510.3333333333333</ele><time>2026-04-07T11:11:00.79Z</time></trkpt><trkpt lat="38.7318567" lon="16.4396667"><ele>505.66666666666663</ele><time>2026-04-07T11:11:01.791Z</time></trkpt><trkpt lat="38.7317783" lon="16.43984"><ele>501.0</ele><time>2026-04-07T11:11:02.79Z</time></trkpt><trkpt lat="38.731705" lon="16.4400133"><ele>501.0</ele><time>2026-04-07T11:11:03.791Z</time></trkpt><trkpt lat="38.731645" lon="16.4401833"><ele>501.0</ele><time>2026-04-07T11:11:04.791Z</time></trkpt><trkpt lat="38.731625" lon="16.4403717"><ele>501.0</ele><time>2026-04-07T11:11:05.79Z</time></trkpt><trkpt lat="38.7316467" lon="16.44056"><ele>501.0</ele><time>2026-04-07T11:11:06.79Z</time></trkpt><trkpt lat="38.7316917" lon="16.440735"><ele>501.5</ele><time>2026-04-07T11:11:07.79Z</time></trkpt><trkpt lat="38.7317733" lon="16.4408967"><ele>502.0</ele><time>2026-04-07T11:11:08.79Z</time></trkpt><trkpt lat="38.7318883" lon="16.4410117"><ele>502.5</ele><time>2026-04-07T11:11:09.79Z</time></trkpt><trkpt lat="38.7320217" lon="16.441095"><ele>503.0</ele><time>2026-04-07T11:11:10.79Z</time></trkpt><trkpt lat="38.7321267" lon="16.4411933"><ele>507.79999999999995</ele><time>2026-04-07T11:11:11.79Z</time></trkpt><trkpt lat="38.7322033" lon="16.4412867"><ele>512.5999999999999</ele><time>2026-04-07T11:11:12.79Z</time></trkpt><trkpt lat="38.7322333" lon="16.4413933"><ele>517.4000000000001</ele><time>2026-04-07T11:11:13.791Z</time></trkpt><trkpt lat="38.7322167" lon="16.441495"><ele>522.2</ele><time>2026-04-07T11:11:14.79Z</time></trkpt><trkpt lat="38.7321617" lon="16.4415717"><ele>527.0</ele><time>2026-04-07T11:11:15.79Z</time></trkpt><trkpt lat="38.7320767" lon="16.4416317"><ele>527.5</ele><time>2026-04-07T11:11:16.79Z</time></trkpt><trkpt lat="38.73195" lon="16.4416867"><ele>528.0</ele><time>2026-04-07T11:11:17.791Z</time></trkpt><trkpt lat="38.731805" lon="16.44176"><ele>528.5</ele><time>2026-04-07T11:11:18.79Z</time></trkpt><trkpt lat="38.7316783" lon="16.4418517"><ele>529.0</ele><time>2026-04-07T11:11:19.791Z</time></trkpt><trkpt lat="38.731565" lon="16.44193"><ele>527.2</ele><time>2026-04-07T11:11:20.791Z</time></trkpt><trkpt lat="38.7314567" lon="16.4419867"><ele>525.4</ele><time>2026-04-07T11:11:21.791Z</time></trkpt><trkpt lat="38.7313667" lon="16.4420533"><ele>523.6</ele><time>2026-04-07T11:11:22.79Z</time></trkpt><trkpt lat="38.7312983" lon="16.4421583"><ele>521.8</ele><time>2026-04-07T11:11:23.79Z</time></trkpt><trkpt lat="38.731265" lon="16.442295"><ele>520.0</ele><time>2026-04-07T11:11:24.79Z</time></trkpt><trkpt lat="38.7312733" lon="16.4424167"><ele>520.0</ele><time>2026-04-07T11:11:25.79Z</time></trkpt><trkpt lat="38.7313033" lon="16.442515"><ele>520.0</ele><time>2026-04-07T11:11:26.791Z</time></trkpt><trkpt lat="38.7313483" lon="16.4425883"><ele>520.0</ele><time>2026-04-07T11:11:27.79Z</time></trkpt><trkpt lat="38.7314083" lon="16.4426467"><ele>520.0</ele><time>2026-04-07T11:11:28.791Z</time></trkpt><trkpt lat="38.7314867" lon="16.442705"><ele>520.0</ele><time>2026-04-07T11:11:29.791Z</time></trkpt><trkpt lat="38.731565" lon="16.4427733"><ele>520.0</ele><time>2026-04-07T11:11:30.79Z</time></trkpt><trkpt lat="38.731645" lon="16.44285"><ele>520.0</ele><time>2026-04-07T11:11:31.79Z</time></trkpt><trkpt lat="38.7317383" lon="16.442935"><ele>520.0</ele><time>2026-04-07T11:11:32.79Z</time></trkpt><trkpt lat="38.7318317" lon="16.4430333"><ele>520.0</ele><time>2026-04-07T11:11:33.79Z</time></trkpt><trkpt lat="38.7319183" lon="16.443125"><ele>520.0</ele><time>2026-04-07T11:11:34.791Z</time></trkpt><trkpt lat="38.7319967" lon="16.4432283"><ele>523.8</ele><time>2026-04-07T11:11:35.79Z</time></trkpt><trkpt lat="38.7320667" lon="16.4433283"><ele>527.6</ele><time>2026-04-07T11:11:36.79Z</time></trkpt><trkpt lat="38.7321217" lon="16.4434133"><ele>531.4</ele><time>2026-04-07T11:11:37.791Z</time></trkpt><trkpt lat="38.7321533" lon="16.443525"><ele>535.2</ele><time>2026-04-07T11:11:38.791Z</time></trkpt><trkpt lat="38.7321533" lon="16.443655"><ele>539.0</ele><time>2026-04-07T11:11:39.791Z</time></trkpt><trkpt lat="38.7321233" lon="16.4437867"><ele>540.75</ele><time>2026-04-07T11:11:40.79Z</time></trkpt><trkpt lat="38.73208" lon="16.443935"><ele>542.5</ele><time>2026-04-07T11:11:41.79Z</time></trkpt><trkpt lat="38.7320117" lon="16.444115"><ele>544.25</ele><time>2026-04-07T11:11:42.79Z</time></trkpt><trkpt lat="38.7319517" lon="16.44431"><ele>546.0</ele><time>2026-04-07T11:11:43.79Z</time></trkpt><trkpt lat="38.7319133" lon="16.4445067"><ele>546.0</ele><time>2026-04-07T11:11:44.791Z</time></trkpt><trkpt lat="38.7318967" lon="16.4447133"><ele>546.0</ele><time>2026-04-07T11:11:45.791Z</time></trkpt><trkpt lat="38.7319083" lon="16.4449083"><ele>546.0</ele><time>2026-04-07T11:11:46.79Z</time></trkpt><trkpt lat="38.7319333" lon="16.445095"><ele>546.0</ele><time>2026-04-07T11:11:47.79Z</time></trkpt><trkpt lat="38.73196" lon="16.4452767"><ele>546.0</ele><time>2026-04-07T11:11:48.791Z</time></trkpt><trkpt lat="38.7319967" lon="16.4454483"><ele>546.0</ele><time>2026-04-07T11:11:49.79Z</time></trkpt><trkpt lat="38.7320633" lon="16.4456167"><ele>546.0</ele><time>2026-04-07T11:11:50.79Z</time></trkpt><trkpt lat="38.7321433" lon="16.4457883"><ele>545.25</ele><time>2026-04-07T11:11:51.791Z</time></trkpt><trkpt lat="38.7322217" lon="16.4459517"><ele>544.5</ele><time>2026-04-07T11:11:52.791Z</time></trkpt><trkpt lat="38.7322967" lon="16.44609"><ele>543.75</ele><time>2026-04-07T11:11:53.79Z</time></trkpt><trkpt lat="38.732375" lon="16.4461833"><ele>543.0</ele><time>2026-04-07T11:11:54.791Z</time></trkpt><trkpt lat="38.7324667" lon="16.4462317"><ele>543.0</ele><time>2026-04-07T11:11:55.79Z</time></trkpt><trkpt lat="38.73256" lon="16.44622"><ele>543.0</ele><time>2026-04-07T11:11:56.791Z</time></trkpt><trkpt lat="38.7326433" lon="16.44615"><ele>543.0</ele><time>2026-04-07T11:11:57.79Z</time></trkpt><trkpt lat="38.7326833" lon="16.44602"><ele>543.0</ele><time>2026-04-07T11:11:58.79Z</time></trkpt><trkpt lat="38.732685" lon="16.445875"><ele>543.0</ele><time>2026-04-07T11:11:59.79Z</time></trkpt><trkpt lat="38.7326683" lon="16.4457267"><ele>543.0</ele><time>2026-04-07T11:12:00.79Z</time></trkpt><trkpt lat="38.7326617" lon="16.4455883"><ele>543.0</ele><time>2026-04-07T11:12:01.79Z</time></trkpt><trkpt lat="38.7326683" lon="16.4454567"><ele>543.0</ele><time>2026-04-07T11:12:02.79Z</time></trkpt><trkpt lat="38.7327017" lon="16.4453683"><ele>543.0</ele><time>2026-04-07T11:12:03.791Z</time></trkpt><trkpt lat="38.7327517" lon="16.445315"><ele>543.0</ele><time>2026-04-07T11:12:04.79Z</time></trkpt><trkpt lat="38.7328233" lon="16.44532"><ele>543.0</ele><time>2026-04-07T11:12:05.791Z</time></trkpt><trkpt lat="38.7328783" lon="16.4453817"><ele>545.75</ele><time>2026-04-07T11:12:06.791Z</time></trkpt><trkpt lat="38.7329217" lon="16.4454983"><ele>548.5</ele><time>2026-04-07T11:12:07.791Z</time></trkpt><trkpt lat="38.732955" lon="16.44565"><ele>551.25</ele><time>2026-04-07T11:12:08.79Z</time></trkpt><trkpt lat="38.7329933" lon="16.4458183"><ele>554.0</ele><time>2026-04-07T11:12:09.79Z</time></trkpt><trkpt lat="38.7330433" lon="16.4459383"><ele>554.0</ele><time>2026-04-07T11:12:10.79Z</time></trkpt><trkpt lat="38.733115" lon="16.445995"><ele>554.0</ele><time>2026-04-07T11:12:11.791Z</time></trkpt><trkpt lat="38.73319" lon="16.4459967"><ele>554.0</ele><time>2026-04-07T11:12:12.79Z</time></trkpt><trkpt lat="38.7332467" lon="16.4459383"><ele>554.0</ele><time>2026-04-07T11:12:13.79Z</time></trkpt><trkpt lat="38.7332717" lon="16.445825"><ele>554.0</ele><time>2026-04-07T11:12:14.79Z</time></trkpt><trkpt lat="38.73326" lon="16.4456733"><ele>554.0</ele><time>2026-04-07T11:12:15.791Z</time></trkpt><trkpt lat="38.7332217" lon="16.445485"><ele>556.0</ele><time>2026-04-07T11:12:16.79Z</time></trkpt><trkpt lat="38.7331833" lon="16.4452733"><ele>558.0</ele><time>2026-04-07T11:12:17.791Z</time></trkpt><trkpt lat="38.7331783" lon="16.445065"><ele>560.0</ele><time>2026-04-07T11:12:18.791Z</time></trkpt><trkpt lat="38.73319" lon="16.44487"><ele>560.0</ele><time>2026-04-07T11:12:19.791Z</time></trkpt><trkpt lat="38.73322" lon="16.444695"><ele>560.0</ele><time>2026-04-07T11:12:20.791Z</time></trkpt><trkpt lat="38.73327" lon="16.4445567"><ele>560.0</ele><time>2026-04-07T11:12:21.791Z</time></trkpt><trkpt lat="38.73335" lon="16.444435"><ele>560.0</ele><time>2026-04-07T11:12:22.791Z</time></trkpt><trkpt lat="38.7334567" lon="16.44435"><ele>562.0</ele><time>2026-04-07T11:12:23.791Z</time></trkpt><trkpt lat="38.7335817" lon="16.4443117"><ele>564.0</ele><time>2026-04-07T11:12:24.79Z</time></trkpt><trkpt lat="38.73371" lon="16.4443167"><ele>566.0</ele><time>2026-04-07T11:12:25.79Z</time></trkpt><trkpt lat="38.7338467" lon="16.44436"><ele>568.0</ele><time>2026-04-07T11:12:26.79Z</time></trkpt><trkpt lat="38.7339817" lon="16.4444417"><ele>568.0</ele><time>2026-04-07T11:12:27.79Z</time></trkpt><trkpt lat="38.7341083" lon="16.444555"><ele>568.0</ele><time>2026-04-07T11:12:28.79Z</time></trkpt><trkpt lat="38.734235" lon="16.4446967"><ele>568.0</ele><time>2026-04-07T11:12:29.79Z</time></trkpt><trkpt lat="38.7343767" lon="16.444845"><ele>570.3333333333334</ele><time>2026-04-07T11:12:30.79Z</time></trkpt><trkpt lat="38.73454" lon="16.44502"><ele>572.6666666666666</ele><time>2026-04-07T11:12:31.791Z</time></trkpt><trkpt lat="38.73472" lon="16.4452017"><ele>575.0</ele><time>2026-04-07T11:12:32.79Z</time></trkpt><trkpt lat="38.7349117" lon="16.4453917"><ele>574.0</ele><time>2026-04-07T11:12:33.79Z</time></trkpt><trkpt lat="38.735105" lon="16.4455933"><ele>573.0</ele><time>2026-04-07T11:12:34.79Z</time></trkpt><trkpt lat="38.7352983" lon="16.4458017"><ele>576.5</ele><time>2026-04-07T11:12:35.791Z</time></trkpt><trkpt lat="38.7354833" lon="16.4459983"><ele>580.0</ele><time>2026-04-07T11:12:36.79Z</time></trkpt><trkpt lat="38.7356533" lon="16.446185"><ele>579.6666666666667</ele><time>2026-04-07T11:12:37.791Z</time></trkpt><trkpt lat="38.73582" lon="16.446365"><ele>579.3333333333334</ele><time>2026-04-07T11:12:38.791Z</time></trkpt><trkpt lat="38.7359867" lon="16.4465367"><ele>579.0</ele><time>2026-04-07T11:12:39.79Z</time></trkpt><trkpt lat="38.7361533" lon="16.446705"><ele>580.3333333333334</ele><time>2026-04-07T11:12:40.791Z</time></trkpt><trkpt lat="38.736315" lon="16.4468767"><ele>581.6666666666667</ele><time>2026-04-07T11:12:41.79Z</time></trkpt><trkpt lat="38.7364817" lon="16.447045"><ele>583.0</ele><time>2026-04-07T11:12:42.79Z</time></trkpt><trkpt lat="38.7366433" lon="16.4472083"><ele>583.0</ele><time>2026-04-07T11:12:43.791Z</time></trkpt><trkpt lat="38.7367983" lon="16.4473717"><ele>583.0</ele><time>2026-04-07T11:12:44.79Z</time></trkpt><trkpt lat="38.736955" lon="16.4475467"><ele>583.0</ele><time>2026-04-07T11:12:45.79Z</time></trkpt><trkpt lat="38.7371183" lon="16.4477167"><ele>583.3333333333334</ele><time>2026-04-07T11:12:46.79Z</time></trkpt><trkpt lat="38.7372883" lon="16.44789"><ele>583.6666666666666</ele><time>2026-04-07T11:12:47.791Z</time></trkpt><trkpt lat="38.737455" lon="16.448065"><ele>584.0</ele><time>2026-04-07T11:12:48.791Z</time></trkpt><trkpt lat="38.737615" lon="16.44823"><ele>583.6666666666666</ele><time>2026-04-07T11:12:49.79Z</time></trkpt><trkpt lat="38.7377817" lon="16.4483733"><ele>583.3333333333334</ele><time>2026-04-07T11:12:50.79Z</time></trkpt><trkpt lat="38.7379683" lon="16.4484833"><ele>583.0</ele><time>2026-04-07T11:12:51.791Z</time></trkpt><trkpt lat="38.73816" lon="16.4485417"><ele>583.0</ele><time>2026-04-07T11:12:52.79Z</time></trkpt><trkpt lat="38.7383433" lon="16.4485933"><ele>583.0</ele><time>2026-04-07T11:12:53.791Z</time></trkpt><trkpt lat="38.7385033" lon="16.44867"><ele>583.0</ele><time>2026-04-07T11:12:54.79Z</time></trkpt><trkpt lat="38.7386533" lon="16.448785"><ele>584.0</ele><time>2026-04-07T11:12:55.79Z</time></trkpt><trkpt lat="38.7387767" lon="16.4489383"><ele>585.0</ele><time>2026-04-07T11:12:56.79Z</time></trkpt><trkpt lat="38.7388867" lon="16.44912"><ele>586.0</ele><time>2026-04-07T11:12:57.79Z</time></trkpt><trkpt lat="38.7389933" lon="16.449315"><ele>586.0</ele><time>2026-04-07T11:12:58.791Z</time></trkpt><trkpt lat="38.7390883" lon="16.4495383"><ele>586.0</ele><time>2026-04-07T11:12:59.79Z</time></trkpt><trkpt lat="38.7391983" lon="16.4497567"><ele>586.0</ele><time>2026-04-07T11:13:00.79Z</time></trkpt><trkpt lat="38.7393233" lon="16.4499733"><ele>587.6666666666667</ele><time>2026-04-07T11:13:01.79Z</time></trkpt><trkpt lat="38.73946" lon="16.4501817"><ele>589.3333333333334</ele><time>2026-04-07T11:13:02.79Z</time></trkpt><trkpt lat="38.7396267" lon="16.45037"><ele>591.0</ele><time>2026-04-07T11:13:03.791Z</time></trkpt><trkpt lat="38.7398133" lon="16.4505517"><ele>591.0</ele><time>2026-04-07T11:13:04.79Z</time></trkpt><trkpt lat="38.73999" lon="16.4507183"><ele>591.0</ele><time>2026-04-07T11:13:05.79Z</time></trkpt><trkpt lat="38.7401533" lon="16.45088"><ele>591.0</ele><time>2026-04-07T11:13:06.79Z</time></trkpt><trkpt lat="38.7402917" lon="16.4510583"><ele>593.0</ele><time>2026-04-07T11:13:07.791Z</time></trkpt><trkpt lat="38.74042" lon="16.45124"><ele>595.0</ele><time>2026-04-07T11:13:08.79Z</time></trkpt><trkpt lat="38.740515" lon="16.45143"><ele>597.0</ele><time>2026-04-07T11:13:09.791Z</time></trkpt><trkpt lat="38.7405883" lon="16.4516333"><ele>597.0</ele><time>2026-04-07T11:13:10.79Z</time></trkpt><trkpt lat="38.740665" lon="16.451855"><ele>597.0</ele><time>2026-04-07T11:13:11.79Z</time></trkpt><trkpt lat="38.7407533" lon="16.4520917"><ele>597.0</ele><time>2026-04-07T11:13:12.79Z</time></trkpt><trkpt lat="38.7408383" lon="16.4523167"><ele>597.0</ele><time>2026-04-07T11:13:13.79Z</time></trkpt><trkpt lat="38.74092" lon="16.45253"><ele>597.0</ele><time>2026-04-07T11:13:14.79Z</time></trkpt><trkpt lat="38.7409967" lon="16.4527283"><ele>597.0</ele><time>2026-04-07T11:13:15.79Z</time></trkpt><trkpt lat="38.7410683" lon="16.4529283"><ele>596.3333333333334</ele><time>2026-04-07T11:13:16.79Z</time></trkpt><trkpt lat="38.74114" lon="16.4531317"><ele>595.6666666666667</ele><time>2026-04-07T11:13:17.791Z</time></trkpt><trkpt lat="38.7412167" lon="16.4533383"><ele>595.0</ele><time>2026-04-07T11:13:18.791Z</time></trkpt><trkpt lat="38.7413" lon="16.4535483"><ele>595.0</ele><time>2026-04-07T11:13:19.79Z</time></trkpt><trkpt lat="38.7413733" lon="16.4537533"><ele>595.0</ele><time>2026-04-07T11:13:20.791Z</time></trkpt><trkpt lat="38.7414433" lon="16.45395"><ele>595.0</ele><time>2026-04-07T11:13:21.79Z</time></trkpt><trkpt lat="38.74152" lon="16.45413"><ele>594.0</ele><time>2026-04-07T11:13:22.79Z</time></trkpt><trkpt lat="38.7415883" lon="16.4543083"><ele>593.0</ele><time>2026-04-07T11:13:23.791Z</time></trkpt><trkpt lat="38.74166" lon="16.4544783"><ele>592.0</ele><time>2026-04-07T11:13:24.79Z</time></trkpt><trkpt lat="38.741725" lon="16.4546467"><ele>591.3333333333334</ele><time>2026-04-07T11:13:25.791Z</time></trkpt><trkpt lat="38.7417833" lon="16.4548317"><ele>590.6666666666666</ele><time>2026-04-07T11:13:26.791Z</time></trkpt><trkpt lat="38.74182" lon="16.4550317"><ele>590.0</ele><time>2026-04-07T11:13:27.791Z</time></trkpt><trkpt lat="38.74184" lon="16.45524"><ele>588.3333333333333</ele><time>2026-04-07T11:13:28.79Z</time></trkpt><trkpt lat="38.7418617" lon="16.4554583"><ele>586.6666666666666</ele><time>2026-04-07T11:13:29.79Z</time></trkpt><trkpt lat="38.7418933" lon="16.4556833"><ele>585.0</ele><time>2026-04-07T11:13:30.791Z</time></trkpt><trkpt lat="38.7419233" lon="16.4558967"><ele>585.0</ele><time>2026-04-07T11:13:31.79Z</time></trkpt><trkpt lat="38.7419567" lon="16.456085"><ele>585.0</ele><time>2026-04-07T11:13:32.79Z</time></trkpt><trkpt lat="38.741995" lon="16.4562517"><ele>585.0</ele><time>2026-04-07T11:13:33.79Z</time></trkpt><trkpt lat="38.7420383" lon="16.4563767"><ele>585.0</ele><time>2026-04-07T11:13:34.79Z</time></trkpt><trkpt lat="38.7421017" lon="16.4564617"><ele>585.0</ele><time>2026-04-07T11:13:35.79Z</time></trkpt><trkpt lat="38.74219" lon="16.4565033"><ele>585.0</ele><time>2026-04-07T11:13:36.791Z</time></trkpt><trkpt lat="38.7422833" lon="16.45648"><ele>585.0</ele><time>2026-04-07T11:13:37.79Z</time></trkpt><trkpt lat="38.7423783" lon="16.4564167"><ele>585.0</ele><time>2026-04-07T11:13:38.791Z</time></trkpt><trkpt lat="38.7424967" lon="16.456325"><ele>585.0</ele><time>2026-04-07T11:13:39.791Z</time></trkpt><trkpt lat="38.7426183" lon="16.456215"><ele>583.0</ele><time>2026-04-07T11:13:40.79Z</time></trkpt><trkpt lat="38.7427233" lon="16.4561217"><ele>581.0</ele><time>2026-04-07T11:13:41.791Z</time></trkpt><trkpt lat="38.7428217" lon="16.456045"><ele>579.0</ele><time>2026-04-07T11:13:42.791Z</time></trkpt><trkpt lat="38.742915" lon="16.455985"><ele>577.0</ele><time>2026-04-07T11:13:43.79Z</time></trkpt><trkpt lat="38.74301" lon="16.4559633"><ele>575.0</ele><time>2026-04-07T11:13:44.79Z</time></trkpt><trkpt lat="38.7431067" lon="16.455995"><ele>575.0</ele><time>2026-04-07T11:13:45.791Z</time></trkpt><trkpt lat="38.743185" lon="16.4560617"><ele>575.0</ele><time>2026-04-07T11:13:46.79Z</time></trkpt><trkpt lat="38.74326" lon="16.45617"><ele>575.0</ele><time>2026-04-07T11:13:47.79Z</time></trkpt><trkpt lat="38.7433267" lon="16.4563"><ele>575.0</ele><time>2026-04-07T11:13:48.79Z</time></trkpt><trkpt lat="38.7433867" lon="16.45644"><ele>575.75</ele><time>2026-04-07T11:13:49.79Z</time></trkpt><trkpt lat="38.743445" lon="16.4565867"><ele>576.5</ele><time>2026-04-07T11:13:50.79Z</time></trkpt><trkpt lat="38.7434983" lon="16.4567217"><ele>577.25</ele><time>2026-04-07T11:13:51.791Z</time></trkpt><trkpt lat="38.7435617" lon="16.45685"><ele>578.0</ele><time>2026-04-07T11:13:52.79Z</time></trkpt><trkpt lat="38.7436183" lon="16.4569783"><ele>577.0</ele><time>2026-04-07T11:13:53.79Z</time></trkpt><trkpt lat="38.743695" lon="16.45709"><ele>576.0</ele><time>2026-04-07T11:13:54.79Z</time></trkpt><trkpt lat="38.7437733" lon="16.4572033"><ele>575.0</ele><time>2026-04-07T11:13:55.791Z</time></trkpt><trkpt lat="38.7438533" lon="16.4573117"><ele>574.0</ele><time>2026-04-07T11:13:56.79Z</time></trkpt><trkpt lat="38.7439267" lon="16.4573967"><ele>573.0</ele><time>2026-04-07T11:13:57.79Z</time></trkpt><trkpt lat="38.7440017" lon="16.4574583"><ele>573.0</ele><time>2026-04-07T11:13:58.79Z</time></trkpt><trkpt lat="38.7440817" lon="16.4574817"><ele>573.0</ele><time>2026-04-07T11:13:59.791Z</time></trkpt><trkpt lat="38.7441767" lon="16.45747"><ele>573.0</ele><time>2026-04-07T11:14:01.79Z</time></trkpt><trkpt lat="38.74424" lon="16.4574517"><ele>573.0</ele><time>2026-04-07T11:14:30.79Z</time></trkpt><trkpt lat="38.7442333" lon="16.4573367"><ele>573.0</ele><time>2026-04-07T11:14:33.79Z</time></trkpt><trkpt lat="38.7441817" lon="16.45725"><ele>573.0</ele><time>2026-04-07T11:14:36.79Z</time></trkpt><trkpt lat="38.74412" lon="16.4571683"><ele>571.1666666666666</ele><time>2026-04-07T11:14:39.79Z</time></trkpt><trkpt lat="38.744075" lon="16.4570767"><ele>569.3333333333334</ele><time>2026-04-07T11:14:42.79Z</time></trkpt><trkpt lat="38.7440433" lon="16.457005"><ele>567.5</ele><time>2026-04-07T11:14:44.79Z</time></trkpt><trkpt lat="38.7440083" lon="16.4569233"><ele>565.6666666666667</ele><time>2026-04-07T11:14:46.791Z</time></trkpt><trkpt lat="38.7439433" lon="16.45681"><ele>563.8333333333334</ele><time>2026-04-07T11:14:48.79Z</time></trkpt><trkpt lat="38.7439133" lon="16.4567383"><ele>562.0</ele><time>2026-04-07T11:14:49.79Z</time></trkpt><trkpt lat="38.74389" lon="16.4566633"><ele>562.0000000000001</ele><time>2026-04-07T11:14:50.79Z</time></trkpt><trkpt lat="38.743865" lon="16.4565817"><ele>562.0</ele><time>2026-04-07T11:14:51.79Z</time></trkpt><trkpt lat="38.74385" lon="16.4564933"><ele>562.0</ele><time>2026-04-07T11:14:52.791Z</time></trkpt><trkpt lat="38.74384" lon="16.4564033"><ele>562.0</ele><time>2026-04-07T11:14:53.79Z</time></trkpt><trkpt lat="38.74384" lon="16.4563167"><ele>562.0</ele><time>2026-04-07T11:14:54.79Z</time></trkpt><trkpt lat="38.7438533" lon="16.4562317"><ele>562.0000000000001</ele><time>2026-04-07T11:14:55.791Z</time></trkpt><trkpt lat="38.7438633" lon="16.4561433"><ele>562.0</ele><time>2026-04-07T11:14:56.791Z</time></trkpt><trkpt lat="38.7438733" lon="16.456035"><ele>560.2</ele><time>2026-04-07T11:14:57.79Z</time></trkpt><trkpt lat="38.7438683" lon="16.455915"><ele>558.4000000000001</ele><time>2026-04-07T11:14:58.79Z</time></trkpt><trkpt lat="38.7438367" lon="16.45577"><ele>556.5999999999999</ele><time>2026-04-07T11:14:59.79Z</time></trkpt><trkpt lat="38.7437867" lon="16.4556267"><ele>554.8</ele><time>2026-04-07T11:15:00.79Z</time></trkpt><trkpt lat="38.74374" lon="16.4555067"><ele>553.0</ele><time>2026-04-07T11:15:01.79Z</time></trkpt><trkpt lat="38.7437117" lon="16.4553683"><ele>551.4</ele><time>2026-04-07T11:15:02.79Z</time></trkpt><trkpt lat="38.7437" lon="16.45523"><ele>549.8</ele><time>2026-04-07T11:15:03.79Z</time></trkpt><trkpt lat="38.7437083" lon="16.45511"><ele>548.2</ele><time>2026-04-07T11:15:04.79Z</time></trkpt><trkpt lat="38.7437183" lon="16.4549733"><ele>546.6</ele><time>2026-04-07T11:15:05.79Z</time></trkpt><trkpt lat="38.7437117" lon="16.4548433"><ele>545.0</ele><time>2026-04-07T11:15:06.79Z</time></trkpt><trkpt lat="38.7436867" lon="16.4547167"><ele>543.4</ele><time>2026-04-07T11:15:07.79Z</time></trkpt><trkpt lat="38.7436417" lon="16.454605"><ele>541.8</ele><time>2026-04-07T11:15:08.791Z</time></trkpt><trkpt lat="38.7435667" lon="16.4545283"><ele>540.2</ele><time>2026-04-07T11:15:09.79Z</time></trkpt><trkpt lat="38.7434733" lon="16.454495"><ele>538.6</ele><time>2026-04-07T11:15:10.791Z</time></trkpt><trkpt lat="38.7433783" lon="16.4544767"><ele>537.0</ele><time>2026-04-07T11:15:11.791Z</time></trkpt><trkpt lat="38.7432767" lon="16.4544467"><ele>541.0</ele><time>2026-04-07T11:15:12.79Z</time></trkpt><trkpt lat="38.7432017" lon="16.4543783"><ele>545.0</ele><time>2026-04-07T11:15:13.79Z</time></trkpt><trkpt lat="38.7431583" lon="16.4542733"><ele>549.0</ele><time>2026-04-07T11:15:14.791Z</time></trkpt><trkpt lat="38.74314" lon="16.454125"><ele>553.0</ele><time>2026-04-07T11:15:15.791Z</time></trkpt><trkpt lat="38.7431533" lon="16.45393"><ele>551.0</ele><time>2026-04-07T11:15:16.79Z</time></trkpt><trkpt lat="38.743155" lon="16.4537483"><ele>549.0</ele><time>2026-04-07T11:15:17.791Z</time></trkpt><trkpt lat="38.7431733" lon="16.45356"><ele>547.0</ele><time>2026-04-07T11:15:18.79Z</time></trkpt><trkpt lat="38.7431767" lon="16.4533883"><ele>545.0</ele><time>2026-04-07T11:15:19.791Z</time></trkpt><trkpt lat="38.7431633" lon="16.4532283"><ele>545.0</ele><time>2026-04-07T11:15:20.79Z</time></trkpt><trkpt lat="38.7431417" lon="16.4530667"><ele>545.0</ele><time>2026-04-07T11:15:21.79Z</time></trkpt><trkpt lat="38.743135" lon="16.4529067"><ele>545.0</ele><time>2026-04-07T11:15:22.79Z</time></trkpt><trkpt lat="38.7431417" lon="16.452725"><ele>545.0</ele><time>2026-04-07T11:15:23.791Z</time></trkpt><trkpt lat="38.7431583" lon="16.4525383"><ele>545.0</ele><time>2026-04-07T11:15:24.791Z</time></trkpt><trkpt lat="38.7431883" lon="16.45234"><ele>545.0</ele><time>2026-04-07T11:15:25.79Z</time></trkpt><trkpt lat="38.743225" lon="16.4521483"><ele>545.0</ele><time>2026-04-07T11:15:26.791Z</time></trkpt><trkpt lat="38.7432617" lon="16.4519667"><ele>545.0</ele><time>2026-04-07T11:15:27.79Z</time></trkpt><trkpt lat="38.743315" lon="16.451815"><ele>545.0</ele><time>2026-04-07T11:15:28.79Z</time></trkpt><trkpt lat="38.7433933" lon="16.451685"><ele>545.0</ele><time>2026-04-07T11:15:29.79Z</time></trkpt><trkpt lat="38.7435067" lon="16.4515567"><ele>545.0</ele><time>2026-04-07T11:15:30.791Z</time></trkpt><trkpt lat="38.74364" lon="16.4514467"><ele>541.75</ele><time>2026-04-07T11:15:31.791Z</time></trkpt><trkpt lat="38.74378" lon="16.451365"><ele>538.5</ele><time>2026-04-07T11:15:32.791Z</time></trkpt><trkpt lat="38.74391" lon="16.4512717"><ele>535.25</ele><time>2026-04-07T11:15:33.79Z</time></trkpt><trkpt lat="38.7440267" lon="16.4511633"><ele>532.0</ele><time>2026-04-07T11:15:34.79Z</time></trkpt><trkpt lat="38.7441267" lon="16.4510433"><ele>532.0</ele><time>2026-04-07T11:15:35.79Z</time></trkpt><trkpt lat="38.7442167" lon="16.4508933"><ele>532.0</ele><time>2026-04-07T11:15:36.79Z</time></trkpt><trkpt lat="38.7442917" lon="16.4507283"><ele>532.0</ele><time>2026-04-07T11:15:37.791Z</time></trkpt><trkpt lat="38.744365" lon="16.4505583"><ele>532.0</ele><time>2026-04-07T11:15:38.79Z</time></trkpt><trkpt lat="38.7444367" lon="16.4503883"><ele>528.5</ele><time>2026-04-07T11:15:39.791Z</time></trkpt><trkpt lat="38.74451" lon="16.450225"><ele>525.0</ele><time>2026-04-07T11:15:40.791Z</time></trkpt><trkpt lat="38.7445567" lon="16.450075"><ele>521.5</ele><time>2026-04-07T11:15:41.791Z</time></trkpt><trkpt lat="38.7445633" lon="16.4499117"><ele>518.0</ele><time>2026-04-07T11:15:42.79Z</time></trkpt><trkpt lat="38.7445517" lon="16.4497317"><ele>521.0</ele><time>2026-04-07T11:15:43.79Z</time></trkpt><trkpt lat="38.7445217" lon="16.449545"><ele>524.0</ele><time>2026-04-07T11:15:44.79Z</time></trkpt><trkpt lat="38.74451" lon="16.4493467"><ele>527.0</ele><time>2026-04-07T11:15:45.79Z</time></trkpt><trkpt lat="38.7445067" lon="16.4491483"><ele>527.0</ele><time>2026-04-07T11:15:46.791Z</time></trkpt><trkpt lat="38.744495" lon="16.4489633"><ele>527.0</ele><time>2026-04-07T11:15:47.791Z</time></trkpt><trkpt lat="38.744475" lon="16.4488117"><ele>527.0</ele><time>2026-04-07T11:15:48.79Z</time></trkpt><trkpt lat="38.7444733" lon="16.448675"><ele>527.0</ele><time>2026-04-07T11:15:49.79Z</time></trkpt><trkpt lat="38.7445083" lon="16.4485833"><ele>527.0</ele><time>2026-04-07T11:15:50.79Z</time></trkpt><trkpt lat="38.7445767" lon="16.4485117"><ele>527.0</ele><time>2026-04-07T11:15:51.79Z</time></trkpt><trkpt lat="38.7446383" lon="16.4484933"><ele>527.0</ele><time>2026-04-07T11:15:52.791Z</time></trkpt><trkpt lat="38.7447" lon="16.44852"><ele>527.0</ele><time>2026-04-07T11:15:53.79Z</time></trkpt><trkpt lat="38.7447683" lon="16.4485883"><ele>527.0</ele><time>2026-04-07T11:15:54.79Z</time></trkpt><trkpt lat="38.744835" lon="16.4486983"><ele>527.0</ele><time>2026-04-07T11:15:55.79Z</time></trkpt><trkpt lat="38.74491" lon="16.4488283"><ele>527.0</ele><time>2026-04-07T11:15:56.79Z</time></trkpt><trkpt lat="38.744985" lon="16.4489667"><ele>527.0</ele><time>2026-04-07T11:15:57.791Z</time></trkpt><trkpt lat="38.7450633" lon="16.449115"><ele>527.0</ele><time>2026-04-07T11:15:58.791Z</time></trkpt><trkpt lat="38.745155" lon="16.4492567"><ele>527.0</ele><time>2026-04-07T11:15:59.791Z</time></trkpt><trkpt lat="38.7452517" lon="16.4494017"><ele>529.0</ele><time>2026-04-07T11:16:00.791Z</time></trkpt><trkpt lat="38.7453583" lon="16.4495483"><ele>531.0</ele><time>2026-04-07T11:16:01.79Z</time></trkpt><trkpt lat="38.745455" lon="16.4497117"><ele>533.0</ele><time>2026-04-07T11:16:02.791Z</time></trkpt><trkpt lat="38.7455367" lon="16.4498967"><ele>533.0</ele><time>2026-04-07T11:16:03.79Z</time></trkpt><trkpt lat="38.7456067" lon="16.4500867"><ele>533.0</ele><time>2026-04-07T11:16:04.79Z</time></trkpt><trkpt lat="38.74566" lon="16.450275"><ele>533.0</ele><time>2026-04-07T11:16:05.79Z</time></trkpt><trkpt lat="38.74572" lon="16.4504433"><ele>533.25</ele><time>2026-04-07T11:16:06.791Z</time></trkpt><trkpt lat="38.7457867" lon="16.4505767"><ele>533.5</ele><time>2026-04-07T11:16:07.79Z</time></trkpt><trkpt lat="38.7458733" lon="16.450675"><ele>533.75</ele><time>2026-04-07T11:16:08.79Z</time></trkpt><trkpt lat="38.745975" lon="16.45075"><ele>534.0</ele><time>2026-04-07T11:16:09.79Z</time></trkpt><trkpt lat="38.746085" lon="16.4508067"><ele>534.0</ele><time>2026-04-07T11:16:10.79Z</time></trkpt><trkpt lat="38.7461933" lon="16.4508567"><ele>534.0</ele><time>2026-04-07T11:16:11.791Z</time></trkpt><trkpt lat="38.7462983" lon="16.45091"><ele>534.0</ele><time>2026-04-07T11:16:12.79Z</time></trkpt><trkpt lat="38.7463933" lon="16.4509717"><ele>534.0</ele><time>2026-04-07T11:16:13.79Z</time></trkpt><trkpt lat="38.74649" lon="16.4510433"><ele>534.0</ele><time>2026-04-07T11:16:14.79Z</time></trkpt><trkpt lat="38.7465683" lon="16.4511283"><ele>534.0</ele><time>2026-04-07T11:16:15.791Z</time></trkpt><trkpt lat="38.7466367" lon="16.4512233"><ele>534.0</ele><time>2026-04-07T11:16:16.79Z</time></trkpt><trkpt lat="38.7467" lon="16.45133"><ele>534.0</ele><time>2026-04-07T11:16:17.791Z</time></trkpt><trkpt lat="38.7467517" lon="16.4514467"><ele>534.0</ele><time>2026-04-07T11:16:18.79Z</time></trkpt><trkpt lat="38.7467933" lon="16.4515717"><ele>534.0</ele><time>2026-04-07T11:16:19.791Z</time></trkpt><trkpt lat="38.7468217" lon="16.4517"><ele>532.8333333333334</ele><time>2026-04-07T11:16:20.79Z</time></trkpt><trkpt lat="38.7468317" lon="16.451815"><ele>531.6666666666666</ele><time>2026-04-07T11:16:21.79Z</time></trkpt><trkpt lat="38.7468367" lon="16.4519167"><ele>530.5</ele><time>2026-04-07T11:16:22.79Z</time></trkpt><trkpt lat="38.7468483" lon="16.452005"><ele>529.3333333333333</ele><time>2026-04-07T11:16:23.79Z</time></trkpt><trkpt lat="38.7468633" lon="16.4520917"><ele>528.1666666666666</ele><time>2026-04-07T11:16:24.791Z</time></trkpt><trkpt lat="38.7468817" lon="16.452195"><ele>527.0</ele><time>2026-04-07T11:16:25.791Z</time></trkpt><trkpt lat="38.746915" lon="16.4523017"><ele>527.0</ele><time>2026-04-07T11:16:26.79Z</time></trkpt><trkpt lat="38.7469533" lon="16.4524117"><ele>527.0</ele><time>2026-04-07T11:16:27.79Z</time></trkpt><trkpt lat="38.7470033" lon="16.45252"><ele>527.0</ele><time>2026-04-07T11:16:28.79Z</time></trkpt><trkpt lat="38.7470567" lon="16.4526233"><ele>527.0</ele><time>2026-04-07T11:16:29.79Z</time></trkpt><trkpt lat="38.7471267" lon="16.452735"><ele>527.0</ele><time>2026-04-07T11:16:30.79Z</time></trkpt><trkpt lat="38.7471917" lon="16.45284"><ele>527.0</ele><time>2026-04-07T11:16:31.79Z</time></trkpt><trkpt lat="38.7472567" lon="16.452945"><ele>527.0</ele><time>2026-04-07T11:16:32.791Z</time></trkpt><trkpt lat="38.7473267" lon="16.4530517"><ele>527.0</ele><time>2026-04-07T11:16:33.79Z</time></trkpt><trkpt lat="38.7473917" lon="16.4531483"><ele>527.0</ele><time>2026-04-07T11:16:34.79Z</time></trkpt><trkpt lat="38.7474533" lon="16.4532433"><ele>527.0</ele><time>2026-04-07T11:16:35.79Z</time></trkpt><trkpt lat="38.7475017" lon="16.453325"><ele>526.8333333333333</ele><time>2026-04-07T11:16:36.791Z</time></trkpt><trkpt lat="38.7475767" lon="16.453435"><ele>526.6666666666666</ele><time>2026-04-07T11:16:38.79Z</time></trkpt><trkpt lat="38.747645" lon="16.4534633"><ele>526.5</ele><time>2026-04-07T11:16:40.79Z</time></trkpt><trkpt lat="38.7477083" lon="16.45341"><ele>526.3333333333334</ele><time>2026-04-07T11:16:42.79Z</time></trkpt><trkpt lat="38.747725" lon="16.45332"><ele>526.1666666666667</ele><time>2026-04-07T11:16:44.79Z</time></trkpt><trkpt lat="38.747705" lon="16.4532083"><ele>526.0</ele><time>2026-04-07T11:16:46.79Z</time></trkpt><trkpt lat="38.7477033" lon="16.45308"><ele>524.6</ele><time>2026-04-07T11:16:48.79Z</time></trkpt><trkpt lat="38.7477183" lon="16.4529917"><ele>523.2</ele><time>2026-04-07T11:16:49.79Z</time></trkpt><trkpt lat="38.7477417" lon="16.4528883"><ele>521.8</ele><time>2026-04-07T11:16:50.79Z</time></trkpt><trkpt lat="38.74776" lon="16.45276"><ele>520.4</ele><time>2026-04-07T11:16:51.791Z</time></trkpt><trkpt lat="38.7477733" lon="16.4526167"><ele>519.0</ele><time>2026-04-07T11:16:52.79Z</time></trkpt><trkpt lat="38.7477917" lon="16.4524617"><ele>519.0</ele><time>2026-04-07T11:16:53.79Z</time></trkpt><trkpt lat="38.7478033" lon="16.4522967"><ele>519.0</ele><time>2026-04-07T11:16:54.79Z</time></trkpt><trkpt lat="38.7478167" lon="16.452125"><ele>519.0</ele><time>2026-04-07T11:16:55.79Z</time></trkpt><trkpt lat="38.7478367" lon="16.4519467"><ele>519.0</ele><time>2026-04-07T11:16:56.79Z</time></trkpt><trkpt lat="38.7478583" lon="16.4517667"><ele>521.6666666666666</ele><time>2026-04-07T11:16:57.791Z</time></trkpt><trkpt lat="38.7478783" lon="16.4515983"><ele>524.3333333333333</ele><time>2026-04-07T11:16:58.79Z</time></trkpt><trkpt lat="38.7479467" lon="16.451305"><ele>527.0</ele><time>2026-04-07T11:17:00.79Z</time></trkpt><trkpt lat="38.7480083" lon="16.4511883"><ele>528.75</ele><time>2026-04-07T11:17:01.79Z</time></trkpt><trkpt lat="38.7480883" lon="16.4510867"><ele>530.5</ele><time>2026-04-07T11:17:02.791Z</time></trkpt><trkpt lat="38.7481767" lon="16.450995"><ele>532.25</ele><time>2026-04-07T11:17:03.79Z</time></trkpt><trkpt lat="38.74826" lon="16.4508917"><ele>534.0</ele><time>2026-04-07T11:17:04.791Z</time></trkpt><trkpt lat="38.7483417" lon="16.45078"><ele>534.0</ele><time>2026-04-07T11:17:05.79Z</time></trkpt><trkpt lat="38.74842" lon="16.4506867"><ele>534.0</ele><time>2026-04-07T11:17:06.79Z</time></trkpt><trkpt lat="38.748495" lon="16.45059"><ele>534.0</ele><time>2026-04-07T11:17:07.79Z</time></trkpt><trkpt lat="38.74856" lon="16.4504683"><ele>534.0</ele><time>2026-04-07T11:17:08.79Z</time></trkpt><trkpt lat="38.748615" lon="16.4503417"><ele>534.0</ele><time>2026-04-07T11:17:09.791Z</time></trkpt><trkpt lat="38.748665" lon="16.4501933"><ele>533.0</ele><time>2026-04-07T11:17:10.79Z</time></trkpt><trkpt lat="38.7487033" lon="16.4500483"><ele>532.0</ele><time>2026-04-07T11:17:11.79Z</time></trkpt><trkpt lat="38.7487083" lon="16.4499183"><ele>531.0</ele><time>2026-04-07T11:17:12.79Z</time></trkpt><trkpt lat="38.7486767" lon="16.4498083"><ele>530.0</ele><time>2026-04-07T11:17:13.791Z</time></trkpt><trkpt lat="38.7486267" lon="16.449725"><ele>529.0</ele><time>2026-04-07T11:17:14.79Z</time></trkpt><trkpt lat="38.7485567" lon="16.4496583"><ele>532.75</ele><time>2026-04-07T11:17:15.79Z</time></trkpt><trkpt lat="38.74847" lon="16.4496333"><ele>536.5</ele><time>2026-04-07T11:17:16.791Z</time></trkpt><trkpt lat="38.7483533" lon="16.4496533"><ele>540.25</ele><time>2026-04-07T11:17:17.79Z</time></trkpt><trkpt lat="38.7482133" lon="16.4497083"><ele>544.0</ele><time>2026-04-07T11:17:18.79Z</time></trkpt><trkpt lat="38.7480667" lon="16.4497833"><ele>544.0</ele><time>2026-04-07T11:17:19.79Z</time></trkpt><trkpt lat="38.7479383" lon="16.44984"><ele>544.0</ele><time>2026-04-07T11:17:20.79Z</time></trkpt><trkpt lat="38.7478217" lon="16.4498667"><ele>544.0</ele><time>2026-04-07T11:17:21.79Z</time></trkpt><trkpt lat="38.747705" lon="16.44985"><ele>544.0</ele><time>2026-04-07T11:17:22.791Z</time></trkpt><trkpt lat="38.7475833" lon="16.449825"><ele>545.5</ele><time>2026-04-07T11:17:23.791Z</time></trkpt><trkpt lat="38.74746" lon="16.44979"><ele>547.0</ele><time>2026-04-07T11:17:24.79Z</time></trkpt><trkpt lat="38.7473283" lon="16.4497533"><ele>548.5</ele><time>2026-04-07T11:17:25.79Z</time></trkpt><trkpt lat="38.7471933" lon="16.4497117"><ele>550.0</ele><time>2026-04-07T11:17:26.791Z</time></trkpt><trkpt lat="38.74706" lon="16.4496683"><ele>552.75</ele><time>2026-04-07T11:17:27.79Z</time></trkpt><trkpt lat="38.7469217" lon="16.4496217"><ele>555.5</ele><time>2026-04-07T11:17:28.79Z</time></trkpt><trkpt lat="38.7467883" lon="16.4495717"><ele>558.25</ele><time>2026-04-07T11:17:29.79Z</time></trkpt><trkpt lat="38.7466733" lon="16.4495183"><ele>561.0</ele><time>2026-04-07T11:17:30.791Z</time></trkpt><trkpt lat="38.746575" lon="16.44946"><ele>561.0</ele><time>2026-04-07T11:17:31.79Z</time></trkpt><trkpt lat="38.7465033" lon="16.449375"><ele>561.0</ele><time>2026-04-07T11:17:32.79Z</time></trkpt><trkpt lat="38.7464633" lon="16.449275"><ele>561.0</ele><time>2026-04-07T11:17:33.791Z</time></trkpt><trkpt lat="38.7464567" lon="16.4491617"><ele>561.0</ele><time>2026-04-07T11:17:34.79Z</time></trkpt><trkpt lat="38.746475" lon="16.4490567"><ele>561.0</ele><time>2026-04-07T11:17:35.791Z</time></trkpt><trkpt lat="38.7465217" lon="16.44896"><ele>561.0</ele><time>2026-04-07T11:17:36.791Z</time></trkpt><trkpt lat="38.7465833" lon="16.448885"><ele>561.0</ele><time>2026-04-07T11:17:37.791Z</time></trkpt><trkpt lat="38.746665" lon="16.4488467"><ele>561.0</ele><time>2026-04-07T11:17:38.79Z</time></trkpt><trkpt lat="38.7467567" lon="16.4488567"><ele>561.0</ele><time>2026-04-07T11:17:39.79Z</time></trkpt><trkpt lat="38.7468667" lon="16.4488883"><ele>561.0</ele><time>2026-04-07T11:17:40.79Z</time></trkpt><trkpt lat="38.7469867" lon="16.44893"><ele>561.0</ele><time>2026-04-07T11:17:41.79Z</time></trkpt><trkpt lat="38.7471083" lon="16.4489667"><ele>561.8</ele><time>2026-04-07T11:17:42.79Z</time></trkpt><trkpt lat="38.747235" lon="16.448985"><ele>562.6</ele><time>2026-04-07T11:17:43.79Z</time></trkpt><trkpt lat="38.7473467" lon="16.448995"><ele>563.4</ele><time>2026-04-07T11:17:44.79Z</time></trkpt><trkpt lat="38.7474433" lon="16.4489917"><ele>564.2</ele><time>2026-04-07T11:17:45.791Z</time></trkpt><trkpt lat="38.7475233" lon="16.4489867"><ele>565.0</ele><time>2026-04-07T11:17:46.79Z</time></trkpt><trkpt lat="38.7476083" lon="16.44897"><ele>565.0</ele><time>2026-04-07T11:17:48.791Z</time></trkpt><trkpt lat="38.7476233" lon="16.4488617"><ele>565.0</ele><time>2026-04-07T11:17:51.79Z</time></trkpt><trkpt lat="38.7476417" lon="16.448725"><ele>565.0</ele><time>2026-04-07T11:17:53.789Z</time></trkpt><trkpt lat="38.74766" lon="16.44864"><ele>565.0</ele><time>2026-04-07T11:17:54.79Z</time></trkpt><trkpt lat="38.74768" lon="16.44855"><ele>565.0</ele><time>2026-04-07T11:17:55.789Z</time></trkpt><trkpt lat="38.7476917" lon="16.44845"><ele>565.0</ele><time>2026-04-07T11:17:56.789Z</time></trkpt><trkpt lat="38.7477133" lon="16.44836"><ele>566.4</ele><time>2026-04-07T11:17:57.789Z</time></trkpt><trkpt lat="38.7477467" lon="16.4482217"><ele>567.8</ele><time>2026-04-07T11:17:59.789Z</time></trkpt><trkpt lat="38.7477983" lon="16.4481483"><ele>569.2</ele><time>2026-04-07T11:18:01.79Z</time></trkpt><trkpt lat="38.74788" lon="16.4480983"><ele>570.6</ele><time>2026-04-07T11:18:03.79Z</time></trkpt><trkpt lat="38.7479683" lon="16.44806"><ele>572.0</ele><time>2026-04-07T11:18:05.79Z</time></trkpt><trkpt lat="38.7480283" lon="16.4479767"><ele>573.2</ele><time>2026-04-07T11:18:07.789Z</time></trkpt><trkpt lat="38.748055" lon="16.4478683"><ele>574.4000000000001</ele><time>2026-04-07T11:18:09.789Z</time></trkpt><trkpt lat="38.748075" lon="16.44775"><ele>575.5999999999999</ele><time>2026-04-07T11:18:11.789Z</time></trkpt><trkpt lat="38.7481033" lon="16.4476167"><ele>576.8</ele><time>2026-04-07T11:18:13.789Z</time></trkpt><trkpt lat="38.7481333" lon="16.447485"><ele>578.0</ele><time>2026-04-07T11:18:15.789Z</time></trkpt><trkpt lat="38.7481483" lon="16.4473983"><ele>578.0</ele><time>2026-04-07T11:18:17.789Z</time></trkpt><trkpt lat="38.748145" lon="16.44748"><ele>578.0</ele><time>2026-04-07T11:18:27.789Z</time></trkpt><trkpt lat="38.748125" lon="16.4476683"><ele>578.0</ele><time>2026-04-07T11:18:29.789Z</time></trkpt><trkpt lat="38.748095" lon="16.4477917"><ele>578.0</ele><time>2026-04-07T11:18:30.789Z</time></trkpt><trkpt lat="38.748065" lon="16.4479017"><ele>578.0</ele><time>2026-04-07T11:18:31.79Z</time></trkpt><trkpt lat="38.7480383" lon="16.44798"><ele>578.0</ele><time>2026-04-07T11:18:32.789Z</time></trkpt><trkpt lat="38.7479833" lon="16.4480567"><ele>578.0</ele><time>2026-04-07T11:18:34.79Z</time></trkpt><trkpt lat="38.7479217" lon="16.4480933"><ele>578.0</ele><time>2026-04-07T11:18:37.789Z</time></trkpt><trkpt lat="38.7478367" lon="16.4481283"><ele>578.0</ele><time>2026-04-07T11:18:39.789Z</time></trkpt><trkpt lat="38.7477583" lon="16.4481733"><ele>578.0</ele><time>2026-04-07T11:18:41.789Z</time></trkpt><trkpt lat="38.7477067" lon="16.4482433"><ele>578.0</ele><time>2026-04-07T11:18:43.789Z</time></trkpt><trkpt lat="38.7476733" lon="16.4483783"><ele>578.0</ele><time>2026-04-07T11:18:45.79Z</time></trkpt><trkpt lat="38.7476533" lon="16.44846"><ele>578.0</ele><time>2026-04-07T11:18:46.789Z</time></trkpt><trkpt lat="38.7476367" lon="16.44856"><ele>578.0</ele><time>2026-04-07T11:18:47.789Z</time></trkpt><trkpt lat="38.7476183" lon="16.4486617"><ele>578.0</ele><time>2026-04-07T11:18:48.79Z</time></trkpt><trkpt lat="38.747595" lon="16.448755"><ele>578.0</ele><time>2026-04-07T11:18:49.789Z</time></trkpt><trkpt lat="38.747575" lon="16.448875"><ele>578.0</ele><time>2026-04-07T11:18:51.789Z</time></trkpt><trkpt lat="38.747665" lon="16.4489467"><ele>577.0</ele><time>2026-04-07T11:18:54.789Z</time></trkpt><trkpt lat="38.74778" lon="16.4489733"><ele>576.0</ele><time>2026-04-07T11:18:56.79Z</time></trkpt><trkpt lat="38.747845" lon="16.4489667"><ele>575.0</ele><time>2026-04-07T11:18:57.789Z</time></trkpt><trkpt lat="38.747955" lon="16.4488733"><ele>574.0</ele><time>2026-04-07T11:18:59.789Z</time></trkpt><trkpt lat="38.74799" lon="16.4488033"><ele>573.0</ele><time>2026-04-07T11:19:00.79Z</time></trkpt><trkpt lat="38.74802" lon="16.4487283"><ele>572.0</ele><time>2026-04-07T11:19:01.789Z</time></trkpt><trkpt lat="38.7480533" lon="16.4486417"><ele>572.0</ele><time>2026-04-07T11:19:02.789Z</time></trkpt><trkpt lat="38.7480783" lon="16.448565"><ele>572.0</ele><time>2026-04-07T11:19:03.789Z</time></trkpt><trkpt lat="38.7481033" lon="16.44842"><ele>572.0</ele><time>2026-04-07T11:19:05.789Z</time></trkpt><trkpt lat="38.74812" lon="16.44831"><ele>572.0</ele><time>2026-04-07T11:19:07.789Z</time></trkpt><trkpt lat="38.74814" lon="16.4482083"><ele>572.0</ele><time>2026-04-07T11:19:09.789Z</time></trkpt><trkpt lat="38.7480917" lon="16.448295"><ele>572.0</ele><time>2026-04-07T11:19:16.789Z</time></trkpt><trkpt lat="38.7480567" lon="16.44844"><ele>572.0</ele><time>2026-04-07T11:19:18.789Z</time></trkpt><trkpt lat="38.7480217" lon="16.4485783"><ele>572.0</ele><time>2026-04-07T11:19:20.79Z</time></trkpt><trkpt lat="38.7479983" lon="16.4486667"><ele>572.0</ele><time>2026-04-07T11:19:22.79Z</time></trkpt><trkpt lat="38.7479933" lon="16.4487683"><ele>572.0</ele><time>2026-04-07T11:21:11.789Z</time></trkpt><trkpt lat="38.747905" lon="16.4488733"><ele>572.0</ele><time>2026-04-07T11:21:13.789Z</time></trkpt><trkpt lat="38.7478483" lon="16.448925"><ele>570.6</ele><time>2026-04-07T11:21:14.789Z</time></trkpt><trkpt lat="38.74776" lon="16.448955"><ele>569.2</ele><time>2026-04-07T11:21:15.789Z</time></trkpt><trkpt lat="38.7476583" lon="16.4489583"><ele>567.8</ele><time>2026-04-07T11:21:16.789Z</time></trkpt><trkpt lat="38.747555" lon="16.4489533"><ele>566.4</ele><time>2026-04-07T11:21:17.79Z</time></trkpt><trkpt lat="38.747445" lon="16.4489567"><ele>565.0</ele><time>2026-04-07T11:21:18.789Z</time></trkpt><trkpt lat="38.7473383" lon="16.4489617"><ele>565.0</ele><time>2026-04-07T11:21:19.789Z</time></trkpt><trkpt lat="38.747235" lon="16.4489567"><ele>565.0</ele><time>2026-04-07T11:21:20.789Z</time></trkpt><trkpt lat="38.7471317" lon="16.448945"><ele>565.0</ele><time>2026-04-07T11:21:21.79Z</time></trkpt><trkpt lat="38.74703" lon="16.4489217"><ele>565.0</ele><time>2026-04-07T11:21:22.79Z</time></trkpt><trkpt lat="38.7469167" lon="16.4488917"><ele>565.0</ele><time>2026-04-07T11:21:23.789Z</time></trkpt><trkpt lat="38.7468083" lon="16.4488633"><ele>564.2</ele><time>2026-04-07T11:21:24.79Z</time></trkpt><trkpt lat="38.746705" lon="16.44885"><ele>563.4</ele><time>2026-04-07T11:21:25.79Z</time></trkpt><trkpt lat="38.746605" lon="16.4488633"><ele>562.6</ele><time>2026-04-07T11:21:26.789Z</time></trkpt><trkpt lat="38.7465217" lon="16.44892"><ele>561.8</ele><time>2026-04-07T11:21:27.789Z</time></trkpt><trkpt lat="38.7464583" lon="16.449005"><ele>561.0</ele><time>2026-04-07T11:21:28.789Z</time></trkpt><trkpt lat="38.7464217" lon="16.449105"><ele>561.0</ele><time>2026-04-07T11:21:29.79Z</time></trkpt><trkpt lat="38.7464133" lon="16.4492167"><ele>561.0</ele><time>2026-04-07T11:21:30.79Z</time></trkpt><trkpt lat="38.7464367" lon="16.4493383"><ele>561.0</ele><time>2026-04-07T11:21:31.79Z</time></trkpt><trkpt lat="38.7464867" lon="16.4494567"><ele>561.0</ele><time>2026-04-07T11:21:32.79Z</time></trkpt><trkpt lat="38.7465783" lon="16.4495533"><ele>561.0</ele><time>2026-04-07T11:21:33.789Z</time></trkpt><trkpt lat="38.74672" lon="16.4496"><ele>558.25</ele><time>2026-04-07T11:21:34.789Z</time></trkpt><trkpt lat="38.74687" lon="16.4496417"><ele>555.5</ele><time>2026-04-07T11:21:35.789Z</time></trkpt><trkpt lat="38.7470167" lon="16.44968"><ele>552.75</ele><time>2026-04-07T11:21:36.79Z</time></trkpt><trkpt lat="38.7471567" lon="16.4497083"><ele>550.0</ele><time>2026-04-07T11:21:37.789Z</time></trkpt><trkpt lat="38.7472783" lon="16.4497433"><ele>550.0</ele><time>2026-04-07T11:21:38.789Z</time></trkpt><trkpt lat="38.74739" lon="16.4497767"><ele>550.0</ele><time>2026-04-07T11:21:39.789Z</time></trkpt><trkpt lat="38.7474983" lon="16.44981"><ele>550.0</ele><time>2026-04-07T11:21:40.789Z</time></trkpt><trkpt lat="38.7476083" lon="16.449845"><ele>550.0</ele><time>2026-04-07T11:21:41.789Z</time></trkpt><trkpt lat="38.7477167" lon="16.449875"><ele>548.5</ele><time>2026-04-07T11:21:42.789Z</time></trkpt><trkpt lat="38.7478367" lon="16.4498883"><ele>547.0</ele><time>2026-04-07T11:21:43.79Z</time></trkpt><trkpt lat="38.7479617" lon="16.4498633"><ele>545.5</ele><time>2026-04-07T11:21:44.79Z</time></trkpt><trkpt lat="38.7481017" lon="16.4498217"><ele>544.0</ele><time>2026-04-07T11:21:45.79Z</time></trkpt><trkpt lat="38.7482283" lon="16.449765"><ele>544.0</ele><time>2026-04-07T11:21:46.79Z</time></trkpt><trkpt lat="38.7483433" lon="16.4497217"><ele>544.0</ele><time>2026-04-07T11:21:47.79Z</time></trkpt><trkpt lat="38.7484417" lon="16.4496983"><ele>544.0</ele><time>2026-04-07T11:21:48.79Z</time></trkpt><trkpt lat="38.7485283" lon="16.4497"><ele>544.0</ele><time>2026-04-07T11:21:49.789Z</time></trkpt><trkpt lat="38.7486067" lon="16.449755"><ele>544.0</ele><time>2026-04-07T11:21:50.789Z</time></trkpt><trkpt lat="38.7486583" lon="16.4498483"><ele>541.0</ele><time>2026-04-07T11:21:51.79Z</time></trkpt><trkpt lat="38.7486867" lon="16.449955"><ele>538.0</ele><time>2026-04-07T11:21:52.79Z</time></trkpt><trkpt lat="38.7486867" lon="16.4500733"><ele>535.0</ele><time>2026-04-07T11:21:53.789Z</time></trkpt><trkpt lat="38.748665" lon="16.45019"><ele>532.0</ele><time>2026-04-07T11:21:54.79Z</time></trkpt><trkpt lat="38.74862" lon="16.4503183"><ele>529.0</ele><time>2026-04-07T11:21:55.789Z</time></trkpt><trkpt lat="38.7485567" lon="16.4504333"><ele>530.25</ele><time>2026-04-07T11:21:56.79Z</time></trkpt><trkpt lat="38.74847" lon="16.4505467"><ele>531.5</ele><time>2026-04-07T11:21:57.789Z</time></trkpt><trkpt lat="38.748385" lon="16.4506717"><ele>532.75</ele><time>2026-04-07T11:21:58.79Z</time></trkpt><trkpt lat="38.7482967" lon="16.45079"><ele>534.0</ele><time>2026-04-07T11:21:59.79Z</time></trkpt><trkpt lat="38.7481933" lon="16.4508867"><ele>534.0</ele><time>2026-04-07T11:22:00.789Z</time></trkpt><trkpt lat="38.7480933" lon="16.451"><ele>534.0</ele><time>2026-04-07T11:22:01.79Z</time></trkpt><trkpt lat="38.748005" lon="16.45113"><ele>534.0</ele><time>2026-04-07T11:22:02.789Z</time></trkpt><trkpt lat="38.747925" lon="16.45124"><ele>534.0</ele><time>2026-04-07T11:22:03.789Z</time></trkpt><trkpt lat="38.7478617" lon="16.4513567"><ele>532.25</ele><time>2026-04-07T11:22:04.789Z</time></trkpt><trkpt lat="38.7478183" lon="16.45149"><ele>530.5</ele><time>2026-04-07T11:22:05.789Z</time></trkpt><trkpt lat="38.7477983" lon="16.4516417"><ele>528.75</ele><time>2026-04-07T11:22:06.79Z</time></trkpt><trkpt lat="38.74779" lon="16.4518117"><ele>527.0</ele><time>2026-04-07T11:22:07.79Z</time></trkpt><trkpt lat="38.7477883" lon="16.4520033"><ele>525.0</ele><time>2026-04-07T11:22:08.789Z</time></trkpt><trkpt lat="38.7477733" lon="16.4521933"><ele>523.0</ele><time>2026-04-07T11:22:09.789Z</time></trkpt><trkpt lat="38.7477617" lon="16.4523717"><ele>521.0</ele><time>2026-04-07T11:22:10.789Z</time></trkpt><trkpt lat="38.747755" lon="16.45254"><ele>519.0</ele><time>2026-04-07T11:22:11.79Z</time></trkpt><trkpt lat="38.74775" lon="16.4526917"><ele>519.0</ele><time>2026-04-07T11:22:12.789Z</time></trkpt><trkpt lat="38.7477333" lon="16.4528367"><ele>519.0</ele><time>2026-04-07T11:22:13.789Z</time></trkpt><trkpt lat="38.7477167" lon="16.452975"><ele>519.0</ele><time>2026-04-07T11:22:14.789Z</time></trkpt><trkpt lat="38.74769" lon="16.45309"><ele>519.0</ele><time>2026-04-07T11:22:15.789Z</time></trkpt><trkpt lat="38.7476583" lon="16.4531867"><ele>519.0</ele><time>2026-04-07T11:22:16.789Z</time></trkpt><trkpt lat="38.747635" lon="16.4532833"><ele>518.8333333333334</ele><time>2026-04-07T11:22:17.789Z</time></trkpt><trkpt lat="38.7476383" lon="16.4533833"><ele>518.6666666666666</ele><time>2026-04-07T11:22:18.79Z</time></trkpt><trkpt lat="38.74766" lon="16.453475"><ele>518.5</ele><time>2026-04-07T11:22:19.789Z</time></trkpt><trkpt lat="38.7476917" lon="16.453575"><ele>518.3333333333333</ele><time>2026-04-07T11:22:20.789Z</time></trkpt><trkpt lat="38.74774" lon="16.45368"><ele>518.1666666666666</ele><time>2026-04-07T11:22:21.789Z</time></trkpt><trkpt lat="38.7478067" lon="16.4537967"><ele>518.0</ele><time>2026-04-07T11:22:22.789Z</time></trkpt><trkpt lat="38.747895" lon="16.453925"><ele>518.0</ele><time>2026-04-07T11:22:23.789Z</time></trkpt><trkpt lat="38.7479933" lon="16.45406"><ele>518.0</ele><time>2026-04-07T11:22:24.79Z</time></trkpt><trkpt lat="38.7481017" lon="16.4542"><ele>518.0</ele><time>2026-04-07T11:22:25.79Z</time></trkpt><trkpt lat="38.7482117" lon="16.4543533"><ele>518.0</ele><time>2026-04-07T11:22:26.79Z</time></trkpt><trkpt lat="38.7483133" lon="16.454515"><ele>518.0</ele><time>2026-04-07T11:22:27.789Z</time></trkpt><trkpt lat="38.7484" lon="16.454655"><ele>518.0</ele><time>2026-04-07T11:22:28.789Z</time></trkpt><trkpt lat="38.7484783" lon="16.45478"><ele>518.0</ele><time>2026-04-07T11:22:29.789Z</time></trkpt><trkpt lat="38.748555" lon="16.4548783"><ele>516.1666666666666</ele><time>2026-04-07T11:22:30.789Z</time></trkpt><trkpt lat="38.74863" lon="16.4549517"><ele>514.3333333333333</ele><time>2026-04-07T11:22:31.789Z</time></trkpt><trkpt lat="38.7487067" lon="16.4549817"><ele>512.5</ele><time>2026-04-07T11:22:32.789Z</time></trkpt><trkpt lat="38.748775" lon="16.4549633"><ele>510.66666666666663</ele><time>2026-04-07T11:22:33.79Z</time></trkpt><trkpt lat="38.7488317" lon="16.4549033"><ele>508.8333333333333</ele><time>2026-04-07T11:22:34.789Z</time></trkpt><trkpt lat="38.7488717" lon="16.454785"><ele>507.0</ele><time>2026-04-07T11:22:35.789Z</time></trkpt><trkpt lat="38.74888" lon="16.45463"><ele>506.25</ele><time>2026-04-07T11:22:36.789Z</time></trkpt><trkpt lat="38.7488617" lon="16.454455"><ele>505.5</ele><time>2026-04-07T11:22:37.789Z</time></trkpt><trkpt lat="38.7488517" lon="16.4542867"><ele>504.75</ele><time>2026-04-07T11:22:38.79Z</time></trkpt><trkpt lat="38.7488567" lon="16.4541383"><ele>504.0</ele><time>2026-04-07T11:22:39.789Z</time></trkpt><trkpt lat="38.7488883" lon="16.4539983"><ele>504.0</ele><time>2026-04-07T11:22:40.79Z</time></trkpt><trkpt lat="38.748945" lon="16.45389"><ele>504.0</ele><time>2026-04-07T11:22:41.789Z</time></trkpt><trkpt lat="38.7490317" lon="16.4537967"><ele>504.0</ele><time>2026-04-07T11:22:42.789Z</time></trkpt><trkpt lat="38.7491283" lon="16.453705"><ele>504.0</ele><time>2026-04-07T11:22:43.79Z</time></trkpt><trkpt lat="38.7492267" lon="16.453625"><ele>505.0</ele><time>2026-04-07T11:22:44.79Z</time></trkpt><trkpt lat="38.749335" lon="16.4535467"><ele>506.0</ele><time>2026-04-07T11:22:45.79Z</time></trkpt><trkpt lat="38.74945" lon="16.4534483"><ele>507.0</ele><time>2026-04-07T11:22:46.789Z</time></trkpt><trkpt lat="38.7495683" lon="16.453355"><ele>508.0</ele><time>2026-04-07T11:22:47.789Z</time></trkpt><trkpt lat="38.7496717" lon="16.45326"><ele>506.0</ele><time>2026-04-07T11:22:48.789Z</time></trkpt><trkpt lat="38.7497767" lon="16.4531733"><ele>504.0</ele><time>2026-04-07T11:22:49.789Z</time></trkpt><trkpt lat="38.74989" lon="16.4531"><ele>502.0</ele><time>2026-04-07T11:22:50.79Z</time></trkpt><trkpt lat="38.7500017" lon="16.453055"><ele>500.0</ele><time>2026-04-07T11:22:51.789Z</time></trkpt><trkpt lat="38.7501317" lon="16.4530367"><ele>499.5</ele><time>2026-04-07T11:22:52.79Z</time></trkpt><trkpt lat="38.7502583" lon="16.453055"><ele>499.0</ele><time>2026-04-07T11:22:53.79Z</time></trkpt><trkpt lat="38.7503833" lon="16.4530833"><ele>498.5</ele><time>2026-04-07T11:22:54.79Z</time></trkpt><trkpt lat="38.7505033" lon="16.4531083"><ele>498.0</ele><time>2026-04-07T11:22:55.789Z</time></trkpt><trkpt lat="38.750605" lon="16.4531317"><ele>498.0</ele><time>2026-04-07T11:22:56.79Z</time></trkpt><trkpt lat="38.7506933" lon="16.4531633"><ele>497.99999999999994</ele><time>2026-04-07T11:22:57.789Z</time></trkpt><trkpt lat="38.75078" lon="16.4532167"><ele>497.99999999999994</ele><time>2026-04-07T11:22:58.789Z</time></trkpt><trkpt lat="38.7508583" lon="16.453285"><ele>498.0</ele><time>2026-04-07T11:22:59.79Z</time></trkpt><trkpt lat="38.7509467" lon="16.4533733"><ele>498.0</ele><time>2026-04-07T11:23:00.789Z</time></trkpt><trkpt lat="38.7510183" lon="16.4534933"><ele>499.79999999999995</ele><time>2026-04-07T11:23:01.789Z</time></trkpt><trkpt lat="38.7510833" lon="16.45362"><ele>501.59999999999997</ele><time>2026-04-07T11:23:02.789Z</time></trkpt><trkpt lat="38.7511483" lon="16.45373"><ele>503.40000000000003</ele><time>2026-04-07T11:23:03.789Z</time></trkpt><trkpt lat="38.7511967" lon="16.4538217"><ele>505.20000000000005</ele><time>2026-04-07T11:23:04.79Z</time></trkpt><trkpt lat="38.751215" lon="16.4539233"><ele>507.0</ele><time>2026-04-07T11:23:05.789Z</time></trkpt><trkpt lat="38.751215" lon="16.4540233"><ele>507.25</ele><time>2026-04-07T11:23:06.789Z</time></trkpt><trkpt lat="38.7511733" lon="16.45412"><ele>507.5</ele><time>2026-04-07T11:23:07.789Z</time></trkpt><trkpt lat="38.7511067" lon="16.4542367"><ele>507.75</ele><time>2026-04-07T11:23:08.789Z</time></trkpt><trkpt lat="38.75104" lon="16.4543967"><ele>508.0</ele><time>2026-04-07T11:23:09.789Z</time></trkpt><trkpt lat="38.7509917" lon="16.4545533"><ele>502.0</ele><time>2026-04-07T11:23:10.79Z</time></trkpt><trkpt lat="38.750995" lon="16.4547217"><ele>496.0</ele><time>2026-04-07T11:23:11.789Z</time></trkpt><trkpt lat="38.751" lon="16.4548967"><ele>490.0</ele><time>2026-04-07T11:23:12.79Z</time></trkpt><trkpt lat="38.751015" lon="16.4550867"><ele>484.0</ele><time>2026-04-07T11:23:13.789Z</time></trkpt><trkpt lat="38.75103" lon="16.4552733"><ele>485.0</ele><time>2026-04-07T11:23:14.79Z</time></trkpt><trkpt lat="38.7510467" lon="16.455455"><ele>486.0</ele><time>2026-04-07T11:23:15.79Z</time></trkpt><trkpt lat="38.7510667" lon="16.4556067"><ele>487.0</ele><time>2026-04-07T11:23:16.789Z</time></trkpt><trkpt lat="38.7510983" lon="16.4557517"><ele>488.0</ele><time>2026-04-07T11:23:17.789Z</time></trkpt><trkpt lat="38.751145" lon="16.4558967"><ele>488.0</ele><time>2026-04-07T11:23:18.789Z</time></trkpt><trkpt lat="38.7512467" lon="16.4559917"><ele>488.0</ele><time>2026-04-07T11:23:19.79Z</time></trkpt><trkpt lat="38.75138" lon="16.456065"><ele>488.0</ele><time>2026-04-07T11:23:20.789Z</time></trkpt><trkpt lat="38.7515" lon="16.4561333"><ele>488.0</ele><time>2026-04-07T11:23:21.79Z</time></trkpt><trkpt lat="38.7516067" lon="16.4562033"><ele>484.25</ele><time>2026-04-07T11:23:22.79Z</time></trkpt><trkpt lat="38.7516883" lon="16.4563083"><ele>480.5</ele><time>2026-04-07T11:23:23.789Z</time></trkpt><trkpt lat="38.751765" lon="16.4564333"><ele>476.75</ele><time>2026-04-07T11:23:24.789Z</time></trkpt><trkpt lat="38.7518367" lon="16.4565533"><ele>473.0</ele><time>2026-04-07T11:23:25.789Z</time></trkpt><trkpt lat="38.75192" lon="16.456645"><ele>473.0</ele><time>2026-04-07T11:23:26.789Z</time></trkpt><trkpt lat="38.75201" lon="16.456735"><ele>472.99999999999994</ele><time>2026-04-07T11:23:27.789Z</time></trkpt><trkpt lat="38.7521017" lon="16.4568"><ele>472.99999999999994</ele><time>2026-04-07T11:23:28.789Z</time></trkpt><trkpt lat="38.7522133" lon="16.4568267"><ele>473.0</ele><time>2026-04-07T11:23:29.789Z</time></trkpt><trkpt lat="38.75233" lon="16.4568267"><ele>473.0</ele><time>2026-04-07T11:23:30.79Z</time></trkpt><trkpt lat="38.7524667" lon="16.456815"><ele>473.0</ele><time>2026-04-07T11:23:31.789Z</time></trkpt><trkpt lat="38.7526017" lon="16.4568033"><ele>473.0</ele><time>2026-04-07T11:23:32.79Z</time></trkpt><trkpt lat="38.7527267" lon="16.45681"><ele>473.0</ele><time>2026-04-07T11:23:33.789Z</time></trkpt><trkpt lat="38.7528367" lon="16.4568367"><ele>473.0</ele><time>2026-04-07T11:23:34.789Z</time></trkpt><trkpt lat="38.7529367" lon="16.4568867"><ele>473.25</ele><time>2026-04-07T11:23:35.789Z</time></trkpt><trkpt lat="38.75304" lon="16.4569517"><ele>473.5</ele><time>2026-04-07T11:23:36.789Z</time></trkpt><trkpt lat="38.7531533" lon="16.45705"><ele>473.75</ele><time>2026-04-07T11:23:37.789Z</time></trkpt><trkpt lat="38.75325" lon="16.4571717"><ele>474.0</ele><time>2026-04-07T11:23:38.789Z</time></trkpt><trkpt lat="38.7533433" lon="16.4573017"><ele>472.0</ele><time>2026-04-07T11:23:39.79Z</time></trkpt><trkpt lat="38.7534483" lon="16.4574183"><ele>470.0</ele><time>2026-04-07T11:23:40.789Z</time></trkpt><trkpt lat="38.7535533" lon="16.4575383"><ele>468.0</ele><time>2026-04-07T11:23:41.79Z</time></trkpt><trkpt lat="38.7536483" lon="16.4576567"><ele>466.0</ele><time>2026-04-07T11:23:42.79Z</time></trkpt><trkpt lat="38.7537383" lon="16.457775"><ele>466.0</ele><time>2026-04-07T11:23:43.789Z</time></trkpt><trkpt lat="38.7538183" lon="16.4578933"><ele>466.0</ele><time>2026-04-07T11:23:44.79Z</time></trkpt><trkpt lat="38.7538817" lon="16.4580183"><ele>466.0</ele><time>2026-04-07T11:23:45.789Z</time></trkpt><trkpt lat="38.7539383" lon="16.4581483"><ele>466.0</ele><time>2026-04-07T11:23:46.789Z</time></trkpt><trkpt lat="38.7539867" lon="16.45829"><ele>463.75</ele><time>2026-04-07T11:23:47.789Z</time></trkpt><trkpt lat="38.75401" lon="16.4584533"><ele>461.5</ele><time>2026-04-07T11:23:48.789Z</time></trkpt><trkpt lat="38.7540017" lon="16.4586267"><ele>459.25</ele><time>2026-04-07T11:23:49.789Z</time></trkpt><trkpt lat="38.75397" lon="16.458815"><ele>457.0</ele><time>2026-04-07T11:23:50.789Z</time></trkpt><trkpt lat="38.753925" lon="16.4589983"><ele>453.6666666666667</ele><time>2026-04-07T11:23:51.789Z</time></trkpt><trkpt lat="38.7538783" lon="16.4591967"><ele>450.33333333333337</ele><time>2026-04-07T11:23:52.789Z</time></trkpt><trkpt lat="38.753825" lon="16.4593817"><ele>447.0</ele><time>2026-04-07T11:23:53.789Z</time></trkpt><trkpt lat="38.7537817" lon="16.4595783"><ele>446.0</ele><time>2026-04-07T11:23:54.789Z</time></trkpt><trkpt lat="38.7537317" lon="16.4597783"><ele>445.0</ele><time>2026-04-07T11:23:55.79Z</time></trkpt><trkpt lat="38.75369" lon="16.4599733"><ele>444.0</ele><time>2026-04-07T11:23:56.789Z</time></trkpt><trkpt lat="38.753655" lon="16.4601617"><ele>444.0</ele><time>2026-04-07T11:23:57.79Z</time></trkpt><trkpt lat="38.7536283" lon="16.460345"><ele>444.0</ele><time>2026-04-07T11:23:58.789Z</time></trkpt><trkpt lat="38.75363" lon="16.4605383"><ele>444.0</ele><time>2026-04-07T11:23:59.789Z</time></trkpt><trkpt lat="38.75365" lon="16.4607333"><ele>444.0</ele><time>2026-04-07T11:24:00.789Z</time></trkpt><trkpt lat="38.7536883" lon="16.4609383"><ele>444.0</ele><time>2026-04-07T11:24:01.79Z</time></trkpt><trkpt lat="38.753735" lon="16.4611383"><ele>444.0</ele><time>2026-04-07T11:24:02.789Z</time></trkpt><trkpt lat="38.753775" lon="16.4613233"><ele>442.5</ele><time>2026-04-07T11:24:03.789Z</time></trkpt><trkpt lat="38.7538083" lon="16.4614983"><ele>441.0</ele><time>2026-04-07T11:24:04.79Z</time></trkpt><trkpt lat="38.75385" lon="16.4616433"><ele>439.5</ele><time>2026-04-07T11:24:05.789Z</time></trkpt><trkpt lat="38.7539033" lon="16.4617717"><ele>438.0</ele><time>2026-04-07T11:24:06.79Z</time></trkpt><trkpt lat="38.7539833" lon="16.4618733"><ele>438.0</ele><time>2026-04-07T11:24:07.789Z</time></trkpt><trkpt lat="38.7540933" lon="16.4619483"><ele>438.0</ele><time>2026-04-07T11:24:08.79Z</time></trkpt><trkpt lat="38.7542167" lon="16.4619933"><ele>438.0</ele><time>2026-04-07T11:24:09.79Z</time></trkpt><trkpt lat="38.7543533" lon="16.4620267"><ele>438.0</ele><time>2026-04-07T11:24:10.789Z</time></trkpt><trkpt lat="38.75449" lon="16.4620683"><ele>436.0</ele><time>2026-04-07T11:24:11.789Z</time></trkpt><trkpt lat="38.7546217" lon="16.4621167"><ele>434.0</ele><time>2026-04-07T11:24:12.789Z</time></trkpt><trkpt lat="38.7547433" lon="16.462165"><ele>432.0</ele><time>2026-04-07T11:24:13.789Z</time></trkpt><trkpt lat="38.754855" lon="16.4622083"><ele>430.0</ele><time>2026-04-07T11:24:14.789Z</time></trkpt><trkpt lat="38.7549567" lon="16.4622733"><ele>430.0</ele><time>2026-04-07T11:24:15.789Z</time></trkpt><trkpt lat="38.755055" lon="16.46236"><ele>430.0</ele><time>2026-04-07T11:24:16.789Z</time></trkpt><trkpt lat="38.75515" lon="16.4624633"><ele>430.0</ele><time>2026-04-07T11:24:17.789Z</time></trkpt><trkpt lat="38.7552283" lon="16.4625867"><ele>430.0</ele><time>2026-04-07T11:24:18.789Z</time></trkpt><trkpt lat="38.7553017" lon="16.4627367"><ele>429.5</ele><time>2026-04-07T11:24:19.789Z</time></trkpt><trkpt lat="38.755375" lon="16.4628967"><ele>429.0</ele><time>2026-04-07T11:24:20.789Z</time></trkpt><trkpt lat="38.7554483" lon="16.4630617"><ele>428.5</ele><time>2026-04-07T11:24:21.789Z</time></trkpt><trkpt lat="38.75553" lon="16.4632217"><ele>428.0</ele><time>2026-04-07T11:24:22.789Z</time></trkpt><trkpt lat="38.7556067" lon="16.463385"><ele>427.0</ele><time>2026-04-07T11:24:23.789Z</time></trkpt><trkpt lat="38.7556833" lon="16.4635517"><ele>426.0</ele><time>2026-04-07T11:24:24.789Z</time></trkpt><trkpt lat="38.75577" lon="16.4637217"><ele>425.0</ele><time>2026-04-07T11:24:25.79Z</time></trkpt><trkpt lat="38.7558517" lon="16.4638883"><ele>424.0</ele><time>2026-04-07T11:24:26.789Z</time></trkpt><trkpt lat="38.755935" lon="16.4640583"><ele>423.0</ele><time>2026-04-07T11:24:27.789Z</time></trkpt><trkpt lat="38.756005" lon="16.4642233"><ele>422.0</ele><time>2026-04-07T11:24:28.79Z</time></trkpt><trkpt lat="38.756055" lon="16.4643933"><ele>421.0</ele><time>2026-04-07T11:24:29.789Z</time></trkpt><trkpt lat="38.7560733" lon="16.4645667"><ele>417.0</ele><time>2026-04-07T11:24:30.789Z</time></trkpt><trkpt lat="38.7560833" lon="16.4647517"><ele>413.0</ele><time>2026-04-07T11:24:31.79Z</time></trkpt><trkpt lat="38.756085" lon="16.4649467"><ele>409.0</ele><time>2026-04-07T11:24:32.79Z</time></trkpt><trkpt lat="38.7561133" lon="16.4651267"><ele>405.0</ele><time>2026-04-07T11:24:33.789Z</time></trkpt><trkpt lat="38.75616" lon="16.4653033"><ele>406.66666666666663</ele><time>2026-04-07T11:24:34.79Z</time></trkpt><trkpt lat="38.7562317" lon="16.4654767"><ele>408.3333333333333</ele><time>2026-04-07T11:24:35.789Z</time></trkpt><trkpt lat="38.756325" lon="16.46565"><ele>410.0</ele><time>2026-04-07T11:24:36.789Z</time></trkpt><trkpt lat="38.7564267" lon="16.4658267"><ele>410.0</ele><time>2026-04-07T11:24:37.79Z</time></trkpt><trkpt lat="38.75652" lon="16.4659967"><ele>410.0</ele><time>2026-04-07T11:24:38.79Z</time></trkpt><trkpt lat="38.7566133" lon="16.4661517"><ele>410.0</ele><time>2026-04-07T11:24:39.79Z</time></trkpt><trkpt lat="38.7567" lon="16.4663067"><ele>410.75</ele><time>2026-04-07T11:24:40.789Z</time></trkpt><trkpt lat="38.7567733" lon="16.46645"><ele>411.5</ele><time>2026-04-07T11:24:41.79Z</time></trkpt><trkpt lat="38.756835" lon="16.4665917"><ele>412.25</ele><time>2026-04-07T11:24:42.789Z</time></trkpt><trkpt lat="38.7568867" lon="16.4667217"><ele>413.0</ele><time>2026-04-07T11:24:43.789Z</time></trkpt><trkpt lat="38.756905" lon="16.4668633"><ele>411.75</ele><time>2026-04-07T11:24:44.79Z</time></trkpt><trkpt lat="38.7569067" lon="16.4670233"><ele>410.5</ele><time>2026-04-07T11:24:45.789Z</time></trkpt><trkpt lat="38.7568933" lon="16.4671967"><ele>409.25</ele><time>2026-04-07T11:24:46.79Z</time></trkpt><trkpt lat="38.75687" lon="16.467385"><ele>408.0</ele><time>2026-04-07T11:24:47.789Z</time></trkpt><trkpt lat="38.7568467" lon="16.467585"><ele>408.0</ele><time>2026-04-07T11:24:48.79Z</time></trkpt><trkpt lat="38.75683" lon="16.4677883"><ele>408.0</ele><time>2026-04-07T11:24:49.79Z</time></trkpt><trkpt lat="38.7568133" lon="16.467975"><ele>408.0</ele><time>2026-04-07T11:24:50.789Z</time></trkpt><trkpt lat="38.7567867" lon="16.4681517"><ele>408.0</ele><time>2026-04-07T11:24:51.79Z</time></trkpt><trkpt lat="38.7567583" lon="16.4683117"><ele>407.4</ele><time>2026-04-07T11:24:52.789Z</time></trkpt><trkpt lat="38.7567317" lon="16.4684533"><ele>406.79999999999995</ele><time>2026-04-07T11:24:53.79Z</time></trkpt><trkpt lat="38.7567183" lon="16.46859"><ele>406.2</ele><time>2026-04-07T11:24:54.789Z</time></trkpt><trkpt lat="38.756745" lon="16.4687233"><ele>405.6</ele><time>2026-04-07T11:24:55.789Z</time></trkpt><trkpt lat="38.75681" lon="16.4688417"><ele>405.0</ele><time>2026-04-07T11:24:56.789Z</time></trkpt><trkpt lat="38.7569117" lon="16.4689533"><ele>401.66666666666663</ele><time>2026-04-07T11:24:57.789Z</time></trkpt><trkpt lat="38.75703" lon="16.4690633"><ele>398.3333333333333</ele><time>2026-04-07T11:24:58.789Z</time></trkpt><trkpt lat="38.7571533" lon="16.4691883"><ele>395.0</ele><time>2026-04-07T11:24:59.789Z</time></trkpt><trkpt lat="38.7572783" lon="16.46932"><ele>395.0</ele><time>2026-04-07T11:25:00.789Z</time></trkpt><trkpt lat="38.7574033" lon="16.46944"><ele>395.0</ele><time>2026-04-07T11:25:01.79Z</time></trkpt><trkpt lat="38.75751" lon="16.469555"><ele>395.0</ele><time>2026-04-07T11:25:02.789Z</time></trkpt><trkpt lat="38.7576" lon="16.4696783"><ele>395.0</ele><time>2026-04-07T11:25:03.789Z</time></trkpt><trkpt lat="38.7576667" lon="16.4697983"><ele>392.25</ele><time>2026-04-07T11:25:04.789Z</time></trkpt><trkpt lat="38.7577133" lon="16.4699383"><ele>389.5</ele><time>2026-04-07T11:25:05.79Z</time></trkpt><trkpt lat="38.7577217" lon="16.47009"><ele>386.75</ele><time>2026-04-07T11:25:06.789Z</time></trkpt><trkpt lat="38.7577117" lon="16.470235"><ele>384.0</ele><time>2026-04-07T11:25:07.79Z</time></trkpt><trkpt lat="38.75773" lon="16.47039"><ele>384.5</ele><time>2026-04-07T11:25:08.789Z</time></trkpt><trkpt lat="38.757765" lon="16.4705267"><ele>385.0</ele><time>2026-04-07T11:25:09.789Z</time></trkpt><trkpt lat="38.7578333" lon="16.47066"><ele>385.5</ele><time>2026-04-07T11:25:10.789Z</time></trkpt><trkpt lat="38.757915" lon="16.4707967"><ele>386.0</ele><time>2026-04-07T11:25:11.789Z</time></trkpt><trkpt lat="38.7580033" lon="16.47094"><ele>386.0</ele><time>2026-04-07T11:25:12.789Z</time></trkpt><trkpt lat="38.7581017" lon="16.4710733"><ele>386.0</ele><time>2026-04-07T11:25:13.789Z</time></trkpt><trkpt lat="38.7581967" lon="16.4711967"><ele>386.0</ele><time>2026-04-07T11:25:14.79Z</time></trkpt><trkpt lat="38.7582967" lon="16.471295"><ele>386.0</ele><time>2026-04-07T11:25:15.789Z</time></trkpt><trkpt lat="38.7584067" lon="16.4713517"><ele>387.5</ele><time>2026-04-07T11:25:16.79Z</time></trkpt><trkpt lat="38.75853" lon="16.4713483"><ele>389.0</ele><time>2026-04-07T11:25:17.789Z</time></trkpt><trkpt lat="38.758645" lon="16.4713133"><ele>390.5</ele><time>2026-04-07T11:25:18.789Z</time></trkpt><trkpt lat="38.7587517" lon="16.4713"><ele>392.0</ele><time>2026-04-07T11:25:19.789Z</time></trkpt><trkpt lat="38.7588633" lon="16.471335"><ele>392.0</ele><time>2026-04-07T11:25:20.789Z</time></trkpt><trkpt lat="38.7589667" lon="16.4714067"><ele>392.0</ele><time>2026-04-07T11:25:21.789Z</time></trkpt><trkpt lat="38.7590567" lon="16.471515"><ele>392.0</ele><time>2026-04-07T11:25:22.79Z</time></trkpt><trkpt lat="38.759125" lon="16.47165"><ele>392.0</ele><time>2026-04-07T11:25:23.789Z</time></trkpt><trkpt lat="38.7591883" lon="16.4717883"><ele>392.0</ele><time>2026-04-07T11:25:24.789Z</time></trkpt><trkpt lat="38.7592483" lon="16.4719367"><ele>392.0</ele><time>2026-04-07T11:25:25.79Z</time></trkpt><trkpt lat="38.7593133" lon="16.47209"><ele>392.0</ele><time>2026-04-07T11:25:26.789Z</time></trkpt><trkpt lat="38.759395" lon="16.4722417"><ele>392.0</ele><time>2026-04-07T11:25:27.79Z</time></trkpt><trkpt lat="38.75948" lon="16.4723817"><ele>392.66666666666663</ele><time>2026-04-07T11:25:28.789Z</time></trkpt><trkpt lat="38.759585" lon="16.4725233"><ele>393.33333333333337</ele><time>2026-04-07T11:25:29.789Z</time></trkpt><trkpt lat="38.7596867" lon="16.4726667"><ele>394.0</ele><time>2026-04-07T11:25:30.789Z</time></trkpt><trkpt lat="38.7598" lon="16.4728067"><ele>391.6666666666667</ele><time>2026-04-07T11:25:31.789Z</time></trkpt><trkpt lat="38.7599133" lon="16.4729467"><ele>389.33333333333337</ele><time>2026-04-07T11:25:32.789Z</time></trkpt><trkpt lat="38.7600267" lon="16.4730817"><ele>387.0</ele><time>2026-04-07T11:25:33.789Z</time></trkpt><trkpt lat="38.76013" lon="16.4732183"><ele>387.0</ele><time>2026-04-07T11:25:34.79Z</time></trkpt><trkpt lat="38.7602333" lon="16.47335"><ele>387.0</ele><time>2026-04-07T11:25:35.79Z</time></trkpt><trkpt lat="38.7603417" lon="16.473475"><ele>387.0</ele><time>2026-04-07T11:25:36.79Z</time></trkpt><trkpt lat="38.7604317" lon="16.4736117"><ele>387.0</ele><time>2026-04-07T11:25:37.789Z</time></trkpt><trkpt lat="38.7604967" lon="16.4737717"><ele>385.6666666666667</ele><time>2026-04-07T11:25:38.79Z</time></trkpt><trkpt lat="38.7605367" lon="16.473955"><ele>384.33333333333337</ele><time>2026-04-07T11:25:39.789Z</time></trkpt><trkpt lat="38.760545" lon="16.4741433"><ele>383.0</ele><time>2026-04-07T11:25:40.79Z</time></trkpt><trkpt lat="38.7605383" lon="16.4743433"><ele>383.0</ele><time>2026-04-07T11:25:41.79Z</time></trkpt><trkpt lat="38.760515" lon="16.474545"><ele>383.0</ele><time>2026-04-07T11:25:42.79Z</time></trkpt><trkpt lat="38.7604683" lon="16.4747283"><ele>383.0</ele><time>2026-04-07T11:25:43.789Z</time></trkpt><trkpt lat="38.760385" lon="16.4748917"><ele>382.5</ele><time>2026-04-07T11:25:44.789Z</time></trkpt><trkpt lat="38.7602883" lon="16.4750333"><ele>382.0</ele><time>2026-04-07T11:25:45.789Z</time></trkpt><trkpt lat="38.7602" lon="16.4751883"><ele>381.5</ele><time>2026-04-07T11:25:46.789Z</time></trkpt><trkpt lat="38.7601267" lon="16.475345"><ele>381.0</ele><time>2026-04-07T11:25:47.789Z</time></trkpt><trkpt lat="38.7600717" lon="16.47551"><ele>378.75</ele><time>2026-04-07T11:25:48.789Z</time></trkpt><trkpt lat="38.7600233" lon="16.4756783"><ele>376.5</ele><time>2026-04-07T11:25:49.79Z</time></trkpt><trkpt lat="38.7599967" lon="16.475845"><ele>374.25</ele><time>2026-04-07T11:25:50.789Z</time></trkpt><trkpt lat="38.7599783" lon="16.4760133"><ele>372.0</ele><time>2026-04-07T11:25:51.789Z</time></trkpt><trkpt lat="38.75997" lon="16.476175"><ele>371.8</ele><time>2026-04-07T11:25:52.79Z</time></trkpt><trkpt lat="38.7599833" lon="16.4763283"><ele>371.6</ele><time>2026-04-07T11:25:53.789Z</time></trkpt><trkpt lat="38.760015" lon="16.4764633"><ele>371.40000000000003</ele><time>2026-04-07T11:25:54.789Z</time></trkpt><trkpt lat="38.76008" lon="16.4765683"><ele>371.20000000000005</ele><time>2026-04-07T11:25:55.79Z</time></trkpt><trkpt lat="38.7601717" lon="16.4766467"><ele>371.0</ele><time>2026-04-07T11:25:56.789Z</time></trkpt><trkpt lat="38.7602783" lon="16.4767117"><ele>371.0</ele><time>2026-04-07T11:25:57.79Z</time></trkpt><trkpt lat="38.760395" lon="16.4767667"><ele>371.0</ele><time>2026-04-07T11:25:58.789Z</time></trkpt><trkpt lat="38.76051" lon="16.476815"><ele>371.0</ele><time>2026-04-07T11:25:59.789Z</time></trkpt><trkpt lat="38.7606267" lon="16.476835"><ele>371.0</ele><time>2026-04-07T11:26:00.789Z</time></trkpt><trkpt lat="38.7607317" lon="16.4768283"><ele>371.0</ele><time>2026-04-07T11:26:01.789Z</time></trkpt><trkpt lat="38.7608333" lon="16.4767733"><ele>371.0</ele><time>2026-04-07T11:26:02.789Z</time></trkpt><trkpt lat="38.760925" lon="16.47668"><ele>371.0</ele><time>2026-04-07T11:26:03.789Z</time></trkpt><trkpt lat="38.7610117" lon="16.4765667"><ele>371.0</ele><time>2026-04-07T11:26:04.79Z</time></trkpt><trkpt lat="38.7610983" lon="16.4764533"><ele>369.25</ele><time>2026-04-07T11:26:05.79Z</time></trkpt><trkpt lat="38.7611883" lon="16.4763517"><ele>367.5</ele><time>2026-04-07T11:26:06.79Z</time></trkpt><trkpt lat="38.7612717" lon="16.4762383"><ele>365.75</ele><time>2026-04-07T11:26:07.789Z</time></trkpt><trkpt lat="38.7613367" lon="16.4761217"><ele>364.0</ele><time>2026-04-07T11:26:08.79Z</time></trkpt><trkpt lat="38.7613967" lon="16.4760183"><ele>364.0</ele><time>2026-04-07T11:26:09.789Z</time></trkpt><trkpt lat="38.7614717" lon="16.475935"><ele>364.0</ele><time>2026-04-07T11:26:10.789Z</time></trkpt><trkpt lat="38.7615567" lon="16.475905"><ele>364.0</ele><time>2026-04-07T11:26:11.789Z</time></trkpt><trkpt lat="38.761655" lon="16.47592"><ele>364.0</ele><time>2026-04-07T11:26:12.789Z</time></trkpt><trkpt lat="38.7617633" lon="16.4759367"><ele>364.0</ele><time>2026-04-07T11:26:13.789Z</time></trkpt><trkpt lat="38.7618567" lon="16.475925"><ele>358.25</ele><time>2026-04-07T11:26:14.789Z</time></trkpt><trkpt lat="38.761955" lon="16.4758633"><ele>352.5</ele><time>2026-04-07T11:26:15.789Z</time></trkpt><trkpt lat="38.7620383" lon="16.475755"><ele>346.75</ele><time>2026-04-07T11:26:16.789Z</time></trkpt><trkpt lat="38.7620933" lon="16.4756217"><ele>341.0</ele><time>2026-04-07T11:26:17.789Z</time></trkpt><trkpt lat="38.7621367" lon="16.4754617"><ele>340.5</ele><time>2026-04-07T11:26:18.789Z</time></trkpt><trkpt lat="38.7621483" lon="16.4752883"><ele>340.0</ele><time>2026-04-07T11:26:19.79Z</time></trkpt><trkpt lat="38.7621383" lon="16.4751117"><ele>339.5</ele><time>2026-04-07T11:26:20.789Z</time></trkpt><trkpt lat="38.762105" lon="16.474945"><ele>339.0</ele><time>2026-04-07T11:26:21.789Z</time></trkpt><trkpt lat="38.7620433" lon="16.4747817"><ele>339.0</ele><time>2026-04-07T11:26:22.789Z</time></trkpt><trkpt lat="38.7619717" lon="16.4746183"><ele>339.0</ele><time>2026-04-07T11:26:23.789Z</time></trkpt><trkpt lat="38.761895" lon="16.47447"><ele>339.0</ele><time>2026-04-07T11:26:24.79Z</time></trkpt><trkpt lat="38.761815" lon="16.4743433"><ele>339.0</ele><time>2026-04-07T11:26:25.789Z</time></trkpt><trkpt lat="38.7617367" lon="16.4742183"><ele>343.0</ele><time>2026-04-07T11:26:26.789Z</time></trkpt><trkpt lat="38.7616817" lon="16.4740933"><ele>347.0</ele><time>2026-04-07T11:26:27.789Z</time></trkpt><trkpt lat="38.7616533" lon="16.4739617"><ele>351.0</ele><time>2026-04-07T11:26:28.79Z</time></trkpt><trkpt lat="38.7616367" lon="16.4738083"><ele>355.0</ele><time>2026-04-07T11:26:29.79Z</time></trkpt><trkpt lat="38.7616567" lon="16.4736267"><ele>355.0</ele><time>2026-04-07T11:26:30.789Z</time></trkpt><trkpt lat="38.7616917" lon="16.4734433"><ele>355.0</ele><time>2026-04-07T11:26:31.789Z</time></trkpt><trkpt lat="38.7617383" lon="16.47328"><ele>355.0</ele><time>2026-04-07T11:26:32.789Z</time></trkpt><trkpt lat="38.76181" lon="16.4731383"><ele>355.0</ele><time>2026-04-07T11:26:33.789Z</time></trkpt><trkpt lat="38.7619067" lon="16.4730117"><ele>346.0</ele><time>2026-04-07T11:26:34.79Z</time></trkpt><trkpt lat="38.7620017" lon="16.4729"><ele>337.0</ele><time>2026-04-07T11:26:35.789Z</time></trkpt><trkpt lat="38.7620817" lon="16.4727683"><ele>328.0</ele><time>2026-04-07T11:26:36.789Z</time></trkpt><trkpt lat="38.7621467" lon="16.47262"><ele>319.0</ele><time>2026-04-07T11:26:37.789Z</time></trkpt><trkpt lat="38.76218" lon="16.4724617"><ele>319.0</ele><time>2026-04-07T11:26:38.789Z</time></trkpt><trkpt lat="38.7621583" lon="16.47231"><ele>319.0</ele><time>2026-04-07T11:26:39.79Z</time></trkpt><trkpt lat="38.7621033" lon="16.472175"><ele>319.0</ele><time>2026-04-07T11:26:40.789Z</time></trkpt><trkpt lat="38.7619967" lon="16.4720533"><ele>319.0</ele><time>2026-04-07T11:26:41.789Z</time></trkpt><trkpt lat="38.7618767" lon="16.4719733"><ele>323.2</ele><time>2026-04-07T11:26:42.789Z</time></trkpt><trkpt lat="38.7617617" lon="16.4719233"><ele>327.4</ele><time>2026-04-07T11:26:43.789Z</time></trkpt><trkpt lat="38.7616667" lon="16.4718633"><ele>331.6</ele><time>2026-04-07T11:26:44.789Z</time></trkpt><trkpt lat="38.761595" lon="16.4717683"><ele>335.8</ele><time>2026-04-07T11:26:45.789Z</time></trkpt><trkpt lat="38.761555" lon="16.4716317"><ele>340.0</ele><time>2026-04-07T11:26:46.789Z</time></trkpt><trkpt lat="38.7615217" lon="16.4714783"><ele>340.0</ele><time>2026-04-07T11:26:47.79Z</time></trkpt><trkpt lat="38.761505" lon="16.471305"><ele>340.0</ele><time>2026-04-07T11:26:48.789Z</time></trkpt><trkpt lat="38.7615133" lon="16.471125"><ele>340.0</ele><time>2026-04-07T11:26:49.789Z</time></trkpt><trkpt lat="38.7615433" lon="16.470955"><ele>340.0</ele><time>2026-04-07T11:26:50.79Z</time></trkpt><trkpt lat="38.76158" lon="16.470795"><ele>337.75</ele><time>2026-04-07T11:26:51.79Z</time></trkpt><trkpt lat="38.7616217" lon="16.4706383"><ele>335.5</ele><time>2026-04-07T11:26:52.789Z</time></trkpt><trkpt lat="38.7616283" lon="16.4704767"><ele>333.25</ele><time>2026-04-07T11:26:53.79Z</time></trkpt><trkpt lat="38.7615917" lon="16.470315"><ele>331.0</ele><time>2026-04-07T11:26:54.789Z</time></trkpt><trkpt lat="38.7615317" lon="16.4701583"><ele>328.75</ele><time>2026-04-07T11:26:55.789Z</time></trkpt><trkpt lat="38.7614633" lon="16.47001"><ele>326.5</ele><time>2026-04-07T11:26:56.789Z</time></trkpt><trkpt lat="38.7613633" lon="16.46989"><ele>324.25</ele><time>2026-04-07T11:26:57.789Z</time></trkpt><trkpt lat="38.7612467" lon="16.469795"><ele>322.0</ele><time>2026-04-07T11:26:58.789Z</time></trkpt><trkpt lat="38.761115" lon="16.4697183"><ele>321.75</ele><time>2026-04-07T11:26:59.789Z</time></trkpt><trkpt lat="38.760985" lon="16.46963"><ele>321.5</ele><time>2026-04-07T11:27:00.79Z</time></trkpt><trkpt lat="38.7608667" lon="16.469535"><ele>321.25</ele><time>2026-04-07T11:27:01.79Z</time></trkpt><trkpt lat="38.76074" lon="16.4694317"><ele>321.0</ele><time>2026-04-07T11:27:02.789Z</time></trkpt><trkpt lat="38.7606067" lon="16.4693567"><ele>321.0</ele><time>2026-04-07T11:27:03.789Z</time></trkpt><trkpt lat="38.7604733" lon="16.4693133"><ele>321.0</ele><time>2026-04-07T11:27:04.789Z</time></trkpt><trkpt lat="38.7603617" lon="16.4692667"><ele>321.0</ele><time>2026-04-07T11:27:05.789Z</time></trkpt><trkpt lat="38.7602683" lon="16.4691833"><ele>321.0</ele><time>2026-04-07T11:27:06.789Z</time></trkpt><trkpt lat="38.7601983" lon="16.469065"><ele>321.25</ele><time>2026-04-07T11:27:07.789Z</time></trkpt><trkpt lat="38.76017" lon="16.4689283"><ele>321.5</ele><time>2026-04-07T11:27:08.789Z</time></trkpt><trkpt lat="38.7601783" lon="16.46877"><ele>321.75</ele><time>2026-04-07T11:27:09.789Z</time></trkpt><trkpt lat="38.7602333" lon="16.468625"><ele>322.0</ele><time>2026-04-07T11:27:10.79Z</time></trkpt><trkpt lat="38.7603183" lon="16.46851"><ele>323.5</ele><time>2026-04-07T11:27:11.789Z</time></trkpt><trkpt lat="38.7604233" lon="16.46843"><ele>325.0</ele><time>2026-04-07T11:27:12.79Z</time></trkpt><trkpt lat="38.7605517" lon="16.4684"><ele>326.5</ele><time>2026-04-07T11:27:13.79Z</time></trkpt><trkpt lat="38.7606933" lon="16.4684333"><ele>328.0</ele><time>2026-04-07T11:27:14.789Z</time></trkpt><trkpt lat="38.7608283" lon="16.46851"><ele>328.0</ele><time>2026-04-07T11:27:15.789Z</time></trkpt><trkpt lat="38.7609567" lon="16.468615"><ele>328.0</ele><time>2026-04-07T11:27:16.789Z</time></trkpt><trkpt lat="38.7610917" lon="16.4687117"><ele>328.0</ele><time>2026-04-07T11:27:17.79Z</time></trkpt><trkpt lat="38.7612433" lon="16.468785"><ele>324.3333333333333</ele><time>2026-04-07T11:27:18.789Z</time></trkpt><trkpt lat="38.761405" lon="16.4688317"><ele>320.6666666666667</ele><time>2026-04-07T11:27:19.789Z</time></trkpt><trkpt lat="38.76156" lon="16.4688617"><ele>317.0</ele><time>2026-04-07T11:27:20.79Z</time></trkpt><trkpt lat="38.7616967" lon="16.468895"><ele>317.0</ele><time>2026-04-07T11:27:21.789Z</time></trkpt><trkpt lat="38.7618233" lon="16.4689467"><ele>317.0</ele><time>2026-04-07T11:27:22.789Z</time></trkpt><trkpt lat="38.76194" lon="16.4690383"><ele>317.0</ele><time>2026-04-07T11:27:23.789Z</time></trkpt><trkpt lat="38.76204" lon="16.4691683"><ele>317.0</ele><time>2026-04-07T11:27:24.79Z</time></trkpt><trkpt lat="38.7621067" lon="16.4693267"><ele>316.5</ele><time>2026-04-07T11:27:25.79Z</time></trkpt><trkpt lat="38.7621583" lon="16.4695"><ele>316.0</ele><time>2026-04-07T11:27:26.79Z</time></trkpt><trkpt lat="38.7622267" lon="16.4696683"><ele>315.5</ele><time>2026-04-07T11:27:27.789Z</time></trkpt><trkpt lat="38.7623133" lon="16.4698333"><ele>315.0</ele><time>2026-04-07T11:27:28.789Z</time></trkpt><trkpt lat="38.762415" lon="16.4699933"><ele>315.0</ele><time>2026-04-07T11:27:29.789Z</time></trkpt><trkpt lat="38.76252" lon="16.4701533"><ele>315.0</ele><time>2026-04-07T11:27:30.789Z</time></trkpt><trkpt lat="38.7626433" lon="16.4703033"><ele>315.0</ele><time>2026-04-07T11:27:31.789Z</time></trkpt><trkpt lat="38.76278" lon="16.4704267"><ele>315.6666666666667</ele><time>2026-04-07T11:27:32.79Z</time></trkpt><trkpt lat="38.76292" lon="16.470545"><ele>316.33333333333337</ele><time>2026-04-07T11:27:33.79Z</time></trkpt><trkpt lat="38.76306" lon="16.4706567"><ele>317.0</ele><time>2026-04-07T11:27:34.789Z</time></trkpt><trkpt lat="38.76318" lon="16.470795"><ele>317.0</ele><time>2026-04-07T11:27:35.79Z</time></trkpt><trkpt lat="38.7632883" lon="16.4709367"><ele>317.0</ele><time>2026-04-07T11:27:36.789Z</time></trkpt><trkpt lat="38.763365" lon="16.4710983"><ele>317.0</ele><time>2026-04-07T11:27:37.789Z</time></trkpt><trkpt lat="38.7634" lon="16.4712817"><ele>317.0</ele><time>2026-04-07T11:27:38.79Z</time></trkpt><trkpt lat="38.7634133" lon="16.471485"><ele>321.0</ele><time>2026-04-07T11:27:39.789Z</time></trkpt><trkpt lat="38.7634483" lon="16.4716817"><ele>325.0</ele><time>2026-04-07T11:27:40.79Z</time></trkpt><trkpt lat="38.76352" lon="16.47187"><ele>329.0</ele><time>2026-04-07T11:27:41.789Z</time></trkpt><trkpt lat="38.7636133" lon="16.4720483"><ele>323.6666666666667</ele><time>2026-04-07T11:27:42.789Z</time></trkpt><trkpt lat="38.7637283" lon="16.4722217"><ele>318.3333333333333</ele><time>2026-04-07T11:27:43.789Z</time></trkpt><trkpt lat="38.7638417" lon="16.472395"><ele>313.0</ele><time>2026-04-07T11:27:44.79Z</time></trkpt><trkpt lat="38.7639283" lon="16.47258"><ele>313.0</ele><time>2026-04-07T11:27:45.79Z</time></trkpt><trkpt lat="38.7639983" lon="16.47279"><ele>313.0</ele><time>2026-04-07T11:27:46.789Z</time></trkpt><trkpt lat="38.7640567" lon="16.4730117"><ele>313.0</ele><time>2026-04-07T11:27:47.789Z</time></trkpt><trkpt lat="38.7641083" lon="16.47324"><ele>308.66666666666663</ele><time>2026-04-07T11:27:48.789Z</time></trkpt><trkpt lat="38.76415" lon="16.4734683"><ele>304.3333333333333</ele><time>2026-04-07T11:27:49.789Z</time></trkpt><trkpt lat="38.7642" lon="16.4736883"><ele>300.0</ele><time>2026-04-07T11:27:50.789Z</time></trkpt><trkpt lat="38.7642733" lon="16.473905"><ele>301.6666666666667</ele><time>2026-04-07T11:27:51.789Z</time></trkpt><trkpt lat="38.7643817" lon="16.4741217"><ele>303.33333333333337</ele><time>2026-04-07T11:27:52.789Z</time></trkpt><trkpt lat="38.7644967" lon="16.4743483"><ele>305.0</ele><time>2026-04-07T11:27:53.789Z</time></trkpt><trkpt lat="38.764615" lon="16.4746017"><ele>296.0</ele><time>2026-04-07T11:27:54.79Z</time></trkpt><trkpt lat="38.7647267" lon="16.474865"><ele>287.0</ele><time>2026-04-07T11:27:55.79Z</time></trkpt><trkpt lat="38.7648533" lon="16.475145"><ele>287.0</ele><time>2026-04-07T11:27:56.79Z</time></trkpt><trkpt lat="38.76499" lon="16.4754283"><ele>287.0</ele><time>2026-04-07T11:27:57.789Z</time></trkpt><trkpt lat="38.7651233" lon="16.47571"><ele>283.5</ele><time>2026-04-07T11:27:58.789Z</time></trkpt><trkpt lat="38.7652583" lon="16.4760017"><ele>280.0</ele><time>2026-04-07T11:27:59.789Z</time></trkpt><trkpt lat="38.765395" lon="16.4762933"><ele>278.0</ele><time>2026-04-07T11:28:00.789Z</time></trkpt><trkpt lat="38.765525" lon="16.47659"><ele>276.0</ele><time>2026-04-07T11:28:01.789Z</time></trkpt><trkpt lat="38.7656533" lon="16.4768833"><ele>274.5</ele><time>2026-04-07T11:28:02.79Z</time></trkpt><trkpt lat="38.7657767" lon="16.477175"><ele>273.0</ele><time>2026-04-07T11:28:03.79Z</time></trkpt><trkpt lat="38.765905" lon="16.4774533"><ele>273.5</ele><time>2026-04-07T11:28:04.789Z</time></trkpt><trkpt lat="38.76603" lon="16.4777317"><ele>274.0</ele><time>2026-04-07T11:28:05.789Z</time></trkpt><trkpt lat="38.76616" lon="16.478005"><ele>274.0</ele><time>2026-04-07T11:28:06.789Z</time></trkpt><trkpt lat="38.7662833" lon="16.47827"><ele>274.0</ele><time>2026-04-07T11:28:07.79Z</time></trkpt><trkpt lat="38.766395" lon="16.4785183"><ele>274.0</ele><time>2026-04-07T11:28:08.789Z</time></trkpt><trkpt lat="38.7664933" lon="16.47875"><ele>274.0</ele><time>2026-04-07T11:28:09.789Z</time></trkpt><trkpt lat="38.7665917" lon="16.4789567"><ele>274.0</ele><time>2026-04-07T11:28:10.79Z</time></trkpt><trkpt lat="38.7666783" lon="16.4791483"><ele>272.66666666666663</ele><time>2026-04-07T11:28:11.789Z</time></trkpt><trkpt lat="38.7667483" lon="16.4793283"><ele>271.3333333333333</ele><time>2026-04-07T11:28:12.79Z</time></trkpt><trkpt lat="38.7668" lon="16.479505"><ele>270.0</ele><time>2026-04-07T11:28:13.79Z</time></trkpt><trkpt lat="38.7668333" lon="16.4797067"><ele>274.3333333333333</ele><time>2026-04-07T11:28:14.789Z</time></trkpt><trkpt lat="38.766885" lon="16.4799217"><ele>278.66666666666663</ele><time>2026-04-07T11:28:15.789Z</time></trkpt><trkpt lat="38.7669483" lon="16.480145"><ele>283.0</ele><time>2026-04-07T11:28:16.79Z</time></trkpt><trkpt lat="38.7670167" lon="16.4803717"><ele>279.0</ele><time>2026-04-07T11:28:17.789Z</time></trkpt><trkpt lat="38.76709" lon="16.480575"><ele>275.0</ele><time>2026-04-07T11:28:18.789Z</time></trkpt><trkpt lat="38.7671767" lon="16.4807517"><ele>271.0</ele><time>2026-04-07T11:28:19.789Z</time></trkpt><trkpt lat="38.7672883" lon="16.4809033"><ele>271.0</ele><time>2026-04-07T11:28:20.789Z</time></trkpt><trkpt lat="38.7674267" lon="16.4810133"><ele>271.0</ele><time>2026-04-07T11:28:21.789Z</time></trkpt><trkpt lat="38.7675883" lon="16.48109"><ele>271.0</ele><time>2026-04-07T11:28:22.789Z</time></trkpt><trkpt lat="38.76777" lon="16.48112"><ele>271.0</ele><time>2026-04-07T11:28:23.789Z</time></trkpt><trkpt lat="38.767975" lon="16.4811283"><ele>271.0</ele><time>2026-04-07T11:28:24.789Z</time></trkpt><trkpt lat="38.7682033" lon="16.48112"><ele>271.0</ele><time>2026-04-07T11:28:25.789Z</time></trkpt><trkpt lat="38.76845" lon="16.4811083"><ele>266.0</ele><time>2026-04-07T11:28:26.789Z</time></trkpt><trkpt lat="38.7687033" lon="16.4811"><ele>261.0</ele><time>2026-04-07T11:28:27.789Z</time></trkpt><trkpt lat="38.76897" lon="16.481095"><ele>261.0</ele><time>2026-04-07T11:28:28.79Z</time></trkpt><trkpt lat="38.7692467" lon="16.4810967"><ele>261.0</ele><time>2026-04-07T11:28:29.789Z</time></trkpt><trkpt lat="38.7695283" lon="16.4811083"><ele>260.5</ele><time>2026-04-07T11:28:30.789Z</time></trkpt><trkpt lat="38.769805" lon="16.4811033"><ele>260.0</ele><time>2026-04-07T11:28:31.789Z</time></trkpt><trkpt lat="38.7700617" lon="16.4811033"><ele>258.5</ele><time>2026-04-07T11:28:32.79Z</time></trkpt><trkpt lat="38.7703067" lon="16.4811033"><ele>257.0</ele><time>2026-04-07T11:28:33.789Z</time></trkpt><trkpt lat="38.77054" lon="16.4811067"><ele>257.0</ele><time>2026-04-07T11:28:34.789Z</time></trkpt><trkpt lat="38.770755" lon="16.48112"><ele>257.0</ele><time>2026-04-07T11:28:35.789Z</time></trkpt><trkpt lat="38.77095" lon="16.481145"><ele>257.0</ele><time>2026-04-07T11:28:36.789Z</time></trkpt><trkpt lat="38.771115" lon="16.4812233"><ele>257.0</ele><time>2026-04-07T11:28:37.789Z</time></trkpt><trkpt lat="38.7712667" lon="16.481355"><ele>257.0</ele><time>2026-04-07T11:28:38.789Z</time></trkpt><trkpt lat="38.771395" lon="16.4815317"><ele>257.0</ele><time>2026-04-07T11:28:39.789Z</time></trkpt><trkpt lat="38.7715083" lon="16.48174"><ele>257.0</ele><time>2026-04-07T11:28:40.789Z</time></trkpt><trkpt lat="38.77162" lon="16.4819667"><ele>257.0</ele><time>2026-04-07T11:28:41.789Z</time></trkpt><trkpt lat="38.7717167" lon="16.48221"><ele>257.0</ele><time>2026-04-07T11:28:42.789Z</time></trkpt><trkpt lat="38.771815" lon="16.4824567"><ele>257.0</ele><time>2026-04-07T11:28:43.789Z</time></trkpt><trkpt lat="38.7719117" lon="16.4827117"><ele>257.0</ele><time>2026-04-07T11:28:44.789Z</time></trkpt><trkpt lat="38.7720133" lon="16.4829683"><ele>257.0</ele><time>2026-04-07T11:28:45.79Z</time></trkpt><trkpt lat="38.77212" lon="16.4832217"><ele>256.6666666666667</ele><time>2026-04-07T11:28:46.789Z</time></trkpt><trkpt lat="38.7722233" lon="16.4834667"><ele>256.3333333333333</ele><time>2026-04-07T11:28:47.789Z</time></trkpt><trkpt lat="38.7723283" lon="16.4837017"><ele>256.0</ele><time>2026-04-07T11:28:48.79Z</time></trkpt><trkpt lat="38.7724317" lon="16.4839517"><ele>256.0</ele><time>2026-04-07T11:28:49.789Z</time></trkpt><trkpt lat="38.7725317" lon="16.484205"><ele>256.0</ele><time>2026-04-07T11:28:50.789Z</time></trkpt><trkpt lat="38.772635" lon="16.484465"><ele>256.0</ele><time>2026-04-07T11:28:51.789Z</time></trkpt><trkpt lat="38.7727383" lon="16.48472"><ele>258.0</ele><time>2026-04-07T11:28:52.789Z</time></trkpt><trkpt lat="38.7728467" lon="16.484975"><ele>260.0</ele><time>2026-04-07T11:28:53.789Z</time></trkpt><trkpt lat="38.772955" lon="16.4852267"><ele>260.0</ele><time>2026-04-07T11:28:54.79Z</time></trkpt><trkpt lat="38.7730533" lon="16.4854783"><ele>260.0</ele><time>2026-04-07T11:28:55.789Z</time></trkpt><trkpt lat="38.773155" lon="16.4857267"><ele>260.0</ele><time>2026-04-07T11:28:56.79Z</time></trkpt><trkpt lat="38.7732567" lon="16.48597"><ele>260.0</ele><time>2026-04-07T11:28:57.79Z</time></trkpt><trkpt lat="38.7733533" lon="16.48621"><ele>260.0</ele><time>2026-04-07T11:28:58.789Z</time></trkpt><trkpt lat="38.7734517" lon="16.4864433"><ele>260.0</ele><time>2026-04-07T11:28:59.789Z</time></trkpt><trkpt lat="38.773545" lon="16.48667"><ele>261.0</ele><time>2026-04-07T11:29:00.789Z</time></trkpt><trkpt lat="38.7736317" lon="16.4868767"><ele>262.0</ele><time>2026-04-07T11:29:01.79Z</time></trkpt><trkpt lat="38.7737083" lon="16.4870717"><ele>263.0</ele><time>2026-04-07T11:29:02.789Z</time></trkpt><trkpt lat="38.773785" lon="16.4872483"><ele>263.0</ele><time>2026-04-07T11:29:03.789Z</time></trkpt><trkpt lat="38.7738517" lon="16.48741"><ele>263.0</ele><time>2026-04-07T11:29:04.789Z</time></trkpt><trkpt lat="38.77391" lon="16.4875567"><ele>263.0</ele><time>2026-04-07T11:29:05.789Z</time></trkpt><trkpt lat="38.7739583" lon="16.487675"><ele>263.0</ele><time>2026-04-07T11:29:06.789Z</time></trkpt><trkpt lat="38.7739983" lon="16.4877683"><ele>263.0</ele><time>2026-04-07T11:29:07.789Z</time></trkpt><trkpt lat="38.7740383" lon="16.487835"><ele>263.0</ele><time>2026-04-07T11:29:08.789Z</time></trkpt><trkpt lat="38.7741117" lon="16.48789"><ele>263.0</ele><time>2026-04-07T11:29:10.789Z</time></trkpt><trkpt lat="38.7741733" lon="16.4878317"><ele>263.0</ele><time>2026-04-07T11:29:14.789Z</time></trkpt><trkpt lat="38.7741833" lon="16.48771"><ele>263.0</ele><time>2026-04-07T11:29:16.789Z</time></trkpt><trkpt lat="38.774185" lon="16.4876183"><ele>263.0</ele><time>2026-04-07T11:29:17.789Z</time></trkpt><trkpt lat="38.7741817" lon="16.4875033"><ele>263.0</ele><time>2026-04-07T11:29:18.79Z</time></trkpt><trkpt lat="38.7741733" lon="16.4873667"><ele>263.0</ele><time>2026-04-07T11:29:19.789Z</time></trkpt><trkpt lat="38.774175" lon="16.4872133"><ele>263.0</ele><time>2026-04-07T11:29:20.79Z</time></trkpt><trkpt lat="38.7741733" lon="16.4870533"><ele>263.0</ele><time>2026-04-07T11:29:21.789Z</time></trkpt><trkpt lat="38.7741683" lon="16.48688"><ele>263.5</ele><time>2026-04-07T11:29:22.789Z</time></trkpt><trkpt lat="38.7741633" lon="16.486705"><ele>264.0</ele><time>2026-04-07T11:29:23.79Z</time></trkpt><trkpt lat="38.7741633" lon="16.48652"><ele>264.5</ele><time>2026-04-07T11:29:24.789Z</time></trkpt><trkpt lat="38.7741667" lon="16.486335"><ele>265.0</ele><time>2026-04-07T11:29:25.789Z</time></trkpt><trkpt lat="38.7741667" lon="16.4861417"><ele>265.0</ele><time>2026-04-07T11:29:26.789Z</time></trkpt><trkpt lat="38.7741667" lon="16.48595"><ele>265.0</ele><time>2026-04-07T11:29:27.789Z</time></trkpt><trkpt lat="38.7741667" lon="16.4857517"><ele>265.0</ele><time>2026-04-07T11:29:28.79Z</time></trkpt><trkpt lat="38.7741667" lon="16.4855533"><ele>264.66666666666663</ele><time>2026-04-07T11:29:29.79Z</time></trkpt><trkpt lat="38.7741717" lon="16.485355"><ele>264.3333333333333</ele><time>2026-04-07T11:29:30.79Z</time></trkpt><trkpt lat="38.7741817" lon="16.4851683"><ele>264.0</ele><time>2026-04-07T11:29:31.789Z</time></trkpt><trkpt lat="38.7741967" lon="16.4849733"><ele>264.0</ele><time>2026-04-07T11:29:32.789Z</time></trkpt><trkpt lat="38.7742133" lon="16.48477"><ele>264.0</ele><time>2026-04-07T11:29:33.79Z</time></trkpt><trkpt lat="38.7742367" lon="16.4845667"><ele>264.0</ele><time>2026-04-07T11:29:34.789Z</time></trkpt><trkpt lat="38.7742667" lon="16.48437"><ele>264.0</ele><time>2026-04-07T11:29:35.789Z</time></trkpt><trkpt lat="38.7742883" lon="16.4841867"><ele>264.0</ele><time>2026-04-07T11:29:36.79Z</time></trkpt><trkpt lat="38.7743133" lon="16.48401"><ele>264.0</ele><time>2026-04-07T11:29:37.789Z</time></trkpt><trkpt lat="38.774345" lon="16.4838317"><ele>264.0</ele><time>2026-04-07T11:29:38.79Z</time></trkpt><trkpt lat="38.7743817" lon="16.4836567"><ele>264.0</ele><time>2026-04-07T11:29:39.789Z</time></trkpt><trkpt lat="38.7744167" lon="16.48349"><ele>264.0</ele><time>2026-04-07T11:29:40.789Z</time></trkpt><trkpt lat="38.77445" lon="16.4833317"><ele>264.0</ele><time>2026-04-07T11:29:41.789Z</time></trkpt><trkpt lat="38.7744833" lon="16.4831833"><ele>264.0</ele><time>2026-04-07T11:29:42.789Z</time></trkpt><trkpt lat="38.7745167" lon="16.483035"><ele>264.0</ele><time>2026-04-07T11:29:43.789Z</time></trkpt><trkpt lat="38.7745433" lon="16.4828867"><ele>264.0</ele><time>2026-04-07T11:29:44.79Z</time></trkpt><trkpt lat="38.7745783" lon="16.4827383"><ele>264.0</ele><time>2026-04-07T11:29:45.79Z</time></trkpt><trkpt lat="38.77461" lon="16.48259"><ele>264.0</ele><time>2026-04-07T11:29:46.789Z</time></trkpt><trkpt lat="38.7746483" lon="16.482435"><ele>264.0</ele><time>2026-04-07T11:29:47.789Z</time></trkpt><trkpt lat="38.7746883" lon="16.4822733"><ele>264.0</ele><time>2026-04-07T11:29:48.789Z</time></trkpt><trkpt lat="38.77473" lon="16.48211"><ele>264.0</ele><time>2026-04-07T11:29:49.789Z</time></trkpt><trkpt lat="38.77477" lon="16.4819367"><ele>264.0</ele><time>2026-04-07T11:29:50.79Z</time></trkpt><trkpt lat="38.77481" lon="16.4817583"><ele>263.3333333333333</ele><time>2026-04-07T11:29:51.789Z</time></trkpt><trkpt lat="38.7748617" lon="16.4815733"><ele>262.66666666666663</ele><time>2026-04-07T11:29:52.789Z</time></trkpt><trkpt lat="38.7749133" lon="16.48138"><ele>262.0</ele><time>2026-04-07T11:29:53.789Z</time></trkpt><trkpt lat="38.7749583" lon="16.481185"><ele>262.0</ele><time>2026-04-07T11:29:54.789Z</time></trkpt><trkpt lat="38.775055" lon="16.4808"><ele>262.0</ele><time>2026-04-07T11:29:56.789Z</time></trkpt><trkpt lat="38.7751" lon="16.480615"><ele>262.66666666666663</ele><time>2026-04-07T11:29:57.79Z</time></trkpt><trkpt lat="38.7751483" lon="16.4804233"><ele>263.3333333333333</ele><time>2026-04-07T11:29:58.789Z</time></trkpt><trkpt lat="38.775205" lon="16.4802333"><ele>264.0</ele><time>2026-04-07T11:29:59.79Z</time></trkpt><trkpt lat="38.7752517" lon="16.4800517"><ele>264.25</ele><time>2026-04-07T11:30:00.789Z</time></trkpt><trkpt lat="38.775305" lon="16.4798817"><ele>264.5</ele><time>2026-04-07T11:30:01.79Z</time></trkpt><trkpt lat="38.775355" lon="16.4797217"><ele>264.75</ele><time>2026-04-07T11:30:02.789Z</time></trkpt><trkpt lat="38.7754033" lon="16.4795783"><ele>265.0</ele><time>2026-04-07T11:30:03.789Z</time></trkpt><trkpt lat="38.7754417" lon="16.4794533"><ele>265.0</ele><time>2026-04-07T11:30:04.789Z</time></trkpt><trkpt lat="38.775485" lon="16.479345"><ele>265.0</ele><time>2026-04-07T11:30:05.789Z</time></trkpt><trkpt lat="38.77553" lon="16.4792633"><ele>265.0</ele><time>2026-04-07T11:30:06.789Z</time></trkpt><trkpt lat="38.775595" lon="16.4792133"><ele>265.0</ele><time>2026-04-07T11:30:07.789Z</time></trkpt><trkpt lat="38.7756667" lon="16.4791983"><ele>265.0</ele><time>2026-04-07T11:30:08.789Z</time></trkpt><trkpt lat="38.77575" lon="16.479205"><ele>265.0</ele><time>2026-04-07T11:30:09.789Z</time></trkpt><trkpt lat="38.7758433" lon="16.47921"><ele>265.0</ele><time>2026-04-07T11:30:10.79Z</time></trkpt><trkpt lat="38.7759483" lon="16.4792133"><ele>265.0</ele><time>2026-04-07T11:30:11.79Z</time></trkpt><trkpt lat="38.776065" lon="16.4791983"><ele>265.0</ele><time>2026-04-07T11:30:12.789Z</time></trkpt><trkpt lat="38.7761917" lon="16.4791633"><ele>265.0</ele><time>2026-04-07T11:30:13.789Z</time></trkpt><trkpt lat="38.7763183" lon="16.4791217"><ele>264.0</ele><time>2026-04-07T11:30:14.789Z</time></trkpt><trkpt lat="38.7764333" lon="16.4790917"><ele>263.0</ele><time>2026-04-07T11:30:15.789Z</time></trkpt><trkpt lat="38.7765417" lon="16.4790717"><ele>262.0</ele><time>2026-04-07T11:30:16.79Z</time></trkpt><trkpt lat="38.7766467" lon="16.4790667"><ele>261.0</ele><time>2026-04-07T11:30:17.789Z</time></trkpt><trkpt lat="38.776755" lon="16.4790833"><ele>260.0</ele><time>2026-04-07T11:30:18.789Z</time></trkpt><trkpt lat="38.776865" lon="16.4791233"><ele>258.25</ele><time>2026-04-07T11:30:19.789Z</time></trkpt><trkpt lat="38.7769883" lon="16.4791767"><ele>256.5</ele><time>2026-04-07T11:30:20.789Z</time></trkpt><trkpt lat="38.7771167" lon="16.4792383"><ele>254.75</ele><time>2026-04-07T11:30:21.789Z</time></trkpt><trkpt lat="38.777235" lon="16.479295"><ele>253.0</ele><time>2026-04-07T11:30:22.789Z</time></trkpt><trkpt lat="38.77734" lon="16.4793667"><ele>253.0</ele><time>2026-04-07T11:30:23.79Z</time></trkpt><trkpt lat="38.7774333" lon="16.4794783"><ele>253.0</ele><time>2026-04-07T11:30:24.789Z</time></trkpt><trkpt lat="38.77752" lon="16.47962"><ele>253.0</ele><time>2026-04-07T11:30:25.79Z</time></trkpt><trkpt lat="38.7775933" lon="16.47979"><ele>253.0</ele><time>2026-04-07T11:30:26.789Z</time></trkpt><trkpt lat="38.7776583" lon="16.4799667"><ele>251.66666666666666</ele><time>2026-04-07T11:30:27.789Z</time></trkpt><trkpt lat="38.77773" lon="16.480155"><ele>250.33333333333331</ele><time>2026-04-07T11:30:28.789Z</time></trkpt><trkpt lat="38.77781" lon="16.4803583"><ele>249.0</ele><time>2026-04-07T11:30:29.79Z</time></trkpt><trkpt lat="38.777895" lon="16.4805633"><ele>247.66666666666669</ele><time>2026-04-07T11:30:30.79Z</time></trkpt><trkpt lat="38.7779817" lon="16.4807783"><ele>246.33333333333334</ele><time>2026-04-07T11:30:31.789Z</time></trkpt><trkpt lat="38.7780733" lon="16.48099"><ele>245.0</ele><time>2026-04-07T11:30:32.79Z</time></trkpt><trkpt lat="38.7781583" lon="16.4812083"><ele>242.66666666666669</ele><time>2026-04-07T11:30:33.789Z</time></trkpt><trkpt lat="38.7782467" lon="16.4814333"><ele>240.33333333333331</ele><time>2026-04-07T11:30:34.789Z</time></trkpt><trkpt lat="38.7783333" lon="16.4816517"><ele>238.0</ele><time>2026-04-07T11:30:35.79Z</time></trkpt><trkpt lat="38.7784217" lon="16.4818583"><ele>238.0</ele><time>2026-04-07T11:30:36.79Z</time></trkpt><trkpt lat="38.7785133" lon="16.48205"><ele>238.0</ele><time>2026-04-07T11:30:37.79Z</time></trkpt><trkpt lat="38.7786" lon="16.4822283"><ele>238.0</ele><time>2026-04-07T11:30:38.789Z</time></trkpt><trkpt lat="38.7786817" lon="16.4823817"><ele>235.75</ele><time>2026-04-07T11:30:39.789Z</time></trkpt><trkpt lat="38.778765" lon="16.4825"><ele>233.5</ele><time>2026-04-07T11:30:40.789Z</time></trkpt><trkpt lat="38.778855" lon="16.4825933"><ele>231.25</ele><time>2026-04-07T11:30:41.789Z</time></trkpt><trkpt lat="38.77896" lon="16.48265"><ele>229.0</ele><time>2026-04-07T11:30:42.789Z</time></trkpt><trkpt lat="38.7790867" lon="16.48266"><ele>229.0</ele><time>2026-04-07T11:30:43.789Z</time></trkpt><trkpt lat="38.77923" lon="16.48263"><ele>229.0</ele><time>2026-04-07T11:30:44.79Z</time></trkpt><trkpt lat="38.7793817" lon="16.4825933"><ele>229.0</ele><time>2026-04-07T11:30:45.789Z</time></trkpt><trkpt lat="38.7795267" lon="16.482585"><ele>229.0</ele><time>2026-04-07T11:30:46.789Z</time></trkpt><trkpt lat="38.7796767" lon="16.482605"><ele>227.0</ele><time>2026-04-07T11:30:47.789Z</time></trkpt><trkpt lat="38.7798333" lon="16.4826417"><ele>225.0</ele><time>2026-04-07T11:30:48.789Z</time></trkpt><trkpt lat="38.7799917" lon="16.4826933"><ele>223.0</ele><time>2026-04-07T11:30:49.789Z</time></trkpt><trkpt lat="38.7801467" lon="16.4827567"><ele>222.66666666666666</ele><time>2026-04-07T11:30:50.789Z</time></trkpt><trkpt lat="38.7802933" lon="16.4828483"><ele>222.33333333333331</ele><time>2026-04-07T11:30:51.789Z</time></trkpt><trkpt lat="38.7804283" lon="16.4829567"><ele>222.0</ele><time>2026-04-07T11:30:52.789Z</time></trkpt><trkpt lat="38.780545" lon="16.4830567"><ele>222.0</ele><time>2026-04-07T11:30:53.789Z</time></trkpt><trkpt lat="38.7806517" lon="16.483135"><ele>222.0</ele><time>2026-04-07T11:30:54.79Z</time></trkpt><trkpt lat="38.780765" lon="16.4831667"><ele>222.0</ele><time>2026-04-07T11:30:55.789Z</time></trkpt><trkpt lat="38.7808883" lon="16.4831567"><ele>222.0</ele><time>2026-04-07T11:30:56.79Z</time></trkpt><trkpt lat="38.781015" lon="16.4831067"><ele>221.25</ele><time>2026-04-07T11:30:57.79Z</time></trkpt><trkpt lat="38.7811333" lon="16.48304"><ele>220.5</ele><time>2026-04-07T11:30:58.789Z</time></trkpt><trkpt lat="38.7812533" lon="16.4829683"><ele>219.75</ele><time>2026-04-07T11:30:59.789Z</time></trkpt><trkpt lat="38.7813867" lon="16.482905"><ele>219.0</ele><time>2026-04-07T11:31:00.789Z</time></trkpt><trkpt lat="38.78152" lon="16.482845"><ele>219.0</ele><time>2026-04-07T11:31:01.789Z</time></trkpt><trkpt lat="38.7816483" lon="16.482785"><ele>219.0</ele><time>2026-04-07T11:31:02.789Z</time></trkpt><trkpt lat="38.7817767" lon="16.4827567"><ele>219.0</ele><time>2026-04-07T11:31:03.789Z</time></trkpt><trkpt lat="38.7818983" lon="16.4827567"><ele>219.0</ele><time>2026-04-07T11:31:04.79Z</time></trkpt><trkpt lat="38.782025" lon="16.482785"><ele>218.75</ele><time>2026-04-07T11:31:05.789Z</time></trkpt><trkpt lat="38.7821533" lon="16.48282"><ele>218.5</ele><time>2026-04-07T11:31:06.789Z</time></trkpt><trkpt lat="38.78228" lon="16.4828583"><ele>218.25</ele><time>2026-04-07T11:31:07.789Z</time></trkpt><trkpt lat="38.7824" lon="16.4828917"><ele>218.0</ele><time>2026-04-07T11:31:08.79Z</time></trkpt><trkpt lat="38.782515" lon="16.4829383"><ele>219.0</ele><time>2026-04-07T11:31:09.79Z</time></trkpt><trkpt lat="38.7826267" lon="16.4829983"><ele>220.0</ele><time>2026-04-07T11:31:10.79Z</time></trkpt><trkpt lat="38.7827417" lon="16.483075"><ele>221.0</ele><time>2026-04-07T11:31:11.79Z</time></trkpt><trkpt lat="38.7828633" lon="16.483155"><ele>222.0</ele><time>2026-04-07T11:31:12.789Z</time></trkpt><trkpt lat="38.78299" lon="16.48324"><ele>222.0</ele><time>2026-04-07T11:31:13.789Z</time></trkpt><trkpt lat="38.7831117" lon="16.4833333"><ele>222.0</ele><time>2026-04-07T11:31:14.79Z</time></trkpt><trkpt lat="38.7832267" lon="16.4834283"><ele>222.0</ele><time>2026-04-07T11:31:15.789Z</time></trkpt><trkpt lat="38.7833383" lon="16.4835317"><ele>222.0</ele><time>2026-04-07T11:31:16.789Z</time></trkpt><trkpt lat="38.78345" lon="16.4836533"><ele>220.33333333333331</ele><time>2026-04-07T11:31:17.789Z</time></trkpt><trkpt lat="38.78356" lon="16.483795"><ele>218.66666666666666</ele><time>2026-04-07T11:31:18.789Z</time></trkpt><trkpt lat="38.783675" lon="16.4839683"><ele>217.0</ele><time>2026-04-07T11:31:19.789Z</time></trkpt><trkpt lat="38.7838033" lon="16.4841633"><ele>217.0</ele><time>2026-04-07T11:31:20.79Z</time></trkpt><trkpt lat="38.7839367" lon="16.4843883"><ele>217.0</ele><time>2026-04-07T11:31:21.789Z</time></trkpt><trkpt lat="38.7840733" lon="16.4846283"><ele>215.0</ele><time>2026-04-07T11:31:22.789Z</time></trkpt><trkpt lat="38.78421" lon="16.4848683"><ele>213.0</ele><time>2026-04-07T11:31:23.789Z</time></trkpt><trkpt lat="38.7843467" lon="16.4851083"><ele>212.66666666666669</ele><time>2026-04-07T11:31:24.789Z</time></trkpt><trkpt lat="38.78448" lon="16.48533"><ele>212.33333333333334</ele><time>2026-04-07T11:31:25.789Z</time></trkpt><trkpt lat="38.784605" lon="16.4855417"><ele>212.0</ele><time>2026-04-07T11:31:26.789Z</time></trkpt><trkpt lat="38.78473" lon="16.4857433"><ele>211.33333333333334</ele><time>2026-04-07T11:31:27.789Z</time></trkpt><trkpt lat="38.7848517" lon="16.48594"><ele>210.66666666666669</ele><time>2026-04-07T11:31:28.789Z</time></trkpt><trkpt lat="38.7849783" lon="16.4861417"><ele>210.0</ele><time>2026-04-07T11:31:29.79Z</time></trkpt><trkpt lat="38.7851" lon="16.4863317"><ele>208.33333333333331</ele><time>2026-04-07T11:31:30.789Z</time></trkpt><trkpt lat="38.7852167" lon="16.4865167"><ele>206.66666666666666</ele><time>2026-04-07T11:31:31.789Z</time></trkpt><trkpt lat="38.7853233" lon="16.4866983"><ele>205.0</ele><time>2026-04-07T11:31:32.789Z</time></trkpt><trkpt lat="38.7854267" lon="16.486875"><ele>205.0</ele><time>2026-04-07T11:31:33.789Z</time></trkpt><trkpt lat="38.7855267" lon="16.4870517"><ele>205.0</ele><time>2026-04-07T11:31:34.789Z</time></trkpt><trkpt lat="38.7856233" lon="16.4872183"><ele>205.0</ele><time>2026-04-07T11:31:35.789Z</time></trkpt><trkpt lat="38.78572" lon="16.4873717"><ele>204.33333333333331</ele><time>2026-04-07T11:31:36.789Z</time></trkpt><trkpt lat="38.785815" lon="16.4875367"><ele>203.66666666666669</ele><time>2026-04-07T11:31:37.79Z</time></trkpt><trkpt lat="38.7859183" lon="16.48771"><ele>203.0</ele><time>2026-04-07T11:31:38.79Z</time></trkpt><trkpt lat="38.7860333" lon="16.48789"><ele>202.0</ele><time>2026-04-07T11:31:39.789Z</time></trkpt><trkpt lat="38.786155" lon="16.488075"><ele>201.0</ele><time>2026-04-07T11:31:40.789Z</time></trkpt><trkpt lat="38.786285" lon="16.48826"><ele>200.0</ele><time>2026-04-07T11:31:41.789Z</time></trkpt><trkpt lat="38.7864267" lon="16.4884417"><ele>200.0</ele><time>2026-04-07T11:31:42.789Z</time></trkpt><trkpt lat="38.7865733" lon="16.4886317"><ele>200.0</ele><time>2026-04-07T11:31:43.79Z</time></trkpt><trkpt lat="38.7867117" lon="16.4888217"><ele>200.0</ele><time>2026-04-07T11:31:44.79Z</time></trkpt><trkpt lat="38.78684" lon="16.48901"><ele>199.33333333333334</ele><time>2026-04-07T11:31:45.789Z</time></trkpt><trkpt lat="38.78695" lon="16.4892017"><ele>198.66666666666669</ele><time>2026-04-07T11:31:46.789Z</time></trkpt><trkpt lat="38.7870383" lon="16.489405"><ele>198.0</ele><time>2026-04-07T11:31:47.79Z</time></trkpt><trkpt lat="38.7871167" lon="16.48961"><ele>198.0</ele><time>2026-04-07T11:31:48.789Z</time></trkpt><trkpt lat="38.78719" lon="16.4898183"><ele>198.0</ele><time>2026-04-07T11:31:49.789Z</time></trkpt><trkpt lat="38.7872633" lon="16.490015"><ele>198.0</ele><time>2026-04-07T11:31:50.79Z</time></trkpt><trkpt lat="38.7873317" lon="16.4902167"><ele>198.0</ele><time>2026-04-07T11:31:51.789Z</time></trkpt><trkpt lat="38.7873917" lon="16.4904067"><ele>198.0</ele><time>2026-04-07T11:31:52.789Z</time></trkpt><trkpt lat="38.78744" lon="16.4905867"><ele>198.0</ele><time>2026-04-07T11:31:53.789Z</time></trkpt><trkpt lat="38.7874683" lon="16.4907567"><ele>198.0</ele><time>2026-04-07T11:31:54.79Z</time></trkpt><trkpt lat="38.7874917" lon="16.4909167"><ele>197.8</ele><time>2026-04-07T11:31:55.79Z</time></trkpt><trkpt lat="38.78752" lon="16.491075"><ele>197.60000000000002</ele><time>2026-04-07T11:31:56.79Z</time></trkpt><trkpt lat="38.78755" lon="16.4912267"><ele>197.39999999999998</ele><time>2026-04-07T11:31:57.789Z</time></trkpt><trkpt lat="38.7875917" lon="16.4913467"><ele>197.2</ele><time>2026-04-07T11:31:58.789Z</time></trkpt><trkpt lat="38.7876433" lon="16.49144"><ele>197.0</ele><time>2026-04-07T11:31:59.79Z</time></trkpt><trkpt lat="38.7877083" lon="16.4915167"><ele>195.75</ele><time>2026-04-07T11:32:00.789Z</time></trkpt><trkpt lat="38.7877933" lon="16.4915867"><ele>194.5</ele><time>2026-04-07T11:32:01.789Z</time></trkpt><trkpt lat="38.7879" lon="16.49165"><ele>193.25</ele><time>2026-04-07T11:32:02.789Z</time></trkpt><trkpt lat="38.78803" lon="16.491695"><ele>192.0</ele><time>2026-04-07T11:32:03.789Z</time></trkpt><trkpt lat="38.7881733" lon="16.4917333"><ele>192.0</ele><time>2026-04-07T11:32:04.789Z</time></trkpt><trkpt lat="38.7883283" lon="16.4917733"><ele>192.0</ele><time>2026-04-07T11:32:05.789Z</time></trkpt><trkpt lat="38.788485" lon="16.4918183"><ele>192.0</ele><time>2026-04-07T11:32:06.79Z</time></trkpt><trkpt lat="38.78864" lon="16.4918667"><ele>192.25</ele><time>2026-04-07T11:32:07.789Z</time></trkpt><trkpt lat="38.7887867" lon="16.4919067"><ele>192.5</ele><time>2026-04-07T11:32:08.79Z</time></trkpt><trkpt lat="38.788915" lon="16.49194"><ele>192.75</ele><time>2026-04-07T11:32:09.789Z</time></trkpt><trkpt lat="38.7890267" lon="16.4919683"><ele>193.0</ele><time>2026-04-07T11:32:10.789Z</time></trkpt><trkpt lat="38.7891283" lon="16.491995"><ele>193.0</ele><time>2026-04-07T11:32:11.789Z</time></trkpt><trkpt lat="38.7892217" lon="16.4920283"><ele>193.0</ele><time>2026-04-07T11:32:12.789Z</time></trkpt><trkpt lat="38.7893167" lon="16.4920567"><ele>193.0</ele><time>2026-04-07T11:32:13.789Z</time></trkpt><trkpt lat="38.7894267" lon="16.4920817"><ele>193.0</ele><time>2026-04-07T11:32:14.789Z</time></trkpt><trkpt lat="38.78955" lon="16.4920917"><ele>193.0</ele><time>2026-04-07T11:32:15.789Z</time></trkpt><trkpt lat="38.7896933" lon="16.4920867"><ele>192.66666666666666</ele><time>2026-04-07T11:32:16.79Z</time></trkpt><trkpt lat="38.7898533" lon="16.49208"><ele>192.33333333333331</ele><time>2026-04-07T11:32:17.79Z</time></trkpt><trkpt lat="38.790015" lon="16.4920733"><ele>192.0</ele><time>2026-04-07T11:32:18.789Z</time></trkpt><trkpt lat="38.7901817" lon="16.4920533"><ele>192.5</ele><time>2026-04-07T11:32:19.79Z</time></trkpt><trkpt lat="38.79034" lon="16.4920433"><ele>193.0</ele><time>2026-04-07T11:32:20.789Z</time></trkpt><trkpt lat="38.79049" lon="16.49203"><ele>193.5</ele><time>2026-04-07T11:32:21.79Z</time></trkpt><trkpt lat="38.790625" lon="16.4920183"><ele>194.0</ele><time>2026-04-07T11:32:22.789Z</time></trkpt><trkpt lat="38.7907633" lon="16.492015"><ele>194.0</ele><time>2026-04-07T11:32:23.789Z</time></trkpt><trkpt lat="38.7909" lon="16.49202"><ele>194.0</ele><time>2026-04-07T11:32:24.789Z</time></trkpt><trkpt lat="38.7910333" lon="16.4920533"><ele>194.0</ele><time>2026-04-07T11:32:25.789Z</time></trkpt><trkpt lat="38.79117" lon="16.4921183"><ele>194.0</ele><time>2026-04-07T11:32:26.789Z</time></trkpt><trkpt lat="38.7913" lon="16.492205"><ele>194.5</ele><time>2026-04-07T11:32:27.79Z</time></trkpt><trkpt lat="38.79143" lon="16.4923"><ele>195.0</ele><time>2026-04-07T11:32:28.789Z</time></trkpt><trkpt lat="38.7915633" lon="16.4923917"><ele>195.5</ele><time>2026-04-07T11:32:29.79Z</time></trkpt><trkpt lat="38.791695" lon="16.4924783"><ele>196.0</ele><time>2026-04-07T11:32:30.789Z</time></trkpt><trkpt lat="38.7918133" lon="16.4925583"><ele>196.8</ele><time>2026-04-07T11:32:31.79Z</time></trkpt><trkpt lat="38.7919183" lon="16.4926267"><ele>197.60000000000002</ele><time>2026-04-07T11:32:32.789Z</time></trkpt><trkpt lat="38.7920033" lon="16.4926933"><ele>198.4</ele><time>2026-04-07T11:32:33.79Z</time></trkpt><trkpt lat="38.792075" lon="16.4927417"><ele>199.2</ele><time>2026-04-07T11:32:34.789Z</time></trkpt><trkpt lat="38.79216" lon="16.4927983"><ele>200.0</ele><time>2026-04-07T11:32:36.79Z</time></trkpt><trkpt lat="38.7922467" lon="16.4928083"><ele>200.0</ele><time>2026-04-07T11:32:38.79Z</time></trkpt><trkpt lat="38.7923083" lon="16.492775"><ele>200.0</ele><time>2026-04-07T11:32:39.79Z</time></trkpt><trkpt lat="38.79237" lon="16.4927083"><ele>200.0</ele><time>2026-04-07T11:32:40.789Z</time></trkpt><trkpt lat="38.79244" lon="16.492605"><ele>200.0</ele><time>2026-04-07T11:32:41.789Z</time></trkpt><trkpt lat="38.7925267" lon="16.4924783"><ele>200.0</ele><time>2026-04-07T11:32:42.789Z</time></trkpt><trkpt lat="38.7926267" lon="16.4923333"><ele>200.75</ele><time>2026-04-07T11:32:43.789Z</time></trkpt><trkpt lat="38.7927267" lon="16.4921867"><ele>201.5</ele><time>2026-04-07T11:32:44.789Z</time></trkpt><trkpt lat="38.792825" lon="16.4920567"><ele>202.25</ele><time>2026-04-07T11:32:45.789Z</time></trkpt><trkpt lat="38.7929167" lon="16.4919333"><ele>203.0</ele><time>2026-04-07T11:32:46.789Z</time></trkpt><trkpt lat="38.7929967" lon="16.49183"><ele>203.0</ele><time>2026-04-07T11:32:47.789Z</time></trkpt><trkpt lat="38.7930717" lon="16.4917233"><ele>203.0</ele><time>2026-04-07T11:32:48.789Z</time></trkpt><trkpt lat="38.79314" lon="16.4916217"><ele>203.0</ele><time>2026-04-07T11:32:49.79Z</time></trkpt><trkpt lat="38.7932083" lon="16.4915267"><ele>203.0</ele><time>2026-04-07T11:32:50.789Z</time></trkpt><trkpt lat="38.79328" lon="16.4914533"><ele>203.0</ele><time>2026-04-07T11:32:51.789Z</time></trkpt><trkpt lat="38.7933517" lon="16.491385"><ele>203.0</ele><time>2026-04-07T11:32:52.789Z</time></trkpt><trkpt lat="38.7934367" lon="16.491325"><ele>203.0</ele><time>2026-04-07T11:32:53.79Z</time></trkpt><trkpt lat="38.793535" lon="16.4912717"><ele>203.0</ele><time>2026-04-07T11:32:54.789Z</time></trkpt><trkpt lat="38.7936467" lon="16.491205"><ele>203.0</ele><time>2026-04-07T11:32:55.79Z</time></trkpt><trkpt lat="38.793765" lon="16.49114"><ele>201.75</ele><time>2026-04-07T11:32:56.789Z</time></trkpt><trkpt lat="38.7938867" lon="16.4910717"><ele>200.5</ele><time>2026-04-07T11:32:57.789Z</time></trkpt><trkpt lat="38.7940117" lon="16.4910083"><ele>199.25</ele><time>2026-04-07T11:32:58.789Z</time></trkpt><trkpt lat="38.7941417" lon="16.49094"><ele>198.0</ele><time>2026-04-07T11:32:59.79Z</time></trkpt><trkpt lat="38.7942733" lon="16.4908733"><ele>199.0</ele><time>2026-04-07T11:33:00.79Z</time></trkpt><trkpt lat="38.7944083" lon="16.490795"><ele>200.0</ele><time>2026-04-07T11:33:01.789Z</time></trkpt><trkpt lat="38.7945367" lon="16.4907233"><ele>201.0</ele><time>2026-04-07T11:33:02.789Z</time></trkpt><trkpt lat="38.79467" lon="16.4906483"><ele>202.0</ele><time>2026-04-07T11:33:03.789Z</time></trkpt><trkpt lat="38.7948083" lon="16.4905717"><ele>202.0</ele><time>2026-04-07T11:33:04.79Z</time></trkpt><trkpt lat="38.7949433" lon="16.490495"><ele>202.0</ele><time>2026-04-07T11:33:05.789Z</time></trkpt><trkpt lat="38.7950817" lon="16.4904167"><ele>202.0</ele><time>2026-04-07T11:33:06.789Z</time></trkpt><trkpt lat="38.79522" lon="16.490305"><ele>200.66666666666666</ele><time>2026-04-07T11:33:07.789Z</time></trkpt><trkpt lat="38.795355" lon="16.4901667"><ele>199.33333333333331</ele><time>2026-04-07T11:33:08.789Z</time></trkpt><trkpt lat="38.7954917" lon="16.4899967"><ele>198.0</ele><time>2026-04-07T11:33:09.789Z</time></trkpt><trkpt lat="38.7956317" lon="16.489775"><ele>197.5</ele><time>2026-04-07T11:33:10.79Z</time></trkpt><trkpt lat="38.7957867" lon="16.4895367"><ele>197.0</ele><time>2026-04-07T11:33:11.789Z</time></trkpt><trkpt lat="38.795945" lon="16.4892883"><ele>199.0</ele><time>2026-04-07T11:33:12.789Z</time></trkpt><trkpt lat="38.7961167" lon="16.489025"><ele>201.0</ele><time>2026-04-07T11:33:13.79Z</time></trkpt><trkpt lat="38.7962933" lon="16.4887517"><ele>201.0</ele><time>2026-04-07T11:33:14.789Z</time></trkpt><trkpt lat="38.7964783" lon="16.4884783"><ele>201.0</ele><time>2026-04-07T11:33:15.79Z</time></trkpt><trkpt lat="38.7966533" lon="16.48821"><ele>201.0</ele><time>2026-04-07T11:33:16.789Z</time></trkpt><trkpt lat="38.7968167" lon="16.4879533"><ele>201.0</ele><time>2026-04-07T11:33:17.789Z</time></trkpt><trkpt lat="38.7969683" lon="16.4877117"><ele>202.5</ele><time>2026-04-07T11:33:18.789Z</time></trkpt><trkpt lat="38.7971167" lon="16.4874767"><ele>204.0</ele><time>2026-04-07T11:33:19.789Z</time></trkpt><trkpt lat="38.7972617" lon="16.4872467"><ele>203.66666666666669</ele><time>2026-04-07T11:33:20.789Z</time></trkpt><trkpt lat="38.7974033" lon="16.4870283"><ele>203.33333333333334</ele><time>2026-04-07T11:33:21.789Z</time></trkpt><trkpt lat="38.7975333" lon="16.486825"><ele>203.0</ele><time>2026-04-07T11:33:22.79Z</time></trkpt><trkpt lat="38.7976633" lon="16.48662"><ele>203.0</ele><time>2026-04-07T11:33:23.789Z</time></trkpt><trkpt lat="38.7977933" lon="16.486425"><ele>203.0</ele><time>2026-04-07T11:33:24.789Z</time></trkpt><trkpt lat="38.7979183" lon="16.48623"><ele>203.0</ele><time>2026-04-07T11:33:25.789Z</time></trkpt><trkpt lat="38.7980333" lon="16.4860567"><ele>203.0</ele><time>2026-04-07T11:33:26.789Z</time></trkpt><trkpt lat="38.7981367" lon="16.4858867"><ele>203.0</ele><time>2026-04-07T11:33:27.79Z</time></trkpt><trkpt lat="38.7982333" lon="16.4857383"><ele>203.0</ele><time>2026-04-07T11:33:28.789Z</time></trkpt><trkpt lat="38.7983217" lon="16.485595"><ele>203.0</ele><time>2026-04-07T11:33:29.79Z</time></trkpt><trkpt lat="38.7984067" lon="16.485455"><ele>203.0</ele><time>2026-04-07T11:33:30.789Z</time></trkpt><trkpt lat="38.7984933" lon="16.485325"><ele>203.0</ele><time>2026-04-07T11:33:31.79Z</time></trkpt><trkpt lat="38.798595" lon="16.4852017"><ele>203.0</ele><time>2026-04-07T11:33:32.789Z</time></trkpt><trkpt lat="38.798705" lon="16.4850817"><ele>203.25</ele><time>2026-04-07T11:33:33.789Z</time></trkpt><trkpt lat="38.798815" lon="16.4849717"><ele>203.5</ele><time>2026-04-07T11:33:34.79Z</time></trkpt><trkpt lat="38.7989367" lon="16.4848567"><ele>203.75</ele><time>2026-04-07T11:33:35.79Z</time></trkpt><trkpt lat="38.7990683" lon="16.4847517"><ele>204.0</ele><time>2026-04-07T11:33:36.789Z</time></trkpt><trkpt lat="38.799205" lon="16.4846467"><ele>204.33333333333331</ele><time>2026-04-07T11:33:37.79Z</time></trkpt><trkpt lat="38.7993383" lon="16.4845383"><ele>204.66666666666666</ele><time>2026-04-07T11:33:38.789Z</time></trkpt><trkpt lat="38.7994667" lon="16.4844267"><ele>205.0</ele><time>2026-04-07T11:33:39.789Z</time></trkpt><trkpt lat="38.7995833" lon="16.4843233"><ele>205.0</ele><time>2026-04-07T11:33:40.789Z</time></trkpt><trkpt lat="38.79969" lon="16.48423"><ele>205.0</ele><time>2026-04-07T11:33:41.789Z</time></trkpt><trkpt lat="38.799785" lon="16.484135"><ele>205.0</ele><time>2026-04-07T11:33:42.789Z</time></trkpt><trkpt lat="38.79986" lon="16.4840483"><ele>205.0</ele><time>2026-04-07T11:33:43.789Z</time></trkpt><trkpt lat="38.7999167" lon="16.4839683"><ele>205.0</ele><time>2026-04-07T11:33:44.789Z</time></trkpt><trkpt lat="38.7999617" lon="16.4839033"><ele>204.99999999999997</ele><time>2026-04-07T11:33:45.789Z</time></trkpt><trkpt lat="38.8000233" lon="16.4838067"><ele>205.0</ele><time>2026-04-07T11:33:47.79Z</time></trkpt><trkpt lat="38.8000683" lon="16.4837267"><ele>205.0</ele><time>2026-04-07T11:35:21.79Z</time></trkpt><trkpt lat="38.8001217" lon="16.4836233"><ele>205.0</ele><time>2026-04-07T11:35:23.789Z</time></trkpt><trkpt lat="38.8001633" lon="16.4835533"><ele>204.99999999999997</ele><time>2026-04-07T11:35:24.789Z</time></trkpt><trkpt lat="38.80021" lon="16.4834733"><ele>205.0</ele><time>2026-04-07T11:35:25.789Z</time></trkpt><trkpt lat="38.8002567" lon="16.4833883"><ele>205.16666666666666</ele><time>2026-04-07T11:35:26.79Z</time></trkpt><trkpt lat="38.8003033" lon="16.4833117"><ele>205.33333333333331</ele><time>2026-04-07T11:35:27.789Z</time></trkpt><trkpt lat="38.800345" lon="16.4832417"><ele>205.5</ele><time>2026-04-07T11:35:28.789Z</time></trkpt><trkpt lat="38.8004117" lon="16.4831317"><ele>205.66666666666669</ele><time>2026-04-07T11:35:30.79Z</time></trkpt><trkpt lat="38.8004567" lon="16.483045"><ele>205.83333333333334</ele><time>2026-04-07T11:35:32.79Z</time></trkpt><trkpt lat="38.8004983" lon="16.482975"><ele>206.0</ele><time>2026-04-07T11:35:34.789Z</time></trkpt><trkpt lat="38.8005333" lon="16.4829"><ele>206.00000000000003</ele><time>2026-04-07T11:35:36.789Z</time></trkpt><trkpt lat="38.80058" lon="16.4828133"><ele>206.0</ele><time>2026-04-07T11:35:38.79Z</time></trkpt><trkpt lat="38.80064" lon="16.4827167"><ele>206.0</ele><time>2026-04-07T11:35:40.789Z</time></trkpt><trkpt lat="38.8007083" lon="16.48259"><ele>206.0</ele><time>2026-04-07T11:35:42.789Z</time></trkpt><trkpt lat="38.800745" lon="16.482515"><ele>206.00000000000003</ele><time>2026-04-07T11:35:43.79Z</time></trkpt><trkpt lat="38.8007883" lon="16.48243"><ele>206.0</ele><time>2026-04-07T11:35:44.789Z</time></trkpt><trkpt lat="38.8008283" lon="16.48234"><ele>206.0</ele><time>2026-04-07T11:35:45.789Z</time></trkpt><trkpt lat="38.800865" lon="16.482245"><ele>206.0</ele><time>2026-04-07T11:35:46.789Z</time></trkpt><trkpt lat="38.8009" lon="16.482145"><ele>206.0</ele><time>2026-04-07T11:35:47.789Z</time></trkpt><trkpt lat="38.8009467" lon="16.482045"><ele>206.0</ele><time>2026-04-07T11:35:48.789Z</time></trkpt><trkpt lat="38.8010017" lon="16.4819317"><ele>206.0</ele><time>2026-04-07T11:35:49.79Z</time></trkpt><trkpt lat="38.8010617" lon="16.4818067"><ele>206.25</ele><time>2026-04-07T11:35:50.789Z</time></trkpt><trkpt lat="38.801125" lon="16.48167"><ele>206.5</ele><time>2026-04-07T11:35:51.789Z</time></trkpt><trkpt lat="38.8011967" lon="16.48152"><ele>206.75</ele><time>2026-04-07T11:35:52.789Z</time></trkpt><trkpt lat="38.801265" lon="16.481365"><ele>207.0</ele><time>2026-04-07T11:35:53.789Z</time></trkpt><trkpt lat="38.8013367" lon="16.4812067"><ele>207.0</ele><time>2026-04-07T11:35:54.79Z</time></trkpt><trkpt lat="38.80141" lon="16.4810383"><ele>207.0</ele><time>2026-04-07T11:35:55.79Z</time></trkpt><trkpt lat="38.8014867" lon="16.4808733"><ele>207.0</ele><time>2026-04-07T11:35:56.79Z</time></trkpt><trkpt lat="38.8015617" lon="16.4806917"><ele>207.0</ele><time>2026-04-07T11:35:57.79Z</time></trkpt><trkpt lat="38.8016433" lon="16.4805083"><ele>207.0</ele><time>2026-04-07T11:35:58.79Z</time></trkpt><trkpt lat="38.8017267" lon="16.4803367"><ele>207.0</ele><time>2026-04-07T11:35:59.789Z</time></trkpt><trkpt lat="38.80181" lon="16.4801617"><ele>207.0</ele><time>2026-04-07T11:36:00.789Z</time></trkpt><trkpt lat="38.8018917" lon="16.4799767"><ele>207.0</ele><time>2026-04-07T11:36:01.789Z</time></trkpt><trkpt lat="38.80197" lon="16.4797933"><ele>207.0</ele><time>2026-04-07T11:36:02.79Z</time></trkpt><trkpt lat="38.8020517" lon="16.4796083"><ele>206.0</ele><time>2026-04-07T11:36:03.789Z</time></trkpt><trkpt lat="38.802135" lon="16.4794283"><ele>205.0</ele><time>2026-04-07T11:36:04.789Z</time></trkpt><trkpt lat="38.8023" lon="16.4790767"><ele>205.0</ele><time>2026-04-07T11:36:06.789Z</time></trkpt><trkpt lat="38.8023733" lon="16.4789033"><ele>205.0</ele><time>2026-04-07T11:36:07.789Z</time></trkpt><trkpt lat="38.8024483" lon="16.4787367"><ele>205.0</ele><time>2026-04-07T11:36:08.79Z</time></trkpt><trkpt lat="38.8025317" lon="16.47858"><ele>205.0</ele><time>2026-04-07T11:36:09.79Z</time></trkpt><trkpt lat="38.80262" lon="16.47843"><ele>205.0</ele><time>2026-04-07T11:36:10.79Z</time></trkpt><trkpt lat="38.802725" lon="16.47828"><ele>205.0</ele><time>2026-04-07T11:36:11.789Z</time></trkpt><trkpt lat="38.80284" lon="16.4781233"><ele>205.33333333333331</ele><time>2026-04-07T11:36:12.789Z</time></trkpt><trkpt lat="38.8029667" lon="16.4779717"><ele>205.66666666666669</ele><time>2026-04-07T11:36:13.79Z</time></trkpt><trkpt lat="38.8031" lon="16.4778167"><ele>206.0</ele><time>2026-04-07T11:36:14.79Z</time></trkpt><trkpt lat="38.8032333" lon="16.47766"><ele>206.0</ele><time>2026-04-07T11:36:15.79Z</time></trkpt><trkpt lat="38.8033633" lon="16.4775"><ele>206.0</ele><time>2026-04-07T11:36:16.789Z</time></trkpt><trkpt lat="38.8034967" lon="16.4773417"><ele>206.0</ele><time>2026-04-07T11:36:17.79Z</time></trkpt><trkpt lat="38.803625" lon="16.4771867"><ele>206.66666666666669</ele><time>2026-04-07T11:36:18.79Z</time></trkpt><trkpt lat="38.8037533" lon="16.477035"><ele>207.33333333333331</ele><time>2026-04-07T11:36:19.79Z</time></trkpt><trkpt lat="38.8038717" lon="16.4768883"><ele>208.0</ele><time>2026-04-07T11:36:20.789Z</time></trkpt><trkpt lat="38.8039867" lon="16.476765"><ele>208.0</ele><time>2026-04-07T11:36:21.789Z</time></trkpt><trkpt lat="38.804085" lon="16.47665"><ele>208.0</ele><time>2026-04-07T11:36:22.789Z</time></trkpt><trkpt lat="38.80427" lon="16.4764283"><ele>208.0</ele><time>2026-04-07T11:36:24.789Z</time></trkpt><trkpt lat="38.8043633" lon="16.4763183"><ele>208.25</ele><time>2026-04-07T11:36:25.79Z</time></trkpt><trkpt lat="38.8044567" lon="16.4762133"><ele>208.5</ele><time>2026-04-07T11:36:26.789Z</time></trkpt><trkpt lat="38.8045533" lon="16.4760983"><ele>208.75</ele><time>2026-04-07T11:36:27.789Z</time></trkpt><trkpt lat="38.8046517" lon="16.4759867"><ele>209.0</ele><time>2026-04-07T11:36:28.789Z</time></trkpt><trkpt lat="38.804745" lon="16.4758733"><ele>209.0</ele><time>2026-04-07T11:36:29.789Z</time></trkpt><trkpt lat="38.8048417" lon="16.4757583"><ele>209.0</ele><time>2026-04-07T11:36:30.789Z</time></trkpt><trkpt lat="38.8049367" lon="16.4756433"><ele>209.0</ele><time>2026-04-07T11:36:31.789Z</time></trkpt><trkpt lat="38.80503" lon="16.4755367"><ele>209.0</ele><time>2026-04-07T11:36:32.789Z</time></trkpt><trkpt lat="38.80512" lon="16.4754233"><ele>209.75</ele><time>2026-04-07T11:36:33.788Z</time></trkpt><trkpt lat="38.8052183" lon="16.4753133"><ele>210.5</ele><time>2026-04-07T11:36:34.788Z</time></trkpt><trkpt lat="38.805315" lon="16.4751983"><ele>211.25</ele><time>2026-04-07T11:36:35.788Z</time></trkpt><trkpt lat="38.8054183" lon="16.4750817"><ele>212.0</ele><time>2026-04-07T11:36:36.789Z</time></trkpt><trkpt lat="38.8055217" lon="16.47496"><ele>212.0</ele><time>2026-04-07T11:36:37.789Z</time></trkpt><trkpt lat="38.805625" lon="16.474835"><ele>212.0</ele><time>2026-04-07T11:36:38.788Z</time></trkpt><trkpt lat="38.8057317" lon="16.4747067"><ele>212.0</ele><time>2026-04-07T11:36:39.789Z</time></trkpt><trkpt lat="38.8058433" lon="16.4745733"><ele>212.0</ele><time>2026-04-07T11:36:40.788Z</time></trkpt><trkpt lat="38.8059533" lon="16.4744433"><ele>212.33333333333334</ele><time>2026-04-07T11:36:41.789Z</time></trkpt><trkpt lat="38.8060683" lon="16.474315"><ele>212.66666666666669</ele><time>2026-04-07T11:36:42.788Z</time></trkpt><trkpt lat="38.806185" lon="16.4741667"><ele>213.0</ele><time>2026-04-07T11:36:43.788Z</time></trkpt><trkpt lat="38.8063083" lon="16.4740183"><ele>213.0</ele><time>2026-04-07T11:36:44.789Z</time></trkpt><trkpt lat="38.8064317" lon="16.4738633"><ele>213.0</ele><time>2026-04-07T11:36:45.789Z</time></trkpt><trkpt lat="38.80656" lon="16.473705"><ele>213.0</ele><time>2026-04-07T11:36:46.789Z</time></trkpt><trkpt lat="38.8066933" lon="16.473545"><ele>214.0</ele><time>2026-04-07T11:36:47.788Z</time></trkpt><trkpt lat="38.80683" lon="16.4733933"><ele>215.0</ele><time>2026-04-07T11:36:48.788Z</time></trkpt><trkpt lat="38.80697" lon="16.47324"><ele>216.0</ele><time>2026-04-07T11:36:49.788Z</time></trkpt><trkpt lat="38.8071067" lon="16.4730917"><ele>216.66666666666669</ele><time>2026-04-07T11:36:50.788Z</time></trkpt><trkpt lat="38.8072417" lon="16.4729333"><ele>217.33333333333334</ele><time>2026-04-07T11:36:51.788Z</time></trkpt><trkpt lat="38.8073733" lon="16.4727717"><ele>218.0</ele><time>2026-04-07T11:36:52.788Z</time></trkpt><trkpt lat="38.8075083" lon="16.4726083"><ele>218.0</ele><time>2026-04-07T11:36:53.788Z</time></trkpt><trkpt lat="38.8076467" lon="16.47244"><ele>218.0</ele><time>2026-04-07T11:36:54.788Z</time></trkpt><trkpt lat="38.8077867" lon="16.4722717"><ele>218.0</ele><time>2026-04-07T11:36:55.788Z</time></trkpt><trkpt lat="38.8079317" lon="16.4721067"><ele>218.66666666666669</ele><time>2026-04-07T11:36:56.788Z</time></trkpt><trkpt lat="38.80808" lon="16.47194"><ele>219.33333333333331</ele><time>2026-04-07T11:36:57.788Z</time></trkpt><trkpt lat="38.8082267" lon="16.4717767"><ele>220.0</ele><time>2026-04-07T11:36:58.788Z</time></trkpt><trkpt lat="38.8083717" lon="16.4716033"><ele>220.33333333333331</ele><time>2026-04-07T11:36:59.789Z</time></trkpt><trkpt lat="38.8085217" lon="16.4714267"><ele>220.66666666666669</ele><time>2026-04-07T11:37:00.788Z</time></trkpt><trkpt lat="38.80867" lon="16.471245"><ele>221.0</ele><time>2026-04-07T11:37:01.789Z</time></trkpt><trkpt lat="38.808825" lon="16.4710633"><ele>221.0</ele><time>2026-04-07T11:37:02.788Z</time></trkpt><trkpt lat="38.8089767" lon="16.4708833"><ele>221.0</ele><time>2026-04-07T11:37:03.788Z</time></trkpt><trkpt lat="38.8091183" lon="16.470715"><ele>221.0</ele><time>2026-04-07T11:37:04.788Z</time></trkpt><trkpt lat="38.80926" lon="16.4705467"><ele>222.33333333333334</ele><time>2026-04-07T11:37:05.788Z</time></trkpt><trkpt lat="38.8093983" lon="16.470375"><ele>223.66666666666669</ele><time>2026-04-07T11:37:06.788Z</time></trkpt><trkpt lat="38.8095433" lon="16.4702067"><ele>225.0</ele><time>2026-04-07T11:37:07.788Z</time></trkpt><trkpt lat="38.8096817" lon="16.4700417"><ele>225.0</ele><time>2026-04-07T11:37:08.788Z</time></trkpt><trkpt lat="38.8098183" lon="16.469875"><ele>225.0</ele><time>2026-04-07T11:37:09.788Z</time></trkpt><trkpt lat="38.809955" lon="16.4697067"><ele>225.0</ele><time>2026-04-07T11:37:10.788Z</time></trkpt><trkpt lat="38.8100933" lon="16.4695483"><ele>227.0</ele><time>2026-04-07T11:37:11.788Z</time></trkpt><trkpt lat="38.8102333" lon="16.4693933"><ele>229.0</ele><time>2026-04-07T11:37:12.789Z</time></trkpt><trkpt lat="38.8103767" lon="16.4692383"><ele>231.0</ele><time>2026-04-07T11:37:13.788Z</time></trkpt><trkpt lat="38.8105283" lon="16.4691033"><ele>231.0</ele><time>2026-04-07T11:37:14.789Z</time></trkpt><trkpt lat="38.8106817" lon="16.468975"><ele>231.0</ele><time>2026-04-07T11:37:15.788Z</time></trkpt><trkpt lat="38.8108417" lon="16.468855"><ele>231.0</ele><time>2026-04-07T11:37:16.789Z</time></trkpt><trkpt lat="38.8110133" lon="16.4687533"><ele>230.33333333333331</ele><time>2026-04-07T11:37:17.788Z</time></trkpt><trkpt lat="38.8111867" lon="16.4686533"><ele>229.66666666666666</ele><time>2026-04-07T11:37:18.788Z</time></trkpt><trkpt lat="38.8113717" lon="16.4685567"><ele>229.0</ele><time>2026-04-07T11:37:19.789Z</time></trkpt><trkpt lat="38.8115533" lon="16.4684633"><ele>229.0</ele><time>2026-04-07T11:37:20.788Z</time></trkpt><trkpt lat="38.81174" lon="16.468355"><ele>229.0</ele><time>2026-04-07T11:37:21.789Z</time></trkpt><trkpt lat="38.811925" lon="16.4682567"><ele>229.0</ele><time>2026-04-07T11:37:22.789Z</time></trkpt><trkpt lat="38.81211" lon="16.4681617"><ele>229.33333333333331</ele><time>2026-04-07T11:37:23.789Z</time></trkpt><trkpt lat="38.8122933" lon="16.4680617"><ele>229.66666666666669</ele><time>2026-04-07T11:37:24.788Z</time></trkpt><trkpt lat="38.8124767" lon="16.4679617"><ele>230.0</ele><time>2026-04-07T11:37:25.788Z</time></trkpt><trkpt lat="38.8126633" lon="16.4678617"><ele>230.0</ele><time>2026-04-07T11:37:26.788Z</time></trkpt><trkpt lat="38.812845" lon="16.4677683"><ele>230.0</ele><time>2026-04-07T11:37:27.789Z</time></trkpt><trkpt lat="38.8130333" lon="16.46768"><ele>230.0</ele><time>2026-04-07T11:37:28.788Z</time></trkpt><trkpt lat="38.8132133" lon="16.46759"><ele>230.0</ele><time>2026-04-07T11:37:29.788Z</time></trkpt><trkpt lat="38.8133933" lon="16.4675067"><ele>230.0</ele><time>2026-04-07T11:37:30.789Z</time></trkpt><trkpt lat="38.8135817" lon="16.4674367"><ele>230.0</ele><time>2026-04-07T11:37:31.788Z</time></trkpt><trkpt lat="38.8137733" lon="16.4673733"><ele>231.33333333333334</ele><time>2026-04-07T11:37:32.788Z</time></trkpt><trkpt lat="38.8139717" lon="16.4673117"><ele>232.66666666666669</ele><time>2026-04-07T11:37:33.789Z</time></trkpt><trkpt lat="38.8141717" lon="16.4672483"><ele>234.0</ele><time>2026-04-07T11:37:34.788Z</time></trkpt><trkpt lat="38.8143733" lon="16.467195"><ele>233.33333333333331</ele><time>2026-04-07T11:37:35.788Z</time></trkpt><trkpt lat="38.814575" lon="16.46713"><ele>232.66666666666666</ele><time>2026-04-07T11:37:36.788Z</time></trkpt><trkpt lat="38.8147767" lon="16.4670683"><ele>232.0</ele><time>2026-04-07T11:37:37.788Z</time></trkpt><trkpt lat="38.8149783" lon="16.467015"><ele>234.66666666666666</ele><time>2026-04-07T11:37:38.788Z</time></trkpt><trkpt lat="38.8151833" lon="16.46695"><ele>237.33333333333331</ele><time>2026-04-07T11:37:39.788Z</time></trkpt><trkpt lat="38.8153867" lon="16.46689"><ele>240.0</ele><time>2026-04-07T11:37:40.788Z</time></trkpt><trkpt lat="38.8155867" lon="16.46683"><ele>240.0</ele><time>2026-04-07T11:37:41.788Z</time></trkpt><trkpt lat="38.8157883" lon="16.4667717"><ele>240.0</ele><time>2026-04-07T11:37:42.788Z</time></trkpt><trkpt lat="38.81599" lon="16.4667067"><ele>240.0</ele><time>2026-04-07T11:37:43.788Z</time></trkpt><trkpt lat="38.81618" lon="16.4666383"><ele>241.0</ele><time>2026-04-07T11:37:44.788Z</time></trkpt><trkpt lat="38.8163667" lon="16.46656"><ele>242.0</ele><time>2026-04-07T11:37:45.789Z</time></trkpt><trkpt lat="38.81655" lon="16.4664683"><ele>243.0</ele><time>2026-04-07T11:37:46.788Z</time></trkpt><trkpt lat="38.816735" lon="16.46635"><ele>245.66666666666669</ele><time>2026-04-07T11:37:47.788Z</time></trkpt><trkpt lat="38.8169133" lon="16.4662283"><ele>248.33333333333334</ele><time>2026-04-07T11:37:48.789Z</time></trkpt><trkpt lat="38.817095" lon="16.4661033"><ele>251.0</ele><time>2026-04-07T11:37:49.789Z</time></trkpt><trkpt lat="38.8172767" lon="16.4659817"><ele>251.0</ele><time>2026-04-07T11:37:50.788Z</time></trkpt><trkpt lat="38.8174567" lon="16.46587"><ele>251.0</ele><time>2026-04-07T11:37:51.788Z</time></trkpt><trkpt lat="38.817625" lon="16.4657583"><ele>251.0</ele><time>2026-04-07T11:37:52.788Z</time></trkpt><trkpt lat="38.8177917" lon="16.4656517"><ele>253.66666666666669</ele><time>2026-04-07T11:37:53.789Z</time></trkpt><trkpt lat="38.8179583" lon="16.46554"><ele>256.3333333333333</ele><time>2026-04-07T11:37:54.788Z</time></trkpt><trkpt lat="38.8181233" lon="16.4654217"><ele>259.0</ele><time>2026-04-07T11:37:55.788Z</time></trkpt><trkpt lat="38.8182817" lon="16.4653083"><ele>259.0</ele><time>2026-04-07T11:37:56.788Z</time></trkpt><trkpt lat="38.8184367" lon="16.465185"><ele>259.0</ele><time>2026-04-07T11:37:57.788Z</time></trkpt><trkpt lat="38.818585" lon="16.46506"><ele>259.0</ele><time>2026-04-07T11:37:58.788Z</time></trkpt><trkpt lat="38.8187217" lon="16.46492"><ele>261.75</ele><time>2026-04-07T11:37:59.788Z</time></trkpt><trkpt lat="38.81883" lon="16.4647883"><ele>264.5</ele><time>2026-04-07T11:38:00.788Z</time></trkpt><trkpt lat="38.8189183" lon="16.464675"><ele>267.25</ele><time>2026-04-07T11:38:01.789Z</time></trkpt><trkpt lat="38.8189833" lon="16.4645733"><ele>270.0</ele><time>2026-04-07T11:38:02.788Z</time></trkpt><trkpt lat="38.8190383" lon="16.46448"><ele>270.0</ele><time>2026-04-07T11:38:03.788Z</time></trkpt><trkpt lat="38.8190867" lon="16.464405"><ele>270.0</ele><time>2026-04-07T11:38:04.788Z</time></trkpt><trkpt lat="38.81919" lon="16.4643533"><ele>270.0</ele><time>2026-04-07T11:38:06.788Z</time></trkpt><trkpt lat="38.8192717" lon="16.4644233"><ele>270.0</ele><time>2026-04-07T11:38:08.788Z</time></trkpt><trkpt lat="38.8192383" lon="16.4645733"><ele>270.0</ele><time>2026-04-07T11:38:10.788Z</time></trkpt><trkpt lat="38.81919" lon="16.4646733"><ele>271.4</ele><time>2026-04-07T11:38:11.788Z</time></trkpt><trkpt lat="38.8191467" lon="16.4647867"><ele>272.8</ele><time>2026-04-07T11:38:12.788Z</time></trkpt><trkpt lat="38.8190967" lon="16.4649033"><ele>274.2</ele><time>2026-04-07T11:38:13.789Z</time></trkpt><trkpt lat="38.8190417" lon="16.46502"><ele>275.6</ele><time>2026-04-07T11:38:14.788Z</time></trkpt><trkpt lat="38.8189833" lon="16.465145"><ele>277.0</ele><time>2026-04-07T11:38:15.789Z</time></trkpt><trkpt lat="38.8189283" lon="16.4652683"><ele>277.0</ele><time>2026-04-07T11:38:16.788Z</time></trkpt><trkpt lat="38.8188833" lon="16.4653933"><ele>277.0</ele><time>2026-04-07T11:38:17.789Z</time></trkpt><trkpt lat="38.818855" lon="16.465505"><ele>277.0</ele><time>2026-04-07T11:38:18.789Z</time></trkpt><trkpt lat="38.8188467" lon="16.4656083"><ele>277.0</ele><time>2026-04-07T11:38:19.789Z</time></trkpt><trkpt lat="38.81885" lon="16.4657067"><ele>277.0</ele><time>2026-04-07T11:38:20.788Z</time></trkpt><trkpt lat="38.8188567" lon="16.4658017"><ele>277.0</ele><time>2026-04-07T11:38:21.789Z</time></trkpt><trkpt lat="38.8189067" lon="16.465925"><ele>277.66666666666663</ele><time>2026-04-07T11:38:23.789Z</time></trkpt><trkpt lat="38.8189933" lon="16.4659983"><ele>278.3333333333333</ele><time>2026-04-07T11:38:25.788Z</time></trkpt><trkpt lat="38.8190767" lon="16.4659767"><ele>279.0</ele><time>2026-04-07T11:38:27.788Z</time></trkpt><trkpt lat="38.81915" lon="16.4659017"><ele>279.6666666666667</ele><time>2026-04-07T11:38:29.789Z</time></trkpt><trkpt lat="38.8192133" lon="16.46584"><ele>280.33333333333337</ele><time>2026-04-07T11:38:31.788Z</time></trkpt><trkpt lat="38.81926" lon="16.4657833"><ele>281.0</ele><time>2026-04-07T11:38:46.788Z</time></trkpt><trkpt lat="38.8193567" lon="16.465645"><ele>286.33333333333337</ele><time>2026-04-07T11:38:48.788Z</time></trkpt><trkpt lat="38.8194383" lon="16.46552"><ele>291.6666666666667</ele><time>2026-04-07T11:38:49.788Z</time></trkpt><trkpt lat="38.81954" lon="16.4653417"><ele>297.0</ele><time>2026-04-07T11:38:50.789Z</time></trkpt><trkpt lat="38.8196533" lon="16.4651467"><ele>297.0</ele><time>2026-04-07T11:38:51.789Z</time></trkpt><trkpt lat="38.819755" lon="16.464975"><ele>297.0</ele><time>2026-04-07T11:38:52.789Z</time></trkpt><trkpt lat="38.8198467" lon="16.4648267"><ele>297.0</ele><time>2026-04-07T11:38:53.788Z</time></trkpt><trkpt lat="38.8199467" lon="16.4646817"><ele>294.3333333333333</ele><time>2026-04-07T11:38:54.788Z</time></trkpt><trkpt lat="38.8200733" lon="16.4645633"><ele>291.66666666666663</ele><time>2026-04-07T11:38:55.788Z</time></trkpt><trkpt lat="38.8202067" lon="16.4644583"><ele>289.0</ele><time>2026-04-07T11:38:56.788Z</time></trkpt><trkpt lat="38.82034" lon="16.4643483"><ele>296.3333333333333</ele><time>2026-04-07T11:38:57.789Z</time></trkpt><trkpt lat="38.8204733" lon="16.464225"><ele>303.6666666666667</ele><time>2026-04-07T11:38:58.788Z</time></trkpt><trkpt lat="38.8205883" lon="16.46409"><ele>311.0</ele><time>2026-04-07T11:38:59.788Z</time></trkpt><trkpt lat="38.82069" lon="16.4639517"><ele>311.0</ele><time>2026-04-07T11:39:00.788Z</time></trkpt><trkpt lat="38.8207783" lon="16.4637867"><ele>311.0</ele><time>2026-04-07T11:39:01.788Z</time></trkpt><trkpt lat="38.82086" lon="16.4635983"><ele>311.0</ele><time>2026-04-07T11:39:02.788Z</time></trkpt><trkpt lat="38.8209367" lon="16.4634033"><ele>315.6666666666667</ele><time>2026-04-07T11:39:03.788Z</time></trkpt><trkpt lat="38.82102" lon="16.463205"><ele>320.3333333333333</ele><time>2026-04-07T11:39:04.788Z</time></trkpt><trkpt lat="38.8210983" lon="16.4630083"><ele>325.0</ele><time>2026-04-07T11:39:05.788Z</time></trkpt><trkpt lat="38.821175" lon="16.4628117"><ele>325.0</ele><time>2026-04-07T11:39:06.788Z</time></trkpt><trkpt lat="38.8212533" lon="16.46263"><ele>325.0</ele><time>2026-04-07T11:39:07.788Z</time></trkpt><trkpt lat="38.8213233" lon="16.4624483"><ele>325.0</ele><time>2026-04-07T11:39:08.788Z</time></trkpt><trkpt lat="38.8214" lon="16.4622717"><ele>322.5</ele><time>2026-04-07T11:39:09.788Z</time></trkpt><trkpt lat="38.821475" lon="16.4621033"><ele>320.0</ele><time>2026-04-07T11:39:10.789Z</time></trkpt><trkpt lat="38.821535" lon="16.4619333"><ele>317.5</ele><time>2026-04-07T11:39:11.788Z</time></trkpt><trkpt lat="38.8215717" lon="16.4617583"><ele>315.0</ele><time>2026-04-07T11:39:12.788Z</time></trkpt><trkpt lat="38.8215983" lon="16.4615783"><ele>315.0</ele><time>2026-04-07T11:39:13.788Z</time></trkpt><trkpt lat="38.8216133" lon="16.4613967"><ele>315.0</ele><time>2026-04-07T11:39:14.788Z</time></trkpt><trkpt lat="38.821635" lon="16.4612467"><ele>315.0</ele><time>2026-04-07T11:39:15.788Z</time></trkpt><trkpt lat="38.82167" lon="16.4611217"><ele>315.0</ele><time>2026-04-07T11:39:16.788Z</time></trkpt><trkpt lat="38.8217283" lon="16.46102"><ele>313.6</ele><time>2026-04-07T11:39:17.788Z</time></trkpt><trkpt lat="38.821815" lon="16.4609667"><ele>312.2</ele><time>2026-04-07T11:39:18.789Z</time></trkpt><trkpt lat="38.8219117" lon="16.46095"><ele>310.8</ele><time>2026-04-07T11:39:19.789Z</time></trkpt><trkpt lat="38.822025" lon="16.4609367"><ele>309.4</ele><time>2026-04-07T11:39:20.788Z</time></trkpt><trkpt lat="38.8221467" lon="16.4609"><ele>308.0</ele><time>2026-04-07T11:39:21.788Z</time></trkpt><trkpt lat="38.8222633" lon="16.4608333"><ele>313.25</ele><time>2026-04-07T11:39:22.788Z</time></trkpt><trkpt lat="38.822375" lon="16.4607583"><ele>318.5</ele><time>2026-04-07T11:39:23.789Z</time></trkpt><trkpt lat="38.82248" lon="16.4607083"><ele>323.75</ele><time>2026-04-07T11:39:24.789Z</time></trkpt><trkpt lat="38.822595" lon="16.4606833"><ele>329.0</ele><time>2026-04-07T11:39:25.789Z</time></trkpt><trkpt lat="38.8227117" lon="16.4607"><ele>331.5</ele><time>2026-04-07T11:39:26.788Z</time></trkpt><trkpt lat="38.82282" lon="16.4607683"><ele>334.0</ele><time>2026-04-07T11:39:27.788Z</time></trkpt><trkpt lat="38.82292" lon="16.4608683"><ele>336.5</ele><time>2026-04-07T11:39:28.788Z</time></trkpt><trkpt lat="38.8230117" lon="16.4610183"><ele>339.0</ele><time>2026-04-07T11:39:29.788Z</time></trkpt><trkpt lat="38.82309" lon="16.4611617"><ele>338.75</ele><time>2026-04-07T11:39:30.789Z</time></trkpt><trkpt lat="38.8231717" lon="16.4612883"><ele>338.5</ele><time>2026-04-07T11:39:31.789Z</time></trkpt><trkpt lat="38.8232617" lon="16.461405"><ele>338.25</ele><time>2026-04-07T11:39:32.788Z</time></trkpt><trkpt lat="38.8233617" lon="16.4614867"><ele>338.0</ele><time>2026-04-07T11:39:33.788Z</time></trkpt><trkpt lat="38.82345" lon="16.4615317"><ele>337.5</ele><time>2026-04-07T11:39:34.788Z</time></trkpt><trkpt lat="38.8235333" lon="16.4615567"><ele>337.0</ele><time>2026-04-07T11:39:35.788Z</time></trkpt><trkpt lat="38.8236217" lon="16.4615667"><ele>336.5</ele><time>2026-04-07T11:39:36.788Z</time></trkpt><trkpt lat="38.8236917" lon="16.46159"><ele>336.0</ele><time>2026-04-07T11:39:37.788Z</time></trkpt><trkpt lat="38.8238167" lon="16.461615"><ele>335.5</ele><time>2026-04-07T11:39:39.789Z</time></trkpt><trkpt lat="38.8238833" lon="16.46162"><ele>335.0</ele><time>2026-04-07T11:39:40.789Z</time></trkpt><trkpt lat="38.823955" lon="16.4616183"><ele>335.0</ele><time>2026-04-07T11:39:41.788Z</time></trkpt><trkpt lat="38.8240283" lon="16.4616083"><ele>335.0</ele><time>2026-04-07T11:39:42.789Z</time></trkpt><trkpt lat="38.824115" lon="16.4615767"><ele>335.0</ele><time>2026-04-07T11:39:43.788Z</time></trkpt><trkpt lat="38.8242083" lon="16.4615217"><ele>335.0</ele><time>2026-04-07T11:39:44.789Z</time></trkpt><trkpt lat="38.82431" lon="16.461465"><ele>335.0</ele><time>2026-04-07T11:39:45.788Z</time></trkpt><trkpt lat="38.824415" lon="16.46139"><ele>335.25</ele><time>2026-04-07T11:39:46.789Z</time></trkpt><trkpt lat="38.8245233" lon="16.4613217"><ele>335.5</ele><time>2026-04-07T11:39:47.789Z</time></trkpt><trkpt lat="38.8246333" lon="16.4612533"><ele>335.75</ele><time>2026-04-07T11:39:48.788Z</time></trkpt><trkpt lat="38.8247583" lon="16.4611717"><ele>336.0</ele><time>2026-04-07T11:39:49.788Z</time></trkpt><trkpt lat="38.8248883" lon="16.4610817"><ele>336.0</ele><time>2026-04-07T11:39:50.789Z</time></trkpt><trkpt lat="38.82503" lon="16.4609883"><ele>336.0</ele><time>2026-04-07T11:39:51.788Z</time></trkpt><trkpt lat="38.8251833" lon="16.46089"><ele>336.0</ele><time>2026-04-07T11:39:52.789Z</time></trkpt><trkpt lat="38.8253567" lon="16.460775"><ele>335.0</ele><time>2026-04-07T11:39:53.788Z</time></trkpt><trkpt lat="38.82554" lon="16.46065"><ele>334.0</ele><time>2026-04-07T11:39:54.789Z</time></trkpt><trkpt lat="38.8257367" lon="16.4605217"><ele>333.0</ele><time>2026-04-07T11:39:55.788Z</time></trkpt><trkpt lat="38.8259417" lon="16.4603833"><ele>333.5</ele><time>2026-04-07T11:39:56.788Z</time></trkpt><trkpt lat="38.8261433" lon="16.4602383"><ele>334.0</ele><time>2026-04-07T11:39:57.788Z</time></trkpt><trkpt lat="38.826345" lon="16.4600867"><ele>334.0</ele><time>2026-04-07T11:39:58.788Z</time></trkpt><trkpt lat="38.826535" lon="16.4599383"><ele>334.0</ele><time>2026-04-07T11:39:59.789Z</time></trkpt><trkpt lat="38.826705" lon="16.459785"><ele>334.0</ele><time>2026-04-07T11:40:00.788Z</time></trkpt><trkpt lat="38.826875" lon="16.4596417"><ele>334.3333333333333</ele><time>2026-04-07T11:40:01.789Z</time></trkpt><trkpt lat="38.8270233" lon="16.4595083"><ele>334.6666666666667</ele><time>2026-04-07T11:40:02.788Z</time></trkpt><trkpt lat="38.8271483" lon="16.4593933"><ele>335.0</ele><time>2026-04-07T11:40:03.788Z</time></trkpt><trkpt lat="38.8272717" lon="16.4592967"><ele>335.0</ele><time>2026-04-07T11:40:04.789Z</time></trkpt><trkpt lat="38.8274" lon="16.459215"><ele>335.0</ele><time>2026-04-07T11:40:05.788Z</time></trkpt><trkpt lat="38.8275417" lon="16.4591433"><ele>335.0</ele><time>2026-04-07T11:40:06.788Z</time></trkpt><trkpt lat="38.82768" lon="16.4590733"><ele>335.0</ele><time>2026-04-07T11:40:07.789Z</time></trkpt><trkpt lat="38.82782" lon="16.4589983"><ele>334.75</ele><time>2026-04-07T11:40:08.788Z</time></trkpt><trkpt lat="38.8279533" lon="16.458925"><ele>334.5</ele><time>2026-04-07T11:40:09.788Z</time></trkpt><trkpt lat="38.8280617" lon="16.4588633"><ele>334.25</ele><time>2026-04-07T11:40:10.789Z</time></trkpt><trkpt lat="38.8281633" lon="16.4588117"><ele>334.0</ele><time>2026-04-07T11:40:11.788Z</time></trkpt><trkpt lat="38.82825" lon="16.458775"><ele>334.0</ele><time>2026-04-07T11:40:12.789Z</time></trkpt><trkpt lat="38.828325" lon="16.4587817"><ele>334.0</ele><time>2026-04-07T11:40:13.788Z</time></trkpt><trkpt lat="38.8284083" lon="16.4588733"><ele>334.0</ele><time>2026-04-07T11:40:15.788Z</time></trkpt><trkpt lat="38.8284183" lon="16.4590583"><ele>334.0</ele><time>2026-04-07T11:40:17.788Z</time></trkpt><trkpt lat="38.8284083" lon="16.4591733"><ele>334.0</ele><time>2026-04-07T11:40:18.788Z</time></trkpt><trkpt lat="38.8284067" lon="16.4593317"><ele>334.0</ele><time>2026-04-07T11:40:19.788Z</time></trkpt><trkpt lat="38.8284117" lon="16.4595217"><ele>334.0</ele><time>2026-04-07T11:40:20.789Z</time></trkpt><trkpt lat="38.8284267" lon="16.4597383"><ele>334.0</ele><time>2026-04-07T11:40:21.789Z</time></trkpt><trkpt lat="38.82844" lon="16.4599983"><ele>332.5</ele><time>2026-04-07T11:40:22.788Z</time></trkpt><trkpt lat="38.828445" lon="16.4602833"><ele>331.0</ele><time>2026-04-07T11:40:23.788Z</time></trkpt><trkpt lat="38.8284533" lon="16.46058"><ele>329.0</ele><time>2026-04-07T11:40:24.788Z</time></trkpt><trkpt lat="38.8284533" lon="16.460895"><ele>327.0</ele><time>2026-04-07T11:40:25.788Z</time></trkpt><trkpt lat="38.8284617" lon="16.4612267"><ele>325.0</ele><time>2026-04-07T11:40:26.789Z</time></trkpt><trkpt lat="38.82846" lon="16.461585"><ele>323.0</ele><time>2026-04-07T11:40:27.788Z</time></trkpt><trkpt lat="38.82847" lon="16.4619383"><ele>318.5</ele><time>2026-04-07T11:40:28.788Z</time></trkpt><trkpt lat="38.8284783" lon="16.4622983"><ele>314.0</ele><time>2026-04-07T11:40:29.788Z</time></trkpt><trkpt lat="38.8284767" lon="16.462655"><ele>313.5</ele><time>2026-04-07T11:40:30.788Z</time></trkpt><trkpt lat="38.8284833" lon="16.4630067"><ele>313.0</ele><time>2026-04-07T11:40:31.789Z</time></trkpt><trkpt lat="38.8284833" lon="16.4633483"><ele>313.0</ele><time>2026-04-07T11:40:32.788Z</time></trkpt><trkpt lat="38.8284883" lon="16.4636883"><ele>313.0</ele><time>2026-04-07T11:40:33.788Z</time></trkpt><trkpt lat="38.82849" lon="16.4640183"><ele>313.0</ele><time>2026-04-07T11:40:34.788Z</time></trkpt><trkpt lat="38.8284967" lon="16.464335"><ele>313.0</ele><time>2026-04-07T11:40:35.788Z</time></trkpt><trkpt lat="38.8285033" lon="16.4646317"><ele>312.66666666666663</ele><time>2026-04-07T11:40:36.788Z</time></trkpt><trkpt lat="38.8285017" lon="16.4649183"><ele>312.3333333333333</ele><time>2026-04-07T11:40:37.788Z</time></trkpt><trkpt lat="38.8285033" lon="16.4651883"><ele>312.0</ele><time>2026-04-07T11:40:38.788Z</time></trkpt><trkpt lat="38.82851" lon="16.4654633"><ele>312.0</ele><time>2026-04-07T11:40:39.789Z</time></trkpt><trkpt lat="38.828515" lon="16.46574"><ele>312.0</ele><time>2026-04-07T11:40:40.789Z</time></trkpt><trkpt lat="38.828515" lon="16.4660183"><ele>312.0</ele><time>2026-04-07T11:40:41.788Z</time></trkpt><trkpt lat="38.82852" lon="16.4663067"><ele>311.6666666666667</ele><time>2026-04-07T11:40:42.788Z</time></trkpt><trkpt lat="38.8285233" lon="16.466575"><ele>311.33333333333337</ele><time>2026-04-07T11:40:43.789Z</time></trkpt><trkpt lat="38.828525" lon="16.4668483"><ele>311.0</ele><time>2026-04-07T11:40:44.788Z</time></trkpt><trkpt lat="38.8285267" lon="16.4671283"><ele>311.0</ele><time>2026-04-07T11:40:45.789Z</time></trkpt><trkpt lat="38.8285317" lon="16.4674067"><ele>311.0</ele><time>2026-04-07T11:40:46.788Z</time></trkpt><trkpt lat="38.8285417" lon="16.46769"><ele>311.0</ele><time>2026-04-07T11:40:47.788Z</time></trkpt><trkpt lat="38.8285467" lon="16.4679733"><ele>311.0</ele><time>2026-04-07T11:40:48.788Z</time></trkpt><trkpt lat="38.8285517" lon="16.468275"><ele>311.0</ele><time>2026-04-07T11:40:49.788Z</time></trkpt><trkpt lat="38.828555" lon="16.4685617"><ele>312.33333333333337</ele><time>2026-04-07T11:40:50.789Z</time></trkpt><trkpt lat="38.8285667" lon="16.46882"><ele>313.6666666666667</ele><time>2026-04-07T11:40:51.788Z</time></trkpt><trkpt lat="38.82857" lon="16.4690617"><ele>315.0</ele><time>2026-04-07T11:40:52.788Z</time></trkpt><trkpt lat="38.8285717" lon="16.469305"><ele>315.0</ele><time>2026-04-07T11:40:53.788Z</time></trkpt><trkpt lat="38.8285683" lon="16.4695583"><ele>315.0</ele><time>2026-04-07T11:40:54.788Z</time></trkpt><trkpt lat="38.8285717" lon="16.4698283"><ele>315.0</ele><time>2026-04-07T11:40:55.789Z</time></trkpt><trkpt lat="38.8285833" lon="16.4700883"><ele>315.3333333333333</ele><time>2026-04-07T11:40:56.789Z</time></trkpt><trkpt lat="38.8285833" lon="16.4703567"><ele>315.66666666666663</ele><time>2026-04-07T11:40:57.789Z</time></trkpt><trkpt lat="38.828585" lon="16.4706367"><ele>316.0</ele><time>2026-04-07T11:40:58.788Z</time></trkpt><trkpt lat="38.828585" lon="16.47092"><ele>316.0</ele><time>2026-04-07T11:40:59.788Z</time></trkpt><trkpt lat="38.8285883" lon="16.4712067"><ele>316.0</ele><time>2026-04-07T11:41:00.788Z</time></trkpt><trkpt lat="38.828595" lon="16.471495"><ele>316.0</ele><time>2026-04-07T11:41:01.788Z</time></trkpt><trkpt lat="38.8286" lon="16.471785"><ele>317.0</ele><time>2026-04-07T11:41:02.788Z</time></trkpt><trkpt lat="38.828605" lon="16.47208"><ele>318.0</ele><time>2026-04-07T11:41:03.788Z</time></trkpt><trkpt lat="38.82861" lon="16.4723717"><ele>318.3333333333333</ele><time>2026-04-07T11:41:04.789Z</time></trkpt><trkpt lat="38.8286183" lon="16.4726567"><ele>318.66666666666663</ele><time>2026-04-07T11:41:05.789Z</time></trkpt><trkpt lat="38.8286183" lon="16.4729467"><ele>319.0</ele><time>2026-04-07T11:41:06.788Z</time></trkpt><trkpt lat="38.8286183" lon="16.4732367"><ele>319.0</ele><time>2026-04-07T11:41:07.788Z</time></trkpt><trkpt lat="38.8286183" lon="16.4735333"><ele>319.0</ele><time>2026-04-07T11:41:08.789Z</time></trkpt><trkpt lat="38.8286217" lon="16.4738333"><ele>319.0</ele><time>2026-04-07T11:41:09.788Z</time></trkpt><trkpt lat="38.8286317" lon="16.4741433"><ele>319.0</ele><time>2026-04-07T11:41:10.789Z</time></trkpt><trkpt lat="38.8286383" lon="16.47446"><ele>319.0</ele><time>2026-04-07T11:41:11.788Z</time></trkpt><trkpt lat="38.828645" lon="16.4747867"><ele>319.0</ele><time>2026-04-07T11:41:12.789Z</time></trkpt><trkpt lat="38.8286517" lon="16.4751217"><ele>319.5</ele><time>2026-04-07T11:41:13.788Z</time></trkpt><trkpt lat="38.82866" lon="16.4754567"><ele>320.0</ele><time>2026-04-07T11:41:14.788Z</time></trkpt><trkpt lat="38.8286633" lon="16.475805"><ele>320.0</ele><time>2026-04-07T11:41:15.788Z</time></trkpt><trkpt lat="38.82867" lon="16.47615"><ele>320.0</ele><time>2026-04-07T11:41:16.788Z</time></trkpt><trkpt lat="38.8286717" lon="16.4764933"><ele>321.0</ele><time>2026-04-07T11:41:17.789Z</time></trkpt><trkpt lat="38.8286733" lon="16.4768367"><ele>322.0</ele><time>2026-04-07T11:41:18.789Z</time></trkpt><trkpt lat="38.8286783" lon="16.477175"><ele>322.5</ele><time>2026-04-07T11:41:19.788Z</time></trkpt><trkpt lat="38.828685" lon="16.47751"><ele>323.0</ele><time>2026-04-07T11:41:20.788Z</time></trkpt><trkpt lat="38.8286933" lon="16.477845"><ele>323.0</ele><time>2026-04-07T11:41:21.788Z</time></trkpt><trkpt lat="38.82869" lon="16.4781783"><ele>323.0</ele><time>2026-04-07T11:41:22.788Z</time></trkpt><trkpt lat="38.82869" lon="16.4785133"><ele>325.5</ele><time>2026-04-07T11:41:23.789Z</time></trkpt><trkpt lat="38.8286983" lon="16.47885"><ele>328.0</ele><time>2026-04-07T11:41:24.789Z</time></trkpt><trkpt lat="38.8287017" lon="16.4791817"><ele>328.0</ele><time>2026-04-07T11:41:25.788Z</time></trkpt><trkpt lat="38.828715" lon="16.4795133"><ele>328.0</ele><time>2026-04-07T11:41:26.789Z</time></trkpt><trkpt lat="38.828715" lon="16.4798417"><ele>328.5</ele><time>2026-04-07T11:41:27.788Z</time></trkpt><trkpt lat="38.8287117" lon="16.48017"><ele>329.0</ele><time>2026-04-07T11:41:28.788Z</time></trkpt><trkpt lat="38.8287183" lon="16.4804967"><ele>329.5</ele><time>2026-04-07T11:41:29.788Z</time></trkpt><trkpt lat="38.8287233" lon="16.4808283"><ele>330.0</ele><time>2026-04-07T11:41:30.788Z</time></trkpt><trkpt lat="38.828725" lon="16.4811617"><ele>331.5</ele><time>2026-04-07T11:41:31.789Z</time></trkpt><trkpt lat="38.828735" lon="16.48149"><ele>333.0</ele><time>2026-04-07T11:41:32.788Z</time></trkpt><trkpt lat="38.8287367" lon="16.4818083"><ele>334.0</ele><time>2026-04-07T11:41:33.789Z</time></trkpt><trkpt lat="38.8287467" lon="16.4821317"><ele>335.0</ele><time>2026-04-07T11:41:34.789Z</time></trkpt><trkpt lat="38.8287567" lon="16.4824267"><ele>335.0</ele><time>2026-04-07T11:41:35.788Z</time></trkpt><trkpt lat="38.828765" lon="16.482705"><ele>335.0</ele><time>2026-04-07T11:41:36.788Z</time></trkpt><trkpt lat="38.8287667" lon="16.4829817"><ele>335.0</ele><time>2026-04-07T11:41:37.788Z</time></trkpt><trkpt lat="38.8287683" lon="16.4832633"><ele>336.0</ele><time>2026-04-07T11:41:38.788Z</time></trkpt><trkpt lat="38.8287683" lon="16.4835383"><ele>337.0</ele><time>2026-04-07T11:41:39.789Z</time></trkpt><trkpt lat="38.8287667" lon="16.48382"><ele>338.0</ele><time>2026-04-07T11:41:40.788Z</time></trkpt><trkpt lat="38.8287733" lon="16.4840883"><ele>338.33333333333337</ele><time>2026-04-07T11:41:41.788Z</time></trkpt><trkpt lat="38.8287767" lon="16.4843417"><ele>338.6666666666667</ele><time>2026-04-07T11:41:42.789Z</time></trkpt><trkpt lat="38.828785" lon="16.4845833"><ele>339.0</ele><time>2026-04-07T11:41:43.789Z</time></trkpt><trkpt lat="38.8287933" lon="16.4848067"><ele>339.3333333333333</ele><time>2026-04-07T11:41:44.788Z</time></trkpt><trkpt lat="38.8287967" lon="16.48501"><ele>339.66666666666663</ele><time>2026-04-07T11:41:45.788Z</time></trkpt><trkpt lat="38.8288017" lon="16.4852067"><ele>340.0</ele><time>2026-04-07T11:41:46.789Z</time></trkpt><trkpt lat="38.8288167" lon="16.485405"><ele>340.0</ele><time>2026-04-07T11:41:47.789Z</time></trkpt><trkpt lat="38.8288367" lon="16.4856017"><ele>340.0</ele><time>2026-04-07T11:41:48.788Z</time></trkpt><trkpt lat="38.82886" lon="16.4858017"><ele>340.0</ele><time>2026-04-07T11:41:49.789Z</time></trkpt><trkpt lat="38.82888" lon="16.4860033"><ele>340.0</ele><time>2026-04-07T11:41:50.788Z</time></trkpt><trkpt lat="38.8289" lon="16.4861983"><ele>340.0</ele><time>2026-04-07T11:41:51.788Z</time></trkpt><trkpt lat="38.82892" lon="16.48639"><ele>340.0</ele><time>2026-04-07T11:41:52.788Z</time></trkpt><trkpt lat="38.8289533" lon="16.4865533"><ele>340.0</ele><time>2026-04-07T11:41:53.788Z</time></trkpt><trkpt lat="38.8289683" lon="16.48673"><ele>339.8</ele><time>2026-04-07T11:41:54.789Z</time></trkpt><trkpt lat="38.8289817" lon="16.4868867"><ele>339.6</ele><time>2026-04-07T11:41:55.788Z</time></trkpt><trkpt lat="38.8289967" lon="16.4870267"><ele>339.4</ele><time>2026-04-07T11:41:56.789Z</time></trkpt><trkpt lat="38.8290167" lon="16.4871583"><ele>339.2</ele><time>2026-04-07T11:41:57.789Z</time></trkpt><trkpt lat="38.82903" lon="16.487265"><ele>339.0</ele><time>2026-04-07T11:41:58.788Z</time></trkpt><trkpt lat="38.8290533" lon="16.4873567"><ele>339.5</ele><time>2026-04-07T11:41:59.788Z</time></trkpt><trkpt lat="38.82912" lon="16.4874467"><ele>340.0</ele><time>2026-04-07T11:42:01.788Z</time></trkpt><trkpt lat="38.8292017" lon="16.4874383"><ele>340.5</ele><time>2026-04-07T11:42:03.788Z</time></trkpt><trkpt lat="38.8292567" lon="16.4873917"><ele>341.0</ele><time>2026-04-07T11:42:04.789Z</time></trkpt><trkpt lat="38.8293183" lon="16.4873217"><ele>341.5</ele><time>2026-04-07T11:42:05.788Z</time></trkpt><trkpt lat="38.8294067" lon="16.4872283"><ele>342.0</ele><time>2026-04-07T11:42:06.788Z</time></trkpt><trkpt lat="38.82951" lon="16.4871233"><ele>342.0</ele><time>2026-04-07T11:42:07.789Z</time></trkpt><trkpt lat="38.8296317" lon="16.4869967"><ele>342.0</ele><time>2026-04-07T11:42:08.789Z</time></trkpt><trkpt lat="38.829755" lon="16.4868767"><ele>342.0</ele><time>2026-04-07T11:42:09.789Z</time></trkpt><trkpt lat="38.8298767" lon="16.48675"><ele>342.0</ele><time>2026-04-07T11:42:10.788Z</time></trkpt><trkpt lat="38.8299983" lon="16.486605"><ele>342.0</ele><time>2026-04-07T11:42:11.788Z</time></trkpt><trkpt lat="38.8301133" lon="16.4864317"><ele>342.0</ele><time>2026-04-07T11:42:12.789Z</time></trkpt><trkpt lat="38.8302367" lon="16.4862533"><ele>341.3333333333333</ele><time>2026-04-07T11:42:13.788Z</time></trkpt><trkpt lat="38.8303467" lon="16.486055"><ele>340.66666666666663</ele><time>2026-04-07T11:42:14.788Z</time></trkpt><trkpt lat="38.8304517" lon="16.485855"><ele>340.0</ele><time>2026-04-07T11:42:15.788Z</time></trkpt><trkpt lat="38.8305483" lon="16.4856583"><ele>340.0</ele><time>2026-04-07T11:42:16.788Z</time></trkpt><trkpt lat="38.830655" lon="16.4854583"><ele>340.0</ele><time>2026-04-07T11:42:17.788Z</time></trkpt><trkpt lat="38.8307533" lon="16.4852567"><ele>340.0</ele><time>2026-04-07T11:42:18.788Z</time></trkpt><trkpt lat="38.8308517" lon="16.4850833"><ele>339.3333333333333</ele><time>2026-04-07T11:42:19.788Z</time></trkpt><trkpt lat="38.8309533" lon="16.4849183"><ele>338.6666666666667</ele><time>2026-04-07T11:42:20.788Z</time></trkpt><trkpt lat="38.831045" lon="16.4847633"><ele>338.0</ele><time>2026-04-07T11:42:21.788Z</time></trkpt><trkpt lat="38.8311433" lon="16.4846167"><ele>337.33333333333337</ele><time>2026-04-07T11:42:22.788Z</time></trkpt><trkpt lat="38.83126" lon="16.4844833"><ele>336.6666666666667</ele><time>2026-04-07T11:42:23.789Z</time></trkpt><trkpt lat="38.83138" lon="16.4843433"><ele>336.0</ele><time>2026-04-07T11:42:24.788Z</time></trkpt><trkpt lat="38.8315133" lon="16.4842067"><ele>336.0</ele><time>2026-04-07T11:42:25.788Z</time></trkpt><trkpt lat="38.8316517" lon="16.4840617"><ele>336.0</ele><time>2026-04-07T11:42:26.788Z</time></trkpt><trkpt lat="38.8318017" lon="16.4839133"><ele>336.0</ele><time>2026-04-07T11:42:27.789Z</time></trkpt><trkpt lat="38.8319517" lon="16.4837867"><ele>335.0</ele><time>2026-04-07T11:42:28.789Z</time></trkpt><trkpt lat="38.8320983" lon="16.4836767"><ele>334.0</ele><time>2026-04-07T11:42:29.789Z</time></trkpt><trkpt lat="38.8322383" lon="16.4835667"><ele>333.0</ele><time>2026-04-07T11:42:30.788Z</time></trkpt><trkpt lat="38.83239" lon="16.4834683"><ele>333.0</ele><time>2026-04-07T11:42:31.788Z</time></trkpt><trkpt lat="38.8325433" lon="16.4833867"><ele>333.0</ele><time>2026-04-07T11:42:32.788Z</time></trkpt><trkpt lat="38.8326967" lon="16.4833067"><ele>333.0</ele><time>2026-04-07T11:42:33.788Z</time></trkpt><trkpt lat="38.8328517" lon="16.4832333"><ele>333.3333333333333</ele><time>2026-04-07T11:42:34.789Z</time></trkpt><trkpt lat="38.8330083" lon="16.4831567"><ele>333.66666666666663</ele><time>2026-04-07T11:42:35.788Z</time></trkpt><trkpt lat="38.8331617" lon="16.4830667"><ele>334.0</ele><time>2026-04-07T11:42:36.789Z</time></trkpt><trkpt lat="38.8333167" lon="16.4829583"><ele>334.0</ele><time>2026-04-07T11:42:37.788Z</time></trkpt><trkpt lat="38.8334717" lon="16.482845"><ele>334.0</ele><time>2026-04-07T11:42:38.788Z</time></trkpt><trkpt lat="38.8336167" lon="16.482715"><ele>334.0</ele><time>2026-04-07T11:42:39.788Z</time></trkpt><trkpt lat="38.8337567" lon="16.48257"><ele>334.66666666666663</ele><time>2026-04-07T11:42:40.788Z</time></trkpt><trkpt lat="38.833895" lon="16.4824267"><ele>335.3333333333333</ele><time>2026-04-07T11:42:41.789Z</time></trkpt><trkpt lat="38.83404" lon="16.4822733"><ele>336.0</ele><time>2026-04-07T11:42:42.788Z</time></trkpt><trkpt lat="38.8341817" lon="16.4821083"><ele>335.0</ele><time>2026-04-07T11:42:43.788Z</time></trkpt><trkpt lat="38.8343367" lon="16.481945"><ele>334.0</ele><time>2026-04-07T11:42:44.789Z</time></trkpt><trkpt lat="38.8344983" lon="16.4817767"><ele>333.0</ele><time>2026-04-07T11:42:45.788Z</time></trkpt><trkpt lat="38.8346517" lon="16.48161"><ele>333.0</ele><time>2026-04-07T11:42:46.788Z</time></trkpt><trkpt lat="38.8347983" lon="16.4814367"><ele>333.0</ele><time>2026-04-07T11:42:47.788Z</time></trkpt><trkpt lat="38.8349333" lon="16.4812617"><ele>333.0</ele><time>2026-04-07T11:42:48.788Z</time></trkpt><trkpt lat="38.835065" lon="16.4810817"><ele>333.3333333333333</ele><time>2026-04-07T11:42:49.789Z</time></trkpt><trkpt lat="38.835185" lon="16.48092"><ele>333.66666666666663</ele><time>2026-04-07T11:42:50.789Z</time></trkpt><trkpt lat="38.835315" lon="16.4807533"><ele>334.0</ele><time>2026-04-07T11:42:51.788Z</time></trkpt><trkpt lat="38.8354583" lon="16.4805917"><ele>334.0</ele><time>2026-04-07T11:42:52.789Z</time></trkpt><trkpt lat="38.8356033" lon="16.4804467"><ele>334.0</ele><time>2026-04-07T11:42:53.788Z</time></trkpt><trkpt lat="38.83576" lon="16.480315"><ele>334.0</ele><time>2026-04-07T11:42:54.788Z</time></trkpt><trkpt lat="38.8359167" lon="16.4802033"><ele>334.66666666666663</ele><time>2026-04-07T11:42:55.788Z</time></trkpt><trkpt lat="38.8360733" lon="16.4800867"><ele>335.3333333333333</ele><time>2026-04-07T11:42:56.789Z</time></trkpt><trkpt lat="38.8362283" lon="16.4799767"><ele>336.0</ele><time>2026-04-07T11:42:57.788Z</time></trkpt><trkpt lat="38.83637" lon="16.47987"><ele>336.0</ele><time>2026-04-07T11:42:58.788Z</time></trkpt><trkpt lat="38.836515" lon="16.4797833"><ele>336.0</ele><time>2026-04-07T11:42:59.788Z</time></trkpt><trkpt lat="38.8366617" lon="16.4797183"><ele>336.0</ele><time>2026-04-07T11:43:00.788Z</time></trkpt><trkpt lat="38.8368117" lon="16.4796583"><ele>336.6666666666667</ele><time>2026-04-07T11:43:01.789Z</time></trkpt><trkpt lat="38.8369567" lon="16.479605"><ele>337.33333333333337</ele><time>2026-04-07T11:43:02.788Z</time></trkpt><trkpt lat="38.8371117" lon="16.4795517"><ele>338.0</ele><time>2026-04-07T11:43:03.788Z</time></trkpt><trkpt lat="38.8372633" lon="16.4795083"><ele>338.0</ele><time>2026-04-07T11:43:04.788Z</time></trkpt><trkpt lat="38.8374183" lon="16.47946"><ele>338.0</ele><time>2026-04-07T11:43:05.789Z</time></trkpt><trkpt lat="38.8375817" lon="16.4794167"><ele>338.0</ele><time>2026-04-07T11:43:06.788Z</time></trkpt><trkpt lat="38.8377533" lon="16.4793817"><ele>338.0</ele><time>2026-04-07T11:43:07.788Z</time></trkpt><trkpt lat="38.837925" lon="16.479355"><ele>338.0</ele><time>2026-04-07T11:43:08.788Z</time></trkpt><trkpt lat="38.8381117" lon="16.47933"><ele>338.0</ele><time>2026-04-07T11:43:09.788Z</time></trkpt><trkpt lat="38.8383017" lon="16.4793067"><ele>337.6666666666667</ele><time>2026-04-07T11:43:10.788Z</time></trkpt><trkpt lat="38.8384933" lon="16.479295"><ele>337.3333333333333</ele><time>2026-04-07T11:43:11.788Z</time></trkpt><trkpt lat="38.838675" lon="16.4792783"><ele>337.0</ele><time>2026-04-07T11:43:12.788Z</time></trkpt><trkpt lat="38.838845" lon="16.479235"><ele>337.0</ele><time>2026-04-07T11:43:13.788Z</time></trkpt><trkpt lat="38.8390017" lon="16.4791567"><ele>337.0</ele><time>2026-04-07T11:43:14.788Z</time></trkpt><trkpt lat="38.8391483" lon="16.4790267"><ele>337.0</ele><time>2026-04-07T11:43:15.788Z</time></trkpt><trkpt lat="38.8392967" lon="16.47888"><ele>337.66666666666663</ele><time>2026-04-07T11:43:16.788Z</time></trkpt><trkpt lat="38.8394517" lon="16.4787517"><ele>338.3333333333333</ele><time>2026-04-07T11:43:17.789Z</time></trkpt><trkpt lat="38.8396067" lon="16.478625"><ele>339.0</ele><time>2026-04-07T11:43:18.788Z</time></trkpt><trkpt lat="38.8397583" lon="16.47853"><ele>339.0</ele><time>2026-04-07T11:43:19.789Z</time></trkpt><trkpt lat="38.8399217" lon="16.4784583"><ele>339.0</ele><time>2026-04-07T11:43:20.788Z</time></trkpt><trkpt lat="38.8400867" lon="16.4784"><ele>339.0</ele><time>2026-04-07T11:43:21.788Z</time></trkpt><trkpt lat="38.840265" lon="16.4783467"><ele>339.3333333333333</ele><time>2026-04-07T11:43:22.789Z</time></trkpt><trkpt lat="38.84044" lon="16.4783067"><ele>339.66666666666663</ele><time>2026-04-07T11:43:23.788Z</time></trkpt><trkpt lat="38.8406317" lon="16.47826"><ele>340.0</ele><time>2026-04-07T11:43:24.789Z</time></trkpt><trkpt lat="38.8408233" lon="16.4782067"><ele>340.0</ele><time>2026-04-07T11:43:25.788Z</time></trkpt><trkpt lat="38.8410083" lon="16.4781517"><ele>340.0</ele><time>2026-04-07T11:43:26.788Z</time></trkpt><trkpt lat="38.8412033" lon="16.4780867"><ele>340.0</ele><time>2026-04-07T11:43:27.789Z</time></trkpt><trkpt lat="38.841395" lon="16.4780183"><ele>340.0</ele><time>2026-04-07T11:43:28.789Z</time></trkpt><trkpt lat="38.8415867" lon="16.4779567"><ele>340.0</ele><time>2026-04-07T11:43:29.789Z</time></trkpt><trkpt lat="38.8417483" lon="16.477895"><ele>340.0</ele><time>2026-04-07T11:43:30.788Z</time></trkpt><trkpt lat="38.8418883" lon="16.4778283"><ele>340.0</ele><time>2026-04-07T11:43:31.788Z</time></trkpt><trkpt lat="38.84203" lon="16.477755"><ele>340.0</ele><time>2026-04-07T11:43:32.788Z</time></trkpt><trkpt lat="38.842165" lon="16.4776417"><ele>340.0</ele><time>2026-04-07T11:43:33.789Z</time></trkpt><trkpt lat="38.8423067" lon="16.4775083"><ele>340.0</ele><time>2026-04-07T11:43:34.788Z</time></trkpt><trkpt lat="38.84245" lon="16.4773767"><ele>340.0</ele><time>2026-04-07T11:43:35.788Z</time></trkpt><trkpt lat="38.8425817" lon="16.477255"><ele>340.0</ele><time>2026-04-07T11:43:36.788Z</time></trkpt><trkpt lat="38.842715" lon="16.477155"><ele>339.0</ele><time>2026-04-07T11:43:37.788Z</time></trkpt><trkpt lat="38.8428533" lon="16.4771067"><ele>338.0</ele><time>2026-04-07T11:43:38.788Z</time></trkpt><trkpt lat="38.84301" lon="16.477065"><ele>337.0</ele><time>2026-04-07T11:43:39.789Z</time></trkpt><trkpt lat="38.843175" lon="16.47702"><ele>337.0</ele><time>2026-04-07T11:43:40.788Z</time></trkpt><trkpt lat="38.8433317" lon="16.4769767"><ele>337.0</ele><time>2026-04-07T11:43:41.788Z</time></trkpt><trkpt lat="38.8434717" lon="16.4769417"><ele>337.0</ele><time>2026-04-07T11:43:42.788Z</time></trkpt><trkpt lat="38.8436033" lon="16.476925"><ele>337.0</ele><time>2026-04-07T11:43:43.789Z</time></trkpt><trkpt lat="38.843735" lon="16.4769467"><ele>336.0</ele><time>2026-04-07T11:43:44.788Z</time></trkpt><trkpt lat="38.843865" lon="16.4769783"><ele>335.0</ele><time>2026-04-07T11:43:45.788Z</time></trkpt><trkpt lat="38.8439933" lon="16.477"><ele>334.0</ele><time>2026-04-07T11:43:46.788Z</time></trkpt><trkpt lat="38.8441283" lon="16.4769883"><ele>333.0</ele><time>2026-04-07T11:43:47.788Z</time></trkpt><trkpt lat="38.84427" lon="16.4769517"><ele>332.3333333333333</ele><time>2026-04-07T11:43:48.789Z</time></trkpt><trkpt lat="38.8444133" lon="16.476905"><ele>331.66666666666663</ele><time>2026-04-07T11:43:49.789Z</time></trkpt><trkpt lat="38.8445633" lon="16.4768567"><ele>331.0</ele><time>2026-04-07T11:43:50.788Z</time></trkpt><trkpt lat="38.8447267" lon="16.476805"><ele>331.0</ele><time>2026-04-07T11:43:51.788Z</time></trkpt><trkpt lat="38.8448983" lon="16.4767567"><ele>331.0</ele><time>2026-04-07T11:43:52.788Z</time></trkpt><trkpt lat="38.8450583" lon="16.476705"><ele>331.0</ele><time>2026-04-07T11:43:53.789Z</time></trkpt><trkpt lat="38.8452217" lon="16.4766583"><ele>330.66666666666663</ele><time>2026-04-07T11:43:54.788Z</time></trkpt><trkpt lat="38.8453917" lon="16.4766117"><ele>330.3333333333333</ele><time>2026-04-07T11:43:55.789Z</time></trkpt><trkpt lat="38.84557" lon="16.476585"><ele>330.0</ele><time>2026-04-07T11:43:56.789Z</time></trkpt><trkpt lat="38.84576" lon="16.4765633"><ele>330.0</ele><time>2026-04-07T11:43:57.788Z</time></trkpt><trkpt lat="38.8459433" lon="16.4765433"><ele>330.0</ele><time>2026-04-07T11:43:58.788Z</time></trkpt><trkpt lat="38.8461233" lon="16.4765117"><ele>330.0</ele><time>2026-04-07T11:43:59.788Z</time></trkpt><trkpt lat="38.846315" lon="16.476485"><ele>330.3333333333333</ele><time>2026-04-07T11:44:00.789Z</time></trkpt><trkpt lat="38.846495" lon="16.4764483"><ele>330.66666666666663</ele><time>2026-04-07T11:44:01.788Z</time></trkpt><trkpt lat="38.84667" lon="16.4763983"><ele>331.0</ele><time>2026-04-07T11:44:02.789Z</time></trkpt><trkpt lat="38.8468417" lon="16.4763217"><ele>331.3333333333333</ele><time>2026-04-07T11:44:03.788Z</time></trkpt><trkpt lat="38.84701" lon="16.4762233"><ele>331.6666666666667</ele><time>2026-04-07T11:44:04.788Z</time></trkpt><trkpt lat="38.8471783" lon="16.4761"><ele>332.0</ele><time>2026-04-07T11:44:05.788Z</time></trkpt><trkpt lat="38.8473483" lon="16.4759683"><ele>332.0</ele><time>2026-04-07T11:44:06.789Z</time></trkpt><trkpt lat="38.8475183" lon="16.475835"><ele>332.0</ele><time>2026-04-07T11:44:07.788Z</time></trkpt><trkpt lat="38.8476933" lon="16.4757017"><ele>332.0</ele><time>2026-04-07T11:44:08.788Z</time></trkpt><trkpt lat="38.8478683" lon="16.475555"><ele>332.0</ele><time>2026-04-07T11:44:09.788Z</time></trkpt><trkpt lat="38.8480483" lon="16.47541"><ele>332.0</ele><time>2026-04-07T11:44:10.788Z</time></trkpt><trkpt lat="38.8482267" lon="16.4752667"><ele>332.0</ele><time>2026-04-07T11:44:11.788Z</time></trkpt><trkpt lat="38.8484017" lon="16.475125"><ele>334.33333333333337</ele><time>2026-04-07T11:44:12.788Z</time></trkpt><trkpt lat="38.84858" lon="16.4749883"><ele>336.6666666666667</ele><time>2026-04-07T11:44:13.788Z</time></trkpt><trkpt lat="38.8487433" lon="16.4748617"><ele>339.0</ele><time>2026-04-07T11:44:14.788Z</time></trkpt><trkpt lat="38.8489067" lon="16.4747517"><ele>339.0</ele><time>2026-04-07T11:44:15.788Z</time></trkpt><trkpt lat="38.84906" lon="16.47466"><ele>339.0</ele><time>2026-04-07T11:44:16.788Z</time></trkpt><trkpt lat="38.8492083" lon="16.4746117"><ele>339.0</ele><time>2026-04-07T11:44:17.788Z</time></trkpt><trkpt lat="38.8493667" lon="16.4745883"><ele>339.25</ele><time>2026-04-07T11:44:18.788Z</time></trkpt><trkpt lat="38.8495217" lon="16.4745933"><ele>339.5</ele><time>2026-04-07T11:44:19.789Z</time></trkpt><trkpt lat="38.8496633" lon="16.474605"><ele>339.75</ele><time>2026-04-07T11:44:20.788Z</time></trkpt><trkpt lat="38.8498" lon="16.4745883"><ele>340.0</ele><time>2026-04-07T11:44:21.789Z</time></trkpt><trkpt lat="38.8499067" lon="16.4745267"><ele>340.0</ele><time>2026-04-07T11:44:22.788Z</time></trkpt><trkpt lat="38.8499867" lon="16.4744117"><ele>340.0</ele><time>2026-04-07T11:44:23.788Z</time></trkpt><trkpt lat="38.850035" lon="16.4742567"><ele>340.0</ele><time>2026-04-07T11:44:24.788Z</time></trkpt><trkpt lat="38.8500767" lon="16.47408"><ele>340.0</ele><time>2026-04-07T11:44:25.788Z</time></trkpt><trkpt lat="38.85012" lon="16.4739117"><ele>340.75</ele><time>2026-04-07T11:44:26.789Z</time></trkpt><trkpt lat="38.8501783" lon="16.4737583"><ele>341.5</ele><time>2026-04-07T11:44:27.788Z</time></trkpt><trkpt lat="38.85025" lon="16.4736417"><ele>342.25</ele><time>2026-04-07T11:44:28.789Z</time></trkpt><trkpt lat="38.8503317" lon="16.4735617"><ele>343.0</ele><time>2026-04-07T11:44:29.788Z</time></trkpt><trkpt lat="38.85043" lon="16.4735267"><ele>343.0</ele><time>2026-04-07T11:44:30.788Z</time></trkpt><trkpt lat="38.8505533" lon="16.4735317"><ele>343.0</ele><time>2026-04-07T11:44:31.788Z</time></trkpt><trkpt lat="38.8506917" lon="16.4735517"><ele>343.0</ele><time>2026-04-07T11:44:32.788Z</time></trkpt><trkpt lat="38.8508233" lon="16.4735783"><ele>343.0</ele><time>2026-04-07T11:44:33.788Z</time></trkpt><trkpt lat="38.8509433" lon="16.4736"><ele>343.5</ele><time>2026-04-07T11:44:34.789Z</time></trkpt><trkpt lat="38.851055" lon="16.473575"><ele>344.0</ele><time>2026-04-07T11:44:35.788Z</time></trkpt><trkpt lat="38.851145" lon="16.4734867"><ele>344.5</ele><time>2026-04-07T11:44:36.789Z</time></trkpt><trkpt lat="38.851225" lon="16.4733633"><ele>345.0</ele><time>2026-04-07T11:44:37.788Z</time></trkpt><trkpt lat="38.8512833" lon="16.4732017"><ele>345.0</ele><time>2026-04-07T11:44:38.788Z</time></trkpt><trkpt lat="38.85134" lon="16.4730417"><ele>345.0</ele><time>2026-04-07T11:44:39.789Z</time></trkpt><trkpt lat="38.8514" lon="16.4729033"><ele>345.0</ele><time>2026-04-07T11:44:40.788Z</time></trkpt><trkpt lat="38.8514733" lon="16.4727717"><ele>345.0</ele><time>2026-04-07T11:44:41.788Z</time></trkpt><trkpt lat="38.8515683" lon="16.472655"><ele>343.25</ele><time>2026-04-07T11:44:42.788Z</time></trkpt><trkpt lat="38.8516733" lon="16.4725567"><ele>341.5</ele><time>2026-04-07T11:44:43.789Z</time></trkpt><trkpt lat="38.8517717" lon="16.472435"><ele>339.75</ele><time>2026-04-07T11:44:44.789Z</time></trkpt><trkpt lat="38.85185" lon="16.47229"><ele>338.0</ele><time>2026-04-07T11:44:45.788Z</time></trkpt><trkpt lat="38.85191" lon="16.4721267"><ele>336.75</ele><time>2026-04-07T11:44:46.788Z</time></trkpt><trkpt lat="38.8519883" lon="16.47196"><ele>335.5</ele><time>2026-04-07T11:44:47.789Z</time></trkpt><trkpt lat="38.8520733" lon="16.4718033"><ele>334.25</ele><time>2026-04-07T11:44:48.788Z</time></trkpt><trkpt lat="38.8521533" lon="16.471665"><ele>333.0</ele><time>2026-04-07T11:44:49.788Z</time></trkpt><trkpt lat="38.8522283" lon="16.471545"><ele>333.0</ele><time>2026-04-07T11:44:50.788Z</time></trkpt><trkpt lat="38.8523067" lon="16.4714533"><ele>333.0</ele><time>2026-04-07T11:44:51.789Z</time></trkpt><trkpt lat="38.8523983" lon="16.4714067"><ele>333.0</ele><time>2026-04-07T11:44:52.788Z</time></trkpt><trkpt lat="38.8524967" lon="16.4714267"><ele>333.0</ele><time>2026-04-07T11:44:53.788Z</time></trkpt><trkpt lat="38.8526017" lon="16.4714983"><ele>333.0</ele><time>2026-04-07T11:44:54.789Z</time></trkpt><trkpt lat="38.8527033" lon="16.47161"><ele>333.75</ele><time>2026-04-07T11:44:55.788Z</time></trkpt><trkpt lat="38.85277" lon="16.47176"><ele>334.5</ele><time>2026-04-07T11:44:56.789Z</time></trkpt><trkpt lat="38.8528333" lon="16.4719067"><ele>335.25</ele><time>2026-04-07T11:44:57.788Z</time></trkpt><trkpt lat="38.8529167" lon="16.4719833"><ele>336.0</ele><time>2026-04-07T11:44:58.788Z</time></trkpt><trkpt lat="38.8530267" lon="16.4719783"><ele>336.0</ele><time>2026-04-07T11:44:59.788Z</time></trkpt><trkpt lat="38.8531417" lon="16.4719133"><ele>336.0</ele><time>2026-04-07T11:45:00.788Z</time></trkpt><trkpt lat="38.8532583" lon="16.4718017"><ele>336.0</ele><time>2026-04-07T11:45:01.789Z</time></trkpt><trkpt lat="38.8533517" lon="16.471655"><ele>336.0</ele><time>2026-04-07T11:45:02.789Z</time></trkpt><trkpt lat="38.853415" lon="16.471475"><ele>336.0</ele><time>2026-04-07T11:45:03.789Z</time></trkpt><trkpt lat="38.85344" lon="16.4712767"><ele>336.0</ele><time>2026-04-07T11:45:04.788Z</time></trkpt><trkpt lat="38.8534317" lon="16.4710717"><ele>336.0</ele><time>2026-04-07T11:45:05.789Z</time></trkpt><trkpt lat="38.8534167" lon="16.47084"><ele>336.3333333333333</ele><time>2026-04-07T11:45:06.788Z</time></trkpt><trkpt lat="38.85342" lon="16.47062"><ele>336.66666666666663</ele><time>2026-04-07T11:45:07.788Z</time></trkpt><trkpt lat="38.85343" lon="16.470425"><ele>337.0</ele><time>2026-04-07T11:45:08.789Z</time></trkpt><trkpt lat="38.8534633" lon="16.4702633"><ele>337.8333333333333</ele><time>2026-04-07T11:45:09.788Z</time></trkpt><trkpt lat="38.8535" lon="16.470135"><ele>338.66666666666663</ele><time>2026-04-07T11:45:10.788Z</time></trkpt><trkpt lat="38.8535283" lon="16.4700333"><ele>339.5</ele><time>2026-04-07T11:45:11.788Z</time></trkpt><trkpt lat="38.853565" lon="16.4699583"><ele>340.3333333333333</ele><time>2026-04-07T11:45:12.789Z</time></trkpt><trkpt lat="38.8536483" lon="16.469895"><ele>341.1666666666667</ele><time>2026-04-07T11:45:14.788Z</time></trkpt><trkpt lat="38.853725" lon="16.469925"><ele>342.0</ele><time>2026-04-07T11:45:16.788Z</time></trkpt><trkpt lat="38.853815" lon="16.4700233"><ele>342.0</ele><time>2026-04-07T11:45:18.788Z</time></trkpt><trkpt lat="38.8538633" lon="16.4700867"><ele>342.0</ele><time>2026-04-07T11:45:19.788Z</time></trkpt><trkpt lat="38.8539083" lon="16.4701617"><ele>342.0</ele><time>2026-04-07T11:45:20.788Z</time></trkpt><trkpt lat="38.853955" lon="16.4702517"><ele>342.0</ele><time>2026-04-07T11:45:21.788Z</time></trkpt><trkpt lat="38.8540067" lon="16.4703517"><ele>342.0</ele><time>2026-04-07T11:45:22.788Z</time></trkpt><trkpt lat="38.854055" lon="16.4704433"><ele>342.0</ele><time>2026-04-07T11:45:23.788Z</time></trkpt><trkpt lat="38.85411" lon="16.4705217"><ele>342.0</ele><time>2026-04-07T11:45:24.788Z</time></trkpt><trkpt lat="38.85418" lon="16.4705817"><ele>342.0</ele><time>2026-04-07T11:45:25.789Z</time></trkpt><trkpt lat="38.8542567" lon="16.470615"><ele>342.0</ele><time>2026-04-07T11:45:26.788Z</time></trkpt><trkpt lat="38.8543317" lon="16.470625"><ele>342.0</ele><time>2026-04-07T11:45:27.788Z</time></trkpt><trkpt lat="38.8544133" lon="16.4705917"><ele>342.0</ele><time>2026-04-07T11:45:28.789Z</time></trkpt><trkpt lat="38.8544883" lon="16.4705217"><ele>342.0</ele><time>2026-04-07T11:45:29.788Z</time></trkpt><trkpt lat="38.8545783" lon="16.4704167"><ele>342.0</ele><time>2026-04-07T11:45:30.789Z</time></trkpt><trkpt lat="38.8546583" lon="16.47031"><ele>342.0</ele><time>2026-04-07T11:45:31.788Z</time></trkpt><trkpt lat="38.854735" lon="16.4701767"><ele>342.0</ele><time>2026-04-07T11:45:32.788Z</time></trkpt><trkpt lat="38.8548033" lon="16.4700783"><ele>342.0</ele><time>2026-04-07T11:45:33.788Z</time></trkpt><trkpt lat="38.8548583" lon="16.4699683"><ele>342.0</ele><time>2026-04-07T11:45:34.788Z</time></trkpt><trkpt lat="38.8549" lon="16.4698533"><ele>342.0</ele><time>2026-04-07T11:45:35.788Z</time></trkpt><trkpt lat="38.8549483" lon="16.4697283"><ele>342.0</ele><time>2026-04-07T11:45:36.788Z</time></trkpt><trkpt lat="38.8549917" lon="16.46959"><ele>342.0</ele><time>2026-04-07T11:45:37.789Z</time></trkpt><trkpt lat="38.8550533" lon="16.4694433"><ele>342.0</ele><time>2026-04-07T11:45:38.788Z</time></trkpt><trkpt lat="38.8551167" lon="16.46928"><ele>338.3333333333333</ele><time>2026-04-07T11:45:39.789Z</time></trkpt><trkpt lat="38.8551983" lon="16.4690967"><ele>334.66666666666663</ele><time>2026-04-07T11:45:40.789Z</time></trkpt><trkpt lat="38.8552867" lon="16.4689033"><ele>331.0</ele><time>2026-04-07T11:45:41.789Z</time></trkpt><trkpt lat="38.8553667" lon="16.4687167"><ele>331.0</ele><time>2026-04-07T11:45:42.788Z</time></trkpt><trkpt lat="38.8554483" lon="16.468515"><ele>331.0</ele><time>2026-04-07T11:45:43.788Z</time></trkpt><trkpt lat="38.8555383" lon="16.46832"><ele>331.0</ele><time>2026-04-07T11:45:44.789Z</time></trkpt><trkpt lat="38.8556217" lon="16.4681367"><ele>331.0</ele><time>2026-04-07T11:45:45.789Z</time></trkpt><trkpt lat="38.855695" lon="16.46796"><ele>331.0</ele><time>2026-04-07T11:45:46.789Z</time></trkpt><trkpt lat="38.85577" lon="16.4677717"><ele>331.0</ele><time>2026-04-07T11:45:47.788Z</time></trkpt><trkpt lat="38.8558433" lon="16.4675967"><ele>331.0</ele><time>2026-04-07T11:45:48.788Z</time></trkpt><trkpt lat="38.855935" lon="16.4674483"><ele>331.0</ele><time>2026-04-07T11:45:49.788Z</time></trkpt><trkpt lat="38.8560433" lon="16.4673167"><ele>331.0</ele><time>2026-04-07T11:45:50.788Z</time></trkpt><trkpt lat="38.85616" lon="16.46719"><ele>331.0</ele><time>2026-04-07T11:45:51.788Z</time></trkpt><trkpt lat="38.8562667" lon="16.467095"><ele>329.6</ele><time>2026-04-07T11:45:52.789Z</time></trkpt><trkpt lat="38.85636" lon="16.4670317"><ele>328.20000000000005</ele><time>2026-04-07T11:45:53.789Z</time></trkpt><trkpt lat="38.856455" lon="16.467"><ele>326.79999999999995</ele><time>2026-04-07T11:45:54.789Z</time></trkpt><trkpt lat="38.8565583" lon="16.4670067"><ele>325.4</ele><time>2026-04-07T11:45:55.788Z</time></trkpt><trkpt lat="38.8566583" lon="16.467025"><ele>324.0</ele><time>2026-04-07T11:45:56.788Z</time></trkpt><trkpt lat="38.856755" lon="16.4669833"><ele>323.0</ele><time>2026-04-07T11:45:57.789Z</time></trkpt><trkpt lat="38.85683" lon="16.4668967"><ele>322.0</ele><time>2026-04-07T11:45:58.788Z</time></trkpt><trkpt lat="38.85688" lon="16.46677"><ele>321.0</ele><time>2026-04-07T11:45:59.788Z</time></trkpt><trkpt lat="38.856915" lon="16.4666467"><ele>320.0</ele><time>2026-04-07T11:46:00.789Z</time></trkpt><trkpt lat="38.856965" lon="16.4665333"><ele>319.0</ele><time>2026-04-07T11:46:01.789Z</time></trkpt><trkpt lat="38.85703" lon="16.4664467"><ele>319.0</ele><time>2026-04-07T11:46:02.788Z</time></trkpt><trkpt lat="38.8571083" lon="16.4664217"><ele>319.0</ele><time>2026-04-07T11:46:03.789Z</time></trkpt><trkpt lat="38.8571967" lon="16.4664317"><ele>319.0</ele><time>2026-04-07T11:46:04.788Z</time></trkpt><trkpt lat="38.8572983" lon="16.466445"><ele>319.0</ele><time>2026-04-07T11:46:05.788Z</time></trkpt><trkpt lat="38.8574067" lon="16.4664467"><ele>319.0</ele><time>2026-04-07T11:46:06.789Z</time></trkpt><trkpt lat="38.8575083" lon="16.4664067"><ele>319.0</ele><time>2026-04-07T11:46:07.788Z</time></trkpt><trkpt lat="38.8575883" lon="16.46631"><ele>319.0</ele><time>2026-04-07T11:46:08.789Z</time></trkpt><trkpt lat="38.8576567" lon="16.4661667"><ele>319.0</ele><time>2026-04-07T11:46:09.788Z</time></trkpt><trkpt lat="38.8577017" lon="16.466"><ele>319.0</ele><time>2026-04-07T11:46:10.789Z</time></trkpt><trkpt lat="38.85774" lon="16.46584"><ele>318.66666666666663</ele><time>2026-04-07T11:46:11.789Z</time></trkpt><trkpt lat="38.8577883" lon="16.4657017"><ele>318.3333333333333</ele><time>2026-04-07T11:46:12.789Z</time></trkpt><trkpt lat="38.8578533" lon="16.465605"><ele>318.0</ele><time>2026-04-07T11:46:13.789Z</time></trkpt><trkpt lat="38.85792" lon="16.4655567"><ele>317.6666666666667</ele><time>2026-04-07T11:46:14.788Z</time></trkpt><trkpt lat="38.857985" lon="16.46554"><ele>317.33333333333337</ele><time>2026-04-07T11:46:15.789Z</time></trkpt><trkpt lat="38.8580433" lon="16.46558"><ele>317.0</ele><time>2026-04-07T11:46:16.789Z</time></trkpt><trkpt lat="38.8580817" lon="16.46567"><ele>317.0</ele><time>2026-04-07T11:46:17.788Z</time></trkpt><trkpt lat="38.8580983" lon="16.465795"><ele>317.0</ele><time>2026-04-07T11:46:18.788Z</time></trkpt><trkpt lat="38.8580967" lon="16.4659667"><ele>317.0</ele><time>2026-04-07T11:46:19.789Z</time></trkpt><trkpt lat="38.8580883" lon="16.4661617"><ele>317.0</ele><time>2026-04-07T11:46:20.788Z</time></trkpt><trkpt lat="38.8580683" lon="16.4663917"><ele>319.0</ele><time>2026-04-07T11:46:21.788Z</time></trkpt><trkpt lat="38.8580467" lon="16.4666417"><ele>321.0</ele><time>2026-04-07T11:46:22.788Z</time></trkpt><trkpt lat="38.8580483" lon="16.4668767"><ele>323.0</ele><time>2026-04-07T11:46:23.788Z</time></trkpt><trkpt lat="38.85807" lon="16.4671033"><ele>324.0</ele><time>2026-04-07T11:46:24.788Z</time></trkpt><trkpt lat="38.858125" lon="16.4672883"><ele>325.0</ele><time>2026-04-07T11:46:25.788Z</time></trkpt><trkpt lat="38.8581883" lon="16.4674383"><ele>326.0</ele><time>2026-04-07T11:46:26.789Z</time></trkpt><trkpt lat="38.8583033" lon="16.4675417"><ele>327.0</ele><time>2026-04-07T11:46:27.788Z</time></trkpt><trkpt lat="38.8584533" lon="16.4675917"><ele>330.25</ele><time>2026-04-07T11:46:28.788Z</time></trkpt><trkpt lat="38.85861" lon="16.467635"><ele>333.5</ele><time>2026-04-07T11:46:29.789Z</time></trkpt><trkpt lat="38.8587483" lon="16.467695"><ele>336.75</ele><time>2026-04-07T11:46:30.788Z</time></trkpt><trkpt lat="38.8588717" lon="16.4677883"><ele>340.0</ele><time>2026-04-07T11:46:31.789Z</time></trkpt><trkpt lat="38.8589767" lon="16.46791"><ele>340.0</ele><time>2026-04-07T11:46:32.788Z</time></trkpt><trkpt lat="38.8590783" lon="16.46804"><ele>340.0</ele><time>2026-04-07T11:46:33.789Z</time></trkpt><trkpt lat="38.8591833" lon="16.4681567"><ele>340.0</ele><time>2026-04-07T11:46:34.788Z</time></trkpt><trkpt lat="38.859295" lon="16.4682383"><ele>340.0</ele><time>2026-04-07T11:46:35.788Z</time></trkpt><trkpt lat="38.859415" lon="16.4682833"><ele>339.3333333333333</ele><time>2026-04-07T11:46:36.788Z</time></trkpt><trkpt lat="38.8595633" lon="16.4682867"><ele>338.6666666666667</ele><time>2026-04-07T11:46:37.788Z</time></trkpt><trkpt lat="38.8597233" lon="16.4682867"><ele>338.0</ele><time>2026-04-07T11:46:38.788Z</time></trkpt><trkpt lat="38.8598817" lon="16.4682967"><ele>338.0</ele><time>2026-04-07T11:46:39.789Z</time></trkpt><trkpt lat="38.8600533" lon="16.46833"><ele>338.0</ele><time>2026-04-07T11:46:40.788Z</time></trkpt><trkpt lat="38.86022" lon="16.4683383"><ele>338.0</ele><time>2026-04-07T11:46:41.788Z</time></trkpt><trkpt lat="38.860355" lon="16.468355"><ele>338.0</ele><time>2026-04-07T11:46:42.788Z</time></trkpt><trkpt lat="38.8604683" lon="16.4683067"><ele>338.0</ele><time>2026-04-07T11:46:43.789Z</time></trkpt><trkpt lat="38.8605533" lon="16.4681833"><ele>338.0</ele><time>2026-04-07T11:46:44.788Z</time></trkpt><trkpt lat="38.8606083" lon="16.4680267"><ele>338.0</ele><time>2026-04-07T11:46:45.788Z</time></trkpt><trkpt lat="38.8606517" lon="16.4678667"><ele>337.25</ele><time>2026-04-07T11:46:46.788Z</time></trkpt><trkpt lat="38.8607067" lon="16.4677117"><ele>336.5</ele><time>2026-04-07T11:46:47.789Z</time></trkpt><trkpt lat="38.860775" lon="16.467585"><ele>335.75</ele><time>2026-04-07T11:46:48.788Z</time></trkpt><trkpt lat="38.8608633" lon="16.467485"><ele>335.0</ele><time>2026-04-07T11:46:49.789Z</time></trkpt><trkpt lat="38.8609633" lon="16.4674333"><ele>334.8</ele><time>2026-04-07T11:46:50.789Z</time></trkpt><trkpt lat="38.8610667" lon="16.4674433"><ele>334.6</ele><time>2026-04-07T11:46:51.788Z</time></trkpt><trkpt lat="38.861165" lon="16.46749"><ele>334.4</ele><time>2026-04-07T11:46:52.789Z</time></trkpt><trkpt lat="38.8612417" lon="16.4675533"><ele>334.2</ele><time>2026-04-07T11:46:53.788Z</time></trkpt><trkpt lat="38.8613" lon="16.4676317"><ele>334.0</ele><time>2026-04-07T11:46:54.788Z</time></trkpt><trkpt lat="38.8613483" lon="16.4677317"><ele>334.0</ele><time>2026-04-07T11:46:55.788Z</time></trkpt><trkpt lat="38.8613817" lon="16.4678417"><ele>334.0</ele><time>2026-04-07T11:46:56.788Z</time></trkpt><trkpt lat="38.8613967" lon="16.467965"><ele>334.0</ele><time>2026-04-07T11:46:57.788Z</time></trkpt><trkpt lat="38.8613967" lon="16.4681183"><ele>334.0</ele><time>2026-04-07T11:46:58.789Z</time></trkpt><trkpt lat="38.8613783" lon="16.4682883"><ele>334.0</ele><time>2026-04-07T11:46:59.788Z</time></trkpt><trkpt lat="38.86137" lon="16.4684617"><ele>332.66666666666663</ele><time>2026-04-07T11:47:00.789Z</time></trkpt><trkpt lat="38.8614133" lon="16.4686267"><ele>331.3333333333333</ele><time>2026-04-07T11:47:01.788Z</time></trkpt><trkpt lat="38.8615133" lon="16.46878"><ele>330.0</ele><time>2026-04-07T11:47:02.788Z</time></trkpt><trkpt lat="38.861655" lon="16.46888"><ele>330.6666666666667</ele><time>2026-04-07T11:47:03.788Z</time></trkpt><trkpt lat="38.8618333" lon="16.46896"><ele>331.33333333333337</ele><time>2026-04-07T11:47:04.788Z</time></trkpt><trkpt lat="38.8620317" lon="16.4690533"><ele>332.0</ele><time>2026-04-07T11:47:05.788Z</time></trkpt><trkpt lat="38.86226" lon="16.4691433"><ele>332.0</ele><time>2026-04-07T11:47:06.789Z</time></trkpt><trkpt lat="38.8624817" lon="16.4692467"><ele>332.0</ele><time>2026-04-07T11:47:07.788Z</time></trkpt><trkpt lat="38.8627033" lon="16.4693583"><ele>334.0</ele><time>2026-04-07T11:47:08.789Z</time></trkpt><trkpt lat="38.8629167" lon="16.4694567"><ele>336.0</ele><time>2026-04-07T11:47:09.788Z</time></trkpt><trkpt lat="38.8631083" lon="16.4695517"><ele>338.0</ele><time>2026-04-07T11:47:10.788Z</time></trkpt><trkpt lat="38.8632733" lon="16.4696367"><ele>338.0</ele><time>2026-04-07T11:47:11.788Z</time></trkpt><trkpt lat="38.8634333" lon="16.4696983"><ele>338.0</ele><time>2026-04-07T11:47:12.788Z</time></trkpt><trkpt lat="38.8635983" lon="16.46975"><ele>338.0</ele><time>2026-04-07T11:47:13.788Z</time></trkpt><trkpt lat="38.863775" lon="16.469785"><ele>338.6666666666667</ele><time>2026-04-07T11:47:14.788Z</time></trkpt><trkpt lat="38.8639567" lon="16.4698233"><ele>339.3333333333333</ele><time>2026-04-07T11:47:15.789Z</time></trkpt><trkpt lat="38.86414" lon="16.4698817"><ele>340.0</ele><time>2026-04-07T11:47:16.789Z</time></trkpt><trkpt lat="38.8643167" lon="16.469945"><ele>340.3333333333333</ele><time>2026-04-07T11:47:17.788Z</time></trkpt><trkpt lat="38.864475" lon="16.4700217"><ele>340.6666666666667</ele><time>2026-04-07T11:47:18.788Z</time></trkpt><trkpt lat="38.864615" lon="16.4700967"><ele>341.0</ele><time>2026-04-07T11:47:19.788Z</time></trkpt><trkpt lat="38.8647483" lon="16.470165"><ele>341.0</ele><time>2026-04-07T11:47:20.788Z</time></trkpt><trkpt lat="38.8648633" lon="16.4702467"><ele>341.0</ele><time>2026-04-07T11:47:21.788Z</time></trkpt><trkpt lat="38.8649667" lon="16.4703517"><ele>341.0</ele><time>2026-04-07T11:47:22.789Z</time></trkpt><trkpt lat="38.8650567" lon="16.4704833"><ele>341.0</ele><time>2026-04-07T11:47:23.788Z</time></trkpt><trkpt lat="38.86514" lon="16.4706367"><ele>342.33333333333337</ele><time>2026-04-07T11:47:24.788Z</time></trkpt><trkpt lat="38.86522" lon="16.4707967"><ele>343.6666666666667</ele><time>2026-04-07T11:47:25.788Z</time></trkpt><trkpt lat="38.8653133" lon="16.4709633"><ele>345.0</ele><time>2026-04-07T11:47:26.788Z</time></trkpt><trkpt lat="38.8654033" lon="16.4711233"><ele>345.6666666666667</ele><time>2026-04-07T11:47:27.788Z</time></trkpt><trkpt lat="38.865505" lon="16.4712933"><ele>346.33333333333337</ele><time>2026-04-07T11:47:28.789Z</time></trkpt><trkpt lat="38.8656167" lon="16.4714717"><ele>347.0</ele><time>2026-04-07T11:47:29.788Z</time></trkpt><trkpt lat="38.8657317" lon="16.47166"><ele>347.0</ele><time>2026-04-07T11:47:30.788Z</time></trkpt><trkpt lat="38.865845" lon="16.471845"><ele>347.0</ele><time>2026-04-07T11:47:31.788Z</time></trkpt><trkpt lat="38.8659617" lon="16.4720433"><ele>347.0</ele><time>2026-04-07T11:47:32.788Z</time></trkpt><trkpt lat="38.866075" lon="16.47225"><ele>346.0</ele><time>2026-04-07T11:47:33.788Z</time></trkpt><trkpt lat="38.866205" lon="16.4724517"><ele>345.0</ele><time>2026-04-07T11:47:34.788Z</time></trkpt><trkpt lat="38.8663383" lon="16.4726633"><ele>344.0</ele><time>2026-04-07T11:47:35.788Z</time></trkpt><trkpt lat="38.8664683" lon="16.4728833"><ele>344.0</ele><time>2026-04-07T11:47:36.788Z</time></trkpt><trkpt lat="38.866585" lon="16.4730867"><ele>344.0</ele><time>2026-04-07T11:47:37.788Z</time></trkpt><trkpt lat="38.8666917" lon="16.473275"><ele>344.0</ele><time>2026-04-07T11:47:38.788Z</time></trkpt><trkpt lat="38.8667967" lon="16.4734517"><ele>344.0</ele><time>2026-04-07T11:47:39.789Z</time></trkpt><trkpt lat="38.8669" lon="16.47362"><ele>344.0</ele><time>2026-04-07T11:47:40.788Z</time></trkpt><trkpt lat="38.867" lon="16.4737567"><ele>344.0</ele><time>2026-04-07T11:47:41.788Z</time></trkpt><trkpt lat="38.867095" lon="16.4738583"><ele>344.0</ele><time>2026-04-07T11:47:42.789Z</time></trkpt><trkpt lat="38.86722" lon="16.4738967"><ele>344.75</ele><time>2026-04-07T11:47:43.788Z</time></trkpt><trkpt lat="38.867365" lon="16.4739067"><ele>345.5</ele><time>2026-04-07T11:47:44.788Z</time></trkpt><trkpt lat="38.8675133" lon="16.4739217"><ele>346.25</ele><time>2026-04-07T11:47:45.788Z</time></trkpt><trkpt lat="38.8676533" lon="16.47394"><ele>347.0</ele><time>2026-04-07T11:47:46.788Z</time></trkpt><trkpt lat="38.8678" lon="16.473955"><ele>347.25</ele><time>2026-04-07T11:47:47.789Z</time></trkpt><trkpt lat="38.8679367" lon="16.4740067"><ele>347.5</ele><time>2026-04-07T11:47:48.788Z</time></trkpt><trkpt lat="38.8680717" lon="16.474075"><ele>347.75</ele><time>2026-04-07T11:47:49.789Z</time></trkpt><trkpt lat="38.86821" lon="16.4741483"><ele>348.0</ele><time>2026-04-07T11:47:50.789Z</time></trkpt><trkpt lat="38.868355" lon="16.4742333"><ele>348.25</ele><time>2026-04-07T11:47:51.788Z</time></trkpt><trkpt lat="38.8685017" lon="16.4742983"><ele>348.5</ele><time>2026-04-07T11:47:52.788Z</time></trkpt><trkpt lat="38.868645" lon="16.47433"><ele>348.75</ele><time>2026-04-07T11:47:53.788Z</time></trkpt><trkpt lat="38.8687883" lon="16.474345"><ele>349.0</ele><time>2026-04-07T11:47:54.789Z</time></trkpt><trkpt lat="38.86894" lon="16.4743233"><ele>349.0</ele><time>2026-04-07T11:47:55.788Z</time></trkpt><trkpt lat="38.8690917" lon="16.47431"><ele>349.0</ele><time>2026-04-07T11:47:56.788Z</time></trkpt><trkpt lat="38.8692467" lon="16.4743183"><ele>349.0</ele><time>2026-04-07T11:47:57.788Z</time></trkpt><trkpt lat="38.8694033" lon="16.4743467"><ele>348.66666666666663</ele><time>2026-04-07T11:47:58.789Z</time></trkpt><trkpt lat="38.8695617" lon="16.474375"><ele>348.3333333333333</ele><time>2026-04-07T11:47:59.788Z</time></trkpt><trkpt lat="38.8697367" lon="16.474405"><ele>348.0</ele><time>2026-04-07T11:48:00.789Z</time></trkpt><trkpt lat="38.8699067" lon="16.4744417"><ele>348.0</ele><time>2026-04-07T11:48:01.788Z</time></trkpt><trkpt lat="38.8700633" lon="16.4744767"><ele>348.0</ele><time>2026-04-07T11:48:02.789Z</time></trkpt><trkpt lat="38.8702" lon="16.47451"><ele>348.0</ele><time>2026-04-07T11:48:03.789Z</time></trkpt><trkpt lat="38.870315" lon="16.4745483"><ele>348.0</ele><time>2026-04-07T11:48:04.788Z</time></trkpt><trkpt lat="38.8704183" lon="16.4746067"><ele>346.75</ele><time>2026-04-07T11:48:05.788Z</time></trkpt><trkpt lat="38.8705083" lon="16.4746883"><ele>345.5</ele><time>2026-04-07T11:48:06.788Z</time></trkpt><trkpt lat="38.870595" lon="16.4747833"><ele>344.25</ele><time>2026-04-07T11:48:07.788Z</time></trkpt><trkpt lat="38.8706767" lon="16.4748733"><ele>343.0</ele><time>2026-04-07T11:48:08.788Z</time></trkpt><trkpt lat="38.870785" lon="16.4749533"><ele>343.0</ele><time>2026-04-07T11:48:09.789Z</time></trkpt><trkpt lat="38.8709083" lon="16.475"><ele>343.0</ele><time>2026-04-07T11:48:10.788Z</time></trkpt><trkpt lat="38.871045" lon="16.475035"><ele>343.0</ele><time>2026-04-07T11:48:11.788Z</time></trkpt><trkpt lat="38.8712033" lon="16.4750467"><ele>343.0</ele><time>2026-04-07T11:48:12.789Z</time></trkpt><trkpt lat="38.8713683" lon="16.4750783"><ele>341.3333333333333</ele><time>2026-04-07T11:48:13.788Z</time></trkpt><trkpt lat="38.871535" lon="16.4751383"><ele>339.6666666666667</ele><time>2026-04-07T11:48:14.788Z</time></trkpt><trkpt lat="38.8717183" lon="16.47522"><ele>338.0</ele><time>2026-04-07T11:48:15.788Z</time></trkpt><trkpt lat="38.8718967" lon="16.475335"><ele>338.6666666666667</ele><time>2026-04-07T11:48:16.789Z</time></trkpt><trkpt lat="38.8720817" lon="16.4754433"><ele>339.3333333333333</ele><time>2026-04-07T11:48:17.788Z</time></trkpt><trkpt lat="38.8722483" lon="16.4755517"><ele>340.0</ele><time>2026-04-07T11:48:18.788Z</time></trkpt><trkpt lat="38.8724" lon="16.47564"><ele>340.0</ele><time>2026-04-07T11:48:19.788Z</time></trkpt><trkpt lat="38.872545" lon="16.4756917"><ele>340.0</ele><time>2026-04-07T11:48:20.789Z</time></trkpt><trkpt lat="38.8726817" lon="16.4756767"><ele>340.0</ele><time>2026-04-07T11:48:21.789Z</time></trkpt><trkpt lat="38.8727933" lon="16.4756033"><ele>340.0</ele><time>2026-04-07T11:48:22.788Z</time></trkpt><trkpt lat="38.87288" lon="16.4754767"><ele>341.66666666666663</ele><time>2026-04-07T11:48:23.788Z</time></trkpt><trkpt lat="38.872965" lon="16.4753"><ele>343.3333333333333</ele><time>2026-04-07T11:48:24.789Z</time></trkpt><trkpt lat="38.8730583" lon="16.4751183"><ele>345.0</ele><time>2026-04-07T11:48:25.788Z</time></trkpt><trkpt lat="38.8731533" lon="16.4749383"><ele>345.0</ele><time>2026-04-07T11:48:26.788Z</time></trkpt><trkpt lat="38.8732433" lon="16.4747767"><ele>345.0</ele><time>2026-04-07T11:48:27.788Z</time></trkpt><trkpt lat="38.8733367" lon="16.474635"><ele>345.0</ele><time>2026-04-07T11:48:28.788Z</time></trkpt><trkpt lat="38.8734333" lon="16.4745383"><ele>345.0</ele><time>2026-04-07T11:48:29.788Z</time></trkpt><trkpt lat="38.873515" lon="16.4745217"><ele>345.0</ele><time>2026-04-07T11:48:30.788Z</time></trkpt><trkpt lat="38.8735967" lon="16.474555"><ele>345.0</ele><time>2026-04-07T11:48:31.788Z</time></trkpt><trkpt lat="38.87368" lon="16.47463"><ele>345.0</ele><time>2026-04-07T11:48:32.789Z</time></trkpt><trkpt lat="38.8737517" lon="16.4747667"><ele>345.0</ele><time>2026-04-07T11:48:33.788Z</time></trkpt><trkpt lat="38.8737983" lon="16.4749383"><ele>345.3333333333333</ele><time>2026-04-07T11:48:34.788Z</time></trkpt><trkpt lat="38.8738317" lon="16.475135"><ele>345.66666666666663</ele><time>2026-04-07T11:48:35.788Z</time></trkpt><trkpt lat="38.8738833" lon="16.4753333"><ele>346.0</ele><time>2026-04-07T11:48:36.789Z</time></trkpt><trkpt lat="38.8739633" lon="16.47552"><ele>347.0</ele><time>2026-04-07T11:48:37.788Z</time></trkpt><trkpt lat="38.874085" lon="16.4757083"><ele>348.0</ele><time>2026-04-07T11:48:38.789Z</time></trkpt><trkpt lat="38.8742367" lon="16.4759017"><ele>349.0</ele><time>2026-04-07T11:48:39.788Z</time></trkpt><trkpt lat="38.87441" lon="16.4761"><ele>351.0</ele><time>2026-04-07T11:48:40.788Z</time></trkpt><trkpt lat="38.8745767" lon="16.4762967"><ele>353.0</ele><time>2026-04-07T11:48:41.789Z</time></trkpt><trkpt lat="38.8747517" lon="16.47651"><ele>353.0</ele><time>2026-04-07T11:48:42.788Z</time></trkpt><trkpt lat="38.8749317" lon="16.4767233"><ele>353.0</ele><time>2026-04-07T11:48:43.788Z</time></trkpt><trkpt lat="38.8751117" lon="16.4769383"><ele>353.0</ele><time>2026-04-07T11:48:44.788Z</time></trkpt><trkpt lat="38.8752833" lon="16.4771517"><ele>353.0</ele><time>2026-04-07T11:48:45.788Z</time></trkpt><trkpt lat="38.87545" lon="16.4773483"><ele>353.0</ele><time>2026-04-07T11:48:46.789Z</time></trkpt><trkpt lat="38.8756017" lon="16.4775433"><ele>353.0</ele><time>2026-04-07T11:48:47.788Z</time></trkpt><trkpt lat="38.87575" lon="16.4777183"><ele>353.0</ele><time>2026-04-07T11:48:48.788Z</time></trkpt><trkpt lat="38.87589" lon="16.477885"><ele>354.0</ele><time>2026-04-07T11:48:49.789Z</time></trkpt><trkpt lat="38.8760217" lon="16.4780433"><ele>355.0</ele><time>2026-04-07T11:48:50.789Z</time></trkpt><trkpt lat="38.876145" lon="16.4782"><ele>356.0</ele><time>2026-04-07T11:48:51.788Z</time></trkpt><trkpt lat="38.8762717" lon="16.4783467"><ele>356.0</ele><time>2026-04-07T11:48:52.788Z</time></trkpt><trkpt lat="38.87639" lon="16.4785017"><ele>356.0</ele><time>2026-04-07T11:48:53.788Z</time></trkpt><trkpt lat="38.8765133" lon="16.4786517"><ele>356.0</ele><time>2026-04-07T11:48:54.788Z</time></trkpt><trkpt lat="38.87664" lon="16.4787983"><ele>356.5</ele><time>2026-04-07T11:48:55.788Z</time></trkpt><trkpt lat="38.8767567" lon="16.4789383"><ele>357.0</ele><time>2026-04-07T11:48:56.788Z</time></trkpt><trkpt lat="38.8768567" lon="16.4790733"><ele>357.5</ele><time>2026-04-07T11:48:57.788Z</time></trkpt><trkpt lat="38.87694" lon="16.4792067"><ele>358.0</ele><time>2026-04-07T11:48:58.789Z</time></trkpt><trkpt lat="38.8769983" lon="16.4793517"><ele>358.25</ele><time>2026-04-07T11:48:59.788Z</time></trkpt><trkpt lat="38.8770367" lon="16.4795067"><ele>358.5</ele><time>2026-04-07T11:49:00.788Z</time></trkpt><trkpt lat="38.877065" lon="16.4796667"><ele>358.75</ele><time>2026-04-07T11:49:01.788Z</time></trkpt><trkpt lat="38.8770733" lon="16.4798433"><ele>359.0</ele><time>2026-04-07T11:49:02.789Z</time></trkpt><trkpt lat="38.8770967" lon="16.4800083"><ele>359.25</ele><time>2026-04-07T11:49:03.788Z</time></trkpt><trkpt lat="38.8771233" lon="16.4801883"><ele>359.5</ele><time>2026-04-07T11:49:04.788Z</time></trkpt><trkpt lat="38.8771517" lon="16.480375"><ele>359.75</ele><time>2026-04-07T11:49:05.788Z</time></trkpt><trkpt lat="38.8771783" lon="16.4805617"><ele>360.0</ele><time>2026-04-07T11:49:06.789Z</time></trkpt><trkpt lat="38.8771917" lon="16.480755"><ele>360.0</ele><time>2026-04-07T11:49:07.788Z</time></trkpt><trkpt lat="38.87721" lon="16.48094"><ele>360.0</ele><time>2026-04-07T11:49:08.789Z</time></trkpt><trkpt lat="38.8772383" lon="16.4811333"><ele>360.0</ele><time>2026-04-07T11:49:09.788Z</time></trkpt><trkpt lat="38.8772633" lon="16.4813267"><ele>360.0</ele><time>2026-04-07T11:49:10.788Z</time></trkpt><trkpt lat="38.87728" lon="16.4815217"><ele>360.0</ele><time>2026-04-07T11:49:11.788Z</time></trkpt><trkpt lat="38.8772983" lon="16.4817133"><ele>360.0</ele><time>2026-04-07T11:49:12.788Z</time></trkpt><trkpt lat="38.8773283" lon="16.4819067"><ele>361.6666666666667</ele><time>2026-04-07T11:49:13.788Z</time></trkpt><trkpt lat="38.8773633" lon="16.4821033"><ele>363.33333333333337</ele><time>2026-04-07T11:49:14.788Z</time></trkpt><trkpt lat="38.87739" lon="16.4823"><ele>365.0</ele><time>2026-04-07T11:49:15.788Z</time></trkpt><trkpt lat="38.877415" lon="16.48249"><ele>365.0</ele><time>2026-04-07T11:49:16.788Z</time></trkpt><trkpt lat="38.87744" lon="16.48267"><ele>365.0</ele><time>2026-04-07T11:49:17.789Z</time></trkpt><trkpt lat="38.877465" lon="16.4828383"><ele>365.0</ele><time>2026-04-07T11:49:18.788Z</time></trkpt><trkpt lat="38.8774783" lon="16.4830017"><ele>365.0</ele><time>2026-04-07T11:49:19.788Z</time></trkpt><trkpt lat="38.8774967" lon="16.4831533"><ele>364.75</ele><time>2026-04-07T11:49:20.788Z</time></trkpt><trkpt lat="38.8775167" lon="16.4832967"><ele>364.5</ele><time>2026-04-07T11:49:21.789Z</time></trkpt><trkpt lat="38.877515" lon="16.4834417"><ele>364.25</ele><time>2026-04-07T11:49:22.789Z</time></trkpt><trkpt lat="38.8775117" lon="16.4835883"><ele>364.0</ele><time>2026-04-07T11:49:23.788Z</time></trkpt><trkpt lat="38.8775" lon="16.48374"><ele>363.6</ele><time>2026-04-07T11:49:24.789Z</time></trkpt><trkpt lat="38.8774867" lon="16.483885"><ele>363.2</ele><time>2026-04-07T11:49:25.788Z</time></trkpt><trkpt lat="38.877495" lon="16.4840183"><ele>362.8</ele><time>2026-04-07T11:49:26.788Z</time></trkpt><trkpt lat="38.87753" lon="16.484135"><ele>362.40000000000003</ele><time>2026-04-07T11:49:27.788Z</time></trkpt><trkpt lat="38.8775833" lon="16.484225"><ele>362.0</ele><time>2026-04-07T11:49:28.789Z</time></trkpt><trkpt lat="38.87765" lon="16.4842833"><ele>361.40000000000003</ele><time>2026-04-07T11:49:29.789Z</time></trkpt><trkpt lat="38.8777383" lon="16.4843067"><ele>360.8</ele><time>2026-04-07T11:49:30.789Z</time></trkpt><trkpt lat="38.8778433" lon="16.4843033"><ele>360.2</ele><time>2026-04-07T11:49:31.788Z</time></trkpt><trkpt lat="38.8779533" lon="16.48429"><ele>359.6</ele><time>2026-04-07T11:49:32.788Z</time></trkpt><trkpt lat="38.8780583" lon="16.484285"><ele>359.0</ele><time>2026-04-07T11:49:33.788Z</time></trkpt><trkpt lat="38.8781633" lon="16.4842983"><ele>359.0</ele><time>2026-04-07T11:49:34.788Z</time></trkpt><trkpt lat="38.87825" lon="16.484325"><ele>359.0</ele><time>2026-04-07T11:49:35.788Z</time></trkpt><trkpt lat="38.8783267" lon="16.484375"><ele>359.0</ele><time>2026-04-07T11:49:36.788Z</time></trkpt><trkpt lat="38.87838" lon="16.4844483"><ele>359.0</ele><time>2026-04-07T11:49:37.788Z</time></trkpt><trkpt lat="38.8784117" lon="16.4845533"><ele>359.0</ele><time>2026-04-07T11:49:38.789Z</time></trkpt><trkpt lat="38.8784333" lon="16.48469"><ele>359.0</ele><time>2026-04-07T11:49:39.789Z</time></trkpt><trkpt lat="38.878465" lon="16.484845"><ele>355.75</ele><time>2026-04-07T11:49:40.789Z</time></trkpt><trkpt lat="38.8784867" lon="16.485"><ele>352.5</ele><time>2026-04-07T11:49:41.789Z</time></trkpt><trkpt lat="38.8785267" lon="16.4851267"><ele>349.25</ele><time>2026-04-07T11:49:42.788Z</time></trkpt><trkpt lat="38.8785983" lon="16.4852483"><ele>346.0</ele><time>2026-04-07T11:49:43.788Z</time></trkpt><trkpt lat="38.878685" lon="16.4853567"><ele>347.25</ele><time>2026-04-07T11:49:44.789Z</time></trkpt><trkpt lat="38.8787733" lon="16.4854683"><ele>348.5</ele><time>2026-04-07T11:49:45.788Z</time></trkpt><trkpt lat="38.8788417" lon="16.4856017"><ele>349.75</ele><time>2026-04-07T11:49:46.789Z</time></trkpt><trkpt lat="38.878885" lon="16.4857383"><ele>351.0</ele><time>2026-04-07T11:49:47.788Z</time></trkpt><trkpt lat="38.8789233" lon="16.48588"><ele>351.0</ele><time>2026-04-07T11:49:48.788Z</time></trkpt><trkpt lat="38.8789483" lon="16.4860183"><ele>351.0</ele><time>2026-04-07T11:49:49.788Z</time></trkpt><trkpt lat="38.8789517" lon="16.4861633"><ele>351.0</ele><time>2026-04-07T11:49:50.789Z</time></trkpt><trkpt lat="38.8789667" lon="16.4862883"><ele>351.0</ele><time>2026-04-07T11:49:51.788Z</time></trkpt><trkpt lat="38.8789717" lon="16.4863917"><ele>351.0</ele><time>2026-04-07T11:49:52.789Z</time></trkpt><trkpt lat="38.878975" lon="16.4864833"><ele>351.0</ele><time>2026-04-07T11:49:53.788Z</time></trkpt><trkpt lat="38.87898" lon="16.4866083"><ele>351.0</ele><time>2026-04-07T11:49:55.788Z</time></trkpt><trkpt lat="38.8790033" lon="16.4866983"><ele>351.0</ele><time>2026-04-07T11:49:58.789Z</time></trkpt><trkpt lat="38.8789867" lon="16.48679"><ele>351.0</ele><time>2026-04-07T11:50:00.788Z</time></trkpt><trkpt lat="38.878945" lon="16.4869567"><ele>351.0</ele><time>2026-04-07T11:50:02.788Z</time></trkpt><trkpt lat="38.87893" lon="16.4870767"><ele>350.4</ele><time>2026-04-07T11:50:03.788Z</time></trkpt><trkpt lat="38.8789233" lon="16.4872067"><ele>349.8</ele><time>2026-04-07T11:50:04.789Z</time></trkpt><trkpt lat="38.8789183" lon="16.4873317"><ele>349.2</ele><time>2026-04-07T11:50:05.788Z</time></trkpt><trkpt lat="38.8789117" lon="16.4874417"><ele>348.59999999999997</ele><time>2026-04-07T11:50:06.788Z</time></trkpt><trkpt lat="38.8789033" lon="16.48753"><ele>348.0</ele><time>2026-04-07T11:50:07.788Z</time></trkpt><trkpt lat="38.8789083" lon="16.4876717"><ele>348.0</ele><time>2026-04-07T11:50:09.788Z</time></trkpt><trkpt lat="38.8789483" lon="16.4877533"><ele>348.0</ele><time>2026-04-07T11:50:11.788Z</time></trkpt><trkpt lat="38.87901" lon="16.4878033"><ele>348.0</ele><time>2026-04-07T11:50:13.788Z</time></trkpt><trkpt lat="38.8791517" lon="16.4878283"><ele>348.0</ele><time>2026-04-07T11:50:15.789Z</time></trkpt><trkpt lat="38.8792383" lon="16.4878383"><ele>348.0</ele><time>2026-04-07T11:50:16.789Z</time></trkpt><trkpt lat="38.8793267" lon="16.4878383"><ele>348.1666666666667</ele><time>2026-04-07T11:50:17.788Z</time></trkpt><trkpt lat="38.87941" lon="16.4878367"><ele>348.3333333333333</ele><time>2026-04-07T11:50:18.789Z</time></trkpt><trkpt lat="38.8794967" lon="16.48783"><ele>348.5</ele><time>2026-04-07T11:50:19.788Z</time></trkpt><trkpt lat="38.87958" lon="16.487835"><ele>348.66666666666663</ele><time>2026-04-07T11:50:20.788Z</time></trkpt><trkpt lat="38.87967" lon="16.4878267"><ele>348.8333333333333</ele><time>2026-04-07T11:50:21.789Z</time></trkpt><trkpt lat="38.87977" lon="16.4878017"><ele>349.0</ele><time>2026-04-07T11:50:22.788Z</time></trkpt><trkpt lat="38.879855" lon="16.4877633"><ele>349.0</ele><time>2026-04-07T11:50:23.788Z</time></trkpt><trkpt lat="38.8799483" lon="16.4877183"><ele>349.0</ele><time>2026-04-07T11:50:24.789Z</time></trkpt><trkpt lat="38.8800317" lon="16.48769"><ele>349.0</ele><time>2026-04-07T11:50:25.788Z</time></trkpt><trkpt lat="38.880105" lon="16.4876733"><ele>349.0</ele><time>2026-04-07T11:50:26.788Z</time></trkpt><trkpt lat="38.8802" lon="16.4876983"><ele>349.0</ele><time>2026-04-07T11:50:28.789Z</time></trkpt><trkpt lat="38.8802717" lon="16.4877483"><ele>349.0</ele><time>2026-04-07T11:50:30.789Z</time></trkpt><trkpt lat="38.8803383" lon="16.48782"><ele>350.0</ele><time>2026-04-07T11:50:32.788Z</time></trkpt><trkpt lat="38.8803933" lon="16.48794"><ele>351.0</ele><time>2026-04-07T11:50:34.788Z</time></trkpt><trkpt lat="38.8804467" lon="16.4880833"><ele>352.0</ele><time>2026-04-07T11:50:36.788Z</time></trkpt><trkpt lat="38.8804967" lon="16.48817"><ele>353.0</ele><time>2026-04-07T11:50:37.788Z</time></trkpt><trkpt lat="38.88056" lon="16.488265"><ele>354.0</ele><time>2026-04-07T11:50:38.788Z</time></trkpt><trkpt lat="38.8806283" lon="16.4883667"><ele>354.0</ele><time>2026-04-07T11:50:39.788Z</time></trkpt><trkpt lat="38.880695" lon="16.4884683"><ele>354.0</ele><time>2026-04-07T11:50:40.789Z</time></trkpt><trkpt lat="38.8807517" lon="16.488555"><ele>354.0</ele><time>2026-04-07T11:50:41.788Z</time></trkpt><trkpt lat="38.8807983" lon="16.4886317"><ele>354.0</ele><time>2026-04-07T11:50:42.789Z</time></trkpt><trkpt lat="38.8808467" lon="16.4887483"><ele>354.0</ele><time>2026-04-07T11:50:44.788Z</time></trkpt><trkpt lat="38.8808633" lon="16.4888367"><ele>354.0</ele><time>2026-04-07T11:50:46.789Z</time></trkpt><trkpt lat="38.8808517" lon="16.4889283"><ele>354.0</ele><time>2026-04-07T11:50:48.788Z</time></trkpt><trkpt lat="38.8808317" lon="16.4890233"><ele>354.0</ele><time>2026-04-07T11:50:50.788Z</time></trkpt><trkpt lat="38.8808967" lon="16.489015"><ele>354.0</ele><time>2026-04-07T11:50:54.789Z</time></trkpt><trkpt lat="38.88091" lon="16.4889117"><ele>354.0</ele><time>2026-04-07T11:50:56.789Z</time></trkpt><trkpt lat="38.8809" lon="16.4888183"><ele>354.0</ele><time>2026-04-07T11:50:57.789Z</time></trkpt><trkpt lat="38.8808733" lon="16.4887233"><ele>354.0</ele><time>2026-04-07T11:50:58.788Z</time></trkpt><trkpt lat="38.88083" lon="16.4886167"><ele>354.0</ele><time>2026-04-07T11:50:59.788Z</time></trkpt><trkpt lat="38.8807583" lon="16.4885033"><ele>354.0</ele><time>2026-04-07T11:51:00.788Z</time></trkpt><trkpt lat="38.880675" lon="16.4883933"><ele>354.0</ele><time>2026-04-07T11:51:01.788Z</time></trkpt><trkpt lat="38.8806017" lon="16.48829"><ele>354.0</ele><time>2026-04-07T11:51:02.788Z</time></trkpt><trkpt lat="38.8805417" lon="16.4881983"><ele>354.0</ele><time>2026-04-07T11:51:03.789Z</time></trkpt><trkpt lat="38.880495" lon="16.4881017"><ele>354.0</ele><time>2026-04-07T11:51:04.788Z</time></trkpt><trkpt lat="38.88046" lon="16.4880033"><ele>354.0</ele><time>2026-04-07T11:51:05.788Z</time></trkpt><trkpt lat="38.8804467" lon="16.487905"><ele>354.0</ele><time>2026-04-07T11:51:06.788Z</time></trkpt><trkpt lat="38.880445" lon="16.4878067"><ele>354.0</ele><time>2026-04-07T11:51:07.788Z</time></trkpt><trkpt lat="38.8804533" lon="16.487705"><ele>354.0</ele><time>2026-04-07T11:51:08.788Z</time></trkpt><trkpt lat="38.8804717" lon="16.4875967"><ele>354.0</ele><time>2026-04-07T11:51:09.789Z</time></trkpt><trkpt lat="38.88048" lon="16.4874883"><ele>354.3333333333333</ele><time>2026-04-07T11:51:10.788Z</time></trkpt><trkpt lat="38.8804917" lon="16.4873983"><ele>354.6666666666667</ele><time>2026-04-07T11:51:11.788Z</time></trkpt><trkpt lat="38.8805017" lon="16.4873067"><ele>355.0</ele><time>2026-04-07T11:51:12.788Z</time></trkpt><trkpt lat="38.8805033" lon="16.4872133"><ele>355.33333333333337</ele><time>2026-04-07T11:51:13.788Z</time></trkpt><trkpt lat="38.880495" lon="16.4871117"><ele>355.6666666666667</ele><time>2026-04-07T11:51:14.788Z</time></trkpt><trkpt lat="38.8804733" lon="16.48701"><ele>356.0</ele><time>2026-04-07T11:51:15.788Z</time></trkpt><trkpt lat="38.8804567" lon="16.4869"><ele>356.1666666666667</ele><time>2026-04-07T11:51:16.789Z</time></trkpt><trkpt lat="38.8804367" lon="16.4868"><ele>356.33333333333337</ele><time>2026-04-07T11:51:17.788Z</time></trkpt><trkpt lat="38.880425" lon="16.4867017"><ele>356.5</ele><time>2026-04-07T11:51:18.788Z</time></trkpt><trkpt lat="38.8804167" lon="16.4866033"><ele>356.6666666666667</ele><time>2026-04-07T11:51:19.788Z</time></trkpt><trkpt lat="38.8804083" lon="16.4865117"><ele>356.8333333333333</ele><time>2026-04-07T11:51:20.789Z</time></trkpt><trkpt lat="38.8804067" lon="16.48643"><ele>357.0</ele><time>2026-04-07T11:51:21.788Z</time></trkpt><trkpt lat="38.8803867" lon="16.4863167"><ele>357.0</ele><time>2026-04-07T11:51:23.788Z</time></trkpt><trkpt lat="38.8803167" lon="16.486245"><ele>357.0</ele><time>2026-04-07T11:51:31.788Z</time></trkpt><trkpt lat="38.8802" lon="16.4862883"><ele>357.0</ele><time>2026-04-07T11:51:33.788Z</time></trkpt><trkpt lat="38.8801167" lon="16.4863483"><ele>357.0</ele><time>2026-04-07T11:51:34.788Z</time></trkpt><trkpt lat="38.88002" lon="16.4864283"><ele>357.0</ele><time>2026-04-07T11:51:35.789Z</time></trkpt><trkpt lat="38.8799267" lon="16.4864917"><ele>356.0</ele><time>2026-04-07T11:51:36.788Z</time></trkpt><trkpt lat="38.8798483" lon="16.4865383"><ele>355.0</ele><time>2026-04-07T11:51:37.789Z</time></trkpt><trkpt lat="38.8797817" lon="16.4865767"><ele>354.0</ele><time>2026-04-07T11:51:38.788Z</time></trkpt><trkpt lat="38.879725" lon="16.4866217"><ele>353.0</ele><time>2026-04-07T11:51:39.788Z</time></trkpt><trkpt lat="38.8796033" lon="16.4866317"><ele>352.0</ele><time>2026-04-07T11:51:41.788Z</time></trkpt><trkpt lat="38.8795233" lon="16.4866417"><ele>351.0</ele><time>2026-04-07T11:51:42.788Z</time></trkpt><trkpt lat="38.8793433" lon="16.4866133"><ele>351.0</ele><time>2026-04-07T11:51:44.789Z</time></trkpt><trkpt lat="38.879265" lon="16.486605"><ele>351.0</ele><time>2026-04-07T11:51:45.788Z</time></trkpt><trkpt lat="38.8791983" lon="16.486595"><ele>351.0</ele><time>2026-04-07T11:51:46.788Z</time></trkpt><trkpt lat="38.8790933" lon="16.48657"><ele>351.0</ele><time>2026-04-07T11:51:48.788Z</time></trkpt><trkpt lat="38.879025" lon="16.4865833"><ele>351.0</ele><time>2026-04-07T11:51:51.788Z</time></trkpt><trkpt lat="38.8790583" lon="16.4866667"><ele>351.0</ele><time>2026-04-07T11:51:54.788Z</time></trkpt><trkpt lat="38.8791267" lon="16.4866367"><ele>351.0</ele><time>2026-04-07T11:51:58.788Z</time></trkpt><trkpt lat="38.87906" lon="16.4866067"><ele>351.0</ele><time>2026-04-07T11:52:02.788Z</time></trkpt><trkpt lat="38.8789867" lon="16.4867"><ele>351.0</ele><time>2026-04-07T11:52:04.788Z</time></trkpt><trkpt lat="38.8789617" lon="16.4867833"><ele>351.0</ele><time>2026-04-07T11:52:05.788Z</time></trkpt><trkpt lat="38.8789467" lon="16.4868867"><ele>351.0</ele><time>2026-04-07T11:52:06.788Z</time></trkpt><trkpt lat="38.8789433" lon="16.4869933"><ele>351.0</ele><time>2026-04-07T11:52:07.788Z</time></trkpt><trkpt lat="38.8789367" lon="16.4871"><ele>350.5</ele><time>2026-04-07T11:52:08.788Z</time></trkpt><trkpt lat="38.8789333" lon="16.4872017"><ele>350.0</ele><time>2026-04-07T11:52:09.788Z</time></trkpt><trkpt lat="38.878925" lon="16.4874"><ele>349.5</ele><time>2026-04-07T11:52:11.788Z</time></trkpt><trkpt lat="38.8789183" lon="16.4874933"><ele>349.0</ele><time>2026-04-07T11:52:12.789Z</time></trkpt><trkpt lat="38.878915" lon="16.4875767"><ele>348.5</ele><time>2026-04-07T11:52:13.788Z</time></trkpt><trkpt lat="38.8789267" lon="16.4876567"><ele>348.0</ele><time>2026-04-07T11:52:14.788Z</time></trkpt><trkpt lat="38.878985" lon="16.48778"><ele>348.0</ele><time>2026-04-07T11:52:16.789Z</time></trkpt><trkpt lat="38.8791167" lon="16.4878317"><ele>348.0</ele><time>2026-04-07T11:52:18.788Z</time></trkpt><trkpt lat="38.8792067" lon="16.48783"><ele>348.0</ele><time>2026-04-07T11:52:19.788Z</time></trkpt><trkpt lat="38.8793" lon="16.4878333"><ele>348.0</ele><time>2026-04-07T11:52:20.788Z</time></trkpt><trkpt lat="38.879385" lon="16.4878283"><ele>348.0</ele><time>2026-04-07T11:52:21.788Z</time></trkpt><trkpt lat="38.87948" lon="16.4878183"><ele>348.1666666666667</ele><time>2026-04-07T11:52:22.788Z</time></trkpt><trkpt lat="38.87957" lon="16.4878117"><ele>348.3333333333333</ele><time>2026-04-07T11:52:23.788Z</time></trkpt><trkpt lat="38.8796517" lon="16.4878083"><ele>348.5</ele><time>2026-04-07T11:52:24.789Z</time></trkpt><trkpt lat="38.8797333" lon="16.4877883"><ele>348.66666666666663</ele><time>2026-04-07T11:52:25.788Z</time></trkpt><trkpt lat="38.8798133" lon="16.48776"><ele>348.8333333333333</ele><time>2026-04-07T11:52:26.789Z</time></trkpt><trkpt lat="38.8798917" lon="16.48773"><ele>349.0</ele><time>2026-04-07T11:52:27.788Z</time></trkpt><trkpt lat="38.8799667" lon="16.4876967"><ele>349.0</ele><time>2026-04-07T11:52:28.788Z</time></trkpt><trkpt lat="38.8800383" lon="16.48768"><ele>349.0</ele><time>2026-04-07T11:52:29.789Z</time></trkpt><trkpt lat="38.8801067" lon="16.48767"><ele>349.0</ele><time>2026-04-07T11:52:30.789Z</time></trkpt><trkpt lat="38.8802233" lon="16.4876933"><ele>349.0</ele><time>2026-04-07T11:52:32.788Z</time></trkpt><trkpt lat="38.8803117" lon="16.4877367"><ele>349.0</ele><time>2026-04-07T11:52:34.788Z</time></trkpt><trkpt lat="38.8803883" lon="16.4877183"><ele>349.0</ele><time>2026-04-07T11:52:36.789Z</time></trkpt><trkpt lat="38.8804467" lon="16.4876383"><ele>350.4</ele><time>2026-04-07T11:52:38.788Z</time></trkpt><trkpt lat="38.8804833" lon="16.4874783"><ele>351.79999999999995</ele><time>2026-04-07T11:52:40.788Z</time></trkpt><trkpt lat="38.8804967" lon="16.48738"><ele>353.20000000000005</ele><time>2026-04-07T11:52:41.788Z</time></trkpt><trkpt lat="38.8804983" lon="16.4872633"><ele>354.6</ele><time>2026-04-07T11:52:42.788Z</time></trkpt><trkpt lat="38.88049" lon="16.487145"><ele>356.0</ele><time>2026-04-07T11:52:43.788Z</time></trkpt><trkpt lat="38.880465" lon="16.4870133"><ele>356.1666666666667</ele><time>2026-04-07T11:52:44.789Z</time></trkpt><trkpt lat="38.8804517" lon="16.4868817"><ele>356.33333333333337</ele><time>2026-04-07T11:52:45.788Z</time></trkpt><trkpt lat="38.8804317" lon="16.486775"><ele>356.5</ele><time>2026-04-07T11:52:46.788Z</time></trkpt><trkpt lat="38.8804183" lon="16.4866683"><ele>356.6666666666667</ele><time>2026-04-07T11:52:47.788Z</time></trkpt><trkpt lat="38.880405" lon="16.4865583"><ele>356.8333333333333</ele><time>2026-04-07T11:52:48.788Z</time></trkpt><trkpt lat="38.880395" lon="16.4864517"><ele>357.0</ele><time>2026-04-07T11:52:49.788Z</time></trkpt><trkpt lat="38.8803817" lon="16.4863617"><ele>356.5</ele><time>2026-04-07T11:52:50.788Z</time></trkpt><trkpt lat="38.880385" lon="16.4862483"><ele>356.0</ele><time>2026-04-07T11:52:52.788Z</time></trkpt><trkpt lat="38.8804233" lon="16.48617"><ele>355.5</ele><time>2026-04-07T11:52:55.788Z</time></trkpt><trkpt lat="38.8804983" lon="16.48614"><ele>355.0</ele><time>2026-04-07T11:52:57.788Z</time></trkpt><trkpt lat="38.88059" lon="16.4861583"><ele>354.5</ele><time>2026-04-07T11:52:59.788Z</time></trkpt><trkpt lat="38.8806783" lon="16.4861933"><ele>354.0</ele><time>2026-04-07T11:53:01.789Z</time></trkpt><trkpt lat="38.8807317" lon="16.48624"><ele>354.6</ele><time>2026-04-07T11:53:03.788Z</time></trkpt><trkpt lat="38.880755" lon="16.4863633"><ele>355.2</ele><time>2026-04-07T11:53:07.788Z</time></trkpt><trkpt lat="38.8808367" lon="16.486455"><ele>355.8</ele><time>2026-04-07T11:53:09.789Z</time></trkpt><trkpt lat="38.8809317" lon="16.4865333"><ele>356.40000000000003</ele><time>2026-04-07T11:53:11.789Z</time></trkpt><trkpt lat="38.8810067" lon="16.48658"><ele>357.0</ele><time>2026-04-07T11:53:13.788Z</time></trkpt><trkpt lat="38.8810833" lon="16.48655"><ele>357.0</ele><time>2026-04-07T11:53:17.789Z</time></trkpt><trkpt lat="38.8811417" lon="16.48649"><ele>357.0</ele><time>2026-04-07T11:53:20.788Z</time></trkpt><trkpt lat="38.8810817" lon="16.4864317"><ele>357.0</ele><time>2026-04-07T11:53:28.788Z</time></trkpt><trkpt lat="38.880965" lon="16.4863433"><ele>357.0</ele><time>2026-04-07T11:53:30.788Z</time></trkpt><trkpt lat="38.8809067" lon="16.486305"><ele>357.0</ele><time>2026-04-07T11:53:31.789Z</time></trkpt><trkpt lat="38.880805" lon="16.4862483"><ele>356.5</ele><time>2026-04-07T11:53:33.788Z</time></trkpt><trkpt lat="38.880735" lon="16.486215"><ele>356.0</ele><time>2026-04-07T11:53:36.788Z</time></trkpt><trkpt lat="38.880675" lon="16.4861683"><ele>355.5</ele><time>2026-04-07T11:53:38.788Z</time></trkpt><trkpt lat="38.8805983" lon="16.4861167"><ele>355.0</ele><time>2026-04-07T11:53:40.788Z</time></trkpt><trkpt lat="38.8805067" lon="16.486085"><ele>354.5</ele><time>2026-04-07T11:53:42.789Z</time></trkpt><trkpt lat="38.88042" lon="16.4861"><ele>354.0</ele><time>2026-04-07T11:53:44.788Z</time></trkpt><trkpt lat="38.8803517" lon="16.4861367"><ele>354.0</ele><time>2026-04-07T11:53:54.788Z</time></trkpt><trkpt lat="38.8802817" lon="16.486195"><ele>354.0</ele><time>2026-04-07T11:53:56.788Z</time></trkpt><trkpt lat="38.8802233" lon="16.4862383"><ele>354.0</ele><time>2026-04-07T11:53:57.788Z</time></trkpt><trkpt lat="38.8801533" lon="16.4862883"><ele>354.0</ele><time>2026-04-07T11:53:58.789Z</time></trkpt><trkpt lat="38.8800833" lon="16.4863433"><ele>354.0</ele><time>2026-04-07T11:53:59.788Z</time></trkpt><trkpt lat="38.8800067" lon="16.48641"><ele>354.0</ele><time>2026-04-07T11:54:00.788Z</time></trkpt><trkpt lat="38.8799383" lon="16.48647"><ele>353.5</ele><time>2026-04-07T11:54:01.788Z</time></trkpt><trkpt lat="38.87987" lon="16.4865217"><ele>353.0</ele><time>2026-04-07T11:54:02.788Z</time></trkpt><trkpt lat="38.8798083" lon="16.4865683"><ele>352.5</ele><time>2026-04-07T11:54:03.788Z</time></trkpt><trkpt lat="38.87972" lon="16.4866083"><ele>352.0</ele><time>2026-04-07T11:54:05.788Z</time></trkpt><trkpt lat="38.8796533" lon="16.4866417"><ele>351.5</ele><time>2026-04-07T11:54:08.788Z</time></trkpt><trkpt lat="38.8797217" lon="16.4866817"><ele>351.0</ele><time>2026-04-07T11:54:13.789Z</time></trkpt><trkpt lat="38.8797067" lon="16.4865917"><ele>351.0</ele><time>2026-04-07T11:54:24.789Z</time></trkpt><trkpt lat="38.879675" lon="16.486495"><ele>351.0</ele><time>2026-04-07T11:54:26.788Z</time></trkpt><trkpt lat="38.879655" lon="16.4863867"><ele>351.0</ele><time>2026-04-07T11:54:28.788Z</time></trkpt><trkpt lat="38.8796233" lon="16.4862417"><ele>351.0</ele><time>2026-04-07T11:54:30.788Z</time></trkpt><trkpt lat="38.8796067" lon="16.4861617"><ele>351.0</ele><time>2026-04-07T11:54:31.788Z</time></trkpt><trkpt lat="38.87959" lon="16.4860633"><ele>351.0</ele><time>2026-04-07T11:54:32.789Z</time></trkpt><trkpt lat="38.8795783" lon="16.485975"><ele>350.6666666666667</ele><time>2026-04-07T11:54:33.788Z</time></trkpt><trkpt lat="38.87957" lon="16.4858233"><ele>350.3333333333333</ele><time>2026-04-07T11:54:35.788Z</time></trkpt><trkpt lat="38.879575" lon="16.4857233"><ele>350.0</ele><time>2026-04-07T11:54:37.788Z</time></trkpt><trkpt lat="38.8796283" lon="16.4856483"><ele>349.66666666666663</ele><time>2026-04-07T11:54:40.788Z</time></trkpt><trkpt lat="38.8796517" lon="16.4855533"><ele>349.3333333333333</ele><time>2026-04-07T11:54:43.788Z</time></trkpt><trkpt lat="38.8796083" lon="16.485655"><ele>349.0</ele><time>2026-04-07T11:54:49.789Z</time></trkpt><trkpt lat="38.8795633" lon="16.48573"><ele>349.0</ele><time>2026-04-07T11:54:51.788Z</time></trkpt><trkpt lat="38.8795217" lon="16.4858433"><ele>349.0</ele><time>2026-04-07T11:54:53.789Z</time></trkpt><trkpt lat="38.8795183" lon="16.4859583"><ele>349.0</ele><time>2026-04-07T11:54:55.789Z</time></trkpt><trkpt lat="38.8795383" lon="16.48609"><ele>349.0</ele><time>2026-04-07T11:54:57.788Z</time></trkpt><trkpt lat="38.8795583" lon="16.48624"><ele>349.0</ele><time>2026-04-07T11:54:59.788Z</time></trkpt><trkpt lat="38.879595" lon="16.4863967"><ele>349.3333333333333</ele><time>2026-04-07T11:55:01.788Z</time></trkpt><trkpt lat="38.8796167" lon="16.486475"><ele>349.66666666666663</ele><time>2026-04-07T11:55:02.788Z</time></trkpt><trkpt lat="38.8796533" lon="16.4865567"><ele>350.0</ele><time>2026-04-07T11:55:04.789Z</time></trkpt><trkpt lat="38.87972" lon="16.4866217"><ele>350.3333333333333</ele><time>2026-04-07T11:55:08.788Z</time></trkpt><trkpt lat="38.8797767" lon="16.4866717"><ele>350.6666666666667</ele><time>2026-04-07T11:55:10.788Z</time></trkpt><trkpt lat="38.87984" lon="16.4867583"><ele>351.0</ele><time>2026-04-07T11:55:12.788Z</time></trkpt><trkpt lat="38.87991" lon="16.4868967"><ele>351.0</ele><time>2026-04-07T11:55:14.788Z</time></trkpt><trkpt lat="38.8799383" lon="16.4869833"><ele>351.0</ele><time>2026-04-07T11:55:15.788Z</time></trkpt><trkpt lat="38.8799767" lon="16.4870833"><ele>351.0</ele><time>2026-04-07T11:55:16.788Z</time></trkpt><trkpt lat="38.8800133" lon="16.4871767"><ele>351.0</ele><time>2026-04-07T11:55:17.788Z</time></trkpt><trkpt lat="38.8800617" lon="16.48726"><ele>351.0</ele><time>2026-04-07T11:55:18.788Z</time></trkpt><trkpt lat="38.8801017" lon="16.4873483"><ele>351.0</ele><time>2026-04-07T11:55:19.789Z</time></trkpt><trkpt lat="38.8801417" lon="16.4874333"><ele>351.5</ele><time>2026-04-07T11:55:20.789Z</time></trkpt><trkpt lat="38.8801717" lon="16.487515"><ele>352.0</ele><time>2026-04-07T11:55:21.789Z</time></trkpt><trkpt lat="38.88022" lon="16.4876183"><ele>352.5</ele><time>2026-04-07T11:55:23.788Z</time></trkpt><trkpt lat="38.880255" lon="16.4876883"><ele>353.0</ele><time>2026-04-07T11:55:25.788Z</time></trkpt><trkpt lat="38.880305" lon="16.4877717"><ele>353.5</ele><time>2026-04-07T11:55:27.789Z</time></trkpt><trkpt lat="38.8803367" lon="16.487865"><ele>354.0</ele><time>2026-04-07T11:55:29.788Z</time></trkpt><trkpt lat="38.88038" lon="16.4879367"><ele>354.0</ele><time>2026-04-07T11:55:32.788Z</time></trkpt><trkpt lat="38.8804367" lon="16.4880067"><ele>354.0</ele><time>2026-04-07T11:55:37.788Z</time></trkpt><trkpt lat="38.8804783" lon="16.4881067"><ele>354.0</ele><time>2026-04-07T11:55:39.788Z</time></trkpt><trkpt lat="38.8805383" lon="16.4882267"><ele>354.0</ele><time>2026-04-07T11:55:41.788Z</time></trkpt><trkpt lat="38.8805933" lon="16.48832"><ele>354.0</ele><time>2026-04-07T11:55:43.788Z</time></trkpt><trkpt lat="38.880635" lon="16.4884"><ele>354.0</ele><time>2026-04-07T11:55:45.788Z</time></trkpt><trkpt lat="38.8806133" lon="16.4883083"><ele>354.0</ele><time>2026-04-07T11:55:53.789Z</time></trkpt><trkpt lat="38.88056" lon="16.4882233"><ele>354.0</ele><time>2026-04-07T11:55:55.788Z</time></trkpt><trkpt lat="38.88051" lon="16.4881183"><ele>354.0</ele><time>2026-04-07T11:55:57.788Z</time></trkpt><trkpt lat="38.8804767" lon="16.488025"><ele>354.0</ele><time>2026-04-07T11:55:59.788Z</time></trkpt><trkpt lat="38.880465" lon="16.4879217"><ele>354.0</ele><time>2026-04-07T11:56:01.788Z</time></trkpt><trkpt lat="38.8804533" lon="16.4877867"><ele>354.0</ele><time>2026-04-07T11:56:03.788Z</time></trkpt><trkpt lat="38.8804633" lon="16.4876417"><ele>354.3333333333333</ele><time>2026-04-07T11:56:05.789Z</time></trkpt><trkpt lat="38.88047" lon="16.48756"><ele>354.6666666666667</ele><time>2026-04-07T11:56:06.788Z</time></trkpt><trkpt lat="38.8804817" lon="16.4874333"><ele>355.0</ele><time>2026-04-07T11:56:08.788Z</time></trkpt><trkpt lat="38.8805017" lon="16.48735"><ele>355.33333333333337</ele><time>2026-04-07T11:56:10.788Z</time></trkpt><trkpt lat="38.880505" lon="16.487255"><ele>355.6666666666667</ele><time>2026-04-07T11:56:14.788Z</time></trkpt><trkpt lat="38.88048" lon="16.4871533"><ele>356.0</ele><time>2026-04-07T11:56:17.788Z</time></trkpt><trkpt lat="38.8804633" lon="16.4870383"><ele>356.20000000000005</ele><time>2026-04-07T11:56:20.788Z</time></trkpt><trkpt lat="38.8804567" lon="16.486915"><ele>356.40000000000003</ele><time>2026-04-07T11:56:23.789Z</time></trkpt><trkpt lat="38.8804483" lon="16.4867867"><ele>356.6</ele><time>2026-04-07T11:56:25.788Z</time></trkpt><trkpt lat="38.8804333" lon="16.4866433"><ele>356.8</ele><time>2026-04-07T11:56:27.788Z</time></trkpt><trkpt lat="38.880415" lon="16.486505"><ele>357.0</ele><time>2026-04-07T11:56:29.788Z</time></trkpt><trkpt lat="38.8804017" lon="16.486385"><ele>357.0</ele><time>2026-04-07T11:56:31.788Z</time></trkpt><trkpt lat="38.8804033" lon="16.4862917"><ele>357.0</ele><time>2026-04-07T11:56:33.788Z</time></trkpt><trkpt lat="38.8803783" lon="16.486195"><ele>357.0</ele><time>2026-04-07T11:56:37.788Z</time></trkpt><trkpt lat="38.88039" lon="16.4860717"><ele>357.0</ele><time>2026-04-07T11:56:40.788Z</time></trkpt><trkpt lat="38.88043" lon="16.4859567"><ele>357.0</ele><time>2026-04-07T11:56:42.789Z</time></trkpt><trkpt lat="38.8804483" lon="16.48582"><ele>356.5</ele><time>2026-04-07T11:56:44.788Z</time></trkpt><trkpt lat="38.88045" lon="16.4857367"><ele>356.0</ele><time>2026-04-07T11:56:45.788Z</time></trkpt><trkpt lat="38.8804533" lon="16.4856533"><ele>355.5</ele><time>2026-04-07T11:56:46.788Z</time></trkpt><trkpt lat="38.8804583" lon="16.48557"><ele>355.0</ele><time>2026-04-07T11:56:47.788Z</time></trkpt><trkpt lat="38.8804867" lon="16.4854417"><ele>354.5</ele><time>2026-04-07T11:56:49.788Z</time></trkpt><trkpt lat="38.8805233" lon="16.4853133"><ele>354.0</ele><time>2026-04-07T11:56:51.788Z</time></trkpt><trkpt lat="38.8805533" lon="16.4852183"><ele>353.0</ele><time>2026-04-07T11:56:52.788Z</time></trkpt><trkpt lat="38.8806083" lon="16.4851117"><ele>352.0</ele><time>2026-04-07T11:56:53.788Z</time></trkpt><trkpt lat="38.8806633" lon="16.4849833"><ele>351.0</ele><time>2026-04-07T11:56:54.789Z</time></trkpt><trkpt lat="38.8807233" lon="16.48485"><ele>350.0</ele><time>2026-04-07T11:56:55.788Z</time></trkpt><trkpt lat="38.88078" lon="16.4847283"><ele>349.0</ele><time>2026-04-07T11:56:56.788Z</time></trkpt><trkpt lat="38.88083" lon="16.4846117"><ele>348.8333333333333</ele><time>2026-04-07T11:56:57.789Z</time></trkpt><trkpt lat="38.8808917" lon="16.4845317"><ele>348.66666666666663</ele><time>2026-04-07T11:56:58.788Z</time></trkpt><trkpt lat="38.880945" lon="16.4844483"><ele>348.5</ele><time>2026-04-07T11:56:59.788Z</time></trkpt><trkpt lat="38.881015" lon="16.484385"><ele>348.3333333333333</ele><time>2026-04-07T11:57:00.788Z</time></trkpt><trkpt lat="38.8811017" lon="16.4843233"><ele>348.1666666666667</ele><time>2026-04-07T11:57:01.789Z</time></trkpt><trkpt lat="38.8811867" lon="16.4842933"><ele>348.0</ele><time>2026-04-07T11:57:02.788Z</time></trkpt><trkpt lat="38.8812817" lon="16.4842767"><ele>348.0</ele><time>2026-04-07T11:57:03.788Z</time></trkpt><trkpt lat="38.8813817" lon="16.4842833"><ele>348.0</ele><time>2026-04-07T11:57:04.788Z</time></trkpt><trkpt lat="38.8814867" lon="16.4842917"><ele>348.0</ele><time>2026-04-07T11:57:05.789Z</time></trkpt><trkpt lat="38.8815983" lon="16.4843033"><ele>348.0</ele><time>2026-04-07T11:57:06.788Z</time></trkpt><trkpt lat="38.881705" lon="16.4843117"><ele>348.0</ele><time>2026-04-07T11:57:07.788Z</time></trkpt><trkpt lat="38.8818133" lon="16.4843217"><ele>346.0</ele><time>2026-04-07T11:57:08.789Z</time></trkpt><trkpt lat="38.8819133" lon="16.4843233"><ele>344.0</ele><time>2026-04-07T11:57:09.789Z</time></trkpt><trkpt lat="38.8820083" lon="16.4843483"><ele>342.0</ele><time>2026-04-07T11:57:10.788Z</time></trkpt><trkpt lat="38.8821083" lon="16.4843683"><ele>340.0</ele><time>2026-04-07T11:57:11.789Z</time></trkpt><trkpt lat="38.8822933" lon="16.4844067"><ele>340.0</ele><time>2026-04-07T11:57:13.788Z</time></trkpt><trkpt lat="38.882375" lon="16.4844283"><ele>340.0</ele><time>2026-04-07T11:57:14.788Z</time></trkpt><trkpt lat="38.882445" lon="16.4844633"><ele>340.0</ele><time>2026-04-07T11:57:15.788Z</time></trkpt><trkpt lat="38.882515" lon="16.4845"><ele>340.0</ele><time>2026-04-07T11:57:16.788Z</time></trkpt><trkpt lat="38.8825833" lon="16.4845383"><ele>340.0</ele><time>2026-04-07T11:57:17.789Z</time></trkpt><trkpt lat="38.8826517" lon="16.4845633"><ele>340.0</ele><time>2026-04-07T11:57:18.788Z</time></trkpt><trkpt lat="38.882715" lon="16.484575"><ele>340.0</ele><time>2026-04-07T11:57:19.788Z</time></trkpt><trkpt lat="38.88278" lon="16.484595"><ele>340.8333333333333</ele><time>2026-04-07T11:57:20.788Z</time></trkpt><trkpt lat="38.8828517" lon="16.4846167"><ele>341.66666666666663</ele><time>2026-04-07T11:57:21.789Z</time></trkpt><trkpt lat="38.882935" lon="16.484645"><ele>342.5</ele><time>2026-04-07T11:57:22.789Z</time></trkpt><trkpt lat="38.8830167" lon="16.4846783"><ele>343.3333333333333</ele><time>2026-04-07T11:57:23.788Z</time></trkpt><trkpt lat="38.883105" lon="16.48471"><ele>344.1666666666667</ele><time>2026-04-07T11:57:24.788Z</time></trkpt><trkpt lat="38.8831933" lon="16.48474"><ele>345.0</ele><time>2026-04-07T11:57:25.788Z</time></trkpt><trkpt lat="38.8832867" lon="16.4847683"><ele>345.0</ele><time>2026-04-07T11:57:26.789Z</time></trkpt><trkpt lat="38.8833783" lon="16.484805"><ele>345.0</ele><time>2026-04-07T11:57:27.789Z</time></trkpt><trkpt lat="38.883475" lon="16.4848583"><ele>345.0</ele><time>2026-04-07T11:57:28.788Z</time></trkpt><trkpt lat="38.883565" lon="16.484895"><ele>345.0</ele><time>2026-04-07T11:57:29.788Z</time></trkpt><trkpt lat="38.883645" lon="16.4849417"><ele>345.0</ele><time>2026-04-07T11:57:30.788Z</time></trkpt><trkpt lat="38.8837183" lon="16.4849933"><ele>343.1666666666667</ele><time>2026-04-07T11:57:31.788Z</time></trkpt><trkpt lat="38.8837917" lon="16.48505"><ele>341.3333333333333</ele><time>2026-04-07T11:57:32.789Z</time></trkpt><trkpt lat="38.8838633" lon="16.4851117"><ele>339.5</ele><time>2026-04-07T11:57:33.789Z</time></trkpt><trkpt lat="38.8839333" lon="16.4851833"><ele>337.66666666666663</ele><time>2026-04-07T11:57:34.788Z</time></trkpt><trkpt lat="38.8840033" lon="16.4852533"><ele>335.8333333333333</ele><time>2026-04-07T11:57:35.788Z</time></trkpt><trkpt lat="38.8840633" lon="16.4853267"><ele>334.0</ele><time>2026-04-07T11:57:36.789Z</time></trkpt><trkpt lat="38.88412" lon="16.4854"><ele>334.16666666666663</ele><time>2026-04-07T11:57:37.788Z</time></trkpt><trkpt lat="38.88417" lon="16.4854833"><ele>334.3333333333333</ele><time>2026-04-07T11:57:38.789Z</time></trkpt><trkpt lat="38.8842267" lon="16.4855667"><ele>334.5</ele><time>2026-04-07T11:57:39.789Z</time></trkpt><trkpt lat="38.884275" lon="16.4856583"><ele>334.6666666666667</ele><time>2026-04-07T11:57:40.788Z</time></trkpt><trkpt lat="38.8843183" lon="16.4857567"><ele>334.83333333333337</ele><time>2026-04-07T11:57:41.789Z</time></trkpt><trkpt lat="38.8843583" lon="16.4858633"><ele>335.0</ele><time>2026-04-07T11:57:42.788Z</time></trkpt><trkpt lat="38.884385" lon="16.4859633"><ele>334.1666666666667</ele><time>2026-04-07T11:57:43.788Z</time></trkpt><trkpt lat="38.8844183" lon="16.486055"><ele>333.33333333333337</ele><time>2026-04-07T11:57:44.789Z</time></trkpt><trkpt lat="38.8844483" lon="16.4861433"><ele>332.5</ele><time>2026-04-07T11:57:45.789Z</time></trkpt><trkpt lat="38.88447" lon="16.486225"><ele>331.6666666666667</ele><time>2026-04-07T11:57:46.788Z</time></trkpt><trkpt lat="38.88449" lon="16.4863183"><ele>330.8333333333333</ele><time>2026-04-07T11:57:48.788Z</time></trkpt><trkpt lat="38.8845183" lon="16.4864083"><ele>330.0</ele><time>2026-04-07T11:57:51.788Z</time></trkpt><trkpt lat="38.8845317" lon="16.4865067"><ele>329.8</ele><time>2026-04-07T11:57:53.788Z</time></trkpt><trkpt lat="38.88456" lon="16.4866817"><ele>329.6</ele><time>2026-04-07T11:57:55.789Z</time></trkpt><trkpt lat="38.8845767" lon="16.4868067"><ele>329.4</ele><time>2026-04-07T11:57:56.788Z</time></trkpt><trkpt lat="38.884595" lon="16.4869383"><ele>329.2</ele><time>2026-04-07T11:57:57.789Z</time></trkpt><trkpt lat="38.8846083" lon="16.4870633"><ele>329.0</ele><time>2026-04-07T11:57:58.789Z</time></trkpt><trkpt lat="38.8846167" lon="16.4871717"><ele>329.0</ele><time>2026-04-07T11:57:59.789Z</time></trkpt><trkpt lat="38.8846233" lon="16.4872533"><ele>329.0</ele><time>2026-04-07T11:58:00.789Z</time></trkpt><trkpt lat="38.8846367" lon="16.487335"><ele>329.0</ele><time>2026-04-07T11:58:02.788Z</time></trkpt><trkpt lat="38.8846733" lon="16.48726"><ele>329.0</ele><time>2026-04-07T11:58:06.789Z</time></trkpt><trkpt lat="38.8846383" lon="16.4871383"><ele>329.0</ele><time>2026-04-07T11:58:08.788Z</time></trkpt><trkpt lat="38.8846183" lon="16.4870483"><ele>329.0</ele><time>2026-04-07T11:58:09.789Z</time></trkpt><trkpt lat="38.884605" lon="16.4869433"><ele>329.0</ele><time>2026-04-07T11:58:10.788Z</time></trkpt><trkpt lat="38.88459" lon="16.4868267"><ele>329.0</ele><time>2026-04-07T11:58:11.788Z</time></trkpt><trkpt lat="38.8845717" lon="16.4866967"><ele>329.0</ele><time>2026-04-07T11:58:12.789Z</time></trkpt><trkpt lat="38.8845467" lon="16.4865667"><ele>329.0</ele><time>2026-04-07T11:58:13.789Z</time></trkpt><trkpt lat="38.8845267" lon="16.486435"><ele>329.0</ele><time>2026-04-07T11:58:14.788Z</time></trkpt><trkpt lat="38.8845083" lon="16.486315"><ele>329.2</ele><time>2026-04-07T11:58:15.788Z</time></trkpt><trkpt lat="38.884485" lon="16.4862"><ele>329.4</ele><time>2026-04-07T11:58:16.788Z</time></trkpt><trkpt lat="38.8844533" lon="16.4860917"><ele>329.6</ele><time>2026-04-07T11:58:17.789Z</time></trkpt><trkpt lat="38.88442" lon="16.48597"><ele>329.8</ele><time>2026-04-07T11:58:18.788Z</time></trkpt><trkpt lat="38.88438" lon="16.485855"><ele>330.0</ele><time>2026-04-07T11:58:19.789Z</time></trkpt><trkpt lat="38.8843383" lon="16.4857533"><ele>330.0</ele><time>2026-04-07T11:58:20.789Z</time></trkpt><trkpt lat="38.8843017" lon="16.485665"><ele>330.0</ele><time>2026-04-07T11:58:21.788Z</time></trkpt><trkpt lat="38.8842667" lon="16.485555"><ele>330.0</ele><time>2026-04-07T11:58:23.789Z</time></trkpt><trkpt lat="38.8842233" lon="16.4854717"><ele>330.0</ele><time>2026-04-07T11:58:26.789Z</time></trkpt><trkpt lat="38.8841967" lon="16.4855533"><ele>330.0</ele><time>2026-04-07T11:59:11.789Z</time></trkpt><trkpt lat="38.88424" lon="16.4856283"><ele>330.0</ele><time>2026-04-07T11:59:12.789Z</time></trkpt><trkpt lat="38.8842933" lon="16.485725"><ele>330.0</ele><time>2026-04-07T11:59:13.788Z</time></trkpt><trkpt lat="38.8843483" lon="16.4858433"><ele>330.0</ele><time>2026-04-07T11:59:14.788Z</time></trkpt><trkpt lat="38.8843933" lon="16.48596"><ele>330.0</ele><time>2026-04-07T11:59:15.789Z</time></trkpt><trkpt lat="38.8844317" lon="16.4860633"><ele>330.0</ele><time>2026-04-07T11:59:16.788Z</time></trkpt><trkpt lat="38.88446" lon="16.4861517"><ele>330.0</ele><time>2026-04-07T11:59:17.789Z</time></trkpt><trkpt lat="38.88449" lon="16.48624"><ele>330.0</ele><time>2026-04-07T11:59:19.788Z</time></trkpt><trkpt lat="38.8845717" lon="16.4862583"><ele>330.0</ele><time>2026-04-07T11:59:22.788Z</time></trkpt><trkpt lat="38.8846817" lon="16.4861817"><ele>330.0</ele><time>2026-04-07T11:59:24.789Z</time></trkpt><trkpt lat="38.8847633" lon="16.48612"><ele>330.0</ele><time>2026-04-07T11:59:25.788Z</time></trkpt><trkpt lat="38.8848567" lon="16.4860383"><ele>330.0</ele><time>2026-04-07T11:59:26.788Z</time></trkpt><trkpt lat="38.88496" lon="16.48596"><ele>330.0</ele><time>2026-04-07T11:59:27.788Z</time></trkpt><trkpt lat="38.8850567" lon="16.48587"><ele>330.0</ele><time>2026-04-07T11:59:28.788Z</time></trkpt><trkpt lat="38.88515" lon="16.4857833"><ele>330.0</ele><time>2026-04-07T11:59:29.788Z</time></trkpt><trkpt lat="38.8852383" lon="16.4857133"><ele>330.0</ele><time>2026-04-07T11:59:30.788Z</time></trkpt><trkpt lat="38.885315" lon="16.48565"><ele>330.0</ele><time>2026-04-07T11:59:31.788Z</time></trkpt><trkpt lat="38.8853967" lon="16.4856033"><ele>329.8333333333333</ele><time>2026-04-07T11:59:32.788Z</time></trkpt><trkpt lat="38.88547" lon="16.4855683"><ele>329.6666666666667</ele><time>2026-04-07T11:59:33.788Z</time></trkpt><trkpt lat="38.8855433" lon="16.4855533"><ele>329.5</ele><time>2026-04-07T11:59:34.788Z</time></trkpt><trkpt lat="38.88563" lon="16.48554"><ele>329.33333333333337</ele><time>2026-04-07T11:59:35.788Z</time></trkpt><trkpt lat="38.8857267" lon="16.4855317"><ele>329.1666666666667</ele><time>2026-04-07T11:59:36.788Z</time></trkpt><trkpt lat="38.8858233" lon="16.4855383"><ele>329.0</ele><time>2026-04-07T11:59:37.788Z</time></trkpt><trkpt lat="38.885925" lon="16.485535"><ele>329.79999999999995</ele><time>2026-04-07T11:59:38.788Z</time></trkpt><trkpt lat="38.8860217" lon="16.48553"><ele>330.59999999999997</ele><time>2026-04-07T11:59:39.788Z</time></trkpt><trkpt lat="38.8861" lon="16.485525"><ele>331.4</ele><time>2026-04-07T11:59:40.789Z</time></trkpt><trkpt lat="38.8861967" lon="16.4855017"><ele>332.2</ele><time>2026-04-07T11:59:42.788Z</time></trkpt><trkpt lat="38.8862783" lon="16.485525"><ele>333.0</ele><time>2026-04-07T11:59:45.788Z</time></trkpt><trkpt lat="38.88638" lon="16.4855767"><ele>333.0</ele><time>2026-04-07T11:59:47.789Z</time></trkpt><trkpt lat="38.8864517" lon="16.4855933"><ele>333.0</ele><time>2026-04-07T11:59:48.788Z</time></trkpt><trkpt lat="38.886535" lon="16.4856067"><ele>333.0</ele><time>2026-04-07T11:59:49.789Z</time></trkpt><trkpt lat="38.8866217" lon="16.4856183"><ele>333.0</ele><time>2026-04-07T11:59:50.788Z</time></trkpt><trkpt lat="38.8867083" lon="16.48563"><ele>333.0</ele><time>2026-04-07T11:59:51.789Z</time></trkpt><trkpt lat="38.8868" lon="16.4856283"><ele>333.0</ele><time>2026-04-07T11:59:52.788Z</time></trkpt><trkpt lat="38.8868967" lon="16.485625"><ele>331.2</ele><time>2026-04-07T11:59:53.788Z</time></trkpt><trkpt lat="38.887" lon="16.4856183"><ele>329.4</ele><time>2026-04-07T11:59:54.788Z</time></trkpt><trkpt lat="38.8871067" lon="16.485605"><ele>327.59999999999997</ele><time>2026-04-07T11:59:55.788Z</time></trkpt><trkpt lat="38.8872117" lon="16.4855817"><ele>325.79999999999995</ele><time>2026-04-07T11:59:56.788Z</time></trkpt><trkpt lat="38.8873133" lon="16.4855467"><ele>324.0</ele><time>2026-04-07T11:59:57.788Z</time></trkpt><trkpt lat="38.8874067" lon="16.4855133"><ele>324.0</ele><time>2026-04-07T11:59:58.788Z</time></trkpt><trkpt lat="38.8874983" lon="16.4854867"><ele>324.0</ele><time>2026-04-07T11:59:59.788Z</time></trkpt><trkpt lat="38.8875917" lon="16.4854667"><ele>324.0</ele><time>2026-04-07T12:00:00.788Z</time></trkpt><trkpt lat="38.8876683" lon="16.485465"><ele>324.0</ele><time>2026-04-07T12:00:01.788Z</time></trkpt><trkpt lat="38.8877367" lon="16.4854817"><ele>324.0</ele><time>2026-04-07T12:00:02.788Z</time></trkpt><trkpt lat="38.8878117" lon="16.4855017"><ele>324.0</ele><time>2026-04-07T12:00:03.788Z</time></trkpt><trkpt lat="38.8878933" lon="16.485515"><ele>323.5</ele><time>2026-04-07T12:00:04.789Z</time></trkpt><trkpt lat="38.887975" lon="16.4855267"><ele>323.0</ele><time>2026-04-07T12:00:05.789Z</time></trkpt><trkpt lat="38.8880633" lon="16.4855333"><ele>322.5</ele><time>2026-04-07T12:00:06.789Z</time></trkpt><trkpt lat="38.8881517" lon="16.48554"><ele>322.0</ele><time>2026-04-07T12:00:07.789Z</time></trkpt><trkpt lat="38.8882383" lon="16.48554"><ele>321.5</ele><time>2026-04-07T12:00:08.789Z</time></trkpt><trkpt lat="38.8883217" lon="16.4855383"><ele>321.0</ele><time>2026-04-07T12:00:09.788Z</time></trkpt><trkpt lat="38.888405" lon="16.4855467"><ele>322.5</ele><time>2026-04-07T12:00:10.789Z</time></trkpt><trkpt lat="38.8884867" lon="16.4855683"><ele>324.0</ele><time>2026-04-07T12:00:11.789Z</time></trkpt><trkpt lat="38.888565" lon="16.4856117"><ele>325.5</ele><time>2026-04-07T12:00:12.788Z</time></trkpt><trkpt lat="38.8886417" lon="16.4856567"><ele>327.0</ele><time>2026-04-07T12:00:13.788Z</time></trkpt><trkpt lat="38.8887283" lon="16.485685"><ele>328.5</ele><time>2026-04-07T12:00:14.788Z</time></trkpt><trkpt lat="38.8888167" lon="16.4856883"><ele>330.0</ele><time>2026-04-07T12:00:15.788Z</time></trkpt><trkpt lat="38.8889067" lon="16.4856767"><ele>330.0</ele><time>2026-04-07T12:00:16.789Z</time></trkpt><trkpt lat="38.8889983" lon="16.4856417"><ele>330.0</ele><time>2026-04-07T12:00:17.788Z</time></trkpt><trkpt lat="38.8890867" lon="16.4856"><ele>330.0</ele><time>2026-04-07T12:00:18.788Z</time></trkpt><trkpt lat="38.8891733" lon="16.4855533"><ele>330.0</ele><time>2026-04-07T12:00:19.789Z</time></trkpt><trkpt lat="38.8892533" lon="16.4854967"><ele>330.0</ele><time>2026-04-07T12:00:20.789Z</time></trkpt><trkpt lat="38.8893317" lon="16.4854367"><ele>332.0</ele><time>2026-04-07T12:00:21.788Z</time></trkpt><trkpt lat="38.8894083" lon="16.485385"><ele>334.0</ele><time>2026-04-07T12:00:22.788Z</time></trkpt><trkpt lat="38.8894733" lon="16.485355"><ele>336.0</ele><time>2026-04-07T12:00:23.788Z</time></trkpt><trkpt lat="38.889545" lon="16.48534"><ele>338.0</ele><time>2026-04-07T12:00:24.788Z</time></trkpt><trkpt lat="38.8896183" lon="16.4853317"><ele>340.0</ele><time>2026-04-07T12:00:25.788Z</time></trkpt><trkpt lat="38.8897" lon="16.4853233"><ele>342.0</ele><time>2026-04-07T12:00:26.789Z</time></trkpt><trkpt lat="38.88979" lon="16.4853"><ele>342.0</ele><time>2026-04-07T12:00:27.788Z</time></trkpt><trkpt lat="38.8898817" lon="16.4852717"><ele>342.0</ele><time>2026-04-07T12:00:28.788Z</time></trkpt><trkpt lat="38.88997" lon="16.48525"><ele>342.0</ele><time>2026-04-07T12:00:29.788Z</time></trkpt><trkpt lat="38.8900633" lon="16.4852367"><ele>342.0</ele><time>2026-04-07T12:00:30.788Z</time></trkpt><trkpt lat="38.890165" lon="16.48522"><ele>342.0</ele><time>2026-04-07T12:00:31.788Z</time></trkpt><trkpt lat="38.8902717" lon="16.4852017"><ele>345.0</ele><time>2026-04-07T12:00:32.788Z</time></trkpt><trkpt lat="38.8903767" lon="16.48518"><ele>348.0</ele><time>2026-04-07T12:00:33.788Z</time></trkpt><trkpt lat="38.8905017" lon="16.4851583"><ele>351.0</ele><time>2026-04-07T12:00:34.788Z</time></trkpt><trkpt lat="38.8906267" lon="16.4851383"><ele>354.0</ele><time>2026-04-07T12:00:35.788Z</time></trkpt><trkpt lat="38.8907533" lon="16.4851167"><ele>354.0</ele><time>2026-04-07T12:00:36.788Z</time></trkpt><trkpt lat="38.8908817" lon="16.4850933"><ele>354.0</ele><time>2026-04-07T12:00:37.788Z</time></trkpt><trkpt lat="38.8910033" lon="16.4850667"><ele>354.0</ele><time>2026-04-07T12:00:38.789Z</time></trkpt><trkpt lat="38.891125" lon="16.4850417"><ele>354.0</ele><time>2026-04-07T12:00:39.788Z</time></trkpt><trkpt lat="38.8912417" lon="16.485015"><ele>356.2</ele><time>2026-04-07T12:00:40.788Z</time></trkpt><trkpt lat="38.8913617" lon="16.4849917"><ele>358.4</ele><time>2026-04-07T12:00:41.789Z</time></trkpt><trkpt lat="38.8914617" lon="16.4849617"><ele>360.6</ele><time>2026-04-07T12:00:42.789Z</time></trkpt><trkpt lat="38.8915617" lon="16.4849333"><ele>362.8</ele><time>2026-04-07T12:00:43.789Z</time></trkpt><trkpt lat="38.89166" lon="16.484915"><ele>365.0</ele><time>2026-04-07T12:00:44.788Z</time></trkpt><trkpt lat="38.89175" lon="16.48491"><ele>366.8</ele><time>2026-04-07T12:00:45.788Z</time></trkpt><trkpt lat="38.8918467" lon="16.4849017"><ele>368.6</ele><time>2026-04-07T12:00:46.789Z</time></trkpt><trkpt lat="38.8919383" lon="16.484895"><ele>370.4</ele><time>2026-04-07T12:00:47.788Z</time></trkpt><trkpt lat="38.8920317" lon="16.4848833"><ele>372.2</ele><time>2026-04-07T12:00:48.788Z</time></trkpt><trkpt lat="38.8921167" lon="16.48488"><ele>374.0</ele><time>2026-04-07T12:00:49.788Z</time></trkpt><trkpt lat="38.8922067" lon="16.4848833"><ele>374.0</ele><time>2026-04-07T12:00:50.788Z</time></trkpt><trkpt lat="38.8922967" lon="16.4848983"><ele>374.0</ele><time>2026-04-07T12:00:51.788Z</time></trkpt><trkpt lat="38.8923833" lon="16.4849183"><ele>374.0</ele><time>2026-04-07T12:00:52.789Z</time></trkpt><trkpt lat="38.8924633" lon="16.484945"><ele>374.0</ele><time>2026-04-07T12:00:53.788Z</time></trkpt><trkpt lat="38.892535" lon="16.4849717"><ele>374.0</ele><time>2026-04-07T12:00:54.788Z</time></trkpt><trkpt lat="38.8925983" lon="16.4849967"><ele>374.0</ele><time>2026-04-07T12:00:55.788Z</time></trkpt><trkpt lat="38.892675" lon="16.4850283"><ele>374.6666666666667</ele><time>2026-04-07T12:00:57.788Z</time></trkpt><trkpt lat="38.8927717" lon="16.4850533"><ele>375.33333333333337</ele><time>2026-04-07T12:01:00.788Z</time></trkpt><trkpt lat="38.8928783" lon="16.4850733"><ele>376.0</ele><time>2026-04-07T12:01:02.788Z</time></trkpt><trkpt lat="38.8929433" lon="16.4850783"><ele>376.6666666666667</ele><time>2026-04-07T12:01:03.788Z</time></trkpt><trkpt lat="38.8930167" lon="16.485085"><ele>377.3333333333333</ele><time>2026-04-07T12:01:04.788Z</time></trkpt><trkpt lat="38.89309" lon="16.4850733"><ele>378.0</ele><time>2026-04-07T12:01:05.788Z</time></trkpt><trkpt lat="38.8931733" lon="16.4850583"><ele>378.0</ele><time>2026-04-07T12:01:06.788Z</time></trkpt><trkpt lat="38.89326" lon="16.4850367"><ele>378.0</ele><time>2026-04-07T12:01:07.789Z</time></trkpt><trkpt lat="38.893345" lon="16.48503"><ele>378.0</ele><time>2026-04-07T12:01:08.788Z</time></trkpt><trkpt lat="38.8934283" lon="16.4850217"><ele>378.0</ele><time>2026-04-07T12:01:09.788Z</time></trkpt><trkpt lat="38.89351" lon="16.4850267"><ele>378.0</ele><time>2026-04-07T12:01:10.788Z</time></trkpt><trkpt lat="38.8936" lon="16.4850183"><ele>378.0</ele><time>2026-04-07T12:01:11.789Z</time></trkpt><trkpt lat="38.893695" lon="16.4850233"><ele>379.0</ele><time>2026-04-07T12:01:12.788Z</time></trkpt><trkpt lat="38.8937917" lon="16.4850233"><ele>380.0</ele><time>2026-04-07T12:01:13.789Z</time></trkpt><trkpt lat="38.89389" lon="16.4850217"><ele>381.0</ele><time>2026-04-07T12:01:14.789Z</time></trkpt><trkpt lat="38.8939817" lon="16.48502"><ele>382.0</ele><time>2026-04-07T12:01:15.788Z</time></trkpt><trkpt lat="38.89407" lon="16.4850183"><ele>383.0</ele><time>2026-04-07T12:01:16.788Z</time></trkpt><trkpt lat="38.89416" lon="16.4850117"><ele>383.0</ele><time>2026-04-07T12:01:17.788Z</time></trkpt><trkpt lat="38.894245" lon="16.4849983"><ele>383.0</ele><time>2026-04-07T12:01:18.788Z</time></trkpt><trkpt lat="38.8943183" lon="16.48498"><ele>383.0</ele><time>2026-04-07T12:01:19.788Z</time></trkpt><trkpt lat="38.8943817" lon="16.4849617"><ele>383.0</ele><time>2026-04-07T12:01:20.788Z</time></trkpt><trkpt lat="38.894465" lon="16.484935"><ele>383.0</ele><time>2026-04-07T12:01:22.789Z</time></trkpt><trkpt lat="38.894555" lon="16.4848983"><ele>383.0</ele><time>2026-04-07T12:01:25.788Z</time></trkpt><trkpt lat="38.8946367" lon="16.4848633"><ele>382.4</ele><time>2026-04-07T12:01:27.789Z</time></trkpt><trkpt lat="38.89472" lon="16.4848267"><ele>381.79999999999995</ele><time>2026-04-07T12:01:29.789Z</time></trkpt><trkpt lat="38.8947817" lon="16.4847817"><ele>381.2</ele><time>2026-04-07T12:01:31.789Z</time></trkpt><trkpt lat="38.8948417" lon="16.4847283"><ele>380.6</ele><time>2026-04-07T12:01:35.788Z</time></trkpt><trkpt lat="38.89494" lon="16.484625"><ele>380.0</ele><time>2026-04-07T12:01:37.788Z</time></trkpt><trkpt lat="38.89501" lon="16.48454"><ele>380.0</ele><time>2026-04-07T12:01:38.789Z</time></trkpt><trkpt lat="38.8950783" lon="16.4844567"><ele>380.0</ele><time>2026-04-07T12:01:39.788Z</time></trkpt><trkpt lat="38.8951367" lon="16.4843867"><ele>380.0</ele><time>2026-04-07T12:01:40.788Z</time></trkpt><trkpt lat="38.8951817" lon="16.4843283"><ele>380.0</ele><time>2026-04-07T12:01:41.788Z</time></trkpt><trkpt lat="38.89522" lon="16.48424"><ele>380.0</ele><time>2026-04-07T12:01:43.788Z</time></trkpt><trkpt lat="38.8951617" lon="16.4843433"><ele>380.0</ele><time>2026-04-07T12:02:05.788Z</time></trkpt><trkpt lat="38.8951167" lon="16.4844017"><ele>380.0</ele><time>2026-04-07T12:02:06.788Z</time></trkpt><trkpt lat="38.8950617" lon="16.4844667"><ele>380.0</ele><time>2026-04-07T12:02:07.788Z</time></trkpt><trkpt lat="38.8950033" lon="16.48453"><ele>380.0</ele><time>2026-04-07T12:02:08.789Z</time></trkpt><trkpt lat="38.89494" lon="16.484605"><ele>380.0</ele><time>2026-04-07T12:02:09.789Z</time></trkpt><trkpt lat="38.8948717" lon="16.4846767"><ele>380.0</ele><time>2026-04-07T12:02:10.788Z</time></trkpt><trkpt lat="38.8947967" lon="16.4847433"><ele>380.0</ele><time>2026-04-07T12:02:11.788Z</time></trkpt><trkpt lat="38.89472" lon="16.484805"><ele>380.0</ele><time>2026-04-07T12:02:12.788Z</time></trkpt><trkpt lat="38.8946483" lon="16.4848483"><ele>380.0</ele><time>2026-04-07T12:02:13.789Z</time></trkpt><trkpt lat="38.894585" lon="16.48488"><ele>380.0</ele><time>2026-04-07T12:02:14.789Z</time></trkpt><trkpt lat="38.89452" lon="16.4848967"><ele>380.0</ele><time>2026-04-07T12:02:15.788Z</time></trkpt><trkpt lat="38.8944583" lon="16.4849167"><ele>380.0</ele><time>2026-04-07T12:02:16.789Z</time></trkpt><trkpt lat="38.8943883" lon="16.4849383"><ele>380.0</ele><time>2026-04-07T12:02:17.788Z</time></trkpt><trkpt lat="38.8943067" lon="16.48496"><ele>380.0</ele><time>2026-04-07T12:02:18.789Z</time></trkpt><trkpt lat="38.8942183" lon="16.4849867"><ele>380.75</ele><time>2026-04-07T12:02:19.788Z</time></trkpt><trkpt lat="38.89412" lon="16.4850067"><ele>381.5</ele><time>2026-04-07T12:02:20.788Z</time></trkpt><trkpt lat="38.8940067" lon="16.485015"><ele>382.25</ele><time>2026-04-07T12:02:21.788Z</time></trkpt><trkpt lat="38.8938833" lon="16.485025"><ele>383.0</ele><time>2026-04-07T12:02:22.788Z</time></trkpt><trkpt lat="38.8937517" lon="16.485025"><ele>383.0</ele><time>2026-04-07T12:02:23.789Z</time></trkpt><trkpt lat="38.8936233" lon="16.4850133"><ele>383.0</ele><time>2026-04-07T12:02:24.789Z</time></trkpt><trkpt lat="38.8935083" lon="16.485"><ele>383.0</ele><time>2026-04-07T12:02:25.788Z</time></trkpt><trkpt lat="38.893405" lon="16.48498"><ele>383.0</ele><time>2026-04-07T12:02:26.788Z</time></trkpt><trkpt lat="38.89329" lon="16.484995"><ele>382.0</ele><time>2026-04-07T12:02:27.788Z</time></trkpt><trkpt lat="38.8931917" lon="16.4850217"><ele>381.0</ele><time>2026-04-07T12:02:28.788Z</time></trkpt><trkpt lat="38.8930933" lon="16.4850467"><ele>380.0</ele><time>2026-04-07T12:02:29.789Z</time></trkpt><trkpt lat="38.8929933" lon="16.4850567"><ele>379.0</ele><time>2026-04-07T12:02:30.788Z</time></trkpt><trkpt lat="38.8928917" lon="16.485055"><ele>378.0</ele><time>2026-04-07T12:02:31.788Z</time></trkpt><trkpt lat="38.8927967" lon="16.4850417"><ele>378.0</ele><time>2026-04-07T12:02:32.788Z</time></trkpt><trkpt lat="38.89271" lon="16.4850167"><ele>378.0</ele><time>2026-04-07T12:02:33.788Z</time></trkpt><trkpt lat="38.8926317" lon="16.48499"><ele>378.0</ele><time>2026-04-07T12:02:34.788Z</time></trkpt><trkpt lat="38.8925467" lon="16.48496"><ele>378.0</ele><time>2026-04-07T12:02:35.788Z</time></trkpt><trkpt lat="38.8924617" lon="16.4849283"><ele>378.0</ele><time>2026-04-07T12:02:36.788Z</time></trkpt><trkpt lat="38.892365" lon="16.4848983"><ele>378.0</ele><time>2026-04-07T12:02:37.788Z</time></trkpt><trkpt lat="38.892245" lon="16.4848817"><ele>377.2</ele><time>2026-04-07T12:02:38.788Z</time></trkpt><trkpt lat="38.8921283" lon="16.4848717"><ele>376.4</ele><time>2026-04-07T12:02:39.788Z</time></trkpt><trkpt lat="38.89201" lon="16.4848717"><ele>375.59999999999997</ele><time>2026-04-07T12:02:40.788Z</time></trkpt><trkpt lat="38.891905" lon="16.4848767"><ele>374.79999999999995</ele><time>2026-04-07T12:02:41.789Z</time></trkpt><trkpt lat="38.8918033" lon="16.4848983"><ele>374.0</ele><time>2026-04-07T12:02:42.788Z</time></trkpt><trkpt lat="38.8917067" lon="16.4849133"><ele>372.2</ele><time>2026-04-07T12:02:43.788Z</time></trkpt><trkpt lat="38.8916167" lon="16.4849217"><ele>370.4</ele><time>2026-04-07T12:02:44.788Z</time></trkpt><trkpt lat="38.8915267" lon="16.4849367"><ele>368.6</ele><time>2026-04-07T12:02:45.788Z</time></trkpt><trkpt lat="38.8914283" lon="16.4849533"><ele>366.8</ele><time>2026-04-07T12:02:46.788Z</time></trkpt><trkpt lat="38.8913117" lon="16.4849783"><ele>365.0</ele><time>2026-04-07T12:02:47.788Z</time></trkpt><trkpt lat="38.8911933" lon="16.48501"><ele>365.0</ele><time>2026-04-07T12:02:48.788Z</time></trkpt><trkpt lat="38.891075" lon="16.4850433"><ele>365.0</ele><time>2026-04-07T12:02:49.789Z</time></trkpt><trkpt lat="38.8909517" lon="16.4850717"><ele>365.0</ele><time>2026-04-07T12:02:50.788Z</time></trkpt><trkpt lat="38.8908367" lon="16.4850967"><ele>365.0</ele><time>2026-04-07T12:02:51.788Z</time></trkpt><trkpt lat="38.8907267" lon="16.4851183"><ele>362.25</ele><time>2026-04-07T12:02:52.788Z</time></trkpt><trkpt lat="38.8906083" lon="16.4851433"><ele>359.5</ele><time>2026-04-07T12:02:53.788Z</time></trkpt><trkpt lat="38.8904783" lon="16.4851583"><ele>356.75</ele><time>2026-04-07T12:02:54.788Z</time></trkpt><trkpt lat="38.8903583" lon="16.4851717"><ele>354.0</ele><time>2026-04-07T12:02:55.788Z</time></trkpt><trkpt lat="38.8902583" lon="16.4851883"><ele>354.0</ele><time>2026-04-07T12:02:56.789Z</time></trkpt><trkpt lat="38.89015" lon="16.4851883"><ele>354.0</ele><time>2026-04-07T12:02:57.788Z</time></trkpt><trkpt lat="38.89004" lon="16.4852067"><ele>354.0</ele><time>2026-04-07T12:02:58.789Z</time></trkpt><trkpt lat="38.8898167" lon="16.485265"><ele>354.0</ele><time>2026-04-07T12:03:00.788Z</time></trkpt><trkpt lat="38.8896417" lon="16.4853217"><ele>352.0</ele><time>2026-04-07T12:03:02.788Z</time></trkpt><trkpt lat="38.8895567" lon="16.4853333"><ele>350.0</ele><time>2026-04-07T12:03:03.788Z</time></trkpt><trkpt lat="38.889475" lon="16.4853433"><ele>348.0</ele><time>2026-04-07T12:03:04.788Z</time></trkpt><trkpt lat="38.8894017" lon="16.48537"><ele>346.0</ele><time>2026-04-07T12:03:05.789Z</time></trkpt><trkpt lat="38.8893333" lon="16.485415"><ele>344.0</ele><time>2026-04-07T12:03:06.789Z</time></trkpt><trkpt lat="38.88926" lon="16.4854717"><ele>342.0</ele><time>2026-04-07T12:03:07.788Z</time></trkpt><trkpt lat="38.8891833" lon="16.4855317"><ele>339.6</ele><time>2026-04-07T12:03:08.789Z</time></trkpt><trkpt lat="38.8891033" lon="16.4855833"><ele>337.20000000000005</ele><time>2026-04-07T12:03:09.788Z</time></trkpt><trkpt lat="38.8889667" lon="16.485655"><ele>334.8</ele><time>2026-04-07T12:03:11.789Z</time></trkpt><trkpt lat="38.8889" lon="16.4856767"><ele>332.4</ele><time>2026-04-07T12:03:12.788Z</time></trkpt><trkpt lat="38.88883" lon="16.4856817"><ele>330.0</ele><time>2026-04-07T12:03:13.788Z</time></trkpt><trkpt lat="38.8887517" lon="16.485675"><ele>330.0</ele><time>2026-04-07T12:03:14.789Z</time></trkpt><trkpt lat="38.888655" lon="16.4856467"><ele>330.0</ele><time>2026-04-07T12:03:15.788Z</time></trkpt><trkpt lat="38.8885583" lon="16.4856033"><ele>330.0</ele><time>2026-04-07T12:03:16.788Z</time></trkpt><trkpt lat="38.8883817" lon="16.4855283"><ele>330.0</ele><time>2026-04-07T12:03:18.788Z</time></trkpt><trkpt lat="38.8882867" lon="16.4855233"><ele>327.75</ele><time>2026-04-07T12:03:19.788Z</time></trkpt><trkpt lat="38.8881867" lon="16.48553"><ele>325.5</ele><time>2026-04-07T12:03:20.788Z</time></trkpt><trkpt lat="38.88808" lon="16.4855267"><ele>323.25</ele><time>2026-04-07T12:03:21.788Z</time></trkpt><trkpt lat="38.88785" lon="16.4854833"><ele>321.0</ele><time>2026-04-07T12:03:23.789Z</time></trkpt><trkpt lat="38.88773" lon="16.4854517"><ele>321.0</ele><time>2026-04-07T12:03:24.788Z</time></trkpt><trkpt lat="38.8876267" lon="16.48544"><ele>321.0</ele><time>2026-04-07T12:03:25.789Z</time></trkpt><trkpt lat="38.8874433" lon="16.485475"><ele>321.0</ele><time>2026-04-07T12:03:27.788Z</time></trkpt><trkpt lat="38.8873517" lon="16.4855067"><ele>321.0</ele><time>2026-04-07T12:03:28.788Z</time></trkpt><trkpt lat="38.8872517" lon="16.485545"><ele>321.75</ele><time>2026-04-07T12:03:29.788Z</time></trkpt><trkpt lat="38.8871383" lon="16.48558"><ele>322.5</ele><time>2026-04-07T12:03:30.788Z</time></trkpt><trkpt lat="38.8870283" lon="16.48561"><ele>323.25</ele><time>2026-04-07T12:03:31.788Z</time></trkpt><trkpt lat="38.8868133" lon="16.4856233"><ele>324.0</ele><time>2026-04-07T12:03:33.789Z</time></trkpt><trkpt lat="38.8867167" lon="16.4856233"><ele>325.79999999999995</ele><time>2026-04-07T12:03:34.788Z</time></trkpt><trkpt lat="38.8866183" lon="16.485625"><ele>327.59999999999997</ele><time>2026-04-07T12:03:35.789Z</time></trkpt><trkpt lat="38.886455" lon="16.485605"><ele>329.4</ele><time>2026-04-07T12:03:37.788Z</time></trkpt><trkpt lat="38.886385" lon="16.48558"><ele>331.2</ele><time>2026-04-07T12:03:38.788Z</time></trkpt><trkpt lat="38.886315" lon="16.4855617"><ele>333.0</ele><time>2026-04-07T12:03:39.788Z</time></trkpt><trkpt lat="38.8861917" lon="16.4855333"><ele>333.0</ele><time>2026-04-07T12:03:41.789Z</time></trkpt><trkpt lat="38.8861183" lon="16.4855283"><ele>333.0</ele><time>2026-04-07T12:03:42.788Z</time></trkpt><trkpt lat="38.8860317" lon="16.4855317"><ele>333.0</ele><time>2026-04-07T12:03:43.788Z</time></trkpt><trkpt lat="38.8859217" lon="16.4855383"><ele>333.0</ele><time>2026-04-07T12:03:44.788Z</time></trkpt><trkpt lat="38.8858017" lon="16.4855483"><ele>333.0</ele><time>2026-04-07T12:03:45.788Z</time></trkpt><trkpt lat="38.885685" lon="16.4855533"><ele>332.2</ele><time>2026-04-07T12:03:46.788Z</time></trkpt><trkpt lat="38.8855817" lon="16.4855633"><ele>331.4</ele><time>2026-04-07T12:03:47.789Z</time></trkpt><trkpt lat="38.8854967" lon="16.4855783"><ele>330.59999999999997</ele><time>2026-04-07T12:03:48.789Z</time></trkpt><trkpt lat="38.8854167" lon="16.4855983"><ele>329.79999999999995</ele><time>2026-04-07T12:03:49.789Z</time></trkpt><trkpt lat="38.8853333" lon="16.485635"><ele>329.0</ele><time>2026-04-07T12:03:50.788Z</time></trkpt><trkpt lat="38.88524" lon="16.485695"><ele>329.0</ele><time>2026-04-07T12:03:51.789Z</time></trkpt><trkpt lat="38.8851467" lon="16.4857717"><ele>329.0</ele><time>2026-04-07T12:03:52.789Z</time></trkpt><trkpt lat="38.8850533" lon="16.4858567"><ele>329.0</ele><time>2026-04-07T12:03:53.788Z</time></trkpt><trkpt lat="38.88495" lon="16.4859417"><ele>329.0</ele><time>2026-04-07T12:03:54.789Z</time></trkpt><trkpt lat="38.8848467" lon="16.4860267"><ele>329.0</ele><time>2026-04-07T12:03:55.789Z</time></trkpt><trkpt lat="38.884755" lon="16.4861067"><ele>329.0</ele><time>2026-04-07T12:03:56.788Z</time></trkpt><trkpt lat="38.88467" lon="16.4861683"><ele>329.0</ele><time>2026-04-07T12:03:57.788Z</time></trkpt><trkpt lat="38.884605" lon="16.486215"><ele>329.0</ele><time>2026-04-07T12:03:58.788Z</time></trkpt><trkpt lat="38.884535" lon="16.4862767"><ele>329.0</ele><time>2026-04-07T12:04:00.788Z</time></trkpt><trkpt lat="38.88451" lon="16.4863583"><ele>329.0</ele><time>2026-04-07T12:04:02.789Z</time></trkpt><trkpt lat="38.8845067" lon="16.486445"><ele>329.0</ele><time>2026-04-07T12:04:03.788Z</time></trkpt><trkpt lat="38.8845183" lon="16.48655"><ele>329.0</ele><time>2026-04-07T12:04:04.788Z</time></trkpt><trkpt lat="38.8845417" lon="16.486685"><ele>329.0</ele><time>2026-04-07T12:04:05.789Z</time></trkpt><trkpt lat="38.8845967" lon="16.4869867"><ele>329.0</ele><time>2026-04-07T12:04:07.788Z</time></trkpt><trkpt lat="38.8846217" lon="16.48715"><ele>330.0</ele><time>2026-04-07T12:04:08.788Z</time></trkpt><trkpt lat="38.8846467" lon="16.4873083"><ele>331.0</ele><time>2026-04-07T12:04:09.788Z</time></trkpt><trkpt lat="38.8846633" lon="16.487465"><ele>332.0</ele><time>2026-04-07T12:04:10.788Z</time></trkpt><trkpt lat="38.8846883" lon="16.4876217"><ele>333.0</ele><time>2026-04-07T12:04:11.788Z</time></trkpt><trkpt lat="38.8847" lon="16.487775"><ele>333.0</ele><time>2026-04-07T12:04:12.788Z</time></trkpt><trkpt lat="38.884705" lon="16.487925"><ele>333.0</ele><time>2026-04-07T12:04:13.789Z</time></trkpt><trkpt lat="38.8846933" lon="16.4880683"><ele>333.0</ele><time>2026-04-07T12:04:14.788Z</time></trkpt><trkpt lat="38.884655" lon="16.4882"><ele>333.0</ele><time>2026-04-07T12:04:15.789Z</time></trkpt><trkpt lat="38.8845917" lon="16.4883367"><ele>333.0</ele><time>2026-04-07T12:04:16.788Z</time></trkpt><trkpt lat="38.8845083" lon="16.48846"><ele>333.0</ele><time>2026-04-07T12:04:17.788Z</time></trkpt><trkpt lat="38.8844267" lon="16.488585"><ele>333.0</ele><time>2026-04-07T12:04:18.789Z</time></trkpt><trkpt lat="38.8843367" lon="16.488705"><ele>333.0</ele><time>2026-04-07T12:04:19.788Z</time></trkpt><trkpt lat="38.8842417" lon="16.488825"><ele>334.25</ele><time>2026-04-07T12:04:20.788Z</time></trkpt><trkpt lat="38.88414" lon="16.4889417"><ele>335.5</ele><time>2026-04-07T12:04:21.788Z</time></trkpt><trkpt lat="38.8840483" lon="16.4890767"><ele>336.75</ele><time>2026-04-07T12:04:22.789Z</time></trkpt><trkpt lat="38.8839533" lon="16.4891967"><ele>338.0</ele><time>2026-04-07T12:04:23.788Z</time></trkpt><trkpt lat="38.88386" lon="16.4893133"><ele>338.0</ele><time>2026-04-07T12:04:24.789Z</time></trkpt><trkpt lat="38.883775" lon="16.4894283"><ele>338.0</ele><time>2026-04-07T12:04:25.788Z</time></trkpt><trkpt lat="38.883685" lon="16.4895483"><ele>338.0</ele><time>2026-04-07T12:04:26.788Z</time></trkpt><trkpt lat="38.883595" lon="16.489675"><ele>338.0</ele><time>2026-04-07T12:04:27.789Z</time></trkpt><trkpt lat="38.8835117" lon="16.4898017"><ele>338.5</ele><time>2026-04-07T12:04:28.788Z</time></trkpt><trkpt lat="38.883435" lon="16.4899333"><ele>339.0</ele><time>2026-04-07T12:04:29.789Z</time></trkpt><trkpt lat="38.8833683" lon="16.4900717"><ele>339.5</ele><time>2026-04-07T12:04:30.788Z</time></trkpt><trkpt lat="38.8833067" lon="16.490215"><ele>340.0</ele><time>2026-04-07T12:04:31.788Z</time></trkpt><trkpt lat="38.88324" lon="16.49035"><ele>342.6</ele><time>2026-04-07T12:04:32.789Z</time></trkpt><trkpt lat="38.8831833" lon="16.4904817"><ele>345.2</ele><time>2026-04-07T12:04:33.788Z</time></trkpt><trkpt lat="38.8831367" lon="16.4906083"><ele>347.79999999999995</ele><time>2026-04-07T12:04:34.788Z</time></trkpt><trkpt lat="38.88309" lon="16.4907267"><ele>350.4</ele><time>2026-04-07T12:04:35.788Z</time></trkpt><trkpt lat="38.8830483" lon="16.4908383"><ele>353.0</ele><time>2026-04-07T12:04:36.788Z</time></trkpt><trkpt lat="38.882995" lon="16.4909417"><ele>353.0</ele><time>2026-04-07T12:04:37.788Z</time></trkpt><trkpt lat="38.8829483" lon="16.4910517"><ele>353.0</ele><time>2026-04-07T12:04:38.788Z</time></trkpt><trkpt lat="38.8829033" lon="16.4911483"><ele>353.0</ele><time>2026-04-07T12:04:39.788Z</time></trkpt><trkpt lat="38.88286" lon="16.49124"><ele>353.0</ele><time>2026-04-07T12:04:40.789Z</time></trkpt><trkpt lat="38.8828233" lon="16.4913183"><ele>353.0</ele><time>2026-04-07T12:04:41.788Z</time></trkpt><trkpt lat="38.8827783" lon="16.4914083"><ele>353.0</ele><time>2026-04-07T12:04:43.788Z</time></trkpt><trkpt lat="38.8827367" lon="16.49148"><ele>353.5</ele><time>2026-04-07T12:05:16.789Z</time></trkpt><trkpt lat="38.8826617" lon="16.4916317"><ele>354.0</ele><time>2026-04-07T12:05:18.788Z</time></trkpt><trkpt lat="38.8826117" lon="16.491735"><ele>354.5</ele><time>2026-04-07T12:05:19.788Z</time></trkpt><trkpt lat="38.8825417" lon="16.4918517"><ele>355.0</ele><time>2026-04-07T12:05:20.788Z</time></trkpt><trkpt lat="38.8824517" lon="16.4919667"><ele>355.0</ele><time>2026-04-07T12:05:21.788Z</time></trkpt><trkpt lat="38.8823617" lon="16.4920767"><ele>355.0</ele><time>2026-04-07T12:05:22.789Z</time></trkpt><trkpt lat="38.8822717" lon="16.4921967"><ele>355.0</ele><time>2026-04-07T12:05:23.789Z</time></trkpt><trkpt lat="38.8821783" lon="16.49232"><ele>355.0</ele><time>2026-04-07T12:05:24.788Z</time></trkpt><trkpt lat="38.8820733" lon="16.4924417"><ele>354.5</ele><time>2026-04-07T12:05:25.788Z</time></trkpt><trkpt lat="38.88197" lon="16.49257"><ele>354.0</ele><time>2026-04-07T12:05:26.789Z</time></trkpt><trkpt lat="38.88186" lon="16.4927067"><ele>353.5</ele><time>2026-04-07T12:05:27.789Z</time></trkpt><trkpt lat="38.8817617" lon="16.4928167"><ele>353.0</ele><time>2026-04-07T12:05:28.788Z</time></trkpt><trkpt lat="38.8816633" lon="16.4929133"><ele>350.2</ele><time>2026-04-07T12:05:29.789Z</time></trkpt><trkpt lat="38.8815667" lon="16.492995"><ele>347.4</ele><time>2026-04-07T12:05:30.788Z</time></trkpt><trkpt lat="38.8814683" lon="16.4930633"><ele>344.59999999999997</ele><time>2026-04-07T12:05:31.788Z</time></trkpt><trkpt lat="38.8813733" lon="16.4931167"><ele>341.79999999999995</ele><time>2026-04-07T12:05:32.788Z</time></trkpt><trkpt lat="38.8812683" lon="16.4931483"><ele>339.0</ele><time>2026-04-07T12:05:33.789Z</time></trkpt><trkpt lat="38.881165" lon="16.49315"><ele>339.0</ele><time>2026-04-07T12:05:34.788Z</time></trkpt><trkpt lat="38.8810583" lon="16.4931283"><ele>339.0</ele><time>2026-04-07T12:05:35.789Z</time></trkpt><trkpt lat="38.8809533" lon="16.49308"><ele>339.0</ele><time>2026-04-07T12:05:36.789Z</time></trkpt><trkpt lat="38.8808483" lon="16.4930033"><ele>339.0</ele><time>2026-04-07T12:05:37.789Z</time></trkpt><trkpt lat="38.880745" lon="16.4929067"><ele>339.5</ele><time>2026-04-07T12:05:38.788Z</time></trkpt><trkpt lat="38.8806333" lon="16.4928"><ele>340.0</ele><time>2026-04-07T12:05:39.788Z</time></trkpt><trkpt lat="38.8805133" lon="16.4926917"><ele>340.5</ele><time>2026-04-07T12:05:40.788Z</time></trkpt><trkpt lat="38.8803967" lon="16.4925817"><ele>341.0</ele><time>2026-04-07T12:05:41.788Z</time></trkpt><trkpt lat="38.8802833" lon="16.4924767"><ele>341.0</ele><time>2026-04-07T12:05:42.788Z</time></trkpt><trkpt lat="38.880175" lon="16.4923833"><ele>341.0</ele><time>2026-04-07T12:05:43.789Z</time></trkpt><trkpt lat="38.8800817" lon="16.4923067"><ele>341.0</ele><time>2026-04-07T12:05:44.788Z</time></trkpt><trkpt lat="38.8800083" lon="16.4922267"><ele>341.0</ele><time>2026-04-07T12:05:45.788Z</time></trkpt><trkpt lat="38.8799483" lon="16.4921683"><ele>341.0</ele><time>2026-04-07T12:05:46.788Z</time></trkpt><trkpt lat="38.879895" lon="16.4920933"><ele>342.0</ele><time>2026-04-07T12:05:48.788Z</time></trkpt><trkpt lat="38.879925" lon="16.4920017"><ele>343.0</ele><time>2026-04-07T12:05:52.789Z</time></trkpt><trkpt lat="38.8800083" lon="16.491935"><ele>344.0</ele><time>2026-04-07T12:05:54.789Z</time></trkpt><trkpt lat="38.8800967" lon="16.4918317"><ele>345.0</ele><time>2026-04-07T12:05:56.788Z</time></trkpt><trkpt lat="38.8801283" lon="16.4917567"><ele>346.0</ele><time>2026-04-07T12:05:57.788Z</time></trkpt><trkpt lat="38.8801533" lon="16.4916633"><ele>347.0</ele><time>2026-04-07T12:05:58.788Z</time></trkpt><trkpt lat="38.8801917" lon="16.491565"><ele>347.0</ele><time>2026-04-07T12:05:59.788Z</time></trkpt><trkpt lat="38.8802533" lon="16.49146"><ele>347.0</ele><time>2026-04-07T12:06:00.788Z</time></trkpt><trkpt lat="38.8803217" lon="16.4913717"><ele>347.0</ele><time>2026-04-07T12:06:01.789Z</time></trkpt><trkpt lat="38.8804067" lon="16.4912967"><ele>347.0</ele><time>2026-04-07T12:06:02.788Z</time></trkpt><trkpt lat="38.8804817" lon="16.491225"><ele>347.0</ele><time>2026-04-07T12:06:03.789Z</time></trkpt><trkpt lat="38.88055" lon="16.4911583"><ele>346.0</ele><time>2026-04-07T12:06:04.788Z</time></trkpt><trkpt lat="38.8806" lon="16.4910983"><ele>345.0</ele><time>2026-04-07T12:06:05.789Z</time></trkpt><trkpt lat="38.8806483" lon="16.4909683"><ele>344.0</ele><time>2026-04-07T12:06:07.788Z</time></trkpt><trkpt lat="38.8806417" lon="16.4908817"><ele>343.0</ele><time>2026-04-07T12:06:08.788Z</time></trkpt><trkpt lat="38.8806183" lon="16.4907983"><ele>342.0</ele><time>2026-04-07T12:06:09.788Z</time></trkpt><trkpt lat="38.8805583" lon="16.4907067"><ele>341.0</ele><time>2026-04-07T12:06:10.789Z</time></trkpt><trkpt lat="38.8805133" lon="16.4906067"><ele>341.0</ele><time>2026-04-07T12:06:11.788Z</time></trkpt><trkpt lat="38.8804833" lon="16.4905183"><ele>341.0</ele><time>2026-04-07T12:06:12.789Z</time></trkpt><trkpt lat="38.880455" lon="16.4904233"><ele>341.0</ele><time>2026-04-07T12:06:13.789Z</time></trkpt><trkpt lat="38.8804483" lon="16.4903233"><ele>341.0</ele><time>2026-04-07T12:06:14.789Z</time></trkpt><trkpt lat="38.8804433" lon="16.4902217"><ele>341.0</ele><time>2026-04-07T12:06:15.788Z</time></trkpt><trkpt lat="38.8804267" lon="16.49012"><ele>341.0</ele><time>2026-04-07T12:06:16.788Z</time></trkpt><trkpt lat="38.8803983" lon="16.4900183"><ele>341.1666666666667</ele><time>2026-04-07T12:06:17.788Z</time></trkpt><trkpt lat="38.88037" lon="16.4899183"><ele>341.33333333333337</ele><time>2026-04-07T12:06:18.788Z</time></trkpt><trkpt lat="38.880345" lon="16.489815"><ele>341.5</ele><time>2026-04-07T12:06:19.788Z</time></trkpt><trkpt lat="38.8803317" lon="16.48972"><ele>341.6666666666667</ele><time>2026-04-07T12:06:20.789Z</time></trkpt><trkpt lat="38.88034" lon="16.4896267"><ele>341.8333333333333</ele><time>2026-04-07T12:06:21.788Z</time></trkpt><trkpt lat="38.88038" lon="16.4895267"><ele>342.0</ele><time>2026-04-07T12:06:22.788Z</time></trkpt><trkpt lat="38.880435" lon="16.489435"><ele>342.40000000000003</ele><time>2026-04-07T12:06:23.789Z</time></trkpt><trkpt lat="38.88052" lon="16.4893567"><ele>342.8</ele><time>2026-04-07T12:06:24.789Z</time></trkpt><trkpt lat="38.8806067" lon="16.4892983"><ele>343.2</ele><time>2026-04-07T12:06:25.788Z</time></trkpt><trkpt lat="38.880695" lon="16.4892467"><ele>343.6</ele><time>2026-04-07T12:06:26.789Z</time></trkpt><trkpt lat="38.8807733" lon="16.4891817"><ele>344.0</ele><time>2026-04-07T12:06:27.789Z</time></trkpt><trkpt lat="38.880845" lon="16.48911"><ele>344.0</ele><time>2026-04-07T12:06:28.789Z</time></trkpt><trkpt lat="38.8809" lon="16.48902"><ele>344.0</ele><time>2026-04-07T12:06:29.789Z</time></trkpt><trkpt lat="38.8809217" lon="16.4889117"><ele>344.0</ele><time>2026-04-07T12:06:30.788Z</time></trkpt><trkpt lat="38.8809133" lon="16.48879"><ele>344.0</ele><time>2026-04-07T12:06:31.788Z</time></trkpt><trkpt lat="38.8808817" lon="16.488675"><ele>344.0</ele><time>2026-04-07T12:06:32.788Z</time></trkpt><trkpt lat="38.8808217" lon="16.4885633"><ele>346.0</ele><time>2026-04-07T12:06:33.788Z</time></trkpt><trkpt lat="38.880745" lon="16.4884617"><ele>348.0</ele><time>2026-04-07T12:06:34.788Z</time></trkpt><trkpt lat="38.880665" lon="16.4883567"><ele>350.0</ele><time>2026-04-07T12:06:35.788Z</time></trkpt><trkpt lat="38.880595" lon="16.488255"><ele>352.0</ele><time>2026-04-07T12:06:36.789Z</time></trkpt><trkpt lat="38.8805367" lon="16.4881667"><ele>354.0</ele><time>2026-04-07T12:06:37.788Z</time></trkpt><trkpt lat="38.8804933" lon="16.4880783"><ele>354.0</ele><time>2026-04-07T12:06:38.788Z</time></trkpt><trkpt lat="38.880465" lon="16.4879967"><ele>354.0</ele><time>2026-04-07T12:06:39.788Z</time></trkpt><trkpt lat="38.8804517" lon="16.48791"><ele>354.0</ele><time>2026-04-07T12:06:40.788Z</time></trkpt><trkpt lat="38.880435" lon="16.4877617"><ele>354.0</ele><time>2026-04-07T12:06:42.788Z</time></trkpt><trkpt lat="38.8803683" lon="16.4877067"><ele>354.0</ele><time>2026-04-07T12:06:45.788Z</time></trkpt><trkpt lat="38.8803567" lon="16.4878367"><ele>354.0</ele><time>2026-04-07T12:06:48.789Z</time></trkpt><trkpt lat="38.8803967" lon="16.4879183"><ele>354.0</ele><time>2026-04-07T12:06:49.789Z</time></trkpt><trkpt lat="38.8804517" lon="16.4880017"><ele>354.0</ele><time>2026-04-07T12:06:50.789Z</time></trkpt><trkpt lat="38.8805117" lon="16.48811"><ele>354.0</ele><time>2026-04-07T12:06:51.789Z</time></trkpt><trkpt lat="38.88057" lon="16.4882267"><ele>354.0</ele><time>2026-04-07T12:06:52.789Z</time></trkpt><trkpt lat="38.880635" lon="16.4883567"><ele>354.0</ele><time>2026-04-07T12:06:53.789Z</time></trkpt><trkpt lat="38.8807083" lon="16.48848"><ele>354.0</ele><time>2026-04-07T12:06:54.789Z</time></trkpt><trkpt lat="38.8807783" lon="16.4885917"><ele>354.0</ele><time>2026-04-07T12:06:55.788Z</time></trkpt><trkpt lat="38.880835" lon="16.488695"><ele>354.0</ele><time>2026-04-07T12:06:56.789Z</time></trkpt><trkpt lat="38.88087" lon="16.4888017"><ele>354.0</ele><time>2026-04-07T12:06:57.788Z</time></trkpt><trkpt lat="38.8808767" lon="16.488905"><ele>354.0</ele><time>2026-04-07T12:06:58.788Z</time></trkpt><trkpt lat="38.8808667" lon="16.4890067"><ele>352.0</ele><time>2026-04-07T12:06:59.788Z</time></trkpt><trkpt lat="38.88083" lon="16.48911"><ele>350.0</ele><time>2026-04-07T12:07:00.788Z</time></trkpt><trkpt lat="38.88076" lon="16.4891917"><ele>348.0</ele><time>2026-04-07T12:07:01.789Z</time></trkpt><trkpt lat="38.8806583" lon="16.4892733"><ele>346.0</ele><time>2026-04-07T12:07:02.788Z</time></trkpt><trkpt lat="38.8805367" lon="16.4893533"><ele>344.0</ele><time>2026-04-07T12:07:03.788Z</time></trkpt><trkpt lat="38.8804483" lon="16.48945"><ele>344.0</ele><time>2026-04-07T12:07:04.788Z</time></trkpt><trkpt lat="38.8803783" lon="16.48956"><ele>344.0</ele><time>2026-04-07T12:07:05.788Z</time></trkpt><trkpt lat="38.8803267" lon="16.4896883"><ele>344.0</ele><time>2026-04-07T12:07:06.788Z</time></trkpt><trkpt lat="38.8803083" lon="16.489825"><ele>344.0</ele><time>2026-04-07T12:07:07.789Z</time></trkpt><trkpt lat="38.8803267" lon="16.4899567"><ele>344.0</ele><time>2026-04-07T12:07:08.789Z</time></trkpt><trkpt lat="38.88037" lon="16.4900717"><ele>343.6666666666667</ele><time>2026-04-07T12:07:09.789Z</time></trkpt><trkpt lat="38.8804117" lon="16.4901883"><ele>343.33333333333337</ele><time>2026-04-07T12:07:10.789Z</time></trkpt><trkpt lat="38.88043" lon="16.49029"><ele>343.0</ele><time>2026-04-07T12:07:11.788Z</time></trkpt><trkpt lat="38.8804367" lon="16.490395"><ele>342.6666666666667</ele><time>2026-04-07T12:07:12.788Z</time></trkpt><trkpt lat="38.8804417" lon="16.4905017"><ele>342.3333333333333</ele><time>2026-04-07T12:07:13.788Z</time></trkpt><trkpt lat="38.8804683" lon="16.4906117"><ele>342.0</ele><time>2026-04-07T12:07:14.788Z</time></trkpt><trkpt lat="38.88052" lon="16.4907117"><ele>341.8333333333333</ele><time>2026-04-07T12:07:15.789Z</time></trkpt><trkpt lat="38.88057" lon="16.49081"><ele>341.6666666666667</ele><time>2026-04-07T12:07:16.788Z</time></trkpt><trkpt lat="38.8806083" lon="16.4909017"><ele>341.5</ele><time>2026-04-07T12:07:17.789Z</time></trkpt><trkpt lat="38.880625" lon="16.491"><ele>341.33333333333337</ele><time>2026-04-07T12:07:18.789Z</time></trkpt><trkpt lat="38.8806067" lon="16.491095"><ele>341.1666666666667</ele><time>2026-04-07T12:07:19.788Z</time></trkpt><trkpt lat="38.8805683" lon="16.4911867"><ele>341.0</ele><time>2026-04-07T12:07:20.789Z</time></trkpt><trkpt lat="38.8804917" lon="16.4912633"><ele>342.5</ele><time>2026-04-07T12:07:21.788Z</time></trkpt><trkpt lat="38.880385" lon="16.4913283"><ele>344.0</ele><time>2026-04-07T12:07:22.788Z</time></trkpt><trkpt lat="38.880285" lon="16.4914167"><ele>345.5</ele><time>2026-04-07T12:07:23.789Z</time></trkpt><trkpt lat="38.8802033" lon="16.49152"><ele>347.0</ele><time>2026-04-07T12:07:24.788Z</time></trkpt><trkpt lat="38.8801483" lon="16.4916267"><ele>347.0</ele><time>2026-04-07T12:07:25.789Z</time></trkpt><trkpt lat="38.8801067" lon="16.491735"><ele>347.0</ele><time>2026-04-07T12:07:26.789Z</time></trkpt><trkpt lat="38.8800767" lon="16.4918317"><ele>347.0</ele><time>2026-04-07T12:07:27.788Z</time></trkpt><trkpt lat="38.8800517" lon="16.491915"><ele>347.0</ele><time>2026-04-07T12:07:28.788Z</time></trkpt><trkpt lat="38.87996" lon="16.4920033"><ele>347.0</ele><time>2026-04-07T12:07:30.788Z</time></trkpt><trkpt lat="38.8798883" lon="16.4920117"><ele>347.0</ele><time>2026-04-07T12:07:31.788Z</time></trkpt><trkpt lat="38.8797883" lon="16.4920017"><ele>341.20000000000005</ele><time>2026-04-07T12:07:32.788Z</time></trkpt><trkpt lat="38.8796883" lon="16.49199"><ele>335.40000000000003</ele><time>2026-04-07T12:07:33.788Z</time></trkpt><trkpt lat="38.879585" lon="16.4919867"><ele>329.6</ele><time>2026-04-07T12:07:34.789Z</time></trkpt><trkpt lat="38.8794733" lon="16.49198"><ele>323.8</ele><time>2026-04-07T12:07:35.788Z</time></trkpt><trkpt lat="38.8793467" lon="16.491975"><ele>318.0</ele><time>2026-04-07T12:07:36.788Z</time></trkpt><trkpt lat="38.8792283" lon="16.49197"><ele>316.8</ele><time>2026-04-07T12:07:37.789Z</time></trkpt><trkpt lat="38.8791183" lon="16.4919767"><ele>315.6</ele><time>2026-04-07T12:07:38.788Z</time></trkpt><trkpt lat="38.8790117" lon="16.4919783"><ele>314.4</ele><time>2026-04-07T12:07:39.788Z</time></trkpt><trkpt lat="38.8789067" lon="16.4919817"><ele>313.2</ele><time>2026-04-07T12:07:40.789Z</time></trkpt><trkpt lat="38.878815" lon="16.4919767"><ele>312.0</ele><time>2026-04-07T12:07:41.788Z</time></trkpt><trkpt lat="38.8787217" lon="16.491975"><ele>312.0</ele><time>2026-04-07T12:07:42.788Z</time></trkpt><trkpt lat="38.8786367" lon="16.4919767"><ele>312.0</ele><time>2026-04-07T12:07:43.788Z</time></trkpt><trkpt lat="38.8785583" lon="16.4919683"><ele>312.0</ele><time>2026-04-07T12:07:44.788Z</time></trkpt><trkpt lat="38.87849" lon="16.491955"><ele>312.0</ele><time>2026-04-07T12:07:45.788Z</time></trkpt><trkpt lat="38.878425" lon="16.4919583"><ele>312.0</ele><time>2026-04-07T12:07:46.788Z</time></trkpt><trkpt lat="38.87833" lon="16.4919567"><ele>312.0</ele><time>2026-04-07T12:07:48.788Z</time></trkpt><trkpt lat="38.878245" lon="16.4919383"><ele>311.0</ele><time>2026-04-07T12:07:50.789Z</time></trkpt><trkpt lat="38.8781533" lon="16.4919217"><ele>310.0</ele><time>2026-04-07T12:07:52.789Z</time></trkpt><trkpt lat="38.878065" lon="16.4919067"><ele>309.0</ele><time>2026-04-07T12:07:54.788Z</time></trkpt><trkpt lat="38.8779733" lon="16.4918817"><ele>308.0</ele><time>2026-04-07T12:07:56.788Z</time></trkpt><trkpt lat="38.87787" lon="16.4918617"><ele>307.0</ele><time>2026-04-07T12:07:58.788Z</time></trkpt><trkpt lat="38.8777633" lon="16.49184"><ele>307.0</ele><time>2026-04-07T12:08:00.789Z</time></trkpt><trkpt lat="38.877645" lon="16.4918217"><ele>307.0</ele><time>2026-04-07T12:08:02.788Z</time></trkpt><trkpt lat="38.877575" lon="16.49182"><ele>307.0</ele><time>2026-04-07T12:08:03.788Z</time></trkpt><trkpt lat="38.8774933" lon="16.49181"><ele>307.0</ele><time>2026-04-07T12:08:04.788Z</time></trkpt><trkpt lat="38.8774033" lon="16.4917967"><ele>307.0</ele><time>2026-04-07T12:08:05.788Z</time></trkpt><trkpt lat="38.8773017" lon="16.4917817"><ele>304.75</ele><time>2026-04-07T12:08:06.788Z</time></trkpt><trkpt lat="38.8771867" lon="16.4917533"><ele>302.5</ele><time>2026-04-07T12:08:07.789Z</time></trkpt><trkpt lat="38.8770667" lon="16.491705"><ele>300.25</ele><time>2026-04-07T12:08:08.789Z</time></trkpt><trkpt lat="38.8769483" lon="16.491625"><ele>298.0</ele><time>2026-04-07T12:08:09.788Z</time></trkpt><trkpt lat="38.8768267" lon="16.4915367"><ele>298.25</ele><time>2026-04-07T12:08:10.789Z</time></trkpt><trkpt lat="38.8767117" lon="16.4914283"><ele>298.5</ele><time>2026-04-07T12:08:11.788Z</time></trkpt><trkpt lat="38.8765867" lon="16.4913117"><ele>298.75</ele><time>2026-04-07T12:08:12.789Z</time></trkpt><trkpt lat="38.87648" lon="16.4912"><ele>299.0</ele><time>2026-04-07T12:08:13.789Z</time></trkpt><trkpt lat="38.8763717" lon="16.491095"><ele>295.25</ele><time>2026-04-07T12:08:14.789Z</time></trkpt><trkpt lat="38.8762683" lon="16.4909967"><ele>291.5</ele><time>2026-04-07T12:08:15.788Z</time></trkpt><trkpt lat="38.87617" lon="16.4909133"><ele>287.75</ele><time>2026-04-07T12:08:16.788Z</time></trkpt><trkpt lat="38.876065" lon="16.490855"><ele>284.0</ele><time>2026-04-07T12:08:17.789Z</time></trkpt><trkpt lat="38.8759517" lon="16.4908267"><ele>287.0</ele><time>2026-04-07T12:08:18.788Z</time></trkpt><trkpt lat="38.8758233" lon="16.4908267"><ele>290.0</ele><time>2026-04-07T12:08:19.789Z</time></trkpt><trkpt lat="38.875705" lon="16.49083"><ele>293.0</ele><time>2026-04-07T12:08:20.789Z</time></trkpt><trkpt lat="38.8755783" lon="16.4908417"><ele>296.0</ele><time>2026-04-07T12:08:21.789Z</time></trkpt><trkpt lat="38.875455" lon="16.49085"><ele>296.0</ele><time>2026-04-07T12:08:22.789Z</time></trkpt><trkpt lat="38.8753383" lon="16.490845"><ele>296.0</ele><time>2026-04-07T12:08:23.788Z</time></trkpt><trkpt lat="38.8752217" lon="16.49085"><ele>296.0</ele><time>2026-04-07T12:08:24.788Z</time></trkpt><trkpt lat="38.8751" lon="16.4908517"><ele>296.0</ele><time>2026-04-07T12:08:25.789Z</time></trkpt><trkpt lat="38.87497" lon="16.4908533"><ele>298.0</ele><time>2026-04-07T12:08:26.788Z</time></trkpt><trkpt lat="38.8748267" lon="16.4908683"><ele>300.0</ele><time>2026-04-07T12:08:27.788Z</time></trkpt><trkpt lat="38.8746833" lon="16.490865"><ele>302.0</ele><time>2026-04-07T12:08:28.788Z</time></trkpt><trkpt lat="38.87453" lon="16.4908683"><ele>304.0</ele><time>2026-04-07T12:08:29.788Z</time></trkpt><trkpt lat="38.8743883" lon="16.4908767"><ele>304.0</ele><time>2026-04-07T12:08:30.788Z</time></trkpt><trkpt lat="38.8742583" lon="16.4908883"><ele>304.0</ele><time>2026-04-07T12:08:31.789Z</time></trkpt><trkpt lat="38.87413" lon="16.490925"><ele>304.0</ele><time>2026-04-07T12:08:32.788Z</time></trkpt><trkpt lat="38.8740117" lon="16.4909917"><ele>304.0</ele><time>2026-04-07T12:08:33.788Z</time></trkpt><trkpt lat="38.8739" lon="16.491075"><ele>304.0</ele><time>2026-04-07T12:08:34.788Z</time></trkpt><trkpt lat="38.8737917" lon="16.4911583"><ele>304.0</ele><time>2026-04-07T12:08:35.788Z</time></trkpt><trkpt lat="38.8736817" lon="16.4912467"><ele>304.0</ele><time>2026-04-07T12:08:36.788Z</time></trkpt><trkpt lat="38.87358" lon="16.4913367"><ele>304.0</ele><time>2026-04-07T12:08:37.789Z</time></trkpt><trkpt lat="38.8734867" lon="16.49143"><ele>305.75</ele><time>2026-04-07T12:08:38.788Z</time></trkpt><trkpt lat="38.8733983" lon="16.491535"><ele>307.5</ele><time>2026-04-07T12:08:39.788Z</time></trkpt><trkpt lat="38.873315" lon="16.4916417"><ele>309.25</ele><time>2026-04-07T12:08:40.788Z</time></trkpt><trkpt lat="38.8732317" lon="16.4917483"><ele>311.0</ele><time>2026-04-07T12:08:41.788Z</time></trkpt><trkpt lat="38.8731567" lon="16.49184"><ele>311.0</ele><time>2026-04-07T12:08:42.788Z</time></trkpt><trkpt lat="38.87308" lon="16.491905"><ele>311.0</ele><time>2026-04-07T12:08:43.788Z</time></trkpt><trkpt lat="38.8729867" lon="16.49196"><ele>311.0</ele><time>2026-04-07T12:08:44.788Z</time></trkpt><trkpt lat="38.8728817" lon="16.49199"><ele>311.0</ele><time>2026-04-07T12:08:45.789Z</time></trkpt><trkpt lat="38.87277" lon="16.491995"><ele>311.0</ele><time>2026-04-07T12:08:46.788Z</time></trkpt><trkpt lat="38.8726567" lon="16.4920067"><ele>311.8</ele><time>2026-04-07T12:08:47.788Z</time></trkpt><trkpt lat="38.8725483" lon="16.4920133"><ele>312.6</ele><time>2026-04-07T12:08:48.788Z</time></trkpt><trkpt lat="38.87245" lon="16.4920183"><ele>313.4</ele><time>2026-04-07T12:08:49.788Z</time></trkpt><trkpt lat="38.87238" lon="16.4920533"><ele>314.2</ele><time>2026-04-07T12:08:50.788Z</time></trkpt><trkpt lat="38.87232" lon="16.4921233"><ele>315.0</ele><time>2026-04-07T12:08:51.789Z</time></trkpt><trkpt lat="38.87227" lon="16.4922317"><ele>315.0</ele><time>2026-04-07T12:08:52.789Z</time></trkpt><trkpt lat="38.872225" lon="16.4923583"><ele>315.0</ele><time>2026-04-07T12:08:53.789Z</time></trkpt><trkpt lat="38.8721767" lon="16.4924983"><ele>315.0</ele><time>2026-04-07T12:08:54.789Z</time></trkpt><trkpt lat="38.8721167" lon="16.4926533"><ele>315.0</ele><time>2026-04-07T12:08:55.788Z</time></trkpt><trkpt lat="38.872055" lon="16.4928133"><ele>315.75</ele><time>2026-04-07T12:08:56.789Z</time></trkpt><trkpt lat="38.8719967" lon="16.492965"><ele>316.5</ele><time>2026-04-07T12:08:57.789Z</time></trkpt><trkpt lat="38.871935" lon="16.4931183"><ele>317.25</ele><time>2026-04-07T12:08:58.788Z</time></trkpt><trkpt lat="38.8718683" lon="16.49326"><ele>318.0</ele><time>2026-04-07T12:08:59.788Z</time></trkpt><trkpt lat="38.8718017" lon="16.4933967"><ele>312.0</ele><time>2026-04-07T12:09:00.788Z</time></trkpt><trkpt lat="38.8717317" lon="16.4935317"><ele>306.0</ele><time>2026-04-07T12:09:01.788Z</time></trkpt><trkpt lat="38.8716633" lon="16.49366"><ele>300.0</ele><time>2026-04-07T12:09:02.789Z</time></trkpt><trkpt lat="38.8715833" lon="16.4937683"><ele>294.0</ele><time>2026-04-07T12:09:03.788Z</time></trkpt><trkpt lat="38.87152" lon="16.4938883"><ele>294.0</ele><time>2026-04-07T12:09:04.788Z</time></trkpt><trkpt lat="38.8714483" lon="16.4939983"><ele>294.0</ele><time>2026-04-07T12:09:05.788Z</time></trkpt><trkpt lat="38.8713817" lon="16.49411"><ele>294.0</ele><time>2026-04-07T12:09:06.788Z</time></trkpt><trkpt lat="38.87131" lon="16.4942167"><ele>294.0</ele><time>2026-04-07T12:09:07.788Z</time></trkpt><trkpt lat="38.8712433" lon="16.4943283"><ele>294.0</ele><time>2026-04-07T12:09:08.788Z</time></trkpt><trkpt lat="38.8711783" lon="16.4944433"><ele>294.0</ele><time>2026-04-07T12:09:09.788Z</time></trkpt><trkpt lat="38.871105" lon="16.4945533"><ele>294.0</ele><time>2026-04-07T12:09:10.789Z</time></trkpt><trkpt lat="38.8710233" lon="16.49466"><ele>294.0</ele><time>2026-04-07T12:09:11.788Z</time></trkpt><trkpt lat="38.87094" lon="16.4947583"><ele>294.0</ele><time>2026-04-07T12:09:12.788Z</time></trkpt><trkpt lat="38.8708583" lon="16.49485"><ele>291.0</ele><time>2026-04-07T12:09:13.788Z</time></trkpt><trkpt lat="38.8707767" lon="16.4949383"><ele>288.0</ele><time>2026-04-07T12:09:14.788Z</time></trkpt><trkpt lat="38.8706967" lon="16.49503"><ele>285.0</ele><time>2026-04-07T12:09:15.789Z</time></trkpt><trkpt lat="38.870615" lon="16.4951217"><ele>282.0</ele><time>2026-04-07T12:09:16.788Z</time></trkpt><trkpt lat="38.870525" lon="16.495195"><ele>279.0</ele><time>2026-04-07T12:09:17.789Z</time></trkpt><trkpt lat="38.8704333" lon="16.4952617"><ele>279.0</ele><time>2026-04-07T12:09:18.788Z</time></trkpt><trkpt lat="38.8703483" lon="16.4953133"><ele>279.0</ele><time>2026-04-07T12:09:19.788Z</time></trkpt><trkpt lat="38.870265" lon="16.49535"><ele>279.0</ele><time>2026-04-07T12:09:20.788Z</time></trkpt><trkpt lat="38.8701917" lon="16.4953833"><ele>279.0</ele><time>2026-04-07T12:09:21.788Z</time></trkpt><trkpt lat="38.87012" lon="16.4954217"><ele>279.0</ele><time>2026-04-07T12:09:22.788Z</time></trkpt><trkpt lat="38.8700583" lon="16.4954717"><ele>279.0</ele><time>2026-04-07T12:09:23.788Z</time></trkpt><trkpt lat="38.87" lon="16.4955333"><ele>277.8333333333333</ele><time>2026-04-07T12:09:24.788Z</time></trkpt><trkpt lat="38.86995" lon="16.4956117"><ele>276.6666666666667</ele><time>2026-04-07T12:09:25.789Z</time></trkpt><trkpt lat="38.8699167" lon="16.4957017"><ele>275.5</ele><time>2026-04-07T12:09:26.788Z</time></trkpt><trkpt lat="38.86989" lon="16.4957967"><ele>274.33333333333337</ele><time>2026-04-07T12:09:27.788Z</time></trkpt><trkpt lat="38.869875" lon="16.4959067"><ele>273.1666666666667</ele><time>2026-04-07T12:09:28.788Z</time></trkpt><trkpt lat="38.8698683" lon="16.4960133"><ele>272.0</ele><time>2026-04-07T12:09:29.788Z</time></trkpt><trkpt lat="38.8698633" lon="16.4961167"><ele>272.0</ele><time>2026-04-07T12:09:30.789Z</time></trkpt><trkpt lat="38.8698517" lon="16.4962267"><ele>272.0</ele><time>2026-04-07T12:09:31.788Z</time></trkpt><trkpt lat="38.8698383" lon="16.4963333"><ele>272.0</ele><time>2026-04-07T12:09:32.788Z</time></trkpt><trkpt lat="38.86983" lon="16.4964417"><ele>272.0</ele><time>2026-04-07T12:09:33.788Z</time></trkpt><trkpt lat="38.869815" lon="16.4965517"><ele>272.0</ele><time>2026-04-07T12:09:34.788Z</time></trkpt><trkpt lat="38.869785" lon="16.496655"><ele>272.0</ele><time>2026-04-07T12:09:35.788Z</time></trkpt><trkpt lat="38.8697483" lon="16.4967383"><ele>273.0</ele><time>2026-04-07T12:09:36.788Z</time></trkpt><trkpt lat="38.8697017" lon="16.49681"><ele>274.0</ele><time>2026-04-07T12:09:37.789Z</time></trkpt><trkpt lat="38.8695767" lon="16.4968717"><ele>275.0</ele><time>2026-04-07T12:09:39.788Z</time></trkpt><trkpt lat="38.8694917" lon="16.4968667"><ele>276.0</ele><time>2026-04-07T12:09:40.789Z</time></trkpt><trkpt lat="38.8693933" lon="16.496845"><ele>277.0</ele><time>2026-04-07T12:09:41.788Z</time></trkpt><trkpt lat="38.8692917" lon="16.496805"><ele>274.6</ele><time>2026-04-07T12:09:42.788Z</time></trkpt><trkpt lat="38.8691883" lon="16.4967917"><ele>272.2</ele><time>2026-04-07T12:09:43.788Z</time></trkpt><trkpt lat="38.8690917" lon="16.4967933"><ele>269.8</ele><time>2026-04-07T12:09:44.788Z</time></trkpt><trkpt lat="38.8689983" lon="16.4968033"><ele>267.4</ele><time>2026-04-07T12:09:45.788Z</time></trkpt><trkpt lat="38.8688983" lon="16.4968133"><ele>265.0</ele><time>2026-04-07T12:09:46.788Z</time></trkpt><trkpt lat="38.8688017" lon="16.4967967"><ele>265.0</ele><time>2026-04-07T12:09:47.789Z</time></trkpt><trkpt lat="38.8687133" lon="16.4967517"><ele>265.0</ele><time>2026-04-07T12:09:48.788Z</time></trkpt><trkpt lat="38.8686317" lon="16.4966833"><ele>265.0</ele><time>2026-04-07T12:09:49.789Z</time></trkpt><trkpt lat="38.8685617" lon="16.4966033"><ele>265.0</ele><time>2026-04-07T12:09:50.789Z</time></trkpt><trkpt lat="38.8684917" lon="16.4965333"><ele>265.0</ele><time>2026-04-07T12:09:51.789Z</time></trkpt><trkpt lat="38.8684217" lon="16.4964733"><ele>264.0</ele><time>2026-04-07T12:09:52.788Z</time></trkpt><trkpt lat="38.8683467" lon="16.4964217"><ele>263.0</ele><time>2026-04-07T12:09:53.788Z</time></trkpt><trkpt lat="38.8682633" lon="16.496395"><ele>262.0</ele><time>2026-04-07T12:09:54.789Z</time></trkpt><trkpt lat="38.8681783" lon="16.4964067"><ele>261.0</ele><time>2026-04-07T12:09:55.789Z</time></trkpt><trkpt lat="38.8681033" lon="16.4964533"><ele>260.0</ele><time>2026-04-07T12:09:56.789Z</time></trkpt><trkpt lat="38.8680367" lon="16.4965317"><ele>259.0</ele><time>2026-04-07T12:09:57.788Z</time></trkpt><trkpt lat="38.8679783" lon="16.4966367"><ele>259.0</ele><time>2026-04-07T12:09:58.788Z</time></trkpt><trkpt lat="38.86792" lon="16.4967567"><ele>259.0</ele><time>2026-04-07T12:09:59.788Z</time></trkpt><trkpt lat="38.867865" lon="16.49688"><ele>259.0</ele><time>2026-04-07T12:10:00.788Z</time></trkpt><trkpt lat="38.867815" lon="16.4970083"><ele>259.0</ele><time>2026-04-07T12:10:01.788Z</time></trkpt><trkpt lat="38.86779" lon="16.497125"><ele>259.0</ele><time>2026-04-07T12:10:02.789Z</time></trkpt><trkpt lat="38.8678033" lon="16.4972383"><ele>263.0</ele><time>2026-04-07T12:10:03.788Z</time></trkpt><trkpt lat="38.8678483" lon="16.497355"><ele>267.0</ele><time>2026-04-07T12:10:04.788Z</time></trkpt><trkpt lat="38.867905" lon="16.4974767"><ele>271.0</ele><time>2026-04-07T12:10:05.789Z</time></trkpt><trkpt lat="38.8679617" lon="16.4976067"><ele>275.0</ele><time>2026-04-07T12:10:06.788Z</time></trkpt><trkpt lat="38.868015" lon="16.49775"><ele>275.0</ele><time>2026-04-07T12:10:07.788Z</time></trkpt><trkpt lat="38.8680667" lon="16.4978967"><ele>275.0</ele><time>2026-04-07T12:10:08.789Z</time></trkpt><trkpt lat="38.8681067" lon="16.49805"><ele>275.0</ele><time>2026-04-07T12:10:09.788Z</time></trkpt><trkpt lat="38.8681417" lon="16.498205"><ele>275.0</ele><time>2026-04-07T12:10:10.788Z</time></trkpt><trkpt lat="38.8681783" lon="16.4983617"><ele>272.5</ele><time>2026-04-07T12:10:11.788Z</time></trkpt><trkpt lat="38.8682267" lon="16.4985217"><ele>270.0</ele><time>2026-04-07T12:10:12.789Z</time></trkpt><trkpt lat="38.8682767" lon="16.4986683"><ele>267.5</ele><time>2026-04-07T12:10:13.788Z</time></trkpt><trkpt lat="38.86833" lon="16.49881"><ele>265.0</ele><time>2026-04-07T12:10:14.788Z</time></trkpt><trkpt lat="38.86838" lon="16.4989533"><ele>260.25</ele><time>2026-04-07T12:10:15.789Z</time></trkpt><trkpt lat="38.86843" lon="16.4990933"><ele>255.5</ele><time>2026-04-07T12:10:16.788Z</time></trkpt><trkpt lat="38.8684733" lon="16.499235"><ele>250.75</ele><time>2026-04-07T12:10:17.789Z</time></trkpt><trkpt lat="38.8685183" lon="16.4993867"><ele>246.0</ele><time>2026-04-07T12:10:18.788Z</time></trkpt><trkpt lat="38.8685417" lon="16.4995433"><ele>253.25</ele><time>2026-04-07T12:10:19.788Z</time></trkpt><trkpt lat="38.86855" lon="16.4997017"><ele>260.5</ele><time>2026-04-07T12:10:20.789Z</time></trkpt><trkpt lat="38.868555" lon="16.4998667"><ele>267.75</ele><time>2026-04-07T12:10:21.789Z</time></trkpt><trkpt lat="38.8685533" lon="16.5000283"><ele>275.0</ele><time>2026-04-07T12:10:22.788Z</time></trkpt><trkpt lat="38.8685383" lon="16.5001817"><ele>275.0</ele><time>2026-04-07T12:10:23.789Z</time></trkpt><trkpt lat="38.8685117" lon="16.5003283"><ele>275.0</ele><time>2026-04-07T12:10:24.789Z</time></trkpt><trkpt lat="38.8684667" lon="16.5004617"><ele>275.0</ele><time>2026-04-07T12:10:25.789Z</time></trkpt><trkpt lat="38.8684067" lon="16.500575"><ele>275.0</ele><time>2026-04-07T12:10:26.789Z</time></trkpt><trkpt lat="38.86835" lon="16.5006683"><ele>275.0</ele><time>2026-04-07T12:10:27.788Z</time></trkpt><trkpt lat="38.8683067" lon="16.500755"><ele>267.0</ele><time>2026-04-07T12:10:28.788Z</time></trkpt><trkpt lat="38.868285" lon="16.500835"><ele>259.0</ele><time>2026-04-07T12:10:29.789Z</time></trkpt><trkpt lat="38.8682683" lon="16.5009583"><ele>251.0</ele><time>2026-04-07T12:10:31.789Z</time></trkpt><trkpt lat="38.8682817" lon="16.501065"><ele>243.0</ele><time>2026-04-07T12:10:33.788Z</time></trkpt><trkpt lat="38.8683117" lon="16.5011667"><ele>235.00000000000003</ele><time>2026-04-07T12:10:35.788Z</time></trkpt><trkpt lat="38.8683533" lon="16.50124"><ele>227.0</ele><time>2026-04-07T12:11:50.788Z</time></trkpt><trkpt lat="38.86842" lon="16.50131"><ele>230.2</ele><time>2026-04-07T12:11:52.789Z</time></trkpt><trkpt lat="38.8684717" lon="16.5013667"><ele>233.39999999999998</ele><time>2026-04-07T12:11:53.788Z</time></trkpt><trkpt lat="38.8685383" lon="16.5014383"><ele>236.60000000000002</ele><time>2026-04-07T12:11:54.788Z</time></trkpt><trkpt lat="38.8686067" lon="16.5015233"><ele>239.8</ele><time>2026-04-07T12:11:55.788Z</time></trkpt><trkpt lat="38.868675" lon="16.5016267"><ele>243.0</ele><time>2026-04-07T12:11:56.788Z</time></trkpt><trkpt lat="38.8687267" lon="16.5017317"><ele>243.0</ele><time>2026-04-07T12:11:57.788Z</time></trkpt><trkpt lat="38.8687683" lon="16.5018433"><ele>243.0</ele><time>2026-04-07T12:11:58.788Z</time></trkpt><trkpt lat="38.86879" lon="16.501965"><ele>243.0</ele><time>2026-04-07T12:11:59.789Z</time></trkpt><trkpt lat="38.8688033" lon="16.5021017"><ele>243.0</ele><time>2026-04-07T12:12:00.788Z</time></trkpt><trkpt lat="38.868805" lon="16.502245"><ele>243.0</ele><time>2026-04-07T12:12:01.788Z</time></trkpt><trkpt lat="38.8688183" lon="16.5023917"><ele>239.2</ele><time>2026-04-07T12:12:02.788Z</time></trkpt><trkpt lat="38.8688483" lon="16.5025267"><ele>235.4</ele><time>2026-04-07T12:12:03.788Z</time></trkpt><trkpt lat="38.8688783" lon="16.5026467"><ele>231.59999999999997</ele><time>2026-04-07T12:12:04.789Z</time></trkpt><trkpt lat="38.8689233" lon="16.5027383"><ele>227.79999999999998</ele><time>2026-04-07T12:12:05.788Z</time></trkpt><trkpt lat="38.8689917" lon="16.5028083"><ele>224.0</ele><time>2026-04-07T12:12:06.788Z</time></trkpt><trkpt lat="38.8690767" lon="16.5028583"><ele>224.0</ele><time>2026-04-07T12:12:07.789Z</time></trkpt><trkpt lat="38.8691767" lon="16.5028967"><ele>223.99999999999997</ele><time>2026-04-07T12:12:08.788Z</time></trkpt><trkpt lat="38.8692783" lon="16.5029433"><ele>223.99999999999997</ele><time>2026-04-07T12:12:09.788Z</time></trkpt><trkpt lat="38.86938" lon="16.5029883"><ele>224.0</ele><time>2026-04-07T12:12:10.788Z</time></trkpt><trkpt lat="38.869475" lon="16.5030317"><ele>224.0</ele><time>2026-04-07T12:12:11.788Z</time></trkpt><trkpt lat="38.8695533" lon="16.503075"><ele>221.16666666666669</ele><time>2026-04-07T12:12:12.788Z</time></trkpt><trkpt lat="38.8696117" lon="16.5031167"><ele>218.33333333333334</ele><time>2026-04-07T12:12:13.789Z</time></trkpt><trkpt lat="38.8696717" lon="16.5032133"><ele>215.5</ele><time>2026-04-07T12:12:15.788Z</time></trkpt><trkpt lat="38.869665" lon="16.5033233"><ele>212.66666666666669</ele><time>2026-04-07T12:12:18.788Z</time></trkpt><trkpt lat="38.8695983" lon="16.50341"><ele>209.83333333333334</ele><time>2026-04-07T12:12:21.788Z</time></trkpt><trkpt lat="38.8695183" lon="16.503435"><ele>207.0</ele><time>2026-04-07T12:12:23.788Z</time></trkpt><trkpt lat="38.8694283" lon="16.503405"><ele>207.0</ele><time>2026-04-07T12:12:25.788Z</time></trkpt><trkpt lat="38.86933" lon="16.50334"><ele>207.0</ele><time>2026-04-07T12:12:27.788Z</time></trkpt><trkpt lat="38.86928" lon="16.5032867"><ele>207.0</ele><time>2026-04-07T12:12:28.788Z</time></trkpt><trkpt lat="38.869225" lon="16.503235"><ele>207.0</ele><time>2026-04-07T12:12:29.789Z</time></trkpt><trkpt lat="38.8691633" lon="16.5031933"><ele>207.0</ele><time>2026-04-07T12:12:30.788Z</time></trkpt><trkpt lat="38.8690967" lon="16.503175"><ele>207.0</ele><time>2026-04-07T12:12:31.789Z</time></trkpt><trkpt lat="38.8690217" lon="16.5031883"><ele>207.0</ele><time>2026-04-07T12:12:32.788Z</time></trkpt><trkpt lat="38.8689483" lon="16.5032167"><ele>207.0</ele><time>2026-04-07T12:12:33.788Z</time></trkpt><trkpt lat="38.868875" lon="16.5032667"><ele>207.0</ele><time>2026-04-07T12:12:34.788Z</time></trkpt><trkpt lat="38.8688133" lon="16.5033367"><ele>207.0</ele><time>2026-04-07T12:12:35.788Z</time></trkpt><trkpt lat="38.8687583" lon="16.50342"><ele>207.0</ele><time>2026-04-07T12:12:36.788Z</time></trkpt><trkpt lat="38.868705" lon="16.5035167"><ele>207.0</ele><time>2026-04-07T12:12:37.788Z</time></trkpt><trkpt lat="38.8686533" lon="16.5036133"><ele>207.0</ele><time>2026-04-07T12:12:38.788Z</time></trkpt><trkpt lat="38.868605" lon="16.5037083"><ele>207.0</ele><time>2026-04-07T12:12:39.789Z</time></trkpt><trkpt lat="38.8685517" lon="16.5038"><ele>207.0</ele><time>2026-04-07T12:12:40.788Z</time></trkpt><trkpt lat="38.8684867" lon="16.50387"><ele>207.0</ele><time>2026-04-07T12:12:41.788Z</time></trkpt><trkpt lat="38.8684183" lon="16.5039183"><ele>207.0</ele><time>2026-04-07T12:12:42.788Z</time></trkpt><trkpt lat="38.8683417" lon="16.503945"><ele>207.0</ele><time>2026-04-07T12:12:43.788Z</time></trkpt><trkpt lat="38.8682683" lon="16.5039317"><ele>203.83333333333334</ele><time>2026-04-07T12:12:44.788Z</time></trkpt><trkpt lat="38.868205" lon="16.5039"><ele>200.66666666666666</ele><time>2026-04-07T12:12:45.788Z</time></trkpt><trkpt lat="38.868145" lon="16.5038467"><ele>197.5</ele><time>2026-04-07T12:12:46.788Z</time></trkpt><trkpt lat="38.8680817" lon="16.5038117"><ele>194.33333333333331</ele><time>2026-04-07T12:12:47.789Z</time></trkpt><trkpt lat="38.8680067" lon="16.5038183"><ele>191.16666666666666</ele><time>2026-04-07T12:12:48.789Z</time></trkpt><trkpt lat="38.8679317" lon="16.5038567"><ele>188.0</ele><time>2026-04-07T12:12:49.788Z</time></trkpt><trkpt lat="38.8678617" lon="16.503925"><ele>188.0</ele><time>2026-04-07T12:12:50.788Z</time></trkpt><trkpt lat="38.8677867" lon="16.504"><ele>188.0</ele><time>2026-04-07T12:12:51.788Z</time></trkpt><trkpt lat="38.8677033" lon="16.50407"><ele>188.0</ele><time>2026-04-07T12:12:52.789Z</time></trkpt><trkpt lat="38.8676167" lon="16.50411"><ele>188.0</ele><time>2026-04-07T12:12:53.789Z</time></trkpt><trkpt lat="38.867535" lon="16.5041083"><ele>188.0</ele><time>2026-04-07T12:12:54.788Z</time></trkpt><trkpt lat="38.8674667" lon="16.5040683"><ele>188.0</ele><time>2026-04-07T12:12:55.789Z</time></trkpt><trkpt lat="38.86742" lon="16.503995"><ele>187.0</ele><time>2026-04-07T12:12:56.788Z</time></trkpt><trkpt lat="38.867405" lon="16.5039017"><ele>186.0</ele><time>2026-04-07T12:12:57.788Z</time></trkpt><trkpt lat="38.8674133" lon="16.5037867"><ele>185.0</ele><time>2026-04-07T12:12:58.789Z</time></trkpt><trkpt lat="38.867425" lon="16.5036833"><ele>184.0</ele><time>2026-04-07T12:12:59.788Z</time></trkpt><trkpt lat="38.86741" lon="16.5036"><ele>183.0</ele><time>2026-04-07T12:13:00.789Z</time></trkpt><trkpt lat="38.8673217" lon="16.503525"><ele>182.0</ele><time>2026-04-07T12:13:02.788Z</time></trkpt><trkpt lat="38.8672283" lon="16.5035617"><ele>182.0</ele><time>2026-04-07T12:13:04.788Z</time></trkpt><trkpt lat="38.8671767" lon="16.503645"><ele>182.0</ele><time>2026-04-07T12:13:33.789Z</time></trkpt><trkpt lat="38.8671667" lon="16.5038017"><ele>182.0</ele><time>2026-04-07T12:13:35.788Z</time></trkpt><trkpt lat="38.8671733" lon="16.50391"><ele>182.0</ele><time>2026-04-07T12:13:36.788Z</time></trkpt><trkpt lat="38.8671783" lon="16.5040283"><ele>182.0</ele><time>2026-04-07T12:13:37.788Z</time></trkpt><trkpt lat="38.8671817" lon="16.504155"><ele>182.0</ele><time>2026-04-07T12:13:38.788Z</time></trkpt><trkpt lat="38.8671783" lon="16.50428"><ele>182.0</ele><time>2026-04-07T12:13:39.789Z</time></trkpt><trkpt lat="38.867155" lon="16.5044083"><ele>182.0</ele><time>2026-04-07T12:13:40.789Z</time></trkpt><trkpt lat="38.8671067" lon="16.50455"><ele>182.0</ele><time>2026-04-07T12:13:41.788Z</time></trkpt><trkpt lat="38.867025" lon="16.5046833"><ele>178.0</ele><time>2026-04-07T12:13:42.789Z</time></trkpt><trkpt lat="38.8669367" lon="16.5048067"><ele>174.0</ele><time>2026-04-07T12:13:43.788Z</time></trkpt><trkpt lat="38.8668467" lon="16.5049167"><ele>170.0</ele><time>2026-04-07T12:13:44.788Z</time></trkpt><trkpt lat="38.8667633" lon="16.5050133"><ele>166.0</ele><time>2026-04-07T12:13:45.788Z</time></trkpt><trkpt lat="38.8666867" lon="16.5051183"><ele>166.0</ele><time>2026-04-07T12:13:46.788Z</time></trkpt><trkpt lat="38.8666117" lon="16.505225"><ele>166.0</ele><time>2026-04-07T12:13:47.788Z</time></trkpt><trkpt lat="38.866545" lon="16.5053467"><ele>166.0</ele><time>2026-04-07T12:13:48.789Z</time></trkpt><trkpt lat="38.866495" lon="16.50549"><ele>166.0</ele><time>2026-04-07T12:13:49.788Z</time></trkpt><trkpt lat="38.8664533" lon="16.5056417"><ele>166.75</ele><time>2026-04-07T12:13:50.788Z</time></trkpt><trkpt lat="38.866425" lon="16.5057933"><ele>167.5</ele><time>2026-04-07T12:13:51.788Z</time></trkpt><trkpt lat="38.8664033" lon="16.505945"><ele>168.25</ele><time>2026-04-07T12:13:52.789Z</time></trkpt><trkpt lat="38.8664017" lon="16.5060883"><ele>169.0</ele><time>2026-04-07T12:13:53.789Z</time></trkpt><trkpt lat="38.8664167" lon="16.506235"><ele>169.39999999999998</ele><time>2026-04-07T12:13:54.788Z</time></trkpt><trkpt lat="38.8664567" lon="16.5063683"><ele>169.8</ele><time>2026-04-07T12:13:55.788Z</time></trkpt><trkpt lat="38.8665067" lon="16.5064967"><ele>170.2</ele><time>2026-04-07T12:13:56.788Z</time></trkpt><trkpt lat="38.86656" lon="16.5066167"><ele>170.60000000000002</ele><time>2026-04-07T12:13:57.789Z</time></trkpt><trkpt lat="38.866605" lon="16.5067333"><ele>171.0</ele><time>2026-04-07T12:13:58.789Z</time></trkpt><trkpt lat="38.8666367" lon="16.5068533"><ele>171.0</ele><time>2026-04-07T12:13:59.788Z</time></trkpt><trkpt lat="38.86666" lon="16.50698"><ele>171.0</ele><time>2026-04-07T12:14:00.788Z</time></trkpt><trkpt lat="38.866675" lon="16.507115"><ele>171.0</ele><time>2026-04-07T12:14:01.788Z</time></trkpt><trkpt lat="38.8666967" lon="16.5072467"><ele>171.0</ele><time>2026-04-07T12:14:02.788Z</time></trkpt><trkpt lat="38.8667233" lon="16.5073717"><ele>171.0</ele><time>2026-04-07T12:14:03.788Z</time></trkpt><trkpt lat="38.8667733" lon="16.507475"><ele>166.66666666666666</ele><time>2026-04-07T12:14:04.789Z</time></trkpt><trkpt lat="38.866845" lon="16.5075533"><ele>162.33333333333334</ele><time>2026-04-07T12:14:05.788Z</time></trkpt><trkpt lat="38.8669183" lon="16.5076183"><ele>158.0</ele><time>2026-04-07T12:14:06.788Z</time></trkpt><trkpt lat="38.8669883" lon="16.5076833"><ele>153.66666666666669</ele><time>2026-04-07T12:14:07.788Z</time></trkpt><trkpt lat="38.8670483" lon="16.5077483"><ele>149.33333333333334</ele><time>2026-04-07T12:14:08.788Z</time></trkpt><trkpt lat="38.8670917" lon="16.5078333"><ele>145.0</ele><time>2026-04-07T12:14:09.788Z</time></trkpt><trkpt lat="38.8671083" lon="16.5079217"><ele>144.33333333333334</ele><time>2026-04-07T12:14:10.788Z</time></trkpt><trkpt lat="38.8670983" lon="16.5080167"><ele>143.66666666666669</ele><time>2026-04-07T12:14:11.788Z</time></trkpt><trkpt lat="38.86706" lon="16.50811"><ele>143.0</ele><time>2026-04-07T12:14:12.788Z</time></trkpt><trkpt lat="38.8670033" lon="16.508195"><ele>142.33333333333334</ele><time>2026-04-07T12:14:13.788Z</time></trkpt><trkpt lat="38.86692" lon="16.5082633"><ele>141.66666666666666</ele><time>2026-04-07T12:14:14.788Z</time></trkpt><trkpt lat="38.8668233" lon="16.50832"><ele>141.0</ele><time>2026-04-07T12:14:15.788Z</time></trkpt><trkpt lat="38.8667133" lon="16.5083783"><ele>144.8</ele><time>2026-04-07T12:14:16.788Z</time></trkpt><trkpt lat="38.8665933" lon="16.50843"><ele>148.6</ele><time>2026-04-07T12:14:17.788Z</time></trkpt><trkpt lat="38.86649" lon="16.50849"><ele>152.4</ele><time>2026-04-07T12:14:18.788Z</time></trkpt><trkpt lat="38.866395" lon="16.5085467"><ele>156.2</ele><time>2026-04-07T12:14:19.788Z</time></trkpt><trkpt lat="38.8663117" lon="16.5086283"><ele>160.0</ele><time>2026-04-07T12:14:20.788Z</time></trkpt><trkpt lat="38.8662317" lon="16.5087333"><ele>156.2</ele><time>2026-04-07T12:14:21.789Z</time></trkpt><trkpt lat="38.8661583" lon="16.50885"><ele>152.4</ele><time>2026-04-07T12:14:22.788Z</time></trkpt><trkpt lat="38.8661017" lon="16.508965"><ele>148.6</ele><time>2026-04-07T12:14:23.788Z</time></trkpt><trkpt lat="38.8660683" lon="16.5090917"><ele>144.8</ele><time>2026-04-07T12:14:24.788Z</time></trkpt><trkpt lat="38.86606" lon="16.509235"><ele>141.0</ele><time>2026-04-07T12:14:25.788Z</time></trkpt><trkpt lat="38.8660583" lon="16.5093767"><ele>141.0</ele><time>2026-04-07T12:14:26.789Z</time></trkpt><trkpt lat="38.8660617" lon="16.5095167"><ele>141.0</ele><time>2026-04-07T12:14:27.788Z</time></trkpt><trkpt lat="38.8660617" lon="16.5096333"><ele>141.0</ele><time>2026-04-07T12:14:28.788Z</time></trkpt><trkpt lat="38.8660467" lon="16.5097383"><ele>141.0</ele><time>2026-04-07T12:14:29.788Z</time></trkpt><trkpt lat="38.8660183" lon="16.5098433"><ele>141.0</ele><time>2026-04-07T12:14:30.789Z</time></trkpt><trkpt lat="38.8659617" lon="16.5099283"><ele>142.0</ele><time>2026-04-07T12:14:31.789Z</time></trkpt><trkpt lat="38.865895" lon="16.5099867"><ele>143.0</ele><time>2026-04-07T12:14:32.788Z</time></trkpt><trkpt lat="38.8658133" lon="16.5100133"><ele>144.0</ele><time>2026-04-07T12:14:33.788Z</time></trkpt><trkpt lat="38.865735" lon="16.5100367"><ele>145.0</ele><time>2026-04-07T12:14:34.789Z</time></trkpt><trkpt lat="38.865665" lon="16.5100783"><ele>146.0</ele><time>2026-04-07T12:14:35.789Z</time></trkpt><trkpt lat="38.8656033" lon="16.5101367"><ele>147.0</ele><time>2026-04-07T12:14:36.788Z</time></trkpt><trkpt lat="38.86554" lon="16.51031"><ele>144.79999999999998</ele><time>2026-04-07T12:14:38.788Z</time></trkpt><trkpt lat="38.86552" lon="16.51043"><ele>142.6</ele><time>2026-04-07T12:14:39.789Z</time></trkpt><trkpt lat="38.865525" lon="16.5105617"><ele>140.39999999999998</ele><time>2026-04-07T12:14:40.788Z</time></trkpt><trkpt lat="38.8655383" lon="16.5106883"><ele>138.2</ele><time>2026-04-07T12:14:41.788Z</time></trkpt><trkpt lat="38.8655533" lon="16.5108117"><ele>136.0</ele><time>2026-04-07T12:14:42.788Z</time></trkpt><trkpt lat="38.8655783" lon="16.5109167"><ele>136.0</ele><time>2026-04-07T12:14:43.789Z</time></trkpt><trkpt lat="38.8656117" lon="16.5110267"><ele>136.0</ele><time>2026-04-07T12:14:44.788Z</time></trkpt><trkpt lat="38.8656467" lon="16.5111333"><ele>136.0</ele><time>2026-04-07T12:14:45.788Z</time></trkpt><trkpt lat="38.8656833" lon="16.51125"><ele>136.0</ele><time>2026-04-07T12:14:46.788Z</time></trkpt><trkpt lat="38.8657283" lon="16.511375"><ele>136.0</ele><time>2026-04-07T12:14:47.788Z</time></trkpt><trkpt lat="38.865785" lon="16.51151"><ele>135.75</ele><time>2026-04-07T12:14:48.789Z</time></trkpt><trkpt lat="38.86584" lon="16.5116517"><ele>135.5</ele><time>2026-04-07T12:14:49.788Z</time></trkpt><trkpt lat="38.86589" lon="16.5118"><ele>135.25</ele><time>2026-04-07T12:14:50.789Z</time></trkpt><trkpt lat="38.8659417" lon="16.5119567"><ele>135.0</ele><time>2026-04-07T12:14:51.788Z</time></trkpt><trkpt lat="38.86599" lon="16.5121033"><ele>131.25</ele><time>2026-04-07T12:14:52.789Z</time></trkpt><trkpt lat="38.8660467" lon="16.51224"><ele>127.5</ele><time>2026-04-07T12:14:53.789Z</time></trkpt><trkpt lat="38.8661017" lon="16.512375"><ele>123.75</ele><time>2026-04-07T12:14:54.789Z</time></trkpt><trkpt lat="38.8661567" lon="16.512515"><ele>120.0</ele><time>2026-04-07T12:14:55.788Z</time></trkpt><trkpt lat="38.8662067" lon="16.5126717"><ele>120.0</ele><time>2026-04-07T12:14:56.788Z</time></trkpt><trkpt lat="38.8662617" lon="16.512825"><ele>120.0</ele><time>2026-04-07T12:14:57.788Z</time></trkpt><trkpt lat="38.866315" lon="16.5129817"><ele>120.0</ele><time>2026-04-07T12:14:58.788Z</time></trkpt><trkpt lat="38.8663683" lon="16.5131283"><ele>120.0</ele><time>2026-04-07T12:14:59.788Z</time></trkpt><trkpt lat="38.8664217" lon="16.5132733"><ele>121.2</ele><time>2026-04-07T12:15:00.788Z</time></trkpt><trkpt lat="38.8664733" lon="16.5134017"><ele>122.4</ele><time>2026-04-07T12:15:01.788Z</time></trkpt><trkpt lat="38.866525" lon="16.513525"><ele>123.6</ele><time>2026-04-07T12:15:02.788Z</time></trkpt><trkpt lat="38.8665667" lon="16.5136467"><ele>124.8</ele><time>2026-04-07T12:15:03.789Z</time></trkpt><trkpt lat="38.8666133" lon="16.513775"><ele>126.0</ele><time>2026-04-07T12:15:04.789Z</time></trkpt><trkpt lat="38.866665" lon="16.5139"><ele>126.0</ele><time>2026-04-07T12:15:05.788Z</time></trkpt><trkpt lat="38.8667133" lon="16.5140233"><ele>126.0</ele><time>2026-04-07T12:15:06.788Z</time></trkpt><trkpt lat="38.866765" lon="16.514125"><ele>126.0</ele><time>2026-04-07T12:15:07.788Z</time></trkpt><trkpt lat="38.8668133" lon="16.51422"><ele>126.0</ele><time>2026-04-07T12:15:08.789Z</time></trkpt><trkpt lat="38.866855" lon="16.51429"><ele>126.0</ele><time>2026-04-07T12:15:09.788Z</time></trkpt><trkpt lat="38.8669317" lon="16.5143983"><ele>126.5</ele><time>2026-04-07T12:15:11.788Z</time></trkpt><trkpt lat="38.8669933" lon="16.5144533"><ele>127.0</ele><time>2026-04-07T12:15:13.788Z</time></trkpt><trkpt lat="38.8670617" lon="16.5145"><ele>127.5</ele><time>2026-04-07T12:15:16.789Z</time></trkpt><trkpt lat="38.86713" lon="16.5145283"><ele>128.0</ele><time>2026-04-07T12:15:18.789Z</time></trkpt><trkpt lat="38.8672283" lon="16.5145517"><ele>128.5</ele><time>2026-04-07T12:15:20.789Z</time></trkpt><trkpt lat="38.8673483" lon="16.514575"><ele>129.0</ele><time>2026-04-07T12:15:22.789Z</time></trkpt><trkpt lat="38.8674183" lon="16.5146033"><ele>129.0</ele><time>2026-04-07T12:15:23.789Z</time></trkpt><trkpt lat="38.8674933" lon="16.514645"><ele>129.0</ele><time>2026-04-07T12:15:24.789Z</time></trkpt><trkpt lat="38.8675717" lon="16.514695"><ele>129.0</ele><time>2026-04-07T12:15:25.79Z</time></trkpt><trkpt lat="38.8676533" lon="16.5147467"><ele>129.0</ele><time>2026-04-07T12:15:26.789Z</time></trkpt><trkpt lat="38.8677367" lon="16.514795"><ele>129.0</ele><time>2026-04-07T12:15:27.789Z</time></trkpt><trkpt lat="38.8678133" lon="16.5148417"><ele>129.0</ele><time>2026-04-07T12:15:28.789Z</time></trkpt><trkpt lat="38.867885" lon="16.51489"><ele>127.83333333333333</ele><time>2026-04-07T12:15:29.789Z</time></trkpt><trkpt lat="38.8679533" lon="16.514945"><ele>126.66666666666666</ele><time>2026-04-07T12:15:30.789Z</time></trkpt><trkpt lat="38.868005" lon="16.5150183"><ele>125.5</ele><time>2026-04-07T12:15:31.789Z</time></trkpt><trkpt lat="38.8680483" lon="16.5151133"><ele>124.33333333333333</ele><time>2026-04-07T12:15:32.79Z</time></trkpt><trkpt lat="38.868075" lon="16.5152217"><ele>123.16666666666666</ele><time>2026-04-07T12:15:33.789Z</time></trkpt><trkpt lat="38.868085" lon="16.5153267"><ele>122.0</ele><time>2026-04-07T12:15:34.789Z</time></trkpt><trkpt lat="38.8680883" lon="16.5154367"><ele>121.99999999999999</ele><time>2026-04-07T12:15:35.789Z</time></trkpt><trkpt lat="38.8681083" lon="16.5155433"><ele>122.0</ele><time>2026-04-07T12:15:36.789Z</time></trkpt><trkpt lat="38.868145" lon="16.5156433"><ele>122.0</ele><time>2026-04-07T12:15:37.789Z</time></trkpt><trkpt lat="38.86821" lon="16.51571"><ele>122.0</ele><time>2026-04-07T12:15:38.789Z</time></trkpt><trkpt lat="38.8682933" lon="16.5157533"><ele>121.99999999999999</ele><time>2026-04-07T12:15:39.789Z</time></trkpt><trkpt lat="38.8683733" lon="16.515795"><ele>122.0</ele><time>2026-04-07T12:15:40.789Z</time></trkpt><trkpt lat="38.8684383" lon="16.51585"><ele>120.39999999999999</ele><time>2026-04-07T12:15:41.79Z</time></trkpt><trkpt lat="38.868485" lon="16.5159267"><ele>118.79999999999998</ele><time>2026-04-07T12:15:42.789Z</time></trkpt><trkpt lat="38.868525" lon="16.5160267"><ele>117.2</ele><time>2026-04-07T12:15:43.789Z</time></trkpt><trkpt lat="38.868565" lon="16.51614"><ele>115.6</ele><time>2026-04-07T12:15:44.789Z</time></trkpt><trkpt lat="38.8685917" lon="16.5162617"><ele>114.0</ele><time>2026-04-07T12:15:45.79Z</time></trkpt><trkpt lat="38.8686167" lon="16.51639"><ele>114.0</ele><time>2026-04-07T12:15:46.789Z</time></trkpt><trkpt lat="38.868655" lon="16.5165117"><ele>114.0</ele><time>2026-04-07T12:15:47.789Z</time></trkpt><trkpt lat="38.868715" lon="16.5166083"><ele>114.0</ele><time>2026-04-07T12:15:48.789Z</time></trkpt><trkpt lat="38.8687917" lon="16.5166767"><ele>114.0</ele><time>2026-04-07T12:15:49.789Z</time></trkpt><trkpt lat="38.8688883" lon="16.5167033"><ele>114.0</ele><time>2026-04-07T12:15:50.789Z</time></trkpt><trkpt lat="38.8689983" lon="16.5166933"><ele>114.0</ele><time>2026-04-07T12:15:51.79Z</time></trkpt><trkpt lat="38.86911" lon="16.5166617"><ele>114.0</ele><time>2026-04-07T12:15:52.789Z</time></trkpt><trkpt lat="38.869215" lon="16.5165883"><ele>114.0</ele><time>2026-04-07T12:15:53.789Z</time></trkpt><trkpt lat="38.8693133" lon="16.5164983"><ele>114.0</ele><time>2026-04-07T12:15:54.789Z</time></trkpt><trkpt lat="38.8694017" lon="16.5163933"><ele>114.0</ele><time>2026-04-07T12:15:55.789Z</time></trkpt><trkpt lat="38.8694767" lon="16.5162967"><ele>114.0</ele><time>2026-04-07T12:15:56.79Z</time></trkpt><trkpt lat="38.8695583" lon="16.51622"><ele>114.0</ele><time>2026-04-07T12:15:57.789Z</time></trkpt><trkpt lat="38.869645" lon="16.5161783"><ele>114.0</ele><time>2026-04-07T12:15:58.79Z</time></trkpt><trkpt lat="38.8697383" lon="16.5161717"><ele>114.0</ele><time>2026-04-07T12:15:59.789Z</time></trkpt><trkpt lat="38.8698333" lon="16.5161883"><ele>114.0</ele><time>2026-04-07T12:16:00.789Z</time></trkpt><trkpt lat="38.8699383" lon="16.5162133"><ele>114.0</ele><time>2026-04-07T12:16:01.79Z</time></trkpt><trkpt lat="38.8700517" lon="16.5162617"><ele>114.0</ele><time>2026-04-07T12:16:02.789Z</time></trkpt><trkpt lat="38.8701817" lon="16.5163067"><ele>114.0</ele><time>2026-04-07T12:16:03.79Z</time></trkpt><trkpt lat="38.8703167" lon="16.5163483"><ele>112.5</ele><time>2026-04-07T12:16:04.789Z</time></trkpt><trkpt lat="38.8704583" lon="16.5163833"><ele>111.0</ele><time>2026-04-07T12:16:05.79Z</time></trkpt><trkpt lat="38.8706033" lon="16.5164267"><ele>109.5</ele><time>2026-04-07T12:16:06.789Z</time></trkpt><trkpt lat="38.8707567" lon="16.5164617"><ele>108.0</ele><time>2026-04-07T12:16:07.79Z</time></trkpt><trkpt lat="38.87091" lon="16.5165017"><ele>105.66666666666666</ele><time>2026-04-07T12:16:08.789Z</time></trkpt><trkpt lat="38.8710567" lon="16.516535"><ele>103.33333333333333</ele><time>2026-04-07T12:16:09.789Z</time></trkpt><trkpt lat="38.8712117" lon="16.516555"><ele>101.0</ele><time>2026-04-07T12:16:10.789Z</time></trkpt><trkpt lat="38.8713667" lon="16.5165617"><ele>101.0</ele><time>2026-04-07T12:16:11.789Z</time></trkpt><trkpt lat="38.8715117" lon="16.5165667"><ele>101.0</ele><time>2026-04-07T12:16:12.79Z</time></trkpt><trkpt lat="38.8716717" lon="16.516575"><ele>101.0</ele><time>2026-04-07T12:16:13.79Z</time></trkpt><trkpt lat="38.8718217" lon="16.5165883"><ele>98.66666666666666</ele><time>2026-04-07T12:16:14.789Z</time></trkpt><trkpt lat="38.8719783" lon="16.5166133"><ele>96.33333333333333</ele><time>2026-04-07T12:16:15.789Z</time></trkpt><trkpt lat="38.872135" lon="16.5166417"><ele>94.0</ele><time>2026-04-07T12:16:16.789Z</time></trkpt><trkpt lat="38.8722817" lon="16.516675"><ele>94.0</ele><time>2026-04-07T12:16:17.789Z</time></trkpt><trkpt lat="38.8724217" lon="16.516705"><ele>94.0</ele><time>2026-04-07T12:16:18.789Z</time></trkpt><trkpt lat="38.8725467" lon="16.5167367"><ele>94.0</ele><time>2026-04-07T12:16:19.789Z</time></trkpt><trkpt lat="38.8726617" lon="16.5167683"><ele>94.0</ele><time>2026-04-07T12:16:20.789Z</time></trkpt><trkpt lat="38.8727567" lon="16.5168117"><ele>93.80000000000001</ele><time>2026-04-07T12:16:21.79Z</time></trkpt><trkpt lat="38.8728367" lon="16.51687"><ele>93.60000000000001</ele><time>2026-04-07T12:16:22.789Z</time></trkpt><trkpt lat="38.8729067" lon="16.5169333"><ele>93.4</ele><time>2026-04-07T12:16:23.789Z</time></trkpt><trkpt lat="38.8729833" lon="16.5170233"><ele>93.2</ele><time>2026-04-07T12:16:24.789Z</time></trkpt><trkpt lat="38.87304" lon="16.5171233"><ele>93.0</ele><time>2026-04-07T12:16:25.79Z</time></trkpt><trkpt lat="38.8731167" lon="16.517195"><ele>93.0</ele><time>2026-04-07T12:16:26.789Z</time></trkpt><trkpt lat="38.8732033" lon="16.517245"><ele>93.0</ele><time>2026-04-07T12:16:27.789Z</time></trkpt><trkpt lat="38.8732983" lon="16.5172717"><ele>93.0</ele><time>2026-04-07T12:16:28.789Z</time></trkpt><trkpt lat="38.8734067" lon="16.517285"><ele>93.0</ele><time>2026-04-07T12:16:29.79Z</time></trkpt><trkpt lat="38.8735133" lon="16.5172967"><ele>93.0</ele><time>2026-04-07T12:16:30.79Z</time></trkpt><trkpt lat="38.8736267" lon="16.5173017"><ele>91.5</ele><time>2026-04-07T12:16:31.789Z</time></trkpt><trkpt lat="38.8737483" lon="16.5173033"><ele>90.0</ele><time>2026-04-07T12:16:32.789Z</time></trkpt><trkpt lat="38.8738683" lon="16.5172917"><ele>88.5</ele><time>2026-04-07T12:16:33.789Z</time></trkpt><trkpt lat="38.8739817" lon="16.517275"><ele>87.0</ele><time>2026-04-07T12:16:34.789Z</time></trkpt><trkpt lat="38.874085" lon="16.5172517"><ele>87.0</ele><time>2026-04-07T12:16:35.789Z</time></trkpt><trkpt lat="38.8741833" lon="16.5172367"><ele>87.0</ele><time>2026-04-07T12:16:36.789Z</time></trkpt><trkpt lat="38.87427" lon="16.5172317"><ele>87.0</ele><time>2026-04-07T12:16:37.789Z</time></trkpt><trkpt lat="38.8743567" lon="16.5172417"><ele>87.0</ele><time>2026-04-07T12:16:38.79Z</time></trkpt><trkpt lat="38.874435" lon="16.5172817"><ele>87.0</ele><time>2026-04-07T12:16:39.789Z</time></trkpt><trkpt lat="38.87451" lon="16.5173517"><ele>86.0</ele><time>2026-04-07T12:16:40.789Z</time></trkpt><trkpt lat="38.8745917" lon="16.5174417"><ele>85.0</ele><time>2026-04-07T12:16:41.789Z</time></trkpt><trkpt lat="38.8746667" lon="16.5175417"><ele>84.0</ele><time>2026-04-07T12:16:42.789Z</time></trkpt><trkpt lat="38.8747517" lon="16.517635"><ele>83.0</ele><time>2026-04-07T12:16:43.789Z</time></trkpt><trkpt lat="38.8748433" lon="16.51771"><ele>82.0</ele><time>2026-04-07T12:16:44.789Z</time></trkpt><trkpt lat="38.8749267" lon="16.517775"><ele>82.25</ele><time>2026-04-07T12:16:45.789Z</time></trkpt><trkpt lat="38.8751167" lon="16.51785"><ele>82.5</ele><time>2026-04-07T12:16:47.789Z</time></trkpt><trkpt lat="38.8752133" lon="16.517865"><ele>82.75</ele><time>2026-04-07T12:16:48.789Z</time></trkpt><trkpt lat="38.8753117" lon="16.517875"><ele>83.0</ele><time>2026-04-07T12:16:49.789Z</time></trkpt><trkpt lat="38.8754133" lon="16.5178567"><ele>83.0</ele><time>2026-04-07T12:16:50.789Z</time></trkpt><trkpt lat="38.8754983" lon="16.5178183"><ele>83.0</ele><time>2026-04-07T12:16:51.789Z</time></trkpt><trkpt lat="38.8755667" lon="16.5177667"><ele>83.0</ele><time>2026-04-07T12:16:52.789Z</time></trkpt><trkpt lat="38.8756217" lon="16.517715"><ele>83.0</ele><time>2026-04-07T12:16:53.789Z</time></trkpt><trkpt lat="38.8757233" lon="16.5176367"><ele>83.0</ele><time>2026-04-07T12:16:55.79Z</time></trkpt><trkpt lat="38.8758233" lon="16.5176017"><ele>83.80000000000001</ele><time>2026-04-07T12:16:57.789Z</time></trkpt><trkpt lat="38.875945" lon="16.517635"><ele>84.6</ele><time>2026-04-07T12:16:59.79Z</time></trkpt><trkpt lat="38.87602" lon="16.5176633"><ele>85.4</ele><time>2026-04-07T12:17:00.789Z</time></trkpt><trkpt lat="38.8760983" lon="16.5176983"><ele>86.19999999999999</ele><time>2026-04-07T12:17:01.789Z</time></trkpt><trkpt lat="38.876185" lon="16.5177367"><ele>87.0</ele><time>2026-04-07T12:17:02.789Z</time></trkpt><trkpt lat="38.8762733" lon="16.5177867"><ele>87.0</ele><time>2026-04-07T12:17:03.789Z</time></trkpt><trkpt lat="38.8763733" lon="16.517835"><ele>87.0</ele><time>2026-04-07T12:17:04.789Z</time></trkpt><trkpt lat="38.8764767" lon="16.5178867"><ele>87.0</ele><time>2026-04-07T12:17:05.789Z</time></trkpt><trkpt lat="38.876585" lon="16.5179433"><ele>87.0</ele><time>2026-04-07T12:17:06.79Z</time></trkpt><trkpt lat="38.8766917" lon="16.5179967"><ele>87.0</ele><time>2026-04-07T12:17:07.79Z</time></trkpt><trkpt lat="38.8768" lon="16.5180533"><ele>85.0</ele><time>2026-04-07T12:17:08.789Z</time></trkpt><trkpt lat="38.876915" lon="16.518115"><ele>83.0</ele><time>2026-04-07T12:17:09.789Z</time></trkpt><trkpt lat="38.8770217" lon="16.5181717"><ele>81.0</ele><time>2026-04-07T12:17:10.79Z</time></trkpt><trkpt lat="38.8771117" lon="16.5182433"><ele>79.0</ele><time>2026-04-07T12:17:11.789Z</time></trkpt><trkpt lat="38.8771933" lon="16.5183167"><ele>77.0</ele><time>2026-04-07T12:17:12.789Z</time></trkpt><trkpt lat="38.87727" lon="16.5183833"><ele>77.0</ele><time>2026-04-07T12:17:13.789Z</time></trkpt><trkpt lat="38.8773433" lon="16.5184467"><ele>77.0</ele><time>2026-04-07T12:17:14.79Z</time></trkpt><trkpt lat="38.877415" lon="16.5185017"><ele>77.0</ele><time>2026-04-07T12:17:15.789Z</time></trkpt><trkpt lat="38.8775517" lon="16.5185867"><ele>77.0</ele><time>2026-04-07T12:17:17.789Z</time></trkpt><trkpt lat="38.8776467" lon="16.51862"><ele>77.0</ele><time>2026-04-07T12:17:19.789Z</time></trkpt><trkpt lat="38.8777167" lon="16.5186367"><ele>77.16666666666667</ele><time>2026-04-07T12:17:23.789Z</time></trkpt><trkpt lat="38.8777933" lon="16.5186817"><ele>77.33333333333334</ele><time>2026-04-07T12:17:26.789Z</time></trkpt><trkpt lat="38.8778617" lon="16.5187333"><ele>77.5</ele><time>2026-04-07T12:17:28.789Z</time></trkpt><trkpt lat="38.8779267" lon="16.51875"><ele>77.66666666666667</ele><time>2026-04-07T12:18:22.789Z</time></trkpt><trkpt lat="38.8780283" lon="16.5187867"><ele>77.83333333333333</ele><time>2026-04-07T12:18:24.79Z</time></trkpt><trkpt lat="38.8780867" lon="16.5188183"><ele>78.0</ele><time>2026-04-07T12:18:25.789Z</time></trkpt><trkpt lat="38.8781417" lon="16.5188917"><ele>78.0</ele><time>2026-04-07T12:18:26.789Z</time></trkpt><trkpt lat="38.878185" lon="16.5190033"><ele>78.0</ele><time>2026-04-07T12:18:27.79Z</time></trkpt><trkpt lat="38.8782117" lon="16.51912"><ele>78.0</ele><time>2026-04-07T12:18:28.79Z</time></trkpt><trkpt lat="38.8782133" lon="16.5192583"><ele>78.0</ele><time>2026-04-07T12:18:29.789Z</time></trkpt><trkpt lat="38.8781983" lon="16.519405"><ele>78.0</ele><time>2026-04-07T12:18:30.789Z</time></trkpt><trkpt lat="38.8781767" lon="16.51955"><ele>77.0</ele><time>2026-04-07T12:18:31.789Z</time></trkpt><trkpt lat="38.8781467" lon="16.51972"><ele>76.0</ele><time>2026-04-07T12:18:32.789Z</time></trkpt><trkpt lat="38.8781117" lon="16.519895"><ele>75.0</ele><time>2026-04-07T12:18:33.789Z</time></trkpt><trkpt lat="38.8780783" lon="16.5200817"><ele>74.0</ele><time>2026-04-07T12:18:34.789Z</time></trkpt><trkpt lat="38.87804" lon="16.5202783"><ele>74.0</ele><time>2026-04-07T12:18:35.789Z</time></trkpt><trkpt lat="38.8780017" lon="16.52048"><ele>74.0</ele><time>2026-04-07T12:18:36.789Z</time></trkpt><trkpt lat="38.87797" lon="16.520675"><ele>74.0</ele><time>2026-04-07T12:18:37.79Z</time></trkpt><trkpt lat="38.87794" lon="16.5208683"><ele>74.0</ele><time>2026-04-07T12:18:38.789Z</time></trkpt><trkpt lat="38.8779167" lon="16.5210517"><ele>74.0</ele><time>2026-04-07T12:18:39.789Z</time></trkpt><trkpt lat="38.8779083" lon="16.5212383"><ele>74.0</ele><time>2026-04-07T12:18:40.789Z</time></trkpt><trkpt lat="38.8779267" lon="16.5214317"><ele>74.0</ele><time>2026-04-07T12:18:41.789Z</time></trkpt><trkpt lat="38.877975" lon="16.52162"><ele>73.66666666666667</ele><time>2026-04-07T12:18:42.789Z</time></trkpt><trkpt lat="38.8780367" lon="16.5218117"><ele>73.33333333333333</ele><time>2026-04-07T12:18:43.789Z</time></trkpt><trkpt lat="38.878095" lon="16.5220133"><ele>73.0</ele><time>2026-04-07T12:18:44.789Z</time></trkpt><trkpt lat="38.8781583" lon="16.5222083"><ele>72.66666666666666</ele><time>2026-04-07T12:18:45.79Z</time></trkpt><trkpt lat="38.8782267" lon="16.522405"><ele>72.33333333333333</ele><time>2026-04-07T12:18:46.79Z</time></trkpt><trkpt lat="38.8782883" lon="16.5225983"><ele>72.0</ele><time>2026-04-07T12:18:47.79Z</time></trkpt><trkpt lat="38.8783517" lon="16.5227917"><ele>72.0</ele><time>2026-04-07T12:18:48.789Z</time></trkpt><trkpt lat="38.87841" lon="16.52299"><ele>72.0</ele><time>2026-04-07T12:18:49.789Z</time></trkpt><trkpt lat="38.87847" lon="16.523185"><ele>72.0</ele><time>2026-04-07T12:18:50.789Z</time></trkpt><trkpt lat="38.8785317" lon="16.5233817"><ele>72.0</ele><time>2026-04-07T12:18:51.79Z</time></trkpt><trkpt lat="38.8785933" lon="16.5235783"><ele>72.0</ele><time>2026-04-07T12:18:52.789Z</time></trkpt><trkpt lat="38.8786533" lon="16.5237667"><ele>72.0</ele><time>2026-04-07T12:18:53.789Z</time></trkpt><trkpt lat="38.8787" lon="16.5239533"><ele>71.5</ele><time>2026-04-07T12:18:54.789Z</time></trkpt><trkpt lat="38.8787383" lon="16.52413"><ele>71.0</ele><time>2026-04-07T12:18:55.79Z</time></trkpt><trkpt lat="38.8787717" lon="16.5243"><ele>70.5</ele><time>2026-04-07T12:18:56.789Z</time></trkpt><trkpt lat="38.8787817" lon="16.5244533"><ele>70.0</ele><time>2026-04-07T12:18:57.789Z</time></trkpt><trkpt lat="38.87877" lon="16.5245983"><ele>69.75</ele><time>2026-04-07T12:18:58.789Z</time></trkpt><trkpt lat="38.8787567" lon="16.52475"><ele>69.5</ele><time>2026-04-07T12:18:59.79Z</time></trkpt><trkpt lat="38.8787267" lon="16.5249017"><ele>69.25</ele><time>2026-04-07T12:19:00.789Z</time></trkpt><trkpt lat="38.87869" lon="16.5250583"><ele>69.0</ele><time>2026-04-07T12:19:01.789Z</time></trkpt><trkpt lat="38.8786467" lon="16.52521"><ele>69.0</ele><time>2026-04-07T12:19:02.789Z</time></trkpt><trkpt lat="38.8786017" lon="16.5253667"><ele>69.0</ele><time>2026-04-07T12:19:03.789Z</time></trkpt><trkpt lat="38.87856" lon="16.5255317"><ele>69.0</ele><time>2026-04-07T12:19:04.789Z</time></trkpt><trkpt lat="38.8785283" lon="16.5257067"><ele>69.0</ele><time>2026-04-07T12:19:05.789Z</time></trkpt><trkpt lat="38.8785033" lon="16.5258933"><ele>68.75</ele><time>2026-04-07T12:19:06.789Z</time></trkpt><trkpt lat="38.87848" lon="16.52607"><ele>68.5</ele><time>2026-04-07T12:19:07.789Z</time></trkpt><trkpt lat="38.8784717" lon="16.526245"><ele>68.25</ele><time>2026-04-07T12:19:08.789Z</time></trkpt><trkpt lat="38.8784783" lon="16.526415"><ele>68.0</ele><time>2026-04-07T12:19:09.789Z</time></trkpt><trkpt lat="38.8784867" lon="16.52658"><ele>68.0</ele><time>2026-04-07T12:19:10.79Z</time></trkpt><trkpt lat="38.87849" lon="16.5267433"><ele>68.0</ele><time>2026-04-07T12:19:11.789Z</time></trkpt><trkpt lat="38.878495" lon="16.5269117"><ele>68.0</ele><time>2026-04-07T12:19:12.79Z</time></trkpt><trkpt lat="38.878495" lon="16.5270783"><ele>68.0</ele><time>2026-04-07T12:19:13.79Z</time></trkpt><trkpt lat="38.8785017" lon="16.52724"><ele>67.5</ele><time>2026-04-07T12:19:14.789Z</time></trkpt><trkpt lat="38.878505" lon="16.5274033"><ele>67.0</ele><time>2026-04-07T12:19:15.79Z</time></trkpt><trkpt lat="38.878515" lon="16.52756"><ele>66.5</ele><time>2026-04-07T12:19:16.789Z</time></trkpt><trkpt lat="38.8785333" lon="16.5277067"><ele>66.0</ele><time>2026-04-07T12:19:17.789Z</time></trkpt><trkpt lat="38.87856" lon="16.5278483"><ele>65.8</ele><time>2026-04-07T12:19:18.789Z</time></trkpt><trkpt lat="38.8785967" lon="16.52798"><ele>65.6</ele><time>2026-04-07T12:19:19.789Z</time></trkpt><trkpt lat="38.8786383" lon="16.5280983"><ele>65.4</ele><time>2026-04-07T12:19:20.789Z</time></trkpt><trkpt lat="38.8786917" lon="16.5282167"><ele>65.2</ele><time>2026-04-07T12:19:21.789Z</time></trkpt><trkpt lat="38.8787433" lon="16.5283267"><ele>65.0</ele><time>2026-04-07T12:19:22.789Z</time></trkpt><trkpt lat="38.8787917" lon="16.5284267"><ele>65.0</ele><time>2026-04-07T12:19:23.789Z</time></trkpt><trkpt lat="38.878835" lon="16.5285283"><ele>65.0</ele><time>2026-04-07T12:19:24.789Z</time></trkpt><trkpt lat="38.8788817" lon="16.528625"><ele>65.0</ele><time>2026-04-07T12:19:25.79Z</time></trkpt><trkpt lat="38.87893" lon="16.528715"><ele>65.0</ele><time>2026-04-07T12:19:26.79Z</time></trkpt><trkpt lat="38.8789683" lon="16.5287983"><ele>65.0</ele><time>2026-04-07T12:19:27.789Z</time></trkpt><trkpt lat="38.879065" lon="16.5288983"><ele>65.0</ele><time>2026-04-07T12:19:29.789Z</time></trkpt><trkpt lat="38.8791733" lon="16.5288833"><ele>65.0</ele><time>2026-04-07T12:19:31.789Z</time></trkpt><trkpt lat="38.8792317" lon="16.5288217"><ele>65.0</ele><time>2026-04-07T12:19:32.789Z</time></trkpt><trkpt lat="38.8792883" lon="16.5287367"><ele>65.0</ele><time>2026-04-07T12:19:33.789Z</time></trkpt><trkpt lat="38.8793417" lon="16.5286383"><ele>65.0</ele><time>2026-04-07T12:19:34.789Z</time></trkpt><trkpt lat="38.8794033" lon="16.5285467"><ele>65.66666666666667</ele><time>2026-04-07T12:19:35.789Z</time></trkpt><trkpt lat="38.8794567" lon="16.5284667"><ele>66.33333333333334</ele><time>2026-04-07T12:19:36.79Z</time></trkpt><trkpt lat="38.8795233" lon="16.5283817"><ele>67.0</ele><time>2026-04-07T12:19:37.79Z</time></trkpt><trkpt lat="38.87959" lon="16.52831"><ele>67.66666666666667</ele><time>2026-04-07T12:19:38.789Z</time></trkpt><trkpt lat="38.8796633" lon="16.5282467"><ele>68.33333333333333</ele><time>2026-04-07T12:19:39.79Z</time></trkpt><trkpt lat="38.879755" lon="16.5282017"><ele>69.0</ele><time>2026-04-07T12:19:40.789Z</time></trkpt><trkpt lat="38.8798367" lon="16.5281617"><ele>69.0</ele><time>2026-04-07T12:19:41.789Z</time></trkpt><trkpt lat="38.8799383" lon="16.52814"><ele>69.0</ele><time>2026-04-07T12:19:42.79Z</time></trkpt><trkpt lat="38.880025" lon="16.5281017"><ele>69.0</ele><time>2026-04-07T12:19:43.789Z</time></trkpt><trkpt lat="38.880115" lon="16.5280617"><ele>69.0</ele><time>2026-04-07T12:19:44.789Z</time></trkpt><trkpt lat="38.8802033" lon="16.5280233"><ele>69.0</ele><time>2026-04-07T12:19:45.789Z</time></trkpt><trkpt lat="38.8802867" lon="16.5279783"><ele>69.60000000000001</ele><time>2026-04-07T12:19:46.79Z</time></trkpt><trkpt lat="38.8803817" lon="16.5279417"><ele>70.2</ele><time>2026-04-07T12:19:47.79Z</time></trkpt><trkpt lat="38.8804717" lon="16.5279133"><ele>70.80000000000001</ele><time>2026-04-07T12:19:48.79Z</time></trkpt><trkpt lat="38.8805633" lon="16.5278833"><ele>71.4</ele><time>2026-04-07T12:19:49.789Z</time></trkpt><trkpt lat="38.8806583" lon="16.5278567"><ele>72.0</ele><time>2026-04-07T12:19:50.79Z</time></trkpt><trkpt lat="38.8807517" lon="16.5278267"><ele>72.8</ele><time>2026-04-07T12:19:51.789Z</time></trkpt><trkpt lat="38.8808567" lon="16.5277967"><ele>73.6</ele><time>2026-04-07T12:19:52.789Z</time></trkpt><trkpt lat="38.8809567" lon="16.5277617"><ele>74.39999999999999</ele><time>2026-04-07T12:19:53.789Z</time></trkpt><trkpt lat="38.8810533" lon="16.52772"><ele>75.2</ele><time>2026-04-07T12:19:54.789Z</time></trkpt><trkpt lat="38.8811533" lon="16.5276933"><ele>76.0</ele><time>2026-04-07T12:19:55.789Z</time></trkpt><trkpt lat="38.8812467" lon="16.5276683"><ele>77.19999999999999</ele><time>2026-04-07T12:19:56.789Z</time></trkpt><trkpt lat="38.8813417" lon="16.52764"><ele>78.39999999999999</ele><time>2026-04-07T12:19:57.789Z</time></trkpt><trkpt lat="38.881445" lon="16.5276133"><ele>79.6</ele><time>2026-04-07T12:19:58.789Z</time></trkpt><trkpt lat="38.881545" lon="16.52758"><ele>80.8</ele><time>2026-04-07T12:19:59.789Z</time></trkpt><trkpt lat="38.8816383" lon="16.527555"><ele>82.0</ele><time>2026-04-07T12:20:00.789Z</time></trkpt><trkpt lat="38.8817383" lon="16.527525"><ele>82.66666666666666</ele><time>2026-04-07T12:20:01.79Z</time></trkpt><trkpt lat="38.8818317" lon="16.5274983"><ele>83.33333333333333</ele><time>2026-04-07T12:20:02.789Z</time></trkpt><trkpt lat="38.881915" lon="16.5274783"><ele>84.0</ele><time>2026-04-07T12:20:03.789Z</time></trkpt><trkpt lat="38.881995" lon="16.5274517"><ele>84.66666666666667</ele><time>2026-04-07T12:20:04.789Z</time></trkpt><trkpt lat="38.8820733" lon="16.5274333"><ele>85.33333333333334</ele><time>2026-04-07T12:20:05.79Z</time></trkpt><trkpt lat="38.8821583" lon="16.5274083"><ele>86.0</ele><time>2026-04-07T12:20:06.789Z</time></trkpt><trkpt lat="38.882245" lon="16.52739"><ele>86.0</ele><time>2026-04-07T12:20:07.789Z</time></trkpt><trkpt lat="38.8823267" lon="16.5273667"><ele>86.0</ele><time>2026-04-07T12:20:08.789Z</time></trkpt><trkpt lat="38.882405" lon="16.527345"><ele>86.0</ele><time>2026-04-07T12:20:09.79Z</time></trkpt><trkpt lat="38.8824817" lon="16.5273217"><ele>86.0</ele><time>2026-04-07T12:20:10.79Z</time></trkpt><trkpt lat="38.8825617" lon="16.52729"><ele>86.0</ele><time>2026-04-07T12:20:11.789Z</time></trkpt><trkpt lat="38.8826383" lon="16.5272633"><ele>86.0</ele><time>2026-04-07T12:20:12.789Z</time></trkpt><trkpt lat="38.8827117" lon="16.52724"><ele>87.19999999999999</ele><time>2026-04-07T12:20:13.789Z</time></trkpt><trkpt lat="38.8827883" lon="16.5272183"><ele>88.39999999999999</ele><time>2026-04-07T12:20:14.789Z</time></trkpt><trkpt lat="38.882855" lon="16.5272017"><ele>89.6</ele><time>2026-04-07T12:20:15.789Z</time></trkpt><trkpt lat="38.8829633" lon="16.52722"><ele>90.8</ele><time>2026-04-07T12:20:17.79Z</time></trkpt><trkpt lat="38.8830683" lon="16.5273217"><ele>92.0</ele><time>2026-04-07T12:20:19.79Z</time></trkpt><trkpt lat="38.8831017" lon="16.5274017"><ele>92.0</ele><time>2026-04-07T12:20:20.789Z</time></trkpt><trkpt lat="38.883125" lon="16.5274917"><ele>92.0</ele><time>2026-04-07T12:20:21.789Z</time></trkpt><trkpt lat="38.883155" lon="16.5275883"><ele>92.0</ele><time>2026-04-07T12:20:22.789Z</time></trkpt><trkpt lat="38.8831767" lon="16.5276867"><ele>92.0</ele><time>2026-04-07T12:20:23.789Z</time></trkpt><trkpt lat="38.8831967" lon="16.5277833"><ele>92.0</ele><time>2026-04-07T12:20:24.789Z</time></trkpt><trkpt lat="38.883225" lon="16.5278867"><ele>92.0</ele><time>2026-04-07T12:20:25.789Z</time></trkpt><trkpt lat="38.883255" lon="16.52798"><ele>91.5</ele><time>2026-04-07T12:20:26.789Z</time></trkpt><trkpt lat="38.8832767" lon="16.52808"><ele>91.0</ele><time>2026-04-07T12:20:27.79Z</time></trkpt><trkpt lat="38.8833033" lon="16.52818"><ele>90.5</ele><time>2026-04-07T12:20:28.79Z</time></trkpt><trkpt lat="38.883335" lon="16.5282767"><ele>90.0</ele><time>2026-04-07T12:20:29.789Z</time></trkpt><trkpt lat="38.8833633" lon="16.5283783"><ele>89.5</ele><time>2026-04-07T12:20:30.79Z</time></trkpt><trkpt lat="38.88339" lon="16.5284867"><ele>89.0</ele><time>2026-04-07T12:20:31.79Z</time></trkpt><trkpt lat="38.8834183" lon="16.5286033"><ele>90.0</ele><time>2026-04-07T12:20:32.79Z</time></trkpt><trkpt lat="38.8834433" lon="16.5287217"><ele>91.0</ele><time>2026-04-07T12:20:33.789Z</time></trkpt><trkpt lat="38.883475" lon="16.5288417"><ele>92.0</ele><time>2026-04-07T12:20:34.79Z</time></trkpt><trkpt lat="38.8835133" lon="16.5289583"><ele>93.0</ele><time>2026-04-07T12:20:35.79Z</time></trkpt><trkpt lat="38.8835517" lon="16.5290617"><ele>94.0</ele><time>2026-04-07T12:20:36.789Z</time></trkpt><trkpt lat="38.88359" lon="16.5291683"><ele>94.0</ele><time>2026-04-07T12:20:37.79Z</time></trkpt><trkpt lat="38.8836267" lon="16.5292667"><ele>94.0</ele><time>2026-04-07T12:20:38.789Z</time></trkpt><trkpt lat="38.8836583" lon="16.52936"><ele>94.0</ele><time>2026-04-07T12:20:39.79Z</time></trkpt><trkpt lat="38.8836883" lon="16.529445"><ele>94.0</ele><time>2026-04-07T12:20:40.79Z</time></trkpt><trkpt lat="38.8837233" lon="16.5295417"><ele>94.0</ele><time>2026-04-07T12:20:41.789Z</time></trkpt><trkpt lat="38.8837617" lon="16.5296333"><ele>94.0</ele><time>2026-04-07T12:20:42.79Z</time></trkpt><trkpt lat="38.8838" lon="16.5297283"><ele>93.33333333333333</ele><time>2026-04-07T12:20:43.79Z</time></trkpt><trkpt lat="38.883835" lon="16.5298267"><ele>92.66666666666666</ele><time>2026-04-07T12:20:44.789Z</time></trkpt><trkpt lat="38.8838717" lon="16.52991"><ele>92.0</ele><time>2026-04-07T12:20:45.789Z</time></trkpt><trkpt lat="38.883905" lon="16.5299883"><ele>91.33333333333333</ele><time>2026-04-07T12:20:46.789Z</time></trkpt><trkpt lat="38.8839367" lon="16.53007"><ele>90.66666666666667</ele><time>2026-04-07T12:20:47.789Z</time></trkpt><trkpt lat="38.8839667" lon="16.5301583"><ele>90.0</ele><time>2026-04-07T12:20:48.789Z</time></trkpt><trkpt lat="38.8839883" lon="16.5302667"><ele>90.0</ele><time>2026-04-07T12:20:49.79Z</time></trkpt><trkpt lat="38.8840117" lon="16.5303833"><ele>90.0</ele><time>2026-04-07T12:20:50.79Z</time></trkpt><trkpt lat="38.8840333" lon="16.53051"><ele>90.0</ele><time>2026-04-07T12:20:51.789Z</time></trkpt><trkpt lat="38.88406" lon="16.53064"><ele>90.0</ele><time>2026-04-07T12:20:52.789Z</time></trkpt><trkpt lat="38.88408" lon="16.530775"><ele>90.0</ele><time>2026-04-07T12:20:53.789Z</time></trkpt><trkpt lat="38.8841017" lon="16.5309083"><ele>89.2</ele><time>2026-04-07T12:20:54.79Z</time></trkpt><trkpt lat="38.8841283" lon="16.5310433"><ele>88.4</ele><time>2026-04-07T12:20:55.789Z</time></trkpt><trkpt lat="38.8841533" lon="16.5311717"><ele>87.6</ele><time>2026-04-07T12:20:56.789Z</time></trkpt><trkpt lat="38.884175" lon="16.5313033"><ele>86.8</ele><time>2026-04-07T12:20:57.789Z</time></trkpt><trkpt lat="38.884195" lon="16.5314267"><ele>86.0</ele><time>2026-04-07T12:20:58.789Z</time></trkpt><trkpt lat="38.8842167" lon="16.5315533"><ele>86.0</ele><time>2026-04-07T12:20:59.789Z</time></trkpt><trkpt lat="38.8842317" lon="16.5316783"><ele>86.0</ele><time>2026-04-07T12:21:00.789Z</time></trkpt><trkpt lat="38.8842483" lon="16.5318067"><ele>86.0</ele><time>2026-04-07T12:21:01.789Z</time></trkpt><trkpt lat="38.8842683" lon="16.531935"><ele>86.0</ele><time>2026-04-07T12:21:02.789Z</time></trkpt><trkpt lat="38.8842917" lon="16.53208"><ele>86.0</ele><time>2026-04-07T12:21:03.789Z</time></trkpt><trkpt lat="38.884315" lon="16.5322283"><ele>86.0</ele><time>2026-04-07T12:21:04.789Z</time></trkpt><trkpt lat="38.88434" lon="16.5323867"><ele>86.0</ele><time>2026-04-07T12:21:05.789Z</time></trkpt><trkpt lat="38.884365" lon="16.532545"><ele>86.0</ele><time>2026-04-07T12:21:06.789Z</time></trkpt><trkpt lat="38.8843883" lon="16.532705"><ele>86.0</ele><time>2026-04-07T12:21:07.789Z</time></trkpt><trkpt lat="38.8844067" lon="16.532875"><ele>87.0</ele><time>2026-04-07T12:21:08.79Z</time></trkpt><trkpt lat="38.8844267" lon="16.5330333"><ele>88.0</ele><time>2026-04-07T12:21:09.789Z</time></trkpt><trkpt lat="38.8844533" lon="16.5332"><ele>89.0</ele><time>2026-04-07T12:21:10.789Z</time></trkpt><trkpt lat="38.8844833" lon="16.533365"><ele>90.0</ele><time>2026-04-07T12:21:11.789Z</time></trkpt><trkpt lat="38.8845117" lon="16.5335167"><ele>90.0</ele><time>2026-04-07T12:21:12.79Z</time></trkpt><trkpt lat="38.884535" lon="16.5336617"><ele>90.0</ele><time>2026-04-07T12:21:13.789Z</time></trkpt><trkpt lat="38.88456" lon="16.5338033"><ele>90.0</ele><time>2026-04-07T12:21:14.789Z</time></trkpt><trkpt lat="38.8845983" lon="16.5339317"><ele>90.0</ele><time>2026-04-07T12:21:15.789Z</time></trkpt><trkpt lat="38.8846517" lon="16.5340533"><ele>90.0</ele><time>2026-04-07T12:21:16.789Z</time></trkpt><trkpt lat="38.88471" lon="16.5341683"><ele>90.75</ele><time>2026-04-07T12:21:17.789Z</time></trkpt><trkpt lat="38.88478" lon="16.53428"><ele>91.5</ele><time>2026-04-07T12:21:18.789Z</time></trkpt><trkpt lat="38.8848567" lon="16.5343917"><ele>92.25</ele><time>2026-04-07T12:21:19.789Z</time></trkpt><trkpt lat="38.88494" lon="16.5345017"><ele>93.0</ele><time>2026-04-07T12:21:20.789Z</time></trkpt><trkpt lat="38.885025" lon="16.53462"><ele>94.75</ele><time>2026-04-07T12:21:21.79Z</time></trkpt><trkpt lat="38.8851167" lon="16.5347333"><ele>96.5</ele><time>2026-04-07T12:21:22.789Z</time></trkpt><trkpt lat="38.885215" lon="16.5348417"><ele>98.25</ele><time>2026-04-07T12:21:23.789Z</time></trkpt><trkpt lat="38.885315" lon="16.5349483"><ele>100.0</ele><time>2026-04-07T12:21:24.789Z</time></trkpt><trkpt lat="38.8854233" lon="16.535035"><ele>100.0</ele><time>2026-04-07T12:21:25.789Z</time></trkpt><trkpt lat="38.8855433" lon="16.53509"><ele>100.0</ele><time>2026-04-07T12:21:26.789Z</time></trkpt><trkpt lat="38.8856667" lon="16.535125"><ele>100.0</ele><time>2026-04-07T12:21:27.789Z</time></trkpt><trkpt lat="38.8857917" lon="16.53515"><ele>100.0</ele><time>2026-04-07T12:21:28.789Z</time></trkpt><trkpt lat="38.8859217" lon="16.5351667"><ele>101.5</ele><time>2026-04-07T12:21:29.789Z</time></trkpt><trkpt lat="38.88606" lon="16.5351583"><ele>103.0</ele><time>2026-04-07T12:21:30.789Z</time></trkpt><trkpt lat="38.8861917" lon="16.5351467"><ele>104.5</ele><time>2026-04-07T12:21:31.789Z</time></trkpt><trkpt lat="38.8863217" lon="16.5351183"><ele>106.0</ele><time>2026-04-07T12:21:32.789Z</time></trkpt><trkpt lat="38.886455" lon="16.535085"><ele>106.0</ele><time>2026-04-07T12:21:33.789Z</time></trkpt><trkpt lat="38.886575" lon="16.5350633"><ele>106.0</ele><time>2026-04-07T12:21:34.789Z</time></trkpt><trkpt lat="38.8866917" lon="16.535045"><ele>106.0</ele><time>2026-04-07T12:21:35.789Z</time></trkpt><trkpt lat="38.8867933" lon="16.53503"><ele>106.0</ele><time>2026-04-07T12:21:36.789Z</time></trkpt><trkpt lat="38.8868767" lon="16.5350417"><ele>106.0</ele><time>2026-04-07T12:21:37.789Z</time></trkpt><trkpt lat="38.8869417" lon="16.5350833"><ele>107.0</ele><time>2026-04-07T12:21:38.789Z</time></trkpt><trkpt lat="38.8870067" lon="16.5351417"><ele>108.0</ele><time>2026-04-07T12:21:39.789Z</time></trkpt><trkpt lat="38.88704" lon="16.53523"><ele>109.0</ele><time>2026-04-07T12:21:40.789Z</time></trkpt><trkpt lat="38.88707" lon="16.5353383"><ele>110.0</ele><time>2026-04-07T12:21:41.789Z</time></trkpt><trkpt lat="38.8870983" lon="16.5354733"><ele>111.0</ele><time>2026-04-07T12:21:42.79Z</time></trkpt><trkpt lat="38.8871333" lon="16.5356133"><ele>111.0</ele><time>2026-04-07T12:21:43.789Z</time></trkpt><trkpt lat="38.8871867" lon="16.5357567"><ele>111.0</ele><time>2026-04-07T12:21:44.789Z</time></trkpt><trkpt lat="38.8872383" lon="16.5358833"><ele>111.0</ele><time>2026-04-07T12:21:45.789Z</time></trkpt><trkpt lat="38.8872933" lon="16.536005"><ele>111.0</ele><time>2026-04-07T12:21:46.789Z</time></trkpt><trkpt lat="38.8873417" lon="16.53612"><ele>111.0</ele><time>2026-04-07T12:21:47.789Z</time></trkpt><trkpt lat="38.8873983" lon="16.5362133"><ele>111.0</ele><time>2026-04-07T12:21:48.789Z</time></trkpt><trkpt lat="38.887465" lon="16.5362867"><ele>111.0</ele><time>2026-04-07T12:21:49.789Z</time></trkpt><trkpt lat="38.8875417" lon="16.53633"><ele>111.0</ele><time>2026-04-07T12:21:50.789Z</time></trkpt><trkpt lat="38.8876267" lon="16.5363533"><ele>111.0</ele><time>2026-04-07T12:21:51.789Z</time></trkpt><trkpt lat="38.88773" lon="16.536345"><ele>111.0</ele><time>2026-04-07T12:21:52.789Z</time></trkpt><trkpt lat="38.8878383" lon="16.5363317"><ele>110.4</ele><time>2026-04-07T12:21:53.789Z</time></trkpt><trkpt lat="38.887945" lon="16.53632"><ele>109.8</ele><time>2026-04-07T12:21:54.789Z</time></trkpt><trkpt lat="38.8880533" lon="16.53631"><ele>109.20000000000002</ele><time>2026-04-07T12:21:55.789Z</time></trkpt><trkpt lat="38.8881533" lon="16.5362983"><ele>108.60000000000001</ele><time>2026-04-07T12:21:56.789Z</time></trkpt><trkpt lat="38.8882483" lon="16.5362983"><ele>108.0</ele><time>2026-04-07T12:21:57.789Z</time></trkpt><trkpt lat="38.8883467" lon="16.5363017"><ele>106.4</ele><time>2026-04-07T12:21:58.788Z</time></trkpt><trkpt lat="38.8884483" lon="16.5362983"><ele>104.80000000000001</ele><time>2026-04-07T12:21:59.788Z</time></trkpt><trkpt lat="38.8885467" lon="16.5363"><ele>103.2</ele><time>2026-04-07T12:22:00.788Z</time></trkpt><trkpt lat="38.8886483" lon="16.536305"><ele>101.6</ele><time>2026-04-07T12:22:01.788Z</time></trkpt><trkpt lat="38.888745" lon="16.5363067"><ele>100.0</ele><time>2026-04-07T12:22:02.788Z</time></trkpt><trkpt lat="38.8888483" lon="16.5362983"><ele>100.0</ele><time>2026-04-07T12:22:03.788Z</time></trkpt><trkpt lat="38.888945" lon="16.5363167"><ele>100.0</ele><time>2026-04-07T12:22:04.789Z</time></trkpt><trkpt lat="38.889035" lon="16.5363433"><ele>100.0</ele><time>2026-04-07T12:22:05.788Z</time></trkpt><trkpt lat="38.8891283" lon="16.5363717"><ele>100.0</ele><time>2026-04-07T12:22:06.788Z</time></trkpt><trkpt lat="38.8892117" lon="16.536405"><ele>100.0</ele><time>2026-04-07T12:22:07.789Z</time></trkpt><trkpt lat="38.88929" lon="16.536435"><ele>99.33333333333334</ele><time>2026-04-07T12:22:08.788Z</time></trkpt><trkpt lat="38.8893733" lon="16.5364717"><ele>98.66666666666667</ele><time>2026-04-07T12:22:09.788Z</time></trkpt><trkpt lat="38.8894533" lon="16.5365017"><ele>98.0</ele><time>2026-04-07T12:22:10.789Z</time></trkpt><trkpt lat="38.8895283" lon="16.5365283"><ele>97.33333333333334</ele><time>2026-04-07T12:22:11.789Z</time></trkpt><trkpt lat="38.8896017" lon="16.5365533"><ele>96.66666666666667</ele><time>2026-04-07T12:22:12.788Z</time></trkpt><trkpt lat="38.8896717" lon="16.536565"><ele>96.0</ele><time>2026-04-07T12:22:13.788Z</time></trkpt><trkpt lat="38.8897367" lon="16.5365733"><ele>96.0</ele><time>2026-04-07T12:22:14.788Z</time></trkpt><trkpt lat="38.8898017" lon="16.536575"><ele>96.0</ele><time>2026-04-07T12:22:15.788Z</time></trkpt><trkpt lat="38.8898667" lon="16.5365767"><ele>96.0</ele><time>2026-04-07T12:22:16.789Z</time></trkpt><trkpt lat="38.8899933" lon="16.5365783"><ele>96.0</ele><time>2026-04-07T12:22:18.789Z</time></trkpt><trkpt lat="38.8900733" lon="16.5365667"><ele>96.0</ele><time>2026-04-07T12:22:19.788Z</time></trkpt><trkpt lat="38.8901583" lon="16.5365533"><ele>96.0</ele><time>2026-04-07T12:22:20.789Z</time></trkpt><trkpt lat="38.8902417" lon="16.536535"><ele>95.4</ele><time>2026-04-07T12:22:21.789Z</time></trkpt><trkpt lat="38.890335" lon="16.5365167"><ele>94.8</ele><time>2026-04-07T12:22:22.788Z</time></trkpt><trkpt lat="38.8904367" lon="16.536505"><ele>94.2</ele><time>2026-04-07T12:22:23.788Z</time></trkpt><trkpt lat="38.8905333" lon="16.536495"><ele>93.60000000000001</ele><time>2026-04-07T12:22:24.788Z</time></trkpt><trkpt lat="38.89063" lon="16.53648"><ele>93.0</ele><time>2026-04-07T12:22:25.789Z</time></trkpt><trkpt lat="38.8907233" lon="16.5364717"><ele>93.0</ele><time>2026-04-07T12:22:26.788Z</time></trkpt><trkpt lat="38.89081" lon="16.53646"><ele>93.0</ele><time>2026-04-07T12:22:27.789Z</time></trkpt><trkpt lat="38.8908983" lon="16.5364367"><ele>93.0</ele><time>2026-04-07T12:22:28.788Z</time></trkpt><trkpt lat="38.890995" lon="16.5364183"><ele>93.0</ele><time>2026-04-07T12:22:29.788Z</time></trkpt><trkpt lat="38.8910883" lon="16.5363817"><ele>93.0</ele><time>2026-04-07T12:22:30.789Z</time></trkpt><trkpt lat="38.8911783" lon="16.5363483"><ele>92.5</ele><time>2026-04-07T12:22:31.788Z</time></trkpt><trkpt lat="38.891265" lon="16.5363217"><ele>92.0</ele><time>2026-04-07T12:22:32.788Z</time></trkpt><trkpt lat="38.8913367" lon="16.5362733"><ele>91.5</ele><time>2026-04-07T12:22:33.788Z</time></trkpt><trkpt lat="38.89141" lon="16.5362417"><ele>91.0</ele><time>2026-04-07T12:22:34.788Z</time></trkpt><trkpt lat="38.8914817" lon="16.536195"><ele>90.5</ele><time>2026-04-07T12:22:35.789Z</time></trkpt><trkpt lat="38.89155" lon="16.5361683"><ele>90.0</ele><time>2026-04-07T12:22:36.788Z</time></trkpt><trkpt lat="38.8916233" lon="16.5361717"><ele>90.0</ele><time>2026-04-07T12:22:37.788Z</time></trkpt><trkpt lat="38.891705" lon="16.5361967"><ele>90.0</ele><time>2026-04-07T12:22:38.788Z</time></trkpt><trkpt lat="38.8917917" lon="16.5362467"><ele>90.0</ele><time>2026-04-07T12:22:39.788Z</time></trkpt><trkpt lat="38.891875" lon="16.5363017"><ele>90.0</ele><time>2026-04-07T12:22:40.788Z</time></trkpt><trkpt lat="38.8919617" lon="16.536355"><ele>90.0</ele><time>2026-04-07T12:22:41.788Z</time></trkpt><trkpt lat="38.892045" lon="16.536405"><ele>88.33333333333333</ele><time>2026-04-07T12:22:42.788Z</time></trkpt><trkpt lat="38.8921233" lon="16.53644"><ele>86.66666666666667</ele><time>2026-04-07T12:22:43.788Z</time></trkpt><trkpt lat="38.892195" lon="16.53648"><ele>85.0</ele><time>2026-04-07T12:22:44.788Z</time></trkpt><trkpt lat="38.89226" lon="16.5364983"><ele>83.33333333333334</ele><time>2026-04-07T12:22:45.788Z</time></trkpt><trkpt lat="38.8923333" lon="16.5364883"><ele>81.66666666666667</ele><time>2026-04-07T12:22:46.789Z</time></trkpt><trkpt lat="38.8924167" lon="16.5364517"><ele>80.0</ele><time>2026-04-07T12:22:47.789Z</time></trkpt><trkpt lat="38.8924983" lon="16.536385"><ele>80.0</ele><time>2026-04-07T12:22:48.788Z</time></trkpt><trkpt lat="38.8925717" lon="16.5362867"><ele>80.0</ele><time>2026-04-07T12:22:49.789Z</time></trkpt><trkpt lat="38.89264" lon="16.536175"><ele>80.0</ele><time>2026-04-07T12:22:50.789Z</time></trkpt><trkpt lat="38.8927133" lon="16.5360617"><ele>80.0</ele><time>2026-04-07T12:22:51.788Z</time></trkpt><trkpt lat="38.892785" lon="16.5359383"><ele>78.25</ele><time>2026-04-07T12:22:52.788Z</time></trkpt><trkpt lat="38.892855" lon="16.5358217"><ele>76.5</ele><time>2026-04-07T12:22:53.788Z</time></trkpt><trkpt lat="38.8929333" lon="16.5356967"><ele>74.75</ele><time>2026-04-07T12:22:54.789Z</time></trkpt><trkpt lat="38.8930067" lon="16.5355633"><ele>73.0</ele><time>2026-04-07T12:22:55.788Z</time></trkpt><trkpt lat="38.8930733" lon="16.53542"><ele>73.6</ele><time>2026-04-07T12:22:56.788Z</time></trkpt><trkpt lat="38.89312" lon="16.5352733"><ele>74.19999999999999</ele><time>2026-04-07T12:22:57.789Z</time></trkpt><trkpt lat="38.8931567" lon="16.5351367"><ele>74.8</ele><time>2026-04-07T12:22:58.789Z</time></trkpt><trkpt lat="38.8931967" lon="16.5350183"><ele>75.39999999999999</ele><time>2026-04-07T12:22:59.789Z</time></trkpt><trkpt lat="38.8932233" lon="16.534915"><ele>76.0</ele><time>2026-04-07T12:23:00.788Z</time></trkpt><trkpt lat="38.89326" lon="16.5348267"><ele>76.0</ele><time>2026-04-07T12:23:01.789Z</time></trkpt><trkpt lat="38.893305" lon="16.534755"><ele>76.0</ele><time>2026-04-07T12:23:02.789Z</time></trkpt><trkpt lat="38.8933583" lon="16.5346767"><ele>76.0</ele><time>2026-04-07T12:23:03.789Z</time></trkpt><trkpt lat="38.8934233" lon="16.5346133"><ele>76.0</ele><time>2026-04-07T12:23:04.788Z</time></trkpt><trkpt lat="38.8935117" lon="16.5345683"><ele>76.0</ele><time>2026-04-07T12:23:05.788Z</time></trkpt><trkpt lat="38.8936033" lon="16.5345583"><ele>76.0</ele><time>2026-04-07T12:23:06.789Z</time></trkpt><trkpt lat="38.893705" lon="16.5345733"><ele>74.75</ele><time>2026-04-07T12:23:07.789Z</time></trkpt><trkpt lat="38.8938167" lon="16.5346183"><ele>73.5</ele><time>2026-04-07T12:23:08.788Z</time></trkpt><trkpt lat="38.8939333" lon="16.534665"><ele>72.25</ele><time>2026-04-07T12:23:09.789Z</time></trkpt><trkpt lat="38.89405" lon="16.5347083"><ele>71.0</ele><time>2026-04-07T12:23:10.789Z</time></trkpt><trkpt lat="38.89416" lon="16.5347483"><ele>71.0</ele><time>2026-04-07T12:23:11.788Z</time></trkpt><trkpt lat="38.89427" lon="16.5347883"><ele>71.0</ele><time>2026-04-07T12:23:12.788Z</time></trkpt><trkpt lat="38.8943767" lon="16.5348283"><ele>71.0</ele><time>2026-04-07T12:23:13.788Z</time></trkpt><trkpt lat="38.89449" lon="16.534865"><ele>71.0</ele><time>2026-04-07T12:23:14.788Z</time></trkpt><trkpt lat="38.8946" lon="16.534895"><ele>71.0</ele><time>2026-04-07T12:23:15.788Z</time></trkpt><trkpt lat="38.8947067" lon="16.5349333"><ele>71.0</ele><time>2026-04-07T12:23:16.788Z</time></trkpt><trkpt lat="38.894815" lon="16.534965"><ele>71.0</ele><time>2026-04-07T12:23:17.788Z</time></trkpt><trkpt lat="38.8949267" lon="16.5350067"><ele>71.0</ele><time>2026-04-07T12:23:18.789Z</time></trkpt><trkpt lat="38.8950433" lon="16.5350467"><ele>71.5</ele><time>2026-04-07T12:23:19.788Z</time></trkpt><trkpt lat="38.895155" lon="16.5350867"><ele>72.0</ele><time>2026-04-07T12:23:20.788Z</time></trkpt><trkpt lat="38.8952717" lon="16.53513"><ele>72.5</ele><time>2026-04-07T12:23:21.789Z</time></trkpt><trkpt lat="38.8953933" lon="16.5351683"><ele>73.0</ele><time>2026-04-07T12:23:22.789Z</time></trkpt><trkpt lat="38.8955117" lon="16.535195"><ele>73.0</ele><time>2026-04-07T12:23:23.788Z</time></trkpt><trkpt lat="38.8956317" lon="16.535225"><ele>73.0</ele><time>2026-04-07T12:23:24.789Z</time></trkpt><trkpt lat="38.8957467" lon="16.5352467"><ele>73.0</ele><time>2026-04-07T12:23:25.789Z</time></trkpt><trkpt lat="38.89586" lon="16.53527"><ele>73.0</ele><time>2026-04-07T12:23:26.788Z</time></trkpt><trkpt lat="38.8959667" lon="16.5352967"><ele>73.2</ele><time>2026-04-07T12:23:27.788Z</time></trkpt><trkpt lat="38.8960683" lon="16.53531"><ele>73.4</ele><time>2026-04-07T12:23:28.788Z</time></trkpt><trkpt lat="38.89617" lon="16.535325"><ele>73.60000000000001</ele><time>2026-04-07T12:23:29.788Z</time></trkpt><trkpt lat="38.8962633" lon="16.5353383"><ele>73.8</ele><time>2026-04-07T12:23:30.788Z</time></trkpt><trkpt lat="38.896355" lon="16.5353633"><ele>74.0</ele><time>2026-04-07T12:23:31.788Z</time></trkpt><trkpt lat="38.896435" lon="16.5353867"><ele>74.42857142857143</ele><time>2026-04-07T12:23:32.789Z</time></trkpt><trkpt lat="38.8965083" lon="16.5353983"><ele>74.85714285714286</ele><time>2026-04-07T12:23:33.789Z</time></trkpt><trkpt lat="38.896615" lon="16.5354467"><ele>75.28571428571428</ele><time>2026-04-07T12:23:35.788Z</time></trkpt><trkpt lat="38.8966767" lon="16.5354683"><ele>75.71428571428572</ele><time>2026-04-07T12:23:36.788Z</time></trkpt><trkpt lat="38.8967417" lon="16.5354817"><ele>76.14285714285714</ele><time>2026-04-07T12:23:37.788Z</time></trkpt><trkpt lat="38.8968083" lon="16.5354833"><ele>76.57142857142857</ele><time>2026-04-07T12:23:38.788Z</time></trkpt><trkpt lat="38.8968733" lon="16.5354833"><ele>77.0</ele><time>2026-04-07T12:23:39.789Z</time></trkpt><trkpt lat="38.89698" lon="16.5354917"><ele>77.5</ele><time>2026-04-07T12:23:41.788Z</time></trkpt><trkpt lat="38.897055" lon="16.535495"><ele>78.0</ele><time>2026-04-07T12:23:43.788Z</time></trkpt><trkpt lat="38.8971317" lon="16.5355183"><ele>78.5</ele><time>2026-04-07T12:23:47.788Z</time></trkpt><trkpt lat="38.8971483" lon="16.535675"><ele>79.0</ele><time>2026-04-07T12:23:56.788Z</time></trkpt><trkpt lat="38.8971983" lon="16.53574"><ele>79.5</ele><time>2026-04-07T12:23:57.788Z</time></trkpt><trkpt lat="38.8972717" lon="16.5357717"><ele>80.0</ele><time>2026-04-07T12:23:58.788Z</time></trkpt><trkpt lat="38.8973517" lon="16.5357917"><ele>80.0</ele><time>2026-04-07T12:23:59.789Z</time></trkpt><trkpt lat="38.8974333" lon="16.535815"><ele>80.0</ele><time>2026-04-07T12:24:00.789Z</time></trkpt><trkpt lat="38.8975133" lon="16.5358283"><ele>80.0</ele><time>2026-04-07T12:24:01.788Z</time></trkpt><trkpt lat="38.8975883" lon="16.5358433"><ele>80.0</ele><time>2026-04-07T12:24:02.788Z</time></trkpt><trkpt lat="38.8976533" lon="16.5358517"><ele>80.0</ele><time>2026-04-07T12:24:03.788Z</time></trkpt><trkpt lat="38.897735" lon="16.535835"><ele>80.0</ele><time>2026-04-07T12:24:06.788Z</time></trkpt><trkpt lat="38.8977967" lon="16.5357833"><ele>81.0</ele><time>2026-04-07T12:24:09.788Z</time></trkpt><trkpt lat="38.8978417" lon="16.5357267"><ele>82.0</ele><time>2026-04-07T12:24:11.789Z</time></trkpt><trkpt lat="38.897895" lon="16.5356567"><ele>83.0</ele><time>2026-04-07T12:24:14.789Z</time></trkpt><trkpt lat="38.897955" lon="16.5356033"><ele>84.0</ele><time>2026-04-07T12:24:16.788Z</time></trkpt><trkpt lat="38.89802" lon="16.5355617"><ele>85.0</ele><time>2026-04-07T12:24:18.789Z</time></trkpt><trkpt lat="38.8980783" lon="16.5355017"><ele>86.0</ele><time>2026-04-07T12:24:21.788Z</time></trkpt><trkpt lat="38.8981383" lon="16.5354367"><ele>87.0</ele><time>2026-04-07T12:25:01.788Z</time></trkpt><trkpt lat="38.89819" lon="16.5353883"><ele>87.0</ele><time>2026-04-07T12:25:02.788Z</time></trkpt><trkpt lat="38.8982533" lon="16.535335"><ele>87.0</ele><time>2026-04-07T12:25:03.788Z</time></trkpt><trkpt lat="38.8983167" lon="16.5352633"><ele>87.0</ele><time>2026-04-07T12:25:04.789Z</time></trkpt><trkpt lat="38.8983883" lon="16.5351933"><ele>87.0</ele><time>2026-04-07T12:25:05.788Z</time></trkpt><trkpt lat="38.8984633" lon="16.5351217"><ele>87.0</ele><time>2026-04-07T12:25:06.788Z</time></trkpt><trkpt lat="38.89854" lon="16.535055"><ele>87.0</ele><time>2026-04-07T12:25:07.789Z</time></trkpt><trkpt lat="38.8986133" lon="16.534965"><ele>87.8</ele><time>2026-04-07T12:25:08.788Z</time></trkpt><trkpt lat="38.8986767" lon="16.5348617"><ele>88.6</ele><time>2026-04-07T12:25:09.789Z</time></trkpt><trkpt lat="38.8987267" lon="16.5347467"><ele>89.39999999999999</ele><time>2026-04-07T12:25:10.788Z</time></trkpt><trkpt lat="38.898775" lon="16.5346233"><ele>90.19999999999999</ele><time>2026-04-07T12:25:11.789Z</time></trkpt><trkpt lat="38.89883" lon="16.5345017"><ele>91.0</ele><time>2026-04-07T12:25:12.788Z</time></trkpt><trkpt lat="38.898885" lon="16.5343783"><ele>91.75</ele><time>2026-04-07T12:25:13.789Z</time></trkpt><trkpt lat="38.89894" lon="16.534255"><ele>92.5</ele><time>2026-04-07T12:25:14.788Z</time></trkpt><trkpt lat="38.899005" lon="16.5341267"><ele>93.25</ele><time>2026-04-07T12:25:15.789Z</time></trkpt><trkpt lat="38.8990583" lon="16.5339983"><ele>94.0</ele><time>2026-04-07T12:25:16.788Z</time></trkpt><trkpt lat="38.89911" lon="16.5338733"><ele>94.0</ele><time>2026-04-07T12:25:17.788Z</time></trkpt><trkpt lat="38.899155" lon="16.5337433"><ele>94.0</ele><time>2026-04-07T12:25:18.788Z</time></trkpt><trkpt lat="38.8992" lon="16.533615"><ele>94.0</ele><time>2026-04-07T12:25:19.788Z</time></trkpt><trkpt lat="38.89924" lon="16.5334867"><ele>94.0</ele><time>2026-04-07T12:25:20.789Z</time></trkpt><trkpt lat="38.8992833" lon="16.53337"><ele>94.0</ele><time>2026-04-07T12:25:21.789Z</time></trkpt><trkpt lat="38.8993167" lon="16.53326"><ele>94.83333333333333</ele><time>2026-04-07T12:25:22.788Z</time></trkpt><trkpt lat="38.8993667" lon="16.5331783"><ele>95.66666666666666</ele><time>2026-04-07T12:25:23.788Z</time></trkpt><trkpt lat="38.899415" lon="16.5331033"><ele>96.5</ele><time>2026-04-07T12:25:24.788Z</time></trkpt><trkpt lat="38.8994733" lon="16.5330233"><ele>97.33333333333333</ele><time>2026-04-07T12:25:25.789Z</time></trkpt><trkpt lat="38.8995567" lon="16.5329683"><ele>98.16666666666667</ele><time>2026-04-07T12:25:26.788Z</time></trkpt><trkpt lat="38.8996517" lon="16.5329233"><ele>99.0</ele><time>2026-04-07T12:25:27.788Z</time></trkpt><trkpt lat="38.89975" lon="16.5328817"><ele>99.0</ele><time>2026-04-07T12:25:28.789Z</time></trkpt><trkpt lat="38.8998533" lon="16.5328483"><ele>99.0</ele><time>2026-04-07T12:25:29.788Z</time></trkpt><trkpt lat="38.8999517" lon="16.532815"><ele>99.0</ele><time>2026-04-07T12:25:30.788Z</time></trkpt><trkpt lat="38.9000483" lon="16.5327783"><ele>99.0</ele><time>2026-04-07T12:25:31.789Z</time></trkpt><trkpt lat="38.90015" lon="16.5327483"><ele>99.0</ele><time>2026-04-07T12:25:32.788Z</time></trkpt><trkpt lat="38.9002417" lon="16.5327283"><ele>100.83333333333333</ele><time>2026-04-07T12:25:33.788Z</time></trkpt><trkpt lat="38.9003233" lon="16.532755"><ele>102.66666666666666</ele><time>2026-04-07T12:25:34.788Z</time></trkpt><trkpt lat="38.90039" lon="16.53282"><ele>104.5</ele><time>2026-04-07T12:25:35.788Z</time></trkpt><trkpt lat="38.9004167" lon="16.53291"><ele>106.33333333333333</ele><time>2026-04-07T12:25:36.789Z</time></trkpt><trkpt lat="38.90042" lon="16.533015"><ele>108.16666666666666</ele><time>2026-04-07T12:25:37.789Z</time></trkpt><trkpt lat="38.9003783" lon="16.5331217"><ele>110.0</ele><time>2026-04-07T12:25:38.788Z</time></trkpt><trkpt lat="38.9003083" lon="16.53323"><ele>109.0</ele><time>2026-04-07T12:25:39.788Z</time></trkpt><trkpt lat="38.9002383" lon="16.5333433"><ele>108.0</ele><time>2026-04-07T12:25:40.788Z</time></trkpt><trkpt lat="38.9001717" lon="16.5334567"><ele>107.0</ele><time>2026-04-07T12:25:41.788Z</time></trkpt><trkpt lat="38.90012" lon="16.5335567"><ele>106.0</ele><time>2026-04-07T12:25:42.789Z</time></trkpt><trkpt lat="38.90008" lon="16.5336717"><ele>105.0</ele><time>2026-04-07T12:25:43.788Z</time></trkpt><trkpt lat="38.90006" lon="16.533765"><ele>105.0</ele><time>2026-04-07T12:25:44.788Z</time></trkpt><trkpt lat="38.90005" lon="16.533845"><ele>105.0</ele><time>2026-04-07T12:25:45.788Z</time></trkpt><trkpt lat="38.90006" lon="16.5339883"><ele>105.0</ele><time>2026-04-07T12:25:47.789Z</time></trkpt><trkpt lat="38.9000983" lon="16.5340567"><ele>105.0</ele><time>2026-04-07T12:25:48.788Z</time></trkpt><trkpt lat="38.9001567" lon="16.5341167"><ele>105.0</ele><time>2026-04-07T12:25:49.789Z</time></trkpt><trkpt lat="38.90024" lon="16.534175"><ele>105.0</ele><time>2026-04-07T12:25:50.788Z</time></trkpt><trkpt lat="38.900335" lon="16.534225"><ele>108.25</ele><time>2026-04-07T12:25:51.789Z</time></trkpt><trkpt lat="38.900445" lon="16.5342683"><ele>111.5</ele><time>2026-04-07T12:25:52.788Z</time></trkpt><trkpt lat="38.9005533" lon="16.5343167"><ele>114.75</ele><time>2026-04-07T12:25:53.788Z</time></trkpt><trkpt lat="38.9006667" lon="16.5343683"><ele>118.0</ele><time>2026-04-07T12:25:54.788Z</time></trkpt><trkpt lat="38.9007783" lon="16.5344183"><ele>118.0</ele><time>2026-04-07T12:25:55.788Z</time></trkpt><trkpt lat="38.9008867" lon="16.534455"><ele>118.00000000000001</ele><time>2026-04-07T12:25:56.789Z</time></trkpt><trkpt lat="38.9009867" lon="16.5344883"><ele>118.00000000000001</ele><time>2026-04-07T12:25:57.789Z</time></trkpt><trkpt lat="38.901085" lon="16.5344967"><ele>118.0</ele><time>2026-04-07T12:25:58.788Z</time></trkpt><trkpt lat="38.9011817" lon="16.5344767"><ele>118.0</ele><time>2026-04-07T12:25:59.788Z</time></trkpt><trkpt lat="38.901265" lon="16.53441"><ele>118.2</ele><time>2026-04-07T12:26:00.788Z</time></trkpt><trkpt lat="38.9013267" lon="16.5343167"><ele>118.4</ele><time>2026-04-07T12:26:01.789Z</time></trkpt><trkpt lat="38.901365" lon="16.534205"><ele>118.60000000000001</ele><time>2026-04-07T12:26:02.788Z</time></trkpt><trkpt lat="38.90139" lon="16.53409"><ele>118.80000000000001</ele><time>2026-04-07T12:26:03.788Z</time></trkpt><trkpt lat="38.901395" lon="16.533975"><ele>119.0</ele><time>2026-04-07T12:26:04.788Z</time></trkpt><trkpt lat="38.9013817" lon="16.5338733"><ele>119.0</ele><time>2026-04-07T12:26:05.788Z</time></trkpt><trkpt lat="38.9013633" lon="16.5337867"><ele>119.0</ele><time>2026-04-07T12:26:06.789Z</time></trkpt><trkpt lat="38.9013567" lon="16.5336317"><ele>119.0</ele><time>2026-04-07T12:26:08.789Z</time></trkpt><trkpt lat="38.9014033" lon="16.5334833"><ele>119.0</ele><time>2026-04-07T12:26:10.788Z</time></trkpt><trkpt lat="38.9014567" lon="16.5334283"><ele>119.0</ele><time>2026-04-07T12:26:11.788Z</time></trkpt><trkpt lat="38.9015167" lon="16.53337"><ele>121.16666666666666</ele><time>2026-04-07T12:26:12.788Z</time></trkpt><trkpt lat="38.901575" lon="16.5333033"><ele>123.33333333333333</ele><time>2026-04-07T12:26:13.789Z</time></trkpt><trkpt lat="38.9016367" lon="16.5332383"><ele>125.5</ele><time>2026-04-07T12:26:14.788Z</time></trkpt><trkpt lat="38.9017033" lon="16.5331767"><ele>127.66666666666666</ele><time>2026-04-07T12:26:15.788Z</time></trkpt><trkpt lat="38.9017733" lon="16.5331183"><ele>129.83333333333334</ele><time>2026-04-07T12:26:16.789Z</time></trkpt><trkpt lat="38.90184" lon="16.53306"><ele>132.0</ele><time>2026-04-07T12:26:17.789Z</time></trkpt><trkpt lat="38.9019033" lon="16.5329983"><ele>135.16666666666666</ele><time>2026-04-07T12:26:18.789Z</time></trkpt><trkpt lat="38.9019683" lon="16.5329433"><ele>138.33333333333334</ele><time>2026-04-07T12:26:19.788Z</time></trkpt><trkpt lat="38.9020367" lon="16.532895"><ele>141.5</ele><time>2026-04-07T12:26:20.789Z</time></trkpt><trkpt lat="38.9021033" lon="16.5328617"><ele>144.66666666666669</ele><time>2026-04-07T12:26:21.789Z</time></trkpt><trkpt lat="38.9022" lon="16.5327817"><ele>147.83333333333334</ele><time>2026-04-07T12:26:23.789Z</time></trkpt><trkpt lat="38.9022767" lon="16.5327417"><ele>151.0</ele><time>2026-04-07T12:26:35.789Z</time></trkpt><trkpt lat="38.9023633" lon="16.532695"><ele>151.00000000000003</ele><time>2026-04-07T12:26:37.788Z</time></trkpt><trkpt lat="38.902415" lon="16.5326433"><ele>151.0</ele><time>2026-04-07T12:26:38.788Z</time></trkpt><trkpt lat="38.90247" lon="16.5325817"><ele>151.0</ele><time>2026-04-07T12:26:39.788Z</time></trkpt><trkpt lat="38.90253" lon="16.5325233"><ele>151.0</ele><time>2026-04-07T12:26:40.788Z</time></trkpt><trkpt lat="38.90259" lon="16.532475"><ele>151.0</ele><time>2026-04-07T12:26:41.788Z</time></trkpt><trkpt lat="38.9026517" lon="16.5324233"><ele>151.00000000000003</ele><time>2026-04-07T12:26:42.789Z</time></trkpt><trkpt lat="38.9027033" lon="16.532355"><ele>151.0</ele><time>2026-04-07T12:26:43.788Z</time></trkpt><trkpt lat="38.9027683" lon="16.5322967"><ele>153.5</ele><time>2026-04-07T12:26:44.788Z</time></trkpt><trkpt lat="38.9028483" lon="16.5322517"><ele>156.0</ele><time>2026-04-07T12:26:45.788Z</time></trkpt><trkpt lat="38.9029267" lon="16.53221"><ele>158.5</ele><time>2026-04-07T12:26:46.788Z</time></trkpt><trkpt lat="38.9030083" lon="16.532175"><ele>161.0</ele><time>2026-04-07T12:26:47.789Z</time></trkpt><trkpt lat="38.9030883" lon="16.532135"><ele>163.5</ele><time>2026-04-07T12:26:48.789Z</time></trkpt><trkpt lat="38.903165" lon="16.5321067"><ele>166.0</ele><time>2026-04-07T12:26:49.789Z</time></trkpt><trkpt lat="38.9032433" lon="16.5320883"><ele>166.0</ele><time>2026-04-07T12:26:50.788Z</time></trkpt><trkpt lat="38.9033167" lon="16.5320667"><ele>166.0</ele><time>2026-04-07T12:26:51.788Z</time></trkpt><trkpt lat="38.9033883" lon="16.5320333"><ele>166.0</ele><time>2026-04-07T12:26:52.788Z</time></trkpt><trkpt lat="38.90346" lon="16.5319833"><ele>166.0</ele><time>2026-04-07T12:26:53.788Z</time></trkpt><trkpt lat="38.9035183" lon="16.5319317"><ele>166.0</ele><time>2026-04-07T12:26:54.788Z</time></trkpt><trkpt lat="38.903605" lon="16.5318717"><ele>166.0</ele><time>2026-04-07T12:26:56.789Z</time></trkpt><trkpt lat="38.9036333" lon="16.5319567"><ele>166.0</ele><time>2026-04-07T12:26:58.788Z</time></trkpt><trkpt lat="38.9036017" lon="16.5320267"><ele>166.0</ele><time>2026-04-07T12:26:59.788Z</time></trkpt><trkpt lat="38.9035417" lon="16.5321133"><ele>166.0</ele><time>2026-04-07T12:27:00.789Z</time></trkpt><trkpt lat="38.903455" lon="16.5321883"><ele>166.0</ele><time>2026-04-07T12:27:01.788Z</time></trkpt><trkpt lat="38.9033517" lon="16.5322767"><ele>166.0</ele><time>2026-04-07T12:27:02.788Z</time></trkpt><trkpt lat="38.90326" lon="16.5323533"><ele>166.0</ele><time>2026-04-07T12:27:03.788Z</time></trkpt><trkpt lat="38.9031867" lon="16.5324167"><ele>166.0</ele><time>2026-04-07T12:27:04.789Z</time></trkpt><trkpt lat="38.9031" lon="16.5324667"><ele>166.0</ele><time>2026-04-07T12:27:05.788Z</time></trkpt><trkpt lat="38.9030117" lon="16.532495"><ele>166.0</ele><time>2026-04-07T12:27:06.788Z</time></trkpt><trkpt lat="38.902925" lon="16.53253"><ele>166.0</ele><time>2026-04-07T12:27:07.788Z</time></trkpt><trkpt lat="38.90285" lon="16.53259"><ele>166.0</ele><time>2026-04-07T12:27:08.788Z</time></trkpt><trkpt lat="38.9028017" lon="16.5326717"><ele>166.0</ele><time>2026-04-07T12:27:09.789Z</time></trkpt><trkpt lat="38.9027783" lon="16.5327583"><ele>166.0</ele><time>2026-04-07T12:27:10.788Z</time></trkpt><trkpt lat="38.9027967" lon="16.53284"><ele>166.0</ele><time>2026-04-07T12:27:11.788Z</time></trkpt><trkpt lat="38.902895" lon="16.5329367"><ele>166.0</ele><time>2026-04-07T12:27:13.788Z</time></trkpt><trkpt lat="38.902975" lon="16.532955"><ele>166.0</ele><time>2026-04-07T12:27:14.789Z</time></trkpt><trkpt lat="38.9030917" lon="16.53295"><ele>166.0</ele><time>2026-04-07T12:27:15.788Z</time></trkpt><trkpt lat="38.9032367" lon="16.5328933"><ele>166.0</ele><time>2026-04-07T12:27:16.788Z</time></trkpt><trkpt lat="38.9033883" lon="16.5328333"><ele>166.0</ele><time>2026-04-07T12:27:17.788Z</time></trkpt><trkpt lat="38.9035217" lon="16.53282"><ele>166.0</ele><time>2026-04-07T12:27:18.789Z</time></trkpt><trkpt lat="38.9036283" lon="16.5328433"><ele>168.4</ele><time>2026-04-07T12:27:19.788Z</time></trkpt><trkpt lat="38.903725" lon="16.532845"><ele>170.8</ele><time>2026-04-07T12:27:20.788Z</time></trkpt><trkpt lat="38.9038267" lon="16.5328267"><ele>173.20000000000002</ele><time>2026-04-07T12:27:21.789Z</time></trkpt><trkpt lat="38.9039283" lon="16.5327733"><ele>175.60000000000002</ele><time>2026-04-07T12:27:22.788Z</time></trkpt><trkpt lat="38.9040317" lon="16.5327083"><ele>178.0</ele><time>2026-04-07T12:27:23.789Z</time></trkpt><trkpt lat="38.904125" lon="16.532625"><ele>178.0</ele><time>2026-04-07T12:27:24.788Z</time></trkpt><trkpt lat="38.9042067" lon="16.5325433"><ele>178.0</ele><time>2026-04-07T12:27:25.789Z</time></trkpt><trkpt lat="38.9042683" lon="16.5324733"><ele>178.0</ele><time>2026-04-07T12:27:26.788Z</time></trkpt><trkpt lat="38.9043367" lon="16.53238"><ele>178.0</ele><time>2026-04-07T12:27:28.788Z</time></trkpt><trkpt lat="38.9043917" lon="16.5323033"><ele>178.0</ele><time>2026-04-07T12:27:31.788Z</time></trkpt><trkpt lat="38.9044367" lon="16.53222"><ele>178.0</ele><time>2026-04-07T12:27:33.788Z</time></trkpt><trkpt lat="38.904525" lon="16.5321367"><ele>179.83333333333334</ele><time>2026-04-07T12:27:35.788Z</time></trkpt><trkpt lat="38.904645" lon="16.532125"><ele>181.66666666666669</ele><time>2026-04-07T12:27:37.788Z</time></trkpt><trkpt lat="38.9047083" lon="16.532105"><ele>183.5</ele><time>2026-04-07T12:27:38.789Z</time></trkpt><trkpt lat="38.9047667" lon="16.5320433"><ele>185.33333333333334</ele><time>2026-04-07T12:27:39.788Z</time></trkpt><trkpt lat="38.9048117" lon="16.5319617"><ele>187.16666666666666</ele><time>2026-04-07T12:27:40.788Z</time></trkpt><trkpt lat="38.9048433" lon="16.531875"><ele>189.0</ele><time>2026-04-07T12:27:41.789Z</time></trkpt><trkpt lat="38.9048767" lon="16.5318"><ele>189.0</ele><time>2026-04-07T12:27:42.789Z</time></trkpt><trkpt lat="38.90497" lon="16.5317617"><ele>189.0</ele><time>2026-04-07T12:27:44.789Z</time></trkpt><trkpt lat="38.9050417" lon="16.5318683"><ele>189.0</ele><time>2026-04-07T12:27:46.788Z</time></trkpt><trkpt lat="38.9050317" lon="16.5319683"><ele>189.0</ele><time>2026-04-07T12:27:47.788Z</time></trkpt><trkpt lat="38.905" lon="16.532055"><ele>189.0</ele><time>2026-04-07T12:27:48.788Z</time></trkpt><trkpt lat="38.9049567" lon="16.532175"><ele>189.0</ele><time>2026-04-07T12:27:50.788Z</time></trkpt><trkpt lat="38.9049967" lon="16.53228"><ele>189.0</ele><time>2026-04-07T12:27:52.789Z</time></trkpt><trkpt lat="38.90511" lon="16.532225"><ele>189.0</ele><time>2026-04-07T12:27:54.788Z</time></trkpt><trkpt lat="38.9051683" lon="16.5321283"><ele>189.0</ele><time>2026-04-07T12:27:55.788Z</time></trkpt><trkpt lat="38.905205" lon="16.5320367"><ele>189.0</ele><time>2026-04-07T12:27:56.789Z</time></trkpt><trkpt lat="38.9052167" lon="16.5319483"><ele>189.85714285714286</ele><time>2026-04-07T12:27:57.789Z</time></trkpt><trkpt lat="38.905215" lon="16.5318633"><ele>190.71428571428572</ele><time>2026-04-07T12:27:58.789Z</time></trkpt><trkpt lat="38.9051933" lon="16.5317667"><ele>191.57142857142856</ele><time>2026-04-07T12:28:01.788Z</time></trkpt><trkpt lat="38.90514" lon="16.5317"><ele>192.42857142857144</ele><time>2026-04-07T12:28:04.789Z</time></trkpt><trkpt lat="38.9050867" lon="16.5316317"><ele>193.28571428571428</ele><time>2026-04-07T12:28:06.788Z</time></trkpt><trkpt lat="38.9050517" lon="16.5315633"><ele>194.14285714285714</ele><time>2026-04-07T12:28:08.788Z</time></trkpt><trkpt lat="38.9050283" lon="16.5314733"><ele>195.0</ele><time>2026-04-07T12:28:10.789Z</time></trkpt><trkpt lat="38.905025" lon="16.5313817"><ele>195.0</ele><time>2026-04-07T12:28:13.788Z</time></trkpt><trkpt lat="38.905065" lon="16.5313083"><ele>195.0</ele><time>2026-04-07T12:28:16.788Z</time></trkpt><trkpt lat="38.90514" lon="16.53124"><ele>195.0</ele><time>2026-04-07T12:28:19.788Z</time></trkpt><trkpt lat="38.90525" lon="16.531215"><ele>195.0</ele><time>2026-04-07T12:28:21.789Z</time></trkpt><trkpt lat="38.9053217" lon="16.5312117"><ele>195.0</ele><time>2026-04-07T12:28:22.789Z</time></trkpt><trkpt lat="38.9053967" lon="16.531215"><ele>195.0</ele><time>2026-04-07T12:28:23.789Z</time></trkpt><trkpt lat="38.90547" lon="16.53124"><ele>198.8</ele><time>2026-04-07T12:28:24.788Z</time></trkpt><trkpt lat="38.905545" lon="16.5313"><ele>202.6</ele><time>2026-04-07T12:28:25.788Z</time></trkpt><trkpt lat="38.9056183" lon="16.53137"><ele>206.39999999999998</ele><time>2026-04-07T12:28:26.789Z</time></trkpt><trkpt lat="38.905705" lon="16.53143"><ele>210.2</ele><time>2026-04-07T12:28:27.788Z</time></trkpt><trkpt lat="38.905805" lon="16.5314817"><ele>214.0</ele><time>2026-04-07T12:28:28.788Z</time></trkpt><trkpt lat="38.905905" lon="16.53154"><ele>216.0</ele><time>2026-04-07T12:28:29.788Z</time></trkpt><trkpt lat="38.9060117" lon="16.5315833"><ele>218.0</ele><time>2026-04-07T12:28:30.789Z</time></trkpt><trkpt lat="38.9061333" lon="16.5315933"><ele>220.0</ele><time>2026-04-07T12:28:31.788Z</time></trkpt><trkpt lat="38.906255" lon="16.5315733"><ele>222.0</ele><time>2026-04-07T12:28:32.788Z</time></trkpt><trkpt lat="38.9063783" lon="16.5315467"><ele>222.0</ele><time>2026-04-07T12:28:33.789Z</time></trkpt><trkpt lat="38.90651" lon="16.5315083"><ele>222.0</ele><time>2026-04-07T12:28:34.789Z</time></trkpt><trkpt lat="38.906645" lon="16.5314583"><ele>222.0</ele><time>2026-04-07T12:28:35.789Z</time></trkpt><trkpt lat="38.90678" lon="16.5314167"><ele>222.0</ele><time>2026-04-07T12:28:36.789Z</time></trkpt><trkpt lat="38.90691" lon="16.5313683"><ele>221.25</ele><time>2026-04-07T12:28:37.788Z</time></trkpt><trkpt lat="38.9070367" lon="16.5313183"><ele>220.5</ele><time>2026-04-07T12:28:38.789Z</time></trkpt><trkpt lat="38.9071583" lon="16.5312583"><ele>219.75</ele><time>2026-04-07T12:28:39.788Z</time></trkpt><trkpt lat="38.9072617" lon="16.5311867"><ele>219.0</ele><time>2026-04-07T12:28:40.789Z</time></trkpt><trkpt lat="38.9073567" lon="16.5311"><ele>219.0</ele><time>2026-04-07T12:28:41.788Z</time></trkpt><trkpt lat="38.90743" lon="16.5310117"><ele>219.0</ele><time>2026-04-07T12:28:42.788Z</time></trkpt><trkpt lat="38.90748" lon="16.5309167"><ele>219.0</ele><time>2026-04-07T12:28:43.788Z</time></trkpt><trkpt lat="38.9075267" lon="16.5308083"><ele>219.0</ele><time>2026-04-07T12:28:44.788Z</time></trkpt><trkpt lat="38.9075667" lon="16.5307117"><ele>219.0</ele><time>2026-04-07T12:28:45.789Z</time></trkpt><trkpt lat="38.90761" lon="16.5306317"><ele>219.0</ele><time>2026-04-07T12:28:46.788Z</time></trkpt><trkpt lat="38.9076667" lon="16.530595"><ele>219.0</ele><time>2026-04-07T12:28:47.788Z</time></trkpt><trkpt lat="38.9077367" lon="16.53063"><ele>218.99999999999997</ele><time>2026-04-07T12:28:49.789Z</time></trkpt><trkpt lat="38.9076967" lon="16.5307783"><ele>218.99999999999997</ele><time>2026-04-07T12:28:51.788Z</time></trkpt><trkpt lat="38.9076317" lon="16.5308983"><ele>219.0</ele><time>2026-04-07T12:28:52.788Z</time></trkpt><trkpt lat="38.9075583" lon="16.5310217"><ele>219.0</ele><time>2026-04-07T12:28:53.789Z</time></trkpt><trkpt lat="38.9074733" lon="16.5311333"><ele>221.5</ele><time>2026-04-07T12:28:54.788Z</time></trkpt><trkpt lat="38.9073833" lon="16.5312433"><ele>224.0</ele><time>2026-04-07T12:28:55.789Z</time></trkpt><trkpt lat="38.9072917" lon="16.5313483"><ele>226.5</ele><time>2026-04-07T12:28:56.788Z</time></trkpt><trkpt lat="38.907195" lon="16.5314317"><ele>229.0</ele><time>2026-04-07T12:28:57.788Z</time></trkpt><trkpt lat="38.907105" lon="16.5314983"><ele>228.99999999999997</ele><time>2026-04-07T12:28:58.789Z</time></trkpt><trkpt lat="38.90704" lon="16.5315733"><ele>229.0</ele><time>2026-04-07T12:28:59.789Z</time></trkpt><trkpt lat="38.9069967" lon="16.5316567"><ele>229.0</ele><time>2026-04-07T12:29:00.788Z</time></trkpt><trkpt lat="38.9069833" lon="16.53175"><ele>229.0</ele><time>2026-04-07T12:29:01.789Z</time></trkpt><trkpt lat="38.9070017" lon="16.5318417"><ele>228.99999999999997</ele><time>2026-04-07T12:29:02.789Z</time></trkpt><trkpt lat="38.9070433" lon="16.5319067"><ele>229.0</ele><time>2026-04-07T12:29:03.789Z</time></trkpt><trkpt lat="38.9071167" lon="16.5319417"><ele>229.0</ele><time>2026-04-07T12:29:04.788Z</time></trkpt><trkpt lat="38.9072217" lon="16.531935"><ele>229.0</ele><time>2026-04-07T12:29:05.789Z</time></trkpt><trkpt lat="38.9073467" lon="16.531905"><ele>229.0</ele><time>2026-04-07T12:29:06.789Z</time></trkpt><trkpt lat="38.9074667" lon="16.5318833"><ele>229.0</ele><time>2026-04-07T12:29:07.788Z</time></trkpt><trkpt lat="38.9075833" lon="16.5318617"><ele>231.0</ele><time>2026-04-07T12:29:08.788Z</time></trkpt><trkpt lat="38.9076967" lon="16.5318317"><ele>233.0</ele><time>2026-04-07T12:29:09.789Z</time></trkpt><trkpt lat="38.90782" lon="16.5317867"><ele>235.0</ele><time>2026-04-07T12:29:10.788Z</time></trkpt><trkpt lat="38.9079433" lon="16.53173"><ele>237.0</ele><time>2026-04-07T12:29:11.789Z</time></trkpt><trkpt lat="38.9080633" lon="16.531685"><ele>237.0</ele><time>2026-04-07T12:29:12.788Z</time></trkpt><trkpt lat="38.9081967" lon="16.53165"><ele>237.0</ele><time>2026-04-07T12:29:13.789Z</time></trkpt><trkpt lat="38.9083283" lon="16.531645"><ele>237.0</ele><time>2026-04-07T12:29:14.788Z</time></trkpt><trkpt lat="38.9084617" lon="16.5316533"><ele>237.0</ele><time>2026-04-07T12:29:15.788Z</time></trkpt><trkpt lat="38.9085917" lon="16.531675"><ele>240.5</ele><time>2026-04-07T12:29:16.789Z</time></trkpt><trkpt lat="38.9087217" lon="16.53169"><ele>244.0</ele><time>2026-04-07T12:29:17.788Z</time></trkpt><trkpt lat="38.9088517" lon="16.5316967"><ele>247.5</ele><time>2026-04-07T12:29:18.788Z</time></trkpt><trkpt lat="38.908985" lon="16.5317017"><ele>251.0</ele><time>2026-04-07T12:29:19.789Z</time></trkpt><trkpt lat="38.90912" lon="16.5317117"><ele>252.0</ele><time>2026-04-07T12:29:20.789Z</time></trkpt><trkpt lat="38.9092583" lon="16.5317233"><ele>253.0</ele><time>2026-04-07T12:29:21.788Z</time></trkpt><trkpt lat="38.9093933" lon="16.53174"><ele>254.0</ele><time>2026-04-07T12:29:22.789Z</time></trkpt><trkpt lat="38.9095283" lon="16.5317733"><ele>255.0</ele><time>2026-04-07T12:29:23.788Z</time></trkpt><trkpt lat="38.9096667" lon="16.53183"><ele>255.0</ele><time>2026-04-07T12:29:24.789Z</time></trkpt><trkpt lat="38.909805" lon="16.5318867"><ele>255.0</ele><time>2026-04-07T12:29:25.789Z</time></trkpt><trkpt lat="38.9099433" lon="16.5319383"><ele>255.0</ele><time>2026-04-07T12:29:26.788Z</time></trkpt><trkpt lat="38.9100883" lon="16.531985"><ele>255.0</ele><time>2026-04-07T12:29:27.789Z</time></trkpt><trkpt lat="38.9102133" lon="16.5320183"><ele>255.66666666666666</ele><time>2026-04-07T12:29:28.788Z</time></trkpt><trkpt lat="38.91032" lon="16.5320533"><ele>256.3333333333333</ele><time>2026-04-07T12:29:29.788Z</time></trkpt><trkpt lat="38.9104117" lon="16.5320967"><ele>257.0</ele><time>2026-04-07T12:29:30.788Z</time></trkpt><trkpt lat="38.9104867" lon="16.53216"><ele>257.66666666666663</ele><time>2026-04-07T12:29:31.788Z</time></trkpt><trkpt lat="38.9105383" lon="16.5322267"><ele>258.3333333333333</ele><time>2026-04-07T12:29:32.788Z</time></trkpt><trkpt lat="38.9105717" lon="16.5323167"><ele>259.0</ele><time>2026-04-07T12:29:33.788Z</time></trkpt><trkpt lat="38.9105867" lon="16.5324167"><ele>260.8</ele><time>2026-04-07T12:29:34.788Z</time></trkpt><trkpt lat="38.9105833" lon="16.532535"><ele>262.59999999999997</ele><time>2026-04-07T12:29:35.788Z</time></trkpt><trkpt lat="38.910565" lon="16.532665"><ele>264.4</ele><time>2026-04-07T12:29:36.788Z</time></trkpt><trkpt lat="38.9105117" lon="16.5327683"><ele>266.2</ele><time>2026-04-07T12:29:37.788Z</time></trkpt><trkpt lat="38.91044" lon="16.5328767"><ele>268.0</ele><time>2026-04-07T12:29:38.788Z</time></trkpt><trkpt lat="38.9103533" lon="16.53297"><ele>268.5</ele><time>2026-04-07T12:29:39.789Z</time></trkpt><trkpt lat="38.9102483" lon="16.53303"><ele>269.0</ele><time>2026-04-07T12:29:40.788Z</time></trkpt><trkpt lat="38.910125" lon="16.533055"><ele>269.5</ele><time>2026-04-07T12:29:41.788Z</time></trkpt><trkpt lat="38.91001" lon="16.5330783"><ele>270.0</ele><time>2026-04-07T12:29:42.788Z</time></trkpt><trkpt lat="38.9098867" lon="16.533125"><ele>270.0</ele><time>2026-04-07T12:29:43.788Z</time></trkpt><trkpt lat="38.9097733" lon="16.53321"><ele>270.0</ele><time>2026-04-07T12:29:44.788Z</time></trkpt><trkpt lat="38.9096883" lon="16.5333117"><ele>270.0</ele><time>2026-04-07T12:29:45.789Z</time></trkpt><trkpt lat="38.909645" lon="16.5334283"><ele>270.0</ele><time>2026-04-07T12:29:46.788Z</time></trkpt><trkpt lat="38.9096433" lon="16.5335617"><ele>270.0</ele><time>2026-04-07T12:29:47.789Z</time></trkpt><trkpt lat="38.9096817" lon="16.5337067"><ele>270.0</ele><time>2026-04-07T12:29:48.788Z</time></trkpt><trkpt lat="38.90975" lon="16.53386"><ele>270.0</ele><time>2026-04-07T12:29:49.789Z</time></trkpt><trkpt lat="38.9098333" lon="16.5340133"><ele>270.0</ele><time>2026-04-07T12:29:50.788Z</time></trkpt><trkpt lat="38.90992" lon="16.53413"><ele>271.75</ele><time>2026-04-07T12:29:51.789Z</time></trkpt><trkpt lat="38.910015" lon="16.5342017"><ele>273.5</ele><time>2026-04-07T12:29:52.788Z</time></trkpt><trkpt lat="38.91014" lon="16.53423"><ele>275.25</ele><time>2026-04-07T12:29:53.788Z</time></trkpt><trkpt lat="38.9102733" lon="16.5342317"><ele>277.0</ele><time>2026-04-07T12:29:54.789Z</time></trkpt><trkpt lat="38.910395" lon="16.534225"><ele>278.0</ele><time>2026-04-07T12:29:55.788Z</time></trkpt><trkpt lat="38.9105117" lon="16.5342217"><ele>279.0</ele><time>2026-04-07T12:29:56.788Z</time></trkpt><trkpt lat="38.910625" lon="16.53422"><ele>280.0</ele><time>2026-04-07T12:29:57.788Z</time></trkpt><trkpt lat="38.91073" lon="16.5342317"><ele>281.0</ele><time>2026-04-07T12:29:58.788Z</time></trkpt><trkpt lat="38.9108233" lon="16.53428"><ele>282.0</ele><time>2026-04-07T12:29:59.788Z</time></trkpt><trkpt lat="38.910895" lon="16.5343733"><ele>285.0</ele><time>2026-04-07T12:30:00.788Z</time></trkpt><trkpt lat="38.9109683" lon="16.53449"><ele>288.0</ele><time>2026-04-07T12:30:01.788Z</time></trkpt><trkpt lat="38.911015" lon="16.5346233"><ele>291.0</ele><time>2026-04-07T12:30:02.789Z</time></trkpt><trkpt lat="38.9110733" lon="16.53476"><ele>294.0</ele><time>2026-04-07T12:30:03.788Z</time></trkpt><trkpt lat="38.9111283" lon="16.5349033"><ele>294.0</ele><time>2026-04-07T12:30:04.789Z</time></trkpt><trkpt lat="38.911185" lon="16.5350333"><ele>294.0</ele><time>2026-04-07T12:30:05.789Z</time></trkpt><trkpt lat="38.9112367" lon="16.535155"><ele>294.0</ele><time>2026-04-07T12:30:06.788Z</time></trkpt><trkpt lat="38.9112683" lon="16.5352833"><ele>294.0</ele><time>2026-04-07T12:30:07.788Z</time></trkpt><trkpt lat="38.91129" lon="16.53541"><ele>294.0</ele><time>2026-04-07T12:30:08.788Z</time></trkpt><trkpt lat="38.9113117" lon="16.5355233"><ele>293.6666666666667</ele><time>2026-04-07T12:30:09.788Z</time></trkpt><trkpt lat="38.9113417" lon="16.5356083"><ele>293.3333333333333</ele><time>2026-04-07T12:30:10.788Z</time></trkpt><trkpt lat="38.9113867" lon="16.535675"><ele>293.0</ele><time>2026-04-07T12:30:11.789Z</time></trkpt><trkpt lat="38.911475" lon="16.5357483"><ele>292.66666666666663</ele><time>2026-04-07T12:30:13.788Z</time></trkpt><trkpt lat="38.9115717" lon="16.53579"><ele>292.3333333333333</ele><time>2026-04-07T12:30:15.788Z</time></trkpt><trkpt lat="38.91163" lon="16.535735"><ele>292.0</ele><time>2026-04-07T12:30:18.788Z</time></trkpt><trkpt lat="38.91163" lon="16.5356183"><ele>292.0</ele><time>2026-04-07T12:30:21.788Z</time></trkpt><trkpt lat="38.9116167" lon="16.53548"><ele>292.0</ele><time>2026-04-07T12:30:23.789Z</time></trkpt><trkpt lat="38.9115983" lon="16.535395"><ele>292.0</ele><time>2026-04-07T12:30:24.789Z</time></trkpt><trkpt lat="38.9115733" lon="16.5353117"><ele>292.0</ele><time>2026-04-07T12:30:25.788Z</time></trkpt><trkpt lat="38.9115483" lon="16.5352117"><ele>292.0</ele><time>2026-04-07T12:30:26.789Z</time></trkpt><trkpt lat="38.9115333" lon="16.53511"><ele>292.0</ele><time>2026-04-07T12:30:27.788Z</time></trkpt><trkpt lat="38.9115183" lon="16.5350117"><ele>292.2857142857143</ele><time>2026-04-07T12:30:28.788Z</time></trkpt><trkpt lat="38.91152" lon="16.5349133"><ele>292.57142857142856</ele><time>2026-04-07T12:30:29.788Z</time></trkpt><trkpt lat="38.91152" lon="16.5348183"><ele>292.8571428571429</ele><time>2026-04-07T12:30:30.788Z</time></trkpt><trkpt lat="38.9115217" lon="16.5347217"><ele>293.1428571428571</ele><time>2026-04-07T12:30:31.789Z</time></trkpt><trkpt lat="38.911525" lon="16.53463"><ele>293.42857142857144</ele><time>2026-04-07T12:30:32.788Z</time></trkpt><trkpt lat="38.91153" lon="16.5345417"><ele>293.7142857142857</ele><time>2026-04-07T12:30:33.789Z</time></trkpt><trkpt lat="38.911535" lon="16.5344483"><ele>294.0</ele><time>2026-04-07T12:30:34.788Z</time></trkpt><trkpt lat="38.9115483" lon="16.5343633"><ele>294.14285714285717</ele><time>2026-04-07T12:30:35.789Z</time></trkpt><trkpt lat="38.9115617" lon="16.5342717"><ele>294.2857142857143</ele><time>2026-04-07T12:30:36.788Z</time></trkpt><trkpt lat="38.9115883" lon="16.534185"><ele>294.42857142857144</ele><time>2026-04-07T12:30:37.788Z</time></trkpt><trkpt lat="38.911615" lon="16.5341067"><ele>294.57142857142856</ele><time>2026-04-07T12:30:38.788Z</time></trkpt><trkpt lat="38.9116433" lon="16.5340217"><ele>294.7142857142857</ele><time>2026-04-07T12:30:39.789Z</time></trkpt><trkpt lat="38.9116683" lon="16.533935"><ele>294.8571428571429</ele><time>2026-04-07T12:30:40.788Z</time></trkpt><trkpt lat="38.9117017" lon="16.5338567"><ele>295.0</ele><time>2026-04-07T12:30:41.788Z</time></trkpt><trkpt lat="38.9117417" lon="16.53378"><ele>295.5</ele><time>2026-04-07T12:30:42.788Z</time></trkpt><trkpt lat="38.911785" lon="16.5337167"><ele>296.0</ele><time>2026-04-07T12:30:43.788Z</time></trkpt><trkpt lat="38.9118417" lon="16.53366"><ele>296.5</ele><time>2026-04-07T12:30:44.788Z</time></trkpt><trkpt lat="38.9119033" lon="16.533595"><ele>297.0</ele><time>2026-04-07T12:30:45.788Z</time></trkpt><trkpt lat="38.9119717" lon="16.533545"><ele>297.5</ele><time>2026-04-07T12:30:46.788Z</time></trkpt><trkpt lat="38.9120417" lon="16.53351"><ele>298.0</ele><time>2026-04-07T12:30:47.789Z</time></trkpt><trkpt lat="38.9121233" lon="16.5334783"><ele>298.0</ele><time>2026-04-07T12:30:48.788Z</time></trkpt><trkpt lat="38.9122067" lon="16.5334533"><ele>298.0</ele><time>2026-04-07T12:30:49.788Z</time></trkpt><trkpt lat="38.9122967" lon="16.5334333"><ele>298.0</ele><time>2026-04-07T12:30:50.789Z</time></trkpt><trkpt lat="38.9123883" lon="16.5333967"><ele>298.0</ele><time>2026-04-07T12:30:51.788Z</time></trkpt><trkpt lat="38.9124767" lon="16.5333433"><ele>298.0</ele><time>2026-04-07T12:30:52.788Z</time></trkpt><trkpt lat="38.91256" lon="16.533275"><ele>297.8</ele><time>2026-04-07T12:30:53.788Z</time></trkpt><trkpt lat="38.91263" lon="16.5331717"><ele>297.6</ele><time>2026-04-07T12:30:54.789Z</time></trkpt><trkpt lat="38.91269" lon="16.5330583"><ele>297.4</ele><time>2026-04-07T12:30:55.788Z</time></trkpt><trkpt lat="38.91274" lon="16.532935"><ele>297.2</ele><time>2026-04-07T12:30:56.789Z</time></trkpt><trkpt lat="38.912805" lon="16.5328017"><ele>297.0</ele><time>2026-04-07T12:30:57.788Z</time></trkpt><trkpt lat="38.912875" lon="16.5326733"><ele>297.0</ele><time>2026-04-07T12:30:58.788Z</time></trkpt><trkpt lat="38.9129517" lon="16.5325367"><ele>297.0</ele><time>2026-04-07T12:30:59.788Z</time></trkpt><trkpt lat="38.9130333" lon="16.5323967"><ele>297.0</ele><time>2026-04-07T12:31:00.789Z</time></trkpt><trkpt lat="38.9131133" lon="16.532245"><ele>297.0</ele><time>2026-04-07T12:31:01.788Z</time></trkpt><trkpt lat="38.9131983" lon="16.5321017"><ele>296.5</ele><time>2026-04-07T12:31:02.788Z</time></trkpt><trkpt lat="38.9132933" lon="16.5319567"><ele>296.0</ele><time>2026-04-07T12:31:03.789Z</time></trkpt><trkpt lat="38.9133933" lon="16.5318183"><ele>295.5</ele><time>2026-04-07T12:31:04.789Z</time></trkpt><trkpt lat="38.9134917" lon="16.5316767"><ele>295.0</ele><time>2026-04-07T12:31:05.788Z</time></trkpt><trkpt lat="38.9136017" lon="16.5315417"><ele>295.3333333333333</ele><time>2026-04-07T12:31:06.788Z</time></trkpt><trkpt lat="38.91372" lon="16.5314033"><ele>295.6666666666667</ele><time>2026-04-07T12:31:07.788Z</time></trkpt><trkpt lat="38.9138383" lon="16.5312583"><ele>296.0</ele><time>2026-04-07T12:31:08.788Z</time></trkpt><trkpt lat="38.9139483" lon="16.5311167"><ele>296.0</ele><time>2026-04-07T12:31:09.788Z</time></trkpt><trkpt lat="38.914055" lon="16.5309567"><ele>296.0</ele><time>2026-04-07T12:31:10.789Z</time></trkpt><trkpt lat="38.9141667" lon="16.5308133"><ele>296.0</ele><time>2026-04-07T12:31:11.788Z</time></trkpt><trkpt lat="38.914255" lon="16.5306717"><ele>293.75</ele><time>2026-04-07T12:31:12.788Z</time></trkpt><trkpt lat="38.9143217" lon="16.5305267"><ele>291.5</ele><time>2026-04-07T12:31:13.788Z</time></trkpt><trkpt lat="38.9143633" lon="16.53037"><ele>289.25</ele><time>2026-04-07T12:31:14.789Z</time></trkpt><trkpt lat="38.9143483" lon="16.5302083"><ele>287.0</ele><time>2026-04-07T12:31:15.789Z</time></trkpt><trkpt lat="38.9143" lon="16.53005"><ele>293.6666666666667</ele><time>2026-04-07T12:31:16.788Z</time></trkpt><trkpt lat="38.9142167" lon="16.5299067"><ele>300.3333333333333</ele><time>2026-04-07T12:31:17.788Z</time></trkpt><trkpt lat="38.9140967" lon="16.5297833"><ele>307.0</ele><time>2026-04-07T12:31:18.788Z</time></trkpt><trkpt lat="38.9139617" lon="16.52968"><ele>307.0</ele><time>2026-04-07T12:31:19.788Z</time></trkpt><trkpt lat="38.9138133" lon="16.529585"><ele>307.0</ele><time>2026-04-07T12:31:20.788Z</time></trkpt><trkpt lat="38.913655" lon="16.529505"><ele>307.0</ele><time>2026-04-07T12:31:21.788Z</time></trkpt><trkpt lat="38.9134933" lon="16.529445"><ele>308.75</ele><time>2026-04-07T12:31:22.788Z</time></trkpt><trkpt lat="38.9133483" lon="16.5293967"><ele>310.5</ele><time>2026-04-07T12:31:23.789Z</time></trkpt><trkpt lat="38.91322" lon="16.529355"><ele>312.25</ele><time>2026-04-07T12:31:24.788Z</time></trkpt><trkpt lat="38.9131033" lon="16.5293183"><ele>314.0</ele><time>2026-04-07T12:31:25.788Z</time></trkpt><trkpt lat="38.913005" lon="16.52928"><ele>314.0</ele><time>2026-04-07T12:31:26.789Z</time></trkpt><trkpt lat="38.9129333" lon="16.5292133"><ele>314.0</ele><time>2026-04-07T12:31:27.788Z</time></trkpt><trkpt lat="38.9129067" lon="16.5291317"><ele>314.0</ele><time>2026-04-07T12:31:28.788Z</time></trkpt><trkpt lat="38.91291" lon="16.5290367"><ele>314.0</ele><time>2026-04-07T12:31:29.788Z</time></trkpt><trkpt lat="38.9129417" lon="16.5289367"><ele>314.0</ele><time>2026-04-07T12:31:30.788Z</time></trkpt><trkpt lat="38.9130167" lon="16.5288517"><ele>314.0</ele><time>2026-04-07T12:31:31.788Z</time></trkpt><trkpt lat="38.9131333" lon="16.5287717"><ele>314.25</ele><time>2026-04-07T12:31:32.788Z</time></trkpt><trkpt lat="38.9132667" lon="16.5286933"><ele>314.5</ele><time>2026-04-07T12:31:33.789Z</time></trkpt><trkpt lat="38.91339" lon="16.5286"><ele>314.75</ele><time>2026-04-07T12:31:34.789Z</time></trkpt><trkpt lat="38.9135" lon="16.5284883"><ele>315.0</ele><time>2026-04-07T12:31:35.788Z</time></trkpt><trkpt lat="38.91359" lon="16.52835"><ele>317.25</ele><time>2026-04-07T12:31:36.788Z</time></trkpt><trkpt lat="38.913655" lon="16.5281783"><ele>319.5</ele><time>2026-04-07T12:31:37.788Z</time></trkpt><trkpt lat="38.913685" lon="16.5279867"><ele>321.75</ele><time>2026-04-07T12:31:38.789Z</time></trkpt><trkpt lat="38.9137083" lon="16.5278117"><ele>324.0</ele><time>2026-04-07T12:31:39.788Z</time></trkpt><trkpt lat="38.91374" lon="16.5276567"><ele>324.0</ele><time>2026-04-07T12:31:40.788Z</time></trkpt><trkpt lat="38.9137783" lon="16.5275183"><ele>324.0</ele><time>2026-04-07T12:31:41.788Z</time></trkpt><trkpt lat="38.9138267" lon="16.5274067"><ele>324.0</ele><time>2026-04-07T12:31:42.788Z</time></trkpt><trkpt lat="38.913905" lon="16.5273233"><ele>324.0</ele><time>2026-04-07T12:31:43.788Z</time></trkpt><trkpt lat="38.9139983" lon="16.527275"><ele>324.0</ele><time>2026-04-07T12:31:44.788Z</time></trkpt><trkpt lat="38.914105" lon="16.52725"><ele>324.0</ele><time>2026-04-07T12:31:45.788Z</time></trkpt><trkpt lat="38.914225" lon="16.5272133"><ele>324.0</ele><time>2026-04-07T12:31:46.788Z</time></trkpt><trkpt lat="38.91434" lon="16.527155"><ele>324.0</ele><time>2026-04-07T12:31:47.788Z</time></trkpt><trkpt lat="38.9144533" lon="16.5270717"><ele>324.0</ele><time>2026-04-07T12:31:48.789Z</time></trkpt><trkpt lat="38.91456" lon="16.5269617"><ele>325.6</ele><time>2026-04-07T12:31:49.788Z</time></trkpt><trkpt lat="38.914655" lon="16.5268467"><ele>327.2</ele><time>2026-04-07T12:31:50.789Z</time></trkpt><trkpt lat="38.91474" lon="16.526745"><ele>328.8</ele><time>2026-04-07T12:31:51.788Z</time></trkpt><trkpt lat="38.91482" lon="16.5267"><ele>330.40000000000003</ele><time>2026-04-07T12:31:52.788Z</time></trkpt><trkpt lat="38.9148933" lon="16.5267133"><ele>332.0</ele><time>2026-04-07T12:31:53.789Z</time></trkpt><trkpt lat="38.9149433" lon="16.526775"><ele>332.0</ele><time>2026-04-07T12:31:54.788Z</time></trkpt><trkpt lat="38.9149667" lon="16.5268633"><ele>332.0</ele><time>2026-04-07T12:31:55.788Z</time></trkpt><trkpt lat="38.9149583" lon="16.5269733"><ele>332.0</ele><time>2026-04-07T12:31:56.788Z</time></trkpt><trkpt lat="38.9149317" lon="16.527125"><ele>332.0</ele><time>2026-04-07T12:31:57.788Z</time></trkpt><trkpt lat="38.9148983" lon="16.5272833"><ele>332.0</ele><time>2026-04-07T12:31:58.789Z</time></trkpt><trkpt lat="38.914875" lon="16.527455"><ele>332.75</ele><time>2026-04-07T12:31:59.788Z</time></trkpt><trkpt lat="38.9148517" lon="16.5276317"><ele>333.5</ele><time>2026-04-07T12:32:00.789Z</time></trkpt><trkpt lat="38.9148317" lon="16.5277917"><ele>334.25</ele><time>2026-04-07T12:32:01.788Z</time></trkpt><trkpt lat="38.9148117" lon="16.5279333"><ele>335.0</ele><time>2026-04-07T12:32:02.788Z</time></trkpt><trkpt lat="38.9147983" lon="16.5280617"><ele>334.0</ele><time>2026-04-07T12:32:03.788Z</time></trkpt><trkpt lat="38.9148" lon="16.5281633"><ele>333.0</ele><time>2026-04-07T12:32:04.788Z</time></trkpt><trkpt lat="38.91483" lon="16.5282383"><ele>332.0</ele><time>2026-04-07T12:32:05.788Z</time></trkpt><trkpt lat="38.9149417" lon="16.528275"><ele>331.0</ele><time>2026-04-07T12:32:07.789Z</time></trkpt><trkpt lat="38.9150133" lon="16.5282267"><ele>330.0</ele><time>2026-04-07T12:32:08.788Z</time></trkpt><trkpt lat="38.91508" lon="16.5281333"><ele>329.0</ele><time>2026-04-07T12:32:09.789Z</time></trkpt><trkpt lat="38.91515" lon="16.52801"><ele>329.5</ele><time>2026-04-07T12:32:10.789Z</time></trkpt><trkpt lat="38.915235" lon="16.5278783"><ele>330.0</ele><time>2026-04-07T12:32:11.788Z</time></trkpt><trkpt lat="38.91532" lon="16.52775"><ele>330.5</ele><time>2026-04-07T12:32:12.788Z</time></trkpt><trkpt lat="38.9154067" lon="16.527625"><ele>331.0</ele><time>2026-04-07T12:32:13.788Z</time></trkpt><trkpt lat="38.9155033" lon="16.5275033"><ele>331.0</ele><time>2026-04-07T12:32:14.789Z</time></trkpt><trkpt lat="38.9156083" lon="16.5273867"><ele>331.0</ele><time>2026-04-07T12:32:15.788Z</time></trkpt><trkpt lat="38.9157117" lon="16.5272767"><ele>331.0</ele><time>2026-04-07T12:32:16.788Z</time></trkpt><trkpt lat="38.915825" lon="16.5271717"><ele>331.0</ele><time>2026-04-07T12:32:17.788Z</time></trkpt><trkpt lat="38.915945" lon="16.5270683"><ele>334.0</ele><time>2026-04-07T12:32:18.788Z</time></trkpt><trkpt lat="38.91607" lon="16.5269683"><ele>337.0</ele><time>2026-04-07T12:32:19.789Z</time></trkpt><trkpt lat="38.9162" lon="16.5268717"><ele>340.0</ele><time>2026-04-07T12:32:20.788Z</time></trkpt><trkpt lat="38.9163317" lon="16.5267833"><ele>343.0</ele><time>2026-04-07T12:32:21.788Z</time></trkpt><trkpt lat="38.9164433" lon="16.5266967"><ele>343.0</ele><time>2026-04-07T12:32:22.789Z</time></trkpt><trkpt lat="38.9165433" lon="16.5266267"><ele>343.0</ele><time>2026-04-07T12:32:23.788Z</time></trkpt><trkpt lat="38.9166133" lon="16.5265767"><ele>343.0</ele><time>2026-04-07T12:32:24.788Z</time></trkpt><trkpt lat="38.9166983" lon="16.5265133"><ele>343.0</ele><time>2026-04-07T12:32:26.788Z</time></trkpt><trkpt lat="38.9167783" lon="16.5264483"><ele>343.0</ele><time>2026-04-07T12:32:44.788Z</time></trkpt><trkpt lat="38.9168333" lon="16.5263967"><ele>345.0</ele><time>2026-04-07T12:32:51.789Z</time></trkpt><trkpt lat="38.91692" lon="16.5263283"><ele>347.0</ele><time>2026-04-07T12:32:53.788Z</time></trkpt><trkpt lat="38.9169983" lon="16.5262983"><ele>349.0</ele><time>2026-04-07T12:32:54.788Z</time></trkpt><trkpt lat="38.9170917" lon="16.5262667"><ele>351.0</ele><time>2026-04-07T12:32:55.788Z</time></trkpt><trkpt lat="38.9171967" lon="16.526225"><ele>353.0</ele><time>2026-04-07T12:32:56.788Z</time></trkpt><trkpt lat="38.91731" lon="16.5261783"><ele>353.0</ele><time>2026-04-07T12:32:57.788Z</time></trkpt><trkpt lat="38.9174267" lon="16.5261317"><ele>353.0</ele><time>2026-04-07T12:32:58.788Z</time></trkpt><trkpt lat="38.9175517" lon="16.5260817"><ele>353.0</ele><time>2026-04-07T12:32:59.788Z</time></trkpt><trkpt lat="38.9176767" lon="16.5260367"><ele>353.0</ele><time>2026-04-07T12:33:00.788Z</time></trkpt><trkpt lat="38.9178083" lon="16.525985"><ele>353.5</ele><time>2026-04-07T12:33:01.789Z</time></trkpt><trkpt lat="38.9179533" lon="16.5259233"><ele>354.0</ele><time>2026-04-07T12:33:02.788Z</time></trkpt><trkpt lat="38.9180867" lon="16.525865"><ele>354.5</ele><time>2026-04-07T12:33:03.788Z</time></trkpt><trkpt lat="38.9182117" lon="16.525815"><ele>355.0</ele><time>2026-04-07T12:33:04.788Z</time></trkpt><trkpt lat="38.9183433" lon="16.5257433"><ele>354.75</ele><time>2026-04-07T12:33:05.788Z</time></trkpt><trkpt lat="38.918465" lon="16.5256583"><ele>354.5</ele><time>2026-04-07T12:33:06.788Z</time></trkpt><trkpt lat="38.91858" lon="16.5255433"><ele>354.25</ele><time>2026-04-07T12:33:07.788Z</time></trkpt><trkpt lat="38.9186933" lon="16.5254"><ele>354.0</ele><time>2026-04-07T12:33:08.788Z</time></trkpt><trkpt lat="38.9187983" lon="16.525225"><ele>359.6666666666667</ele><time>2026-04-07T12:33:09.788Z</time></trkpt><trkpt lat="38.918895" lon="16.52504"><ele>365.33333333333337</ele><time>2026-04-07T12:33:10.789Z</time></trkpt><trkpt lat="38.91899" lon="16.5248583"><ele>371.0</ele><time>2026-04-07T12:33:11.788Z</time></trkpt><trkpt lat="38.9190833" lon="16.52468"><ele>370.75</ele><time>2026-04-07T12:33:12.788Z</time></trkpt><trkpt lat="38.919165" lon="16.5245133"><ele>370.5</ele><time>2026-04-07T12:33:13.788Z</time></trkpt><trkpt lat="38.919235" lon="16.5243517"><ele>370.25</ele><time>2026-04-07T12:33:14.789Z</time></trkpt><trkpt lat="38.919285" lon="16.5241817"><ele>370.0</ele><time>2026-04-07T12:33:15.788Z</time></trkpt><trkpt lat="38.919295" lon="16.5239933"><ele>370.75</ele><time>2026-04-07T12:33:16.788Z</time></trkpt><trkpt lat="38.9192517" lon="16.5238067"><ele>371.5</ele><time>2026-04-07T12:33:17.788Z</time></trkpt><trkpt lat="38.9191717" lon="16.5236433"><ele>372.25</ele><time>2026-04-07T12:33:18.789Z</time></trkpt><trkpt lat="38.91909" lon="16.5235183"><ele>373.0</ele><time>2026-04-07T12:33:19.788Z</time></trkpt><trkpt lat="38.9190283" lon="16.5233867"><ele>373.0</ele><time>2026-04-07T12:33:20.788Z</time></trkpt><trkpt lat="38.9190067" lon="16.52326"><ele>373.0</ele><time>2026-04-07T12:33:21.788Z</time></trkpt><trkpt lat="38.9190267" lon="16.5231517"><ele>373.0</ele><time>2026-04-07T12:33:22.788Z</time></trkpt><trkpt lat="38.919085" lon="16.5230633"><ele>373.0</ele><time>2026-04-07T12:33:23.788Z</time></trkpt><trkpt lat="38.9191617" lon="16.523025"><ele>373.0</ele><time>2026-04-07T12:33:24.788Z</time></trkpt><trkpt lat="38.91925" lon="16.5230317"><ele>373.0</ele><time>2026-04-07T12:33:25.789Z</time></trkpt><trkpt lat="38.9193433" lon="16.5230967"><ele>375.5</ele><time>2026-04-07T12:33:26.788Z</time></trkpt><trkpt lat="38.9194183" lon="16.5232133"><ele>378.0</ele><time>2026-04-07T12:33:27.788Z</time></trkpt><trkpt lat="38.9194817" lon="16.52336"><ele>380.5</ele><time>2026-04-07T12:33:28.788Z</time></trkpt><trkpt lat="38.91957" lon="16.5234517"><ele>383.0</ele><time>2026-04-07T12:33:29.788Z</time></trkpt><trkpt lat="38.91967" lon="16.5234717"><ele>383.0</ele><time>2026-04-07T12:33:30.789Z</time></trkpt><trkpt lat="38.919765" lon="16.5234267"><ele>383.0</ele><time>2026-04-07T12:33:31.788Z</time></trkpt><trkpt lat="38.9198667" lon="16.52333"><ele>383.0</ele><time>2026-04-07T12:33:32.789Z</time></trkpt><trkpt lat="38.91993" lon="16.52319"><ele>383.0</ele><time>2026-04-07T12:33:33.788Z</time></trkpt><trkpt lat="38.919985" lon="16.5230817"><ele>383.0</ele><time>2026-04-07T12:33:34.788Z</time></trkpt><trkpt lat="38.92005" lon="16.5230483"><ele>383.0</ele><time>2026-04-07T12:33:35.788Z</time></trkpt><trkpt lat="38.920145" lon="16.5231333"><ele>383.0</ele><time>2026-04-07T12:33:37.788Z</time></trkpt><trkpt lat="38.9201517" lon="16.5232467"><ele>383.0</ele><time>2026-04-07T12:33:38.788Z</time></trkpt><trkpt lat="38.9201367" lon="16.5234133"><ele>383.0</ele><time>2026-04-07T12:33:39.789Z</time></trkpt><trkpt lat="38.9201083" lon="16.523605"><ele>386.25</ele><time>2026-04-07T12:33:40.789Z</time></trkpt><trkpt lat="38.9201033" lon="16.5237983"><ele>389.5</ele><time>2026-04-07T12:33:41.789Z</time></trkpt><trkpt lat="38.9201117" lon="16.5239883"><ele>392.75</ele><time>2026-04-07T12:33:42.788Z</time></trkpt><trkpt lat="38.92012" lon="16.5241767"><ele>396.0</ele><time>2026-04-07T12:33:43.788Z</time></trkpt><trkpt lat="38.9201383" lon="16.5243367"><ele>396.0</ele><time>2026-04-07T12:33:44.788Z</time></trkpt><trkpt lat="38.9201683" lon="16.52446"><ele>396.0</ele><time>2026-04-07T12:33:45.788Z</time></trkpt><trkpt lat="38.920225" lon="16.524545"><ele>396.0</ele><time>2026-04-07T12:33:46.788Z</time></trkpt><trkpt lat="38.920295" lon="16.52458"><ele>396.0</ele><time>2026-04-07T12:33:47.788Z</time></trkpt><trkpt lat="38.9203633" lon="16.5245567"><ele>396.0</ele><time>2026-04-07T12:33:48.788Z</time></trkpt><trkpt lat="38.9204217" lon="16.5244817"><ele>396.0</ele><time>2026-04-07T12:33:49.788Z</time></trkpt><trkpt lat="38.920485" lon="16.5243483"><ele>396.0</ele><time>2026-04-07T12:33:50.788Z</time></trkpt><trkpt lat="38.92053" lon="16.5241633"><ele>396.0</ele><time>2026-04-07T12:33:51.788Z</time></trkpt><trkpt lat="38.9205767" lon="16.5239583"><ele>396.0</ele><time>2026-04-07T12:33:52.788Z</time></trkpt><trkpt lat="38.9206367" lon="16.5237617"><ele>396.66666666666663</ele><time>2026-04-07T12:33:53.788Z</time></trkpt><trkpt lat="38.9206967" lon="16.5235783"><ele>397.3333333333333</ele><time>2026-04-07T12:33:54.788Z</time></trkpt><trkpt lat="38.9207683" lon="16.5233967"><ele>398.0</ele><time>2026-04-07T12:33:55.788Z</time></trkpt><trkpt lat="38.920845" lon="16.523235"><ele>397.25</ele><time>2026-04-07T12:33:56.789Z</time></trkpt><trkpt lat="38.9209183" lon="16.52309"><ele>396.5</ele><time>2026-04-07T12:33:57.789Z</time></trkpt><trkpt lat="38.9210133" lon="16.522975"><ele>395.75</ele><time>2026-04-07T12:33:58.789Z</time></trkpt><trkpt lat="38.9211133" lon="16.5229017"><ele>395.0</ele><time>2026-04-07T12:33:59.789Z</time></trkpt><trkpt lat="38.92124" lon="16.5228717"><ele>395.0</ele><time>2026-04-07T12:34:00.789Z</time></trkpt><trkpt lat="38.92138" lon="16.52287"><ele>395.0</ele><time>2026-04-07T12:34:01.788Z</time></trkpt><trkpt lat="38.9215367" lon="16.5228483"><ele>395.0</ele><time>2026-04-07T12:34:02.789Z</time></trkpt><trkpt lat="38.9217067" lon="16.5228233"><ele>401.66666666666663</ele><time>2026-04-07T12:34:03.788Z</time></trkpt><trkpt lat="38.9218767" lon="16.5227967"><ele>408.33333333333337</ele><time>2026-04-07T12:34:04.788Z</time></trkpt><trkpt lat="38.9220367" lon="16.52276"><ele>415.0</ele><time>2026-04-07T12:34:05.789Z</time></trkpt><trkpt lat="38.9221717" lon="16.52273"><ele>415.0</ele><time>2026-04-07T12:34:06.788Z</time></trkpt><trkpt lat="38.92229" lon="16.5226617"><ele>415.0</ele><time>2026-04-07T12:34:07.789Z</time></trkpt><trkpt lat="38.92238" lon="16.522555"><ele>415.0</ele><time>2026-04-07T12:34:08.788Z</time></trkpt><trkpt lat="38.9224233" lon="16.522405"><ele>415.0</ele><time>2026-04-07T12:34:09.789Z</time></trkpt><trkpt lat="38.9224367" lon="16.52223"><ele>414.0</ele><time>2026-04-07T12:34:10.789Z</time></trkpt><trkpt lat="38.9224467" lon="16.5220433"><ele>413.0</ele><time>2026-04-07T12:34:11.789Z</time></trkpt><trkpt lat="38.9224633" lon="16.52184"><ele>412.0</ele><time>2026-04-07T12:34:12.788Z</time></trkpt><trkpt lat="38.9225" lon="16.5216417"><ele>412.0</ele><time>2026-04-07T12:34:13.788Z</time></trkpt><trkpt lat="38.9225433" lon="16.5214467"><ele>412.0</ele><time>2026-04-07T12:34:14.788Z</time></trkpt><trkpt lat="38.9225783" lon="16.521275"><ele>412.0</ele><time>2026-04-07T12:34:15.788Z</time></trkpt><trkpt lat="38.9226167" lon="16.52113"><ele>412.0</ele><time>2026-04-07T12:34:16.789Z</time></trkpt><trkpt lat="38.9226683" lon="16.5210233"><ele>411.40000000000003</ele><time>2026-04-07T12:34:17.788Z</time></trkpt><trkpt lat="38.922735" lon="16.5209783"><ele>410.8</ele><time>2026-04-07T12:34:18.789Z</time></trkpt><trkpt lat="38.9228133" lon="16.5209783"><ele>410.2</ele><time>2026-04-07T12:34:19.788Z</time></trkpt><trkpt lat="38.9228783" lon="16.521045"><ele>409.6</ele><time>2026-04-07T12:34:20.788Z</time></trkpt><trkpt lat="38.9229317" lon="16.5211667"><ele>409.0</ele><time>2026-04-07T12:34:21.788Z</time></trkpt><trkpt lat="38.92295" lon="16.5213267"><ele>415.33333333333337</ele><time>2026-04-07T12:34:22.789Z</time></trkpt><trkpt lat="38.9229617" lon="16.52153"><ele>421.66666666666663</ele><time>2026-04-07T12:34:23.788Z</time></trkpt><trkpt lat="38.92298" lon="16.5217517"><ele>428.0</ele><time>2026-04-07T12:34:24.788Z</time></trkpt><trkpt lat="38.9229983" lon="16.5219667"><ele>429.66666666666663</ele><time>2026-04-07T12:34:25.788Z</time></trkpt><trkpt lat="38.9230133" lon="16.52218"><ele>431.33333333333337</ele><time>2026-04-07T12:34:26.789Z</time></trkpt><trkpt lat="38.9230283" lon="16.5223983"><ele>433.0</ele><time>2026-04-07T12:34:27.788Z</time></trkpt><trkpt lat="38.9230267" lon="16.5226283"><ele>433.0</ele><time>2026-04-07T12:34:28.788Z</time></trkpt><trkpt lat="38.923015" lon="16.52285"><ele>433.0</ele><time>2026-04-07T12:34:29.789Z</time></trkpt><trkpt lat="38.9229967" lon="16.5230567"><ele>433.0</ele><time>2026-04-07T12:34:30.788Z</time></trkpt><trkpt lat="38.923005" lon="16.523285"><ele>433.6666666666667</ele><time>2026-04-07T12:34:31.788Z</time></trkpt><trkpt lat="38.92304" lon="16.5235033"><ele>434.33333333333337</ele><time>2026-04-07T12:34:32.789Z</time></trkpt><trkpt lat="38.9230917" lon="16.5237133"><ele>435.0</ele><time>2026-04-07T12:34:33.789Z</time></trkpt><trkpt lat="38.923145" lon="16.523895"><ele>434.2</ele><time>2026-04-07T12:34:34.788Z</time></trkpt><trkpt lat="38.9231783" lon="16.52406"><ele>433.4</ele><time>2026-04-07T12:34:35.789Z</time></trkpt><trkpt lat="38.923215" lon="16.524195"><ele>432.6</ele><time>2026-04-07T12:34:36.788Z</time></trkpt><trkpt lat="38.9232683" lon="16.5243"><ele>431.8</ele><time>2026-04-07T12:34:37.789Z</time></trkpt><trkpt lat="38.923345" lon="16.5243333"><ele>431.0</ele><time>2026-04-07T12:34:38.788Z</time></trkpt><trkpt lat="38.9234183" lon="16.5243083"><ele>433.20000000000005</ele><time>2026-04-07T12:34:39.789Z</time></trkpt><trkpt lat="38.9234767" lon="16.52424"><ele>435.40000000000003</ele><time>2026-04-07T12:34:40.788Z</time></trkpt><trkpt lat="38.9234983" lon="16.5241267"><ele>437.6</ele><time>2026-04-07T12:34:41.788Z</time></trkpt><trkpt lat="38.9234717" lon="16.5239717"><ele>439.8</ele><time>2026-04-07T12:34:42.788Z</time></trkpt><trkpt lat="38.9234483" lon="16.523805"><ele>442.0</ele><time>2026-04-07T12:34:43.788Z</time></trkpt><trkpt lat="38.9234367" lon="16.52364"><ele>443.25</ele><time>2026-04-07T12:34:44.788Z</time></trkpt><trkpt lat="38.9234483" lon="16.5234733"><ele>444.5</ele><time>2026-04-07T12:34:45.789Z</time></trkpt><trkpt lat="38.9234683" lon="16.5233083"><ele>445.75</ele><time>2026-04-07T12:34:46.788Z</time></trkpt><trkpt lat="38.923505" lon="16.52315"><ele>447.0</ele><time>2026-04-07T12:34:47.789Z</time></trkpt><trkpt lat="38.9235483" lon="16.5229817"><ele>446.75</ele><time>2026-04-07T12:34:48.788Z</time></trkpt><trkpt lat="38.9235983" lon="16.5228067"><ele>446.5</ele><time>2026-04-07T12:34:49.789Z</time></trkpt><trkpt lat="38.9236467" lon="16.52264"><ele>446.25</ele><time>2026-04-07T12:34:50.788Z</time></trkpt><trkpt lat="38.9237067" lon="16.52249"><ele>446.0</ele><time>2026-04-07T12:34:51.789Z</time></trkpt><trkpt lat="38.92379" lon="16.522365"><ele>446.0</ele><time>2026-04-07T12:34:52.788Z</time></trkpt><trkpt lat="38.9238867" lon="16.5222533"><ele>446.0</ele><time>2026-04-07T12:34:53.788Z</time></trkpt><trkpt lat="38.923995" lon="16.5221533"><ele>446.0</ele><time>2026-04-07T12:34:54.788Z</time></trkpt><trkpt lat="38.9241" lon="16.522065"><ele>446.0</ele><time>2026-04-07T12:34:55.788Z</time></trkpt><trkpt lat="38.9242017" lon="16.5220183"><ele>445.0</ele><time>2026-04-07T12:34:56.788Z</time></trkpt><trkpt lat="38.924305" lon="16.5220133"><ele>444.0</ele><time>2026-04-07T12:34:57.789Z</time></trkpt><trkpt lat="38.9244017" lon="16.5220633"><ele>443.0</ele><time>2026-04-07T12:34:58.788Z</time></trkpt><trkpt lat="38.924485" lon="16.52217"><ele>442.0</ele><time>2026-04-07T12:34:59.788Z</time></trkpt><trkpt lat="38.9245433" lon="16.5223017"><ele>441.0</ele><time>2026-04-07T12:35:00.788Z</time></trkpt><trkpt lat="38.9245783" lon="16.5224683"><ele>441.0</ele><time>2026-04-07T12:35:01.789Z</time></trkpt><trkpt lat="38.9245817" lon="16.5226483"><ele>441.0</ele><time>2026-04-07T12:35:02.788Z</time></trkpt><trkpt lat="38.924585" lon="16.5228317"><ele>441.0</ele><time>2026-04-07T12:35:03.789Z</time></trkpt><trkpt lat="38.9246183" lon="16.5229983"><ele>441.0</ele><time>2026-04-07T12:35:04.789Z</time></trkpt><trkpt lat="38.9246883" lon="16.523155"><ele>444.25</ele><time>2026-04-07T12:35:05.788Z</time></trkpt><trkpt lat="38.9247983" lon="16.52328"><ele>447.5</ele><time>2026-04-07T12:35:06.789Z</time></trkpt><trkpt lat="38.9249283" lon="16.5233717"><ele>450.75</ele><time>2026-04-07T12:35:07.788Z</time></trkpt><trkpt lat="38.9250667" lon="16.5234517"><ele>454.0</ele><time>2026-04-07T12:35:08.789Z</time></trkpt><trkpt lat="38.925215" lon="16.52353"><ele>455.75</ele><time>2026-04-07T12:35:09.789Z</time></trkpt><trkpt lat="38.9253533" lon="16.52361"><ele>457.5</ele><time>2026-04-07T12:35:10.788Z</time></trkpt><trkpt lat="38.9254767" lon="16.5236833"><ele>459.25</ele><time>2026-04-07T12:35:11.788Z</time></trkpt><trkpt lat="38.925575" lon="16.5237683"><ele>461.0</ele><time>2026-04-07T12:35:12.788Z</time></trkpt><trkpt lat="38.92566" lon="16.5238683"><ele>461.5</ele><time>2026-04-07T12:35:13.788Z</time></trkpt><trkpt lat="38.9257133" lon="16.5240017"><ele>462.0</ele><time>2026-04-07T12:35:14.788Z</time></trkpt><trkpt lat="38.9257367" lon="16.52416"><ele>462.5</ele><time>2026-04-07T12:35:15.789Z</time></trkpt><trkpt lat="38.92574" lon="16.524335"><ele>463.0</ele><time>2026-04-07T12:35:16.788Z</time></trkpt><trkpt lat="38.9257367" lon="16.5245167"><ele>462.75</ele><time>2026-04-07T12:35:17.788Z</time></trkpt><trkpt lat="38.9257617" lon="16.524695"><ele>462.5</ele><time>2026-04-07T12:35:18.788Z</time></trkpt><trkpt lat="38.9258267" lon="16.5248617"><ele>462.25</ele><time>2026-04-07T12:35:19.788Z</time></trkpt><trkpt lat="38.9258983" lon="16.5250267"><ele>462.0</ele><time>2026-04-07T12:35:20.789Z</time></trkpt><trkpt lat="38.9259667" lon="16.5251883"><ele>464.0</ele><time>2026-04-07T12:35:21.788Z</time></trkpt><trkpt lat="38.9260217" lon="16.5253233"><ele>466.00000000000006</ele><time>2026-04-07T12:35:22.788Z</time></trkpt><trkpt lat="38.9260833" lon="16.5254167"><ele>468.00000000000006</ele><time>2026-04-07T12:35:23.789Z</time></trkpt><trkpt lat="38.9261533" lon="16.52546"><ele>470.0</ele><time>2026-04-07T12:35:24.788Z</time></trkpt><trkpt lat="38.9262233" lon="16.52545"><ele>472.0</ele><time>2026-04-07T12:35:25.788Z</time></trkpt><trkpt lat="38.9262817" lon="16.5253083"><ele>473.25</ele><time>2026-04-07T12:35:27.788Z</time></trkpt><trkpt lat="38.9262467" lon="16.5251917"><ele>474.5</ele><time>2026-04-07T12:35:28.789Z</time></trkpt><trkpt lat="38.9261867" lon="16.52504"><ele>475.75</ele><time>2026-04-07T12:35:29.788Z</time></trkpt><trkpt lat="38.926135" lon="16.5248883"><ele>477.0</ele><time>2026-04-07T12:35:30.789Z</time></trkpt><trkpt lat="38.9261133" lon="16.5247367"><ele>477.0</ele><time>2026-04-07T12:35:31.789Z</time></trkpt><trkpt lat="38.9261167" lon="16.5246"><ele>477.00000000000006</ele><time>2026-04-07T12:35:32.788Z</time></trkpt><trkpt lat="38.9261517" lon="16.52447"><ele>477.00000000000006</ele><time>2026-04-07T12:35:33.789Z</time></trkpt><trkpt lat="38.9262083" lon="16.5243483"><ele>477.0</ele><time>2026-04-07T12:35:34.789Z</time></trkpt><trkpt lat="38.9262767" lon="16.5242267"><ele>477.0</ele><time>2026-04-07T12:35:35.788Z</time></trkpt><trkpt lat="38.9263667" lon="16.5241017"><ele>477.25</ele><time>2026-04-07T12:35:36.789Z</time></trkpt><trkpt lat="38.9264617" lon="16.52397"><ele>477.5</ele><time>2026-04-07T12:35:37.789Z</time></trkpt><trkpt lat="38.926565" lon="16.523845"><ele>477.75</ele><time>2026-04-07T12:35:38.788Z</time></trkpt><trkpt lat="38.9266783" lon="16.523705"><ele>478.0</ele><time>2026-04-07T12:35:39.788Z</time></trkpt><trkpt lat="38.926795" lon="16.52357"><ele>478.0</ele><time>2026-04-07T12:35:40.788Z</time></trkpt><trkpt lat="38.9269033" lon="16.52344"><ele>478.0</ele><time>2026-04-07T12:35:41.788Z</time></trkpt><trkpt lat="38.9270117" lon="16.523305"><ele>478.0</ele><time>2026-04-07T12:35:42.788Z</time></trkpt><trkpt lat="38.9271267" lon="16.5231717"><ele>478.0</ele><time>2026-04-07T12:35:43.789Z</time></trkpt><trkpt lat="38.927235" lon="16.5230383"><ele>478.0</ele><time>2026-04-07T12:35:44.789Z</time></trkpt><trkpt lat="38.92735" lon="16.5229067"><ele>478.0</ele><time>2026-04-07T12:35:45.788Z</time></trkpt><trkpt lat="38.9274617" lon="16.5227717"><ele>479.33333333333337</ele><time>2026-04-07T12:35:46.788Z</time></trkpt><trkpt lat="38.9275783" lon="16.5226333"><ele>480.66666666666663</ele><time>2026-04-07T12:35:47.789Z</time></trkpt><trkpt lat="38.9276967" lon="16.522495"><ele>482.0</ele><time>2026-04-07T12:35:48.788Z</time></trkpt><trkpt lat="38.92781" lon="16.5223683"><ele>482.0</ele><time>2026-04-07T12:35:49.789Z</time></trkpt><trkpt lat="38.9279233" lon="16.5222433"><ele>482.0</ele><time>2026-04-07T12:35:50.788Z</time></trkpt><trkpt lat="38.92804" lon="16.5221067"><ele>482.0</ele><time>2026-04-07T12:35:51.788Z</time></trkpt><trkpt lat="38.9281517" lon="16.52197"><ele>482.0</ele><time>2026-04-07T12:35:52.788Z</time></trkpt><trkpt lat="38.9282667" lon="16.5218317"><ele>482.0</ele><time>2026-04-07T12:35:53.788Z</time></trkpt><trkpt lat="38.9283867" lon="16.52169"><ele>482.0</ele><time>2026-04-07T12:35:54.788Z</time></trkpt><trkpt lat="38.9285067" lon="16.521555"><ele>481.66666666666663</ele><time>2026-04-07T12:35:55.788Z</time></trkpt><trkpt lat="38.92863" lon="16.5214117"><ele>481.33333333333337</ele><time>2026-04-07T12:35:56.789Z</time></trkpt><trkpt lat="38.9287533" lon="16.5212683"><ele>481.0</ele><time>2026-04-07T12:35:57.789Z</time></trkpt><trkpt lat="38.9288783" lon="16.52113"><ele>481.0</ele><time>2026-04-07T12:35:58.788Z</time></trkpt><trkpt lat="38.9290017" lon="16.5209783"><ele>481.0</ele><time>2026-04-07T12:35:59.789Z</time></trkpt><trkpt lat="38.9291083" lon="16.5208383"><ele>481.0</ele><time>2026-04-07T12:36:00.788Z</time></trkpt><trkpt lat="38.9291933" lon="16.5207033"><ele>481.75</ele><time>2026-04-07T12:36:01.788Z</time></trkpt><trkpt lat="38.929255" lon="16.520545"><ele>482.5</ele><time>2026-04-07T12:36:02.789Z</time></trkpt><trkpt lat="38.9292783" lon="16.5203833"><ele>483.25</ele><time>2026-04-07T12:36:03.788Z</time></trkpt><trkpt lat="38.9292733" lon="16.52021"><ele>484.0</ele><time>2026-04-07T12:36:04.788Z</time></trkpt><trkpt lat="38.9292633" lon="16.5200417"><ele>484.0</ele><time>2026-04-07T12:36:05.789Z</time></trkpt><trkpt lat="38.92926" lon="16.5198817"><ele>484.0</ele><time>2026-04-07T12:36:06.789Z</time></trkpt><trkpt lat="38.9292633" lon="16.5197183"><ele>484.0</ele><time>2026-04-07T12:36:07.788Z</time></trkpt><trkpt lat="38.9292633" lon="16.519555"><ele>484.0</ele><time>2026-04-07T12:36:08.789Z</time></trkpt><trkpt lat="38.9292633" lon="16.519385"><ele>486.5</ele><time>2026-04-07T12:36:09.788Z</time></trkpt><trkpt lat="38.9292583" lon="16.5192183"><ele>489.0</ele><time>2026-04-07T12:36:10.788Z</time></trkpt><trkpt lat="38.929255" lon="16.5190433"><ele>491.5</ele><time>2026-04-07T12:36:11.788Z</time></trkpt><trkpt lat="38.9292517" lon="16.5188733"><ele>494.0</ele><time>2026-04-07T12:36:12.788Z</time></trkpt><trkpt lat="38.929255" lon="16.5187283"><ele>495.4</ele><time>2026-04-07T12:36:13.788Z</time></trkpt><trkpt lat="38.9292667" lon="16.5185967"><ele>496.79999999999995</ele><time>2026-04-07T12:36:14.788Z</time></trkpt><trkpt lat="38.9292883" lon="16.5184717"><ele>498.20000000000005</ele><time>2026-04-07T12:36:15.788Z</time></trkpt><trkpt lat="38.9293333" lon="16.518355"><ele>499.6</ele><time>2026-04-07T12:36:16.789Z</time></trkpt><trkpt lat="38.9293933" lon="16.5182433"><ele>501.0</ele><time>2026-04-07T12:36:17.788Z</time></trkpt><trkpt lat="38.929465" lon="16.5181483"><ele>501.0</ele><time>2026-04-07T12:36:18.788Z</time></trkpt><trkpt lat="38.9295383" lon="16.518055"><ele>501.0</ele><time>2026-04-07T12:36:19.789Z</time></trkpt><trkpt lat="38.9296117" lon="16.5179567"><ele>501.0</ele><time>2026-04-07T12:36:20.788Z</time></trkpt><trkpt lat="38.92968" lon="16.5178483"><ele>501.0</ele><time>2026-04-07T12:36:21.788Z</time></trkpt><trkpt lat="38.9297467" lon="16.5177483"><ele>501.0</ele><time>2026-04-07T12:36:22.789Z</time></trkpt><trkpt lat="38.9298233" lon="16.51764"><ele>501.5</ele><time>2026-04-07T12:36:23.788Z</time></trkpt><trkpt lat="38.9299033" lon="16.5175317"><ele>502.0</ele><time>2026-04-07T12:36:24.789Z</time></trkpt><trkpt lat="38.9299917" lon="16.517425"><ele>502.5</ele><time>2026-04-07T12:36:25.788Z</time></trkpt><trkpt lat="38.93008" lon="16.5173167"><ele>503.0</ele><time>2026-04-07T12:36:26.789Z</time></trkpt><trkpt lat="38.9301617" lon="16.517195"><ele>504.75</ele><time>2026-04-07T12:36:27.788Z</time></trkpt><trkpt lat="38.93025" lon="16.5170617"><ele>506.5</ele><time>2026-04-07T12:36:28.788Z</time></trkpt><trkpt lat="38.9303417" lon="16.5169333"><ele>508.25</ele><time>2026-04-07T12:36:29.788Z</time></trkpt><trkpt lat="38.9304367" lon="16.5168067"><ele>510.0</ele><time>2026-04-07T12:36:30.788Z</time></trkpt><trkpt lat="38.930525" lon="16.5166883"><ele>510.0</ele><time>2026-04-07T12:36:31.788Z</time></trkpt><trkpt lat="38.930615" lon="16.5165683"><ele>510.0</ele><time>2026-04-07T12:36:32.788Z</time></trkpt><trkpt lat="38.930705" lon="16.5164483"><ele>510.0</ele><time>2026-04-07T12:36:33.788Z</time></trkpt><trkpt lat="38.9307967" lon="16.51634"><ele>510.0</ele><time>2026-04-07T12:36:34.788Z</time></trkpt><trkpt lat="38.9308883" lon="16.5162533"><ele>509.75</ele><time>2026-04-07T12:36:35.788Z</time></trkpt><trkpt lat="38.930975" lon="16.5161767"><ele>509.5</ele><time>2026-04-07T12:36:36.788Z</time></trkpt><trkpt lat="38.9310817" lon="16.5161383"><ele>509.25</ele><time>2026-04-07T12:36:37.788Z</time></trkpt><trkpt lat="38.9311983" lon="16.5161383"><ele>509.0</ele><time>2026-04-07T12:36:38.789Z</time></trkpt><trkpt lat="38.9313317" lon="16.516145"><ele>509.0</ele><time>2026-04-07T12:36:39.789Z</time></trkpt><trkpt lat="38.9314667" lon="16.5161517"><ele>509.0</ele><time>2026-04-07T12:36:40.788Z</time></trkpt><trkpt lat="38.9316033" lon="16.5161483"><ele>509.0</ele><time>2026-04-07T12:36:41.788Z</time></trkpt><trkpt lat="38.9317383" lon="16.5161333"><ele>509.0</ele><time>2026-04-07T12:36:42.788Z</time></trkpt><trkpt lat="38.9318683" lon="16.5160967"><ele>512.25</ele><time>2026-04-07T12:36:43.789Z</time></trkpt><trkpt lat="38.93198" lon="16.516025"><ele>515.5</ele><time>2026-04-07T12:36:44.789Z</time></trkpt><trkpt lat="38.9320583" lon="16.5159"><ele>518.75</ele><time>2026-04-07T12:36:45.789Z</time></trkpt><trkpt lat="38.9320817" lon="16.5157533"><ele>522.0</ele><time>2026-04-07T12:36:46.789Z</time></trkpt><trkpt lat="38.9320517" lon="16.515605"><ele>522.0</ele><time>2026-04-07T12:36:47.788Z</time></trkpt><trkpt lat="38.9320033" lon="16.5154467"><ele>522.0</ele><time>2026-04-07T12:36:48.788Z</time></trkpt><trkpt lat="38.93195" lon="16.5152817"><ele>522.0</ele><time>2026-04-07T12:36:49.789Z</time></trkpt><trkpt lat="38.9319133" lon="16.5151167"><ele>522.0</ele><time>2026-04-07T12:36:50.788Z</time></trkpt><trkpt lat="38.9319133" lon="16.5149617"><ele>522.75</ele><time>2026-04-07T12:36:51.788Z</time></trkpt><trkpt lat="38.9319533" lon="16.5148217"><ele>523.5</ele><time>2026-04-07T12:36:52.788Z</time></trkpt><trkpt lat="38.93204" lon="16.5146933"><ele>524.25</ele><time>2026-04-07T12:36:53.788Z</time></trkpt><trkpt lat="38.9321517" lon="16.5145933"><ele>525.0</ele><time>2026-04-07T12:36:54.789Z</time></trkpt><trkpt lat="38.932285" lon="16.5145"><ele>525.6666666666666</ele><time>2026-04-07T12:36:55.788Z</time></trkpt><trkpt lat="38.9324267" lon="16.5144217"><ele>526.3333333333333</ele><time>2026-04-07T12:36:56.788Z</time></trkpt><trkpt lat="38.9325667" lon="16.5143517"><ele>527.0</ele><time>2026-04-07T12:36:57.788Z</time></trkpt><trkpt lat="38.9327033" lon="16.5142767"><ele>527.0</ele><time>2026-04-07T12:36:58.788Z</time></trkpt><trkpt lat="38.93283" lon="16.5141833"><ele>527.0</ele><time>2026-04-07T12:36:59.788Z</time></trkpt><trkpt lat="38.9329633" lon="16.5141183"><ele>527.0</ele><time>2026-04-07T12:37:00.788Z</time></trkpt><trkpt lat="38.9331" lon="16.5140767"><ele>527.0</ele><time>2026-04-07T12:37:01.789Z</time></trkpt><trkpt lat="38.933225" lon="16.5140567"><ele>527.0</ele><time>2026-04-07T12:37:02.788Z</time></trkpt><trkpt lat="38.933335" lon="16.5140383"><ele>527.0</ele><time>2026-04-07T12:37:03.788Z</time></trkpt><trkpt lat="38.9334483" lon="16.51407"><ele>527.0</ele><time>2026-04-07T12:37:04.788Z</time></trkpt><trkpt lat="38.93354" lon="16.5141467"><ele>527.0</ele><time>2026-04-07T12:37:05.789Z</time></trkpt><trkpt lat="38.9336167" lon="16.514245"><ele>527.0</ele><time>2026-04-07T12:37:06.789Z</time></trkpt><trkpt lat="38.9337083" lon="16.5143467"><ele>528.2</ele><time>2026-04-07T12:37:07.788Z</time></trkpt><trkpt lat="38.9338033" lon="16.5144083"><ele>529.4000000000001</ele><time>2026-04-07T12:37:08.788Z</time></trkpt><trkpt lat="38.9339" lon="16.51443"><ele>530.5999999999999</ele><time>2026-04-07T12:37:09.789Z</time></trkpt><trkpt lat="38.9340017" lon="16.5144217"><ele>531.8</ele><time>2026-04-07T12:37:10.788Z</time></trkpt><trkpt lat="38.9340967" lon="16.5143817"><ele>533.0</ele><time>2026-04-07T12:37:11.788Z</time></trkpt><trkpt lat="38.9341933" lon="16.5143383"><ele>534.0</ele><time>2026-04-07T12:37:12.788Z</time></trkpt><trkpt lat="38.93429" lon="16.5142867"><ele>535.0</ele><time>2026-04-07T12:37:13.788Z</time></trkpt><trkpt lat="38.9343783" lon="16.5142183"><ele>536.0</ele><time>2026-04-07T12:37:14.789Z</time></trkpt><trkpt lat="38.9344617" lon="16.514155"><ele>537.0</ele><time>2026-04-07T12:37:15.789Z</time></trkpt><trkpt lat="38.9345583" lon="16.5141133"><ele>538.0</ele><time>2026-04-07T12:37:16.788Z</time></trkpt><trkpt lat="38.934655" lon="16.5141033"><ele>538.0</ele><time>2026-04-07T12:37:17.788Z</time></trkpt><trkpt lat="38.934745" lon="16.51415"><ele>538.0</ele><time>2026-04-07T12:37:18.788Z</time></trkpt><trkpt lat="38.9348417" lon="16.5142017"><ele>538.0</ele><time>2026-04-07T12:37:19.789Z</time></trkpt><trkpt lat="38.9349583" lon="16.5142283"><ele>538.0</ele><time>2026-04-07T12:37:20.788Z</time></trkpt><trkpt lat="38.9350817" lon="16.5142367"><ele>538.0</ele><time>2026-04-07T12:37:21.788Z</time></trkpt><trkpt lat="38.9352133" lon="16.514235"><ele>541.0</ele><time>2026-04-07T12:37:22.788Z</time></trkpt><trkpt lat="38.93535" lon="16.5142217"><ele>544.0</ele><time>2026-04-07T12:37:23.789Z</time></trkpt><trkpt lat="38.9354783" lon="16.5142083"><ele>547.0</ele><time>2026-04-07T12:37:24.788Z</time></trkpt><trkpt lat="38.9356" lon="16.514165"><ele>550.0</ele><time>2026-04-07T12:37:25.788Z</time></trkpt><trkpt lat="38.935705" lon="16.514075"><ele>550.0</ele><time>2026-04-07T12:37:26.788Z</time></trkpt><trkpt lat="38.9357767" lon="16.5139333"><ele>550.0</ele><time>2026-04-07T12:37:27.789Z</time></trkpt><trkpt lat="38.935825" lon="16.5137833"><ele>550.0</ele><time>2026-04-07T12:37:28.789Z</time></trkpt><trkpt lat="38.9358833" lon="16.5136567"><ele>550.0</ele><time>2026-04-07T12:37:29.788Z</time></trkpt><trkpt lat="38.9359517" lon="16.5135733"><ele>550.0</ele><time>2026-04-07T12:37:30.788Z</time></trkpt><trkpt lat="38.936035" lon="16.51353"><ele>550.0</ele><time>2026-04-07T12:37:31.789Z</time></trkpt><trkpt lat="38.9361267" lon="16.5135283"><ele>550.0</ele><time>2026-04-07T12:37:32.788Z</time></trkpt><trkpt lat="38.93623" lon="16.5135583"><ele>550.0</ele><time>2026-04-07T12:37:33.788Z</time></trkpt><trkpt lat="38.9363367" lon="16.5135733"><ele>550.0</ele><time>2026-04-07T12:37:34.788Z</time></trkpt><trkpt lat="38.9364433" lon="16.51355"><ele>550.0</ele><time>2026-04-07T12:37:35.789Z</time></trkpt><trkpt lat="38.9365317" lon="16.5134717"><ele>550.0</ele><time>2026-04-07T12:37:36.788Z</time></trkpt><trkpt lat="38.9365867" lon="16.513355"><ele>550.0</ele><time>2026-04-07T12:37:37.789Z</time></trkpt><trkpt lat="38.9366383" lon="16.5132267"><ele>550.0</ele><time>2026-04-07T12:37:38.788Z</time></trkpt><trkpt lat="38.9366867" lon="16.5131217"><ele>550.0</ele><time>2026-04-07T12:37:39.789Z</time></trkpt><trkpt lat="38.936755" lon="16.51304"><ele>552.2</ele><time>2026-04-07T12:37:40.788Z</time></trkpt><trkpt lat="38.9368367" lon="16.513005"><ele>554.4</ele><time>2026-04-07T12:37:41.788Z</time></trkpt><trkpt lat="38.9369167" lon="16.5129933"><ele>556.6</ele><time>2026-04-07T12:37:42.788Z</time></trkpt><trkpt lat="38.9370183" lon="16.5130183"><ele>558.8</ele><time>2026-04-07T12:37:43.789Z</time></trkpt><trkpt lat="38.9371367" lon="16.513055"><ele>561.0</ele><time>2026-04-07T12:37:44.789Z</time></trkpt><trkpt lat="38.9372633" lon="16.5130933"><ele>561.0</ele><time>2026-04-07T12:37:45.788Z</time></trkpt><trkpt lat="38.9373933" lon="16.5131283"><ele>561.0</ele><time>2026-04-07T12:37:46.789Z</time></trkpt><trkpt lat="38.93753" lon="16.513165"><ele>561.0</ele><time>2026-04-07T12:37:47.788Z</time></trkpt><trkpt lat="38.9376467" lon="16.5132033"><ele>561.0</ele><time>2026-04-07T12:37:48.788Z</time></trkpt><trkpt lat="38.937755" lon="16.5132133"><ele>564.0</ele><time>2026-04-07T12:37:49.788Z</time></trkpt><trkpt lat="38.937845" lon="16.51318"><ele>567.0</ele><time>2026-04-07T12:37:50.788Z</time></trkpt><trkpt lat="38.9379233" lon="16.5131083"><ele>570.0</ele><time>2026-04-07T12:37:51.788Z</time></trkpt><trkpt lat="38.937975" lon="16.5130017"><ele>573.0</ele><time>2026-04-07T12:37:52.788Z</time></trkpt><trkpt lat="38.9380083" lon="16.5128717"><ele>576.0</ele><time>2026-04-07T12:37:53.788Z</time></trkpt><trkpt lat="38.9380233" lon="16.5127283"><ele>576.0</ele><time>2026-04-07T12:37:54.788Z</time></trkpt><trkpt lat="38.938015" lon="16.512575"><ele>576.0</ele><time>2026-04-07T12:37:55.788Z</time></trkpt><trkpt lat="38.9379817" lon="16.5124167"><ele>576.0</ele><time>2026-04-07T12:37:56.789Z</time></trkpt><trkpt lat="38.937975" lon="16.5122667"><ele>576.0</ele><time>2026-04-07T12:37:57.788Z</time></trkpt><trkpt lat="38.9379733" lon="16.5121333"><ele>574.5</ele><time>2026-04-07T12:37:58.789Z</time></trkpt><trkpt lat="38.9379983" lon="16.5120367"><ele>573.0</ele><time>2026-04-07T12:37:59.788Z</time></trkpt><trkpt lat="38.9380483" lon="16.5119733"><ele>571.5</ele><time>2026-04-07T12:38:00.788Z</time></trkpt><trkpt lat="38.9381183" lon="16.5119533"><ele>570.0</ele><time>2026-04-07T12:38:01.788Z</time></trkpt><trkpt lat="38.9382083" lon="16.5119617"><ele>568.5</ele><time>2026-04-07T12:38:02.788Z</time></trkpt><trkpt lat="38.938325" lon="16.511995"><ele>567.0</ele><time>2026-04-07T12:38:03.788Z</time></trkpt><trkpt lat="38.9384683" lon="16.5120433"><ele>567.0</ele><time>2026-04-07T12:38:04.789Z</time></trkpt><trkpt lat="38.9386317" lon="16.5120683"><ele>567.0</ele><time>2026-04-07T12:38:05.788Z</time></trkpt><trkpt lat="38.93878" lon="16.51207"><ele>567.0</ele><time>2026-04-07T12:38:06.789Z</time></trkpt><trkpt lat="38.938935" lon="16.51206"><ele>567.0</ele><time>2026-04-07T12:38:07.788Z</time></trkpt><trkpt lat="38.939095" lon="16.5120683"><ele>567.0</ele><time>2026-04-07T12:38:08.789Z</time></trkpt><trkpt lat="38.939245" lon="16.5121167"><ele>567.0</ele><time>2026-04-07T12:38:09.788Z</time></trkpt><trkpt lat="38.9393883" lon="16.5121933"><ele>574.4</ele><time>2026-04-07T12:38:10.788Z</time></trkpt><trkpt lat="38.9395133" lon="16.512255"><ele>581.8000000000001</ele><time>2026-04-07T12:38:11.788Z</time></trkpt><trkpt lat="38.93962" lon="16.5123067"><ele>589.2</ele><time>2026-04-07T12:38:12.789Z</time></trkpt><trkpt lat="38.9397183" lon="16.51233"><ele>596.6</ele><time>2026-04-07T12:38:13.788Z</time></trkpt><trkpt lat="38.93981" lon="16.5123133"><ele>604.0</ele><time>2026-04-07T12:38:14.788Z</time></trkpt><trkpt lat="38.939885" lon="16.512245"><ele>604.0</ele><time>2026-04-07T12:38:15.788Z</time></trkpt><trkpt lat="38.9399367" lon="16.51212"><ele>604.0</ele><time>2026-04-07T12:38:16.788Z</time></trkpt><trkpt lat="38.9399633" lon="16.5119483"><ele>604.0</ele><time>2026-04-07T12:38:17.788Z</time></trkpt><trkpt lat="38.93995" lon="16.5117433"><ele>604.0</ele><time>2026-04-07T12:38:18.788Z</time></trkpt><trkpt lat="38.93993" lon="16.5115367"><ele>603.25</ele><time>2026-04-07T12:38:19.788Z</time></trkpt><trkpt lat="38.9399083" lon="16.5113583"><ele>602.5</ele><time>2026-04-07T12:38:20.788Z</time></trkpt><trkpt lat="38.93983" lon="16.5112"><ele>601.75</ele><time>2026-04-07T12:38:21.788Z</time></trkpt><trkpt lat="38.939725" lon="16.5110717"><ele>601.0</ele><time>2026-04-07T12:38:22.788Z</time></trkpt><trkpt lat="38.9395967" lon="16.5109883"><ele>601.0</ele><time>2026-04-07T12:38:23.788Z</time></trkpt><trkpt lat="38.93948" lon="16.5109083"><ele>601.0</ele><time>2026-04-07T12:38:24.789Z</time></trkpt><trkpt lat="38.9393883" lon="16.5107917"><ele>601.0</ele><time>2026-04-07T12:38:25.788Z</time></trkpt><trkpt lat="38.9393183" lon="16.5106533"><ele>601.0</ele><time>2026-04-07T12:38:26.788Z</time></trkpt><trkpt lat="38.93927" lon="16.5105033"><ele>600.25</ele><time>2026-04-07T12:38:27.789Z</time></trkpt><trkpt lat="38.9392617" lon="16.5103417"><ele>599.5</ele><time>2026-04-07T12:38:28.788Z</time></trkpt><trkpt lat="38.939285" lon="16.51018"><ele>598.75</ele><time>2026-04-07T12:38:29.788Z</time></trkpt><trkpt lat="38.9393217" lon="16.51004"><ele>598.0</ele><time>2026-04-07T12:38:30.788Z</time></trkpt><trkpt lat="38.9393667" lon="16.5098983"><ele>598.0</ele><time>2026-04-07T12:38:31.788Z</time></trkpt><trkpt lat="38.9394267" lon="16.5097917"><ele>598.0</ele><time>2026-04-07T12:38:32.788Z</time></trkpt><trkpt lat="38.9395217" lon="16.509715"><ele>598.0</ele><time>2026-04-07T12:38:33.788Z</time></trkpt><trkpt lat="38.9396367" lon="16.5096867"><ele>598.0</ele><time>2026-04-07T12:38:34.788Z</time></trkpt><trkpt lat="38.9397617" lon="16.50968"><ele>598.0</ele><time>2026-04-07T12:38:35.788Z</time></trkpt><trkpt lat="38.939895" lon="16.509685"><ele>598.0</ele><time>2026-04-07T12:38:36.788Z</time></trkpt><trkpt lat="38.94004" lon="16.5097133"><ele>598.0</ele><time>2026-04-07T12:38:37.789Z</time></trkpt><trkpt lat="38.9401717" lon="16.5097767"><ele>598.0</ele><time>2026-04-07T12:38:38.789Z</time></trkpt><trkpt lat="38.940295" lon="16.5098733"><ele>601.0</ele><time>2026-04-07T12:38:39.788Z</time></trkpt><trkpt lat="38.9404167" lon="16.5099517"><ele>604.0</ele><time>2026-04-07T12:38:40.788Z</time></trkpt><trkpt lat="38.9405433" lon="16.5099867"><ele>607.0</ele><time>2026-04-07T12:38:41.788Z</time></trkpt><trkpt lat="38.94067" lon="16.5099617"><ele>610.0</ele><time>2026-04-07T12:38:42.788Z</time></trkpt><trkpt lat="38.940785" lon="16.5098867"><ele>611.4</ele><time>2026-04-07T12:38:43.788Z</time></trkpt><trkpt lat="38.940885" lon="16.50979"><ele>612.8</ele><time>2026-04-07T12:38:44.788Z</time></trkpt><trkpt lat="38.9409683" lon="16.5097033"><ele>614.2</ele><time>2026-04-07T12:38:45.788Z</time></trkpt><trkpt lat="38.94103" lon="16.5096417"><ele>615.6</ele><time>2026-04-07T12:38:46.789Z</time></trkpt><trkpt lat="38.941075" lon="16.509535"><ele>617.0</ele><time>2026-04-07T12:38:48.788Z</time></trkpt><trkpt lat="38.9410817" lon="16.5094417"><ele>617.0</ele><time>2026-04-07T12:38:51.789Z</time></trkpt><trkpt lat="38.9411083" lon="16.5093667"><ele>617.0</ele><time>2026-04-07T12:38:57.788Z</time></trkpt><trkpt lat="38.94115" lon="16.5093017"><ele>617.0</ele><time>2026-04-07T12:38:59.789Z</time></trkpt><trkpt lat="38.9411817" lon="16.5092317"><ele>617.0</ele><time>2026-04-07T12:39:02.788Z</time></trkpt><trkpt lat="38.94116" lon="16.5091517"><ele>617.0</ele><time>2026-04-07T12:39:04.788Z</time></trkpt><trkpt lat="38.9410783" lon="16.5090167"><ele>617.0</ele><time>2026-04-07T12:39:06.788Z</time></trkpt><trkpt lat="38.94103" lon="16.5089183"><ele>617.0</ele><time>2026-04-07T12:39:07.789Z</time></trkpt><trkpt lat="38.9409717" lon="16.5088167"><ele>617.0</ele><time>2026-04-07T12:39:08.788Z</time></trkpt><trkpt lat="38.9409083" lon="16.50871"><ele>617.0</ele><time>2026-04-07T12:39:09.788Z</time></trkpt><trkpt lat="38.940845" lon="16.5086083"><ele>617.0</ele><time>2026-04-07T12:39:10.788Z</time></trkpt><trkpt lat="38.940785" lon="16.50852"><ele>617.0</ele><time>2026-04-07T12:39:11.789Z</time></trkpt><trkpt lat="38.9407317" lon="16.5084333"><ele>612.8000000000001</ele><time>2026-04-07T12:39:12.788Z</time></trkpt><trkpt lat="38.9406817" lon="16.508345"><ele>608.6</ele><time>2026-04-07T12:39:13.789Z</time></trkpt><trkpt lat="38.940645" lon="16.5082767"><ele>604.4000000000001</ele><time>2026-04-07T12:39:14.788Z</time></trkpt><trkpt lat="38.9405967" lon="16.508145"><ele>600.2</ele><time>2026-04-07T12:39:16.788Z</time></trkpt><trkpt lat="38.9406283" lon="16.5080233"><ele>596.0</ele><time>2026-04-07T12:39:18.789Z</time></trkpt><trkpt lat="38.9407517" lon="16.507955"><ele>596.0</ele><time>2026-04-07T12:39:20.788Z</time></trkpt><trkpt lat="38.94085" lon="16.5079233"><ele>596.0</ele><time>2026-04-07T12:39:21.789Z</time></trkpt><trkpt lat="38.94097" lon="16.5079"><ele>596.0</ele><time>2026-04-07T12:39:22.788Z</time></trkpt><trkpt lat="38.94109" lon="16.507885"><ele>596.0</ele><time>2026-04-07T12:39:23.788Z</time></trkpt><trkpt lat="38.9411883" lon="16.5078583"><ele>596.0</ele><time>2026-04-07T12:39:24.788Z</time></trkpt><trkpt lat="38.941285" lon="16.5078383"><ele>595.6666666666666</ele><time>2026-04-07T12:39:25.788Z</time></trkpt><trkpt lat="38.9413833" lon="16.5078133"><ele>595.3333333333333</ele><time>2026-04-07T12:39:26.788Z</time></trkpt><trkpt lat="38.94147" lon="16.507795"><ele>595.0</ele><time>2026-04-07T12:39:27.789Z</time></trkpt><trkpt lat="38.94155" lon="16.507765"><ele>594.6666666666666</ele><time>2026-04-07T12:39:28.789Z</time></trkpt><trkpt lat="38.941625" lon="16.5077233"><ele>594.3333333333334</ele><time>2026-04-07T12:39:29.788Z</time></trkpt><trkpt lat="38.9416817" lon="16.5076567"><ele>594.0</ele><time>2026-04-07T12:39:30.788Z</time></trkpt><trkpt lat="38.9417183" lon="16.5075733"><ele>594.0</ele><time>2026-04-07T12:39:31.788Z</time></trkpt><trkpt lat="38.9417433" lon="16.50748"><ele>594.0</ele><time>2026-04-07T12:39:32.789Z</time></trkpt><trkpt lat="38.9417333" lon="16.5073883"><ele>594.0</ele><time>2026-04-07T12:39:33.789Z</time></trkpt><trkpt lat="38.941695" lon="16.5073"><ele>594.0</ele><time>2026-04-07T12:39:34.788Z</time></trkpt><trkpt lat="38.9416267" lon="16.50722"><ele>594.0</ele><time>2026-04-07T12:39:35.789Z</time></trkpt><trkpt lat="38.9415467" lon="16.5071467"><ele>594.0</ele><time>2026-04-07T12:39:36.788Z</time></trkpt><trkpt lat="38.94146" lon="16.5070883"><ele>594.0</ele><time>2026-04-07T12:39:37.789Z</time></trkpt><trkpt lat="38.941385" lon="16.5070517"><ele>594.0</ele><time>2026-04-07T12:39:38.788Z</time></trkpt><trkpt lat="38.9413133" lon="16.5070283"><ele>594.0</ele><time>2026-04-07T12:39:39.789Z</time></trkpt><trkpt lat="38.94125" lon="16.5070133"><ele>594.0</ele><time>2026-04-07T12:39:40.788Z</time></trkpt><trkpt lat="38.94118" lon="16.507"><ele>594.0</ele><time>2026-04-07T12:39:42.789Z</time></trkpt><trkpt lat="38.9411117" lon="16.5069633"><ele>594.0</ele><time>2026-04-07T12:39:52.788Z</time></trkpt><trkpt lat="38.9410683" lon="16.5070283"><ele>594.0</ele><time>2026-04-07T12:39:55.788Z</time></trkpt><trkpt lat="38.941145" lon="16.507075"><ele>594.0</ele><time>2026-04-07T12:39:58.789Z</time></trkpt><trkpt lat="38.9412667" lon="16.5070833"><ele>594.0</ele><time>2026-04-07T12:40:00.788Z</time></trkpt><trkpt lat="38.9413333" lon="16.5070933"><ele>594.0</ele><time>2026-04-07T12:40:01.788Z</time></trkpt><trkpt lat="38.9414067" lon="16.50711"><ele>594.0</ele><time>2026-04-07T12:40:02.788Z</time></trkpt><trkpt lat="38.9414733" lon="16.5071433"><ele>594.0</ele><time>2026-04-07T12:40:03.788Z</time></trkpt><trkpt lat="38.941535" lon="16.507195"><ele>594.0</ele><time>2026-04-07T12:40:04.788Z</time></trkpt><trkpt lat="38.9415983" lon="16.507275"><ele>594.0</ele><time>2026-04-07T12:40:05.788Z</time></trkpt><trkpt lat="38.9416517" lon="16.5073633"><ele>594.0</ele><time>2026-04-07T12:40:06.788Z</time></trkpt><trkpt lat="38.9416783" lon="16.50746"><ele>594.0</ele><time>2026-04-07T12:40:07.788Z</time></trkpt><trkpt lat="38.9416717" lon="16.5075683"><ele>594.0</ele><time>2026-04-07T12:40:08.788Z</time></trkpt><trkpt lat="38.9416417" lon="16.5076683"><ele>594.0</ele><time>2026-04-07T12:40:09.789Z</time></trkpt><trkpt lat="38.9415783" lon="16.50775"><ele>594.0</ele><time>2026-04-07T12:40:10.788Z</time></trkpt><trkpt lat="38.9414833" lon="16.5077983"><ele>594.0</ele><time>2026-04-07T12:40:11.788Z</time></trkpt><trkpt lat="38.94137" lon="16.507835"><ele>594.0</ele><time>2026-04-07T12:40:12.788Z</time></trkpt><trkpt lat="38.9412283" lon="16.50786"><ele>594.0</ele><time>2026-04-07T12:40:13.788Z</time></trkpt><trkpt lat="38.941085" lon="16.50788"><ele>594.0</ele><time>2026-04-07T12:40:14.788Z</time></trkpt><trkpt lat="38.94094" lon="16.5079117"><ele>594.5</ele><time>2026-04-07T12:40:15.788Z</time></trkpt><trkpt lat="38.940795" lon="16.5079417"><ele>595.0</ele><time>2026-04-07T12:40:16.788Z</time></trkpt><trkpt lat="38.940675" lon="16.5079733"><ele>595.5</ele><time>2026-04-07T12:40:17.788Z</time></trkpt><trkpt lat="38.9405817" lon="16.5080417"><ele>596.0</ele><time>2026-04-07T12:40:18.788Z</time></trkpt><trkpt lat="38.9405217" lon="16.5081133"><ele>596.0</ele><time>2026-04-07T12:40:19.788Z</time></trkpt><trkpt lat="38.9405117" lon="16.5082183"><ele>596.0</ele><time>2026-04-07T12:40:20.788Z</time></trkpt><trkpt lat="38.9405333" lon="16.5083367"><ele>596.0</ele><time>2026-04-07T12:40:21.788Z</time></trkpt><trkpt lat="38.940605" lon="16.5084433"><ele>596.0</ele><time>2026-04-07T12:40:22.788Z</time></trkpt><trkpt lat="38.940705" lon="16.50854"><ele>596.0</ele><time>2026-04-07T12:40:23.788Z</time></trkpt><trkpt lat="38.9408" lon="16.5086433"><ele>599.5</ele><time>2026-04-07T12:40:24.788Z</time></trkpt><trkpt lat="38.9408933" lon="16.5087417"><ele>603.0</ele><time>2026-04-07T12:40:25.788Z</time></trkpt><trkpt lat="38.9409783" lon="16.508855"><ele>606.5</ele><time>2026-04-07T12:40:26.788Z</time></trkpt><trkpt lat="38.9410617" lon="16.508975"><ele>610.0</ele><time>2026-04-07T12:40:27.788Z</time></trkpt><trkpt lat="38.94114" lon="16.5091033"><ele>611.4</ele><time>2026-04-07T12:40:28.788Z</time></trkpt><trkpt lat="38.941205" lon="16.5092167"><ele>612.8</ele><time>2026-04-07T12:40:29.788Z</time></trkpt><trkpt lat="38.9412683" lon="16.5093417"><ele>614.2</ele><time>2026-04-07T12:40:30.788Z</time></trkpt><trkpt lat="38.9413383" lon="16.5094417"><ele>615.6</ele><time>2026-04-07T12:40:31.788Z</time></trkpt><trkpt lat="38.9413533" lon="16.5095517"><ele>617.0</ele><time>2026-04-07T12:40:32.789Z</time></trkpt><trkpt lat="38.9413383" lon="16.509665"><ele>619.0</ele><time>2026-04-07T12:40:33.788Z</time></trkpt><trkpt lat="38.9412933" lon="16.5097667"><ele>621.0</ele><time>2026-04-07T12:40:34.789Z</time></trkpt><trkpt lat="38.9412117" lon="16.5098517"><ele>623.0</ele><time>2026-04-07T12:40:35.788Z</time></trkpt><trkpt lat="38.941095" lon="16.5099333"><ele>625.0</ele><time>2026-04-07T12:40:36.788Z</time></trkpt><trkpt lat="38.94098" lon="16.5100283"><ele>623.5</ele><time>2026-04-07T12:40:37.788Z</time></trkpt><trkpt lat="38.94086" lon="16.5101267"><ele>622.0</ele><time>2026-04-07T12:40:38.789Z</time></trkpt><trkpt lat="38.940765" lon="16.5102367"><ele>620.5</ele><time>2026-04-07T12:40:39.789Z</time></trkpt><trkpt lat="38.9406783" lon="16.5103433"><ele>619.0</ele><time>2026-04-07T12:40:40.789Z</time></trkpt><trkpt lat="38.9406033" lon="16.5104483"><ele>619.0</ele><time>2026-04-07T12:40:41.788Z</time></trkpt><trkpt lat="38.9405367" lon="16.510555"><ele>619.0</ele><time>2026-04-07T12:40:42.788Z</time></trkpt><trkpt lat="38.940495" lon="16.5106833"><ele>619.0</ele><time>2026-04-07T12:40:43.788Z</time></trkpt><trkpt lat="38.940475" lon="16.51082"><ele>619.0</ele><time>2026-04-07T12:40:44.788Z</time></trkpt><trkpt lat="38.9404783" lon="16.5109933"><ele>619.0</ele><time>2026-04-07T12:40:45.788Z</time></trkpt><trkpt lat="38.94051" lon="16.5111617"><ele>619.0</ele><time>2026-04-07T12:40:46.788Z</time></trkpt><trkpt lat="38.940555" lon="16.5113283"><ele>619.0</ele><time>2026-04-07T12:40:47.788Z</time></trkpt><trkpt lat="38.9406" lon="16.5114883"><ele>619.0</ele><time>2026-04-07T12:40:48.788Z</time></trkpt><trkpt lat="38.940655" lon="16.51163"><ele>618.8333333333334</ele><time>2026-04-07T12:40:49.789Z</time></trkpt><trkpt lat="38.940715" lon="16.5117517"><ele>618.6666666666667</ele><time>2026-04-07T12:40:50.789Z</time></trkpt><trkpt lat="38.940785" lon="16.5118333"><ele>618.5</ele><time>2026-04-07T12:40:51.789Z</time></trkpt><trkpt lat="38.9408667" lon="16.511865"><ele>618.3333333333334</ele><time>2026-04-07T12:40:52.788Z</time></trkpt><trkpt lat="38.9409467" lon="16.5118583"><ele>618.1666666666666</ele><time>2026-04-07T12:40:53.789Z</time></trkpt><trkpt lat="38.9410167" lon="16.5118167"><ele>618.0</ele><time>2026-04-07T12:40:54.789Z</time></trkpt><trkpt lat="38.94109" lon="16.51174"><ele>618.6</ele><time>2026-04-07T12:40:55.788Z</time></trkpt><trkpt lat="38.9411467" lon="16.5116433"><ele>619.1999999999999</ele><time>2026-04-07T12:40:56.788Z</time></trkpt><trkpt lat="38.9412067" lon="16.5115167"><ele>619.8</ele><time>2026-04-07T12:40:57.788Z</time></trkpt><trkpt lat="38.9412633" lon="16.511385"><ele>620.4</ele><time>2026-04-07T12:40:58.788Z</time></trkpt><trkpt lat="38.94133" lon="16.5112667"><ele>621.0</ele><time>2026-04-07T12:40:59.788Z</time></trkpt><trkpt lat="38.9413917" lon="16.5111533"><ele>621.0</ele><time>2026-04-07T12:41:00.789Z</time></trkpt><trkpt lat="38.9414517" lon="16.5110583"><ele>621.0</ele><time>2026-04-07T12:41:01.788Z</time></trkpt><trkpt lat="38.9415033" lon="16.5109833"><ele>621.0</ele><time>2026-04-07T12:41:02.788Z</time></trkpt><trkpt lat="38.9415867" lon="16.5108967"><ele>621.0</ele><time>2026-04-07T12:41:04.788Z</time></trkpt><trkpt lat="38.941615" lon="16.5108217"><ele>621.0</ele><time>2026-04-07T12:41:07.788Z</time></trkpt><trkpt lat="38.941545" lon="16.5108633"><ele>621.0</ele><time>2026-04-07T12:41:11.788Z</time></trkpt><trkpt lat="38.9414567" lon="16.5109417"><ele>621.0</ele><time>2026-04-07T12:41:13.788Z</time></trkpt><trkpt lat="38.9413883" lon="16.51104"><ele>621.0</ele><time>2026-04-07T12:41:15.789Z</time></trkpt><trkpt lat="38.9413383" lon="16.5111083"><ele>621.0</ele><time>2026-04-07T12:41:17.788Z</time></trkpt><trkpt lat="38.9413117" lon="16.5111967"><ele>621.0</ele><time>2026-04-07T12:41:22.789Z</time></trkpt><trkpt lat="38.9413833" lon="16.51121"><ele>621.0</ele><time>2026-04-07T12:41:26.788Z</time></trkpt><trkpt lat="38.9414133" lon="16.51113"><ele>621.0</ele><time>2026-04-07T12:44:10.789Z</time></trkpt><trkpt lat="38.9414567" lon="16.51105"><ele>621.0</ele><time>2026-04-07T12:44:12.788Z</time></trkpt><trkpt lat="38.9415033" lon="16.5109917"><ele>621.0</ele><time>2026-04-07T12:44:13.789Z</time></trkpt><trkpt lat="38.9415633" lon="16.5109233"><ele>621.0</ele><time>2026-04-07T12:44:14.788Z</time></trkpt><trkpt lat="38.941645" lon="16.5108467"><ele>621.0</ele><time>2026-04-07T12:44:15.788Z</time></trkpt><trkpt lat="38.9417383" lon="16.5107767"><ele>621.0</ele><time>2026-04-07T12:44:16.789Z</time></trkpt><trkpt lat="38.9418517" lon="16.510705"><ele>621.5</ele><time>2026-04-07T12:44:17.789Z</time></trkpt><trkpt lat="38.941955" lon="16.5106083"><ele>622.0</ele><time>2026-04-07T12:44:18.788Z</time></trkpt><trkpt lat="38.94206" lon="16.5105133"><ele>622.5</ele><time>2026-04-07T12:44:19.789Z</time></trkpt><trkpt lat="38.9421417" lon="16.5103883"><ele>623.0</ele><time>2026-04-07T12:44:20.788Z</time></trkpt><trkpt lat="38.94221" lon="16.5102483"><ele>623.0</ele><time>2026-04-07T12:44:21.788Z</time></trkpt><trkpt lat="38.9422717" lon="16.5101083"><ele>623.0</ele><time>2026-04-07T12:44:22.788Z</time></trkpt><trkpt lat="38.9423383" lon="16.509965"><ele>623.0</ele><time>2026-04-07T12:44:23.788Z</time></trkpt><trkpt lat="38.9424333" lon="16.5098317"><ele>623.0</ele><time>2026-04-07T12:44:24.788Z</time></trkpt><trkpt lat="38.942535" lon="16.5097117"><ele>623.25</ele><time>2026-04-07T12:44:25.788Z</time></trkpt><trkpt lat="38.9426383" lon="16.5096133"><ele>623.5</ele><time>2026-04-07T12:44:26.788Z</time></trkpt><trkpt lat="38.94276" lon="16.50955"><ele>623.75</ele><time>2026-04-07T12:44:27.789Z</time></trkpt><trkpt lat="38.94289" lon="16.509515"><ele>624.0</ele><time>2026-04-07T12:44:28.789Z</time></trkpt><trkpt lat="38.94302" lon="16.509535"><ele>626.5</ele><time>2026-04-07T12:44:29.789Z</time></trkpt><trkpt lat="38.9431533" lon="16.5095433"><ele>629.0</ele><time>2026-04-07T12:44:30.789Z</time></trkpt><trkpt lat="38.9432867" lon="16.5095683"><ele>631.5</ele><time>2026-04-07T12:44:31.788Z</time></trkpt><trkpt lat="38.9433967" lon="16.5095533"><ele>634.0</ele><time>2026-04-07T12:44:32.788Z</time></trkpt><trkpt lat="38.9436067" lon="16.509555"><ele>634.2</ele><time>2026-04-07T12:44:34.789Z</time></trkpt><trkpt lat="38.9437083" lon="16.50954"><ele>634.4</ele><time>2026-04-07T12:44:35.788Z</time></trkpt><trkpt lat="38.94381" lon="16.5095033"><ele>634.6</ele><time>2026-04-07T12:44:36.788Z</time></trkpt><trkpt lat="38.9439133" lon="16.5094733"><ele>634.8</ele><time>2026-04-07T12:44:37.788Z</time></trkpt><trkpt lat="38.9440233" lon="16.50943"><ele>635.0</ele><time>2026-04-07T12:44:38.789Z</time></trkpt><trkpt lat="38.944135" lon="16.5093617"><ele>633.5</ele><time>2026-04-07T12:44:39.789Z</time></trkpt><trkpt lat="38.9442433" lon="16.5092733"><ele>632.0</ele><time>2026-04-07T12:44:40.789Z</time></trkpt><trkpt lat="38.94436" lon="16.509185"><ele>630.5</ele><time>2026-04-07T12:44:41.788Z</time></trkpt><trkpt lat="38.9444733" lon="16.5091067"><ele>629.0</ele><time>2026-04-07T12:44:42.788Z</time></trkpt><trkpt lat="38.9445717" lon="16.509035"><ele>629.0</ele><time>2026-04-07T12:44:43.789Z</time></trkpt><trkpt lat="38.94466" lon="16.508965"><ele>629.0</ele><time>2026-04-07T12:44:44.788Z</time></trkpt><trkpt lat="38.9447433" lon="16.5089033"><ele>629.0</ele><time>2026-04-07T12:44:45.788Z</time></trkpt><trkpt lat="38.9448367" lon="16.50886"><ele>629.0</ele><time>2026-04-07T12:44:46.788Z</time></trkpt><trkpt lat="38.9449383" lon="16.508825"><ele>629.0</ele><time>2026-04-07T12:44:47.789Z</time></trkpt><trkpt lat="38.9450533" lon="16.5088183"><ele>629.0</ele><time>2026-04-07T12:44:48.788Z</time></trkpt><trkpt lat="38.9451667" lon="16.5088233"><ele>629.0</ele><time>2026-04-07T12:44:49.789Z</time></trkpt><trkpt lat="38.945285" lon="16.508825"><ele>629.0</ele><time>2026-04-07T12:44:50.788Z</time></trkpt><trkpt lat="38.945405" lon="16.5087967"><ele>629.0</ele><time>2026-04-07T12:44:51.788Z</time></trkpt><trkpt lat="38.94551" lon="16.5087467"><ele>632.1666666666666</ele><time>2026-04-07T12:44:52.788Z</time></trkpt><trkpt lat="38.9456" lon="16.5086883"><ele>635.3333333333333</ele><time>2026-04-07T12:44:53.788Z</time></trkpt><trkpt lat="38.94568" lon="16.5086483"><ele>638.5</ele><time>2026-04-07T12:44:54.789Z</time></trkpt><trkpt lat="38.9457583" lon="16.5086167"><ele>641.6666666666666</ele><time>2026-04-07T12:44:55.788Z</time></trkpt><trkpt lat="38.94583" lon="16.508595"><ele>644.8333333333334</ele><time>2026-04-07T12:44:56.789Z</time></trkpt><trkpt lat="38.9459167" lon="16.50859"><ele>648.0</ele><time>2026-04-07T12:44:57.788Z</time></trkpt><trkpt lat="38.9460017" lon="16.5085933"><ele>648.4</ele><time>2026-04-07T12:44:58.788Z</time></trkpt><trkpt lat="38.94609" lon="16.5086"><ele>648.8</ele><time>2026-04-07T12:44:59.788Z</time></trkpt><trkpt lat="38.9461767" lon="16.5086183"><ele>649.2</ele><time>2026-04-07T12:45:00.788Z</time></trkpt><trkpt lat="38.946275" lon="16.5086283"><ele>649.6</ele><time>2026-04-07T12:45:01.788Z</time></trkpt><trkpt lat="38.9463783" lon="16.5086283"><ele>650.0</ele><time>2026-04-07T12:45:02.788Z</time></trkpt><trkpt lat="38.9464767" lon="16.50861"><ele>650.0</ele><time>2026-04-07T12:45:03.788Z</time></trkpt><trkpt lat="38.946565" lon="16.5085867"><ele>650.0</ele><time>2026-04-07T12:45:04.788Z</time></trkpt><trkpt lat="38.94665" lon="16.508565"><ele>650.0</ele><time>2026-04-07T12:45:05.789Z</time></trkpt><trkpt lat="38.946735" lon="16.5085483"><ele>650.0</ele><time>2026-04-07T12:45:06.789Z</time></trkpt><trkpt lat="38.9468167" lon="16.5085267"><ele>650.0</ele><time>2026-04-07T12:45:07.788Z</time></trkpt><trkpt lat="38.946895" lon="16.50851"><ele>650.0</ele><time>2026-04-07T12:45:08.788Z</time></trkpt><trkpt lat="38.94696" lon="16.5085017"><ele>649.8333333333333</ele><time>2026-04-07T12:45:09.789Z</time></trkpt><trkpt lat="38.9470283" lon="16.5085017"><ele>649.6666666666666</ele><time>2026-04-07T12:45:10.788Z</time></trkpt><trkpt lat="38.9471" lon="16.508515"><ele>649.5</ele><time>2026-04-07T12:45:11.788Z</time></trkpt><trkpt lat="38.9471617" lon="16.508555"><ele>649.3333333333334</ele><time>2026-04-07T12:45:12.788Z</time></trkpt><trkpt lat="38.9472533" lon="16.5086283"><ele>649.1666666666667</ele><time>2026-04-07T12:45:14.789Z</time></trkpt><trkpt lat="38.9473183" lon="16.50869"><ele>649.0</ele><time>2026-04-07T12:45:16.788Z</time></trkpt><trkpt lat="38.9473667" lon="16.508745"><ele>648.5</ele><time>2026-04-07T12:45:18.788Z</time></trkpt><trkpt lat="38.9473967" lon="16.5088333"><ele>648.0</ele><time>2026-04-07T12:45:20.788Z</time></trkpt><trkpt lat="38.94745" lon="16.5089683"><ele>647.5</ele><time>2026-04-07T12:45:22.788Z</time></trkpt><trkpt lat="38.9474917" lon="16.5090317"><ele>647.0</ele><time>2026-04-07T12:45:23.788Z</time></trkpt><trkpt lat="38.94756" lon="16.5091267"><ele>646.5</ele><time>2026-04-07T12:45:25.789Z</time></trkpt><trkpt lat="38.9476117" lon="16.5092"><ele>646.0</ele><time>2026-04-07T12:45:28.789Z</time></trkpt><trkpt lat="38.9476883" lon="16.5092467"><ele>645.3333333333334</ele><time>2026-04-07T12:45:32.788Z</time></trkpt><trkpt lat="38.9477783" lon="16.5093067"><ele>644.6666666666667</ele><time>2026-04-07T12:45:34.788Z</time></trkpt><trkpt lat="38.9478317" lon="16.5093567"><ele>644.0</ele><time>2026-04-07T12:45:35.789Z</time></trkpt><trkpt lat="38.9478933" lon="16.5094183"><ele>643.3333333333334</ele><time>2026-04-07T12:45:36.789Z</time></trkpt><trkpt lat="38.9479567" lon="16.5094867"><ele>642.6666666666666</ele><time>2026-04-07T12:45:37.789Z</time></trkpt><trkpt lat="38.948025" lon="16.5095383"><ele>642.0</ele><time>2026-04-07T12:45:38.788Z</time></trkpt><trkpt lat="38.948135" lon="16.5096067"><ele>642.0</ele><time>2026-04-07T12:45:40.788Z</time></trkpt><trkpt lat="38.948195" lon="16.5096417"><ele>642.0</ele><time>2026-04-07T12:45:41.788Z</time></trkpt><trkpt lat="38.94826" lon="16.5096767"><ele>642.0</ele><time>2026-04-07T12:45:42.788Z</time></trkpt><trkpt lat="38.9483367" lon="16.5097217"><ele>642.0</ele><time>2026-04-07T12:45:43.789Z</time></trkpt><trkpt lat="38.9484233" lon="16.509775"><ele>642.0</ele><time>2026-04-07T12:45:44.789Z</time></trkpt><trkpt lat="38.9485167" lon="16.5098317"><ele>642.0</ele><time>2026-04-07T12:45:45.788Z</time></trkpt><trkpt lat="38.948605" lon="16.5098983"><ele>644.1666666666666</ele><time>2026-04-07T12:45:46.788Z</time></trkpt><trkpt lat="38.9486783" lon="16.50996"><ele>646.3333333333334</ele><time>2026-04-07T12:45:47.789Z</time></trkpt><trkpt lat="38.948725" lon="16.510015"><ele>648.5</ele><time>2026-04-07T12:45:48.788Z</time></trkpt><trkpt lat="38.94879" lon="16.5100983"><ele>650.6666666666667</ele><time>2026-04-07T12:45:50.788Z</time></trkpt><trkpt lat="38.9488367" lon="16.5101633"><ele>652.8333333333334</ele><time>2026-04-07T12:45:52.788Z</time></trkpt><trkpt lat="38.948805" lon="16.5100883"><ele>655.0</ele><time>2026-04-07T12:46:07.788Z</time></trkpt><trkpt lat="38.9487567" lon="16.5100033"><ele>655.0</ele><time>2026-04-07T12:46:08.788Z</time></trkpt><trkpt lat="38.948695" lon="16.509915"><ele>655.0</ele><time>2026-04-07T12:46:09.788Z</time></trkpt><trkpt lat="38.9486217" lon="16.5098267"><ele>655.0</ele><time>2026-04-07T12:46:10.789Z</time></trkpt><trkpt lat="38.94853" lon="16.5097533"><ele>655.0</ele><time>2026-04-07T12:46:11.789Z</time></trkpt><trkpt lat="38.9484283" lon="16.50968"><ele>655.0</ele><time>2026-04-07T12:46:12.788Z</time></trkpt><trkpt lat="38.948325" lon="16.50962"><ele>658.0</ele><time>2026-04-07T12:46:13.789Z</time></trkpt><trkpt lat="38.948215" lon="16.50956"><ele>661.0</ele><time>2026-04-07T12:46:14.789Z</time></trkpt><trkpt lat="38.9481167" lon="16.509495"><ele>664.0</ele><time>2026-04-07T12:46:15.789Z</time></trkpt><trkpt lat="38.9480217" lon="16.50945"><ele>667.0</ele><time>2026-04-07T12:46:16.788Z</time></trkpt><trkpt lat="38.9478617" lon="16.509325"><ele>667.0</ele><time>2026-04-07T12:46:18.788Z</time></trkpt><trkpt lat="38.9477917" lon="16.5092517"><ele>667.0</ele><time>2026-04-07T12:46:19.789Z</time></trkpt><trkpt lat="38.94772" lon="16.5091683"><ele>667.0</ele><time>2026-04-07T12:46:20.788Z</time></trkpt><trkpt lat="38.947645" lon="16.5091033"><ele>667.0</ele><time>2026-04-07T12:46:21.788Z</time></trkpt><trkpt lat="38.947585" lon="16.50906"><ele>667.0</ele><time>2026-04-07T12:46:22.788Z</time></trkpt><trkpt lat="38.9475317" lon="16.50899"><ele>667.0</ele><time>2026-04-07T12:46:23.788Z</time></trkpt><trkpt lat="38.94748" lon="16.508895"><ele>664.0</ele><time>2026-04-07T12:46:24.788Z</time></trkpt><trkpt lat="38.9474417" lon="16.5088083"><ele>661.0</ele><time>2026-04-07T12:46:25.789Z</time></trkpt><trkpt lat="38.94741" lon="16.508725"><ele>658.0</ele><time>2026-04-07T12:46:26.789Z</time></trkpt><trkpt lat="38.9473767" lon="16.5086117"><ele>655.0</ele><time>2026-04-07T12:46:28.788Z</time></trkpt><trkpt lat="38.94736" lon="16.5085333"><ele>652.0</ele><time>2026-04-07T12:46:30.789Z</time></trkpt><trkpt lat="38.9473417" lon="16.5084367"><ele>649.0</ele><time>2026-04-07T12:46:34.789Z</time></trkpt><trkpt lat="38.9472767" lon="16.5083683"><ele>649.0</ele><time>2026-04-07T12:46:37.788Z</time></trkpt><trkpt lat="38.9472383" lon="16.5082983"><ele>649.0</ele><time>2026-04-07T12:46:39.788Z</time></trkpt><trkpt lat="38.9472133" lon="16.5082167"><ele>649.0</ele><time>2026-04-07T12:46:41.789Z</time></trkpt><trkpt lat="38.94713" lon="16.5081667"><ele>649.0</ele><time>2026-04-07T12:46:43.788Z</time></trkpt><trkpt lat="38.94706" lon="16.5081383"><ele>649.0</ele><time>2026-04-07T12:46:44.788Z</time></trkpt><trkpt lat="38.9469817" lon="16.50809"><ele>649.0</ele><time>2026-04-07T12:46:45.788Z</time></trkpt><trkpt lat="38.946895" lon="16.5080417"><ele>649.0</ele><time>2026-04-07T12:46:46.788Z</time></trkpt><trkpt lat="38.9468067" lon="16.5079767"><ele>649.0</ele><time>2026-04-07T12:46:47.788Z</time></trkpt><trkpt lat="38.946715" lon="16.5079083"><ele>649.0</ele><time>2026-04-07T12:46:48.789Z</time></trkpt><trkpt lat="38.946545" lon="16.507765"><ele>649.0</ele><time>2026-04-07T12:46:50.788Z</time></trkpt><trkpt lat="38.9464833" lon="16.5076883"><ele>648.3333333333334</ele><time>2026-04-07T12:46:51.788Z</time></trkpt><trkpt lat="38.9464367" lon="16.5076283"><ele>647.6666666666667</ele><time>2026-04-07T12:46:52.789Z</time></trkpt><trkpt lat="38.9463383" lon="16.50754"><ele>647.0</ele><time>2026-04-07T12:46:54.788Z</time></trkpt><trkpt lat="38.9462733" lon="16.50752"><ele>646.3333333333334</ele><time>2026-04-07T12:46:55.788Z</time></trkpt><trkpt lat="38.946205" lon="16.5075283"><ele>645.6666666666666</ele><time>2026-04-07T12:46:56.789Z</time></trkpt><trkpt lat="38.9460833" lon="16.507565"><ele>645.0</ele><time>2026-04-07T12:46:58.788Z</time></trkpt><trkpt lat="38.9460017" lon="16.5076217"><ele>645.75</ele><time>2026-04-07T12:46:59.789Z</time></trkpt><trkpt lat="38.9458217" lon="16.5077883"><ele>646.5</ele><time>2026-04-07T12:47:01.788Z</time></trkpt><trkpt lat="38.9457383" lon="16.5078833"><ele>647.25</ele><time>2026-04-07T12:47:02.788Z</time></trkpt><trkpt lat="38.94566" lon="16.5079767"><ele>648.0</ele><time>2026-04-07T12:47:03.788Z</time></trkpt><trkpt lat="38.9455883" lon="16.508065"><ele>648.0</ele><time>2026-04-07T12:47:04.789Z</time></trkpt><trkpt lat="38.9455017" lon="16.5081117"><ele>648.0</ele><time>2026-04-07T12:47:05.789Z</time></trkpt><trkpt lat="38.9454117" lon="16.508165"><ele>648.0</ele><time>2026-04-07T12:47:06.788Z</time></trkpt><trkpt lat="38.9453267" lon="16.5082283"><ele>648.0</ele><time>2026-04-07T12:47:07.789Z</time></trkpt><trkpt lat="38.9452333" lon="16.5083067"><ele>648.0</ele><time>2026-04-07T12:47:08.788Z</time></trkpt><trkpt lat="38.945145" lon="16.508365"><ele>648.0</ele><time>2026-04-07T12:47:09.789Z</time></trkpt><trkpt lat="38.9450733" lon="16.50843"><ele>648.0</ele><time>2026-04-07T12:47:10.788Z</time></trkpt><trkpt lat="38.94501" lon="16.5084867"><ele>648.0</ele><time>2026-04-07T12:47:11.788Z</time></trkpt><trkpt lat="38.9449467" lon="16.50854"><ele>648.0</ele><time>2026-04-07T12:47:12.789Z</time></trkpt><trkpt lat="38.944895" lon="16.508595"><ele>648.0</ele><time>2026-04-07T12:47:13.789Z</time></trkpt><trkpt lat="38.9448083" lon="16.5086717"><ele>648.0</ele><time>2026-04-07T12:47:15.788Z</time></trkpt><trkpt lat="38.9447833" lon="16.508775"><ele>644.8333333333334</ele><time>2026-04-07T12:47:17.788Z</time></trkpt><trkpt lat="38.94482" lon="16.5088417"><ele>641.6666666666666</ele><time>2026-04-07T12:47:19.788Z</time></trkpt><trkpt lat="38.9449083" lon="16.5088767"><ele>638.5</ele><time>2026-04-07T12:47:21.789Z</time></trkpt><trkpt lat="38.944985" lon="16.5088717"><ele>635.3333333333333</ele><time>2026-04-07T12:47:22.788Z</time></trkpt><trkpt lat="38.9450817" lon="16.508855"><ele>632.1666666666666</ele><time>2026-04-07T12:47:23.788Z</time></trkpt><trkpt lat="38.9451933" lon="16.508835"><ele>629.0</ele><time>2026-04-07T12:47:24.789Z</time></trkpt><trkpt lat="38.9453067" lon="16.5088017"><ele>629.0</ele><time>2026-04-07T12:47:25.789Z</time></trkpt><trkpt lat="38.9454233" lon="16.5087433"><ele>629.0</ele><time>2026-04-07T12:47:26.789Z</time></trkpt><trkpt lat="38.945535" lon="16.5086833"><ele>629.0</ele><time>2026-04-07T12:47:27.788Z</time></trkpt><trkpt lat="38.9456283" lon="16.5086317"><ele>629.0</ele><time>2026-04-07T12:47:28.789Z</time></trkpt><trkpt lat="38.94571" lon="16.5085983"><ele>629.0</ele><time>2026-04-07T12:47:29.788Z</time></trkpt><trkpt lat="38.945785" lon="16.50858"><ele>632.1666666666666</ele><time>2026-04-07T12:47:30.788Z</time></trkpt><trkpt lat="38.9458617" lon="16.5085817"><ele>635.3333333333333</ele><time>2026-04-07T12:47:31.788Z</time></trkpt><trkpt lat="38.9459433" lon="16.5085933"><ele>638.5</ele><time>2026-04-07T12:47:32.788Z</time></trkpt><trkpt lat="38.946025" lon="16.508605"><ele>641.6666666666666</ele><time>2026-04-07T12:47:33.788Z</time></trkpt><trkpt lat="38.9461" lon="16.5086183"><ele>644.8333333333334</ele><time>2026-04-07T12:47:34.788Z</time></trkpt><trkpt lat="38.9461783" lon="16.5086333"><ele>648.0</ele><time>2026-04-07T12:47:35.788Z</time></trkpt><trkpt lat="38.946255" lon="16.5086467"><ele>648.3333333333334</ele><time>2026-04-07T12:47:36.788Z</time></trkpt><trkpt lat="38.946335" lon="16.5086583"><ele>648.6666666666666</ele><time>2026-04-07T12:47:37.788Z</time></trkpt><trkpt lat="38.946415" lon="16.50866"><ele>649.0</ele><time>2026-04-07T12:47:38.788Z</time></trkpt><trkpt lat="38.9464933" lon="16.5086517"><ele>649.3333333333333</ele><time>2026-04-07T12:47:39.788Z</time></trkpt><trkpt lat="38.94657" lon="16.5086317"><ele>649.6666666666666</ele><time>2026-04-07T12:47:40.788Z</time></trkpt><trkpt lat="38.946645" lon="16.5086067"><ele>650.0</ele><time>2026-04-07T12:47:41.788Z</time></trkpt><trkpt lat="38.9467067" lon="16.50858"><ele>649.8</ele><time>2026-04-07T12:47:42.788Z</time></trkpt><trkpt lat="38.9468167" lon="16.5085317"><ele>649.6</ele><time>2026-04-07T12:47:44.788Z</time></trkpt><trkpt lat="38.9469283" lon="16.5085067"><ele>649.4000000000001</ele><time>2026-04-07T12:47:46.789Z</time></trkpt><trkpt lat="38.9470467" lon="16.5085133"><ele>649.2</ele><time>2026-04-07T12:47:48.788Z</time></trkpt><trkpt lat="38.947135" lon="16.5085533"><ele>649.0</ele><time>2026-04-07T12:47:50.788Z</time></trkpt><trkpt lat="38.9472033" lon="16.50859"><ele>649.0</ele><time>2026-04-07T12:47:52.788Z</time></trkpt><trkpt lat="38.9472783" lon="16.508615"><ele>649.0</ele><time>2026-04-07T12:47:55.788Z</time></trkpt><trkpt lat="38.9473267" lon="16.5085417"><ele>649.0</ele><time>2026-04-07T12:47:58.789Z</time></trkpt><trkpt lat="38.9473367" lon="16.5084517"><ele>649.0</ele><time>2026-04-07T12:48:01.788Z</time></trkpt><trkpt lat="38.9473567" lon="16.50855"><ele>649.0</ele><time>2026-04-07T12:48:14.789Z</time></trkpt></trkseg><trkseg><trkpt lat="38.9473567" lon="16.5085432"><ele>649.0</ele><time>2026-04-07T13:09:55.358Z</time></trkpt><trkpt lat="38.947294" lon="16.5084873"><ele>649.0</ele><time>2026-04-07T13:09:59.359Z</time></trkpt><trkpt lat="38.9472602" lon="16.5085769"><ele>649.0</ele><time>2026-04-07T13:10:03.358Z</time></trkpt><trkpt lat="38.9473032" lon="16.5086511"><ele>649.0</ele><time>2026-04-07T13:10:05.358Z</time></trkpt><trkpt lat="38.9473848" lon="16.5087471"><ele>649.0</ele><time>2026-04-07T13:10:07.358Z</time></trkpt><trkpt lat="38.9474574" lon="16.508876"><ele>648.5714285714286</ele><time>2026-04-07T13:10:09.358Z</time></trkpt><trkpt lat="38.9474951" lon="16.5089436"><ele>648.1428571428571</ele><time>2026-04-07T13:10:10.358Z</time></trkpt><trkpt lat="38.9475354" lon="16.5090093"><ele>647.7142857142858</ele><time>2026-04-07T13:10:11.359Z</time></trkpt><trkpt lat="38.9475845" lon="16.5090707"><ele>647.2857142857142</ele><time>2026-04-07T13:10:12.358Z</time></trkpt><trkpt lat="38.947655" lon="16.50914"><ele>646.8571428571429</ele><time>2026-04-07T13:10:13.358Z</time></trkpt><trkpt lat="38.947715" lon="16.5091917"><ele>646.4285714285714</ele><time>2026-04-07T13:10:14.358Z</time></trkpt><trkpt lat="38.9477767" lon="16.5092317"><ele>646.0</ele><time>2026-04-07T13:10:15.358Z</time></trkpt><trkpt lat="38.94784" lon="16.509275"><ele>645.3333333333334</ele><time>2026-04-07T13:10:16.359Z</time></trkpt><trkpt lat="38.9479" lon="16.50932"><ele>644.6666666666667</ele><time>2026-04-07T13:10:17.358Z</time></trkpt><trkpt lat="38.947955" lon="16.5093833"><ele>644.0</ele><time>2026-04-07T13:10:18.359Z</time></trkpt><trkpt lat="38.9480133" lon="16.5094317"><ele>643.3333333333334</ele><time>2026-04-07T13:10:19.358Z</time></trkpt><trkpt lat="38.9480717" lon="16.5095167"><ele>642.6666666666666</ele><time>2026-04-07T13:10:20.358Z</time></trkpt><trkpt lat="38.9481317" lon="16.5095683"><ele>642.0</ele><time>2026-04-07T13:10:21.358Z</time></trkpt><trkpt lat="38.9482033" lon="16.509635"><ele>642.0</ele><time>2026-04-07T13:10:22.359Z</time></trkpt><trkpt lat="38.9482933" lon="16.5097017"><ele>642.0</ele><time>2026-04-07T13:10:23.358Z</time></trkpt><trkpt lat="38.9483967" lon="16.50977"><ele>642.0</ele><time>2026-04-07T13:10:24.358Z</time></trkpt><trkpt lat="38.9484867" lon="16.5098333"><ele>642.0</ele><time>2026-04-07T13:10:25.358Z</time></trkpt><trkpt lat="38.9485633" lon="16.5098967"><ele>642.0</ele><time>2026-04-07T13:10:26.358Z</time></trkpt><trkpt lat="38.9486383" lon="16.5099583"><ele>644.6</ele><time>2026-04-07T13:10:27.358Z</time></trkpt><trkpt lat="38.94871" lon="16.5100217"><ele>647.2</ele><time>2026-04-07T13:10:28.358Z</time></trkpt><trkpt lat="38.948775" lon="16.5101"><ele>649.8</ele><time>2026-04-07T13:10:29.358Z</time></trkpt><trkpt lat="38.9488383" lon="16.51019"><ele>652.4</ele><time>2026-04-07T13:10:30.358Z</time></trkpt><trkpt lat="38.9488983" lon="16.5102967"><ele>655.0</ele><time>2026-04-07T13:10:31.358Z</time></trkpt><trkpt lat="38.9489567" lon="16.5104033"><ele>653.3333333333334</ele><time>2026-04-07T13:10:32.359Z</time></trkpt><trkpt lat="38.9490083" lon="16.5105017"><ele>651.6666666666667</ele><time>2026-04-07T13:10:33.358Z</time></trkpt><trkpt lat="38.94905" lon="16.5105917"><ele>650.0</ele><time>2026-04-07T13:10:34.358Z</time></trkpt><trkpt lat="38.9491" lon="16.51067"><ele>648.3333333333334</ele><time>2026-04-07T13:10:35.358Z</time></trkpt><trkpt lat="38.9491567" lon="16.5107417"><ele>646.6666666666666</ele><time>2026-04-07T13:10:36.358Z</time></trkpt><trkpt lat="38.9492117" lon="16.5108033"><ele>645.0</ele><time>2026-04-07T13:10:37.358Z</time></trkpt><trkpt lat="38.9492767" lon="16.5108633"><ele>645.0</ele><time>2026-04-07T13:10:38.359Z</time></trkpt><trkpt lat="38.9493483" lon="16.5109183"><ele>645.0</ele><time>2026-04-07T13:10:39.358Z</time></trkpt><trkpt lat="38.9494133" lon="16.5109717"><ele>645.0</ele><time>2026-04-07T13:10:40.359Z</time></trkpt><trkpt lat="38.9494883" lon="16.51102"><ele>645.0</ele><time>2026-04-07T13:10:41.358Z</time></trkpt><trkpt lat="38.9495717" lon="16.5110533"><ele>645.0</ele><time>2026-04-07T13:10:42.359Z</time></trkpt><trkpt lat="38.94966" lon="16.51111"><ele>645.0</ele><time>2026-04-07T13:10:43.359Z</time></trkpt><trkpt lat="38.94975" lon="16.5111767"><ele>645.0</ele><time>2026-04-07T13:10:44.358Z</time></trkpt><trkpt lat="38.9498433" lon="16.5112333"><ele>645.0</ele><time>2026-04-07T13:10:45.359Z</time></trkpt><trkpt lat="38.9499367" lon="16.511275"><ele>645.0</ele><time>2026-04-07T13:10:46.358Z</time></trkpt><trkpt lat="38.9500117" lon="16.5113267"><ele>645.0</ele><time>2026-04-07T13:10:47.359Z</time></trkpt><trkpt lat="38.95008" lon="16.5113567"><ele>645.0</ele><time>2026-04-07T13:10:48.359Z</time></trkpt><trkpt lat="38.9501467" lon="16.5113933"><ele>645.0</ele><time>2026-04-07T13:10:49.358Z</time></trkpt><trkpt lat="38.9502167" lon="16.511435"><ele>645.2</ele><time>2026-04-07T13:10:50.359Z</time></trkpt><trkpt lat="38.950305" lon="16.51145"><ele>645.4</ele><time>2026-04-07T13:10:51.358Z</time></trkpt><trkpt lat="38.9503967" lon="16.5114567"><ele>645.5999999999999</ele><time>2026-04-07T13:10:52.358Z</time></trkpt><trkpt lat="38.9505017" lon="16.5114517"><ele>645.8</ele><time>2026-04-07T13:10:53.359Z</time></trkpt><trkpt lat="38.9506083" lon="16.5114333"><ele>646.0</ele><time>2026-04-07T13:10:54.358Z</time></trkpt><trkpt lat="38.9507083" lon="16.511425"><ele>646.0</ele><time>2026-04-07T13:10:55.358Z</time></trkpt><trkpt lat="38.9507967" lon="16.51146"><ele>646.0</ele><time>2026-04-07T13:10:56.359Z</time></trkpt><trkpt lat="38.9508867" lon="16.5115083"><ele>646.0</ele><time>2026-04-07T13:10:57.358Z</time></trkpt><trkpt lat="38.9509817" lon="16.51158"><ele>646.0</ele><time>2026-04-07T13:10:58.359Z</time></trkpt><trkpt lat="38.95109" lon="16.5116483"><ele>646.0</ele><time>2026-04-07T13:10:59.358Z</time></trkpt><trkpt lat="38.951225" lon="16.5116917"><ele>646.6666666666667</ele><time>2026-04-07T13:11:00.358Z</time></trkpt><trkpt lat="38.9513717" lon="16.51172"><ele>647.3333333333334</ele><time>2026-04-07T13:11:01.359Z</time></trkpt><trkpt lat="38.95153" lon="16.511735"><ele>648.0</ele><time>2026-04-07T13:11:02.358Z</time></trkpt><trkpt lat="38.9516933" lon="16.5117533"><ele>650.0</ele><time>2026-04-07T13:11:03.359Z</time></trkpt><trkpt lat="38.951865" lon="16.51177"><ele>652.0</ele><time>2026-04-07T13:11:04.359Z</time></trkpt><trkpt lat="38.9520483" lon="16.511765"><ele>654.0</ele><time>2026-04-07T13:11:05.359Z</time></trkpt><trkpt lat="38.9522317" lon="16.51173"><ele>654.0</ele><time>2026-04-07T13:11:06.359Z</time></trkpt><trkpt lat="38.9524067" lon="16.51165"><ele>654.0</ele><time>2026-04-07T13:11:07.358Z</time></trkpt><trkpt lat="38.9525867" lon="16.5115467"><ele>654.0</ele><time>2026-04-07T13:11:08.358Z</time></trkpt><trkpt lat="38.95277" lon="16.5114533"><ele>660.0</ele><time>2026-04-07T13:11:09.358Z</time></trkpt><trkpt lat="38.9529567" lon="16.5114"><ele>666.0</ele><time>2026-04-07T13:11:10.359Z</time></trkpt><trkpt lat="38.953125" lon="16.51138"><ele>672.0</ele><time>2026-04-07T13:11:11.359Z</time></trkpt><trkpt lat="38.9532967" lon="16.5113783"><ele>674.0</ele><time>2026-04-07T13:11:12.358Z</time></trkpt><trkpt lat="38.9534667" lon="16.511405"><ele>676.0</ele><time>2026-04-07T13:11:13.358Z</time></trkpt><trkpt lat="38.9536383" lon="16.5114283"><ele>678.0</ele><time>2026-04-07T13:11:14.358Z</time></trkpt><trkpt lat="38.95382" lon="16.51145"><ele>678.0</ele><time>2026-04-07T13:11:15.359Z</time></trkpt><trkpt lat="38.954005" lon="16.511425"><ele>678.0</ele><time>2026-04-07T13:11:16.359Z</time></trkpt><trkpt lat="38.9541967" lon="16.51136"><ele>678.0</ele><time>2026-04-07T13:11:17.358Z</time></trkpt><trkpt lat="38.9543733" lon="16.51127"><ele>671.6666666666666</ele><time>2026-04-07T13:11:18.359Z</time></trkpt><trkpt lat="38.9545367" lon="16.5111733"><ele>665.3333333333333</ele><time>2026-04-07T13:11:19.359Z</time></trkpt><trkpt lat="38.9546883" lon="16.5110883"><ele>659.0</ele><time>2026-04-07T13:11:20.359Z</time></trkpt><trkpt lat="38.9548417" lon="16.5110017"><ele>659.0</ele><time>2026-04-07T13:11:21.358Z</time></trkpt><trkpt lat="38.954985" lon="16.510925"><ele>659.0</ele><time>2026-04-07T13:11:22.359Z</time></trkpt><trkpt lat="38.9551233" lon="16.5108483"><ele>659.0</ele><time>2026-04-07T13:11:23.359Z</time></trkpt><trkpt lat="38.95525" lon="16.510775"><ele>659.0</ele><time>2026-04-07T13:11:24.358Z</time></trkpt><trkpt lat="38.9553717" lon="16.5107133"><ele>655.5</ele><time>2026-04-07T13:11:25.358Z</time></trkpt><trkpt lat="38.955465" lon="16.5106417"><ele>652.0</ele><time>2026-04-07T13:11:26.359Z</time></trkpt><trkpt lat="38.9555667" lon="16.5105667"><ele>648.5</ele><time>2026-04-07T13:11:27.358Z</time></trkpt><trkpt lat="38.9556867" lon="16.5104817"><ele>645.0</ele><time>2026-04-07T13:11:28.359Z</time></trkpt><trkpt lat="38.955815" lon="16.5103783"><ele>647.0</ele><time>2026-04-07T13:11:29.359Z</time></trkpt><trkpt lat="38.955975" lon="16.5102767"><ele>649.0</ele><time>2026-04-07T13:11:30.358Z</time></trkpt><trkpt lat="38.9561417" lon="16.5101667"><ele>651.0</ele><time>2026-04-07T13:11:31.359Z</time></trkpt><trkpt lat="38.9562867" lon="16.510065"><ele>651.0</ele><time>2026-04-07T13:11:32.358Z</time></trkpt><trkpt lat="38.95642" lon="16.5100133"><ele>651.0</ele><time>2026-04-07T13:11:33.358Z</time></trkpt><trkpt lat="38.95653" lon="16.5099983"><ele>651.0</ele><time>2026-04-07T13:11:34.359Z</time></trkpt><trkpt lat="38.9566367" lon="16.5100183"><ele>651.0</ele><time>2026-04-07T13:11:35.359Z</time></trkpt><trkpt lat="38.956755" lon="16.5100617"><ele>652.75</ele><time>2026-04-07T13:11:36.359Z</time></trkpt><trkpt lat="38.9568867" lon="16.5101067"><ele>654.5</ele><time>2026-04-07T13:11:37.358Z</time></trkpt><trkpt lat="38.9570217" lon="16.5101367"><ele>656.25</ele><time>2026-04-07T13:11:38.359Z</time></trkpt><trkpt lat="38.95717" lon="16.5101567"><ele>658.0</ele><time>2026-04-07T13:11:39.358Z</time></trkpt><trkpt lat="38.9573617" lon="16.5101717"><ele>661.6666666666667</ele><time>2026-04-07T13:11:40.359Z</time></trkpt><trkpt lat="38.9575533" lon="16.510175"><ele>665.3333333333334</ele><time>2026-04-07T13:11:41.358Z</time></trkpt><trkpt lat="38.95775" lon="16.510175"><ele>669.0</ele><time>2026-04-07T13:11:42.358Z</time></trkpt><trkpt lat="38.95793" lon="16.51017"><ele>669.0</ele><time>2026-04-07T13:11:43.358Z</time></trkpt><trkpt lat="38.958125" lon="16.5101983"><ele>669.0</ele><time>2026-04-07T13:11:44.358Z</time></trkpt><trkpt lat="38.9583117" lon="16.5102417"><ele>669.0</ele><time>2026-04-07T13:11:45.359Z</time></trkpt><trkpt lat="38.958485" lon="16.5102783"><ele>670.6666666666666</ele><time>2026-04-07T13:11:46.359Z</time></trkpt><trkpt lat="38.9586417" lon="16.5103417"><ele>672.3333333333333</ele><time>2026-04-07T13:11:47.358Z</time></trkpt><trkpt lat="38.9587683" lon="16.510435"><ele>674.0</ele><time>2026-04-07T13:11:48.359Z</time></trkpt><trkpt lat="38.9588817" lon="16.510555"><ele>674.0</ele><time>2026-04-07T13:11:49.359Z</time></trkpt><trkpt lat="38.9589817" lon="16.5106967"><ele>674.0</ele><time>2026-04-07T13:11:50.359Z</time></trkpt><trkpt lat="38.959075" lon="16.5108583"><ele>674.0</ele><time>2026-04-07T13:11:51.359Z</time></trkpt><trkpt lat="38.95918" lon="16.5110333"><ele>675.75</ele><time>2026-04-07T13:11:52.358Z</time></trkpt><trkpt lat="38.9592783" lon="16.5111833"><ele>677.5</ele><time>2026-04-07T13:11:53.359Z</time></trkpt><trkpt lat="38.9593717" lon="16.5113083"><ele>679.25</ele><time>2026-04-07T13:11:54.359Z</time></trkpt><trkpt lat="38.959465" lon="16.51141"><ele>681.0</ele><time>2026-04-07T13:11:55.358Z</time></trkpt><trkpt lat="38.959555" lon="16.5114417"><ele>681.0</ele><time>2026-04-07T13:11:56.358Z</time></trkpt><trkpt lat="38.9596367" lon="16.5114033"><ele>681.0</ele><time>2026-04-07T13:11:57.358Z</time></trkpt><trkpt lat="38.95972" lon="16.5113"><ele>681.0</ele><time>2026-04-07T13:11:58.359Z</time></trkpt><trkpt lat="38.9597983" lon="16.511135"><ele>681.0</ele><time>2026-04-07T13:11:59.359Z</time></trkpt><trkpt lat="38.959905" lon="16.5109867"><ele>681.0</ele><time>2026-04-07T13:12:00.358Z</time></trkpt><trkpt lat="38.9599983" lon="16.5108383"><ele>681.0</ele><time>2026-04-07T13:12:01.359Z</time></trkpt><trkpt lat="38.9601117" lon="16.5107367"><ele>681.0</ele><time>2026-04-07T13:12:02.358Z</time></trkpt><trkpt lat="38.9602567" lon="16.5106567"><ele>681.0</ele><time>2026-04-07T13:12:03.358Z</time></trkpt><trkpt lat="38.9604217" lon="16.5105883"><ele>688.0</ele><time>2026-04-07T13:12:04.359Z</time></trkpt><trkpt lat="38.9606067" lon="16.510545"><ele>695.0</ele><time>2026-04-07T13:12:05.358Z</time></trkpt><trkpt lat="38.9608067" lon="16.51052"><ele>702.0</ele><time>2026-04-07T13:12:06.359Z</time></trkpt><trkpt lat="38.9610133" lon="16.510515"><ele>708.0</ele><time>2026-04-07T13:12:07.359Z</time></trkpt><trkpt lat="38.9612167" lon="16.51054"><ele>714.0</ele><time>2026-04-07T13:12:08.359Z</time></trkpt><trkpt lat="38.9614083" lon="16.5105483"><ele>720.0</ele><time>2026-04-07T13:12:09.358Z</time></trkpt><trkpt lat="38.9615767" lon="16.5105017"><ele>715.3333333333334</ele><time>2026-04-07T13:12:10.358Z</time></trkpt><trkpt lat="38.9617317" lon="16.5103683"><ele>710.6666666666667</ele><time>2026-04-07T13:12:11.358Z</time></trkpt><trkpt lat="38.961895" lon="16.5102183"><ele>706.0</ele><time>2026-04-07T13:12:12.359Z</time></trkpt><trkpt lat="38.962055" lon="16.510085"><ele>706.0</ele><time>2026-04-07T13:12:13.359Z</time></trkpt><trkpt lat="38.9622133" lon="16.5099983"><ele>706.0</ele><time>2026-04-07T13:12:14.358Z</time></trkpt><trkpt lat="38.9623467" lon="16.5099117"><ele>706.0</ele><time>2026-04-07T13:12:15.358Z</time></trkpt><trkpt lat="38.9624533" lon="16.5097983"><ele>708.6666666666667</ele><time>2026-04-07T13:12:16.359Z</time></trkpt><trkpt lat="38.9625417" lon="16.50963"><ele>711.3333333333334</ele><time>2026-04-07T13:12:17.359Z</time></trkpt><trkpt lat="38.96261" lon="16.509435"><ele>714.0</ele><time>2026-04-07T13:12:18.359Z</time></trkpt><trkpt lat="38.9626583" lon="16.5092483"><ele>714.0</ele><time>2026-04-07T13:12:19.359Z</time></trkpt><trkpt lat="38.9627517" lon="16.509095"><ele>714.0</ele><time>2026-04-07T13:12:20.359Z</time></trkpt><trkpt lat="38.9628683" lon="16.5089567"><ele>714.0</ele><time>2026-04-07T13:12:21.358Z</time></trkpt><trkpt lat="38.963025" lon="16.5088117"><ele>710.6666666666666</ele><time>2026-04-07T13:12:22.358Z</time></trkpt><trkpt lat="38.9631983" lon="16.50867"><ele>707.3333333333333</ele><time>2026-04-07T13:12:23.359Z</time></trkpt><trkpt lat="38.9633583" lon="16.5085217"><ele>704.0</ele><time>2026-04-07T13:12:24.358Z</time></trkpt><trkpt lat="38.9635133" lon="16.508335"><ele>709.0</ele><time>2026-04-07T13:12:25.359Z</time></trkpt><trkpt lat="38.9636567" lon="16.508135"><ele>714.0</ele><time>2026-04-07T13:12:26.358Z</time></trkpt><trkpt lat="38.9637883" lon="16.50794"><ele>719.0</ele><time>2026-04-07T13:12:27.358Z</time></trkpt><trkpt lat="38.963905" lon="16.5077417"><ele>719.0</ele><time>2026-04-07T13:12:28.358Z</time></trkpt><trkpt lat="38.964025" lon="16.5075483"><ele>719.0</ele><time>2026-04-07T13:12:29.359Z</time></trkpt><trkpt lat="38.96414" lon="16.5073417"><ele>719.0</ele><time>2026-04-07T13:12:30.359Z</time></trkpt><trkpt lat="38.96425" lon="16.50712"><ele>726.0</ele><time>2026-04-07T13:12:31.359Z</time></trkpt><trkpt lat="38.9643533" lon="16.5069033"><ele>733.0</ele><time>2026-04-07T13:12:32.358Z</time></trkpt><trkpt lat="38.9644517" lon="16.5066817"><ele>740.0</ele><time>2026-04-07T13:12:33.358Z</time></trkpt><trkpt lat="38.9645233" lon="16.506475"><ele>740.0</ele><time>2026-04-07T13:12:34.359Z</time></trkpt><trkpt lat="38.964585" lon="16.5062917"><ele>740.0</ele><time>2026-04-07T13:12:35.358Z</time></trkpt><trkpt lat="38.9646617" lon="16.5061383"><ele>740.0</ele><time>2026-04-07T13:12:36.358Z</time></trkpt><trkpt lat="38.9647567" lon="16.5060083"><ele>740.0</ele><time>2026-04-07T13:12:37.358Z</time></trkpt><trkpt lat="38.9648617" lon="16.50591"><ele>736.5</ele><time>2026-04-07T13:12:38.359Z</time></trkpt><trkpt lat="38.9649233" lon="16.5057867"><ele>733.0</ele><time>2026-04-07T13:12:39.358Z</time></trkpt><trkpt lat="38.9649483" lon="16.5056283"><ele>729.5</ele><time>2026-04-07T13:12:40.359Z</time></trkpt><trkpt lat="38.9649617" lon="16.5054517"><ele>726.0</ele><time>2026-04-07T13:12:41.358Z</time></trkpt><trkpt lat="38.96496" lon="16.50526"><ele>726.0</ele><time>2026-04-07T13:12:42.359Z</time></trkpt><trkpt lat="38.9649267" lon="16.5050633"><ele>726.0</ele><time>2026-04-07T13:12:43.359Z</time></trkpt><trkpt lat="38.9648567" lon="16.5048767"><ele>726.0</ele><time>2026-04-07T13:12:44.359Z</time></trkpt><trkpt lat="38.96481" lon="16.504735"><ele>726.0</ele><time>2026-04-07T13:12:45.359Z</time></trkpt><trkpt lat="38.964785" lon="16.5046167"><ele>725.5</ele><time>2026-04-07T13:12:46.359Z</time></trkpt><trkpt lat="38.9647833" lon="16.504515"><ele>725.0</ele><time>2026-04-07T13:12:47.359Z</time></trkpt><trkpt lat="38.9647967" lon="16.50442"><ele>724.5</ele><time>2026-04-07T13:12:48.358Z</time></trkpt><trkpt lat="38.96482" lon="16.5043217"><ele>724.0</ele><time>2026-04-07T13:12:49.358Z</time></trkpt><trkpt lat="38.96487" lon="16.50423"><ele>723.5</ele><time>2026-04-07T13:12:50.358Z</time></trkpt><trkpt lat="38.9649267" lon="16.5041567"><ele>723.0</ele><time>2026-04-07T13:12:51.358Z</time></trkpt><trkpt lat="38.964995" lon="16.50409"><ele>723.6666666666666</ele><time>2026-04-07T13:12:52.358Z</time></trkpt><trkpt lat="38.9650583" lon="16.504035"><ele>724.3333333333334</ele><time>2026-04-07T13:12:53.358Z</time></trkpt><trkpt lat="38.9651183" lon="16.5039917"><ele>725.0</ele><time>2026-04-07T13:12:54.358Z</time></trkpt><trkpt lat="38.9651683" lon="16.5039417"><ele>725.6666666666667</ele><time>2026-04-07T13:12:55.358Z</time></trkpt><trkpt lat="38.9652583" lon="16.50385"><ele>726.3333333333334</ele><time>2026-04-07T13:12:57.358Z</time></trkpt><trkpt lat="38.965335" lon="16.503765"><ele>727.0</ele><time>2026-04-07T13:12:59.358Z</time></trkpt><trkpt lat="38.9654083" lon="16.5036683"><ele>727.0</ele><time>2026-04-07T13:13:01.358Z</time></trkpt><trkpt lat="38.9655233" lon="16.5035367"><ele>727.0</ele><time>2026-04-07T13:13:04.358Z</time></trkpt><trkpt lat="38.9655733" lon="16.5034733"><ele>727.0</ele><time>2026-04-07T13:13:05.358Z</time></trkpt><trkpt lat="38.965625" lon="16.5033933"><ele>727.0</ele><time>2026-04-07T13:13:06.359Z</time></trkpt><trkpt lat="38.96568" lon="16.5033167"><ele>727.0</ele><time>2026-04-07T13:13:07.358Z</time></trkpt><trkpt lat="38.9657417" lon="16.50326"><ele>727.0</ele><time>2026-04-07T13:13:08.359Z</time></trkpt><trkpt lat="38.9658083" lon="16.50322"><ele>727.0</ele><time>2026-04-07T13:13:09.358Z</time></trkpt><trkpt lat="38.9658817" lon="16.503215"><ele>727.0</ele><time>2026-04-07T13:13:10.358Z</time></trkpt><trkpt lat="38.96595" lon="16.5032367"><ele>727.0</ele><time>2026-04-07T13:13:11.358Z</time></trkpt><trkpt lat="38.9660133" lon="16.5032867"><ele>727.0</ele><time>2026-04-07T13:13:12.359Z</time></trkpt><trkpt lat="38.96607" lon="16.5033583"><ele>727.0</ele><time>2026-04-07T13:13:13.359Z</time></trkpt><trkpt lat="38.9661183" lon="16.5034217"><ele>727.0</ele><time>2026-04-07T13:13:14.358Z</time></trkpt><trkpt lat="38.96617" lon="16.5034917"><ele>727.0</ele><time>2026-04-07T13:13:16.359Z</time></trkpt><trkpt lat="38.966135" lon="16.5034067"><ele>727.0</ele><time>2026-04-07T13:13:39.359Z</time></trkpt><trkpt lat="38.9660367" lon="16.503295"><ele>727.0</ele><time>2026-04-07T13:13:41.358Z</time></trkpt><trkpt lat="38.96593" lon="16.503205"><ele>727.0</ele><time>2026-04-07T13:13:43.358Z</time></trkpt><trkpt lat="38.9658017" lon="16.5031767"><ele>727.0</ele><time>2026-04-07T13:13:45.358Z</time></trkpt><trkpt lat="38.96563" lon="16.50328"><ele>727.0</ele><time>2026-04-07T13:13:47.358Z</time></trkpt><trkpt lat="38.965415" lon="16.5035533"><ele>727.0</ele><time>2026-04-07T13:13:49.358Z</time></trkpt><trkpt lat="38.9653083" lon="16.5036967"><ele>727.0</ele><time>2026-04-07T13:13:50.359Z</time></trkpt><trkpt lat="38.9652083" lon="16.5038367"><ele>727.0</ele><time>2026-04-07T13:13:51.359Z</time></trkpt><trkpt lat="38.9651067" lon="16.5039517"><ele>727.0</ele><time>2026-04-07T13:13:52.358Z</time></trkpt><trkpt lat="38.9650083" lon="16.50406"><ele>726.75</ele><time>2026-04-07T13:13:53.358Z</time></trkpt><trkpt lat="38.9649267" lon="16.504155"><ele>726.5</ele><time>2026-04-07T13:13:54.359Z</time></trkpt><trkpt lat="38.96485" lon="16.504255"><ele>726.25</ele><time>2026-04-07T13:13:55.359Z</time></trkpt><trkpt lat="38.96477" lon="16.5044983"><ele>726.0</ele><time>2026-04-07T13:13:57.358Z</time></trkpt><trkpt lat="38.9647683" lon="16.5048417"><ele>726.0</ele><time>2026-04-07T13:13:59.358Z</time></trkpt><trkpt lat="38.9648883" lon="16.5052333"><ele>726.0</ele><time>2026-04-07T13:14:01.358Z</time></trkpt><trkpt lat="38.9649183" lon="16.5054233"><ele>726.0</ele><time>2026-04-07T13:14:02.358Z</time></trkpt><trkpt lat="38.96491" lon="16.5057833"><ele>726.0</ele><time>2026-04-07T13:14:04.359Z</time></trkpt><trkpt lat="38.9648767" lon="16.5059183"><ele>726.0</ele><time>2026-04-07T13:14:05.359Z</time></trkpt><trkpt lat="38.96473" lon="16.50612"><ele>730.6666666666666</ele><time>2026-04-07T13:14:07.358Z</time></trkpt><trkpt lat="38.9645367" lon="16.5063467"><ele>735.3333333333333</ele><time>2026-04-07T13:14:09.359Z</time></trkpt><trkpt lat="38.9644483" lon="16.5065183"><ele>740.0</ele><time>2026-04-07T13:14:10.358Z</time></trkpt><trkpt lat="38.9642883" lon="16.5069633"><ele>729.5</ele><time>2026-04-07T13:14:12.358Z</time></trkpt><trkpt lat="38.9641133" lon="16.5073183"><ele>719.0</ele><time>2026-04-07T13:14:14.358Z</time></trkpt><trkpt lat="38.9639317" lon="16.507635"><ele>725.0</ele><time>2026-04-07T13:14:16.358Z</time></trkpt><trkpt lat="38.963655" lon="16.5080883"><ele>731.0</ele><time>2026-04-07T13:14:19.358Z</time></trkpt><trkpt lat="38.9635583" lon="16.508235"><ele>731.0</ele><time>2026-04-07T13:14:20.358Z</time></trkpt><trkpt lat="38.963465" lon="16.5083683"><ele>731.0</ele><time>2026-04-07T13:14:21.358Z</time></trkpt><trkpt lat="38.9633733" lon="16.508485"><ele>731.0</ele><time>2026-04-07T13:14:22.358Z</time></trkpt><trkpt lat="38.963275" lon="16.5086083"><ele>731.0</ele><time>2026-04-07T13:14:23.358Z</time></trkpt><trkpt lat="38.963155" lon="16.5087267"><ele>725.3333333333333</ele><time>2026-04-07T13:14:24.358Z</time></trkpt><trkpt lat="38.9630133" lon="16.5088383"><ele>719.6666666666666</ele><time>2026-04-07T13:14:25.359Z</time></trkpt><trkpt lat="38.96288" lon="16.5089367"><ele>714.0</ele><time>2026-04-07T13:14:26.359Z</time></trkpt><trkpt lat="38.96277" lon="16.50904"><ele>714.0</ele><time>2026-04-07T13:14:27.358Z</time></trkpt><trkpt lat="38.962685" lon="16.5091433"><ele>714.0</ele><time>2026-04-07T13:14:28.358Z</time></trkpt><trkpt lat="38.96262" lon="16.5092717"><ele>714.0</ele><time>2026-04-07T13:14:29.358Z</time></trkpt><trkpt lat="38.9625733" lon="16.509405"><ele>714.0</ele><time>2026-04-07T13:14:30.358Z</time></trkpt><trkpt lat="38.9625417" lon="16.5095583"><ele>712.4000000000001</ele><time>2026-04-07T13:14:31.358Z</time></trkpt><trkpt lat="38.9625083" lon="16.5096983"><ele>710.8</ele><time>2026-04-07T13:14:32.359Z</time></trkpt><trkpt lat="38.96247" lon="16.509825"><ele>709.2</ele><time>2026-04-07T13:14:33.359Z</time></trkpt><trkpt lat="38.96241" lon="16.50991"><ele>707.5999999999999</ele><time>2026-04-07T13:14:34.359Z</time></trkpt><trkpt lat="38.9623233" lon="16.50997"><ele>706.0</ele><time>2026-04-07T13:14:35.358Z</time></trkpt><trkpt lat="38.9622317" lon="16.5100183"><ele>706.0</ele><time>2026-04-07T13:14:36.359Z</time></trkpt><trkpt lat="38.9621267" lon="16.5100617"><ele>706.0</ele><time>2026-04-07T13:14:37.358Z</time></trkpt><trkpt lat="38.962025" lon="16.510115"><ele>706.0</ele><time>2026-04-07T13:14:38.358Z</time></trkpt><trkpt lat="38.961925" lon="16.5101733"><ele>706.0</ele><time>2026-04-07T13:14:39.358Z</time></trkpt><trkpt lat="38.9618383" lon="16.5102333"><ele>706.0</ele><time>2026-04-07T13:14:40.359Z</time></trkpt><trkpt lat="38.9617633" lon="16.5102883"><ele>706.0</ele><time>2026-04-07T13:14:41.358Z</time></trkpt><trkpt lat="38.9617017" lon="16.510335"><ele>706.0</ele><time>2026-04-07T13:14:42.358Z</time></trkpt><trkpt lat="38.9616167" lon="16.5104233"><ele>706.0</ele><time>2026-04-07T13:14:45.359Z</time></trkpt><trkpt lat="38.961705" lon="16.5104367"><ele>706.0</ele><time>2026-04-07T13:14:50.358Z</time></trkpt><trkpt lat="38.96179" lon="16.5103833"><ele>706.0</ele><time>2026-04-07T13:14:52.358Z</time></trkpt><trkpt lat="38.9618467" lon="16.5103417"><ele>706.0</ele><time>2026-04-07T13:14:53.358Z</time></trkpt><trkpt lat="38.961915" lon="16.5102983"><ele>706.0</ele><time>2026-04-07T13:14:54.359Z</time></trkpt><trkpt lat="38.961985" lon="16.5102567"><ele>706.0</ele><time>2026-04-07T13:14:55.358Z</time></trkpt><trkpt lat="38.9620567" lon="16.5102283"><ele>706.0</ele><time>2026-04-07T13:14:56.359Z</time></trkpt><trkpt lat="38.9621267" lon="16.5102017"><ele>706.0</ele><time>2026-04-07T13:14:57.358Z</time></trkpt><trkpt lat="38.9621933" lon="16.510195"><ele>706.0</ele><time>2026-04-07T13:14:58.358Z</time></trkpt><trkpt lat="38.96226" lon="16.51022"><ele>706.0</ele><time>2026-04-07T13:14:59.359Z</time></trkpt><trkpt lat="38.9623233" lon="16.5102367"><ele>706.0</ele><time>2026-04-07T13:15:00.358Z</time></trkpt><trkpt lat="38.9624183" lon="16.5102633"><ele>706.0</ele><time>2026-04-07T13:15:02.359Z</time></trkpt><trkpt lat="38.962505" lon="16.5102117"><ele>706.0</ele><time>2026-04-07T13:15:05.359Z</time></trkpt><trkpt lat="38.9625817" lon="16.5101683"><ele>706.0</ele><time>2026-04-07T13:15:07.359Z</time></trkpt><trkpt lat="38.9625167" lon="16.5102083"><ele>706.0</ele><time>2026-04-07T13:15:35.358Z</time></trkpt><trkpt lat="38.9624317" lon="16.51023"><ele>706.0</ele><time>2026-04-07T13:15:39.358Z</time></trkpt><trkpt lat="38.9623517" lon="16.5102133"><ele>706.0</ele><time>2026-04-07T13:15:41.358Z</time></trkpt><trkpt lat="38.96229" lon="16.5101917"><ele>706.0</ele><time>2026-04-07T13:15:42.358Z</time></trkpt><trkpt lat="38.962225" lon="16.5101683"><ele>706.0</ele><time>2026-04-07T13:15:43.359Z</time></trkpt><trkpt lat="38.96216" lon="16.510155"><ele>706.0</ele><time>2026-04-07T13:15:44.358Z</time></trkpt><trkpt lat="38.962025" lon="16.5101767"><ele>706.0</ele><time>2026-04-07T13:15:46.358Z</time></trkpt><trkpt lat="38.9619517" lon="16.5102167"><ele>706.0</ele><time>2026-04-07T13:15:47.359Z</time></trkpt><trkpt lat="38.9618833" lon="16.5102617"><ele>706.0</ele><time>2026-04-07T13:15:48.358Z</time></trkpt><trkpt lat="38.96182" lon="16.5103133"><ele>706.0</ele><time>2026-04-07T13:15:49.358Z</time></trkpt><trkpt lat="38.961755" lon="16.51035"><ele>706.0</ele><time>2026-04-07T13:15:50.359Z</time></trkpt><trkpt lat="38.9616733" lon="16.51039"><ele>706.0</ele><time>2026-04-07T13:15:52.358Z</time></trkpt><trkpt lat="38.9616967" lon="16.5103117"><ele>706.0</ele><time>2026-04-07T13:15:58.358Z</time></trkpt><trkpt lat="38.9617567" lon="16.5102817"><ele>706.0</ele><time>2026-04-07T13:15:59.359Z</time></trkpt><trkpt lat="38.9618317" lon="16.5102367"><ele>706.0</ele><time>2026-04-07T13:16:00.359Z</time></trkpt><trkpt lat="38.9619183" lon="16.51017"><ele>706.0</ele><time>2026-04-07T13:16:01.358Z</time></trkpt><trkpt lat="38.9620233" lon="16.5101033"><ele>706.0</ele><time>2026-04-07T13:16:02.358Z</time></trkpt><trkpt lat="38.962135" lon="16.5100367"><ele>706.0</ele><time>2026-04-07T13:16:03.359Z</time></trkpt><trkpt lat="38.962265" lon="16.5099867"><ele>706.0</ele><time>2026-04-07T13:16:04.359Z</time></trkpt><trkpt lat="38.9623783" lon="16.509925"><ele>706.0</ele><time>2026-04-07T13:16:05.358Z</time></trkpt><trkpt lat="38.962475" lon="16.5098267"><ele>706.0</ele><time>2026-04-07T13:16:06.358Z</time></trkpt><trkpt lat="38.96256" lon="16.5096817"><ele>706.0</ele><time>2026-04-07T13:16:07.358Z</time></trkpt><trkpt lat="38.9626217" lon="16.5095167"><ele>706.0</ele><time>2026-04-07T13:16:08.358Z</time></trkpt><trkpt lat="38.9626583" lon="16.509335"><ele>708.0</ele><time>2026-04-07T13:16:09.358Z</time></trkpt><trkpt lat="38.9627083" lon="16.5091767"><ele>710.0</ele><time>2026-04-07T13:16:10.359Z</time></trkpt><trkpt lat="38.9627783" lon="16.5090467"><ele>712.0</ele><time>2026-04-07T13:16:11.358Z</time></trkpt><trkpt lat="38.9628867" lon="16.508935"><ele>714.0</ele><time>2026-04-07T13:16:12.358Z</time></trkpt><trkpt lat="38.9630133" lon="16.50883"><ele>710.6666666666666</ele><time>2026-04-07T13:16:13.358Z</time></trkpt><trkpt lat="38.9631467" lon="16.5087267"><ele>707.3333333333333</ele><time>2026-04-07T13:16:14.358Z</time></trkpt><trkpt lat="38.9632983" lon="16.5086083"><ele>704.0</ele><time>2026-04-07T13:16:15.358Z</time></trkpt><trkpt lat="38.963425" lon="16.508465"><ele>713.0</ele><time>2026-04-07T13:16:16.358Z</time></trkpt><trkpt lat="38.96356" lon="16.5083117"><ele>722.0</ele><time>2026-04-07T13:16:17.359Z</time></trkpt><trkpt lat="38.9636733" lon="16.508145"><ele>731.0</ele><time>2026-04-07T13:16:18.358Z</time></trkpt><trkpt lat="38.9637817" lon="16.5079717"><ele>727.0</ele><time>2026-04-07T13:16:19.358Z</time></trkpt><trkpt lat="38.9638867" lon="16.5077933"><ele>723.0</ele><time>2026-04-07T13:16:20.359Z</time></trkpt><trkpt lat="38.9639933" lon="16.5076033"><ele>719.0</ele><time>2026-04-07T13:16:21.358Z</time></trkpt><trkpt lat="38.9641" lon="16.50741"><ele>726.0</ele><time>2026-04-07T13:16:22.359Z</time></trkpt><trkpt lat="38.9642117" lon="16.50722"><ele>733.0</ele><time>2026-04-07T13:16:23.358Z</time></trkpt><trkpt lat="38.9643117" lon="16.507015"><ele>740.0</ele><time>2026-04-07T13:16:24.358Z</time></trkpt><trkpt lat="38.9644067" lon="16.5068083"><ele>740.0</ele><time>2026-04-07T13:16:25.358Z</time></trkpt><trkpt lat="38.9644917" lon="16.5066083"><ele>740.0</ele><time>2026-04-07T13:16:26.358Z</time></trkpt><trkpt lat="38.9645617" lon="16.5064183"><ele>740.0</ele><time>2026-04-07T13:16:27.359Z</time></trkpt><trkpt lat="38.9646267" lon="16.5062533"><ele>736.5</ele><time>2026-04-07T13:16:28.359Z</time></trkpt><trkpt lat="38.9646983" lon="16.50612"><ele>733.0</ele><time>2026-04-07T13:16:29.359Z</time></trkpt><trkpt lat="38.9647917" lon="16.50601"><ele>729.5</ele><time>2026-04-07T13:16:30.358Z</time></trkpt><trkpt lat="38.9648783" lon="16.5059067"><ele>726.0</ele><time>2026-04-07T13:16:31.358Z</time></trkpt><trkpt lat="38.9649417" lon="16.5057833"><ele>726.0</ele><time>2026-04-07T13:16:32.358Z</time></trkpt><trkpt lat="38.9649833" lon="16.5056267"><ele>726.0</ele><time>2026-04-07T13:16:33.358Z</time></trkpt><trkpt lat="38.964985" lon="16.5054483"><ele>726.0</ele><time>2026-04-07T13:16:34.359Z</time></trkpt><trkpt lat="38.964955" lon="16.50526"><ele>726.0</ele><time>2026-04-07T13:16:35.359Z</time></trkpt><trkpt lat="38.96491" lon="16.5050767"><ele>726.0</ele><time>2026-04-07T13:16:36.358Z</time></trkpt><trkpt lat="38.9648667" lon="16.5049117"><ele>726.0</ele><time>2026-04-07T13:16:37.359Z</time></trkpt><trkpt lat="38.9648217" lon="16.50475"><ele>726.0</ele><time>2026-04-07T13:16:38.358Z</time></trkpt><trkpt lat="38.9648083" lon="16.5045833"><ele>726.0</ele><time>2026-04-07T13:16:39.357Z</time></trkpt><trkpt lat="38.9648217" lon="16.504435"><ele>725.25</ele><time>2026-04-07T13:16:40.357Z</time></trkpt><trkpt lat="38.9648667" lon="16.5042833"><ele>724.5</ele><time>2026-04-07T13:16:41.358Z</time></trkpt><trkpt lat="38.96494" lon="16.5041533"><ele>723.75</ele><time>2026-04-07T13:16:42.357Z</time></trkpt><trkpt lat="38.9650417" lon="16.5040417"><ele>723.0</ele><time>2026-04-07T13:16:43.357Z</time></trkpt><trkpt lat="38.9651567" lon="16.5039317"><ele>724.3333333333334</ele><time>2026-04-07T13:16:44.357Z</time></trkpt><trkpt lat="38.96528" lon="16.5038017"><ele>725.6666666666667</ele><time>2026-04-07T13:16:45.357Z</time></trkpt><trkpt lat="38.9654" lon="16.503675"><ele>727.0</ele><time>2026-04-07T13:16:46.358Z</time></trkpt><trkpt lat="38.9655167" lon="16.50355"><ele>727.0</ele><time>2026-04-07T13:16:47.357Z</time></trkpt><trkpt lat="38.96563" lon="16.503425"><ele>727.0</ele><time>2026-04-07T13:16:48.357Z</time></trkpt><trkpt lat="38.9657267" lon="16.503325"><ele>727.0</ele><time>2026-04-07T13:16:49.358Z</time></trkpt><trkpt lat="38.9658217" lon="16.5032583"><ele>727.0</ele><time>2026-04-07T13:16:50.357Z</time></trkpt><trkpt lat="38.96594" lon="16.5032633"><ele>728.6</ele><time>2026-04-07T13:16:51.358Z</time></trkpt><trkpt lat="38.9660483" lon="16.503325"><ele>730.2</ele><time>2026-04-07T13:16:52.357Z</time></trkpt><trkpt lat="38.96614" lon="16.5034133"><ele>731.8</ele><time>2026-04-07T13:16:53.357Z</time></trkpt><trkpt lat="38.9662233" lon="16.5035033"><ele>733.4</ele><time>2026-04-07T13:16:54.357Z</time></trkpt><trkpt lat="38.9663183" lon="16.503525"><ele>735.0</ele><time>2026-04-07T13:16:55.357Z</time></trkpt><trkpt lat="38.966425" lon="16.5034917"><ele>735.0</ele><time>2026-04-07T13:16:56.357Z</time></trkpt><trkpt lat="38.9665417" lon="16.5034217"><ele>735.0</ele><time>2026-04-07T13:16:57.357Z</time></trkpt><trkpt lat="38.966665" lon="16.5033383"><ele>735.0</ele><time>2026-04-07T13:16:58.357Z</time></trkpt><trkpt lat="38.966795" lon="16.5032983"><ele>735.0</ele><time>2026-04-07T13:16:59.358Z</time></trkpt><trkpt lat="38.96692" lon="16.5032917"><ele>741.75</ele><time>2026-04-07T13:17:00.358Z</time></trkpt><trkpt lat="38.9670533" lon="16.5033033"><ele>748.5</ele><time>2026-04-07T13:17:01.357Z</time></trkpt><trkpt lat="38.9671817" lon="16.5033167"><ele>755.25</ele><time>2026-04-07T13:17:02.358Z</time></trkpt><trkpt lat="38.967295" lon="16.5033117"><ele>762.0</ele><time>2026-04-07T13:17:03.358Z</time></trkpt><trkpt lat="38.96739" lon="16.5033017"><ele>762.0</ele><time>2026-04-07T13:17:04.358Z</time></trkpt><trkpt lat="38.9674733" lon="16.5032333"><ele>762.0</ele><time>2026-04-07T13:17:05.358Z</time></trkpt><trkpt lat="38.9675133" lon="16.5031267"><ele>762.0</ele><time>2026-04-07T13:17:06.358Z</time></trkpt><trkpt lat="38.9675233" lon="16.5030017"><ele>762.0</ele><time>2026-04-07T13:17:07.357Z</time></trkpt><trkpt lat="38.9675" lon="16.502855"><ele>762.0</ele><time>2026-04-07T13:17:08.357Z</time></trkpt><trkpt lat="38.96745" lon="16.50271"><ele>759.5</ele><time>2026-04-07T13:17:09.358Z</time></trkpt><trkpt lat="38.967415" lon="16.5025383"><ele>757.0</ele><time>2026-04-07T13:17:10.357Z</time></trkpt><trkpt lat="38.9673917" lon="16.5023567"><ele>754.5</ele><time>2026-04-07T13:17:11.357Z</time></trkpt><trkpt lat="38.9674" lon="16.5021783"><ele>752.0</ele><time>2026-04-07T13:17:12.357Z</time></trkpt><trkpt lat="38.967455" lon="16.5020283"><ele>752.75</ele><time>2026-04-07T13:17:13.357Z</time></trkpt><trkpt lat="38.9675433" lon="16.5019183"><ele>753.5</ele><time>2026-04-07T13:17:14.357Z</time></trkpt><trkpt lat="38.96766" lon="16.50183"><ele>754.25</ele><time>2026-04-07T13:17:15.357Z</time></trkpt><trkpt lat="38.9677933" lon="16.50176"><ele>755.0</ele><time>2026-04-07T13:17:16.358Z</time></trkpt><trkpt lat="38.9679367" lon="16.5017233"><ele>755.0</ele><time>2026-04-07T13:17:17.358Z</time></trkpt><trkpt lat="38.9680883" lon="16.5017117"><ele>755.0</ele><time>2026-04-07T13:17:18.357Z</time></trkpt><trkpt lat="38.9682383" lon="16.5017017"><ele>755.0</ele><time>2026-04-07T13:17:19.358Z</time></trkpt><trkpt lat="38.9683933" lon="16.5016833"><ele>757.6666666666666</ele><time>2026-04-07T13:17:20.358Z</time></trkpt><trkpt lat="38.9685517" lon="16.5016417"><ele>760.3333333333334</ele><time>2026-04-07T13:17:21.357Z</time></trkpt><trkpt lat="38.9687333" lon="16.501625"><ele>763.0</ele><time>2026-04-07T13:17:22.358Z</time></trkpt><trkpt lat="38.9689017" lon="16.5016"><ele>763.0</ele><time>2026-04-07T13:17:23.358Z</time></trkpt><trkpt lat="38.9690517" lon="16.501565"><ele>763.0</ele><time>2026-04-07T13:17:24.358Z</time></trkpt><trkpt lat="38.96918" lon="16.5015317"><ele>763.0</ele><time>2026-04-07T13:17:25.358Z</time></trkpt><trkpt lat="38.9693183" lon="16.5015833"><ele>763.0</ele><time>2026-04-07T13:17:26.358Z</time></trkpt><trkpt lat="38.9694433" lon="16.50169"><ele>762.5</ele><time>2026-04-07T13:17:27.357Z</time></trkpt><trkpt lat="38.969545" lon="16.5018233"><ele>762.0</ele><time>2026-04-07T13:17:28.357Z</time></trkpt><trkpt lat="38.9696367" lon="16.5019933"><ele>761.5</ele><time>2026-04-07T13:17:29.357Z</time></trkpt><trkpt lat="38.969725" lon="16.502135"><ele>761.0</ele><time>2026-04-07T13:17:30.358Z</time></trkpt><trkpt lat="38.969815" lon="16.5022083"><ele>765.25</ele><time>2026-04-07T13:17:31.358Z</time></trkpt><trkpt lat="38.9699267" lon="16.502225"><ele>769.5</ele><time>2026-04-07T13:17:32.357Z</time></trkpt><trkpt lat="38.9700367" lon="16.502175"><ele>773.75</ele><time>2026-04-07T13:17:33.358Z</time></trkpt><trkpt lat="38.9701567" lon="16.5020717"><ele>778.0</ele><time>2026-04-07T13:17:34.358Z</time></trkpt><trkpt lat="38.970295" lon="16.5019483"><ele>778.0</ele><time>2026-04-07T13:17:35.357Z</time></trkpt><trkpt lat="38.9704417" lon="16.5018467"><ele>778.0</ele><time>2026-04-07T13:17:36.357Z</time></trkpt><trkpt lat="38.9706083" lon="16.5017533"><ele>778.0</ele><time>2026-04-07T13:17:37.357Z</time></trkpt><trkpt lat="38.9707817" lon="16.5016883"><ele>780.0</ele><time>2026-04-07T13:17:38.357Z</time></trkpt><trkpt lat="38.9709583" lon="16.5016417"><ele>782.0</ele><time>2026-04-07T13:17:39.358Z</time></trkpt><trkpt lat="38.9711383" lon="16.501615"><ele>784.0</ele><time>2026-04-07T13:17:40.357Z</time></trkpt><trkpt lat="38.9713333" lon="16.501585"><ele>784.0</ele><time>2026-04-07T13:17:41.358Z</time></trkpt><trkpt lat="38.9715217" lon="16.5015233"><ele>784.0</ele><time>2026-04-07T13:17:42.357Z</time></trkpt><trkpt lat="38.9717183" lon="16.5014433"><ele>784.0</ele><time>2026-04-07T13:17:43.357Z</time></trkpt><trkpt lat="38.9719217" lon="16.5014067"><ele>786.6666666666666</ele><time>2026-04-07T13:17:44.357Z</time></trkpt><trkpt lat="38.9721183" lon="16.5014067"><ele>789.3333333333333</ele><time>2026-04-07T13:17:45.358Z</time></trkpt><trkpt lat="38.9723183" lon="16.5014183"><ele>792.0</ele><time>2026-04-07T13:17:46.357Z</time></trkpt><trkpt lat="38.972505" lon="16.501435"><ele>792.6666666666667</ele><time>2026-04-07T13:17:47.357Z</time></trkpt><trkpt lat="38.9726717" lon="16.5013983"><ele>793.3333333333334</ele><time>2026-04-07T13:17:48.357Z</time></trkpt><trkpt lat="38.9728167" lon="16.5012883"><ele>794.0</ele><time>2026-04-07T13:17:49.358Z</time></trkpt><trkpt lat="38.9729433" lon="16.501125"><ele>794.0</ele><time>2026-04-07T13:17:50.357Z</time></trkpt><trkpt lat="38.9730433" lon="16.500935"><ele>794.0</ele><time>2026-04-07T13:17:51.358Z</time></trkpt><trkpt lat="38.973165" lon="16.5007583"><ele>794.0</ele><time>2026-04-07T13:17:52.357Z</time></trkpt><trkpt lat="38.9732967" lon="16.5006117"><ele>796.3333333333334</ele><time>2026-04-07T13:17:53.357Z</time></trkpt><trkpt lat="38.9734167" lon="16.5004633"><ele>798.6666666666667</ele><time>2026-04-07T13:17:54.357Z</time></trkpt><trkpt lat="38.9735233" lon="16.50028"><ele>801.0</ele><time>2026-04-07T13:17:55.357Z</time></trkpt><trkpt lat="38.9736" lon="16.5000567"><ele>801.0</ele><time>2026-04-07T13:17:56.357Z</time></trkpt><trkpt lat="38.9736717" lon="16.4998383"><ele>801.0</ele><time>2026-04-07T13:17:57.358Z</time></trkpt><trkpt lat="38.9737333" lon="16.499615"><ele>801.0</ele><time>2026-04-07T13:17:58.358Z</time></trkpt><trkpt lat="38.9737917" lon="16.4994433"><ele>805.25</ele><time>2026-04-07T13:17:59.358Z</time></trkpt><trkpt lat="38.97387" lon="16.4993283"><ele>809.5</ele><time>2026-04-07T13:18:00.358Z</time></trkpt><trkpt lat="38.9739833" lon="16.4992483"><ele>813.75</ele><time>2026-04-07T13:18:01.358Z</time></trkpt><trkpt lat="38.974085" lon="16.4991933"><ele>818.0</ele><time>2026-04-07T13:18:02.357Z</time></trkpt><trkpt lat="38.9742083" lon="16.4991717"><ele>818.0</ele><time>2026-04-07T13:18:03.358Z</time></trkpt><trkpt lat="38.9743167" lon="16.4991183"><ele>818.0</ele><time>2026-04-07T13:18:04.357Z</time></trkpt><trkpt lat="38.9744067" lon="16.4990017"><ele>818.0</ele><time>2026-04-07T13:18:05.357Z</time></trkpt><trkpt lat="38.97449" lon="16.4988633"><ele>818.0</ele><time>2026-04-07T13:18:06.358Z</time></trkpt><trkpt lat="38.974575" lon="16.49872"><ele>811.25</ele><time>2026-04-07T13:18:07.357Z</time></trkpt><trkpt lat="38.9746567" lon="16.49856"><ele>804.5</ele><time>2026-04-07T13:18:08.358Z</time></trkpt><trkpt lat="38.9747317" lon="16.49841"><ele>797.75</ele><time>2026-04-07T13:18:09.358Z</time></trkpt><trkpt lat="38.9748167" lon="16.4982883"><ele>791.0</ele><time>2026-04-07T13:18:10.357Z</time></trkpt><trkpt lat="38.9749233" lon="16.4981867"><ele>799.0</ele><time>2026-04-07T13:18:11.357Z</time></trkpt><trkpt lat="38.9750467" lon="16.4980967"><ele>807.0</ele><time>2026-04-07T13:18:12.358Z</time></trkpt><trkpt lat="38.9751833" lon="16.4980167"><ele>815.0</ele><time>2026-04-07T13:18:13.357Z</time></trkpt><trkpt lat="38.97533" lon="16.4979217"><ele>807.25</ele><time>2026-04-07T13:18:14.358Z</time></trkpt><trkpt lat="38.9754717" lon="16.4978183"><ele>799.5</ele><time>2026-04-07T13:18:15.357Z</time></trkpt><trkpt lat="38.9756" lon="16.497735"><ele>791.75</ele><time>2026-04-07T13:18:16.358Z</time></trkpt><trkpt lat="38.97573" lon="16.4976817"><ele>784.0</ele><time>2026-04-07T13:18:17.357Z</time></trkpt><trkpt lat="38.975855" lon="16.4976767"><ele>781.6666666666666</ele><time>2026-04-07T13:18:18.357Z</time></trkpt><trkpt lat="38.9760067" lon="16.4977033"><ele>779.3333333333333</ele><time>2026-04-07T13:18:19.358Z</time></trkpt><trkpt lat="38.9761683" lon="16.4977417"><ele>777.0</ele><time>2026-04-07T13:18:20.358Z</time></trkpt><trkpt lat="38.9763233" lon="16.4978017"><ele>777.0</ele><time>2026-04-07T13:18:21.358Z</time></trkpt><trkpt lat="38.9764683" lon="16.497875"><ele>777.0</ele><time>2026-04-07T13:18:22.358Z</time></trkpt><trkpt lat="38.9765967" lon="16.49796"><ele>777.0</ele><time>2026-04-07T13:18:23.358Z</time></trkpt><trkpt lat="38.9767217" lon="16.4980233"><ele>777.0</ele><time>2026-04-07T13:18:24.358Z</time></trkpt><trkpt lat="38.976855" lon="16.49805"><ele>785.75</ele><time>2026-04-07T13:18:25.357Z</time></trkpt><trkpt lat="38.9770033" lon="16.4980317"><ele>794.5</ele><time>2026-04-07T13:18:26.357Z</time></trkpt><trkpt lat="38.9771467" lon="16.4979883"><ele>803.25</ele><time>2026-04-07T13:18:27.357Z</time></trkpt><trkpt lat="38.9772767" lon="16.49797"><ele>812.0</ele><time>2026-04-07T13:18:28.358Z</time></trkpt><trkpt lat="38.9774" lon="16.4979917"><ele>809.75</ele><time>2026-04-07T13:18:29.357Z</time></trkpt><trkpt lat="38.97752" lon="16.4980367"><ele>807.5</ele><time>2026-04-07T13:18:30.357Z</time></trkpt><trkpt lat="38.97764" lon="16.4981017"><ele>805.25</ele><time>2026-04-07T13:18:31.358Z</time></trkpt><trkpt lat="38.9777733" lon="16.498165"><ele>803.0</ele><time>2026-04-07T13:18:32.358Z</time></trkpt><trkpt lat="38.9779117" lon="16.4982133"><ele>803.0</ele><time>2026-04-07T13:18:33.357Z</time></trkpt><trkpt lat="38.9780583" lon="16.4982283"><ele>803.0</ele><time>2026-04-07T13:18:34.357Z</time></trkpt><trkpt lat="38.97821" lon="16.4982417"><ele>803.0</ele><time>2026-04-07T13:18:35.357Z</time></trkpt><trkpt lat="38.9783783" lon="16.498255"><ele>802.6666666666667</ele><time>2026-04-07T13:18:36.358Z</time></trkpt><trkpt lat="38.9785533" lon="16.4982767"><ele>802.3333333333333</ele><time>2026-04-07T13:18:37.357Z</time></trkpt><trkpt lat="38.9787267" lon="16.4983067"><ele>802.0</ele><time>2026-04-07T13:18:38.358Z</time></trkpt><trkpt lat="38.9789033" lon="16.4983083"><ele>802.0</ele><time>2026-04-07T13:18:39.357Z</time></trkpt><trkpt lat="38.97908" lon="16.49829"><ele>802.0</ele><time>2026-04-07T13:18:40.358Z</time></trkpt><trkpt lat="38.9792617" lon="16.4982617"><ele>802.0</ele><time>2026-04-07T13:18:41.358Z</time></trkpt><trkpt lat="38.9794283" lon="16.49823"><ele>807.3333333333333</ele><time>2026-04-07T13:18:42.358Z</time></trkpt><trkpt lat="38.9795917" lon="16.49821"><ele>812.6666666666667</ele><time>2026-04-07T13:18:43.357Z</time></trkpt><trkpt lat="38.9797433" lon="16.498185"><ele>818.0</ele><time>2026-04-07T13:18:44.358Z</time></trkpt><trkpt lat="38.9798767" lon="16.4981633"><ele>818.0</ele><time>2026-04-07T13:18:45.357Z</time></trkpt><trkpt lat="38.9799917" lon="16.4981367"><ele>818.0</ele><time>2026-04-07T13:18:46.357Z</time></trkpt><trkpt lat="38.9801083" lon="16.4980883"><ele>818.0</ele><time>2026-04-07T13:18:47.357Z</time></trkpt><trkpt lat="38.9802017" lon="16.4980117"><ele>818.0</ele><time>2026-04-07T13:18:48.358Z</time></trkpt><trkpt lat="38.9802867" lon="16.4979033"><ele>817.0</ele><time>2026-04-07T13:18:49.357Z</time></trkpt><trkpt lat="38.980345" lon="16.497785"><ele>816.0</ele><time>2026-04-07T13:18:50.357Z</time></trkpt><trkpt lat="38.9804033" lon="16.4976667"><ele>815.0</ele><time>2026-04-07T13:18:51.357Z</time></trkpt><trkpt lat="38.980475" lon="16.4975717"><ele>814.0</ele><time>2026-04-07T13:18:52.357Z</time></trkpt><trkpt lat="38.9805633" lon="16.497495"><ele>813.0</ele><time>2026-04-07T13:18:53.358Z</time></trkpt><trkpt lat="38.98068" lon="16.497465"><ele>813.0</ele><time>2026-04-07T13:18:54.358Z</time></trkpt><trkpt lat="38.9808133" lon="16.4974617"><ele>813.0</ele><time>2026-04-07T13:18:55.357Z</time></trkpt><trkpt lat="38.98094" lon="16.49746"><ele>813.0</ele><time>2026-04-07T13:18:56.358Z</time></trkpt><trkpt lat="38.9810633" lon="16.497475"><ele>813.0</ele><time>2026-04-07T13:18:57.358Z</time></trkpt><trkpt lat="38.9811867" lon="16.4975133"><ele>812.25</ele><time>2026-04-07T13:18:58.357Z</time></trkpt><trkpt lat="38.981315" lon="16.4975717"><ele>811.5</ele><time>2026-04-07T13:18:59.357Z</time></trkpt><trkpt lat="38.981435" lon="16.4976483"><ele>810.75</ele><time>2026-04-07T13:19:00.357Z</time></trkpt><trkpt lat="38.9815667" lon="16.497725"><ele>810.0</ele><time>2026-04-07T13:19:01.357Z</time></trkpt><trkpt lat="38.9816783" lon="16.4977867"><ele>809.4</ele><time>2026-04-07T13:19:02.357Z</time></trkpt><trkpt lat="38.9817767" lon="16.4978483"><ele>808.8</ele><time>2026-04-07T13:19:03.357Z</time></trkpt><trkpt lat="38.98186" lon="16.4979017"><ele>808.2</ele><time>2026-04-07T13:19:04.357Z</time></trkpt><trkpt lat="38.9819283" lon="16.49797"><ele>807.6</ele><time>2026-04-07T13:19:05.358Z</time></trkpt><trkpt lat="38.981985" lon="16.498055"><ele>807.0</ele><time>2026-04-07T13:19:06.357Z</time></trkpt><trkpt lat="38.9820283" lon="16.4981417"><ele>807.0</ele><time>2026-04-07T13:19:07.357Z</time></trkpt><trkpt lat="38.9820717" lon="16.4982367"><ele>807.0</ele><time>2026-04-07T13:19:08.357Z</time></trkpt><trkpt lat="38.98211" lon="16.4983383"><ele>807.0</ele><time>2026-04-07T13:19:09.357Z</time></trkpt><trkpt lat="38.9821533" lon="16.4984567"><ele>807.0</ele><time>2026-04-07T13:19:10.358Z</time></trkpt><trkpt lat="38.9822" lon="16.4985767"><ele>807.0</ele><time>2026-04-07T13:19:11.357Z</time></trkpt><trkpt lat="38.9822267" lon="16.4986983"><ele>810.6666666666666</ele><time>2026-04-07T13:19:12.358Z</time></trkpt><trkpt lat="38.98224" lon="16.49882"><ele>814.3333333333333</ele><time>2026-04-07T13:19:13.357Z</time></trkpt><trkpt lat="38.98223" lon="16.498925"><ele>818.0</ele><time>2026-04-07T13:19:14.357Z</time></trkpt><trkpt lat="38.9822367" lon="16.4990333"><ele>821.6666666666666</ele><time>2026-04-07T13:19:15.358Z</time></trkpt><trkpt lat="38.98224" lon="16.4991317"><ele>825.3333333333333</ele><time>2026-04-07T13:19:16.358Z</time></trkpt><trkpt lat="38.9822667" lon="16.4992267"><ele>829.0</ele><time>2026-04-07T13:19:17.357Z</time></trkpt><trkpt lat="38.9823133" lon="16.499315"><ele>829.0</ele><time>2026-04-07T13:19:18.358Z</time></trkpt><trkpt lat="38.9823617" lon="16.4993933"><ele>829.0</ele><time>2026-04-07T13:19:19.358Z</time></trkpt><trkpt lat="38.9825217" lon="16.499525"><ele>829.0</ele><time>2026-04-07T13:19:21.358Z</time></trkpt><trkpt lat="38.9826233" lon="16.4995767"><ele>829.0</ele><time>2026-04-07T13:19:22.358Z</time></trkpt><trkpt lat="38.982725" lon="16.4996333"><ele>837.6666666666666</ele><time>2026-04-07T13:19:23.357Z</time></trkpt><trkpt lat="38.9828383" lon="16.499675"><ele>846.3333333333333</ele><time>2026-04-07T13:19:24.358Z</time></trkpt><trkpt lat="38.98308" lon="16.4997217"><ele>855.0</ele><time>2026-04-07T13:19:26.357Z</time></trkpt><trkpt lat="38.9832117" lon="16.4997317"><ele>855.0</ele><time>2026-04-07T13:19:27.358Z</time></trkpt><trkpt lat="38.983345" lon="16.4997483"><ele>855.0</ele><time>2026-04-07T13:19:28.358Z</time></trkpt><trkpt lat="38.98347" lon="16.4997817"><ele>855.0</ele><time>2026-04-07T13:19:29.358Z</time></trkpt><trkpt lat="38.983715" lon="16.49986"><ele>846.5</ele><time>2026-04-07T13:19:31.357Z</time></trkpt><trkpt lat="38.9839267" lon="16.49999"><ele>838.0</ele><time>2026-04-07T13:19:33.357Z</time></trkpt><trkpt lat="38.9841067" lon="16.5001817"><ele>834.0</ele><time>2026-04-07T13:19:35.357Z</time></trkpt><trkpt lat="38.984195" lon="16.5002683"><ele>830.0</ele><time>2026-04-07T13:19:36.357Z</time></trkpt><trkpt lat="38.98427" lon="16.5003517"><ele>826.0</ele><time>2026-04-07T13:19:37.357Z</time></trkpt><trkpt lat="38.9844417" lon="16.5005"><ele>822.0</ele><time>2026-04-07T13:19:39.358Z</time></trkpt><trkpt lat="38.9846417" lon="16.5006083"><ele>825.0</ele><time>2026-04-07T13:19:41.357Z</time></trkpt><trkpt lat="38.9848617" lon="16.5007133"><ele>828.0</ele><time>2026-04-07T13:19:43.357Z</time></trkpt><trkpt lat="38.9849683" lon="16.50078"><ele>831.0</ele><time>2026-04-07T13:19:44.357Z</time></trkpt><trkpt lat="38.985075" lon="16.5008517"><ele>831.0</ele><time>2026-04-07T13:19:45.357Z</time></trkpt><trkpt lat="38.9852833" lon="16.5010583"><ele>831.0</ele><time>2026-04-07T13:19:47.357Z</time></trkpt><trkpt lat="38.98543" lon="16.50132"><ele>843.5</ele><time>2026-04-07T13:19:49.357Z</time></trkpt><trkpt lat="38.9855933" lon="16.5016067"><ele>856.0</ele><time>2026-04-07T13:19:51.358Z</time></trkpt><trkpt lat="38.9857883" lon="16.50183"><ele>854.5</ele><time>2026-04-07T13:19:53.357Z</time></trkpt><trkpt lat="38.98603" lon="16.501875"><ele>853.0</ele><time>2026-04-07T13:19:55.357Z</time></trkpt><trkpt lat="38.9862933" lon="16.5018067"><ele>853.0</ele><time>2026-04-07T13:19:57.357Z</time></trkpt><trkpt lat="38.986445" lon="16.5018017"><ele>853.0</ele><time>2026-04-07T13:19:58.358Z</time></trkpt><trkpt lat="38.9865917" lon="16.5018133"><ele>853.0</ele><time>2026-04-07T13:19:59.357Z</time></trkpt><trkpt lat="38.9867267" lon="16.501825"><ele>853.0</ele><time>2026-04-07T13:20:00.358Z</time></trkpt><trkpt lat="38.986835" lon="16.5018283"><ele>853.8333333333333</ele><time>2026-04-07T13:20:01.357Z</time></trkpt><trkpt lat="38.9869367" lon="16.5018267"><ele>854.6666666666666</ele><time>2026-04-07T13:20:02.357Z</time></trkpt><trkpt lat="38.9870233" lon="16.5018167"><ele>855.5</ele><time>2026-04-07T13:20:03.358Z</time></trkpt><trkpt lat="38.9870933" lon="16.5018033"><ele>856.3333333333333</ele><time>2026-04-07T13:20:04.357Z</time></trkpt><trkpt lat="38.9871617" lon="16.5017783"><ele>857.1666666666666</ele><time>2026-04-07T13:20:06.357Z</time></trkpt><trkpt lat="38.987075" lon="16.501755"><ele>858.0</ele><time>2026-04-07T13:20:10.357Z</time></trkpt><trkpt lat="38.987005" lon="16.5017667"><ele>858.0</ele><time>2026-04-07T13:20:11.358Z</time></trkpt><trkpt lat="38.9869017" lon="16.5017833"><ele>858.0</ele><time>2026-04-07T13:20:12.357Z</time></trkpt><trkpt lat="38.9867783" lon="16.5018017"><ele>858.0</ele><time>2026-04-07T13:20:13.357Z</time></trkpt><trkpt lat="38.9866233" lon="16.5018017"><ele>858.0</ele><time>2026-04-07T13:20:14.357Z</time></trkpt><trkpt lat="38.9863117" lon="16.5017933"><ele>857.3333333333333</ele><time>2026-04-07T13:20:16.357Z</time></trkpt><trkpt lat="38.98602" lon="16.5018217"><ele>856.6666666666666</ele><time>2026-04-07T13:20:18.357Z</time></trkpt><trkpt lat="38.9858983" lon="16.5018217"><ele>856.0</ele><time>2026-04-07T13:20:19.358Z</time></trkpt><trkpt lat="38.9858033" lon="16.5017867"><ele>856.0</ele><time>2026-04-07T13:20:20.357Z</time></trkpt><trkpt lat="38.9857" lon="16.5017133"><ele>856.0</ele><time>2026-04-07T13:20:21.357Z</time></trkpt><trkpt lat="38.9856033" lon="16.5015933"><ele>856.0</ele><time>2026-04-07T13:20:22.357Z</time></trkpt><trkpt lat="38.9855217" lon="16.5014617"><ele>856.0</ele><time>2026-04-07T13:20:23.357Z</time></trkpt><trkpt lat="38.985455" lon="16.50132"><ele>847.6666666666666</ele><time>2026-04-07T13:20:24.357Z</time></trkpt><trkpt lat="38.9853183" lon="16.5010433"><ele>839.3333333333333</ele><time>2026-04-07T13:20:26.357Z</time></trkpt><trkpt lat="38.985235" lon="16.5009167"><ele>831.0</ele><time>2026-04-07T13:20:27.358Z</time></trkpt><trkpt lat="38.9851183" lon="16.5008117"><ele>838.6666666666667</ele><time>2026-04-07T13:20:28.357Z</time></trkpt><trkpt lat="38.9849917" lon="16.50073"><ele>846.3333333333334</ele><time>2026-04-07T13:20:29.358Z</time></trkpt><trkpt lat="38.98474" lon="16.50062"><ele>854.0</ele><time>2026-04-07T13:20:31.357Z</time></trkpt><trkpt lat="38.9843933" lon="16.5004317"><ele>850.0</ele><time>2026-04-07T13:20:34.357Z</time></trkpt><trkpt lat="38.98429" lon="16.5003583"><ele>846.0</ele><time>2026-04-07T13:20:35.358Z</time></trkpt><trkpt lat="38.984185" lon="16.5002733"><ele>842.0</ele><time>2026-04-07T13:20:36.357Z</time></trkpt><trkpt lat="38.98407" lon="16.5001683"><ele>838.0</ele><time>2026-04-07T13:20:37.357Z</time></trkpt><trkpt lat="38.983985" lon="16.5000683"><ele>838.0</ele><time>2026-04-07T13:20:38.357Z</time></trkpt><trkpt lat="38.983895" lon="16.4999717"><ele>838.0</ele><time>2026-04-07T13:20:39.357Z</time></trkpt><trkpt lat="38.9837783" lon="16.4999"><ele>838.0</ele><time>2026-04-07T13:20:40.358Z</time></trkpt><trkpt lat="38.9836367" lon="16.49983"><ele>838.0</ele><time>2026-04-07T13:20:41.357Z</time></trkpt><trkpt lat="38.98347" lon="16.4997933"><ele>843.6666666666666</ele><time>2026-04-07T13:20:42.357Z</time></trkpt><trkpt lat="38.98331" lon="16.4997583"><ele>849.3333333333333</ele><time>2026-04-07T13:20:43.357Z</time></trkpt><trkpt lat="38.98314" lon="16.49972"><ele>855.0</ele><time>2026-04-07T13:20:44.358Z</time></trkpt><trkpt lat="38.9828133" lon="16.4996283"><ele>848.5</ele><time>2026-04-07T13:20:46.357Z</time></trkpt><trkpt lat="38.9826683" lon="16.499565"><ele>842.0</ele><time>2026-04-07T13:20:47.358Z</time></trkpt><trkpt lat="38.982545" lon="16.4994883"><ele>835.5</ele><time>2026-04-07T13:20:48.357Z</time></trkpt><trkpt lat="38.9824383" lon="16.4994017"><ele>829.0</ele><time>2026-04-07T13:20:49.357Z</time></trkpt><trkpt lat="38.9823517" lon="16.499305"><ele>829.0</ele><time>2026-04-07T13:20:50.357Z</time></trkpt><trkpt lat="38.9822983" lon="16.4991883"><ele>829.0</ele><time>2026-04-07T13:20:51.357Z</time></trkpt><trkpt lat="38.9822617" lon="16.49907"><ele>829.0</ele><time>2026-04-07T13:20:52.358Z</time></trkpt><trkpt lat="38.982225" lon="16.4989133"><ele>829.0</ele><time>2026-04-07T13:20:53.358Z</time></trkpt><trkpt lat="38.9822267" lon="16.498735"><ele>823.5</ele><time>2026-04-07T13:20:54.358Z</time></trkpt><trkpt lat="38.982205" lon="16.49856"><ele>818.0</ele><time>2026-04-07T13:20:55.358Z</time></trkpt><trkpt lat="38.9821617" lon="16.49841"><ele>812.5</ele><time>2026-04-07T13:20:56.357Z</time></trkpt><trkpt lat="38.9821133" lon="16.4982817"><ele>807.0</ele><time>2026-04-07T13:20:57.357Z</time></trkpt><trkpt lat="38.9820517" lon="16.4981533"><ele>807.0</ele><time>2026-04-07T13:20:58.357Z</time></trkpt><trkpt lat="38.9819867" lon="16.4980517"><ele>807.0</ele><time>2026-04-07T13:20:59.358Z</time></trkpt><trkpt lat="38.981935" lon="16.4979717"><ele>807.0</ele><time>2026-04-07T13:21:00.357Z</time></trkpt><trkpt lat="38.9818783" lon="16.497895"><ele>807.0</ele><time>2026-04-07T13:21:01.357Z</time></trkpt><trkpt lat="38.9818083" lon="16.49783"><ele>807.0</ele><time>2026-04-07T13:21:02.358Z</time></trkpt><trkpt lat="38.9817033" lon="16.4977667"><ele>808.0</ele><time>2026-04-07T13:21:03.358Z</time></trkpt><trkpt lat="38.981575" lon="16.4976967"><ele>809.0</ele><time>2026-04-07T13:21:04.358Z</time></trkpt><trkpt lat="38.9814333" lon="16.4976283"><ele>810.0</ele><time>2026-04-07T13:21:05.358Z</time></trkpt><trkpt lat="38.981185" lon="16.49748"><ele>810.0</ele><time>2026-04-07T13:21:07.357Z</time></trkpt><trkpt lat="38.98106" lon="16.497435"><ele>810.0</ele><time>2026-04-07T13:21:08.357Z</time></trkpt><trkpt lat="38.980935" lon="16.4974183"><ele>810.0</ele><time>2026-04-07T13:21:09.358Z</time></trkpt><trkpt lat="38.9808083" lon="16.4974267"><ele>810.0</ele><time>2026-04-07T13:21:10.357Z</time></trkpt><trkpt lat="38.9806683" lon="16.497455"><ele>810.75</ele><time>2026-04-07T13:21:11.357Z</time></trkpt><trkpt lat="38.980545" lon="16.4974983"><ele>811.5</ele><time>2026-04-07T13:21:12.357Z</time></trkpt><trkpt lat="38.9804233" lon="16.4975417"><ele>812.25</ele><time>2026-04-07T13:21:13.357Z</time></trkpt><trkpt lat="38.9803233" lon="16.49763"><ele>813.0</ele><time>2026-04-07T13:21:14.357Z</time></trkpt><trkpt lat="38.9802517" lon="16.4977367"><ele>813.0</ele><time>2026-04-07T13:21:15.357Z</time></trkpt><trkpt lat="38.9801967" lon="16.4978817"><ele>813.0</ele><time>2026-04-07T13:21:16.357Z</time></trkpt><trkpt lat="38.9801333" lon="16.498015"><ele>813.0</ele><time>2026-04-07T13:21:17.358Z</time></trkpt><trkpt lat="38.980045" lon="16.4981033"><ele>813.0</ele><time>2026-04-07T13:21:18.357Z</time></trkpt><trkpt lat="38.9799583" lon="16.4981517"><ele>814.25</ele><time>2026-04-07T13:21:19.357Z</time></trkpt><trkpt lat="38.9798567" lon="16.4981567"><ele>815.5</ele><time>2026-04-07T13:21:20.357Z</time></trkpt><trkpt lat="38.9797383" lon="16.4981717"><ele>816.75</ele><time>2026-04-07T13:21:21.358Z</time></trkpt><trkpt lat="38.9796033" lon="16.498175"><ele>818.0</ele><time>2026-04-07T13:21:22.357Z</time></trkpt><trkpt lat="38.9794683" lon="16.4981917"><ele>818.0000000000001</ele><time>2026-04-07T13:21:23.358Z</time></trkpt><trkpt lat="38.9793433" lon="16.4982033"><ele>818.0</ele><time>2026-04-07T13:21:24.357Z</time></trkpt><trkpt lat="38.9792567" lon="16.4982183"><ele>818.0</ele><time>2026-04-07T13:21:25.358Z</time></trkpt><trkpt lat="38.9791883" lon="16.4982267"><ele>818.0</ele><time>2026-04-07T13:21:26.357Z</time></trkpt><trkpt lat="38.9791233" lon="16.4982317"><ele>818.0000000000001</ele><time>2026-04-07T13:21:28.357Z</time></trkpt><trkpt lat="38.9790983" lon="16.4981533"><ele>818.0</ele><time>2026-04-07T13:21:31.357Z</time></trkpt><trkpt lat="38.9791283" lon="16.4980317"><ele>815.3333333333334</ele><time>2026-04-07T13:21:33.357Z</time></trkpt><trkpt lat="38.97916" lon="16.4979583"><ele>812.6666666666667</ele><time>2026-04-07T13:21:34.357Z</time></trkpt><trkpt lat="38.97923" lon="16.4978517"><ele>810.0</ele><time>2026-04-07T13:21:36.358Z</time></trkpt><trkpt lat="38.9793" lon="16.4977867"><ele>807.3333333333333</ele><time>2026-04-07T13:21:38.357Z</time></trkpt><trkpt lat="38.9793817" lon="16.49777"><ele>804.6666666666666</ele><time>2026-04-07T13:21:40.358Z</time></trkpt><trkpt lat="38.979445" lon="16.497755"><ele>802.0</ele><time>2026-04-07T13:21:42.357Z</time></trkpt><trkpt lat="38.9794333" lon="16.497645"><ele>800.8571428571429</ele><time>2026-04-07T13:21:48.357Z</time></trkpt><trkpt lat="38.9793867" lon="16.49758"><ele>799.7142857142858</ele><time>2026-04-07T13:21:51.357Z</time></trkpt><trkpt lat="38.9793917" lon="16.4976683"><ele>798.5714285714286</ele><time>2026-04-07T13:21:57.357Z</time></trkpt><trkpt lat="38.97945" lon="16.4977133"><ele>797.4285714285714</ele><time>2026-04-07T13:21:59.358Z</time></trkpt><trkpt lat="38.97952" lon="16.4977883"><ele>796.2857142857142</ele><time>2026-04-07T13:22:02.357Z</time></trkpt><trkpt lat="38.9796017" lon="16.49781"><ele>795.1428571428571</ele><time>2026-04-07T13:22:05.357Z</time></trkpt><trkpt lat="38.9796683" lon="16.4978167"><ele>794.0</ele><time>2026-04-07T13:22:07.357Z</time></trkpt><trkpt lat="38.97975" lon="16.4978133"><ele>794.0000000000001</ele><time>2026-04-07T13:22:09.357Z</time></trkpt><trkpt lat="38.9798233" lon="16.4977633"><ele>794.0</ele><time>2026-04-07T13:22:11.358Z</time></trkpt><trkpt lat="38.97988" lon="16.4976917"><ele>794.0</ele><time>2026-04-07T13:22:13.358Z</time></trkpt><trkpt lat="38.97992" lon="16.4976233"><ele>794.0</ele><time>2026-04-07T13:22:15.358Z</time></trkpt><trkpt lat="38.9799667" lon="16.4975383"><ele>794.0000000000001</ele><time>2026-04-07T13:22:19.358Z</time></trkpt><trkpt lat="38.9800267" lon="16.4974317"><ele>794.0</ele><time>2026-04-07T13:22:58.357Z</time></trkpt><trkpt lat="38.9800667" lon="16.4973467"><ele>792.0</ele><time>2026-04-07T13:22:59.358Z</time></trkpt><trkpt lat="38.98011" lon="16.4972467"><ele>790.0</ele><time>2026-04-07T13:23:00.357Z</time></trkpt><trkpt lat="38.9801517" lon="16.4971483"><ele>788.0</ele><time>2026-04-07T13:23:01.357Z</time></trkpt><trkpt lat="38.9802" lon="16.4970633"><ele>786.0</ele><time>2026-04-07T13:23:02.357Z</time></trkpt><trkpt lat="38.980265" lon="16.4969683"><ele>784.0</ele><time>2026-04-07T13:23:03.358Z</time></trkpt><trkpt lat="38.9803433" lon="16.496885"><ele>784.0</ele><time>2026-04-07T13:23:04.357Z</time></trkpt><trkpt lat="38.9804133" lon="16.496795"><ele>784.0</ele><time>2026-04-07T13:23:05.357Z</time></trkpt><trkpt lat="38.9804833" lon="16.49671"><ele>784.0</ele><time>2026-04-07T13:23:06.357Z</time></trkpt><trkpt lat="38.9805583" lon="16.496635"><ele>784.0</ele><time>2026-04-07T13:23:07.357Z</time></trkpt><trkpt lat="38.9806233" lon="16.496565"><ele>784.0</ele><time>2026-04-07T13:23:08.357Z</time></trkpt><trkpt lat="38.9806833" lon="16.4965067"><ele>784.0</ele><time>2026-04-07T13:23:09.357Z</time></trkpt><trkpt lat="38.9807617" lon="16.4964183"><ele>784.0</ele><time>2026-04-07T13:23:11.357Z</time></trkpt><trkpt lat="38.98073" lon="16.49631"><ele>784.0</ele><time>2026-04-07T13:23:14.358Z</time></trkpt><trkpt lat="38.9806317" lon="16.496315"><ele>784.0</ele><time>2026-04-07T13:23:16.357Z</time></trkpt><trkpt lat="38.9805617" lon="16.4963583"><ele>784.0</ele><time>2026-04-07T13:23:17.358Z</time></trkpt><trkpt lat="38.98048" lon="16.4964217"><ele>783.9999999999999</ele><time>2026-04-07T13:23:18.358Z</time></trkpt><trkpt lat="38.9803983" lon="16.4964967"><ele>784.0</ele><time>2026-04-07T13:23:19.358Z</time></trkpt><trkpt lat="38.9803233" lon="16.4965633"><ele>784.0</ele><time>2026-04-07T13:23:20.357Z</time></trkpt><trkpt lat="38.98026" lon="16.4966183"><ele>784.0</ele><time>2026-04-07T13:23:21.358Z</time></trkpt><trkpt lat="38.980195" lon="16.4966667"><ele>783.9999999999999</ele><time>2026-04-07T13:23:22.357Z</time></trkpt><trkpt lat="38.9801267" lon="16.4967083"><ele>784.0</ele><time>2026-04-07T13:23:23.357Z</time></trkpt><trkpt lat="38.98006" lon="16.496735"><ele>780.8000000000001</ele><time>2026-04-07T13:23:24.357Z</time></trkpt><trkpt lat="38.9799417" lon="16.4967217"><ele>777.6</ele><time>2026-04-07T13:23:26.358Z</time></trkpt><trkpt lat="38.9798417" lon="16.496705"><ele>774.4</ele><time>2026-04-07T13:23:28.358Z</time></trkpt><trkpt lat="38.9797583" lon="16.496705"><ele>771.2</ele><time>2026-04-07T13:23:30.358Z</time></trkpt><trkpt lat="38.9796267" lon="16.496705"><ele>768.0</ele><time>2026-04-07T13:23:32.357Z</time></trkpt><trkpt lat="38.9795517" lon="16.4966917"><ele>768.0</ele><time>2026-04-07T13:23:33.358Z</time></trkpt><trkpt lat="38.9794917" lon="16.496665"><ele>768.0</ele><time>2026-04-07T13:23:34.357Z</time></trkpt><trkpt lat="38.9793983" lon="16.49657"><ele>768.0</ele><time>2026-04-07T13:23:36.358Z</time></trkpt><trkpt lat="38.9793283" lon="16.4964217"><ele>768.0</ele><time>2026-04-07T13:23:38.357Z</time></trkpt><trkpt lat="38.979295" lon="16.496335"><ele>768.0</ele><time>2026-04-07T13:23:39.357Z</time></trkpt><trkpt lat="38.979265" lon="16.4962383"><ele>766.0</ele><time>2026-04-07T13:23:40.358Z</time></trkpt><trkpt lat="38.9792383" lon="16.496135"><ele>764.0</ele><time>2026-04-07T13:23:41.358Z</time></trkpt><trkpt lat="38.9792183" lon="16.4960333"><ele>762.0</ele><time>2026-04-07T13:23:42.358Z</time></trkpt><trkpt lat="38.9792083" lon="16.4959383"><ele>760.0</ele><time>2026-04-07T13:23:43.357Z</time></trkpt><trkpt lat="38.9791817" lon="16.495845"><ele>758.0</ele><time>2026-04-07T13:23:44.358Z</time></trkpt><trkpt lat="38.9791517" lon="16.49575"><ele>756.0</ele><time>2026-04-07T13:23:45.357Z</time></trkpt><trkpt lat="38.97913" lon="16.4956633"><ele>756.0</ele><time>2026-04-07T13:23:46.357Z</time></trkpt><trkpt lat="38.9790633" lon="16.49554"><ele>756.0</ele><time>2026-04-07T13:23:48.358Z</time></trkpt><trkpt lat="38.9789633" lon="16.4954967"><ele>756.0</ele><time>2026-04-07T13:23:50.357Z</time></trkpt><trkpt lat="38.97889" lon="16.4955133"><ele>756.0</ele><time>2026-04-07T13:23:51.357Z</time></trkpt><trkpt lat="38.9788183" lon="16.49552"><ele>756.0</ele><time>2026-04-07T13:23:52.358Z</time></trkpt><trkpt lat="38.9787467" lon="16.4955283"><ele>756.0</ele><time>2026-04-07T13:23:53.358Z</time></trkpt><trkpt lat="38.9786667" lon="16.495505"><ele>751.5999999999999</ele><time>2026-04-07T13:23:55.357Z</time></trkpt><trkpt lat="38.9786667" lon="16.495375"><ele>747.2</ele><time>2026-04-07T13:23:58.357Z</time></trkpt><trkpt lat="38.9787" lon="16.49527"><ele>742.8</ele><time>2026-04-07T13:24:00.357Z</time></trkpt><trkpt lat="38.9787583" lon="16.4952233"><ele>738.4000000000001</ele><time>2026-04-07T13:24:02.357Z</time></trkpt><trkpt lat="38.978865" lon="16.4952233"><ele>734.0</ele><time>2026-04-07T13:24:05.358Z</time></trkpt><trkpt lat="38.9789817" lon="16.4952533"><ele>734.0</ele><time>2026-04-07T13:24:07.358Z</time></trkpt><trkpt lat="38.9790533" lon="16.4952567"><ele>734.0</ele><time>2026-04-07T13:24:08.357Z</time></trkpt><trkpt lat="38.9791233" lon="16.49527"><ele>734.0</ele><time>2026-04-07T13:24:09.357Z</time></trkpt><trkpt lat="38.9792267" lon="16.4953333"><ele>734.0</ele><time>2026-04-07T13:24:11.357Z</time></trkpt><trkpt lat="38.9792983" lon="16.4954617"><ele>734.0</ele><time>2026-04-07T13:24:13.357Z</time></trkpt><trkpt lat="38.9793483" lon="16.4955433"><ele>733.0</ele><time>2026-04-07T13:24:15.357Z</time></trkpt><trkpt lat="38.9794433" lon="16.4955433"><ele>732.0</ele><time>2026-04-07T13:24:17.358Z</time></trkpt><trkpt lat="38.9795183" lon="16.4955067"><ele>731.0</ele><time>2026-04-07T13:24:18.358Z</time></trkpt><trkpt lat="38.9796017" lon="16.4954617"><ele>730.0</ele><time>2026-04-07T13:24:19.358Z</time></trkpt><trkpt lat="38.9796983" lon="16.4954033"><ele>729.0</ele><time>2026-04-07T13:24:20.358Z</time></trkpt><trkpt lat="38.9797933" lon="16.4953567"><ele>729.0</ele><time>2026-04-07T13:24:21.357Z</time></trkpt><trkpt lat="38.979875" lon="16.4953383"><ele>729.0</ele><time>2026-04-07T13:24:22.358Z</time></trkpt><trkpt lat="38.979945" lon="16.4953417"><ele>729.0</ele><time>2026-04-07T13:24:23.357Z</time></trkpt><trkpt lat="38.98002" lon="16.4953583"><ele>729.0</ele><time>2026-04-07T13:24:24.358Z</time></trkpt><trkpt lat="38.9800983" lon="16.4953867"><ele>729.0</ele><time>2026-04-07T13:24:25.358Z</time></trkpt><trkpt lat="38.98021" lon="16.4954083"><ele>729.0</ele><time>2026-04-07T13:24:27.358Z</time></trkpt><trkpt lat="38.980305" lon="16.49532"><ele>732.2</ele><time>2026-04-07T13:24:29.358Z</time></trkpt><trkpt lat="38.9803567" lon="16.4952333"><ele>735.4000000000001</ele><time>2026-04-07T13:24:30.358Z</time></trkpt><trkpt lat="38.9804233" lon="16.4951283"><ele>738.6</ele><time>2026-04-07T13:24:31.358Z</time></trkpt><trkpt lat="38.9804817" lon="16.4950483"><ele>741.8</ele><time>2026-04-07T13:24:32.357Z</time></trkpt><trkpt lat="38.9805217" lon="16.4949833"><ele>745.0</ele><time>2026-04-07T13:24:33.358Z</time></trkpt><trkpt lat="38.9805833" lon="16.4948483"><ele>745.0</ele><time>2026-04-07T13:24:35.357Z</time></trkpt><trkpt lat="38.9806367" lon="16.4947017"><ele>745.0</ele><time>2026-04-07T13:24:37.357Z</time></trkpt><trkpt lat="38.9806517" lon="16.4946217"><ele>745.0</ele><time>2026-04-07T13:24:38.357Z</time></trkpt><trkpt lat="38.98066" lon="16.494535"><ele>745.0</ele><time>2026-04-07T13:24:39.358Z</time></trkpt><trkpt lat="38.980665" lon="16.4944367"><ele>745.0</ele><time>2026-04-07T13:24:40.357Z</time></trkpt><trkpt lat="38.9806783" lon="16.4943433"><ele>745.0</ele><time>2026-04-07T13:24:41.358Z</time></trkpt><trkpt lat="38.9806933" lon="16.4942567"><ele>744.1428571428571</ele><time>2026-04-07T13:24:42.358Z</time></trkpt><trkpt lat="38.98071" lon="16.4941667"><ele>743.2857142857142</ele><time>2026-04-07T13:24:43.357Z</time></trkpt><trkpt lat="38.9807433" lon="16.4940833"><ele>742.4285714285714</ele><time>2026-04-07T13:24:44.358Z</time></trkpt><trkpt lat="38.9807933" lon="16.494005"><ele>741.5714285714286</ele><time>2026-04-07T13:24:45.358Z</time></trkpt><trkpt lat="38.9808517" lon="16.4939367"><ele>740.7142857142858</ele><time>2026-04-07T13:24:46.358Z</time></trkpt><trkpt lat="38.9809067" lon="16.4938783"><ele>739.8571428571429</ele><time>2026-04-07T13:24:47.358Z</time></trkpt><trkpt lat="38.9809667" lon="16.4938317"><ele>739.0</ele><time>2026-04-07T13:24:48.357Z</time></trkpt><trkpt lat="38.9810183" lon="16.4937767"><ele>736.0</ele><time>2026-04-07T13:24:49.357Z</time></trkpt><trkpt lat="38.9810733" lon="16.4937333"><ele>733.0</ele><time>2026-04-07T13:24:50.358Z</time></trkpt><trkpt lat="38.9811483" lon="16.4936383"><ele>730.0</ele><time>2026-04-07T13:24:52.358Z</time></trkpt><trkpt lat="38.981195" lon="16.4935467"><ele>727.0</ele><time>2026-04-07T13:24:54.357Z</time></trkpt><trkpt lat="38.9812367" lon="16.4934683"><ele>724.0</ele><time>2026-04-07T13:24:56.357Z</time></trkpt><trkpt lat="38.98128" lon="16.493395"><ele>721.0</ele><time>2026-04-07T13:24:58.358Z</time></trkpt><trkpt lat="38.9813167" lon="16.4933267"><ele>721.0</ele><time>2026-04-07T13:25:00.357Z</time></trkpt><trkpt lat="38.9813733" lon="16.493275"><ele>721.0</ele><time>2026-04-07T13:25:02.357Z</time></trkpt><trkpt lat="38.98144" lon="16.4932217"><ele>721.0</ele><time>2026-04-07T13:25:04.358Z</time></trkpt><trkpt lat="38.9814967" lon="16.4931467"><ele>721.0</ele><time>2026-04-07T13:25:07.358Z</time></trkpt><trkpt lat="38.981495" lon="16.4930617"><ele>721.0</ele><time>2026-04-07T13:25:09.358Z</time></trkpt><trkpt lat="38.9814583" lon="16.49295"><ele>721.0</ele><time>2026-04-07T13:25:11.357Z</time></trkpt><trkpt lat="38.98143" lon="16.4928567"><ele>718.5999999999999</ele><time>2026-04-07T13:25:13.358Z</time></trkpt><trkpt lat="38.9814117" lon="16.4927517"><ele>716.2</ele><time>2026-04-07T13:25:15.358Z</time></trkpt><trkpt lat="38.9813683" lon="16.49265"><ele>713.8</ele><time>2026-04-07T13:25:17.358Z</time></trkpt><trkpt lat="38.9812883" lon="16.4925533"><ele>711.4000000000001</ele><time>2026-04-07T13:25:19.358Z</time></trkpt><trkpt lat="38.9811983" lon="16.4925183"><ele>709.0</ele><time>2026-04-07T13:25:21.358Z</time></trkpt><trkpt lat="38.9811117" lon="16.4925583"><ele>709.0</ele><time>2026-04-07T13:25:23.357Z</time></trkpt><trkpt lat="38.98104" lon="16.4926583"><ele>709.0</ele><time>2026-04-07T13:25:25.357Z</time></trkpt><trkpt lat="38.9809867" lon="16.4927367"><ele>709.0</ele><time>2026-04-07T13:25:27.358Z</time></trkpt><trkpt lat="38.98091" lon="16.4927583"><ele>709.0</ele><time>2026-04-07T13:25:29.358Z</time></trkpt><trkpt lat="38.98087" lon="16.492665"><ele>709.0</ele><time>2026-04-07T13:25:32.358Z</time></trkpt><trkpt lat="38.9809017" lon="16.492575"><ele>709.0</ele><time>2026-04-07T13:25:34.357Z</time></trkpt><trkpt lat="38.9809417" lon="16.492475"><ele>709.0</ele><time>2026-04-07T13:25:36.357Z</time></trkpt><trkpt lat="38.9810033" lon="16.4923733"><ele>709.0</ele><time>2026-04-07T13:25:38.358Z</time></trkpt><trkpt lat="38.98107" lon="16.4922767"><ele>709.0</ele><time>2026-04-07T13:25:40.357Z</time></trkpt><trkpt lat="38.9811867" lon="16.4922267"><ele>709.0</ele><time>2026-04-07T13:25:42.358Z</time></trkpt><trkpt lat="38.981255" lon="16.4922083"><ele>709.0</ele><time>2026-04-07T13:25:43.357Z</time></trkpt><trkpt lat="38.9813233" lon="16.49219"><ele>709.0</ele><time>2026-04-07T13:25:44.358Z</time></trkpt><trkpt lat="38.981395" lon="16.4921917"><ele>709.0</ele><time>2026-04-07T13:25:45.357Z</time></trkpt><trkpt lat="38.9814617" lon="16.49221"><ele>709.0</ele><time>2026-04-07T13:25:46.358Z</time></trkpt><trkpt lat="38.9815217" lon="16.492245"><ele>709.0</ele><time>2026-04-07T13:25:47.357Z</time></trkpt><trkpt lat="38.9816267" lon="16.4922717"><ele>709.0</ele><time>2026-04-07T13:25:49.357Z</time></trkpt><trkpt lat="38.981705" lon="16.49221"><ele>709.0</ele><time>2026-04-07T13:25:51.357Z</time></trkpt><trkpt lat="38.981695" lon="16.49211"><ele>704.8000000000001</ele><time>2026-04-07T13:25:53.357Z</time></trkpt><trkpt lat="38.98161" lon="16.49203"><ele>700.6</ele><time>2026-04-07T13:25:55.358Z</time></trkpt><trkpt lat="38.9815183" lon="16.491975"><ele>696.4</ele><time>2026-04-07T13:25:57.358Z</time></trkpt><trkpt lat="38.9814283" lon="16.4919617"><ele>692.2</ele><time>2026-04-07T13:25:59.357Z</time></trkpt><trkpt lat="38.981345" lon="16.4919767"><ele>688.0</ele><time>2026-04-07T13:26:01.358Z</time></trkpt><trkpt lat="38.9812517" lon="16.4920083"><ele>688.0</ele><time>2026-04-07T13:26:03.357Z</time></trkpt><trkpt lat="38.98114" lon="16.49201"><ele>688.0</ele><time>2026-04-07T13:26:05.358Z</time></trkpt><trkpt lat="38.9810383" lon="16.491965"><ele>688.0</ele><time>2026-04-07T13:26:07.357Z</time></trkpt><trkpt lat="38.9809383" lon="16.4918867"><ele>688.0</ele><time>2026-04-07T13:26:09.357Z</time></trkpt><trkpt lat="38.9808833" lon="16.4918467"><ele>688.0</ele><time>2026-04-07T13:26:10.358Z</time></trkpt><trkpt lat="38.980785" lon="16.4917733"><ele>687.75</ele><time>2026-04-07T13:26:12.357Z</time></trkpt><trkpt lat="38.98069" lon="16.4917083"><ele>687.5</ele><time>2026-04-07T13:26:14.357Z</time></trkpt><trkpt lat="38.980585" lon="16.49165"><ele>687.25</ele><time>2026-04-07T13:26:16.357Z</time></trkpt><trkpt lat="38.980465" lon="16.4916317"><ele>687.0</ele><time>2026-04-07T13:26:18.358Z</time></trkpt><trkpt lat="38.9803583" lon="16.4916517"><ele>687.0</ele><time>2026-04-07T13:26:20.357Z</time></trkpt><trkpt lat="38.9802633" lon="16.4917067"><ele>687.0</ele><time>2026-04-07T13:26:22.357Z</time></trkpt><trkpt lat="38.9801717" lon="16.4917533"><ele>687.0</ele><time>2026-04-07T13:26:24.357Z</time></trkpt><trkpt lat="38.9801083" lon="16.4917183"><ele>687.0</ele><time>2026-04-07T13:26:26.358Z</time></trkpt><trkpt lat="38.9800967" lon="16.4916183"><ele>687.0</ele><time>2026-04-07T13:26:28.358Z</time></trkpt><trkpt lat="38.980135" lon="16.49151"><ele>687.0</ele><time>2026-04-07T13:26:30.357Z</time></trkpt><trkpt lat="38.9802067" lon="16.491415"><ele>687.0</ele><time>2026-04-07T13:26:32.357Z</time></trkpt><trkpt lat="38.9802883" lon="16.4913317"><ele>687.0</ele><time>2026-04-07T13:26:34.357Z</time></trkpt><trkpt lat="38.9803683" lon="16.4912667"><ele>687.0</ele><time>2026-04-07T13:26:36.358Z</time></trkpt><trkpt lat="38.98045" lon="16.49124"><ele>687.0</ele><time>2026-04-07T13:26:38.358Z</time></trkpt><trkpt lat="38.9805483" lon="16.4912667"><ele>687.0</ele><time>2026-04-07T13:26:40.357Z</time></trkpt><trkpt lat="38.9806317" lon="16.4912967"><ele>687.0</ele><time>2026-04-07T13:26:42.357Z</time></trkpt><trkpt lat="38.9807183" lon="16.491325"><ele>687.0</ele><time>2026-04-07T13:26:44.357Z</time></trkpt><trkpt lat="38.9807967" lon="16.4913533"><ele>687.0</ele><time>2026-04-07T13:26:46.357Z</time></trkpt><trkpt lat="38.9808733" lon="16.4913917"><ele>687.0</ele><time>2026-04-07T13:26:48.358Z</time></trkpt><trkpt lat="38.9809533" lon="16.49143"><ele>687.0</ele><time>2026-04-07T13:26:50.358Z</time></trkpt><trkpt lat="38.98103" lon="16.491425"><ele>687.0</ele><time>2026-04-07T13:26:52.358Z</time></trkpt><trkpt lat="38.981085" lon="16.491365"><ele>687.2</ele><time>2026-04-07T13:26:54.357Z</time></trkpt><trkpt lat="38.9810383" lon="16.4912667"><ele>687.4000000000001</ele><time>2026-04-07T13:26:57.357Z</time></trkpt><trkpt lat="38.9809383" lon="16.4912233"><ele>687.5999999999999</ele><time>2026-04-07T13:26:59.358Z</time></trkpt><trkpt lat="38.98085" lon="16.4911833"><ele>687.8</ele><time>2026-04-07T13:27:01.357Z</time></trkpt><trkpt lat="38.980755" lon="16.49112"><ele>688.0</ele><time>2026-04-07T13:27:03.358Z</time></trkpt><trkpt lat="38.9806583" lon="16.491025"><ele>683.5</ele><time>2026-04-07T13:27:05.357Z</time></trkpt><trkpt lat="38.9806133" lon="16.490965"><ele>679.0</ele><time>2026-04-07T13:27:06.358Z</time></trkpt><trkpt lat="38.9805683" lon="16.4908933"><ele>674.5</ele><time>2026-04-07T13:27:07.357Z</time></trkpt><trkpt lat="38.9805283" lon="16.4908283"><ele>670.0</ele><time>2026-04-07T13:27:08.358Z</time></trkpt><trkpt lat="38.9804183" lon="16.4907717"><ele>665.5</ele><time>2026-04-07T13:27:10.357Z</time></trkpt><trkpt lat="38.98035" lon="16.4907617"><ele>661.0</ele><time>2026-04-07T13:27:11.357Z</time></trkpt><trkpt lat="38.9802733" lon="16.49076"><ele>661.0</ele><time>2026-04-07T13:27:12.358Z</time></trkpt><trkpt lat="38.98021" lon="16.4907583"><ele>661.0</ele><time>2026-04-07T13:27:13.357Z</time></trkpt><trkpt lat="38.9801133" lon="16.4908333"><ele>661.0</ele><time>2026-04-07T13:27:15.357Z</time></trkpt><trkpt lat="38.98006" lon="16.4909117"><ele>661.0</ele><time>2026-04-07T13:27:17.358Z</time></trkpt><trkpt lat="38.97999" lon="16.490965"><ele>661.0</ele><time>2026-04-07T13:27:19.357Z</time></trkpt><trkpt lat="38.9799083" lon="16.4909717"><ele>661.0</ele><time>2026-04-07T13:27:21.358Z</time></trkpt><trkpt lat="38.9798267" lon="16.490925"><ele>660.5</ele><time>2026-04-07T13:27:23.358Z</time></trkpt><trkpt lat="38.979765" lon="16.4908633"><ele>660.0</ele><time>2026-04-07T13:27:25.357Z</time></trkpt><trkpt lat="38.97969" lon="16.4908167"><ele>659.5</ele><time>2026-04-07T13:27:27.357Z</time></trkpt><trkpt lat="38.979595" lon="16.4908117"><ele>659.0</ele><time>2026-04-07T13:27:29.357Z</time></trkpt><trkpt lat="38.9795083" lon="16.4908233"><ele>658.5</ele><time>2026-04-07T13:27:31.358Z</time></trkpt><trkpt lat="38.979425" lon="16.4908733"><ele>658.0</ele><time>2026-04-07T13:27:33.357Z</time></trkpt><trkpt lat="38.9793517" lon="16.490975"><ele>658.0</ele><time>2026-04-07T13:27:35.357Z</time></trkpt><trkpt lat="38.9793067" lon="16.4911233"><ele>658.0</ele><time>2026-04-07T13:27:37.357Z</time></trkpt><trkpt lat="38.97927" lon="16.4911967"><ele>658.0</ele><time>2026-04-07T13:27:38.358Z</time></trkpt><trkpt lat="38.9792317" lon="16.4912683"><ele>658.0</ele><time>2026-04-07T13:27:39.358Z</time></trkpt><trkpt lat="38.9791833" lon="16.4913283"><ele>658.0</ele><time>2026-04-07T13:27:40.357Z</time></trkpt><trkpt lat="38.9791167" lon="16.4913883"><ele>658.0</ele><time>2026-04-07T13:27:41.358Z</time></trkpt><trkpt lat="38.9790567" lon="16.4914583"><ele>658.0</ele><time>2026-04-07T13:27:42.358Z</time></trkpt><trkpt lat="38.9790017" lon="16.4915267"><ele>658.0</ele><time>2026-04-07T13:27:43.357Z</time></trkpt><trkpt lat="38.9789433" lon="16.491585"><ele>658.0</ele><time>2026-04-07T13:27:44.357Z</time></trkpt><trkpt lat="38.97889" lon="16.491645"><ele>658.0</ele><time>2026-04-07T13:27:45.357Z</time></trkpt><trkpt lat="38.97884" lon="16.4917083"><ele>658.0</ele><time>2026-04-07T13:27:46.358Z</time></trkpt><trkpt lat="38.9787633" lon="16.4917933"><ele>658.0</ele><time>2026-04-07T13:27:48.358Z</time></trkpt><trkpt lat="38.9786933" lon="16.491845"><ele>658.0</ele><time>2026-04-07T13:27:50.358Z</time></trkpt><trkpt lat="38.9786267" lon="16.491815"><ele>658.0</ele><time>2026-04-07T13:27:53.357Z</time></trkpt><trkpt lat="38.978645" lon="16.49172"><ele>658.0</ele><time>2026-04-07T13:27:57.357Z</time></trkpt><trkpt lat="38.9787033" lon="16.491605"><ele>658.0</ele><time>2026-04-07T13:28:00.358Z</time></trkpt><trkpt lat="38.9787567" lon="16.4914633"><ele>658.0</ele><time>2026-04-07T13:28:02.357Z</time></trkpt><trkpt lat="38.9788" lon="16.49134"><ele>653.8333333333334</ele><time>2026-04-07T13:28:04.357Z</time></trkpt><trkpt lat="38.9788217" lon="16.4912483"><ele>649.6666666666667</ele><time>2026-04-07T13:28:06.357Z</time></trkpt><trkpt lat="38.9788583" lon="16.49116"><ele>645.5</ele><time>2026-04-07T13:28:08.358Z</time></trkpt><trkpt lat="38.9789167" lon="16.4910933"><ele>641.3333333333334</ele><time>2026-04-07T13:28:10.358Z</time></trkpt><trkpt lat="38.9789633" lon="16.4909917"><ele>637.1666666666666</ele><time>2026-04-07T13:28:12.358Z</time></trkpt><trkpt lat="38.9789967" lon="16.4908667"><ele>633.0</ele><time>2026-04-07T13:28:14.358Z</time></trkpt><trkpt lat="38.9790483" lon="16.4907517"><ele>633.0</ele><time>2026-04-07T13:28:16.357Z</time></trkpt><trkpt lat="38.979135" lon="16.4906583"><ele>633.0</ele><time>2026-04-07T13:28:18.358Z</time></trkpt><trkpt lat="38.9791933" lon="16.490615"><ele>633.0</ele><time>2026-04-07T13:28:19.357Z</time></trkpt><trkpt lat="38.9792583" lon="16.4905783"><ele>633.0</ele><time>2026-04-07T13:28:20.357Z</time></trkpt><trkpt lat="38.979355" lon="16.49049"><ele>633.0</ele><time>2026-04-07T13:28:22.357Z</time></trkpt><trkpt lat="38.9793917" lon="16.490375"><ele>632.25</ele><time>2026-04-07T13:28:24.358Z</time></trkpt><trkpt lat="38.9794433" lon="16.490235"><ele>631.5</ele><time>2026-04-07T13:28:26.358Z</time></trkpt><trkpt lat="38.97952" lon="16.4901283"><ele>630.75</ele><time>2026-04-07T13:28:28.358Z</time></trkpt><trkpt lat="38.9796033" lon="16.49004"><ele>630.0</ele><time>2026-04-07T13:28:30.357Z</time></trkpt><trkpt lat="38.97968" lon="16.4899383"><ele>630.0</ele><time>2026-04-07T13:28:32.357Z</time></trkpt><trkpt lat="38.979725" lon="16.4898783"><ele>630.0</ele><time>2026-04-07T13:28:33.357Z</time></trkpt><trkpt lat="38.9798167" lon="16.4897767"><ele>630.0</ele><time>2026-04-07T13:28:35.357Z</time></trkpt><trkpt lat="38.97991" lon="16.4896967"><ele>630.0</ele><time>2026-04-07T13:28:37.357Z</time></trkpt><trkpt lat="38.98003" lon="16.48963"><ele>630.0</ele><time>2026-04-07T13:28:39.357Z</time></trkpt><trkpt lat="38.9801" lon="16.4895817"><ele>624.3333333333334</ele><time>2026-04-07T13:28:40.357Z</time></trkpt><trkpt lat="38.9801767" lon="16.4895333"><ele>618.6666666666666</ele><time>2026-04-07T13:28:41.357Z</time></trkpt><trkpt lat="38.9802383" lon="16.4894717"><ele>613.0</ele><time>2026-04-07T13:28:42.357Z</time></trkpt><trkpt lat="38.9802933" lon="16.4894283"><ele>607.3333333333333</ele><time>2026-04-07T13:28:43.357Z</time></trkpt><trkpt lat="38.980375" lon="16.4893683"><ele>601.6666666666666</ele><time>2026-04-07T13:28:45.357Z</time></trkpt><trkpt lat="38.980375" lon="16.4892867"><ele>596.0</ele><time>2026-04-07T13:28:47.358Z</time></trkpt><trkpt lat="38.9802833" lon="16.4891933"><ele>596.0</ele><time>2026-04-07T13:28:49.357Z</time></trkpt><trkpt lat="38.980215" lon="16.48915"><ele>596.0</ele><time>2026-04-07T13:28:50.358Z</time></trkpt><trkpt lat="38.9800967" lon="16.4891483"><ele>596.0</ele><time>2026-04-07T13:28:52.358Z</time></trkpt><trkpt lat="38.9799933" lon="16.4892217"><ele>596.0</ele><time>2026-04-07T13:28:54.357Z</time></trkpt><trkpt lat="38.979925" lon="16.4892933"><ele>596.0</ele><time>2026-04-07T13:28:57.357Z</time></trkpt><trkpt lat="38.9798683" lon="16.4893433"><ele>596.4</ele><time>2026-04-07T13:28:59.357Z</time></trkpt><trkpt lat="38.97979" lon="16.4894067"><ele>596.8</ele><time>2026-04-07T13:29:01.358Z</time></trkpt><trkpt lat="38.979705" lon="16.48947"><ele>597.1999999999999</ele><time>2026-04-07T13:29:03.357Z</time></trkpt><trkpt lat="38.979625" lon="16.4895483"><ele>597.6</ele><time>2026-04-07T13:29:05.357Z</time></trkpt><trkpt lat="38.97954" lon="16.489645"><ele>598.0</ele><time>2026-04-07T13:29:07.358Z</time></trkpt><trkpt lat="38.979445" lon="16.489735"><ele>598.6</ele><time>2026-04-07T13:29:09.358Z</time></trkpt><trkpt lat="38.97935" lon="16.489815"><ele>599.1999999999999</ele><time>2026-04-07T13:29:11.358Z</time></trkpt><trkpt lat="38.979245" lon="16.4898867"><ele>599.8</ele><time>2026-04-07T13:29:13.358Z</time></trkpt><trkpt lat="38.9791533" lon="16.4899267"><ele>600.4</ele><time>2026-04-07T13:29:15.357Z</time></trkpt><trkpt lat="38.9790833" lon="16.4899133"><ele>601.0</ele><time>2026-04-07T13:29:17.358Z</time></trkpt><trkpt lat="38.9790767" lon="16.4897933"><ele>601.0</ele><time>2026-04-07T13:29:20.358Z</time></trkpt><trkpt lat="38.9791133" lon="16.4896717"><ele>601.0</ele><time>2026-04-07T13:29:22.357Z</time></trkpt><trkpt lat="38.9791783" lon="16.4895333"><ele>601.0</ele><time>2026-04-07T13:29:24.357Z</time></trkpt><trkpt lat="38.97926" lon="16.4894083"><ele>601.0</ele><time>2026-04-07T13:29:26.357Z</time></trkpt><trkpt lat="38.9793083" lon="16.489355"><ele>601.0</ele><time>2026-04-07T13:29:27.357Z</time></trkpt><trkpt lat="38.9793917" lon="16.48925"><ele>600.4</ele><time>2026-04-07T13:29:29.358Z</time></trkpt><trkpt lat="38.9794567" lon="16.4891567"><ele>599.8</ele><time>2026-04-07T13:29:31.358Z</time></trkpt><trkpt lat="38.97947" lon="16.4890633"><ele>599.1999999999999</ele><time>2026-04-07T13:29:34.357Z</time></trkpt><trkpt lat="38.9794017" lon="16.4890217"><ele>598.6</ele><time>2026-04-07T13:29:36.358Z</time></trkpt><trkpt lat="38.9792767" lon="16.4889833"><ele>598.0</ele><time>2026-04-07T13:29:38.358Z</time></trkpt><trkpt lat="38.9791667" lon="16.4889583"><ele>592.25</ele><time>2026-04-07T13:29:40.358Z</time></trkpt><trkpt lat="38.9790567" lon="16.489005"><ele>586.5</ele><time>2026-04-07T13:29:42.358Z</time></trkpt><trkpt lat="38.9789517" lon="16.4890733"><ele>580.75</ele><time>2026-04-07T13:29:44.357Z</time></trkpt><trkpt lat="38.9788417" lon="16.4891433"><ele>575.0</ele><time>2026-04-07T13:29:46.358Z</time></trkpt><trkpt lat="38.9787517" lon="16.4892"><ele>575.0</ele><time>2026-04-07T13:29:48.358Z</time></trkpt><trkpt lat="38.9787667" lon="16.4891067"><ele>575.0</ele><time>2026-04-07T13:29:53.357Z</time></trkpt><trkpt lat="38.978845" lon="16.48901"><ele>575.0</ele><time>2026-04-07T13:29:55.357Z</time></trkpt><trkpt lat="38.9788933" lon="16.4889317"><ele>575.0</ele><time>2026-04-07T13:29:56.357Z</time></trkpt><trkpt lat="38.9789517" lon="16.4888667"><ele>575.0</ele><time>2026-04-07T13:29:57.357Z</time></trkpt><trkpt lat="38.9790183" lon="16.4888033"><ele>575.0</ele><time>2026-04-07T13:29:58.357Z</time></trkpt><trkpt lat="38.9790867" lon="16.48874"><ele>573.5</ele><time>2026-04-07T13:29:59.358Z</time></trkpt><trkpt lat="38.9791567" lon="16.4886917"><ele>572.0</ele><time>2026-04-07T13:30:00.358Z</time></trkpt><trkpt lat="38.9792717" lon="16.48867"><ele>570.5</ele><time>2026-04-07T13:30:02.358Z</time></trkpt><trkpt lat="38.9793533" lon="16.4886933"><ele>569.0</ele><time>2026-04-07T13:30:04.357Z</time></trkpt><trkpt lat="38.979425" lon="16.48866"><ele>567.5</ele><time>2026-04-07T13:30:07.358Z</time></trkpt><trkpt lat="38.979465" lon="16.48857"><ele>566.0</ele><time>2026-04-07T13:30:10.358Z</time></trkpt><trkpt lat="38.9794917" lon="16.4884483"><ele>566.0</ele><time>2026-04-07T13:30:12.358Z</time></trkpt><trkpt lat="38.9795267" lon="16.4883433"><ele>566.0</ele><time>2026-04-07T13:30:14.357Z</time></trkpt><trkpt lat="38.9794883" lon="16.4882617"><ele>566.0</ele><time>2026-04-07T13:30:18.357Z</time></trkpt><trkpt lat="38.97942" lon="16.4883283"><ele>566.0</ele><time>2026-04-07T13:30:21.357Z</time></trkpt><trkpt lat="38.9793683" lon="16.4884167"><ele>566.0</ele><time>2026-04-07T13:30:23.358Z</time></trkpt><trkpt lat="38.9792667" lon="16.4884633"><ele>566.0</ele><time>2026-04-07T13:30:25.357Z</time></trkpt><trkpt lat="38.9791217" lon="16.4884233"><ele>562.6666666666666</ele><time>2026-04-07T13:30:27.357Z</time></trkpt><trkpt lat="38.9790417" lon="16.4883967"><ele>559.3333333333333</ele><time>2026-04-07T13:30:28.357Z</time></trkpt><trkpt lat="38.97897" lon="16.4883767"><ele>556.0</ele><time>2026-04-07T13:30:29.357Z</time></trkpt><trkpt lat="38.9788983" lon="16.48837"><ele>552.6666666666666</ele><time>2026-04-07T13:30:30.357Z</time></trkpt><trkpt lat="38.9787717" lon="16.4883867"><ele>549.3333333333334</ele><time>2026-04-07T13:30:32.358Z</time></trkpt><trkpt lat="38.9787133" lon="16.488425"><ele>546.0</ele><time>2026-04-07T13:30:33.358Z</time></trkpt><trkpt lat="38.9786433" lon="16.4884783"><ele>546.0</ele><time>2026-04-07T13:30:35.358Z</time></trkpt><trkpt lat="38.9786467" lon="16.4883667"><ele>546.0</ele><time>2026-04-07T13:30:39.358Z</time></trkpt><trkpt lat="38.9787183" lon="16.4882733"><ele>546.0</ele><time>2026-04-07T13:30:41.357Z</time></trkpt><trkpt lat="38.978815" lon="16.4882083"><ele>546.0</ele><time>2026-04-07T13:30:43.357Z</time></trkpt><trkpt lat="38.978925" lon="16.488155"><ele>546.0</ele><time>2026-04-07T13:30:45.358Z</time></trkpt><trkpt lat="38.9790217" lon="16.4880733"><ele>546.0</ele><time>2026-04-07T13:30:47.358Z</time></trkpt><trkpt lat="38.97907" lon="16.487965"><ele>546.0</ele><time>2026-04-07T13:30:49.357Z</time></trkpt><trkpt lat="38.979105" lon="16.4878383"><ele>546.0</ele><time>2026-04-07T13:30:51.358Z</time></trkpt><trkpt lat="38.97918" lon="16.48774"><ele>546.0</ele><time>2026-04-07T13:30:53.357Z</time></trkpt><trkpt lat="38.9792967" lon="16.487705"><ele>546.0</ele><time>2026-04-07T13:30:55.357Z</time></trkpt><trkpt lat="38.9794083" lon="16.4877083"><ele>542.25</ele><time>2026-04-07T13:30:57.357Z</time></trkpt><trkpt lat="38.9795217" lon="16.4876933"><ele>538.5</ele><time>2026-04-07T13:30:59.358Z</time></trkpt><trkpt lat="38.97962" lon="16.4876333"><ele>534.75</ele><time>2026-04-07T13:31:01.357Z</time></trkpt><trkpt lat="38.9797167" lon="16.487545"><ele>531.0</ele><time>2026-04-07T13:31:03.358Z</time></trkpt><trkpt lat="38.9798" lon="16.4874533"><ele>531.0</ele><time>2026-04-07T13:31:05.357Z</time></trkpt><trkpt lat="38.9798783" lon="16.48737"><ele>531.0</ele><time>2026-04-07T13:31:07.358Z</time></trkpt><trkpt lat="38.979955" lon="16.487285"><ele>531.0</ele><time>2026-04-07T13:31:09.358Z</time></trkpt><trkpt lat="38.980055" lon="16.48726"><ele>531.0</ele><time>2026-04-07T13:31:11.358Z</time></trkpt><trkpt lat="38.9801533" lon="16.4872467"><ele>531.0</ele><time>2026-04-07T13:31:13.357Z</time></trkpt><trkpt lat="38.9802483" lon="16.487195"><ele>527.0</ele><time>2026-04-07T13:31:15.358Z</time></trkpt><trkpt lat="38.9803233" lon="16.4870917"><ele>523.0</ele><time>2026-04-07T13:31:17.357Z</time></trkpt><trkpt lat="38.9803833" lon="16.4869617"><ele>519.0</ele><time>2026-04-07T13:31:19.357Z</time></trkpt><trkpt lat="38.98043" lon="16.4868817"><ele>515.0</ele><time>2026-04-07T13:31:20.357Z</time></trkpt><trkpt lat="38.9804783" lon="16.4868067"><ele>511.0</ele><time>2026-04-07T13:31:21.357Z</time></trkpt><trkpt lat="38.98053" lon="16.48675"><ele>507.0</ele><time>2026-04-07T13:31:22.358Z</time></trkpt><trkpt lat="38.9806033" lon="16.4867083"><ele>507.0</ele><time>2026-04-07T13:31:24.357Z</time></trkpt><trkpt lat="38.9806483" lon="16.48664"><ele>507.0</ele><time>2026-04-07T13:31:27.358Z</time></trkpt><trkpt lat="38.9806" lon="16.486575"><ele>507.0</ele><time>2026-04-07T13:31:29.357Z</time></trkpt><trkpt lat="38.980505" lon="16.486565"><ele>507.0</ele><time>2026-04-07T13:31:31.357Z</time></trkpt><trkpt lat="38.9804083" lon="16.4866183"><ele>507.0</ele><time>2026-04-07T13:31:33.358Z</time></trkpt><trkpt lat="38.9803633" lon="16.4866833"><ele>507.0</ele><time>2026-04-07T13:31:34.358Z</time></trkpt><trkpt lat="38.9803083" lon="16.4867567"><ele>507.0</ele><time>2026-04-07T13:31:35.358Z</time></trkpt><trkpt lat="38.9802533" lon="16.486825"><ele>507.00000000000006</ele><time>2026-04-07T13:31:36.358Z</time></trkpt><trkpt lat="38.9802017" lon="16.4868833"><ele>507.00000000000006</ele><time>2026-04-07T13:31:37.357Z</time></trkpt><trkpt lat="38.9801033" lon="16.4869333"><ele>507.0</ele><time>2026-04-07T13:31:39.357Z</time></trkpt><trkpt lat="38.9800067" lon="16.4869367"><ele>507.0</ele><time>2026-04-07T13:31:41.357Z</time></trkpt><trkpt lat="38.9798967" lon="16.4869167"><ele>504.8333333333333</ele><time>2026-04-07T13:31:43.358Z</time></trkpt><trkpt lat="38.9797767" lon="16.4868967"><ele>502.66666666666663</ele><time>2026-04-07T13:31:45.357Z</time></trkpt><trkpt lat="38.9796583" lon="16.48686"><ele>500.5</ele><time>2026-04-07T13:31:47.357Z</time></trkpt><trkpt lat="38.979595" lon="16.4868417"><ele>498.3333333333333</ele><time>2026-04-07T13:31:48.357Z</time></trkpt><trkpt lat="38.97953" lon="16.4868283"><ele>496.16666666666663</ele><time>2026-04-07T13:31:49.358Z</time></trkpt><trkpt lat="38.9794633" lon="16.4868267"><ele>494.0</ele><time>2026-04-07T13:31:50.357Z</time></trkpt><trkpt lat="38.9793983" lon="16.4868333"><ele>494.0</ele><time>2026-04-07T13:31:51.358Z</time></trkpt><trkpt lat="38.9793367" lon="16.48685"><ele>494.0</ele><time>2026-04-07T13:31:52.357Z</time></trkpt><trkpt lat="38.9792183" lon="16.48688"><ele>494.0</ele><time>2026-04-07T13:31:54.357Z</time></trkpt><trkpt lat="38.9790867" lon="16.48691"><ele>494.0</ele><time>2026-04-07T13:31:56.357Z</time></trkpt><trkpt lat="38.979" lon="16.4869233"><ele>494.0</ele><time>2026-04-07T13:31:57.357Z</time></trkpt><trkpt lat="38.97891" lon="16.486945"><ele>491.4</ele><time>2026-04-07T13:31:58.357Z</time></trkpt><trkpt lat="38.9788217" lon="16.48697"><ele>488.79999999999995</ele><time>2026-04-07T13:31:59.358Z</time></trkpt><trkpt lat="38.97873" lon="16.4870033"><ele>486.20000000000005</ele><time>2026-04-07T13:32:00.358Z</time></trkpt><trkpt lat="38.9786383" lon="16.4870433"><ele>483.6</ele><time>2026-04-07T13:32:01.358Z</time></trkpt><trkpt lat="38.9785667" lon="16.4870883"><ele>481.0</ele><time>2026-04-07T13:32:02.357Z</time></trkpt><trkpt lat="38.9784817" lon="16.48715"><ele>481.0</ele><time>2026-04-07T13:32:04.357Z</time></trkpt><trkpt lat="38.978475" lon="16.487065"><ele>481.0</ele><time>2026-04-07T13:32:08.358Z</time></trkpt><trkpt lat="38.9785917" lon="16.4869717"><ele>481.0</ele><time>2026-04-07T13:32:10.357Z</time></trkpt><trkpt lat="38.978665" lon="16.4869183"><ele>481.0</ele><time>2026-04-07T13:32:11.357Z</time></trkpt><trkpt lat="38.9787383" lon="16.4868483"><ele>481.0</ele><time>2026-04-07T13:32:12.358Z</time></trkpt><trkpt lat="38.978815" lon="16.4867583"><ele>481.0</ele><time>2026-04-07T13:32:13.357Z</time></trkpt><trkpt lat="38.9788767" lon="16.4866583"><ele>481.0</ele><time>2026-04-07T13:32:14.357Z</time></trkpt><trkpt lat="38.978945" lon="16.4865867"><ele>481.0</ele><time>2026-04-07T13:32:15.358Z</time></trkpt><trkpt lat="38.9789967" lon="16.4865233"><ele>481.0</ele><time>2026-04-07T13:32:16.357Z</time></trkpt><trkpt lat="38.9790967" lon="16.48648"><ele>481.0</ele><time>2026-04-07T13:32:18.358Z</time></trkpt><trkpt lat="38.9792" lon="16.4864833"><ele>483.6</ele><time>2026-04-07T13:32:20.357Z</time></trkpt><trkpt lat="38.9793133" lon="16.486475"><ele>486.20000000000005</ele><time>2026-04-07T13:32:22.358Z</time></trkpt><trkpt lat="38.9793767" lon="16.48647"><ele>488.79999999999995</ele><time>2026-04-07T13:32:23.357Z</time></trkpt><trkpt lat="38.9794417" lon="16.48646"><ele>491.4</ele><time>2026-04-07T13:32:24.358Z</time></trkpt><trkpt lat="38.9795567" lon="16.4864483"><ele>494.0</ele><time>2026-04-07T13:32:26.358Z</time></trkpt><trkpt lat="38.9796667" lon="16.4864383"><ele>494.0</ele><time>2026-04-07T13:32:28.358Z</time></trkpt><trkpt lat="38.97977" lon="16.48642"><ele>494.0</ele><time>2026-04-07T13:32:30.358Z</time></trkpt><trkpt lat="38.9798767" lon="16.4863683"><ele>494.0</ele><time>2026-04-07T13:32:32.358Z</time></trkpt><trkpt lat="38.979985" lon="16.4863017"><ele>494.0</ele><time>2026-04-07T13:32:34.357Z</time></trkpt><trkpt lat="38.9800417" lon="16.48624"><ele>494.0</ele><time>2026-04-07T13:32:36.357Z</time></trkpt><trkpt lat="38.9800733" lon="16.4861167"><ele>489.0</ele><time>2026-04-07T13:32:50.357Z</time></trkpt><trkpt lat="38.980105" lon="16.4859967"><ele>484.0</ele><time>2026-04-07T13:32:52.358Z</time></trkpt><trkpt lat="38.9801417" lon="16.4858683"><ele>479.0</ele><time>2026-04-07T13:32:54.357Z</time></trkpt><trkpt lat="38.9801417" lon="16.4857383"><ele>474.0</ele><time>2026-04-07T13:32:56.358Z</time></trkpt><trkpt lat="38.980095" lon="16.485675"><ele>469.0</ele><time>2026-04-07T13:32:58.357Z</time></trkpt><trkpt lat="38.9800167" lon="16.4857267"><ele>467.4</ele><time>2026-04-07T13:33:00.358Z</time></trkpt><trkpt lat="38.979925" lon="16.4858517"><ele>465.79999999999995</ele><time>2026-04-07T13:33:02.357Z</time></trkpt><trkpt lat="38.9798733" lon="16.4859267"><ele>464.20000000000005</ele><time>2026-04-07T13:33:03.357Z</time></trkpt><trkpt lat="38.979835" lon="16.4859917"><ele>462.6</ele><time>2026-04-07T13:33:04.358Z</time></trkpt><trkpt lat="38.9797867" lon="16.4860833"><ele>461.0</ele><time>2026-04-07T13:33:06.357Z</time></trkpt><trkpt lat="38.9797" lon="16.48603"><ele>461.0</ele><time>2026-04-07T13:33:09.357Z</time></trkpt><trkpt lat="38.9796433" lon="16.4859233"><ele>461.0</ele><time>2026-04-07T13:33:11.358Z</time></trkpt><trkpt lat="38.9795817" lon="16.48583"><ele>461.0</ele><time>2026-04-07T13:33:13.357Z</time></trkpt><trkpt lat="38.9794883" lon="16.4857583"><ele>461.0</ele><time>2026-04-07T13:33:15.357Z</time></trkpt><trkpt lat="38.9793767" lon="16.4857317"><ele>461.0</ele><time>2026-04-07T13:33:17.358Z</time></trkpt><trkpt lat="38.97927" lon="16.4857467"><ele>459.0</ele><time>2026-04-07T13:33:19.358Z</time></trkpt><trkpt lat="38.9791733" lon="16.4857383"><ele>457.0</ele><time>2026-04-07T13:33:21.357Z</time></trkpt><trkpt lat="38.979065" lon="16.4857167"><ele>455.0</ele><time>2026-04-07T13:33:23.357Z</time></trkpt><trkpt lat="38.9789533" lon="16.4857417"><ele>453.0</ele><time>2026-04-07T13:33:25.357Z</time></trkpt><trkpt lat="38.9788367" lon="16.4857833"><ele>451.0</ele><time>2026-04-07T13:33:27.357Z</time></trkpt><trkpt lat="38.9787783" lon="16.48582"><ele>451.0</ele><time>2026-04-07T13:33:28.357Z</time></trkpt><trkpt lat="38.9786617" lon="16.485885"><ele>451.0</ele><time>2026-04-07T13:33:30.357Z</time></trkpt><trkpt lat="38.9785667" lon="16.4859567"><ele>451.0</ele><time>2026-04-07T13:33:32.357Z</time></trkpt><trkpt lat="38.9785017" lon="16.4860317"><ele>451.0</ele><time>2026-04-07T13:33:34.358Z</time></trkpt><trkpt lat="38.9784183" lon="16.4861067"><ele>451.0</ele><time>2026-04-07T13:33:36.358Z</time></trkpt><trkpt lat="38.978325" lon="16.4861967"><ele>453.25</ele><time>2026-04-07T13:33:38.357Z</time></trkpt><trkpt lat="38.97823" lon="16.48628"><ele>455.5</ele><time>2026-04-07T13:33:40.357Z</time></trkpt><trkpt lat="38.9781317" lon="16.486355"><ele>457.75</ele><time>2026-04-07T13:33:42.357Z</time></trkpt><trkpt lat="38.978045" lon="16.4864517"><ele>460.0</ele><time>2026-04-07T13:33:44.357Z</time></trkpt><trkpt lat="38.97797" lon="16.4865567"><ele>460.00000000000006</ele><time>2026-04-07T13:33:46.357Z</time></trkpt><trkpt lat="38.9778933" lon="16.4866033"><ele>460.0</ele><time>2026-04-07T13:33:48.356Z</time></trkpt><trkpt lat="38.9778033" lon="16.4865733"><ele>460.0</ele><time>2026-04-07T13:33:50.357Z</time></trkpt><trkpt lat="38.9777383" lon="16.486545"><ele>460.0</ele><time>2026-04-07T13:33:51.357Z</time></trkpt><trkpt lat="38.9776567" lon="16.4865233"><ele>460.00000000000006</ele><time>2026-04-07T13:33:52.356Z</time></trkpt><trkpt lat="38.9775667" lon="16.4865133"><ele>460.0</ele><time>2026-04-07T13:33:53.357Z</time></trkpt><trkpt lat="38.977475" lon="16.4865133"><ele>455.50000000000006</ele><time>2026-04-07T13:33:54.357Z</time></trkpt><trkpt lat="38.9773933" lon="16.486515"><ele>451.0</ele><time>2026-04-07T13:33:55.357Z</time></trkpt><trkpt lat="38.9773267" lon="16.4865333"><ele>446.5</ele><time>2026-04-07T13:33:56.356Z</time></trkpt><trkpt lat="38.97725" lon="16.486535"><ele>442.0</ele><time>2026-04-07T13:33:58.357Z</time></trkpt><trkpt lat="38.97728" lon="16.486405"><ele>437.50000000000006</ele><time>2026-04-07T13:34:01.357Z</time></trkpt><trkpt lat="38.9773333" lon="16.4863367"><ele>433.0</ele><time>2026-04-07T13:34:02.356Z</time></trkpt><trkpt lat="38.9773917" lon="16.486275"><ele>427.2</ele><time>2026-04-07T13:34:03.356Z</time></trkpt><trkpt lat="38.9774633" lon="16.4861817"><ele>421.4</ele><time>2026-04-07T13:34:05.356Z</time></trkpt><trkpt lat="38.9774083" lon="16.4860683"><ele>415.59999999999997</ele><time>2026-04-07T13:34:08.357Z</time></trkpt><trkpt lat="38.9773233" lon="16.4860217"><ele>409.79999999999995</ele><time>2026-04-07T13:34:10.357Z</time></trkpt><trkpt lat="38.9772883" lon="16.4859433"><ele>404.0</ele><time>2026-04-07T13:34:13.357Z</time></trkpt><trkpt lat="38.9773833" lon="16.48592"><ele>403.99999999999994</ele><time>2026-04-07T13:34:16.356Z</time></trkpt><trkpt lat="38.97746" lon="16.4859517"><ele>404.0</ele><time>2026-04-07T13:34:18.356Z</time></trkpt><trkpt lat="38.9775567" lon="16.4859533"><ele>404.0</ele><time>2026-04-07T13:34:20.356Z</time></trkpt><trkpt lat="38.977635" lon="16.48587"><ele>404.0</ele><time>2026-04-07T13:34:22.357Z</time></trkpt><trkpt lat="38.9776717" lon="16.4858033"><ele>403.99999999999994</ele><time>2026-04-07T13:34:23.356Z</time></trkpt><trkpt lat="38.97771" lon="16.485725"><ele>404.0</ele><time>2026-04-07T13:34:24.357Z</time></trkpt><trkpt lat="38.9777517" lon="16.4856333"><ele>403.79999999999995</ele><time>2026-04-07T13:34:25.357Z</time></trkpt><trkpt lat="38.9777983" lon="16.4855333"><ele>403.59999999999997</ele><time>2026-04-07T13:34:26.357Z</time></trkpt><trkpt lat="38.9778483" lon="16.485425"><ele>403.4</ele><time>2026-04-07T13:34:27.356Z</time></trkpt><trkpt lat="38.977885" lon="16.48534"><ele>403.2</ele><time>2026-04-07T13:34:28.356Z</time></trkpt><trkpt lat="38.9779667" lon="16.4852317"><ele>403.0</ele><time>2026-04-07T13:34:30.356Z</time></trkpt><trkpt lat="38.9780167" lon="16.485165"><ele>403.00000000000006</ele><time>2026-04-07T13:34:32.357Z</time></trkpt><trkpt lat="38.9780733" lon="16.4851017"><ele>403.0</ele><time>2026-04-07T13:34:36.357Z</time></trkpt><trkpt lat="38.97815" lon="16.4850517"><ele>403.0</ele><time>2026-04-07T13:34:39.356Z</time></trkpt><trkpt lat="38.9782117" lon="16.4850033"><ele>403.0</ele><time>2026-04-07T13:40:10.356Z</time></trkpt><trkpt lat="38.9782817" lon="16.4849783"><ele>403.00000000000006</ele><time>2026-04-07T13:40:13.356Z</time></trkpt><trkpt lat="38.978355" lon="16.4849517"><ele>403.0</ele><time>2026-04-07T13:40:17.356Z</time></trkpt><trkpt lat="38.9784217" lon="16.4849133"><ele>404.33333333333337</ele><time>2026-04-07T13:40:20.357Z</time></trkpt><trkpt lat="38.9784883" lon="16.4848917"><ele>405.6666666666667</ele><time>2026-04-07T13:40:23.357Z</time></trkpt><trkpt lat="38.9785567" lon="16.48485"><ele>407.0</ele><time>2026-04-07T13:40:26.357Z</time></trkpt><trkpt lat="38.978645" lon="16.484795"><ele>408.33333333333337</ele><time>2026-04-07T13:40:29.356Z</time></trkpt><trkpt lat="38.97871" lon="16.4847633"><ele>409.6666666666667</ele><time>2026-04-07T13:40:31.356Z</time></trkpt><trkpt lat="38.9787817" lon="16.484735"><ele>411.0</ele><time>2026-04-07T13:40:33.356Z</time></trkpt><trkpt lat="38.97886" lon="16.4847117"><ele>411.0</ele><time>2026-04-07T13:40:35.356Z</time></trkpt><trkpt lat="38.9789383" lon="16.4846883"><ele>411.0</ele><time>2026-04-07T13:40:37.357Z</time></trkpt><trkpt lat="38.9790183" lon="16.4846733"><ele>411.0</ele><time>2026-04-07T13:40:39.356Z</time></trkpt><trkpt lat="38.9791017" lon="16.48465"><ele>411.0</ele><time>2026-04-07T13:40:41.357Z</time></trkpt><trkpt lat="38.9791783" lon="16.4846267"><ele>411.0</ele><time>2026-04-07T13:40:43.356Z</time></trkpt><trkpt lat="38.9792617" lon="16.484605"><ele>411.0</ele><time>2026-04-07T13:40:45.357Z</time></trkpt><trkpt lat="38.9793533" lon="16.4845833"><ele>409.4</ele><time>2026-04-07T13:40:47.356Z</time></trkpt><trkpt lat="38.9794467" lon="16.484555"><ele>407.8</ele><time>2026-04-07T13:40:49.357Z</time></trkpt><trkpt lat="38.9795367" lon="16.484505"><ele>406.2</ele><time>2026-04-07T13:40:51.357Z</time></trkpt><trkpt lat="38.9796383" lon="16.48444"><ele>404.59999999999997</ele><time>2026-04-07T13:40:53.357Z</time></trkpt><trkpt lat="38.979745" lon="16.4843717"><ele>403.0</ele><time>2026-04-07T13:40:55.356Z</time></trkpt><trkpt lat="38.9798517" lon="16.4843017"><ele>403.0</ele><time>2026-04-07T13:40:57.357Z</time></trkpt><trkpt lat="38.97995" lon="16.484235"><ele>403.0</ele><time>2026-04-07T13:40:59.356Z</time></trkpt><trkpt lat="38.9800583" lon="16.4841683"><ele>403.0</ele><time>2026-04-07T13:41:01.356Z</time></trkpt><trkpt lat="38.9801667" lon="16.4840917"><ele>403.0</ele><time>2026-04-07T13:41:03.356Z</time></trkpt><trkpt lat="38.9802267" lon="16.4840667"><ele>403.0</ele><time>2026-04-07T13:41:04.356Z</time></trkpt><trkpt lat="38.980335" lon="16.4840117"><ele>403.83333333333337</ele><time>2026-04-07T13:41:06.356Z</time></trkpt><trkpt lat="38.9804533" lon="16.4839533"><ele>404.6666666666667</ele><time>2026-04-07T13:41:08.357Z</time></trkpt><trkpt lat="38.9805267" lon="16.4839367"><ele>405.5</ele><time>2026-04-07T13:41:09.357Z</time></trkpt><trkpt lat="38.9805933" lon="16.4839183"><ele>406.33333333333337</ele><time>2026-04-07T13:41:10.356Z</time></trkpt><trkpt lat="38.9806567" lon="16.4839"><ele>407.1666666666667</ele><time>2026-04-07T13:41:11.357Z</time></trkpt><trkpt lat="38.98074" lon="16.48387"><ele>408.0</ele><time>2026-04-07T13:41:13.357Z</time></trkpt><trkpt lat="38.9808083" lon="16.48384"><ele>409.6666666666667</ele><time>2026-04-07T13:41:15.357Z</time></trkpt><trkpt lat="38.9808883" lon="16.4838217"><ele>411.33333333333337</ele><time>2026-04-07T13:41:17.357Z</time></trkpt><trkpt lat="38.9810083" lon="16.4838083"><ele>413.0</ele><time>2026-04-07T13:41:19.357Z</time></trkpt><trkpt lat="38.9810783" lon="16.48382"><ele>414.6666666666667</ele><time>2026-04-07T13:41:20.357Z</time></trkpt><trkpt lat="38.9811467" lon="16.4838317"><ele>416.33333333333337</ele><time>2026-04-07T13:41:21.357Z</time></trkpt><trkpt lat="38.9812167" lon="16.4838333"><ele>418.0</ele><time>2026-04-07T13:41:22.356Z</time></trkpt><trkpt lat="38.98129" lon="16.4838317"><ele>418.00000000000006</ele><time>2026-04-07T13:41:23.356Z</time></trkpt><trkpt lat="38.9813633" lon="16.4838233"><ele>418.0</ele><time>2026-04-07T13:41:24.357Z</time></trkpt><trkpt lat="38.9814383" lon="16.483805"><ele>418.0</ele><time>2026-04-07T13:41:25.356Z</time></trkpt><trkpt lat="38.981505" lon="16.4837883"><ele>418.0</ele><time>2026-04-07T13:41:26.356Z</time></trkpt><trkpt lat="38.98157" lon="16.4837683"><ele>418.00000000000006</ele><time>2026-04-07T13:41:27.357Z</time></trkpt><trkpt lat="38.9816383" lon="16.4837417"><ele>418.0</ele><time>2026-04-07T13:41:28.357Z</time></trkpt><trkpt lat="38.9817533" lon="16.4837067"><ele>416.6666666666667</ele><time>2026-04-07T13:41:30.357Z</time></trkpt><trkpt lat="38.981815" lon="16.4836883"><ele>415.33333333333337</ele><time>2026-04-07T13:41:31.357Z</time></trkpt><trkpt lat="38.9818767" lon="16.48367"><ele>414.0</ele><time>2026-04-07T13:41:32.357Z</time></trkpt><trkpt lat="38.9819933" lon="16.4836283"><ele>412.66666666666663</ele><time>2026-04-07T13:41:34.356Z</time></trkpt><trkpt lat="38.9820533" lon="16.4835917"><ele>411.3333333333333</ele><time>2026-04-07T13:41:35.357Z</time></trkpt><trkpt lat="38.98212" lon="16.4835517"><ele>410.0</ele><time>2026-04-07T13:41:36.356Z</time></trkpt><trkpt lat="38.9821883" lon="16.483515"><ele>409.99999999999994</ele><time>2026-04-07T13:41:37.356Z</time></trkpt><trkpt lat="38.9822583" lon="16.4834817"><ele>410.0</ele><time>2026-04-07T13:41:38.356Z</time></trkpt><trkpt lat="38.982335" lon="16.4834567"><ele>410.0</ele><time>2026-04-07T13:41:39.357Z</time></trkpt><trkpt lat="38.9824083" lon="16.4834333"><ele>410.0</ele><time>2026-04-07T13:41:40.357Z</time></trkpt><trkpt lat="38.9824767" lon="16.4834133"><ele>409.99999999999994</ele><time>2026-04-07T13:41:41.357Z</time></trkpt><trkpt lat="38.98254" lon="16.4834067"><ele>410.0</ele><time>2026-04-07T13:41:42.356Z</time></trkpt><trkpt lat="38.9826533" lon="16.483375"><ele>415.0</ele><time>2026-04-07T13:41:44.356Z</time></trkpt><trkpt lat="38.9827567" lon="16.4833133"><ele>420.0</ele><time>2026-04-07T13:41:46.357Z</time></trkpt><trkpt lat="38.9828483" lon="16.48324"><ele>425.0</ele><time>2026-04-07T13:41:48.357Z</time></trkpt><trkpt lat="38.9829483" lon="16.483165"><ele>430.0</ele><time>2026-04-07T13:41:50.357Z</time></trkpt><trkpt lat="38.9830567" lon="16.4830933"><ele>430.0</ele><time>2026-04-07T13:41:52.356Z</time></trkpt><trkpt lat="38.983155" lon="16.4830167"><ele>430.0</ele><time>2026-04-07T13:41:54.356Z</time></trkpt><trkpt lat="38.983305" lon="16.4829183"><ele>430.0</ele><time>2026-04-07T13:41:57.357Z</time></trkpt><trkpt lat="38.9833867" lon="16.4828367"><ele>430.0</ele><time>2026-04-07T13:41:59.356Z</time></trkpt><trkpt lat="38.9834683" lon="16.4827417"><ele>428.75</ele><time>2026-04-07T13:42:01.356Z</time></trkpt><trkpt lat="38.9835383" lon="16.4826283"><ele>427.5</ele><time>2026-04-07T13:42:03.356Z</time></trkpt><trkpt lat="38.983645" lon="16.48243"><ele>426.25</ele><time>2026-04-07T13:42:06.357Z</time></trkpt><trkpt lat="38.9836817" lon="16.482355"><ele>425.0</ele><time>2026-04-07T13:42:07.356Z</time></trkpt><trkpt lat="38.9837267" lon="16.4822167"><ele>425.0</ele><time>2026-04-07T13:42:09.357Z</time></trkpt><trkpt lat="38.98379" lon="16.4821083"><ele>425.0</ele><time>2026-04-07T13:42:11.356Z</time></trkpt><trkpt lat="38.9839267" lon="16.482005"><ele>425.0</ele><time>2026-04-07T13:42:14.356Z</time></trkpt><trkpt lat="38.9840267" lon="16.4819517"><ele>425.0</ele><time>2026-04-07T13:42:16.356Z</time></trkpt><trkpt lat="38.98413" lon="16.4818983"><ele>428.5</ele><time>2026-04-07T13:42:18.356Z</time></trkpt><trkpt lat="38.9842417" lon="16.4818333"><ele>432.0</ele><time>2026-04-07T13:42:20.356Z</time></trkpt><trkpt lat="38.9843033" lon="16.4817983"><ele>435.5</ele><time>2026-04-07T13:42:21.356Z</time></trkpt><trkpt lat="38.98447" lon="16.4816983"><ele>439.0</ele><time>2026-04-07T13:42:24.356Z</time></trkpt><trkpt lat="38.9845867" lon="16.4816433"><ele>439.0</ele><time>2026-04-07T13:42:26.356Z</time></trkpt><trkpt lat="38.9846917" lon="16.48157"><ele>439.0</ele><time>2026-04-07T13:42:28.356Z</time></trkpt><trkpt lat="38.9847833" lon="16.4813917"><ele>439.0</ele><time>2026-04-07T13:42:31.357Z</time></trkpt><trkpt lat="38.98485" lon="16.4812733"><ele>439.0</ele><time>2026-04-07T13:42:33.356Z</time></trkpt><trkpt lat="38.9849817" lon="16.4811533"><ele>440.75</ele><time>2026-04-07T13:42:36.357Z</time></trkpt><trkpt lat="38.98515" lon="16.481115"><ele>442.5</ele><time>2026-04-07T13:42:39.357Z</time></trkpt><trkpt lat="38.9852783" lon="16.4810717"><ele>444.25</ele><time>2026-04-07T13:42:41.357Z</time></trkpt><trkpt lat="38.9853433" lon="16.4810367"><ele>446.0</ele><time>2026-04-07T13:42:42.356Z</time></trkpt><trkpt lat="38.9854483" lon="16.48093"><ele>446.0</ele><time>2026-04-07T13:42:44.357Z</time></trkpt><trkpt lat="38.985505" lon="16.4808833"><ele>446.0</ele><time>2026-04-07T13:42:45.357Z</time></trkpt><trkpt lat="38.9855583" lon="16.4808367"><ele>446.0</ele><time>2026-04-07T13:42:46.356Z</time></trkpt><trkpt lat="38.9856617" lon="16.4807167"><ele>446.0</ele><time>2026-04-07T13:42:48.357Z</time></trkpt><trkpt lat="38.9857617" lon="16.4806217"><ele>446.0</ele><time>2026-04-07T13:42:50.356Z</time></trkpt><trkpt lat="38.98589" lon="16.48057"><ele>449.0</ele><time>2026-04-07T13:42:53.356Z</time></trkpt><trkpt lat="38.98598" lon="16.4806333"><ele>452.0</ele><time>2026-04-07T13:42:55.356Z</time></trkpt><trkpt lat="38.9860667" lon="16.4807633"><ele>455.0</ele><time>2026-04-07T13:42:57.357Z</time></trkpt><trkpt lat="38.986105" lon="16.48084"><ele>458.0</ele><time>2026-04-07T13:42:58.356Z</time></trkpt><trkpt lat="38.98618" lon="16.480995"><ele>461.0</ele><time>2026-04-07T13:43:00.356Z</time></trkpt><trkpt lat="38.9862583" lon="16.48114"><ele>461.0</ele><time>2026-04-07T13:43:02.356Z</time></trkpt><trkpt lat="38.98634" lon="16.48124"><ele>461.0</ele><time>2026-04-07T13:43:04.357Z</time></trkpt><trkpt lat="38.98641" lon="16.481235"><ele>461.0</ele><time>2026-04-07T13:43:06.357Z</time></trkpt><trkpt lat="38.986495" lon="16.4811567"><ele>461.0</ele><time>2026-04-07T13:43:08.356Z</time></trkpt><trkpt lat="38.9865317" lon="16.4809283"><ele>461.0</ele><time>2026-04-07T13:43:11.357Z</time></trkpt><trkpt lat="38.9865417" lon="16.4807583"><ele>461.0</ele><time>2026-04-07T13:43:13.356Z</time></trkpt><trkpt lat="38.9865733" lon="16.48057"><ele>461.0</ele><time>2026-04-07T13:43:15.356Z</time></trkpt><trkpt lat="38.98659" lon="16.48049"><ele>461.0</ele><time>2026-04-07T13:43:16.357Z</time></trkpt><trkpt lat="38.986645" lon="16.4803883"><ele>461.0</ele><time>2026-04-07T13:43:18.356Z</time></trkpt><trkpt lat="38.9868083" lon="16.4804083"><ele>461.8</ele><time>2026-04-07T13:43:21.357Z</time></trkpt><trkpt lat="38.9868717" lon="16.4804183"><ele>462.6</ele><time>2026-04-07T13:43:22.356Z</time></trkpt><trkpt lat="38.9870067" lon="16.480435"><ele>463.4</ele><time>2026-04-07T13:43:24.357Z</time></trkpt><trkpt lat="38.9870767" lon="16.4804367"><ele>464.2</ele><time>2026-04-07T13:43:25.356Z</time></trkpt><trkpt lat="38.9871483" lon="16.48044"><ele>465.0</ele><time>2026-04-07T13:43:26.356Z</time></trkpt><trkpt lat="38.9873" lon="16.4804317"><ele>469.5</ele><time>2026-04-07T13:43:28.357Z</time></trkpt><trkpt lat="38.987375" lon="16.4804383"><ele>474.0</ele><time>2026-04-07T13:43:29.356Z</time></trkpt><trkpt lat="38.987535" lon="16.48047"><ele>478.5</ele><time>2026-04-07T13:43:31.356Z</time></trkpt><trkpt lat="38.9876083" lon="16.4804933"><ele>483.0</ele><time>2026-04-07T13:43:32.356Z</time></trkpt><trkpt lat="38.9877533" lon="16.480555"><ele>487.0</ele><time>2026-04-07T13:43:34.356Z</time></trkpt><trkpt lat="38.9878217" lon="16.48058"><ele>490.99999999999994</ele><time>2026-04-07T13:43:35.356Z</time></trkpt><trkpt lat="38.98789" lon="16.4805983"><ele>494.99999999999994</ele><time>2026-04-07T13:43:36.356Z</time></trkpt><trkpt lat="38.9879567" lon="16.480605"><ele>499.0</ele><time>2026-04-07T13:43:37.356Z</time></trkpt><trkpt lat="38.98808" lon="16.4805967"><ele>503.0</ele><time>2026-04-07T13:43:39.356Z</time></trkpt><trkpt lat="38.9882383" lon="16.4806083"><ele>502.99999999999994</ele><time>2026-04-07T13:43:42.356Z</time></trkpt><trkpt lat="38.9883133" lon="16.4806367"><ele>503.0</ele><time>2026-04-07T13:43:44.356Z</time></trkpt><trkpt lat="38.9883833" lon="16.4806417"><ele>503.0</ele><time>2026-04-07T13:43:46.356Z</time></trkpt><trkpt lat="38.9883583" lon="16.4805217"><ele>503.0</ele><time>2026-04-07T13:43:53.356Z</time></trkpt><trkpt lat="38.9882717" lon="16.4804483"><ele>502.99999999999994</ele><time>2026-04-07T13:43:55.356Z</time></trkpt><trkpt lat="38.9882133" lon="16.4804083"><ele>503.0</ele><time>2026-04-07T13:43:56.355Z</time></trkpt><trkpt lat="38.98816" lon="16.4803617"><ele>501.0</ele><time>2026-04-07T13:43:57.356Z</time></trkpt><trkpt lat="38.9881033" lon="16.4802967"><ele>499.0</ele><time>2026-04-07T13:43:58.355Z</time></trkpt><trkpt lat="38.98801" lon="16.480145"><ele>497.0</ele><time>2026-04-07T13:44:00.356Z</time></trkpt><trkpt lat="38.9879333" lon="16.479965"><ele>495.0</ele><time>2026-04-07T13:44:02.356Z</time></trkpt><trkpt lat="38.9878483" lon="16.4797883"><ele>495.0</ele><time>2026-04-07T13:44:04.355Z</time></trkpt><trkpt lat="38.987795" lon="16.47972"><ele>495.0</ele><time>2026-04-07T13:44:05.355Z</time></trkpt><trkpt lat="38.98768" lon="16.47961"><ele>495.0</ele><time>2026-04-07T13:44:07.356Z</time></trkpt><trkpt lat="38.98756" lon="16.4795383"><ele>495.0</ele><time>2026-04-07T13:44:09.356Z</time></trkpt><trkpt lat="38.9874283" lon="16.4794633"><ele>492.3333333333333</ele><time>2026-04-07T13:44:11.356Z</time></trkpt><trkpt lat="38.9873617" lon="16.4794317"><ele>489.66666666666663</ele><time>2026-04-07T13:44:12.355Z</time></trkpt><trkpt lat="38.9872317" lon="16.4793833"><ele>487.0</ele><time>2026-04-07T13:44:14.356Z</time></trkpt><trkpt lat="38.9871667" lon="16.4793483"><ele>484.3333333333333</ele><time>2026-04-07T13:44:15.355Z</time></trkpt><trkpt lat="38.9871017" lon="16.479305"><ele>481.66666666666663</ele><time>2026-04-07T13:44:16.355Z</time></trkpt><trkpt lat="38.9870483" lon="16.4792383"><ele>479.0</ele><time>2026-04-07T13:44:17.355Z</time></trkpt><trkpt lat="38.986985" lon="16.4791167"><ele>479.0</ele><time>2026-04-07T13:44:19.355Z</time></trkpt><trkpt lat="38.9869833" lon="16.4789683"><ele>479.0</ele><time>2026-04-07T13:44:21.355Z</time></trkpt><trkpt lat="38.987" lon="16.4788767"><ele>479.0</ele><time>2026-04-07T13:44:22.355Z</time></trkpt><trkpt lat="38.98702" lon="16.4787733"><ele>479.0</ele><time>2026-04-07T13:44:23.355Z</time></trkpt><trkpt lat="38.98704" lon="16.4785517"><ele>479.0</ele><time>2026-04-07T13:44:25.356Z</time></trkpt><trkpt lat="38.9870467" lon="16.4784467"><ele>479.25</ele><time>2026-04-07T13:44:26.356Z</time></trkpt><trkpt lat="38.98709" lon="16.4782383"><ele>479.5</ele><time>2026-04-07T13:44:28.356Z</time></trkpt><trkpt lat="38.9871617" lon="16.47804"><ele>479.75</ele><time>2026-04-07T13:44:30.355Z</time></trkpt><trkpt lat="38.9872" lon="16.4779617"><ele>480.0</ele><time>2026-04-07T13:44:31.356Z</time></trkpt><trkpt lat="38.9872517" lon="16.4778917"><ele>478.25</ele><time>2026-04-07T13:44:32.355Z</time></trkpt><trkpt lat="38.9873117" lon="16.4778433"><ele>476.5</ele><time>2026-04-07T13:44:33.356Z</time></trkpt><trkpt lat="38.9874667" lon="16.4778133"><ele>474.75</ele><time>2026-04-07T13:44:35.356Z</time></trkpt><trkpt lat="38.98764" lon="16.4778517"><ele>473.0</ele><time>2026-04-07T13:44:37.355Z</time></trkpt><trkpt lat="38.9877217" lon="16.4778567"><ele>477.99999999999994</ele><time>2026-04-07T13:44:38.355Z</time></trkpt><trkpt lat="38.9877933" lon="16.4778683"><ele>483.0</ele><time>2026-04-07T13:44:39.355Z</time></trkpt><trkpt lat="38.98786" lon="16.47787"><ele>488.0</ele><time>2026-04-07T13:44:40.356Z</time></trkpt><trkpt lat="38.9879283" lon="16.4778633"><ele>493.0</ele><time>2026-04-07T13:44:41.355Z</time></trkpt><trkpt lat="38.98799" lon="16.47784"><ele>497.99999999999994</ele><time>2026-04-07T13:44:42.355Z</time></trkpt><trkpt lat="38.988075" lon="16.4777717"><ele>503.0</ele><time>2026-04-07T13:44:44.356Z</time></trkpt><trkpt lat="38.9881233" lon="16.47769"><ele>503.0</ele><time>2026-04-07T13:44:46.356Z</time></trkpt><trkpt lat="38.9880933" lon="16.47758"><ele>503.0</ele><time>2026-04-07T13:44:48.355Z</time></trkpt><trkpt lat="38.9879017" lon="16.4774933"><ele>503.0</ele><time>2026-04-07T13:44:51.356Z</time></trkpt><trkpt lat="38.98778" lon="16.4774117"><ele>503.0</ele><time>2026-04-07T13:44:53.356Z</time></trkpt><trkpt lat="38.987715" lon="16.477285"><ele>503.0</ele><time>2026-04-07T13:44:55.355Z</time></trkpt><trkpt lat="38.98772" lon="16.4771917"><ele>502.99999999999994</ele><time>2026-04-07T13:44:56.356Z</time></trkpt><trkpt lat="38.9877283" lon="16.477095"><ele>502.99999999999994</ele><time>2026-04-07T13:44:57.355Z</time></trkpt><trkpt lat="38.9876883" lon="16.476905"><ele>503.0</ele><time>2026-04-07T13:45:00.355Z</time></trkpt><trkpt lat="38.987555" lon="16.476845"><ele>503.0</ele><time>2026-04-07T13:45:03.355Z</time></trkpt><trkpt lat="38.9874767" lon="16.476835"><ele>500.66666666666663</ele><time>2026-04-07T13:45:04.356Z</time></trkpt><trkpt lat="38.9872833" lon="16.4768333"><ele>498.33333333333337</ele><time>2026-04-07T13:45:06.356Z</time></trkpt><trkpt lat="38.987205" lon="16.4768183"><ele>496.0</ele><time>2026-04-07T13:45:07.355Z</time></trkpt><trkpt lat="38.9870533" lon="16.4766933"><ele>496.0</ele><time>2026-04-07T13:45:10.355Z</time></trkpt><trkpt lat="38.9869983" lon="16.4766133"><ele>496.0</ele><time>2026-04-07T13:45:11.356Z</time></trkpt><trkpt lat="38.9869433" lon="16.4765167"><ele>496.0</ele><time>2026-04-07T13:45:12.355Z</time></trkpt><trkpt lat="38.9868283" lon="16.4762967"><ele>496.0</ele><time>2026-04-07T13:45:14.355Z</time></trkpt><trkpt lat="38.9867667" lon="16.4761817"><ele>499.25</ele><time>2026-04-07T13:45:15.355Z</time></trkpt><trkpt lat="38.986695" lon="16.4759883"><ele>502.5</ele><time>2026-04-07T13:45:17.356Z</time></trkpt><trkpt lat="38.9866867" lon="16.4758933"><ele>505.75</ele><time>2026-04-07T13:45:18.356Z</time></trkpt><trkpt lat="38.986705" lon="16.4756983"><ele>509.0</ele><time>2026-04-07T13:45:20.355Z</time></trkpt><trkpt lat="38.986705" lon="16.4755967"><ele>504.0</ele><time>2026-04-07T13:45:21.356Z</time></trkpt><trkpt lat="38.986675" lon="16.4754033"><ele>499.0</ele><time>2026-04-07T13:45:23.356Z</time></trkpt><trkpt lat="38.9866333" lon="16.4751967"><ele>494.0</ele><time>2026-04-07T13:45:25.355Z</time></trkpt><trkpt lat="38.9865733" lon="16.4750117"><ele>494.0</ele><time>2026-04-07T13:45:27.356Z</time></trkpt><trkpt lat="38.9864967" lon="16.4748083"><ele>494.0</ele><time>2026-04-07T13:45:30.356Z</time></trkpt><trkpt lat="38.9864583" lon="16.4746617"><ele>494.0</ele><time>2026-04-07T13:45:32.355Z</time></trkpt><trkpt lat="38.986425" lon="16.47459"><ele>494.0</ele><time>2026-04-07T13:45:33.356Z</time></trkpt><trkpt lat="38.9863483" lon="16.4744683"><ele>496.16666666666663</ele><time>2026-04-07T13:45:35.355Z</time></trkpt><trkpt lat="38.9863" lon="16.4743867"><ele>498.3333333333333</ele><time>2026-04-07T13:45:36.356Z</time></trkpt><trkpt lat="38.9862467" lon="16.4743017"><ele>500.5</ele><time>2026-04-07T13:45:37.356Z</time></trkpt><trkpt lat="38.9861983" lon="16.4742"><ele>502.66666666666663</ele><time>2026-04-07T13:45:38.356Z</time></trkpt><trkpt lat="38.9861517" lon="16.474115"><ele>504.8333333333333</ele><time>2026-04-07T13:45:39.355Z</time></trkpt><trkpt lat="38.9861183" lon="16.474035"><ele>507.0</ele><time>2026-04-07T13:45:40.356Z</time></trkpt><trkpt lat="38.9861167" lon="16.4739217"><ele>507.0</ele><time>2026-04-07T13:45:42.355Z</time></trkpt><trkpt lat="38.98618" lon="16.4738783"><ele>507.0</ele><time>2026-04-07T13:45:44.355Z</time></trkpt><trkpt lat="38.9862767" lon="16.4739233"><ele>507.0</ele><time>2026-04-07T13:45:46.356Z</time></trkpt><trkpt lat="38.9863267" lon="16.47398"><ele>507.0</ele><time>2026-04-07T13:45:47.356Z</time></trkpt><trkpt lat="38.9863733" lon="16.4740367"><ele>507.0</ele><time>2026-04-07T13:45:48.356Z</time></trkpt><trkpt lat="38.9864383" lon="16.4740917"><ele>507.0</ele><time>2026-04-07T13:45:49.355Z</time></trkpt><trkpt lat="38.9865067" lon="16.474135"><ele>507.0</ele><time>2026-04-07T13:45:50.355Z</time></trkpt><trkpt lat="38.9865767" lon="16.4741733"><ele>507.0</ele><time>2026-04-07T13:45:51.355Z</time></trkpt><trkpt lat="38.9866383" lon="16.47421"><ele>507.0</ele><time>2026-04-07T13:45:52.356Z</time></trkpt><trkpt lat="38.9867017" lon="16.4742617"><ele>507.0</ele><time>2026-04-07T13:45:53.356Z</time></trkpt><trkpt lat="38.9867567" lon="16.47433"><ele>507.0</ele><time>2026-04-07T13:45:54.356Z</time></trkpt><trkpt lat="38.9868067" lon="16.4744017"><ele>507.0</ele><time>2026-04-07T13:45:55.356Z</time></trkpt><trkpt lat="38.986855" lon="16.4744817"><ele>507.0</ele><time>2026-04-07T13:45:56.356Z</time></trkpt><trkpt lat="38.9869217" lon="16.4745583"><ele>508.6666666666667</ele><time>2026-04-07T13:45:57.356Z</time></trkpt><trkpt lat="38.986985" lon="16.4746183"><ele>510.33333333333337</ele><time>2026-04-07T13:45:58.355Z</time></trkpt><trkpt lat="38.987045" lon="16.4746767"><ele>512.0</ele><time>2026-04-07T13:45:59.355Z</time></trkpt><trkpt lat="38.9871017" lon="16.474755"><ele>513.6666666666667</ele><time>2026-04-07T13:46:00.356Z</time></trkpt><trkpt lat="38.9871367" lon="16.474835"><ele>515.3333333333334</ele><time>2026-04-07T13:46:01.356Z</time></trkpt><trkpt lat="38.9871733" lon="16.47492"><ele>517.0</ele><time>2026-04-07T13:46:02.355Z</time></trkpt><trkpt lat="38.9872183" lon="16.4749917"><ele>517.0</ele><time>2026-04-07T13:46:03.356Z</time></trkpt><trkpt lat="38.9872767" lon="16.47505"><ele>517.0</ele><time>2026-04-07T13:46:04.355Z</time></trkpt><trkpt lat="38.9873467" lon="16.4750883"><ele>517.0</ele><time>2026-04-07T13:46:05.356Z</time></trkpt><trkpt lat="38.9874167" lon="16.4750983"><ele>517.0</ele><time>2026-04-07T13:46:06.356Z</time></trkpt><trkpt lat="38.987485" lon="16.4750983"><ele>517.0</ele><time>2026-04-07T13:46:07.356Z</time></trkpt><trkpt lat="38.9875517" lon="16.4750733"><ele>517.0</ele><time>2026-04-07T13:46:08.356Z</time></trkpt><trkpt lat="38.9876133" lon="16.47503"><ele>517.0</ele><time>2026-04-07T13:46:09.356Z</time></trkpt><trkpt lat="38.987665" lon="16.474975"><ele>520.0</ele><time>2026-04-07T13:46:10.356Z</time></trkpt><trkpt lat="38.987715" lon="16.4749233"><ele>523.0</ele><time>2026-04-07T13:46:11.355Z</time></trkpt><trkpt lat="38.98775" lon="16.474855"><ele>526.0</ele><time>2026-04-07T13:46:12.355Z</time></trkpt><trkpt lat="38.9877583" lon="16.474715"><ele>529.0</ele><time>2026-04-07T13:46:14.356Z</time></trkpt><trkpt lat="38.9877183" lon="16.4745833"><ele>532.0</ele><time>2026-04-07T13:46:16.356Z</time></trkpt><trkpt lat="38.9876667" lon="16.4744567"><ele>531.0</ele><time>2026-04-07T13:46:18.355Z</time></trkpt><trkpt lat="38.987605" lon="16.474335"><ele>530.0</ele><time>2026-04-07T13:46:20.355Z</time></trkpt><trkpt lat="38.9875417" lon="16.4741967"><ele>529.0</ele><time>2026-04-07T13:46:22.356Z</time></trkpt><trkpt lat="38.98751" lon="16.4741133"><ele>528.0</ele><time>2026-04-07T13:46:23.355Z</time></trkpt><trkpt lat="38.98747" lon="16.4740217"><ele>527.0</ele><time>2026-04-07T13:46:24.355Z</time></trkpt><trkpt lat="38.98742" lon="16.47394"><ele>527.0</ele><time>2026-04-07T13:46:25.355Z</time></trkpt><trkpt lat="38.987365" lon="16.4738517"><ele>527.0</ele><time>2026-04-07T13:46:26.355Z</time></trkpt><trkpt lat="38.9873067" lon="16.4737683"><ele>527.0</ele><time>2026-04-07T13:46:27.355Z</time></trkpt><trkpt lat="38.987245" lon="16.4736783"><ele>527.0</ele><time>2026-04-07T13:46:28.355Z</time></trkpt><trkpt lat="38.987185" lon="16.473595"><ele>527.0</ele><time>2026-04-07T13:46:29.356Z</time></trkpt><trkpt lat="38.9871233" lon="16.473495"><ele>528.6666666666666</ele><time>2026-04-07T13:46:30.355Z</time></trkpt><trkpt lat="38.987065" lon="16.47343"><ele>530.3333333333333</ele><time>2026-04-07T13:46:31.355Z</time></trkpt><trkpt lat="38.9869983" lon="16.4733683"><ele>532.0</ele><time>2026-04-07T13:46:32.356Z</time></trkpt><trkpt lat="38.9869233" lon="16.4733167"><ele>533.6666666666666</ele><time>2026-04-07T13:46:33.355Z</time></trkpt><trkpt lat="38.9868533" lon="16.473265"><ele>535.3333333333334</ele><time>2026-04-07T13:46:34.356Z</time></trkpt><trkpt lat="38.9867983" lon="16.4731933"><ele>537.0</ele><time>2026-04-07T13:46:35.356Z</time></trkpt><trkpt lat="38.9867633" lon="16.473115"><ele>537.0</ele><time>2026-04-07T13:46:36.355Z</time></trkpt><trkpt lat="38.98674" lon="16.4729617"><ele>537.0</ele><time>2026-04-07T13:46:38.355Z</time></trkpt><trkpt lat="38.9867533" lon="16.47286"><ele>537.0</ele><time>2026-04-07T13:46:39.355Z</time></trkpt><trkpt lat="38.986765" lon="16.4727417"><ele>537.0</ele><time>2026-04-07T13:46:40.355Z</time></trkpt><trkpt lat="38.98677" lon="16.4726117"><ele>537.0</ele><time>2026-04-07T13:46:41.356Z</time></trkpt><trkpt lat="38.9867717" lon="16.4724733"><ele>539.4</ele><time>2026-04-07T13:46:42.356Z</time></trkpt><trkpt lat="38.9867783" lon="16.472335"><ele>541.8000000000001</ele><time>2026-04-07T13:46:43.355Z</time></trkpt><trkpt lat="38.9867867" lon="16.4721967"><ele>544.2</ele><time>2026-04-07T13:46:44.355Z</time></trkpt><trkpt lat="38.9867933" lon="16.47206"><ele>546.6</ele><time>2026-04-07T13:46:45.356Z</time></trkpt><trkpt lat="38.9868" lon="16.4719217"><ele>549.0</ele><time>2026-04-07T13:46:46.355Z</time></trkpt><trkpt lat="38.9868033" lon="16.4717833"><ele>551.6</ele><time>2026-04-07T13:46:47.355Z</time></trkpt><trkpt lat="38.9867983" lon="16.4716417"><ele>554.2</ele><time>2026-04-07T13:46:48.355Z</time></trkpt><trkpt lat="38.986795" lon="16.4715083"><ele>556.8000000000001</ele><time>2026-04-07T13:46:49.355Z</time></trkpt><trkpt lat="38.98678" lon="16.4713917"><ele>559.4</ele><time>2026-04-07T13:46:50.355Z</time></trkpt><trkpt lat="38.9867367" lon="16.471285"><ele>562.0</ele><time>2026-04-07T13:46:51.356Z</time></trkpt><trkpt lat="38.98668" lon="16.4711733"><ele>558.2</ele><time>2026-04-07T13:46:52.356Z</time></trkpt><trkpt lat="38.98662" lon="16.4710667"><ele>554.4000000000001</ele><time>2026-04-07T13:46:53.356Z</time></trkpt><trkpt lat="38.9865633" lon="16.4709633"><ele>550.5999999999999</ele><time>2026-04-07T13:46:54.355Z</time></trkpt><trkpt lat="38.9865183" lon="16.4708483"><ele>546.8</ele><time>2026-04-07T13:46:55.355Z</time></trkpt><trkpt lat="38.9864833" lon="16.4707433"><ele>543.0</ele><time>2026-04-07T13:46:56.356Z</time></trkpt><trkpt lat="38.986465" lon="16.470635"><ele>543.0</ele><time>2026-04-07T13:46:57.356Z</time></trkpt><trkpt lat="38.9864617" lon="16.4705217"><ele>543.0</ele><time>2026-04-07T13:46:58.356Z</time></trkpt><trkpt lat="38.9864683" lon="16.47041"><ele>543.0</ele><time>2026-04-07T13:46:59.356Z</time></trkpt><trkpt lat="38.986475" lon="16.4703033"><ele>543.0</ele><time>2026-04-07T13:47:00.356Z</time></trkpt><trkpt lat="38.98647" lon="16.4702"><ele>543.0</ele><time>2026-04-07T13:47:01.356Z</time></trkpt><trkpt lat="38.986465" lon="16.4701017"><ele>543.0</ele><time>2026-04-07T13:47:02.355Z</time></trkpt><trkpt lat="38.9864517" lon="16.4700017"><ele>545.5</ele><time>2026-04-07T13:47:03.356Z</time></trkpt><trkpt lat="38.9864383" lon="16.46991"><ele>548.0</ele><time>2026-04-07T13:47:04.356Z</time></trkpt><trkpt lat="38.9864133" lon="16.4698233"><ele>550.5</ele><time>2026-04-07T13:47:05.355Z</time></trkpt><trkpt lat="38.9863833" lon="16.4697383"><ele>553.0</ele><time>2026-04-07T13:47:06.356Z</time></trkpt><trkpt lat="38.9863467" lon="16.4696533"><ele>555.5</ele><time>2026-04-07T13:47:07.356Z</time></trkpt><trkpt lat="38.9862983" lon="16.46958"><ele>558.0</ele><time>2026-04-07T13:47:08.356Z</time></trkpt><trkpt lat="38.9862283" lon="16.46951"><ele>561.0</ele><time>2026-04-07T13:47:09.355Z</time></trkpt><trkpt lat="38.986165" lon="16.4694517"><ele>564.0</ele><time>2026-04-07T13:47:10.356Z</time></trkpt><trkpt lat="38.9861067" lon="16.4693833"><ele>567.0</ele><time>2026-04-07T13:47:11.356Z</time></trkpt><trkpt lat="38.9860567" lon="16.46931"><ele>570.0</ele><time>2026-04-07T13:47:12.356Z</time></trkpt><trkpt lat="38.9860067" lon="16.4692283"><ele>573.0</ele><time>2026-04-07T13:47:13.355Z</time></trkpt><trkpt lat="38.9859533" lon="16.4691467"><ele>576.0</ele><time>2026-04-07T13:47:14.356Z</time></trkpt><trkpt lat="38.9858983" lon="16.4690517"><ele>573.0</ele><time>2026-04-07T13:47:15.355Z</time></trkpt><trkpt lat="38.9858433" lon="16.4689717"><ele>570.0</ele><time>2026-04-07T13:47:16.355Z</time></trkpt><trkpt lat="38.9858" lon="16.4689"><ele>567.0</ele><time>2026-04-07T13:47:17.356Z</time></trkpt><trkpt lat="38.9858283" lon="16.46875"><ele>564.0</ele><time>2026-04-07T13:47:19.355Z</time></trkpt><trkpt lat="38.985905" lon="16.4686567"><ele>561.0</ele><time>2026-04-07T13:47:21.355Z</time></trkpt><trkpt lat="38.9859633" lon="16.46862"><ele>558.0</ele><time>2026-04-07T13:47:22.355Z</time></trkpt><trkpt lat="38.9860333" lon="16.4685883"><ele>558.0</ele><time>2026-04-07T13:47:23.355Z</time></trkpt><trkpt lat="38.9860967" lon="16.4685567"><ele>558.0</ele><time>2026-04-07T13:47:24.355Z</time></trkpt><trkpt lat="38.9861567" lon="16.4685283"><ele>558.0</ele><time>2026-04-07T13:47:25.356Z</time></trkpt><trkpt lat="38.9862567" lon="16.4685333"><ele>558.0</ele><time>2026-04-07T13:47:27.355Z</time></trkpt><trkpt lat="38.9862817" lon="16.4686167"><ele>558.0</ele><time>2026-04-07T13:47:30.356Z</time></trkpt><trkpt lat="38.9862133" lon="16.468655"><ele>558.0</ele><time>2026-04-07T13:47:32.355Z</time></trkpt><trkpt lat="38.9861" lon="16.4686867"><ele>561.0</ele><time>2026-04-07T13:47:34.356Z</time></trkpt><trkpt lat="38.9859967" lon="16.468795"><ele>564.0</ele><time>2026-04-07T13:47:36.355Z</time></trkpt><trkpt lat="38.9859683" lon="16.4688683"><ele>567.0</ele><time>2026-04-07T13:47:37.355Z</time></trkpt><trkpt lat="38.9859783" lon="16.4689517"><ele>570.0</ele><time>2026-04-07T13:47:38.356Z</time></trkpt><trkpt lat="38.98602" lon="16.46904"><ele>573.0</ele><time>2026-04-07T13:47:39.356Z</time></trkpt><trkpt lat="38.98609" lon="16.4691183"><ele>576.0</ele><time>2026-04-07T13:47:40.355Z</time></trkpt><trkpt lat="38.9861617" lon="16.4691817"><ele>576.0</ele><time>2026-04-07T13:47:41.356Z</time></trkpt><trkpt lat="38.9862417" lon="16.469245"><ele>576.0</ele><time>2026-04-07T13:47:42.355Z</time></trkpt><trkpt lat="38.9863267" lon="16.4693033"><ele>576.0</ele><time>2026-04-07T13:47:43.356Z</time></trkpt><trkpt lat="38.9864133" lon="16.4693633"><ele>576.0</ele><time>2026-04-07T13:47:44.356Z</time></trkpt><trkpt lat="38.9865083" lon="16.46942"><ele>576.0</ele><time>2026-04-07T13:47:45.355Z</time></trkpt><trkpt lat="38.9866067" lon="16.4694883"><ele>578.6</ele><time>2026-04-07T13:47:46.355Z</time></trkpt><trkpt lat="38.9867033" lon="16.4695567"><ele>581.2</ele><time>2026-04-07T13:47:47.355Z</time></trkpt><trkpt lat="38.9868" lon="16.46961"><ele>583.8</ele><time>2026-04-07T13:47:48.355Z</time></trkpt><trkpt lat="38.9868917" lon="16.4696733"><ele>586.4</ele><time>2026-04-07T13:47:49.356Z</time></trkpt><trkpt lat="38.9869833" lon="16.4697233"><ele>589.0</ele><time>2026-04-07T13:47:50.356Z</time></trkpt><trkpt lat="38.98706" lon="16.4697817"><ele>589.0</ele><time>2026-04-07T13:47:51.355Z</time></trkpt><trkpt lat="38.98713" lon="16.469845"><ele>589.0</ele><time>2026-04-07T13:47:52.355Z</time></trkpt><trkpt lat="38.9871933" lon="16.4699233"><ele>589.0</ele><time>2026-04-07T13:47:53.356Z</time></trkpt><trkpt lat="38.987255" lon="16.4700017"><ele>589.0</ele><time>2026-04-07T13:47:54.355Z</time></trkpt><trkpt lat="38.9873167" lon="16.47008"><ele>589.0</ele><time>2026-04-07T13:47:55.355Z</time></trkpt><trkpt lat="38.9873683" lon="16.47017"><ele>589.0</ele><time>2026-04-07T13:47:56.355Z</time></trkpt><trkpt lat="38.9874" lon="16.47027"><ele>589.0</ele><time>2026-04-07T13:47:57.355Z</time></trkpt><trkpt lat="38.9874133" lon="16.47037"><ele>589.0</ele><time>2026-04-07T13:47:58.356Z</time></trkpt><trkpt lat="38.987425" lon="16.4704717"><ele>589.0</ele><time>2026-04-07T13:47:59.355Z</time></trkpt><trkpt lat="38.9874433" lon="16.4705667"><ele>589.0</ele><time>2026-04-07T13:48:00.355Z</time></trkpt><trkpt lat="38.9874733" lon="16.4706583"><ele>589.0</ele><time>2026-04-07T13:48:01.355Z</time></trkpt><trkpt lat="38.9875133" lon="16.4707517"><ele>589.0</ele><time>2026-04-07T13:48:02.356Z</time></trkpt><trkpt lat="38.9875567" lon="16.470835"><ele>595.0</ele><time>2026-04-07T13:48:03.356Z</time></trkpt><trkpt lat="38.9876117" lon="16.4709067"><ele>601.0</ele><time>2026-04-07T13:48:04.356Z</time></trkpt><trkpt lat="38.987675" lon="16.47097"><ele>607.0</ele><time>2026-04-07T13:48:05.356Z</time></trkpt><trkpt lat="38.9877483" lon="16.47102"><ele>613.0</ele><time>2026-04-07T13:48:06.355Z</time></trkpt><trkpt lat="38.9878217" lon="16.4710667"><ele>619.0</ele><time>2026-04-07T13:48:07.356Z</time></trkpt><trkpt lat="38.9878833" lon="16.4711333"><ele>625.0</ele><time>2026-04-07T13:48:08.355Z</time></trkpt><trkpt lat="38.9879383" lon="16.4712133"><ele>620.8333333333334</ele><time>2026-04-07T13:48:09.355Z</time></trkpt><trkpt lat="38.9879783" lon="16.4713033"><ele>616.6666666666667</ele><time>2026-04-07T13:48:10.355Z</time></trkpt><trkpt lat="38.9880133" lon="16.4713983"><ele>612.5</ele><time>2026-04-07T13:48:11.355Z</time></trkpt><trkpt lat="38.98805" lon="16.4714983"><ele>608.3333333333334</ele><time>2026-04-07T13:48:12.355Z</time></trkpt><trkpt lat="38.9880767" lon="16.4716017"><ele>604.1666666666666</ele><time>2026-04-07T13:48:13.356Z</time></trkpt><trkpt lat="38.988105" lon="16.471705"><ele>600.0</ele><time>2026-04-07T13:48:14.355Z</time></trkpt><trkpt lat="38.9881533" lon="16.4718183"><ele>600.0</ele><time>2026-04-07T13:48:15.356Z</time></trkpt><trkpt lat="38.9882033" lon="16.4719333"><ele>600.0</ele><time>2026-04-07T13:48:16.355Z</time></trkpt><trkpt lat="38.9882517" lon="16.4720283"><ele>600.0</ele><time>2026-04-07T13:48:17.356Z</time></trkpt><trkpt lat="38.9883" lon="16.4721083"><ele>600.0</ele><time>2026-04-07T13:48:18.356Z</time></trkpt><trkpt lat="38.988355" lon="16.472175"><ele>600.0</ele><time>2026-04-07T13:48:19.355Z</time></trkpt><trkpt lat="38.9884233" lon="16.4722217"><ele>600.0</ele><time>2026-04-07T13:48:20.355Z</time></trkpt><trkpt lat="38.9884933" lon="16.4722517"><ele>598.2857142857142</ele><time>2026-04-07T13:48:21.356Z</time></trkpt><trkpt lat="38.9885633" lon="16.4722667"><ele>596.5714285714286</ele><time>2026-04-07T13:48:22.355Z</time></trkpt><trkpt lat="38.9886267" lon="16.47226"><ele>594.8571428571429</ele><time>2026-04-07T13:48:23.355Z</time></trkpt><trkpt lat="38.98869" lon="16.4722333"><ele>593.1428571428571</ele><time>2026-04-07T13:48:24.355Z</time></trkpt><trkpt lat="38.9887583" lon="16.4722017"><ele>591.4285714285714</ele><time>2026-04-07T13:48:25.355Z</time></trkpt><trkpt lat="38.98883" lon="16.4721733"><ele>589.7142857142857</ele><time>2026-04-07T13:48:26.355Z</time></trkpt><trkpt lat="38.9889083" lon="16.4721483"><ele>588.0</ele><time>2026-04-07T13:48:27.356Z</time></trkpt><trkpt lat="38.9889933" lon="16.4721267"><ele>588.0</ele><time>2026-04-07T13:48:28.355Z</time></trkpt><trkpt lat="38.989085" lon="16.4721217"><ele>588.0</ele><time>2026-04-07T13:48:29.355Z</time></trkpt><trkpt lat="38.9891783" lon="16.47213"><ele>588.0</ele><time>2026-04-07T13:48:30.356Z</time></trkpt><trkpt lat="38.9892717" lon="16.4721383"><ele>588.0</ele><time>2026-04-07T13:48:31.356Z</time></trkpt><trkpt lat="38.9893567" lon="16.4721467"><ele>588.0</ele><time>2026-04-07T13:48:32.356Z</time></trkpt><trkpt lat="38.989445" lon="16.4721467"><ele>590.0</ele><time>2026-04-07T13:48:33.356Z</time></trkpt><trkpt lat="38.9895233" lon="16.47215"><ele>592.0</ele><time>2026-04-07T13:48:34.355Z</time></trkpt><trkpt lat="38.9896083" lon="16.4721483"><ele>594.0</ele><time>2026-04-07T13:48:35.356Z</time></trkpt><trkpt lat="38.9896967" lon="16.4721483"><ele>596.0</ele><time>2026-04-07T13:48:36.356Z</time></trkpt><trkpt lat="38.989785" lon="16.4721567"><ele>598.0</ele><time>2026-04-07T13:48:37.356Z</time></trkpt><trkpt lat="38.98988" lon="16.4721683"><ele>600.0</ele><time>2026-04-07T13:48:38.355Z</time></trkpt><trkpt lat="38.9899617" lon="16.472185"><ele>605.0</ele><time>2026-04-07T13:48:39.355Z</time></trkpt><trkpt lat="38.9900417" lon="16.47221"><ele>610.0</ele><time>2026-04-07T13:48:40.356Z</time></trkpt><trkpt lat="38.9901217" lon="16.472245"><ele>615.0</ele><time>2026-04-07T13:48:41.356Z</time></trkpt><trkpt lat="38.990195" lon="16.4722933"><ele>620.0</ele><time>2026-04-07T13:48:42.355Z</time></trkpt><trkpt lat="38.9902683" lon="16.4723517"><ele>625.0</ele><time>2026-04-07T13:48:43.355Z</time></trkpt><trkpt lat="38.9903417" lon="16.472415"><ele>630.0</ele><time>2026-04-07T13:48:44.355Z</time></trkpt><trkpt lat="38.9904167" lon="16.47248"><ele>630.0</ele><time>2026-04-07T13:48:45.356Z</time></trkpt><trkpt lat="38.9904883" lon="16.472545"><ele>630.0</ele><time>2026-04-07T13:48:46.356Z</time></trkpt><trkpt lat="38.990565" lon="16.4725983"><ele>630.0</ele><time>2026-04-07T13:48:47.355Z</time></trkpt><trkpt lat="38.9906483" lon="16.4726583"><ele>630.0</ele><time>2026-04-07T13:48:48.356Z</time></trkpt><trkpt lat="38.9907317" lon="16.4727217"><ele>630.0</ele><time>2026-04-07T13:48:49.355Z</time></trkpt><trkpt lat="38.9908117" lon="16.4727967"><ele>631.6666666666666</ele><time>2026-04-07T13:48:50.355Z</time></trkpt><trkpt lat="38.9908967" lon="16.4728717"><ele>633.3333333333334</ele><time>2026-04-07T13:48:51.356Z</time></trkpt><trkpt lat="38.9909767" lon="16.4729417"><ele>635.0</ele><time>2026-04-07T13:48:52.355Z</time></trkpt><trkpt lat="38.9910517" lon="16.473015"><ele>636.6666666666667</ele><time>2026-04-07T13:48:53.355Z</time></trkpt><trkpt lat="38.9911167" lon="16.473085"><ele>638.3333333333334</ele><time>2026-04-07T13:48:54.355Z</time></trkpt><trkpt lat="38.9911633" lon="16.4731517"><ele>640.0</ele><time>2026-04-07T13:48:55.355Z</time></trkpt><trkpt lat="38.9912" lon="16.47322"><ele>640.0</ele><time>2026-04-07T13:48:56.356Z</time></trkpt><trkpt lat="38.991245" lon="16.4732983"><ele>640.0</ele><time>2026-04-07T13:48:57.355Z</time></trkpt><trkpt lat="38.9912983" lon="16.47337"><ele>640.0</ele><time>2026-04-07T13:48:58.356Z</time></trkpt><trkpt lat="38.9913583" lon="16.4734333"><ele>640.0</ele><time>2026-04-07T13:48:59.355Z</time></trkpt><trkpt lat="38.99142" lon="16.4734883"><ele>640.0</ele><time>2026-04-07T13:49:00.355Z</time></trkpt><trkpt lat="38.991485" lon="16.4735433"><ele>640.0</ele><time>2026-04-07T13:49:01.356Z</time></trkpt><trkpt lat="38.9915533" lon="16.4735867"><ele>640.0</ele><time>2026-04-07T13:49:02.355Z</time></trkpt><trkpt lat="38.991635" lon="16.4736317"><ele>640.0</ele><time>2026-04-07T13:49:03.355Z</time></trkpt><trkpt lat="38.9917117" lon="16.473685"><ele>640.0</ele><time>2026-04-07T13:49:04.355Z</time></trkpt><trkpt lat="38.9917767" lon="16.47374"><ele>640.0</ele><time>2026-04-07T13:49:05.356Z</time></trkpt><trkpt lat="38.991845" lon="16.473805"><ele>640.0</ele><time>2026-04-07T13:49:06.356Z</time></trkpt><trkpt lat="38.9919133" lon="16.47387"><ele>640.0</ele><time>2026-04-07T13:49:07.356Z</time></trkpt><trkpt lat="38.9919833" lon="16.4739333"><ele>640.5</ele><time>2026-04-07T13:49:08.355Z</time></trkpt><trkpt lat="38.9920617" lon="16.47399"><ele>641.0</ele><time>2026-04-07T13:49:09.356Z</time></trkpt><trkpt lat="38.9921517" lon="16.4740333"><ele>641.5</ele><time>2026-04-07T13:49:10.356Z</time></trkpt><trkpt lat="38.9922417" lon="16.4740717"><ele>642.0</ele><time>2026-04-07T13:49:11.355Z</time></trkpt><trkpt lat="38.9923117" lon="16.4740983"><ele>642.5</ele><time>2026-04-07T13:49:12.356Z</time></trkpt><trkpt lat="38.9923733" lon="16.4741233"><ele>643.0</ele><time>2026-04-07T13:49:13.355Z</time></trkpt><trkpt lat="38.99244" lon="16.4741733"><ele>643.0</ele><time>2026-04-07T13:49:15.355Z</time></trkpt><trkpt lat="38.9925" lon="16.4742517"><ele>643.0</ele><time>2026-04-07T13:49:17.356Z</time></trkpt><trkpt lat="38.992565" lon="16.4743567"><ele>643.0</ele><time>2026-04-07T13:49:19.355Z</time></trkpt><trkpt lat="38.992635" lon="16.4744783"><ele>643.0</ele><time>2026-04-07T13:49:21.356Z</time></trkpt><trkpt lat="38.9927033" lon="16.474605"><ele>643.0</ele><time>2026-04-07T13:49:23.355Z</time></trkpt><trkpt lat="38.9927617" lon="16.4747233"><ele>643.75</ele><time>2026-04-07T13:49:25.355Z</time></trkpt><trkpt lat="38.99282" lon="16.47483"><ele>644.5</ele><time>2026-04-07T13:49:27.355Z</time></trkpt><trkpt lat="38.9928783" lon="16.4749333"><ele>645.25</ele><time>2026-04-07T13:49:29.355Z</time></trkpt><trkpt lat="38.99295" lon="16.4750467"><ele>646.0</ele><time>2026-04-07T13:49:31.355Z</time></trkpt><trkpt lat="38.9930833" lon="16.4752167"><ele>646.0</ele><time>2026-04-07T13:49:34.356Z</time></trkpt><trkpt lat="38.9931667" lon="16.4752917"><ele>646.0</ele><time>2026-04-07T13:49:36.356Z</time></trkpt><trkpt lat="38.9932783" lon="16.47533"><ele>646.0</ele><time>2026-04-07T13:49:39.355Z</time></trkpt><trkpt lat="38.9933617" lon="16.4753233"><ele>646.0</ele><time>2026-04-07T13:49:41.356Z</time></trkpt><trkpt lat="38.993445" lon="16.4753167"><ele>646.0</ele><time>2026-04-07T13:49:43.355Z</time></trkpt><trkpt lat="38.993535" lon="16.4753333"><ele>645.1999999999999</ele><time>2026-04-07T13:49:46.355Z</time></trkpt><trkpt lat="38.9936133" lon="16.4753383"><ele>644.4</ele><time>2026-04-07T13:49:48.355Z</time></trkpt><trkpt lat="38.9937183" lon="16.4753417"><ele>643.6</ele><time>2026-04-07T13:49:50.355Z</time></trkpt><trkpt lat="38.9938317" lon="16.475365"><ele>642.8</ele><time>2026-04-07T13:49:53.355Z</time></trkpt><trkpt lat="38.9937683" lon="16.4753567"><ele>642.0</ele><time>2026-04-07T13:50:18.355Z</time></trkpt><trkpt lat="38.9936417" lon="16.47533"><ele>642.0</ele><time>2026-04-07T13:50:20.355Z</time></trkpt><trkpt lat="38.9935617" lon="16.4753183"><ele>642.0</ele><time>2026-04-07T13:50:21.355Z</time></trkpt><trkpt lat="38.99339" lon="16.4753033"><ele>642.0</ele><time>2026-04-07T13:50:23.356Z</time></trkpt><trkpt lat="38.9931533" lon="16.47527"><ele>643.0</ele><time>2026-04-07T13:50:26.356Z</time></trkpt><trkpt lat="38.9930867" lon="16.4752133"><ele>644.0</ele><time>2026-04-07T13:50:27.355Z</time></trkpt><trkpt lat="38.9929667" lon="16.47506"><ele>645.0</ele><time>2026-04-07T13:50:29.356Z</time></trkpt><trkpt lat="38.9929217" lon="16.474975"><ele>646.0</ele><time>2026-04-07T13:50:30.356Z</time></trkpt><trkpt lat="38.9928417" lon="16.47481"><ele>646.0</ele><time>2026-04-07T13:50:32.355Z</time></trkpt><trkpt lat="38.9927933" lon="16.4747333"><ele>646.0</ele><time>2026-04-07T13:50:33.356Z</time></trkpt><trkpt lat="38.9927467" lon="16.474645"><ele>646.0</ele><time>2026-04-07T13:50:34.355Z</time></trkpt><trkpt lat="38.9927017" lon="16.4745533"><ele>646.0</ele><time>2026-04-07T13:50:35.356Z</time></trkpt><trkpt lat="38.9926317" lon="16.4744733"><ele>646.0</ele><time>2026-04-07T13:50:36.356Z</time></trkpt><trkpt lat="38.9925783" lon="16.4743767"><ele>646.0</ele><time>2026-04-07T13:50:37.356Z</time></trkpt><trkpt lat="38.9925333" lon="16.47429"><ele>645.4</ele><time>2026-04-07T13:50:38.356Z</time></trkpt><trkpt lat="38.9924917" lon="16.4742233"><ele>644.8</ele><time>2026-04-07T13:50:39.355Z</time></trkpt><trkpt lat="38.99243" lon="16.4741167"><ele>644.1999999999999</ele><time>2026-04-07T13:50:42.356Z</time></trkpt><trkpt lat="38.9923933" lon="16.47405"><ele>643.5999999999999</ele><time>2026-04-07T13:50:44.356Z</time></trkpt><trkpt lat="38.992305" lon="16.4739317"><ele>643.0</ele><time>2026-04-07T13:50:47.355Z</time></trkpt><trkpt lat="38.992145" lon="16.4737417"><ele>640.8333333333334</ele><time>2026-04-07T13:50:52.356Z</time></trkpt><trkpt lat="38.992125" lon="16.47366"><ele>638.6666666666667</ele><time>2026-04-07T13:51:52.356Z</time></trkpt><trkpt lat="38.9920833" lon="16.473505"><ele>636.5</ele><time>2026-04-07T13:51:54.355Z</time></trkpt><trkpt lat="38.9920517" lon="16.473425"><ele>634.3333333333334</ele><time>2026-04-07T13:51:55.355Z</time></trkpt><trkpt lat="38.9920233" lon="16.47334"><ele>632.1666666666666</ele><time>2026-04-07T13:51:56.355Z</time></trkpt><trkpt lat="38.9919983" lon="16.4732483"><ele>630.0</ele><time>2026-04-07T13:51:57.355Z</time></trkpt><trkpt lat="38.9919783" lon="16.4731467"><ele>630.0</ele><time>2026-04-07T13:51:58.356Z</time></trkpt><trkpt lat="38.9919583" lon="16.4730617"><ele>630.0</ele><time>2026-04-07T13:51:59.356Z</time></trkpt><trkpt lat="38.9919433" lon="16.472975"><ele>630.0</ele><time>2026-04-07T13:52:00.355Z</time></trkpt><trkpt lat="38.9919217" lon="16.4728917"><ele>630.0</ele><time>2026-04-07T13:52:01.356Z</time></trkpt><trkpt lat="38.9918717" lon="16.4727383"><ele>630.0</ele><time>2026-04-07T13:52:03.356Z</time></trkpt><trkpt lat="38.9918467" lon="16.47266"><ele>630.0</ele><time>2026-04-07T13:52:04.356Z</time></trkpt><trkpt lat="38.99181" lon="16.4725783"><ele>630.2857142857143</ele><time>2026-04-07T13:52:05.355Z</time></trkpt><trkpt lat="38.9917783" lon="16.4724883"><ele>630.5714285714286</ele><time>2026-04-07T13:52:06.355Z</time></trkpt><trkpt lat="38.991745" lon="16.4724067"><ele>630.8571428571429</ele><time>2026-04-07T13:52:07.356Z</time></trkpt><trkpt lat="38.9917117" lon="16.4723333"><ele>631.1428571428571</ele><time>2026-04-07T13:52:08.356Z</time></trkpt><trkpt lat="38.9916783" lon="16.4722533"><ele>631.4285714285714</ele><time>2026-04-07T13:52:09.356Z</time></trkpt><trkpt lat="38.9916317" lon="16.472175"><ele>631.7142857142858</ele><time>2026-04-07T13:52:10.356Z</time></trkpt><trkpt lat="38.9915883" lon="16.472095"><ele>632.0</ele><time>2026-04-07T13:52:11.355Z</time></trkpt><trkpt lat="38.9915533" lon="16.4720217"><ele>632.0</ele><time>2026-04-07T13:52:12.355Z</time></trkpt><trkpt lat="38.9915" lon="16.4718717"><ele>632.0</ele><time>2026-04-07T13:52:14.356Z</time></trkpt><trkpt lat="38.99148" lon="16.4717267"><ele>632.0</ele><time>2026-04-07T13:52:16.355Z</time></trkpt><trkpt lat="38.99148" lon="16.4716417"><ele>632.0</ele><time>2026-04-07T13:52:17.355Z</time></trkpt><trkpt lat="38.99148" lon="16.47155"><ele>632.0</ele><time>2026-04-07T13:52:18.355Z</time></trkpt><trkpt lat="38.9914817" lon="16.4714433"><ele>632.0</ele><time>2026-04-07T13:52:19.355Z</time></trkpt><trkpt lat="38.991485" lon="16.4713417"><ele>632.0</ele><time>2026-04-07T13:52:20.355Z</time></trkpt><trkpt lat="38.9914917" lon="16.4712333"><ele>632.0</ele><time>2026-04-07T13:52:21.355Z</time></trkpt><trkpt lat="38.991505" lon="16.47112"><ele>632.0</ele><time>2026-04-07T13:52:22.356Z</time></trkpt><trkpt lat="38.9915217" lon="16.4709967"><ele>632.0</ele><time>2026-04-07T13:52:23.356Z</time></trkpt><trkpt lat="38.9915317" lon="16.4708617"><ele>631.3333333333333</ele><time>2026-04-07T13:52:24.355Z</time></trkpt><trkpt lat="38.9915483" lon="16.4707367"><ele>630.6666666666666</ele><time>2026-04-07T13:52:25.356Z</time></trkpt><trkpt lat="38.99157" lon="16.4706233"><ele>630.0</ele><time>2026-04-07T13:52:26.355Z</time></trkpt><trkpt lat="38.991595" lon="16.4705267"><ele>629.3333333333334</ele><time>2026-04-07T13:52:27.356Z</time></trkpt><trkpt lat="38.9916183" lon="16.4704467"><ele>628.6666666666667</ele><time>2026-04-07T13:52:28.355Z</time></trkpt><trkpt lat="38.9916617" lon="16.4703533"><ele>628.0</ele><time>2026-04-07T13:52:30.355Z</time></trkpt><trkpt lat="38.9917033" lon="16.4702467"><ele>627.5</ele><time>2026-04-07T13:52:33.355Z</time></trkpt><trkpt lat="38.9916967" lon="16.470165"><ele>627.0</ele><time>2026-04-07T13:52:35.355Z</time></trkpt><trkpt lat="38.9916633" lon="16.47007"><ele>626.5</ele><time>2026-04-07T13:52:37.355Z</time></trkpt><trkpt lat="38.99163" lon="16.4699667"><ele>626.0</ele><time>2026-04-07T13:52:39.356Z</time></trkpt><trkpt lat="38.9915983" lon="16.469845"><ele>625.5</ele><time>2026-04-07T13:52:41.356Z</time></trkpt><trkpt lat="38.9915717" lon="16.469735"><ele>625.0</ele><time>2026-04-07T13:52:43.356Z</time></trkpt><trkpt lat="38.991555" lon="16.4696383"><ele>623.0</ele><time>2026-04-07T13:52:45.356Z</time></trkpt><trkpt lat="38.991575" lon="16.4695417"><ele>621.0</ele><time>2026-04-07T13:52:47.355Z</time></trkpt><trkpt lat="38.9915917" lon="16.46943"><ele>619.0</ele><time>2026-04-07T13:52:49.355Z</time></trkpt><trkpt lat="38.9916017" lon="16.46935"><ele>617.0</ele><time>2026-04-07T13:52:50.355Z</time></trkpt><trkpt lat="38.9916033" lon="16.46926"><ele>615.0</ele><time>2026-04-07T13:52:51.355Z</time></trkpt><trkpt lat="38.9915967" lon="16.469175"><ele>613.0</ele><time>2026-04-07T13:52:52.356Z</time></trkpt><trkpt lat="38.99158" lon="16.4690667"><ele>613.0</ele><time>2026-04-07T13:52:54.355Z</time></trkpt><trkpt lat="38.9915583" lon="16.4689617"><ele>613.0</ele><time>2026-04-07T13:52:56.355Z</time></trkpt><trkpt lat="38.9915567" lon="16.468845"><ele>613.0</ele><time>2026-04-07T13:52:58.356Z</time></trkpt><trkpt lat="38.99158" lon="16.4687383"><ele>613.0</ele><time>2026-04-07T13:53:00.355Z</time></trkpt><trkpt lat="38.99161" lon="16.46863"><ele>613.0</ele><time>2026-04-07T13:53:02.356Z</time></trkpt><trkpt lat="38.9916283" lon="16.4685183"><ele>613.0</ele><time>2026-04-07T13:53:04.356Z</time></trkpt><trkpt lat="38.9916483" lon="16.4684033"><ele>611.4</ele><time>2026-04-07T13:53:06.355Z</time></trkpt><trkpt lat="38.9916533" lon="16.4682667"><ele>609.8</ele><time>2026-04-07T13:53:08.355Z</time></trkpt><trkpt lat="38.9916633" lon="16.4681267"><ele>608.2</ele><time>2026-04-07T13:53:10.355Z</time></trkpt><trkpt lat="38.9916717" lon="16.4679967"><ele>606.6</ele><time>2026-04-07T13:53:12.356Z</time></trkpt><trkpt lat="38.99169" lon="16.4678983"><ele>605.0</ele><time>2026-04-07T13:53:14.355Z</time></trkpt><trkpt lat="38.99168" lon="16.4678083"><ele>603.4</ele><time>2026-04-07T13:53:17.355Z</time></trkpt><trkpt lat="38.9916767" lon="16.4677017"><ele>601.8</ele><time>2026-04-07T13:53:19.356Z</time></trkpt><trkpt lat="38.9916783" lon="16.4675917"><ele>600.2</ele><time>2026-04-07T13:53:21.356Z</time></trkpt><trkpt lat="38.991665" lon="16.4674717"><ele>598.6</ele><time>2026-04-07T13:53:23.355Z</time></trkpt><trkpt lat="38.99164" lon="16.4673483"><ele>597.0</ele><time>2026-04-07T13:53:25.355Z</time></trkpt><trkpt lat="38.9916117" lon="16.4672217"><ele>592.8333333333334</ele><time>2026-04-07T13:53:27.356Z</time></trkpt><trkpt lat="38.9915767" lon="16.4670867"><ele>588.6666666666666</ele><time>2026-04-07T13:53:29.356Z</time></trkpt><trkpt lat="38.99155" lon="16.4669783"><ele>584.5</ele><time>2026-04-07T13:53:31.356Z</time></trkpt><trkpt lat="38.991545" lon="16.4668833"><ele>580.3333333333333</ele><time>2026-04-07T13:53:33.356Z</time></trkpt><trkpt lat="38.991535" lon="16.46679"><ele>576.1666666666666</ele><time>2026-04-07T13:53:36.355Z</time></trkpt><trkpt lat="38.9915667" lon="16.4668967"><ele>572.0</ele><time>2026-04-07T13:54:07.355Z</time></trkpt><trkpt lat="38.99159" lon="16.4670167"><ele>567.4</ele><time>2026-04-07T13:54:09.356Z</time></trkpt><trkpt lat="38.9916183" lon="16.4671533"><ele>562.8000000000001</ele><time>2026-04-07T13:54:11.356Z</time></trkpt><trkpt lat="38.9916383" lon="16.4672883"><ele>558.2</ele><time>2026-04-07T13:54:13.355Z</time></trkpt><trkpt lat="38.9916533" lon="16.4674283"><ele>553.6</ele><time>2026-04-07T13:54:15.355Z</time></trkpt><trkpt lat="38.99167" lon="16.4675783"><ele>549.0</ele><time>2026-04-07T13:54:17.355Z</time></trkpt><trkpt lat="38.9916983" lon="16.4677133"><ele>549.0</ele><time>2026-04-07T13:54:19.356Z</time></trkpt><trkpt lat="38.99171" lon="16.467855"><ele>549.0</ele><time>2026-04-07T13:54:21.355Z</time></trkpt><trkpt lat="38.991695" lon="16.4679917"><ele>549.0</ele><time>2026-04-07T13:54:23.355Z</time></trkpt><trkpt lat="38.99167" lon="16.4681333"><ele>549.0</ele><time>2026-04-07T13:54:25.356Z</time></trkpt><trkpt lat="38.9916533" lon="16.4682767"><ele>549.0</ele><time>2026-04-07T13:54:27.356Z</time></trkpt><trkpt lat="38.991625" lon="16.4684167"><ele>558.3333333333334</ele><time>2026-04-07T13:54:29.355Z</time></trkpt><trkpt lat="38.9916033" lon="16.468495"><ele>567.6666666666666</ele><time>2026-04-07T13:54:30.355Z</time></trkpt><trkpt lat="38.9915467" lon="16.4686367"><ele>577.0</ele><time>2026-04-07T13:54:32.355Z</time></trkpt><trkpt lat="38.9915233" lon="16.4687217"><ele>586.3333333333333</ele><time>2026-04-07T13:54:33.355Z</time></trkpt><trkpt lat="38.9915133" lon="16.4688033"><ele>595.6666666666666</ele><time>2026-04-07T13:54:34.356Z</time></trkpt><trkpt lat="38.99151" lon="16.4688933"><ele>605.0</ele><time>2026-04-07T13:54:35.355Z</time></trkpt><trkpt lat="38.9915133" lon="16.4689867"><ele>606.3333333333333</ele><time>2026-04-07T13:54:36.355Z</time></trkpt><trkpt lat="38.99152" lon="16.469085"><ele>607.6666666666666</ele><time>2026-04-07T13:54:37.356Z</time></trkpt><trkpt lat="38.9915233" lon="16.469185"><ele>609.0</ele><time>2026-04-07T13:54:38.356Z</time></trkpt><trkpt lat="38.991535" lon="16.4692933"><ele>610.3333333333334</ele><time>2026-04-07T13:54:39.356Z</time></trkpt><trkpt lat="38.9915383" lon="16.4693967"><ele>611.6666666666667</ele><time>2026-04-07T13:54:40.355Z</time></trkpt><trkpt lat="38.9915367" lon="16.4694933"><ele>613.0</ele><time>2026-04-07T13:54:41.355Z</time></trkpt><trkpt lat="38.991525" lon="16.4695817"><ele>615.0</ele><time>2026-04-07T13:54:42.355Z</time></trkpt><trkpt lat="38.9915167" lon="16.4696733"><ele>617.0</ele><time>2026-04-07T13:54:43.355Z</time></trkpt><trkpt lat="38.9915367" lon="16.4698183"><ele>619.0</ele><time>2026-04-07T13:54:45.355Z</time></trkpt><trkpt lat="38.9915683" lon="16.4699667"><ele>621.0</ele><time>2026-04-07T13:54:47.356Z</time></trkpt><trkpt lat="38.99159" lon="16.4700467"><ele>623.0</ele><time>2026-04-07T13:54:48.355Z</time></trkpt><trkpt lat="38.9916017" lon="16.470135"><ele>625.0</ele><time>2026-04-07T13:54:49.355Z</time></trkpt><trkpt lat="38.99161" lon="16.4702233"><ele>625.0</ele><time>2026-04-07T13:54:50.355Z</time></trkpt><trkpt lat="38.9915867" lon="16.4703617"><ele>625.0</ele><time>2026-04-07T13:54:52.356Z</time></trkpt><trkpt lat="38.99156" lon="16.4704367"><ele>625.0</ele><time>2026-04-07T13:54:53.355Z</time></trkpt><trkpt lat="38.991525" lon="16.4705117"><ele>625.0</ele><time>2026-04-07T13:54:54.355Z</time></trkpt><trkpt lat="38.9914933" lon="16.47061"><ele>625.0</ele><time>2026-04-07T13:54:55.356Z</time></trkpt><trkpt lat="38.9914667" lon="16.4707133"><ele>625.0</ele><time>2026-04-07T13:54:56.356Z</time></trkpt><trkpt lat="38.9914533" lon="16.4708233"><ele>625.6</ele><time>2026-04-07T13:54:57.355Z</time></trkpt><trkpt lat="38.9914367" lon="16.4709483"><ele>626.2</ele><time>2026-04-07T13:54:58.355Z</time></trkpt><trkpt lat="38.991425" lon="16.4710967"><ele>626.8</ele><time>2026-04-07T13:54:59.355Z</time></trkpt><trkpt lat="38.9914267" lon="16.47125"><ele>627.4</ele><time>2026-04-07T13:55:00.355Z</time></trkpt><trkpt lat="38.9914183" lon="16.47139"><ele>628.0</ele><time>2026-04-07T13:55:01.355Z</time></trkpt><trkpt lat="38.9914167" lon="16.47153"><ele>628.8</ele><time>2026-04-07T13:55:02.356Z</time></trkpt><trkpt lat="38.99143" lon="16.4716583"><ele>629.5999999999999</ele><time>2026-04-07T13:55:03.356Z</time></trkpt><trkpt lat="38.9914567" lon="16.47179"><ele>630.4000000000001</ele><time>2026-04-07T13:55:04.355Z</time></trkpt><trkpt lat="38.9914933" lon="16.4719133"><ele>631.2</ele><time>2026-04-07T13:55:05.355Z</time></trkpt><trkpt lat="38.991535" lon="16.4720133"><ele>632.0</ele><time>2026-04-07T13:55:06.356Z</time></trkpt><trkpt lat="38.9915817" lon="16.4721217"><ele>634.4000000000001</ele><time>2026-04-07T13:55:07.356Z</time></trkpt><trkpt lat="38.9916333" lon="16.4722483"><ele>636.8000000000001</ele><time>2026-04-07T13:55:08.355Z</time></trkpt><trkpt lat="38.9916783" lon="16.4723667"><ele>639.2</ele><time>2026-04-07T13:55:09.356Z</time></trkpt><trkpt lat="38.9917267" lon="16.4724883"><ele>641.6</ele><time>2026-04-07T13:55:10.355Z</time></trkpt><trkpt lat="38.9917633" lon="16.4726"><ele>644.0</ele><time>2026-04-07T13:55:11.355Z</time></trkpt><trkpt lat="38.9917867" lon="16.47269"><ele>641.6666666666666</ele><time>2026-04-07T13:55:12.354Z</time></trkpt><trkpt lat="38.991825" lon="16.4727717"><ele>639.3333333333333</ele><time>2026-04-07T13:55:13.355Z</time></trkpt><trkpt lat="38.9918383" lon="16.472855"><ele>637.0</ele><time>2026-04-07T13:55:14.355Z</time></trkpt><trkpt lat="38.99187" lon="16.47294"><ele>634.6666666666666</ele><time>2026-04-07T13:55:15.354Z</time></trkpt><trkpt lat="38.9918967" lon="16.47303"><ele>632.3333333333334</ele><time>2026-04-07T13:55:16.355Z</time></trkpt><trkpt lat="38.9919217" lon="16.4731283"><ele>630.0</ele><time>2026-04-07T13:55:17.354Z</time></trkpt><trkpt lat="38.9919483" lon="16.4732367"><ele>630.0</ele><time>2026-04-07T13:55:18.354Z</time></trkpt><trkpt lat="38.9919833" lon="16.4733533"><ele>630.0</ele><time>2026-04-07T13:55:19.355Z</time></trkpt><trkpt lat="38.9920167" lon="16.47345"><ele>630.0</ele><time>2026-04-07T13:55:20.354Z</time></trkpt><trkpt lat="38.992045" lon="16.4735367"><ele>630.0</ele><time>2026-04-07T13:55:21.355Z</time></trkpt><trkpt lat="38.99208" lon="16.473615"><ele>630.0</ele><time>2026-04-07T13:55:22.355Z</time></trkpt><trkpt lat="38.99215" lon="16.4737483"><ele>630.0</ele><time>2026-04-07T13:55:24.355Z</time></trkpt><trkpt lat="38.9922517" lon="16.473865"><ele>629.0</ele><time>2026-04-07T13:55:26.354Z</time></trkpt><trkpt lat="38.9923167" lon="16.47394"><ele>628.0</ele><time>2026-04-07T13:55:27.355Z</time></trkpt><trkpt lat="38.9923833" lon="16.47403"><ele>627.0</ele><time>2026-04-07T13:55:28.354Z</time></trkpt><trkpt lat="38.992435" lon="16.47413"><ele>626.0</ele><time>2026-04-07T13:55:29.355Z</time></trkpt><trkpt lat="38.99249" lon="16.47424"><ele>625.0</ele><time>2026-04-07T13:55:30.354Z</time></trkpt><trkpt lat="38.992555" lon="16.47435"><ele>625.0</ele><time>2026-04-07T13:55:31.355Z</time></trkpt><trkpt lat="38.9926333" lon="16.4744717"><ele>625.0</ele><time>2026-04-07T13:55:32.355Z</time></trkpt><trkpt lat="38.9927033" lon="16.4745883"><ele>625.0</ele><time>2026-04-07T13:55:33.354Z</time></trkpt><trkpt lat="38.99278" lon="16.474705"><ele>625.0</ele><time>2026-04-07T13:55:34.355Z</time></trkpt><trkpt lat="38.9928333" lon="16.4748167"><ele>629.2</ele><time>2026-04-07T13:55:35.355Z</time></trkpt><trkpt lat="38.99288" lon="16.4749233"><ele>633.4</ele><time>2026-04-07T13:55:36.354Z</time></trkpt><trkpt lat="38.9929467" lon="16.4750367"><ele>637.5999999999999</ele><time>2026-04-07T13:55:37.354Z</time></trkpt><trkpt lat="38.9930183" lon="16.4751417"><ele>641.8</ele><time>2026-04-07T13:55:38.354Z</time></trkpt><trkpt lat="38.9930917" lon="16.4752283"><ele>646.0</ele><time>2026-04-07T13:55:39.354Z</time></trkpt><trkpt lat="38.99316" lon="16.47529"><ele>646.0</ele><time>2026-04-07T13:55:40.354Z</time></trkpt><trkpt lat="38.9932317" lon="16.4753283"><ele>646.0</ele><time>2026-04-07T13:55:41.355Z</time></trkpt><trkpt lat="38.99331" lon="16.475345"><ele>646.0</ele><time>2026-04-07T13:55:42.355Z</time></trkpt><trkpt lat="38.9934133" lon="16.4753483"><ele>646.0</ele><time>2026-04-07T13:55:43.355Z</time></trkpt><trkpt lat="38.9935217" lon="16.475345"><ele>646.0</ele><time>2026-04-07T13:55:44.354Z</time></trkpt><trkpt lat="38.99363" lon="16.475345"><ele>645.1999999999999</ele><time>2026-04-07T13:55:45.354Z</time></trkpt><trkpt lat="38.9937433" lon="16.4753483"><ele>644.4</ele><time>2026-04-07T13:55:46.355Z</time></trkpt><trkpt lat="38.9938517" lon="16.4753583"><ele>643.6</ele><time>2026-04-07T13:55:47.354Z</time></trkpt><trkpt lat="38.99395" lon="16.4753633"><ele>642.8</ele><time>2026-04-07T13:55:48.354Z</time></trkpt><trkpt lat="38.9940367" lon="16.47536"><ele>642.0</ele><time>2026-04-07T13:55:49.355Z</time></trkpt><trkpt lat="38.9941333" lon="16.4753517"><ele>643.4000000000001</ele><time>2026-04-07T13:55:50.354Z</time></trkpt><trkpt lat="38.99423" lon="16.475335"><ele>644.8000000000001</ele><time>2026-04-07T13:55:51.354Z</time></trkpt><trkpt lat="38.9943383" lon="16.4753183"><ele>646.2</ele><time>2026-04-07T13:55:52.355Z</time></trkpt><trkpt lat="38.9944467" lon="16.4753067"><ele>647.6</ele><time>2026-04-07T13:55:53.355Z</time></trkpt><trkpt lat="38.99455" lon="16.4752883"><ele>649.0</ele><time>2026-04-07T13:55:54.354Z</time></trkpt><trkpt lat="38.9946483" lon="16.4752633"><ele>649.0</ele><time>2026-04-07T13:55:55.354Z</time></trkpt><trkpt lat="38.9947533" lon="16.4752317"><ele>649.0</ele><time>2026-04-07T13:55:56.354Z</time></trkpt><trkpt lat="38.99484" lon="16.4752067"><ele>649.0</ele><time>2026-04-07T13:55:57.355Z</time></trkpt><trkpt lat="38.9949283" lon="16.47518"><ele>649.0</ele><time>2026-04-07T13:55:58.355Z</time></trkpt><trkpt lat="38.9950217" lon="16.47515"><ele>649.0</ele><time>2026-04-07T13:55:59.354Z</time></trkpt><trkpt lat="38.9951167" lon="16.475125"><ele>650.4000000000001</ele><time>2026-04-07T13:56:00.355Z</time></trkpt><trkpt lat="38.9952117" lon="16.47511"><ele>651.8</ele><time>2026-04-07T13:56:01.354Z</time></trkpt><trkpt lat="38.9953167" lon="16.4751233"><ele>653.2</ele><time>2026-04-07T13:56:02.355Z</time></trkpt><trkpt lat="38.9954083" lon="16.4751583"><ele>654.5999999999999</ele><time>2026-04-07T13:56:03.354Z</time></trkpt><trkpt lat="38.9955" lon="16.475195"><ele>656.0</ele><time>2026-04-07T13:56:04.354Z</time></trkpt><trkpt lat="38.9956017" lon="16.4752233"><ele>656.0</ele><time>2026-04-07T13:56:05.354Z</time></trkpt><trkpt lat="38.9957067" lon="16.475255"><ele>656.0</ele><time>2026-04-07T13:56:06.354Z</time></trkpt><trkpt lat="38.9958" lon="16.47529"><ele>656.0</ele><time>2026-04-07T13:56:07.354Z</time></trkpt><trkpt lat="38.99589" lon="16.475335"><ele>656.0</ele><time>2026-04-07T13:56:08.354Z</time></trkpt><trkpt lat="38.9959667" lon="16.4753717"><ele>656.0</ele><time>2026-04-07T13:56:09.355Z</time></trkpt><trkpt lat="38.9960417" lon="16.4753767"><ele>659.0</ele><time>2026-04-07T13:56:10.355Z</time></trkpt><trkpt lat="38.9961117" lon="16.47535"><ele>662.0</ele><time>2026-04-07T13:56:11.355Z</time></trkpt><trkpt lat="38.9961917" lon="16.4752867"><ele>665.0</ele><time>2026-04-07T13:56:12.354Z</time></trkpt><trkpt lat="38.996255" lon="16.4751767"><ele>668.0</ele><time>2026-04-07T13:56:13.355Z</time></trkpt><trkpt lat="38.9962967" lon="16.475045"><ele>671.0</ele><time>2026-04-07T13:56:14.355Z</time></trkpt><trkpt lat="38.9963417" lon="16.474905"><ele>671.0</ele><time>2026-04-07T13:56:15.355Z</time></trkpt><trkpt lat="38.9963833" lon="16.4747817"><ele>671.0</ele><time>2026-04-07T13:56:16.354Z</time></trkpt><trkpt lat="38.9964267" lon="16.4746833"><ele>671.0</ele><time>2026-04-07T13:56:17.355Z</time></trkpt><trkpt lat="38.99647" lon="16.4746083"><ele>671.0</ele><time>2026-04-07T13:56:18.354Z</time></trkpt><trkpt lat="38.99653" lon="16.4745583"><ele>671.0</ele><time>2026-04-07T13:56:19.355Z</time></trkpt><trkpt lat="38.9965967" lon="16.474535"><ele>671.0</ele><time>2026-04-07T13:56:20.355Z</time></trkpt><trkpt lat="38.9966617" lon="16.4745233"><ele>668.3333333333333</ele><time>2026-04-07T13:56:21.354Z</time></trkpt><trkpt lat="38.9967333" lon="16.4745317"><ele>665.6666666666666</ele><time>2026-04-07T13:56:22.354Z</time></trkpt><trkpt lat="38.9968" lon="16.4745483"><ele>663.0</ele><time>2026-04-07T13:56:23.355Z</time></trkpt><trkpt lat="38.9969033" lon="16.4745833"><ele>660.3333333333334</ele><time>2026-04-07T13:56:25.355Z</time></trkpt><trkpt lat="38.9969783" lon="16.4746317"><ele>657.6666666666667</ele><time>2026-04-07T13:56:27.355Z</time></trkpt><trkpt lat="38.997035" lon="16.4746833"><ele>655.0</ele><time>2026-04-07T13:56:32.355Z</time></trkpt><trkpt lat="38.9970867" lon="16.4747533"><ele>655.0</ele><time>2026-04-07T13:56:35.354Z</time></trkpt><trkpt lat="38.99715" lon="16.4748283"><ele>655.0</ele><time>2026-04-07T13:57:42.354Z</time></trkpt><trkpt lat="38.997205" lon="16.4749367"><ele>655.0</ele><time>2026-04-07T13:57:44.354Z</time></trkpt><trkpt lat="38.9972433" lon="16.4750017"><ele>655.0</ele><time>2026-04-07T13:57:45.354Z</time></trkpt><trkpt lat="38.997325" lon="16.4751383"><ele>655.0</ele><time>2026-04-07T13:57:47.354Z</time></trkpt><trkpt lat="38.997375" lon="16.4752067"><ele>655.0</ele><time>2026-04-07T13:57:48.355Z</time></trkpt><trkpt lat="38.9974317" lon="16.4752617"><ele>655.0</ele><time>2026-04-07T13:57:49.355Z</time></trkpt><trkpt lat="38.9974883" lon="16.4753067"><ele>655.0</ele><time>2026-04-07T13:57:50.354Z</time></trkpt><trkpt lat="38.9975633" lon="16.47535"><ele>655.0</ele><time>2026-04-07T13:57:51.354Z</time></trkpt><trkpt lat="38.99765" lon="16.4753833"><ele>655.0</ele><time>2026-04-07T13:57:52.354Z</time></trkpt><trkpt lat="38.997745" lon="16.47542"><ele>655.0</ele><time>2026-04-07T13:57:53.355Z</time></trkpt><trkpt lat="38.9978367" lon="16.47546"><ele>656.6666666666667</ele><time>2026-04-07T13:57:54.355Z</time></trkpt><trkpt lat="38.99792" lon="16.4755017"><ele>658.3333333333334</ele><time>2026-04-07T13:57:55.354Z</time></trkpt><trkpt lat="38.9979967" lon="16.4755433"><ele>660.0</ele><time>2026-04-07T13:57:56.355Z</time></trkpt><trkpt lat="38.9980717" lon="16.4755833"><ele>661.6666666666666</ele><time>2026-04-07T13:57:57.354Z</time></trkpt><trkpt lat="38.998135" lon="16.4756183"><ele>663.3333333333333</ele><time>2026-04-07T13:57:58.354Z</time></trkpt><trkpt lat="38.9981933" lon="16.4756567"><ele>665.0</ele><time>2026-04-07T13:57:59.355Z</time></trkpt><trkpt lat="38.9982817" lon="16.475725"><ele>664.2</ele><time>2026-04-07T13:58:01.354Z</time></trkpt><trkpt lat="38.9983617" lon="16.4757767"><ele>663.4</ele><time>2026-04-07T13:58:03.355Z</time></trkpt><trkpt lat="38.9984533" lon="16.47585"><ele>662.5999999999999</ele><time>2026-04-07T13:58:05.354Z</time></trkpt><trkpt lat="38.9985683" lon="16.475925"><ele>661.8</ele><time>2026-04-07T13:58:07.355Z</time></trkpt><trkpt lat="38.998625" lon="16.4759617"><ele>661.0</ele><time>2026-04-07T13:58:08.354Z</time></trkpt><trkpt lat="38.998695" lon="16.475995"><ele>661.0</ele><time>2026-04-07T13:58:09.354Z</time></trkpt><trkpt lat="38.99877" lon="16.476015"><ele>661.0</ele><time>2026-04-07T13:58:10.354Z</time></trkpt><trkpt lat="38.99886" lon="16.4760183"><ele>661.0</ele><time>2026-04-07T13:58:11.355Z</time></trkpt><trkpt lat="38.998935" lon="16.476015"><ele>661.0</ele><time>2026-04-07T13:58:12.354Z</time></trkpt><trkpt lat="38.9990167" lon="16.4760017"><ele>661.0</ele><time>2026-04-07T13:58:13.355Z</time></trkpt><trkpt lat="38.9991" lon="16.475985"><ele>661.0</ele><time>2026-04-07T13:58:14.354Z</time></trkpt><trkpt lat="38.9991717" lon="16.47597"><ele>663.1428571428571</ele><time>2026-04-07T13:58:15.355Z</time></trkpt><trkpt lat="38.999235" lon="16.4759583"><ele>665.2857142857143</ele><time>2026-04-07T13:58:16.354Z</time></trkpt><trkpt lat="38.9993" lon="16.4759433"><ele>667.4285714285714</ele><time>2026-04-07T13:58:17.354Z</time></trkpt><trkpt lat="38.9993683" lon="16.4759317"><ele>669.5714285714286</ele><time>2026-04-07T13:58:18.355Z</time></trkpt><trkpt lat="38.99944" lon="16.4759183"><ele>671.7142857142857</ele><time>2026-04-07T13:58:19.355Z</time></trkpt><trkpt lat="38.9995217" lon="16.4759017"><ele>673.8571428571429</ele><time>2026-04-07T13:58:20.354Z</time></trkpt><trkpt lat="38.999615" lon="16.47588"><ele>676.0</ele><time>2026-04-07T13:58:21.354Z</time></trkpt><trkpt lat="38.9997167" lon="16.475855"><ele>676.0</ele><time>2026-04-07T13:58:22.355Z</time></trkpt><trkpt lat="38.9998133" lon="16.4758267"><ele>676.0</ele><time>2026-04-07T13:58:23.354Z</time></trkpt><trkpt lat="38.9999167" lon="16.4757983"><ele>676.0</ele><time>2026-04-07T13:58:24.354Z</time></trkpt><trkpt lat="39.00002" lon="16.4757733"><ele>676.0</ele><time>2026-04-07T13:58:25.354Z</time></trkpt><trkpt lat="39.0001117" lon="16.47574"><ele>676.0</ele><time>2026-04-07T13:58:26.354Z</time></trkpt><trkpt lat="39.0002033" lon="16.47566"><ele>676.0</ele><time>2026-04-07T13:58:27.354Z</time></trkpt><trkpt lat="39.000285" lon="16.47555"><ele>676.0</ele><time>2026-04-07T13:58:28.355Z</time></trkpt><trkpt lat="39.000355" lon="16.4754333"><ele>676.0</ele><time>2026-04-07T13:58:29.354Z</time></trkpt><trkpt lat="39.0004233" lon="16.4753183"><ele>676.0</ele><time>2026-04-07T13:58:30.355Z</time></trkpt><trkpt lat="39.0004983" lon="16.4752267"><ele>676.0</ele><time>2026-04-07T13:58:31.355Z</time></trkpt><trkpt lat="39.00058" lon="16.4751417"><ele>676.4</ele><time>2026-04-07T13:58:32.354Z</time></trkpt><trkpt lat="39.0006583" lon="16.4750767"><ele>676.8</ele><time>2026-04-07T13:58:33.355Z</time></trkpt><trkpt lat="39.00074" lon="16.4750283"><ele>677.1999999999999</ele><time>2026-04-07T13:58:34.354Z</time></trkpt><trkpt lat="39.000825" lon="16.4749883"><ele>677.5999999999999</ele><time>2026-04-07T13:58:35.355Z</time></trkpt><trkpt lat="39.0009083" lon="16.4749517"><ele>678.0</ele><time>2026-04-07T13:58:36.355Z</time></trkpt><trkpt lat="39.0009883" lon="16.4748933"><ele>678.0</ele><time>2026-04-07T13:58:37.354Z</time></trkpt><trkpt lat="39.0010417" lon="16.4748117"><ele>678.0</ele><time>2026-04-07T13:58:38.354Z</time></trkpt><trkpt lat="39.0010883" lon="16.4746967"><ele>678.0</ele><time>2026-04-07T13:58:39.354Z</time></trkpt><trkpt lat="39.0011333" lon="16.47456"><ele>678.0</ele><time>2026-04-07T13:58:40.355Z</time></trkpt><trkpt lat="39.0011717" lon="16.474425"><ele>678.0</ele><time>2026-04-07T13:58:41.355Z</time></trkpt><trkpt lat="39.001215" lon="16.4743"><ele>674.5999999999999</ele><time>2026-04-07T13:58:42.354Z</time></trkpt><trkpt lat="39.0012683" lon="16.474175"><ele>671.1999999999999</ele><time>2026-04-07T13:58:43.354Z</time></trkpt><trkpt lat="39.0013333" lon="16.4740583"><ele>667.8</ele><time>2026-04-07T13:58:44.354Z</time></trkpt><trkpt lat="39.0014" lon="16.4739533"><ele>664.4</ele><time>2026-04-07T13:58:45.354Z</time></trkpt><trkpt lat="39.0014867" lon="16.4738533"><ele>661.0</ele><time>2026-04-07T13:58:46.355Z</time></trkpt><trkpt lat="39.0015533" lon="16.47376"><ele>663.8</ele><time>2026-04-07T13:58:47.354Z</time></trkpt><trkpt lat="39.0016183" lon="16.47367"><ele>666.5999999999999</ele><time>2026-04-07T13:58:48.354Z</time></trkpt><trkpt lat="39.0016917" lon="16.4735883"><ele>669.4</ele><time>2026-04-07T13:58:49.354Z</time></trkpt><trkpt lat="39.001775" lon="16.47351"><ele>672.2</ele><time>2026-04-07T13:58:50.355Z</time></trkpt><trkpt lat="39.0018617" lon="16.4734183"><ele>675.0</ele><time>2026-04-07T13:58:51.355Z</time></trkpt><trkpt lat="39.0019483" lon="16.4733183"><ele>675.0</ele><time>2026-04-07T13:58:52.354Z</time></trkpt><trkpt lat="39.0020317" lon="16.4732067"><ele>675.0</ele><time>2026-04-07T13:58:53.354Z</time></trkpt><trkpt lat="39.0021133" lon="16.4730817"><ele>675.0</ele><time>2026-04-07T13:58:54.354Z</time></trkpt><trkpt lat="39.0021917" lon="16.4729667"><ele>675.0</ele><time>2026-04-07T13:58:55.354Z</time></trkpt><trkpt lat="39.0022583" lon="16.4728483"><ele>671.8</ele><time>2026-04-07T13:58:56.354Z</time></trkpt><trkpt lat="39.0023133" lon="16.472725"><ele>668.6</ele><time>2026-04-07T13:58:57.354Z</time></trkpt><trkpt lat="39.0023533" lon="16.472595"><ele>665.4000000000001</ele><time>2026-04-07T13:58:58.355Z</time></trkpt><trkpt lat="39.00237" lon="16.4724683"><ele>662.2</ele><time>2026-04-07T13:58:59.355Z</time></trkpt><trkpt lat="39.00238" lon="16.4723483"><ele>659.0</ele><time>2026-04-07T13:59:00.354Z</time></trkpt><trkpt lat="39.00239" lon="16.4722167"><ele>656.8000000000001</ele><time>2026-04-07T13:59:01.355Z</time></trkpt><trkpt lat="39.002405" lon="16.47209"><ele>654.6</ele><time>2026-04-07T13:59:02.354Z</time></trkpt><trkpt lat="39.0024233" lon="16.47197"><ele>652.4</ele><time>2026-04-07T13:59:03.355Z</time></trkpt><trkpt lat="39.0024533" lon="16.47185"><ele>650.2</ele><time>2026-04-07T13:59:04.354Z</time></trkpt><trkpt lat="39.0024833" lon="16.4717383"><ele>648.0</ele><time>2026-04-07T13:59:05.355Z</time></trkpt><trkpt lat="39.0025233" lon="16.47163"><ele>654.4</ele><time>2026-04-07T13:59:06.355Z</time></trkpt><trkpt lat="39.002575" lon="16.4715217"><ele>660.8</ele><time>2026-04-07T13:59:07.355Z</time></trkpt><trkpt lat="39.0026333" lon="16.471425"><ele>667.2</ele><time>2026-04-07T13:59:08.354Z</time></trkpt><trkpt lat="39.00269" lon="16.4713267"><ele>673.6</ele><time>2026-04-07T13:59:09.355Z</time></trkpt><trkpt lat="39.002725" lon="16.4712083"><ele>680.0</ele><time>2026-04-07T13:59:10.354Z</time></trkpt><trkpt lat="39.0027383" lon="16.4710733"><ele>680.0</ele><time>2026-04-07T13:59:11.354Z</time></trkpt><trkpt lat="39.0027433" lon="16.4709233"><ele>680.0</ele><time>2026-04-07T13:59:12.355Z</time></trkpt><trkpt lat="39.0027533" lon="16.47078"><ele>680.0</ele><time>2026-04-07T13:59:13.355Z</time></trkpt><trkpt lat="39.0027683" lon="16.470655"><ele>680.0</ele><time>2026-04-07T13:59:14.355Z</time></trkpt><trkpt lat="39.0028117" lon="16.4705383"><ele>680.0</ele><time>2026-04-07T13:59:15.354Z</time></trkpt><trkpt lat="39.00287" lon="16.47044"><ele>679.6666666666666</ele><time>2026-04-07T13:59:16.355Z</time></trkpt><trkpt lat="39.002935" lon="16.4703683"><ele>679.3333333333333</ele><time>2026-04-07T13:59:17.354Z</time></trkpt><trkpt lat="39.0030083" lon="16.470315"><ele>679.0</ele><time>2026-04-07T13:59:18.354Z</time></trkpt><trkpt lat="39.0030717" lon="16.4702467"><ele>678.6666666666666</ele><time>2026-04-07T13:59:19.355Z</time></trkpt><trkpt lat="39.003105" lon="16.470175"><ele>678.3333333333334</ele><time>2026-04-07T13:59:20.355Z</time></trkpt><trkpt lat="39.0031083" lon="16.470035"><ele>678.0</ele><time>2026-04-07T13:59:22.354Z</time></trkpt><trkpt lat="39.0030817" lon="16.4699467"><ele>678.0</ele><time>2026-04-07T13:59:23.354Z</time></trkpt><trkpt lat="39.0030467" lon="16.4698467"><ele>678.0</ele><time>2026-04-07T13:59:24.355Z</time></trkpt><trkpt lat="39.003015" lon="16.4697333"><ele>678.0</ele><time>2026-04-07T13:59:25.355Z</time></trkpt><trkpt lat="39.0029867" lon="16.469635"><ele>678.0</ele><time>2026-04-07T13:59:26.355Z</time></trkpt><trkpt lat="39.0029567" lon="16.46954"><ele>678.0</ele><time>2026-04-07T13:59:27.355Z</time></trkpt><trkpt lat="39.00295" lon="16.4694467"><ele>678.0</ele><time>2026-04-07T13:59:28.354Z</time></trkpt><trkpt lat="39.00296" lon="16.4693617"><ele>678.3333333333334</ele><time>2026-04-07T13:59:29.354Z</time></trkpt><trkpt lat="39.00298" lon="16.469265"><ele>678.6666666666666</ele><time>2026-04-07T13:59:30.355Z</time></trkpt><trkpt lat="39.0030017" lon="16.46916"><ele>679.0</ele><time>2026-04-07T13:59:31.354Z</time></trkpt><trkpt lat="39.00302" lon="16.4690517"><ele>679.3333333333333</ele><time>2026-04-07T13:59:32.354Z</time></trkpt><trkpt lat="39.0030183" lon="16.4689417"><ele>679.6666666666666</ele><time>2026-04-07T13:59:33.354Z</time></trkpt><trkpt lat="39.002995" lon="16.4688433"><ele>680.0</ele><time>2026-04-07T13:59:34.354Z</time></trkpt><trkpt lat="39.002955" lon="16.46876"><ele>683.0</ele><time>2026-04-07T13:59:35.354Z</time></trkpt><trkpt lat="39.0028783" lon="16.4686467"><ele>686.0</ele><time>2026-04-07T13:59:37.355Z</time></trkpt><trkpt lat="39.0028283" lon="16.46852"><ele>689.0</ele><time>2026-04-07T13:59:39.354Z</time></trkpt><trkpt lat="39.0028033" lon="16.468445"><ele>692.0</ele><time>2026-04-07T13:59:40.354Z</time></trkpt><trkpt lat="39.0027767" lon="16.46837"><ele>695.0</ele><time>2026-04-07T13:59:41.354Z</time></trkpt><trkpt lat="39.0027517" lon="16.4682883"><ele>698.0</ele><time>2026-04-07T13:59:42.355Z</time></trkpt><trkpt lat="39.00272" lon="16.4682083"><ele>698.0</ele><time>2026-04-07T13:59:43.355Z</time></trkpt><trkpt lat="39.00267" lon="16.4681333"><ele>698.0</ele><time>2026-04-07T13:59:44.354Z</time></trkpt><trkpt lat="39.0026483" lon="16.468055"><ele>698.0</ele><time>2026-04-07T13:59:45.354Z</time></trkpt><trkpt lat="39.0026267" lon="16.4679117"><ele>698.0</ele><time>2026-04-07T13:59:47.354Z</time></trkpt><trkpt lat="39.0026233" lon="16.4678267"><ele>698.0</ele><time>2026-04-07T13:59:49.355Z</time></trkpt><trkpt lat="39.0025933" lon="16.4677533"><ele>698.0</ele><time>2026-04-07T13:59:51.355Z</time></trkpt><trkpt lat="39.0025467" lon="16.4676467"><ele>696.1666666666666</ele><time>2026-04-07T13:59:53.354Z</time></trkpt><trkpt lat="39.0024917" lon="16.467525"><ele>694.3333333333333</ele><time>2026-04-07T13:59:55.354Z</time></trkpt><trkpt lat="39.0024667" lon="16.4674317"><ele>692.5</ele><time>2026-04-07T13:59:57.354Z</time></trkpt><trkpt lat="39.00245" lon="16.467345"><ele>690.6666666666666</ele><time>2026-04-07T13:59:59.355Z</time></trkpt><trkpt lat="39.002395" lon="16.4672733"><ele>688.8333333333334</ele><time>2026-04-07T14:00:04.355Z</time></trkpt><trkpt lat="39.0023183" lon="16.46723"><ele>687.0</ele><time>2026-04-07T14:00:06.355Z</time></trkpt><trkpt lat="39.0023733" lon="16.4673017"><ele>687.0</ele><time>2026-04-07T14:00:27.355Z</time></trkpt><trkpt lat="39.0024383" lon="16.4673483"><ele>687.0</ele><time>2026-04-07T14:00:30.354Z</time></trkpt><trkpt lat="39.0024417" lon="16.4674783"><ele>687.0</ele><time>2026-04-07T14:00:33.355Z</time></trkpt><trkpt lat="39.0024267" lon="16.467565"><ele>687.0</ele><time>2026-04-07T14:00:35.354Z</time></trkpt><trkpt lat="39.00241" lon="16.4676617"><ele>687.0</ele><time>2026-04-07T14:00:41.355Z</time></trkpt><trkpt lat="39.0024533" lon="16.4677933"><ele>687.0</ele><time>2026-04-07T14:00:43.355Z</time></trkpt><trkpt lat="39.0024817" lon="16.467925"><ele>689.2</ele><time>2026-04-07T14:00:45.354Z</time></trkpt><trkpt lat="39.0025217" lon="16.46806"><ele>691.4000000000001</ele><time>2026-04-07T14:00:47.355Z</time></trkpt><trkpt lat="39.0026033" lon="16.468125"><ele>693.5999999999999</ele><time>2026-04-07T14:00:49.354Z</time></trkpt><trkpt lat="39.002685" lon="16.4681483"><ele>695.8</ele><time>2026-04-07T14:00:51.355Z</time></trkpt><trkpt lat="39.0027467" lon="16.46821"><ele>698.0</ele><time>2026-04-07T14:00:53.355Z</time></trkpt><trkpt lat="39.0028067" lon="16.46834"><ele>698.0</ele><time>2026-04-07T14:00:55.354Z</time></trkpt><trkpt lat="39.0028383" lon="16.46843"><ele>698.0</ele><time>2026-04-07T14:00:56.354Z</time></trkpt><trkpt lat="39.0028617" lon="16.4685133"><ele>698.0</ele><time>2026-04-07T14:00:57.355Z</time></trkpt><trkpt lat="39.0029083" lon="16.4686017"><ele>698.0</ele><time>2026-04-07T14:00:58.355Z</time></trkpt><trkpt lat="39.002955" lon="16.4687017"><ele>698.0</ele><time>2026-04-07T14:00:59.354Z</time></trkpt><trkpt lat="39.0030133" lon="16.4688033"><ele>698.0</ele><time>2026-04-07T14:01:00.354Z</time></trkpt><trkpt lat="39.0030767" lon="16.4689033"><ele>694.4</ele><time>2026-04-07T14:01:01.354Z</time></trkpt><trkpt lat="39.0031267" lon="16.469015"><ele>690.8</ele><time>2026-04-07T14:01:02.355Z</time></trkpt><trkpt lat="39.0031633" lon="16.4691317"><ele>687.2</ele><time>2026-04-07T14:01:03.354Z</time></trkpt><trkpt lat="39.0031767" lon="16.4692533"><ele>683.6</ele><time>2026-04-07T14:01:04.354Z</time></trkpt><trkpt lat="39.00317" lon="16.4693733"><ele>680.0</ele><time>2026-04-07T14:01:05.355Z</time></trkpt><trkpt lat="39.00318" lon="16.4694933"><ele>680.0</ele><time>2026-04-07T14:01:06.354Z</time></trkpt><trkpt lat="39.0032183" lon="16.4696083"><ele>680.0</ele><time>2026-04-07T14:01:07.354Z</time></trkpt><trkpt lat="39.003275" lon="16.4697283"><ele>680.0</ele><time>2026-04-07T14:01:08.354Z</time></trkpt><trkpt lat="39.003345" lon="16.4698617"><ele>680.0</ele><time>2026-04-07T14:01:09.354Z</time></trkpt><trkpt lat="39.0034183" lon="16.46999"><ele>684.5</ele><time>2026-04-07T14:01:10.354Z</time></trkpt><trkpt lat="39.0034833" lon="16.470115"><ele>689.0</ele><time>2026-04-07T14:01:11.354Z</time></trkpt><trkpt lat="39.0035367" lon="16.4702233"><ele>693.5</ele><time>2026-04-07T14:01:12.355Z</time></trkpt><trkpt lat="39.0035767" lon="16.470325"><ele>698.0</ele><time>2026-04-07T14:01:13.355Z</time></trkpt><trkpt lat="39.00361" lon="16.4704017"><ele>702.5</ele><time>2026-04-07T14:01:14.355Z</time></trkpt><trkpt lat="39.0036333" lon="16.4704867"><ele>707.0</ele><time>2026-04-07T14:01:15.354Z</time></trkpt><trkpt lat="39.0036317" lon="16.47058"><ele>707.0</ele><time>2026-04-07T14:01:16.354Z</time></trkpt><trkpt lat="39.0036083" lon="16.4706783"><ele>707.0</ele><time>2026-04-07T14:01:17.355Z</time></trkpt><trkpt lat="39.0035817" lon="16.4707617"><ele>707.0</ele><time>2026-04-07T14:01:18.355Z</time></trkpt><trkpt lat="39.0035517" lon="16.47088"><ele>707.0</ele><time>2026-04-07T14:01:20.354Z</time></trkpt><trkpt lat="39.0035867" lon="16.47073"><ele>707.0</ele><time>2026-04-07T14:01:27.354Z</time></trkpt><trkpt lat="39.0036083" lon="16.47063"><ele>707.0</ele><time>2026-04-07T14:01:28.355Z</time></trkpt><trkpt lat="39.0036333" lon="16.47052"><ele>707.4000000000001</ele><time>2026-04-07T14:01:29.355Z</time></trkpt><trkpt lat="39.0036517" lon="16.4704233"><ele>707.8000000000001</ele><time>2026-04-07T14:01:30.355Z</time></trkpt><trkpt lat="39.003675" lon="16.47028"><ele>708.2</ele><time>2026-04-07T14:01:32.355Z</time></trkpt><trkpt lat="39.0036367" lon="16.4701267"><ele>708.6</ele><time>2026-04-07T14:01:34.355Z</time></trkpt><trkpt lat="39.003605" lon="16.47005"><ele>709.0</ele><time>2026-04-07T14:01:35.355Z</time></trkpt><trkpt lat="39.00356" lon="16.469965"><ele>709.0</ele><time>2026-04-07T14:01:36.354Z</time></trkpt><trkpt lat="39.0035083" lon="16.4698767"><ele>709.0</ele><time>2026-04-07T14:01:37.355Z</time></trkpt><trkpt lat="39.0034683" lon="16.4697817"><ele>709.0</ele><time>2026-04-07T14:01:38.354Z</time></trkpt><trkpt lat="39.00344" lon="16.469685"><ele>709.0</ele><time>2026-04-07T14:01:39.355Z</time></trkpt><trkpt lat="39.00342" lon="16.469565"><ele>709.0</ele><time>2026-04-07T14:01:40.355Z</time></trkpt><trkpt lat="39.0034067" lon="16.4694533"><ele>709.0</ele><time>2026-04-07T14:01:41.354Z</time></trkpt><trkpt lat="39.003405" lon="16.4693483"><ele>710.2857142857143</ele><time>2026-04-07T14:01:42.354Z</time></trkpt><trkpt lat="39.003415" lon="16.469245"><ele>711.5714285714286</ele><time>2026-04-07T14:01:43.355Z</time></trkpt><trkpt lat="39.0034367" lon="16.4691483"><ele>712.8571428571429</ele><time>2026-04-07T14:01:44.354Z</time></trkpt><trkpt lat="39.0034467" lon="16.4690567"><ele>714.1428571428571</ele><time>2026-04-07T14:01:45.354Z</time></trkpt><trkpt lat="39.0034583" lon="16.4689683"><ele>715.4285714285714</ele><time>2026-04-07T14:01:46.355Z</time></trkpt><trkpt lat="39.0034633" lon="16.4688817"><ele>716.7142857142858</ele><time>2026-04-07T14:01:47.354Z</time></trkpt><trkpt lat="39.0034733" lon="16.4688"><ele>718.0</ele><time>2026-04-07T14:01:48.354Z</time></trkpt><trkpt lat="39.0034517" lon="16.46865"><ele>719.8333333333334</ele><time>2026-04-07T14:01:50.355Z</time></trkpt><trkpt lat="39.0034217" lon="16.468575"><ele>721.6666666666667</ele><time>2026-04-07T14:01:51.355Z</time></trkpt><trkpt lat="39.0033617" lon="16.46846"><ele>723.5</ele><time>2026-04-07T14:01:53.354Z</time></trkpt><trkpt lat="39.0033367" lon="16.4683167"><ele>725.3333333333334</ele><time>2026-04-07T14:01:55.354Z</time></trkpt><trkpt lat="39.0033217" lon="16.4682317"><ele>727.1666666666666</ele><time>2026-04-07T14:01:56.355Z</time></trkpt><trkpt lat="39.0033033" lon="16.4681383"><ele>729.0</ele><time>2026-04-07T14:01:57.355Z</time></trkpt><trkpt lat="39.0032917" lon="16.4680467"><ele>725.6</ele><time>2026-04-07T14:01:58.354Z</time></trkpt><trkpt lat="39.003255" lon="16.467915"><ele>722.2</ele><time>2026-04-07T14:02:00.355Z</time></trkpt><trkpt lat="39.003195" lon="16.467825"><ele>718.8000000000001</ele><time>2026-04-07T14:02:02.355Z</time></trkpt><trkpt lat="39.0031617" lon="16.4677183"><ele>715.4000000000001</ele><time>2026-04-07T14:02:04.354Z</time></trkpt><trkpt lat="39.0031183" lon="16.4675967"><ele>712.0</ele><time>2026-04-07T14:02:06.354Z</time></trkpt><trkpt lat="39.0030717" lon="16.4674583"><ele>712.0</ele><time>2026-04-07T14:02:08.354Z</time></trkpt><trkpt lat="39.00304" lon="16.4673867"><ele>712.0</ele><time>2026-04-07T14:02:09.355Z</time></trkpt><trkpt lat="39.0029767" lon="16.4672483"><ele>712.0</ele><time>2026-04-07T14:02:11.355Z</time></trkpt><trkpt lat="39.00294" lon="16.467175"><ele>712.0</ele><time>2026-04-07T14:02:12.354Z</time></trkpt><trkpt lat="39.0028983" lon="16.4671"><ele>712.0</ele><time>2026-04-07T14:02:13.354Z</time></trkpt><trkpt lat="39.00286" lon="16.4670283"><ele>712.0</ele><time>2026-04-07T14:02:14.354Z</time></trkpt><trkpt lat="39.0027917" lon="16.4668883"><ele>712.4000000000001</ele><time>2026-04-07T14:02:16.354Z</time></trkpt><trkpt lat="39.00278" lon="16.4667683"><ele>712.8000000000001</ele><time>2026-04-07T14:02:18.354Z</time></trkpt><trkpt lat="39.0027933" lon="16.4666417"><ele>713.2</ele><time>2026-04-07T14:02:20.354Z</time></trkpt><trkpt lat="39.0028083" lon="16.4665083"><ele>713.6</ele><time>2026-04-07T14:02:22.355Z</time></trkpt><trkpt lat="39.0028" lon="16.46634"><ele>714.0</ele><time>2026-04-07T14:02:24.354Z</time></trkpt><trkpt lat="39.002795" lon="16.4662383"><ele>713.3333333333334</ele><time>2026-04-07T14:02:25.354Z</time></trkpt><trkpt lat="39.002795" lon="16.4661333"><ele>712.6666666666666</ele><time>2026-04-07T14:02:26.355Z</time></trkpt><trkpt lat="39.00279" lon="16.4660367"><ele>712.0</ele><time>2026-04-07T14:02:27.355Z</time></trkpt><trkpt lat="39.0027733" lon="16.465935"><ele>711.3333333333333</ele><time>2026-04-07T14:02:28.354Z</time></trkpt><trkpt lat="39.00276" lon="16.46584"><ele>710.6666666666666</ele><time>2026-04-07T14:02:29.355Z</time></trkpt><trkpt lat="39.0027683" lon="16.4657483"><ele>710.0</ele><time>2026-04-07T14:02:30.355Z</time></trkpt><trkpt lat="39.0028" lon="16.465615"><ele>710.0</ele><time>2026-04-07T14:02:32.355Z</time></trkpt><trkpt lat="39.0028183" lon="16.4654933"><ele>710.0</ele><time>2026-04-07T14:02:34.355Z</time></trkpt><trkpt lat="39.00289" lon="16.4653817"><ele>710.0</ele><time>2026-04-07T14:02:36.354Z</time></trkpt><trkpt lat="39.00292" lon="16.4652233"><ele>710.0</ele><time>2026-04-07T14:02:38.354Z</time></trkpt><trkpt lat="39.00294" lon="16.4651417"><ele>710.0</ele><time>2026-04-07T14:02:39.354Z</time></trkpt><trkpt lat="39.00299" lon="16.4650317"><ele>709.8333333333333</ele><time>2026-04-07T14:02:41.355Z</time></trkpt><trkpt lat="39.00302" lon="16.4649367"><ele>709.6666666666666</ele><time>2026-04-07T14:02:43.355Z</time></trkpt><trkpt lat="39.0030633" lon="16.4647967"><ele>709.5</ele><time>2026-04-07T14:02:45.354Z</time></trkpt><trkpt lat="39.0031033" lon="16.4647183"><ele>709.3333333333334</ele><time>2026-04-07T14:02:46.354Z</time></trkpt><trkpt lat="39.00314" lon="16.464635"><ele>709.1666666666667</ele><time>2026-04-07T14:02:47.354Z</time></trkpt><trkpt lat="39.0031817" lon="16.4645533"><ele>709.0</ele><time>2026-04-07T14:02:48.354Z</time></trkpt><trkpt lat="39.003225" lon="16.4644583"><ele>708.2</ele><time>2026-04-07T14:02:49.354Z</time></trkpt><trkpt lat="39.0032617" lon="16.4643467"><ele>707.4000000000001</ele><time>2026-04-07T14:02:50.354Z</time></trkpt><trkpt lat="39.0033033" lon="16.4642283"><ele>706.6</ele><time>2026-04-07T14:02:51.354Z</time></trkpt><trkpt lat="39.0033383" lon="16.4641117"><ele>705.8</ele><time>2026-04-07T14:02:52.355Z</time></trkpt><trkpt lat="39.0033733" lon="16.464"><ele>705.0</ele><time>2026-04-07T14:02:53.355Z</time></trkpt><trkpt lat="39.0033867" lon="16.4638633"><ele>710.5</ele><time>2026-04-07T14:02:54.355Z</time></trkpt><trkpt lat="39.0033783" lon="16.463705"><ele>716.0</ele><time>2026-04-07T14:02:55.354Z</time></trkpt><trkpt lat="39.0033783" lon="16.4635217"><ele>721.5</ele><time>2026-04-07T14:02:56.354Z</time></trkpt><trkpt lat="39.0033867" lon="16.4633383"><ele>727.0</ele><time>2026-04-07T14:02:57.355Z</time></trkpt><trkpt lat="39.0034083" lon="16.46319"><ele>727.0</ele><time>2026-04-07T14:02:58.354Z</time></trkpt><trkpt lat="39.003445" lon="16.4630967"><ele>727.0</ele><time>2026-04-07T14:02:59.354Z</time></trkpt><trkpt lat="39.003525" lon="16.463"><ele>727.0</ele><time>2026-04-07T14:03:01.354Z</time></trkpt><trkpt lat="39.003645" lon="16.46296"><ele>727.0</ele><time>2026-04-07T14:03:03.354Z</time></trkpt><trkpt lat="39.0037317" lon="16.4629233"><ele>727.0</ele><time>2026-04-07T14:03:04.355Z</time></trkpt><trkpt lat="39.0038283" lon="16.4628783"><ele>729.8</ele><time>2026-04-07T14:03:05.354Z</time></trkpt><trkpt lat="39.0039317" lon="16.4628383"><ele>732.6</ele><time>2026-04-07T14:03:06.354Z</time></trkpt><trkpt lat="39.0040467" lon="16.4628"><ele>735.4</ele><time>2026-04-07T14:03:07.354Z</time></trkpt><trkpt lat="39.00416" lon="16.4627583"><ele>738.1999999999999</ele><time>2026-04-07T14:03:08.355Z</time></trkpt><trkpt lat="39.0042583" lon="16.4627217"><ele>741.0</ele><time>2026-04-07T14:03:09.354Z</time></trkpt><trkpt lat="39.0043433" lon="16.462715"><ele>741.0</ele><time>2026-04-07T14:03:10.354Z</time></trkpt><trkpt lat="39.0044317" lon="16.4627967"><ele>741.0</ele><time>2026-04-07T14:03:12.355Z</time></trkpt><trkpt lat="39.0044133" lon="16.4629183"><ele>741.0</ele><time>2026-04-07T14:03:14.355Z</time></trkpt><trkpt lat="39.0043517" lon="16.4630083"><ele>741.0</ele><time>2026-04-07T14:03:15.354Z</time></trkpt><trkpt lat="39.00427" lon="16.463135"><ele>741.0</ele><time>2026-04-07T14:03:16.355Z</time></trkpt><trkpt lat="39.0041683" lon="16.4633017"><ele>739.5</ele><time>2026-04-07T14:03:17.354Z</time></trkpt><trkpt lat="39.0040717" lon="16.4634817"><ele>738.0</ele><time>2026-04-07T14:03:18.354Z</time></trkpt><trkpt lat="39.0040033" lon="16.4636383"><ele>736.5</ele><time>2026-04-07T14:03:19.354Z</time></trkpt><trkpt lat="39.003975" lon="16.463795"><ele>735.0</ele><time>2026-04-07T14:03:20.355Z</time></trkpt><trkpt lat="39.0039883" lon="16.4639917"><ele>735.0</ele><time>2026-04-07T14:03:21.354Z</time></trkpt><trkpt lat="39.0040217" lon="16.4641783"><ele>735.0</ele><time>2026-04-07T14:03:22.355Z</time></trkpt><trkpt lat="39.00404" lon="16.4643533"><ele>735.0</ele><time>2026-04-07T14:03:23.354Z</time></trkpt><trkpt lat="39.004045" lon="16.4644967"><ele>735.0</ele><time>2026-04-07T14:03:24.355Z</time></trkpt><trkpt lat="39.00401" lon="16.4646217"><ele>736.25</ele><time>2026-04-07T14:03:25.355Z</time></trkpt><trkpt lat="39.0039633" lon="16.4647567"><ele>737.5</ele><time>2026-04-07T14:03:26.355Z</time></trkpt><trkpt lat="39.0039217" lon="16.4649"><ele>738.75</ele><time>2026-04-07T14:03:27.354Z</time></trkpt><trkpt lat="39.00389" lon="16.4650417"><ele>740.0</ele><time>2026-04-07T14:03:28.355Z</time></trkpt><trkpt lat="39.0038967" lon="16.4651817"><ele>740.0</ele><time>2026-04-07T14:03:29.354Z</time></trkpt><trkpt lat="39.0039317" lon="16.46532"><ele>740.0</ele><time>2026-04-07T14:03:30.355Z</time></trkpt><trkpt lat="39.003985" lon="16.4654783"><ele>740.0</ele><time>2026-04-07T14:03:31.354Z</time></trkpt><trkpt lat="39.0040533" lon="16.46563"><ele>740.0</ele><time>2026-04-07T14:03:32.355Z</time></trkpt><trkpt lat="39.00411" lon="16.46578"><ele>746.25</ele><time>2026-04-07T14:03:33.355Z</time></trkpt><trkpt lat="39.0041767" lon="16.4659167"><ele>752.5</ele><time>2026-04-07T14:03:34.354Z</time></trkpt><trkpt lat="39.0042533" lon="16.46605"><ele>758.75</ele><time>2026-04-07T14:03:35.354Z</time></trkpt><trkpt lat="39.00433" lon="16.4661983"><ele>765.0</ele><time>2026-04-07T14:03:36.355Z</time></trkpt><trkpt lat="39.00441" lon="16.46634"><ele>765.0</ele><time>2026-04-07T14:03:37.355Z</time></trkpt><trkpt lat="39.0044633" lon="16.4664833"><ele>765.0</ele><time>2026-04-07T14:03:38.355Z</time></trkpt><trkpt lat="39.004495" lon="16.4666283"><ele>765.0</ele><time>2026-04-07T14:03:39.354Z</time></trkpt><trkpt lat="39.0045217" lon="16.4667783"><ele>765.0</ele><time>2026-04-07T14:03:40.354Z</time></trkpt><trkpt lat="39.004545" lon="16.466935"><ele>765.0</ele><time>2026-04-07T14:03:41.354Z</time></trkpt><trkpt lat="39.0045917" lon="16.4670833"><ele>765.0</ele><time>2026-04-07T14:03:42.355Z</time></trkpt><trkpt lat="39.0046433" lon="16.46723"><ele>765.0</ele><time>2026-04-07T14:03:43.354Z</time></trkpt><trkpt lat="39.00471" lon="16.46736"><ele>765.0</ele><time>2026-04-07T14:03:44.355Z</time></trkpt><trkpt lat="39.0047783" lon="16.46749"><ele>765.5</ele><time>2026-04-07T14:03:45.354Z</time></trkpt><trkpt lat="39.0048383" lon="16.4676383"><ele>766.0</ele><time>2026-04-07T14:03:46.354Z</time></trkpt><trkpt lat="39.0048783" lon="16.4677883"><ele>766.5</ele><time>2026-04-07T14:03:47.355Z</time></trkpt><trkpt lat="39.0049083" lon="16.46795"><ele>767.0</ele><time>2026-04-07T14:03:48.354Z</time></trkpt><trkpt lat="39.00493" lon="16.4681133"><ele>764.8</ele><time>2026-04-07T14:03:49.354Z</time></trkpt><trkpt lat="39.0049567" lon="16.4682583"><ele>762.6</ele><time>2026-04-07T14:03:50.354Z</time></trkpt><trkpt lat="39.004985" lon="16.4683783"><ele>760.4</ele><time>2026-04-07T14:03:51.354Z</time></trkpt><trkpt lat="39.005035" lon="16.4684783"><ele>758.1999999999999</ele><time>2026-04-07T14:03:52.355Z</time></trkpt><trkpt lat="39.0050933" lon="16.4685833"><ele>756.0</ele><time>2026-04-07T14:03:53.355Z</time></trkpt><trkpt lat="39.0051533" lon="16.46867"><ele>759.1666666666666</ele><time>2026-04-07T14:03:54.355Z</time></trkpt><trkpt lat="39.0052067" lon="16.4687467"><ele>762.3333333333333</ele><time>2026-04-07T14:03:55.354Z</time></trkpt><trkpt lat="39.0052433" lon="16.4688333"><ele>765.5</ele><time>2026-04-07T14:03:56.354Z</time></trkpt><trkpt lat="39.0052583" lon="16.4689283"><ele>768.6666666666666</ele><time>2026-04-07T14:03:57.354Z</time></trkpt><trkpt lat="39.0052733" lon="16.46904"><ele>771.8333333333333</ele><time>2026-04-07T14:03:58.355Z</time></trkpt><trkpt lat="39.0052667" lon="16.469155"><ele>775.0</ele><time>2026-04-07T14:03:59.354Z</time></trkpt><trkpt lat="39.0052417" lon="16.4692583"><ele>775.0</ele><time>2026-04-07T14:04:00.354Z</time></trkpt><trkpt lat="39.005215" lon="16.46934"><ele>775.0</ele><time>2026-04-07T14:04:01.354Z</time></trkpt><trkpt lat="39.0051917" lon="16.4695"><ele>775.0</ele><time>2026-04-07T14:04:03.354Z</time></trkpt><trkpt lat="39.0051883" lon="16.469595"><ele>775.0</ele><time>2026-04-07T14:04:04.354Z</time></trkpt><trkpt lat="39.005195" lon="16.469715"><ele>775.0</ele><time>2026-04-07T14:04:05.354Z</time></trkpt><trkpt lat="39.0052" lon="16.4698483"><ele>774.25</ele><time>2026-04-07T14:04:06.355Z</time></trkpt><trkpt lat="39.0051983" lon="16.4700083"><ele>773.5</ele><time>2026-04-07T14:04:07.354Z</time></trkpt><trkpt lat="39.0051883" lon="16.4701717"><ele>772.75</ele><time>2026-04-07T14:04:08.355Z</time></trkpt><trkpt lat="39.0051933" lon="16.4703233"><ele>772.0</ele><time>2026-04-07T14:04:09.354Z</time></trkpt><trkpt lat="39.0051883" lon="16.4704617"><ele>773.2</ele><time>2026-04-07T14:04:10.354Z</time></trkpt><trkpt lat="39.0051917" lon="16.4705817"><ele>774.4000000000001</ele><time>2026-04-07T14:04:11.354Z</time></trkpt><trkpt lat="39.0051833" lon="16.4707133"><ele>775.5999999999999</ele><time>2026-04-07T14:04:12.354Z</time></trkpt><trkpt lat="39.0051683" lon="16.470855"><ele>776.8</ele><time>2026-04-07T14:04:13.354Z</time></trkpt><trkpt lat="39.0051483" lon="16.471005"><ele>778.0</ele><time>2026-04-07T14:04:14.354Z</time></trkpt><trkpt lat="39.0051183" lon="16.4711533"><ele>781.25</ele><time>2026-04-07T14:04:15.355Z</time></trkpt><trkpt lat="39.00508" lon="16.4713233"><ele>784.5</ele><time>2026-04-07T14:04:16.354Z</time></trkpt><trkpt lat="39.0050467" lon="16.4714883"><ele>787.75</ele><time>2026-04-07T14:04:17.355Z</time></trkpt><trkpt lat="39.0050117" lon="16.471665"><ele>791.0</ele><time>2026-04-07T14:04:18.354Z</time></trkpt><trkpt lat="39.0049617" lon="16.4718317"><ele>782.25</ele><time>2026-04-07T14:04:19.354Z</time></trkpt><trkpt lat="39.0049117" lon="16.4720033"><ele>773.5</ele><time>2026-04-07T14:04:20.354Z</time></trkpt><trkpt lat="39.0048583" lon="16.4721717"><ele>764.75</ele><time>2026-04-07T14:04:21.354Z</time></trkpt><trkpt lat="39.0048217" lon="16.4723383"><ele>756.0</ele><time>2026-04-07T14:04:22.354Z</time></trkpt><trkpt lat="39.0047983" lon="16.4725067"><ele>756.0</ele><time>2026-04-07T14:04:23.354Z</time></trkpt><trkpt lat="39.00477" lon="16.47271"><ele>756.0</ele><time>2026-04-07T14:04:24.355Z</time></trkpt><trkpt lat="39.0047483" lon="16.4729067"><ele>756.0</ele><time>2026-04-07T14:04:25.354Z</time></trkpt><trkpt lat="39.0047317" lon="16.4730933"><ele>757.75</ele><time>2026-04-07T14:04:26.354Z</time></trkpt><trkpt lat="39.0047317" lon="16.4732583"><ele>759.5</ele><time>2026-04-07T14:04:27.354Z</time></trkpt><trkpt lat="39.00474" lon="16.4734133"><ele>761.25</ele><time>2026-04-07T14:04:28.355Z</time></trkpt><trkpt lat="39.004765" lon="16.4735617"><ele>763.0</ele><time>2026-04-07T14:04:29.355Z</time></trkpt><trkpt lat="39.00479" lon="16.4736933"><ele>765.2</ele><time>2026-04-07T14:04:30.355Z</time></trkpt><trkpt lat="39.0048117" lon="16.473825"><ele>767.4</ele><time>2026-04-07T14:04:31.354Z</time></trkpt><trkpt lat="39.0048233" lon="16.473965"><ele>769.6</ele><time>2026-04-07T14:04:32.354Z</time></trkpt><trkpt lat="39.00481" lon="16.4741067"><ele>771.8000000000001</ele><time>2026-04-07T14:04:33.354Z</time></trkpt><trkpt lat="39.0047783" lon="16.4742483"><ele>774.0</ele><time>2026-04-07T14:04:34.354Z</time></trkpt><trkpt lat="39.0047233" lon="16.4743917"><ele>774.0</ele><time>2026-04-07T14:04:35.355Z</time></trkpt><trkpt lat="39.0046533" lon="16.4745117"><ele>774.0</ele><time>2026-04-07T14:04:36.354Z</time></trkpt><trkpt lat="39.00459" lon="16.4746267"><ele>774.0</ele><time>2026-04-07T14:04:37.354Z</time></trkpt><trkpt lat="39.0045367" lon="16.47472"><ele>774.0</ele><time>2026-04-07T14:04:38.354Z</time></trkpt><trkpt lat="39.0044983" lon="16.47481"><ele>774.0</ele><time>2026-04-07T14:04:39.354Z</time></trkpt><trkpt lat="39.0044833" lon="16.4749117"><ele>777.6666666666666</ele><time>2026-04-07T14:04:40.354Z</time></trkpt><trkpt lat="39.0044867" lon="16.4750017"><ele>781.3333333333333</ele><time>2026-04-07T14:04:41.355Z</time></trkpt><trkpt lat="39.0045117" lon="16.47508"><ele>785.0</ele><time>2026-04-07T14:04:42.355Z</time></trkpt><trkpt lat="39.004545" lon="16.4751633"><ele>788.6666666666666</ele><time>2026-04-07T14:04:45.355Z</time></trkpt><trkpt lat="39.0045117" lon="16.475245"><ele>792.3333333333333</ele><time>2026-04-07T14:05:35.355Z</time></trkpt><trkpt lat="39.00444" lon="16.475365"><ele>796.0</ele><time>2026-04-07T14:05:37.355Z</time></trkpt><trkpt lat="39.0043983" lon="16.4754283"><ele>796.1666666666666</ele><time>2026-04-07T14:05:38.354Z</time></trkpt><trkpt lat="39.00435" lon="16.475485"><ele>796.3333333333333</ele><time>2026-04-07T14:05:39.354Z</time></trkpt><trkpt lat="39.0042967" lon="16.4755467"><ele>796.5</ele><time>2026-04-07T14:05:40.354Z</time></trkpt><trkpt lat="39.0042333" lon="16.4756083"><ele>796.6666666666667</ele><time>2026-04-07T14:05:41.355Z</time></trkpt><trkpt lat="39.0041633" lon="16.47567"><ele>796.8333333333334</ele><time>2026-04-07T14:05:42.355Z</time></trkpt><trkpt lat="39.0040933" lon="16.4757267"><ele>797.0</ele><time>2026-04-07T14:05:43.355Z</time></trkpt><trkpt lat="39.0040083" lon="16.475775"><ele>797.0</ele><time>2026-04-07T14:05:44.354Z</time></trkpt><trkpt lat="39.00391" lon="16.4758183"><ele>797.0</ele><time>2026-04-07T14:05:45.354Z</time></trkpt><trkpt lat="39.0038067" lon="16.4758567"><ele>797.0</ele><time>2026-04-07T14:05:46.354Z</time></trkpt><trkpt lat="39.0037017" lon="16.475895"><ele>797.0</ele><time>2026-04-07T14:05:47.354Z</time></trkpt><trkpt lat="39.0036" lon="16.475935"><ele>797.0</ele><time>2026-04-07T14:05:48.355Z</time></trkpt><trkpt lat="39.0035" lon="16.4759933"><ele>797.0</ele><time>2026-04-07T14:05:49.355Z</time></trkpt><trkpt lat="39.0034017" lon="16.4760767"><ele>797.0</ele><time>2026-04-07T14:05:50.354Z</time></trkpt><trkpt lat="39.00331" lon="16.4761783"><ele>797.0</ele><time>2026-04-07T14:05:51.355Z</time></trkpt><trkpt lat="39.0032233" lon="16.4762983"><ele>797.0</ele><time>2026-04-07T14:05:52.354Z</time></trkpt><trkpt lat="39.0031567" lon="16.47643"><ele>792.75</ele><time>2026-04-07T14:05:53.354Z</time></trkpt><trkpt lat="39.0030783" lon="16.4765967"><ele>788.5</ele><time>2026-04-07T14:05:54.355Z</time></trkpt><trkpt lat="39.003015" lon="16.4767583"><ele>784.25</ele><time>2026-04-07T14:05:55.355Z</time></trkpt><trkpt lat="39.0029467" lon="16.4769183"><ele>780.0</ele><time>2026-04-07T14:05:56.355Z</time></trkpt><trkpt lat="39.0028733" lon="16.4770733"><ele>787.5</ele><time>2026-04-07T14:05:57.354Z</time></trkpt><trkpt lat="39.0027933" lon="16.4772183"><ele>795.0</ele><time>2026-04-07T14:05:58.354Z</time></trkpt><trkpt lat="39.002705" lon="16.47736"><ele>802.5</ele><time>2026-04-07T14:05:59.354Z</time></trkpt><trkpt lat="39.0026217" lon="16.4774983"><ele>810.0</ele><time>2026-04-07T14:06:00.354Z</time></trkpt><trkpt lat="39.0025267" lon="16.4776383"><ele>808.0</ele><time>2026-04-07T14:06:01.354Z</time></trkpt><trkpt lat="39.0024433" lon="16.4777733"><ele>806.0</ele><time>2026-04-07T14:06:02.355Z</time></trkpt><trkpt lat="39.002355" lon="16.4779067"><ele>804.0</ele><time>2026-04-07T14:06:03.354Z</time></trkpt><trkpt lat="39.0022567" lon="16.478055"><ele>802.0</ele><time>2026-04-07T14:06:04.354Z</time></trkpt><trkpt lat="39.0021733" lon="16.4782033"><ele>802.0</ele><time>2026-04-07T14:06:05.355Z</time></trkpt><trkpt lat="39.0020817" lon="16.4783483"><ele>802.0</ele><time>2026-04-07T14:06:06.354Z</time></trkpt><trkpt lat="39.001995" lon="16.478495"><ele>802.0</ele><time>2026-04-07T14:06:07.354Z</time></trkpt><trkpt lat="39.00191" lon="16.4786417"><ele>802.0</ele><time>2026-04-07T14:06:08.354Z</time></trkpt><trkpt lat="39.0018217" lon="16.4787833"><ele>804.75</ele><time>2026-04-07T14:06:09.354Z</time></trkpt><trkpt lat="39.0017383" lon="16.4789317"><ele>807.5</ele><time>2026-04-07T14:06:10.355Z</time></trkpt><trkpt lat="39.0016467" lon="16.4790633"><ele>810.25</ele><time>2026-04-07T14:06:11.354Z</time></trkpt><trkpt lat="39.001555" lon="16.479185"><ele>813.0</ele><time>2026-04-07T14:06:12.354Z</time></trkpt><trkpt lat="39.0014583" lon="16.479305"><ele>813.0</ele><time>2026-04-07T14:06:13.355Z</time></trkpt><trkpt lat="39.0013483" lon="16.4794083"><ele>813.0</ele><time>2026-04-07T14:06:14.355Z</time></trkpt><trkpt lat="39.00122" lon="16.47948"><ele>813.0</ele><time>2026-04-07T14:06:15.355Z</time></trkpt><trkpt lat="39.001085" lon="16.4795417"><ele>813.0</ele><time>2026-04-07T14:06:16.355Z</time></trkpt><trkpt lat="39.0009533" lon="16.4795883"><ele>819.5</ele><time>2026-04-07T14:06:17.354Z</time></trkpt><trkpt lat="39.00082" lon="16.47963"><ele>826.0</ele><time>2026-04-07T14:06:18.354Z</time></trkpt><trkpt lat="39.000685" lon="16.47967"><ele>832.5</ele><time>2026-04-07T14:06:19.355Z</time></trkpt><trkpt lat="39.0005383" lon="16.4797117"><ele>839.0</ele><time>2026-04-07T14:06:20.354Z</time></trkpt><trkpt lat="39.0003867" lon="16.4797417"><ele>839.0</ele><time>2026-04-07T14:06:21.355Z</time></trkpt><trkpt lat="39.0002283" lon="16.479765"><ele>839.0</ele><time>2026-04-07T14:06:22.354Z</time></trkpt><trkpt lat="39.00007" lon="16.4797783"><ele>839.0</ele><time>2026-04-07T14:06:23.354Z</time></trkpt><trkpt lat="38.9999117" lon="16.479785"><ele>839.0</ele><time>2026-04-07T14:06:24.355Z</time></trkpt><trkpt lat="38.99974" lon="16.479795"><ele>839.0</ele><time>2026-04-07T14:06:25.355Z</time></trkpt><trkpt lat="38.999565" lon="16.4798117"><ele>839.0</ele><time>2026-04-07T14:06:26.354Z</time></trkpt><trkpt lat="38.9993867" lon="16.479835"><ele>839.0</ele><time>2026-04-07T14:06:27.354Z</time></trkpt><trkpt lat="38.99921" lon="16.4798683"><ele>839.0</ele><time>2026-04-07T14:06:28.354Z</time></trkpt><trkpt lat="38.9990383" lon="16.4799017"><ele>839.0</ele><time>2026-04-07T14:06:29.355Z</time></trkpt><trkpt lat="38.9988733" lon="16.47993"><ele>838.0</ele><time>2026-04-07T14:06:30.354Z</time></trkpt><trkpt lat="38.9987117" lon="16.4799583"><ele>837.0</ele><time>2026-04-07T14:06:31.355Z</time></trkpt><trkpt lat="38.99856" lon="16.4799883"><ele>836.0</ele><time>2026-04-07T14:06:32.354Z</time></trkpt><trkpt lat="38.9984183" lon="16.480015"><ele>834.0</ele><time>2026-04-07T14:06:33.355Z</time></trkpt><trkpt lat="38.9982867" lon="16.480055"><ele>832.0</ele><time>2026-04-07T14:06:34.355Z</time></trkpt><trkpt lat="38.9981783" lon="16.4801467"><ele>830.0</ele><time>2026-04-07T14:06:35.354Z</time></trkpt><trkpt lat="38.99809" lon="16.48027"><ele>828.0</ele><time>2026-04-07T14:06:36.354Z</time></trkpt><trkpt lat="38.9980267" lon="16.4804333"><ele>833.0</ele><time>2026-04-07T14:06:37.355Z</time></trkpt><trkpt lat="38.9979983" lon="16.480615"><ele>838.0</ele><time>2026-04-07T14:06:38.355Z</time></trkpt><trkpt lat="38.997995" lon="16.480805"><ele>843.0</ele><time>2026-04-07T14:06:39.355Z</time></trkpt><trkpt lat="38.9979917" lon="16.481"><ele>848.0</ele><time>2026-04-07T14:06:40.354Z</time></trkpt><trkpt lat="38.997985" lon="16.4811883"><ele>850.0</ele><time>2026-04-07T14:06:41.355Z</time></trkpt><trkpt lat="38.9979867" lon="16.4813917"><ele>852.0</ele><time>2026-04-07T14:06:42.354Z</time></trkpt><trkpt lat="38.9979983" lon="16.4815983"><ele>854.0</ele><time>2026-04-07T14:06:43.354Z</time></trkpt><trkpt lat="38.998" lon="16.481785"><ele>855.0</ele><time>2026-04-07T14:06:44.354Z</time></trkpt><trkpt lat="38.9979667" lon="16.4821367"><ele>856.0</ele><time>2026-04-07T14:06:46.355Z</time></trkpt><trkpt lat="38.9979383" lon="16.4823133"><ele>857.0</ele><time>2026-04-07T14:06:47.354Z</time></trkpt><trkpt lat="38.9979183" lon="16.4825083"><ele>857.0</ele><time>2026-04-07T14:06:48.354Z</time></trkpt><trkpt lat="38.9979033" lon="16.4827017"><ele>857.0</ele><time>2026-04-07T14:06:49.354Z</time></trkpt><trkpt lat="38.9978867" lon="16.4829017"><ele>857.0</ele><time>2026-04-07T14:06:50.355Z</time></trkpt><trkpt lat="38.99787" lon="16.4830983"><ele>857.0</ele><time>2026-04-07T14:06:51.354Z</time></trkpt><trkpt lat="38.9978317" lon="16.483285"><ele>857.0</ele><time>2026-04-07T14:06:52.355Z</time></trkpt><trkpt lat="38.9978183" lon="16.4834583"><ele>857.0</ele><time>2026-04-07T14:06:53.354Z</time></trkpt><trkpt lat="38.997835" lon="16.4836383"><ele>857.0</ele><time>2026-04-07T14:06:54.354Z</time></trkpt><trkpt lat="38.9978833" lon="16.4838317"><ele>856.3333333333334</ele><time>2026-04-07T14:06:55.354Z</time></trkpt><trkpt lat="38.9979317" lon="16.4840283"><ele>855.6666666666667</ele><time>2026-04-07T14:06:56.354Z</time></trkpt><trkpt lat="38.997955" lon="16.4842283"><ele>855.0</ele><time>2026-04-07T14:06:57.355Z</time></trkpt><trkpt lat="38.997945" lon="16.4844133"><ele>855.0</ele><time>2026-04-07T14:06:58.354Z</time></trkpt><trkpt lat="38.9978783" lon="16.4845767"><ele>855.0</ele><time>2026-04-07T14:06:59.355Z</time></trkpt><trkpt lat="38.9977867" lon="16.4847233"><ele>855.0</ele><time>2026-04-07T14:07:00.355Z</time></trkpt><trkpt lat="38.99767" lon="16.4848567"><ele>855.0</ele><time>2026-04-07T14:07:01.355Z</time></trkpt><trkpt lat="38.997555" lon="16.4849917"><ele>855.3333333333333</ele><time>2026-04-07T14:07:02.354Z</time></trkpt><trkpt lat="38.9974433" lon="16.4851583"><ele>855.6666666666666</ele><time>2026-04-07T14:07:03.355Z</time></trkpt><trkpt lat="38.9973633" lon="16.48533"><ele>856.0</ele><time>2026-04-07T14:07:04.354Z</time></trkpt><trkpt lat="38.99729" lon="16.4855283"><ele>856.0</ele><time>2026-04-07T14:07:05.355Z</time></trkpt><trkpt lat="38.9971967" lon="16.4857167"><ele>856.0</ele><time>2026-04-07T14:07:06.355Z</time></trkpt><trkpt lat="38.9970767" lon="16.4858717"><ele>856.0</ele><time>2026-04-07T14:07:07.354Z</time></trkpt><trkpt lat="38.996945" lon="16.4860167"><ele>856.0</ele><time>2026-04-07T14:07:08.354Z</time></trkpt><trkpt lat="38.9967983" lon="16.4861517"><ele>856.0</ele><time>2026-04-07T14:07:09.354Z</time></trkpt><trkpt lat="38.996665" lon="16.4862883"><ele>856.0</ele><time>2026-04-07T14:07:10.354Z</time></trkpt><trkpt lat="38.9965667" lon="16.48642"><ele>853.5</ele><time>2026-04-07T14:07:11.355Z</time></trkpt><trkpt lat="38.9965067" lon="16.486565"><ele>851.0</ele><time>2026-04-07T14:07:12.354Z</time></trkpt><trkpt lat="38.9964917" lon="16.4867233"><ele>848.5</ele><time>2026-04-07T14:07:13.354Z</time></trkpt><trkpt lat="38.9964967" lon="16.486885"><ele>846.0</ele><time>2026-04-07T14:07:14.355Z</time></trkpt><trkpt lat="38.9964967" lon="16.4870417"><ele>848.5999999999999</ele><time>2026-04-07T14:07:15.354Z</time></trkpt><trkpt lat="38.9964583" lon="16.4871583"><ele>851.2</ele><time>2026-04-07T14:07:16.355Z</time></trkpt><trkpt lat="38.996395" lon="16.4872483"><ele>853.8000000000001</ele><time>2026-04-07T14:07:17.354Z</time></trkpt><trkpt lat="38.9963133" lon="16.48733"><ele>856.4000000000001</ele><time>2026-04-07T14:07:18.354Z</time></trkpt><trkpt lat="38.9962233" lon="16.4874183"><ele>859.0</ele><time>2026-04-07T14:07:19.355Z</time></trkpt><trkpt lat="38.9961333" lon="16.487545"><ele>859.0</ele><time>2026-04-07T14:07:20.354Z</time></trkpt><trkpt lat="38.9960533" lon="16.48771"><ele>859.0</ele><time>2026-04-07T14:07:21.355Z</time></trkpt><trkpt lat="38.9959883" lon="16.487895"><ele>859.0</ele><time>2026-04-07T14:07:22.354Z</time></trkpt><trkpt lat="38.9959533" lon="16.4880867"><ele>861.0</ele><time>2026-04-07T14:07:23.355Z</time></trkpt><trkpt lat="38.9959283" lon="16.4882917"><ele>863.0</ele><time>2026-04-07T14:07:24.355Z</time></trkpt><trkpt lat="38.9959333" lon="16.488495"><ele>865.0</ele><time>2026-04-07T14:07:25.355Z</time></trkpt><trkpt lat="38.9959367" lon="16.48868"><ele>866.75</ele><time>2026-04-07T14:07:26.355Z</time></trkpt><trkpt lat="38.9959" lon="16.4888383"><ele>868.5</ele><time>2026-04-07T14:07:27.355Z</time></trkpt><trkpt lat="38.9958367" lon="16.488965"><ele>870.25</ele><time>2026-04-07T14:07:28.354Z</time></trkpt><trkpt lat="38.99574" lon="16.48907"><ele>872.0</ele><time>2026-04-07T14:07:29.354Z</time></trkpt><trkpt lat="38.995635" lon="16.4891867"><ele>869.6666666666667</ele><time>2026-04-07T14:07:30.354Z</time></trkpt><trkpt lat="38.995535" lon="16.48932"><ele>867.3333333333333</ele><time>2026-04-07T14:07:31.354Z</time></trkpt><trkpt lat="38.9954417" lon="16.4894817"><ele>865.0</ele><time>2026-04-07T14:07:32.354Z</time></trkpt><trkpt lat="38.9953633" lon="16.489665"><ele>865.0</ele><time>2026-04-07T14:07:33.355Z</time></trkpt><trkpt lat="38.9952833" lon="16.48985"><ele>865.0</ele><time>2026-04-07T14:07:34.354Z</time></trkpt><trkpt lat="38.9951767" lon="16.490035"><ele>865.0</ele><time>2026-04-07T14:07:35.354Z</time></trkpt><trkpt lat="38.9950667" lon="16.490205"><ele>861.6666666666666</ele><time>2026-04-07T14:07:36.354Z</time></trkpt><trkpt lat="38.994965" lon="16.4903667"><ele>858.3333333333333</ele><time>2026-04-07T14:07:37.355Z</time></trkpt><trkpt lat="38.99488" lon="16.4905367"><ele>855.0</ele><time>2026-04-07T14:07:38.354Z</time></trkpt><trkpt lat="38.9948217" lon="16.490715"><ele>855.0</ele><time>2026-04-07T14:07:39.355Z</time></trkpt><trkpt lat="38.9948" lon="16.4909017"><ele>855.0</ele><time>2026-04-07T14:07:40.354Z</time></trkpt><trkpt lat="38.9948217" lon="16.49109"><ele>855.0</ele><time>2026-04-07T14:07:41.354Z</time></trkpt><trkpt lat="38.9948567" lon="16.49128"><ele>855.0</ele><time>2026-04-07T14:07:42.354Z</time></trkpt><trkpt lat="38.9948783" lon="16.4914617"><ele>857.0</ele><time>2026-04-07T14:07:43.354Z</time></trkpt><trkpt lat="38.9948533" lon="16.4916133"><ele>859.0</ele><time>2026-04-07T14:07:44.355Z</time></trkpt><trkpt lat="38.99479" lon="16.4917117"><ele>861.0</ele><time>2026-04-07T14:07:45.355Z</time></trkpt><trkpt lat="38.9947033" lon="16.491755"><ele>863.0</ele><time>2026-04-07T14:07:46.354Z</time></trkpt><trkpt lat="38.9946083" lon="16.49177"><ele>865.0</ele><time>2026-04-07T14:07:47.354Z</time></trkpt><trkpt lat="38.994495" lon="16.4917967"><ele>865.0</ele><time>2026-04-07T14:07:48.355Z</time></trkpt><trkpt lat="38.9943783" lon="16.4918733"><ele>865.0</ele><time>2026-04-07T14:07:49.355Z</time></trkpt><trkpt lat="38.9942933" lon="16.4920183"><ele>865.0</ele><time>2026-04-07T14:07:50.354Z</time></trkpt><trkpt lat="38.994235" lon="16.4922"><ele>865.0</ele><time>2026-04-07T14:07:51.355Z</time></trkpt><trkpt lat="38.9942" lon="16.4924017"><ele>868.0</ele><time>2026-04-07T14:07:52.354Z</time></trkpt><trkpt lat="38.994155" lon="16.4925967"><ele>871.0</ele><time>2026-04-07T14:07:53.354Z</time></trkpt><trkpt lat="38.9940833" lon="16.49278"><ele>874.0</ele><time>2026-04-07T14:07:54.354Z</time></trkpt><trkpt lat="38.99399" lon="16.49295"><ele>874.0</ele><time>2026-04-07T14:07:55.354Z</time></trkpt><trkpt lat="38.99388" lon="16.493105"><ele>874.0</ele><time>2026-04-07T14:07:56.354Z</time></trkpt><trkpt lat="38.9937633" lon="16.4932283"><ele>874.0</ele><time>2026-04-07T14:07:57.354Z</time></trkpt><trkpt lat="38.9936383" lon="16.4933317"><ele>874.0</ele><time>2026-04-07T14:07:58.355Z</time></trkpt><trkpt lat="38.9935283" lon="16.493445"><ele>874.0</ele><time>2026-04-07T14:07:59.355Z</time></trkpt><trkpt lat="38.9934317" lon="16.4935767"><ele>874.0</ele><time>2026-04-07T14:08:00.354Z</time></trkpt><trkpt lat="38.9933317" lon="16.493735"><ele>874.0</ele><time>2026-04-07T14:08:01.355Z</time></trkpt><trkpt lat="38.9932517" lon="16.49392"><ele>871.0</ele><time>2026-04-07T14:08:02.355Z</time></trkpt><trkpt lat="38.993185" lon="16.49412"><ele>868.0</ele><time>2026-04-07T14:08:03.355Z</time></trkpt><trkpt lat="38.9931317" lon="16.494335"><ele>865.0</ele><time>2026-04-07T14:08:04.354Z</time></trkpt><trkpt lat="38.99308" lon="16.4945583"><ele>868.3333333333333</ele><time>2026-04-07T14:08:05.354Z</time></trkpt><trkpt lat="38.9930167" lon="16.494795"><ele>871.6666666666667</ele><time>2026-04-07T14:08:06.355Z</time></trkpt><trkpt lat="38.9929567" lon="16.4950267"><ele>875.0</ele><time>2026-04-07T14:08:07.354Z</time></trkpt><trkpt lat="38.9928933" lon="16.495275"><ele>875.6666666666667</ele><time>2026-04-07T14:08:08.355Z</time></trkpt><trkpt lat="38.992835" lon="16.495515"><ele>876.3333333333333</ele><time>2026-04-07T14:08:09.355Z</time></trkpt><trkpt lat="38.9927683" lon="16.495755"><ele>877.0</ele><time>2026-04-07T14:08:10.354Z</time></trkpt><trkpt lat="38.9927067" lon="16.4960033"><ele>878.0</ele><time>2026-04-07T14:08:11.354Z</time></trkpt><trkpt lat="38.992645" lon="16.4962533"><ele>879.0</ele><time>2026-04-07T14:08:12.354Z</time></trkpt><trkpt lat="38.99258" lon="16.4965067"><ele>880.0</ele><time>2026-04-07T14:08:13.355Z</time></trkpt><trkpt lat="38.9925133" lon="16.4967617"><ele>876.0</ele><time>2026-04-07T14:08:14.354Z</time></trkpt><trkpt lat="38.9924533" lon="16.497015"><ele>872.0</ele><time>2026-04-07T14:08:15.354Z</time></trkpt><trkpt lat="38.9923917" lon="16.4972683"><ele>868.0</ele><time>2026-04-07T14:08:16.355Z</time></trkpt><trkpt lat="38.992325" lon="16.4975083"><ele>868.0</ele><time>2026-04-07T14:08:17.354Z</time></trkpt><trkpt lat="38.9922467" lon="16.4977483"><ele>868.0</ele><time>2026-04-07T14:08:18.355Z</time></trkpt><trkpt lat="38.9921483" lon="16.4979567"><ele>868.0</ele><time>2026-04-07T14:08:19.354Z</time></trkpt><trkpt lat="38.9920333" lon="16.4981467"><ele>870.0</ele><time>2026-04-07T14:08:20.354Z</time></trkpt><trkpt lat="38.9919" lon="16.4983017"><ele>872.0</ele><time>2026-04-07T14:08:21.354Z</time></trkpt><trkpt lat="38.99174" lon="16.4984483"><ele>874.0</ele><time>2026-04-07T14:08:22.355Z</time></trkpt><trkpt lat="38.9915883" lon="16.4985883"><ele>873.0</ele><time>2026-04-07T14:08:23.354Z</time></trkpt><trkpt lat="38.9914417" lon="16.49875"><ele>872.0</ele><time>2026-04-07T14:08:24.354Z</time></trkpt><trkpt lat="38.9912967" lon="16.4989133"><ele>871.0</ele><time>2026-04-07T14:08:25.354Z</time></trkpt><trkpt lat="38.991145" lon="16.4990767"><ele>871.0</ele><time>2026-04-07T14:08:26.354Z</time></trkpt><trkpt lat="38.99099" lon="16.4992367"><ele>871.0</ele><time>2026-04-07T14:08:27.354Z</time></trkpt><trkpt lat="38.9908317" lon="16.4993883"><ele>871.0</ele><time>2026-04-07T14:08:28.354Z</time></trkpt><trkpt lat="38.99069" lon="16.499535"><ele>871.3333333333333</ele><time>2026-04-07T14:08:29.354Z</time></trkpt><trkpt lat="38.9905583" lon="16.499675"><ele>871.6666666666667</ele><time>2026-04-07T14:08:30.354Z</time></trkpt><trkpt lat="38.9904117" lon="16.4998133"><ele>872.0</ele><time>2026-04-07T14:08:31.354Z</time></trkpt><trkpt lat="38.9902617" lon="16.4999683"><ele>872.0</ele><time>2026-04-07T14:08:32.354Z</time></trkpt><trkpt lat="38.9901167" lon="16.500125"><ele>872.0</ele><time>2026-04-07T14:08:33.354Z</time></trkpt><trkpt lat="38.98997" lon="16.5002817"><ele>872.0</ele><time>2026-04-07T14:08:34.354Z</time></trkpt><trkpt lat="38.9898267" lon="16.500415"><ele>872.6666666666667</ele><time>2026-04-07T14:08:35.354Z</time></trkpt><trkpt lat="38.989685" lon="16.5005367"><ele>873.3333333333333</ele><time>2026-04-07T14:08:36.355Z</time></trkpt><trkpt lat="38.98955" lon="16.50064"><ele>874.0</ele><time>2026-04-07T14:08:37.355Z</time></trkpt><trkpt lat="38.9894183" lon="16.5007333"><ele>874.0</ele><time>2026-04-07T14:08:38.355Z</time></trkpt><trkpt lat="38.9892767" lon="16.5008317"><ele>874.0</ele><time>2026-04-07T14:08:39.354Z</time></trkpt><trkpt lat="38.9890283" lon="16.5010183"><ele>874.0</ele><time>2026-04-07T14:08:41.355Z</time></trkpt><trkpt lat="38.9887867" lon="16.50119"><ele>876.0</ele><time>2026-04-07T14:08:43.354Z</time></trkpt><trkpt lat="38.988655" lon="16.5012517"><ele>878.0</ele><time>2026-04-07T14:08:44.355Z</time></trkpt><trkpt lat="38.9885167" lon="16.5012833"><ele>880.0</ele><time>2026-04-07T14:08:45.355Z</time></trkpt><trkpt lat="38.9882567" lon="16.5012983"><ele>876.75</ele><time>2026-04-07T14:08:47.355Z</time></trkpt><trkpt lat="38.9881433" lon="16.5013017"><ele>873.5</ele><time>2026-04-07T14:08:48.355Z</time></trkpt><trkpt lat="38.988015" lon="16.50132"><ele>870.25</ele><time>2026-04-07T14:08:49.355Z</time></trkpt><trkpt lat="38.9878917" lon="16.5013683"><ele>867.0</ele><time>2026-04-07T14:08:50.355Z</time></trkpt><trkpt lat="38.987765" lon="16.5014217"><ele>867.0</ele><time>2026-04-07T14:08:51.354Z</time></trkpt><trkpt lat="38.9876467" lon="16.5014833"><ele>867.0</ele><time>2026-04-07T14:08:52.354Z</time></trkpt><trkpt lat="38.9875283" lon="16.5015417"><ele>867.0</ele><time>2026-04-07T14:08:53.354Z</time></trkpt><trkpt lat="38.9874067" lon="16.5016017"><ele>867.0</ele><time>2026-04-07T14:08:54.355Z</time></trkpt><trkpt lat="38.987285" lon="16.501665"><ele>864.75</ele><time>2026-04-07T14:08:55.354Z</time></trkpt><trkpt lat="38.9871567" lon="16.5017167"><ele>862.5</ele><time>2026-04-07T14:08:56.354Z</time></trkpt><trkpt lat="38.9870267" lon="16.5017583"><ele>860.25</ele><time>2026-04-07T14:08:57.354Z</time></trkpt><trkpt lat="38.986885" lon="16.5017883"><ele>858.0</ele><time>2026-04-07T14:08:58.354Z</time></trkpt><trkpt lat="38.9867483" lon="16.5017917"><ele>856.75</ele><time>2026-04-07T14:08:59.355Z</time></trkpt><trkpt lat="38.9866183" lon="16.5017933"><ele>855.5</ele><time>2026-04-07T14:09:00.355Z</time></trkpt><trkpt lat="38.9864817" lon="16.501775"><ele>854.25</ele><time>2026-04-07T14:09:01.355Z</time></trkpt><trkpt lat="38.986345" lon="16.5017633"><ele>853.0</ele><time>2026-04-07T14:09:02.354Z</time></trkpt><trkpt lat="38.9862183" lon="16.5017733"><ele>853.0</ele><time>2026-04-07T14:09:03.355Z</time></trkpt><trkpt lat="38.9861033" lon="16.50179"><ele>853.0</ele><time>2026-04-07T14:09:04.355Z</time></trkpt><trkpt lat="38.985985" lon="16.5018033"><ele>853.0</ele><time>2026-04-07T14:09:05.354Z</time></trkpt><trkpt lat="38.9858767" lon="16.501795"><ele>853.0</ele><time>2026-04-07T14:09:06.355Z</time></trkpt><trkpt lat="38.98577" lon="16.5017517"><ele>853.75</ele><time>2026-04-07T14:09:07.354Z</time></trkpt><trkpt lat="38.9856783" lon="16.5016617"><ele>854.5</ele><time>2026-04-07T14:09:08.355Z</time></trkpt><trkpt lat="38.98559" lon="16.5015533"><ele>855.25</ele><time>2026-04-07T14:09:09.354Z</time></trkpt><trkpt lat="38.98551" lon="16.50142"><ele>856.0</ele><time>2026-04-07T14:09:10.354Z</time></trkpt><trkpt lat="38.9854483" lon="16.5012833"><ele>855.3333333333333</ele><time>2026-04-07T14:09:11.354Z</time></trkpt><trkpt lat="38.9853817" lon="16.5011617"><ele>854.6666666666667</ele><time>2026-04-07T14:09:12.354Z</time></trkpt><trkpt lat="38.985305" lon="16.5010333"><ele>854.0</ele><time>2026-04-07T14:09:13.355Z</time></trkpt><trkpt lat="38.985005" lon="16.50074"><ele>854.0</ele><time>2026-04-07T14:09:16.354Z</time></trkpt><trkpt lat="38.9848817" lon="16.50066"><ele>854.0</ele><time>2026-04-07T14:09:17.355Z</time></trkpt><trkpt lat="38.9847617" lon="16.5005817"><ele>854.0</ele><time>2026-04-07T14:09:18.355Z</time></trkpt><trkpt lat="38.98464" lon="16.50051"><ele>854.0</ele><time>2026-04-07T14:09:19.355Z</time></trkpt><trkpt lat="38.98452" lon="16.5004467"><ele>850.0</ele><time>2026-04-07T14:09:20.354Z</time></trkpt><trkpt lat="38.9844017" lon="16.5003767"><ele>846.0</ele><time>2026-04-07T14:09:21.355Z</time></trkpt><trkpt lat="38.9842867" lon="16.5003067"><ele>842.0</ele><time>2026-04-07T14:09:22.354Z</time></trkpt><trkpt lat="38.98419" lon="16.5002317"><ele>838.0</ele><time>2026-04-07T14:09:23.354Z</time></trkpt><trkpt lat="38.9840933" lon="16.5001417"><ele>838.0</ele><time>2026-04-07T14:09:24.355Z</time></trkpt><trkpt lat="38.984005" lon="16.5000533"><ele>838.0</ele><time>2026-04-07T14:09:25.354Z</time></trkpt><trkpt lat="38.9839083" lon="16.499955"><ele>838.0</ele><time>2026-04-07T14:09:26.354Z</time></trkpt><trkpt lat="38.9838017" lon="16.4998617"><ele>838.0</ele><time>2026-04-07T14:09:27.355Z</time></trkpt><trkpt lat="38.9836933" lon="16.499785"><ele>838.0</ele><time>2026-04-07T14:09:28.354Z</time></trkpt><trkpt lat="38.9835517" lon="16.49973"><ele>838.0</ele><time>2026-04-07T14:09:29.355Z</time></trkpt><trkpt lat="38.98341" lon="16.4997017"><ele>838.0</ele><time>2026-04-07T14:09:30.355Z</time></trkpt><trkpt lat="38.98327" lon="16.4996783"><ele>838.0</ele><time>2026-04-07T14:09:31.355Z</time></trkpt><trkpt lat="38.98314" lon="16.49966"><ele>842.25</ele><time>2026-04-07T14:09:32.354Z</time></trkpt><trkpt lat="38.9830117" lon="16.4996467"><ele>846.5</ele><time>2026-04-07T14:09:33.354Z</time></trkpt><trkpt lat="38.98289" lon="16.4996283"><ele>850.75</ele><time>2026-04-07T14:09:34.355Z</time></trkpt><trkpt lat="38.9827767" lon="16.4996017"><ele>855.0</ele><time>2026-04-07T14:09:35.355Z</time></trkpt><trkpt lat="38.9826617" lon="16.4995567"><ele>849.8</ele><time>2026-04-07T14:09:36.355Z</time></trkpt><trkpt lat="38.982565" lon="16.4994983"><ele>844.6</ele><time>2026-04-07T14:09:37.354Z</time></trkpt><trkpt lat="38.982475" lon="16.4994183"><ele>839.4000000000001</ele><time>2026-04-07T14:09:38.355Z</time></trkpt><trkpt lat="38.9823883" lon="16.4993317"><ele>834.2</ele><time>2026-04-07T14:09:39.354Z</time></trkpt><trkpt lat="38.98232" lon="16.499245"><ele>829.0</ele><time>2026-04-07T14:09:40.355Z</time></trkpt><trkpt lat="38.9822717" lon="16.4991383"><ele>829.0</ele><time>2026-04-07T14:09:41.355Z</time></trkpt><trkpt lat="38.9822433" lon="16.499015"><ele>829.0</ele><time>2026-04-07T14:09:42.355Z</time></trkpt><trkpt lat="38.98224" lon="16.4988817"><ele>829.0</ele><time>2026-04-07T14:09:43.354Z</time></trkpt><trkpt lat="38.9822383" lon="16.4987417"><ele>829.0</ele><time>2026-04-07T14:09:44.354Z</time></trkpt><trkpt lat="38.9822233" lon="16.4985967"><ele>829.0</ele><time>2026-04-07T14:09:45.355Z</time></trkpt><trkpt lat="38.9821883" lon="16.4984517"><ele>824.6</ele><time>2026-04-07T14:09:46.354Z</time></trkpt><trkpt lat="38.9821417" lon="16.49832"><ele>820.2</ele><time>2026-04-07T14:09:47.354Z</time></trkpt><trkpt lat="38.9820967" lon="16.498205"><ele>815.8000000000001</ele><time>2026-04-07T14:09:48.354Z</time></trkpt><trkpt lat="38.9820383" lon="16.4980883"><ele>811.4000000000001</ele><time>2026-04-07T14:09:49.354Z</time></trkpt><trkpt lat="38.981975" lon="16.4979733"><ele>807.0</ele><time>2026-04-07T14:09:50.355Z</time></trkpt><trkpt lat="38.9818933" lon="16.4978717"><ele>807.75</ele><time>2026-04-07T14:09:51.355Z</time></trkpt><trkpt lat="38.9818067" lon="16.497805"><ele>808.5</ele><time>2026-04-07T14:09:52.354Z</time></trkpt><trkpt lat="38.9816017" lon="16.4976833"><ele>809.25</ele><time>2026-04-07T14:09:54.354Z</time></trkpt><trkpt lat="38.9814933" lon="16.4976283"><ele>810.0</ele><time>2026-04-07T14:09:55.354Z</time></trkpt><trkpt lat="38.9813883" lon="16.4975767"><ele>810.0</ele><time>2026-04-07T14:09:56.354Z</time></trkpt><trkpt lat="38.9812767" lon="16.4975033"><ele>810.0</ele><time>2026-04-07T14:09:57.355Z</time></trkpt><trkpt lat="38.9811667" lon="16.497445"><ele>810.0</ele><time>2026-04-07T14:09:58.354Z</time></trkpt><trkpt lat="38.9810367" lon="16.4974117"><ele>810.0</ele><time>2026-04-07T14:09:59.355Z</time></trkpt><trkpt lat="38.9809083" lon="16.497405"><ele>810.75</ele><time>2026-04-07T14:10:00.354Z</time></trkpt><trkpt lat="38.9807883" lon="16.4974217"><ele>811.5</ele><time>2026-04-07T14:10:01.355Z</time></trkpt><trkpt lat="38.9806583" lon="16.4974417"><ele>812.25</ele><time>2026-04-07T14:10:02.354Z</time></trkpt><trkpt lat="38.98053" lon="16.49746"><ele>813.0</ele><time>2026-04-07T14:10:03.355Z</time></trkpt><trkpt lat="38.9804167" lon="16.4975133"><ele>813.0</ele><time>2026-04-07T14:10:04.355Z</time></trkpt><trkpt lat="38.9803317" lon="16.4975833"><ele>813.0</ele><time>2026-04-07T14:10:05.355Z</time></trkpt><trkpt lat="38.9802667" lon="16.4976867"><ele>813.0</ele><time>2026-04-07T14:10:06.354Z</time></trkpt><trkpt lat="38.9801683" lon="16.4979117"><ele>813.0</ele><time>2026-04-07T14:10:08.355Z</time></trkpt><trkpt lat="38.9800367" lon="16.4980817"><ele>814.25</ele><time>2026-04-07T14:10:10.355Z</time></trkpt><trkpt lat="38.97993" lon="16.4981167"><ele>815.5</ele><time>2026-04-07T14:10:11.354Z</time></trkpt><trkpt lat="38.97981" lon="16.4981417"><ele>816.75</ele><time>2026-04-07T14:10:12.355Z</time></trkpt><trkpt lat="38.9796917" lon="16.4981533"><ele>818.0</ele><time>2026-04-07T14:10:13.354Z</time></trkpt><trkpt lat="38.9795667" lon="16.4981733"><ele>818.0</ele><time>2026-04-07T14:10:14.355Z</time></trkpt><trkpt lat="38.9794517" lon="16.49819"><ele>818.0</ele><time>2026-04-07T14:10:15.354Z</time></trkpt><trkpt lat="38.9793367" lon="16.4982117"><ele>818.0</ele><time>2026-04-07T14:10:16.354Z</time></trkpt><trkpt lat="38.979215" lon="16.49823"><ele>818.0</ele><time>2026-04-07T14:10:17.355Z</time></trkpt><trkpt lat="38.9790883" lon="16.498245"><ele>814.0</ele><time>2026-04-07T14:10:18.354Z</time></trkpt><trkpt lat="38.9789583" lon="16.498255"><ele>810.0</ele><time>2026-04-07T14:10:19.355Z</time></trkpt><trkpt lat="38.978815" lon="16.4982567"><ele>806.0</ele><time>2026-04-07T14:10:20.354Z</time></trkpt><trkpt lat="38.9786717" lon="16.4982517"><ele>802.0</ele><time>2026-04-07T14:10:21.354Z</time></trkpt><trkpt lat="38.9785267" lon="16.4982333"><ele>802.0</ele><time>2026-04-07T14:10:22.355Z</time></trkpt><trkpt lat="38.9783817" lon="16.4982167"><ele>802.0</ele><time>2026-04-07T14:10:23.354Z</time></trkpt><trkpt lat="38.9782483" lon="16.4981933"><ele>802.0</ele><time>2026-04-07T14:10:24.355Z</time></trkpt><trkpt lat="38.9778867" lon="16.49814"><ele>802.2</ele><time>2026-04-07T14:10:27.354Z</time></trkpt><trkpt lat="38.97778" lon="16.4981133"><ele>802.4000000000001</ele><time>2026-04-07T14:10:28.355Z</time></trkpt><trkpt lat="38.9776683" lon="16.49807"><ele>802.5999999999999</ele><time>2026-04-07T14:10:29.355Z</time></trkpt><trkpt lat="38.9775583" lon="16.4980083"><ele>802.8</ele><time>2026-04-07T14:10:30.355Z</time></trkpt><trkpt lat="38.9774633" lon="16.497955"><ele>803.0</ele><time>2026-04-07T14:10:31.354Z</time></trkpt><trkpt lat="38.977355" lon="16.497925"><ele>805.25</ele><time>2026-04-07T14:10:32.354Z</time></trkpt><trkpt lat="38.97725" lon="16.4979233"><ele>807.5</ele><time>2026-04-07T14:10:33.354Z</time></trkpt><trkpt lat="38.9771433" lon="16.4979333"><ele>809.75</ele><time>2026-04-07T14:10:34.354Z</time></trkpt><trkpt lat="38.977025" lon="16.4979617"><ele>812.0</ele><time>2026-04-07T14:10:35.354Z</time></trkpt><trkpt lat="38.9769017" lon="16.4979833"><ele>812.0</ele><time>2026-04-07T14:10:36.355Z</time></trkpt><trkpt lat="38.9767817" lon="16.4979933"><ele>812.0</ele><time>2026-04-07T14:10:37.354Z</time></trkpt><trkpt lat="38.97668" lon="16.4979733"><ele>812.0</ele><time>2026-04-07T14:10:38.354Z</time></trkpt><trkpt lat="38.9765767" lon="16.4979083"><ele>812.0</ele><time>2026-04-07T14:10:39.353Z</time></trkpt><trkpt lat="38.9764683" lon="16.4978267"><ele>803.25</ele><time>2026-04-07T14:10:40.353Z</time></trkpt><trkpt lat="38.9763617" lon="16.497765"><ele>794.5</ele><time>2026-04-07T14:10:41.354Z</time></trkpt><trkpt lat="38.9762433" lon="16.497715"><ele>785.75</ele><time>2026-04-07T14:10:42.354Z</time></trkpt><trkpt lat="38.976125" lon="16.4976783"><ele>777.0</ele><time>2026-04-07T14:10:43.353Z</time></trkpt><trkpt lat="38.976005" lon="16.49766"><ele>777.0</ele><time>2026-04-07T14:10:44.353Z</time></trkpt><trkpt lat="38.9758783" lon="16.4976367"><ele>777.0</ele><time>2026-04-07T14:10:45.353Z</time></trkpt><trkpt lat="38.975755" lon="16.4976367"><ele>777.0</ele><time>2026-04-07T14:10:46.354Z</time></trkpt><trkpt lat="38.9756367" lon="16.4976667"><ele>777.0</ele><time>2026-04-07T14:10:47.353Z</time></trkpt><trkpt lat="38.97553" lon="16.4977217"><ele>778.75</ele><time>2026-04-07T14:10:48.353Z</time></trkpt><trkpt lat="38.975425" lon="16.49781"><ele>780.5</ele><time>2026-04-07T14:10:49.353Z</time></trkpt><trkpt lat="38.9753083" lon="16.497905"><ele>782.25</ele><time>2026-04-07T14:10:50.354Z</time></trkpt><trkpt lat="38.975195" lon="16.49798"><ele>784.0</ele><time>2026-04-07T14:10:51.354Z</time></trkpt><trkpt lat="38.9750767" lon="16.498035"><ele>785.75</ele><time>2026-04-07T14:10:52.353Z</time></trkpt><trkpt lat="38.9749533" lon="16.4980983"><ele>787.5</ele><time>2026-04-07T14:10:53.354Z</time></trkpt><trkpt lat="38.97485" lon="16.498175"><ele>789.25</ele><time>2026-04-07T14:10:54.354Z</time></trkpt><trkpt lat="38.9747583" lon="16.49827"><ele>791.0</ele><time>2026-04-07T14:10:55.353Z</time></trkpt><trkpt lat="38.9746783" lon="16.4983783"><ele>791.0</ele><time>2026-04-07T14:10:56.354Z</time></trkpt><trkpt lat="38.9746033" lon="16.4985033"><ele>791.0</ele><time>2026-04-07T14:10:57.353Z</time></trkpt><trkpt lat="38.9745333" lon="16.4986333"><ele>791.0</ele><time>2026-04-07T14:10:58.353Z</time></trkpt><trkpt lat="38.9744783" lon="16.4987633"><ele>791.0</ele><time>2026-04-07T14:10:59.353Z</time></trkpt><trkpt lat="38.9744283" lon="16.4988867"><ele>789.1666666666667</ele><time>2026-04-07T14:11:00.354Z</time></trkpt><trkpt lat="38.9743767" lon="16.499"><ele>787.3333333333334</ele><time>2026-04-07T14:11:01.353Z</time></trkpt><trkpt lat="38.9743217" lon="16.4990917"><ele>785.5</ele><time>2026-04-07T14:11:02.353Z</time></trkpt><trkpt lat="38.974255" lon="16.4991667"><ele>783.6666666666667</ele><time>2026-04-07T14:11:03.353Z</time></trkpt><trkpt lat="38.9741817" lon="16.4992167"><ele>781.8333333333334</ele><time>2026-04-07T14:11:04.354Z</time></trkpt><trkpt lat="38.9740983" lon="16.4992383"><ele>780.0</ele><time>2026-04-07T14:11:05.354Z</time></trkpt><trkpt lat="38.9740183" lon="16.4992333"><ele>780.0</ele><time>2026-04-07T14:11:06.353Z</time></trkpt><trkpt lat="38.97393" lon="16.4992467"><ele>780.0</ele><time>2026-04-07T14:11:07.354Z</time></trkpt><trkpt lat="38.9738483" lon="16.499295"><ele>780.0</ele><time>2026-04-07T14:11:08.354Z</time></trkpt><trkpt lat="38.9737667" lon="16.499385"><ele>780.0</ele><time>2026-04-07T14:11:09.354Z</time></trkpt><trkpt lat="38.9737" lon="16.4994967"><ele>780.0</ele><time>2026-04-07T14:11:10.354Z</time></trkpt><trkpt lat="38.9736617" lon="16.4996167"><ele>784.2</ele><time>2026-04-07T14:11:11.354Z</time></trkpt><trkpt lat="38.973625" lon="16.4997533"><ele>788.4</ele><time>2026-04-07T14:11:12.353Z</time></trkpt><trkpt lat="38.9735917" lon="16.4998867"><ele>792.5999999999999</ele><time>2026-04-07T14:11:13.354Z</time></trkpt><trkpt lat="38.9735633" lon="16.50001"><ele>796.8</ele><time>2026-04-07T14:11:14.354Z</time></trkpt><trkpt lat="38.9735383" lon="16.50013"><ele>801.0</ele><time>2026-04-07T14:11:15.353Z</time></trkpt><trkpt lat="38.973505" lon="16.5002433"><ele>801.0</ele><time>2026-04-07T14:11:16.353Z</time></trkpt><trkpt lat="38.97349" lon="16.5003833"><ele>801.0</ele><time>2026-04-07T14:11:17.353Z</time></trkpt><trkpt lat="38.9734183" lon="16.5004867"><ele>801.0</ele><time>2026-04-07T14:11:18.353Z</time></trkpt><trkpt lat="38.97333" lon="16.5005833"><ele>801.0</ele><time>2026-04-07T14:11:19.354Z</time></trkpt><trkpt lat="38.9732383" lon="16.5006667"><ele>801.0</ele><time>2026-04-07T14:11:20.353Z</time></trkpt><trkpt lat="38.9731433" lon="16.5007483"><ele>799.25</ele><time>2026-04-07T14:11:21.353Z</time></trkpt><trkpt lat="38.9730583" lon="16.5008483"><ele>797.5</ele><time>2026-04-07T14:11:22.353Z</time></trkpt><trkpt lat="38.9729817" lon="16.5009533"><ele>795.75</ele><time>2026-04-07T14:11:23.354Z</time></trkpt><trkpt lat="38.9729033" lon="16.50107"><ele>794.0</ele><time>2026-04-07T14:11:24.353Z</time></trkpt><trkpt lat="38.9728267" lon="16.50119"><ele>793.5</ele><time>2026-04-07T14:11:25.354Z</time></trkpt><trkpt lat="38.97273" lon="16.5013017"><ele>793.0</ele><time>2026-04-07T14:11:26.354Z</time></trkpt><trkpt lat="38.9726283" lon="16.5013833"><ele>792.5</ele><time>2026-04-07T14:11:27.354Z</time></trkpt><trkpt lat="38.972515" lon="16.5014267"><ele>792.0</ele><time>2026-04-07T14:11:28.353Z</time></trkpt><trkpt lat="38.9723867" lon="16.5014333"><ele>792.0</ele><time>2026-04-07T14:11:29.354Z</time></trkpt><trkpt lat="38.9722517" lon="16.5014183"><ele>792.0</ele><time>2026-04-07T14:11:30.353Z</time></trkpt><trkpt lat="38.9721083" lon="16.50141"><ele>792.0</ele><time>2026-04-07T14:11:31.353Z</time></trkpt><trkpt lat="38.97196" lon="16.501405"><ele>792.0</ele><time>2026-04-07T14:11:32.353Z</time></trkpt><trkpt lat="38.9718167" lon="16.5014167"><ele>790.0</ele><time>2026-04-07T14:11:33.353Z</time></trkpt><trkpt lat="38.9716767" lon="16.50144"><ele>788.0</ele><time>2026-04-07T14:11:34.354Z</time></trkpt><trkpt lat="38.971545" lon="16.5014883"><ele>786.0</ele><time>2026-04-07T14:11:35.353Z</time></trkpt><trkpt lat="38.9714017" lon="16.501535"><ele>784.0</ele><time>2026-04-07T14:11:36.354Z</time></trkpt><trkpt lat="38.9712567" lon="16.50158"><ele>784.0</ele><time>2026-04-07T14:11:37.354Z</time></trkpt><trkpt lat="38.971125" lon="16.5016133"><ele>784.0</ele><time>2026-04-07T14:11:38.354Z</time></trkpt><trkpt lat="38.970985" lon="16.5016317"><ele>784.0</ele><time>2026-04-07T14:11:39.353Z</time></trkpt><trkpt lat="38.9708517" lon="16.50165"><ele>784.0</ele><time>2026-04-07T14:11:40.354Z</time></trkpt><trkpt lat="38.9707333" lon="16.5016783"><ele>782.8000000000001</ele><time>2026-04-07T14:11:41.353Z</time></trkpt><trkpt lat="38.9706233" lon="16.5017117"><ele>781.6</ele><time>2026-04-07T14:11:42.353Z</time></trkpt><trkpt lat="38.9705217" lon="16.50176"><ele>780.4</ele><time>2026-04-07T14:11:43.354Z</time></trkpt><trkpt lat="38.9704167" lon="16.50181"><ele>779.2</ele><time>2026-04-07T14:11:44.353Z</time></trkpt><trkpt lat="38.9703183" lon="16.5018767"><ele>778.0</ele><time>2026-04-07T14:11:45.354Z</time></trkpt><trkpt lat="38.970215" lon="16.50195"><ele>778.0</ele><time>2026-04-07T14:11:46.354Z</time></trkpt><trkpt lat="38.9701133" lon="16.5020317"><ele>778.0</ele><time>2026-04-07T14:11:47.354Z</time></trkpt><trkpt lat="38.970015" lon="16.5021033"><ele>778.0</ele><time>2026-04-07T14:11:48.354Z</time></trkpt><trkpt lat="38.9699283" lon="16.5021483"><ele>778.0</ele><time>2026-04-07T14:11:49.353Z</time></trkpt><trkpt lat="38.9698367" lon="16.5021517"><ele>778.0</ele><time>2026-04-07T14:11:50.354Z</time></trkpt><trkpt lat="38.9697467" lon="16.5021083"><ele>773.75</ele><time>2026-04-07T14:11:51.354Z</time></trkpt><trkpt lat="38.969665" lon="16.5020017"><ele>769.5</ele><time>2026-04-07T14:11:52.353Z</time></trkpt><trkpt lat="38.96958" lon="16.5018433"><ele>765.25</ele><time>2026-04-07T14:11:53.354Z</time></trkpt><trkpt lat="38.96948" lon="16.5016967"><ele>761.0</ele><time>2026-04-07T14:11:54.354Z</time></trkpt><trkpt lat="38.96939" lon="16.5016017"><ele>761.0</ele><time>2026-04-07T14:11:55.354Z</time></trkpt><trkpt lat="38.9692917" lon="16.5015483"><ele>761.0</ele><time>2026-04-07T14:11:56.353Z</time></trkpt><trkpt lat="38.96918" lon="16.50154"><ele>761.0</ele><time>2026-04-07T14:11:57.354Z</time></trkpt><trkpt lat="38.9690533" lon="16.50156"><ele>761.0</ele><time>2026-04-07T14:11:58.354Z</time></trkpt><trkpt lat="38.9688883" lon="16.501595"><ele>762.0</ele><time>2026-04-07T14:11:59.354Z</time></trkpt><trkpt lat="38.9686733" lon="16.50162"><ele>763.0</ele><time>2026-04-07T14:12:00.354Z</time></trkpt><trkpt lat="38.9684333" lon="16.5016217"><ele>760.3333333333334</ele><time>2026-04-07T14:12:01.353Z</time></trkpt><trkpt lat="38.9682183" lon="16.5016267"><ele>757.6666666666666</ele><time>2026-04-07T14:12:02.354Z</time></trkpt><trkpt lat="38.9680033" lon="16.5016433"><ele>755.0</ele><time>2026-04-07T14:12:03.353Z</time></trkpt><trkpt lat="38.9678083" lon="16.5017"><ele>755.0</ele><time>2026-04-07T14:12:04.353Z</time></trkpt><trkpt lat="38.9676383" lon="16.501755"><ele>755.0</ele><time>2026-04-07T14:12:05.353Z</time></trkpt><trkpt lat="38.9675017" lon="16.50183"><ele>755.0</ele><time>2026-04-07T14:12:06.353Z</time></trkpt><trkpt lat="38.9673917" lon="16.501935"><ele>754.25</ele><time>2026-04-07T14:12:07.354Z</time></trkpt><trkpt lat="38.96732" lon="16.5020717"><ele>753.5</ele><time>2026-04-07T14:12:08.354Z</time></trkpt><trkpt lat="38.9672967" lon="16.5022517"><ele>752.75</ele><time>2026-04-07T14:12:09.353Z</time></trkpt><trkpt lat="38.9673117" lon="16.5024683"><ele>752.0</ele><time>2026-04-07T14:12:10.353Z</time></trkpt><trkpt lat="38.967355" lon="16.5026817"><ele>752.0</ele><time>2026-04-07T14:12:11.353Z</time></trkpt><trkpt lat="38.9673983" lon="16.5028667"><ele>752.0</ele><time>2026-04-07T14:12:12.354Z</time></trkpt><trkpt lat="38.967435" lon="16.5030183"><ele>752.0</ele><time>2026-04-07T14:12:13.353Z</time></trkpt><trkpt lat="38.9674367" lon="16.5031467"><ele>752.0</ele><time>2026-04-07T14:12:14.353Z</time></trkpt><trkpt lat="38.9674183" lon="16.503235"><ele>752.0</ele><time>2026-04-07T14:12:15.353Z</time></trkpt><trkpt lat="38.9673667" lon="16.5033033"><ele>754.5</ele><time>2026-04-07T14:12:16.353Z</time></trkpt><trkpt lat="38.967285" lon="16.5033417"><ele>757.0</ele><time>2026-04-07T14:12:17.353Z</time></trkpt><trkpt lat="38.96716" lon="16.5033517"><ele>759.5</ele><time>2026-04-07T14:12:18.354Z</time></trkpt><trkpt lat="38.9669883" lon="16.5033083"><ele>762.0</ele><time>2026-04-07T14:12:19.353Z</time></trkpt><trkpt lat="38.966805" lon="16.50329"><ele>753.0</ele><time>2026-04-07T14:12:20.354Z</time></trkpt><trkpt lat="38.9666167" lon="16.5033183"><ele>744.0</ele><time>2026-04-07T14:12:21.353Z</time></trkpt><trkpt lat="38.96645" lon="16.5033817"><ele>735.0</ele><time>2026-04-07T14:12:22.353Z</time></trkpt><trkpt lat="38.9663167" lon="16.5034333"><ele>735.0</ele><time>2026-04-07T14:12:23.353Z</time></trkpt><trkpt lat="38.9662017" lon="16.5034333"><ele>735.0</ele><time>2026-04-07T14:12:24.353Z</time></trkpt><trkpt lat="38.9660933" lon="16.503375"><ele>735.0</ele><time>2026-04-07T14:12:25.354Z</time></trkpt><trkpt lat="38.9659933" lon="16.503275"><ele>735.0</ele><time>2026-04-07T14:12:26.354Z</time></trkpt><trkpt lat="38.965895" lon="16.5032017"><ele>733.0</ele><time>2026-04-07T14:12:27.353Z</time></trkpt><trkpt lat="38.9657983" lon="16.503185"><ele>731.0</ele><time>2026-04-07T14:12:28.353Z</time></trkpt><trkpt lat="38.9656917" lon="16.503245"><ele>729.0</ele><time>2026-04-07T14:12:29.353Z</time></trkpt><trkpt lat="38.965595" lon="16.5033717"><ele>727.0</ele><time>2026-04-07T14:12:30.354Z</time></trkpt><trkpt lat="38.9654817" lon="16.5035333"><ele>727.0</ele><time>2026-04-07T14:12:31.354Z</time></trkpt><trkpt lat="38.965355" lon="16.5037067"><ele>727.0</ele><time>2026-04-07T14:12:32.354Z</time></trkpt><trkpt lat="38.9652183" lon="16.503875"><ele>727.0</ele><time>2026-04-07T14:12:33.353Z</time></trkpt><trkpt lat="38.965085" lon="16.5040083"><ele>726.0</ele><time>2026-04-07T14:12:34.354Z</time></trkpt><trkpt lat="38.964955" lon="16.504135"><ele>725.0</ele><time>2026-04-07T14:12:35.354Z</time></trkpt><trkpt lat="38.964865" lon="16.5042533"><ele>724.0</ele><time>2026-04-07T14:12:36.354Z</time></trkpt><trkpt lat="38.9648" lon="16.504385"><ele>723.0</ele><time>2026-04-07T14:12:37.353Z</time></trkpt><trkpt lat="38.9647667" lon="16.50453"><ele>723.75</ele><time>2026-04-07T14:12:38.353Z</time></trkpt><trkpt lat="38.96477" lon="16.504705"><ele>724.5</ele><time>2026-04-07T14:12:39.353Z</time></trkpt><trkpt lat="38.9648067" lon="16.5048883"><ele>725.25</ele><time>2026-04-07T14:12:40.353Z</time></trkpt><trkpt lat="38.9648683" lon="16.5050783"><ele>726.0</ele><time>2026-04-07T14:12:41.354Z</time></trkpt><trkpt lat="38.9649133" lon="16.5052633"><ele>726.0</ele><time>2026-04-07T14:12:42.354Z</time></trkpt><trkpt lat="38.9649333" lon="16.5054433"><ele>726.0</ele><time>2026-04-07T14:12:43.353Z</time></trkpt><trkpt lat="38.9649417" lon="16.5056283"><ele>726.0</ele><time>2026-04-07T14:12:44.354Z</time></trkpt><trkpt lat="38.96493" lon="16.5058"><ele>726.0</ele><time>2026-04-07T14:12:45.353Z</time></trkpt><trkpt lat="38.96489" lon="16.50594"><ele>726.0</ele><time>2026-04-07T14:12:46.353Z</time></trkpt><trkpt lat="38.9648283" lon="16.50605"><ele>726.0</ele><time>2026-04-07T14:12:47.353Z</time></trkpt><trkpt lat="38.9647267" lon="16.5061633"><ele>726.0</ele><time>2026-04-07T14:12:48.353Z</time></trkpt><trkpt lat="38.96461" lon="16.50629"><ele>726.0</ele><time>2026-04-07T14:12:49.353Z</time></trkpt><trkpt lat="38.9645067" lon="16.506475"><ele>730.6666666666666</ele><time>2026-04-07T14:12:50.353Z</time></trkpt><trkpt lat="38.9644167" lon="16.5066933"><ele>735.3333333333333</ele><time>2026-04-07T14:12:51.353Z</time></trkpt><trkpt lat="38.9643233" lon="16.506925"><ele>740.0</ele><time>2026-04-07T14:12:52.353Z</time></trkpt><trkpt lat="38.9642167" lon="16.507165"><ele>733.0</ele><time>2026-04-07T14:12:53.354Z</time></trkpt><trkpt lat="38.9641067" lon="16.5073917"><ele>726.0</ele><time>2026-04-07T14:12:54.354Z</time></trkpt><trkpt lat="38.9640083" lon="16.5075817"><ele>719.0</ele><time>2026-04-07T14:12:55.353Z</time></trkpt><trkpt lat="38.96391" lon="16.507735"><ele>719.0</ele><time>2026-04-07T14:12:56.353Z</time></trkpt><trkpt lat="38.9638217" lon="16.5078817"><ele>719.0</ele><time>2026-04-07T14:12:57.354Z</time></trkpt><trkpt lat="38.963735" lon="16.5080083"><ele>719.0</ele><time>2026-04-07T14:12:58.353Z</time></trkpt><trkpt lat="38.9636533" lon="16.508145"><ele>719.0</ele><time>2026-04-07T14:12:59.354Z</time></trkpt><trkpt lat="38.9635633" lon="16.5082783"><ele>722.0</ele><time>2026-04-07T14:13:00.353Z</time></trkpt><trkpt lat="38.9634717" lon="16.508405"><ele>725.0</ele><time>2026-04-07T14:13:01.354Z</time></trkpt><trkpt lat="38.9633617" lon="16.5085233"><ele>728.0</ele><time>2026-04-07T14:13:02.354Z</time></trkpt><trkpt lat="38.9632667" lon="16.5086283"><ele>731.0</ele><time>2026-04-07T14:13:03.354Z</time></trkpt><trkpt lat="38.9631517" lon="16.508725"><ele>726.75</ele><time>2026-04-07T14:13:04.354Z</time></trkpt><trkpt lat="38.9630217" lon="16.5088383"><ele>722.5</ele><time>2026-04-07T14:13:05.353Z</time></trkpt><trkpt lat="38.9628917" lon="16.5089467"><ele>718.25</ele><time>2026-04-07T14:13:06.353Z</time></trkpt><trkpt lat="38.96278" lon="16.5090417"><ele>714.0</ele><time>2026-04-07T14:13:07.354Z</time></trkpt><trkpt lat="38.962685" lon="16.5091433"><ele>714.0</ele><time>2026-04-07T14:13:08.353Z</time></trkpt><trkpt lat="38.9625983" lon="16.5092517"><ele>714.0</ele><time>2026-04-07T14:13:09.354Z</time></trkpt><trkpt lat="38.9625417" lon="16.5093733"><ele>714.0</ele><time>2026-04-07T14:13:10.354Z</time></trkpt><trkpt lat="38.96251" lon="16.5094983"><ele>714.0</ele><time>2026-04-07T14:13:11.353Z</time></trkpt><trkpt lat="38.96249" lon="16.5096267"><ele>714.0</ele><time>2026-04-07T14:13:12.353Z</time></trkpt><trkpt lat="38.962465" lon="16.5097417"><ele>712.0</ele><time>2026-04-07T14:13:13.354Z</time></trkpt><trkpt lat="38.9624233" lon="16.5098433"><ele>710.0</ele><time>2026-04-07T14:13:14.353Z</time></trkpt><trkpt lat="38.9623617" lon="16.5099283"><ele>708.0</ele><time>2026-04-07T14:13:15.354Z</time></trkpt><trkpt lat="38.962195" lon="16.5100367"><ele>706.0</ele><time>2026-04-07T14:13:17.354Z</time></trkpt><trkpt lat="38.9621033" lon="16.5100667"><ele>706.0</ele><time>2026-04-07T14:13:18.354Z</time></trkpt><trkpt lat="38.9620067" lon="16.5101067"><ele>706.0</ele><time>2026-04-07T14:13:19.353Z</time></trkpt><trkpt lat="38.961915" lon="16.5101633"><ele>706.0</ele><time>2026-04-07T14:13:20.353Z</time></trkpt><trkpt lat="38.961825" lon="16.51022"><ele>706.0</ele><time>2026-04-07T14:13:21.353Z</time></trkpt><trkpt lat="38.9617467" lon="16.510275"><ele>706.0</ele><time>2026-04-07T14:13:22.353Z</time></trkpt><trkpt lat="38.96168" lon="16.51032"><ele>706.0</ele><time>2026-04-07T14:13:23.353Z</time></trkpt><trkpt lat="38.96159" lon="16.510375"><ele>706.0</ele><time>2026-04-07T14:13:25.353Z</time></trkpt><trkpt lat="38.9616533" lon="16.5103583"><ele>706.0</ele><time>2026-04-07T14:14:48.353Z</time></trkpt><trkpt lat="38.9617067" lon="16.5102917"><ele>706.0</ele><time>2026-04-07T14:14:50.354Z</time></trkpt><trkpt lat="38.9618033" lon="16.510225"><ele>706.0</ele><time>2026-04-07T14:14:52.353Z</time></trkpt><trkpt lat="38.9619083" lon="16.51016"><ele>706.0</ele><time>2026-04-07T14:14:54.353Z</time></trkpt><trkpt lat="38.96198" lon="16.5101167"><ele>706.0</ele><time>2026-04-07T14:14:55.354Z</time></trkpt><trkpt lat="38.9620817" lon="16.510075"><ele>706.0</ele><time>2026-04-07T14:14:56.353Z</time></trkpt><trkpt lat="38.9622017" lon="16.5100267"><ele>706.0</ele><time>2026-04-07T14:14:57.354Z</time></trkpt><trkpt lat="38.9623183" lon="16.5099633"><ele>706.0</ele><time>2026-04-07T14:14:58.354Z</time></trkpt><trkpt lat="38.96242" lon="16.5098833"><ele>706.0</ele><time>2026-04-07T14:14:59.353Z</time></trkpt><trkpt lat="38.9625067" lon="16.5097433"><ele>706.0</ele><time>2026-04-07T14:15:00.354Z</time></trkpt><trkpt lat="38.9625617" lon="16.5095917"><ele>706.0</ele><time>2026-04-07T14:15:01.354Z</time></trkpt><trkpt lat="38.9625917" lon="16.5094333"><ele>706.0</ele><time>2026-04-07T14:15:02.354Z</time></trkpt><trkpt lat="38.96264" lon="16.50929"><ele>708.0</ele><time>2026-04-07T14:15:03.354Z</time></trkpt><trkpt lat="38.9627033" lon="16.509165"><ele>710.0</ele><time>2026-04-07T14:15:04.353Z</time></trkpt><trkpt lat="38.9627967" lon="16.5090367"><ele>712.0</ele><time>2026-04-07T14:15:05.354Z</time></trkpt><trkpt lat="38.96291" lon="16.5089133"><ele>714.0</ele><time>2026-04-07T14:15:06.354Z</time></trkpt><trkpt lat="38.963035" lon="16.5088083"><ele>710.6666666666666</ele><time>2026-04-07T14:15:07.353Z</time></trkpt><trkpt lat="38.96317" lon="16.5087067"><ele>707.3333333333333</ele><time>2026-04-07T14:15:08.354Z</time></trkpt><trkpt lat="38.96331" lon="16.5085967"><ele>704.0</ele><time>2026-04-07T14:15:09.354Z</time></trkpt><trkpt lat="38.96343" lon="16.50847"><ele>713.0</ele><time>2026-04-07T14:15:10.353Z</time></trkpt><trkpt lat="38.9635533" lon="16.5083217"><ele>722.0</ele><time>2026-04-07T14:15:11.353Z</time></trkpt><trkpt lat="38.9636617" lon="16.5081583"><ele>731.0</ele><time>2026-04-07T14:15:12.354Z</time></trkpt><trkpt lat="38.9637617" lon="16.507995"><ele>728.0</ele><time>2026-04-07T14:15:13.354Z</time></trkpt><trkpt lat="38.9638617" lon="16.5078417"><ele>725.0</ele><time>2026-04-07T14:15:14.353Z</time></trkpt><trkpt lat="38.963945" lon="16.5076917"><ele>722.0</ele><time>2026-04-07T14:15:15.354Z</time></trkpt><trkpt lat="38.96403" lon="16.5075417"><ele>719.0</ele><time>2026-04-07T14:15:16.353Z</time></trkpt><trkpt lat="38.9641217" lon="16.5073817"><ele>726.0</ele><time>2026-04-07T14:15:17.354Z</time></trkpt><trkpt lat="38.964215" lon="16.5072"><ele>733.0</ele><time>2026-04-07T14:15:18.353Z</time></trkpt><trkpt lat="38.964295" lon="16.5070183"><ele>740.0</ele><time>2026-04-07T14:15:19.353Z</time></trkpt><trkpt lat="38.9643717" lon="16.50683"><ele>740.0</ele><time>2026-04-07T14:15:20.353Z</time></trkpt><trkpt lat="38.9644417" lon="16.506655"><ele>740.0</ele><time>2026-04-07T14:15:21.353Z</time></trkpt><trkpt lat="38.9645133" lon="16.506485"><ele>740.0</ele><time>2026-04-07T14:15:22.353Z</time></trkpt><trkpt lat="38.9645917" lon="16.5063233"><ele>736.5</ele><time>2026-04-07T14:15:23.353Z</time></trkpt><trkpt lat="38.9646717" lon="16.5061967"><ele>733.0</ele><time>2026-04-07T14:15:24.354Z</time></trkpt><trkpt lat="38.9647617" lon="16.5060983"><ele>729.5</ele><time>2026-04-07T14:15:25.353Z</time></trkpt><trkpt lat="38.9648533" lon="16.505995"><ele>726.0</ele><time>2026-04-07T14:15:26.353Z</time></trkpt><trkpt lat="38.9649183" lon="16.5058867"><ele>726.0</ele><time>2026-04-07T14:15:27.354Z</time></trkpt><trkpt lat="38.964955" lon="16.5057633"><ele>726.0</ele><time>2026-04-07T14:15:28.353Z</time></trkpt><trkpt lat="38.9649683" lon="16.5056183"><ele>726.0</ele><time>2026-04-07T14:15:29.353Z</time></trkpt><trkpt lat="38.9649617" lon="16.5054583"><ele>726.0</ele><time>2026-04-07T14:15:30.354Z</time></trkpt><trkpt lat="38.9649367" lon="16.505275"><ele>726.0</ele><time>2026-04-07T14:15:31.354Z</time></trkpt><trkpt lat="38.9648883" lon="16.5050833"><ele>726.0</ele><time>2026-04-07T14:15:32.353Z</time></trkpt><trkpt lat="38.9648317" lon="16.5049083"><ele>726.0</ele><time>2026-04-07T14:15:33.353Z</time></trkpt><trkpt lat="38.9647933" lon="16.50474"><ele>726.0</ele><time>2026-04-07T14:15:34.353Z</time></trkpt><trkpt lat="38.9647783" lon="16.5045617"><ele>725.25</ele><time>2026-04-07T14:15:35.354Z</time></trkpt><trkpt lat="38.9648133" lon="16.5044"><ele>724.5</ele><time>2026-04-07T14:15:36.354Z</time></trkpt><trkpt lat="38.964885" lon="16.50426"><ele>723.75</ele><time>2026-04-07T14:15:37.353Z</time></trkpt><trkpt lat="38.9649767" lon="16.5041167"><ele>723.0</ele><time>2026-04-07T14:15:38.354Z</time></trkpt><trkpt lat="38.9650983" lon="16.50398"><ele>724.3333333333334</ele><time>2026-04-07T14:15:39.354Z</time></trkpt><trkpt lat="38.9652483" lon="16.5038467"><ele>725.6666666666667</ele><time>2026-04-07T14:15:40.354Z</time></trkpt><trkpt lat="38.9653833" lon="16.5036867"><ele>727.0</ele><time>2026-04-07T14:15:41.353Z</time></trkpt><trkpt lat="38.9655183" lon="16.5035167"><ele>727.0</ele><time>2026-04-07T14:15:42.354Z</time></trkpt><trkpt lat="38.96564" lon="16.503365"><ele>727.0</ele><time>2026-04-07T14:15:43.353Z</time></trkpt><trkpt lat="38.96575" lon="16.5032517"><ele>727.0</ele><time>2026-04-07T14:15:44.353Z</time></trkpt><trkpt lat="38.9658617" lon="16.5032067"><ele>727.0</ele><time>2026-04-07T14:15:45.353Z</time></trkpt><trkpt lat="38.9659733" lon="16.5032333"><ele>729.0</ele><time>2026-04-07T14:15:46.353Z</time></trkpt><trkpt lat="38.966065" lon="16.503325"><ele>731.0</ele><time>2026-04-07T14:15:47.353Z</time></trkpt><trkpt lat="38.9661533" lon="16.5034283"><ele>733.0</ele><time>2026-04-07T14:15:48.354Z</time></trkpt><trkpt lat="38.96625" lon="16.50349"><ele>735.0</ele><time>2026-04-07T14:15:49.353Z</time></trkpt><trkpt lat="38.9663583" lon="16.503485"><ele>735.0</ele><time>2026-04-07T14:15:50.354Z</time></trkpt><trkpt lat="38.9664833" lon="16.503425"><ele>735.0</ele><time>2026-04-07T14:15:51.353Z</time></trkpt><trkpt lat="38.9666283" lon="16.50334"><ele>735.0</ele><time>2026-04-07T14:15:52.353Z</time></trkpt><trkpt lat="38.9667883" lon="16.5032917"><ele>744.0</ele><time>2026-04-07T14:15:53.354Z</time></trkpt><trkpt lat="38.9669717" lon="16.5032967"><ele>753.0</ele><time>2026-04-07T14:15:54.354Z</time></trkpt><trkpt lat="38.9671483" lon="16.5033067"><ele>762.0</ele><time>2026-04-07T14:15:55.354Z</time></trkpt><trkpt lat="38.9673" lon="16.5033133"><ele>762.0</ele><time>2026-04-07T14:15:56.354Z</time></trkpt><trkpt lat="38.9674133" lon="16.5032717"><ele>762.0</ele><time>2026-04-07T14:15:57.354Z</time></trkpt><trkpt lat="38.9674833" lon="16.5031967"><ele>762.0</ele><time>2026-04-07T14:15:58.354Z</time></trkpt><trkpt lat="38.9675083" lon="16.5030583"><ele>762.0</ele><time>2026-04-07T14:15:59.353Z</time></trkpt><trkpt lat="38.9675083" lon="16.5029133"><ele>762.0</ele><time>2026-04-07T14:16:00.354Z</time></trkpt><trkpt lat="38.96745" lon="16.502735"><ele>758.6666666666666</ele><time>2026-04-07T14:16:01.354Z</time></trkpt><trkpt lat="38.9673933" lon="16.5025267"><ele>755.3333333333333</ele><time>2026-04-07T14:16:02.354Z</time></trkpt><trkpt lat="38.9673583" lon="16.50233"><ele>752.0</ele><time>2026-04-07T14:16:03.353Z</time></trkpt><trkpt lat="38.9673817" lon="16.5021567"><ele>752.75</ele><time>2026-04-07T14:16:04.354Z</time></trkpt><trkpt lat="38.96744" lon="16.50201"><ele>753.5</ele><time>2026-04-07T14:16:05.353Z</time></trkpt><trkpt lat="38.96753" lon="16.5018867"><ele>754.25</ele><time>2026-04-07T14:16:06.354Z</time></trkpt><trkpt lat="38.967675" lon="16.5018"><ele>755.0</ele><time>2026-04-07T14:16:07.354Z</time></trkpt><trkpt lat="38.9678483" lon="16.5017417"><ele>755.0</ele><time>2026-04-07T14:16:08.353Z</time></trkpt><trkpt lat="38.968035" lon="16.5017133"><ele>755.0</ele><time>2026-04-07T14:16:09.354Z</time></trkpt><trkpt lat="38.9682367" lon="16.5017033"><ele>755.0</ele><time>2026-04-07T14:16:10.354Z</time></trkpt><trkpt lat="38.9684517" lon="16.5016917"><ele>757.6666666666666</ele><time>2026-04-07T14:16:11.354Z</time></trkpt><trkpt lat="38.9686767" lon="16.5016583"><ele>760.3333333333334</ele><time>2026-04-07T14:16:12.354Z</time></trkpt><trkpt lat="38.968895" lon="16.5016283"><ele>763.0</ele><time>2026-04-07T14:16:13.353Z</time></trkpt><trkpt lat="38.9690717" lon="16.5015917"><ele>762.5</ele><time>2026-04-07T14:16:14.353Z</time></trkpt><trkpt lat="38.96922" lon="16.5015717"><ele>762.0</ele><time>2026-04-07T14:16:15.354Z</time></trkpt><trkpt lat="38.9693517" lon="16.5015933"><ele>761.5</ele><time>2026-04-07T14:16:16.353Z</time></trkpt><trkpt lat="38.969475" lon="16.5017017"><ele>761.0</ele><time>2026-04-07T14:16:17.353Z</time></trkpt><trkpt lat="38.9695867" lon="16.50187"><ele>761.0</ele><time>2026-04-07T14:16:18.354Z</time></trkpt><trkpt lat="38.9696783" lon="16.5020467"><ele>761.0</ele><time>2026-04-07T14:16:19.353Z</time></trkpt><trkpt lat="38.9697767" lon="16.5021717"><ele>761.0</ele><time>2026-04-07T14:16:20.354Z</time></trkpt><trkpt lat="38.96987" lon="16.5022283"><ele>761.0</ele><time>2026-04-07T14:16:21.353Z</time></trkpt><trkpt lat="38.9699833" lon="16.5022017"><ele>766.6666666666666</ele><time>2026-04-07T14:16:22.354Z</time></trkpt><trkpt lat="38.9701067" lon="16.5021083"><ele>772.3333333333333</ele><time>2026-04-07T14:16:23.353Z</time></trkpt><trkpt lat="38.9702283" lon="16.50199"><ele>778.0</ele><time>2026-04-07T14:16:24.354Z</time></trkpt><trkpt lat="38.9703833" lon="16.5018733"><ele>778.0</ele><time>2026-04-07T14:16:25.354Z</time></trkpt><trkpt lat="38.9705617" lon="16.501775"><ele>778.0</ele><time>2026-04-07T14:16:26.353Z</time></trkpt><trkpt lat="38.9707617" lon="16.5016933"><ele>778.0</ele><time>2026-04-07T14:16:27.354Z</time></trkpt><trkpt lat="38.9709617" lon="16.5016433"><ele>780.0</ele><time>2026-04-07T14:16:28.353Z</time></trkpt><trkpt lat="38.9711567" lon="16.5016217"><ele>782.0</ele><time>2026-04-07T14:16:29.353Z</time></trkpt><trkpt lat="38.971355" lon="16.5015883"><ele>784.0</ele><time>2026-04-07T14:16:30.354Z</time></trkpt><trkpt lat="38.97155" lon="16.50152"><ele>786.6666666666666</ele><time>2026-04-07T14:16:31.353Z</time></trkpt><trkpt lat="38.9717383" lon="16.5014517"><ele>789.3333333333333</ele><time>2026-04-07T14:16:32.353Z</time></trkpt><trkpt lat="38.9719383" lon="16.5014067"><ele>792.0</ele><time>2026-04-07T14:16:33.354Z</time></trkpt><trkpt lat="38.9721367" lon="16.5014067"><ele>792.0</ele><time>2026-04-07T14:16:34.353Z</time></trkpt><trkpt lat="38.97233" lon="16.5014133"><ele>792.0</ele><time>2026-04-07T14:16:35.354Z</time></trkpt><trkpt lat="38.9724967" lon="16.50142"><ele>792.0</ele><time>2026-04-07T14:16:36.354Z</time></trkpt><trkpt lat="38.9726317" lon="16.5014"><ele>792.6666666666667</ele><time>2026-04-07T14:16:37.354Z</time></trkpt><trkpt lat="38.9727583" lon="16.5013183"><ele>793.3333333333334</ele><time>2026-04-07T14:16:38.353Z</time></trkpt><trkpt lat="38.972875" lon="16.5011683"><ele>794.0</ele><time>2026-04-07T14:16:39.353Z</time></trkpt><trkpt lat="38.9729867" lon="16.501"><ele>794.0</ele><time>2026-04-07T14:16:40.353Z</time></trkpt><trkpt lat="38.9730933" lon="16.5008117"><ele>794.0</ele><time>2026-04-07T14:16:41.353Z</time></trkpt><trkpt lat="38.973195" lon="16.5006633"><ele>794.0</ele><time>2026-04-07T14:16:42.354Z</time></trkpt><trkpt lat="38.973325" lon="16.5005467"><ele>796.3333333333334</ele><time>2026-04-07T14:16:43.354Z</time></trkpt><trkpt lat="38.9734367" lon="16.5004183"><ele>798.6666666666667</ele><time>2026-04-07T14:16:44.354Z</time></trkpt><trkpt lat="38.9735167" lon="16.5002483"><ele>801.0</ele><time>2026-04-07T14:16:45.354Z</time></trkpt><trkpt lat="38.9735833" lon="16.5000583"><ele>801.0</ele><time>2026-04-07T14:16:46.354Z</time></trkpt><trkpt lat="38.9736483" lon="16.4998517"><ele>801.0</ele><time>2026-04-07T14:16:47.354Z</time></trkpt><trkpt lat="38.9737033" lon="16.49967"><ele>801.0</ele><time>2026-04-07T14:16:48.353Z</time></trkpt><trkpt lat="38.9737583" lon="16.4994983"><ele>795.75</ele><time>2026-04-07T14:16:49.353Z</time></trkpt><trkpt lat="38.97383" lon="16.4993617"><ele>790.5</ele><time>2026-04-07T14:16:50.353Z</time></trkpt><trkpt lat="38.9739167" lon="16.4992683"><ele>785.25</ele><time>2026-04-07T14:16:51.353Z</time></trkpt><trkpt lat="38.9740333" lon="16.49922"><ele>780.0</ele><time>2026-04-07T14:16:52.353Z</time></trkpt><trkpt lat="38.974155" lon="16.4992167"><ele>789.5</ele><time>2026-04-07T14:16:53.354Z</time></trkpt><trkpt lat="38.97427" lon="16.499185"><ele>799.0</ele><time>2026-04-07T14:16:54.353Z</time></trkpt><trkpt lat="38.9743617" lon="16.4991"><ele>808.5</ele><time>2026-04-07T14:16:55.353Z</time></trkpt><trkpt lat="38.9744317" lon="16.4989717"><ele>818.0</ele><time>2026-04-07T14:16:56.354Z</time></trkpt><trkpt lat="38.9745017" lon="16.4988117"><ele>811.25</ele><time>2026-04-07T14:16:57.353Z</time></trkpt><trkpt lat="38.9745683" lon="16.49865"><ele>804.5</ele><time>2026-04-07T14:16:58.354Z</time></trkpt><trkpt lat="38.9746483" lon="16.4985017"><ele>797.75</ele><time>2026-04-07T14:16:59.353Z</time></trkpt><trkpt lat="38.974725" lon="16.4983767"><ele>791.0</ele><time>2026-04-07T14:17:00.353Z</time></trkpt><trkpt lat="38.9748" lon="16.4982633"><ele>791.0</ele><time>2026-04-07T14:17:01.353Z</time></trkpt><trkpt lat="38.974885" lon="16.4981733"><ele>791.0</ele><time>2026-04-07T14:17:02.354Z</time></trkpt><trkpt lat="38.97499" lon="16.4980967"><ele>791.0</ele><time>2026-04-07T14:17:03.353Z</time></trkpt><trkpt lat="38.9751183" lon="16.4980383"><ele>791.0</ele><time>2026-04-07T14:17:04.354Z</time></trkpt><trkpt lat="38.9752617" lon="16.49795"><ele>788.6666666666667</ele><time>2026-04-07T14:17:05.353Z</time></trkpt><trkpt lat="38.9754117" lon="16.4978467"><ele>786.3333333333333</ele><time>2026-04-07T14:17:06.354Z</time></trkpt><trkpt lat="38.97554" lon="16.49775"><ele>784.0</ele><time>2026-04-07T14:17:07.353Z</time></trkpt><trkpt lat="38.9756617" lon="16.4976883"><ele>784.0</ele><time>2026-04-07T14:17:08.353Z</time></trkpt><trkpt lat="38.97578" lon="16.497665"><ele>784.0</ele><time>2026-04-07T14:17:09.353Z</time></trkpt><trkpt lat="38.975905" lon="16.4976667"><ele>784.0</ele><time>2026-04-07T14:17:10.354Z</time></trkpt><trkpt lat="38.9760317" lon="16.497695"><ele>784.0</ele><time>2026-04-07T14:17:11.353Z</time></trkpt><trkpt lat="38.97617" lon="16.4977267"><ele>782.25</ele><time>2026-04-07T14:17:12.353Z</time></trkpt><trkpt lat="38.97631" lon="16.4977717"><ele>780.5</ele><time>2026-04-07T14:17:13.354Z</time></trkpt><trkpt lat="38.976445" lon="16.4978383"><ele>778.75</ele><time>2026-04-07T14:17:14.354Z</time></trkpt><trkpt lat="38.9765667" lon="16.49792"><ele>777.0</ele><time>2026-04-07T14:17:15.353Z</time></trkpt><trkpt lat="38.9766817" lon="16.4979933"><ele>785.75</ele><time>2026-04-07T14:17:16.354Z</time></trkpt><trkpt lat="38.9767967" lon="16.4980367"><ele>794.5</ele><time>2026-04-07T14:17:17.353Z</time></trkpt><trkpt lat="38.9769383" lon="16.4980317"><ele>803.25</ele><time>2026-04-07T14:17:18.353Z</time></trkpt><trkpt lat="38.9770933" lon="16.4979917"><ele>812.0</ele><time>2026-04-07T14:17:19.354Z</time></trkpt><trkpt lat="38.9772367" lon="16.497955"><ele>812.0</ele><time>2026-04-07T14:17:20.353Z</time></trkpt><trkpt lat="38.9773683" lon="16.4979517"><ele>812.0</ele><time>2026-04-07T14:17:21.353Z</time></trkpt><trkpt lat="38.9774983" lon="16.498"><ele>812.0</ele><time>2026-04-07T14:17:22.354Z</time></trkpt><trkpt lat="38.977625" lon="16.4980767"><ele>812.0</ele><time>2026-04-07T14:17:23.353Z</time></trkpt><trkpt lat="38.9777583" lon="16.4981567"><ele>809.0</ele><time>2026-04-07T14:17:24.353Z</time></trkpt><trkpt lat="38.97791" lon="16.4982033"><ele>806.0</ele><time>2026-04-07T14:17:25.353Z</time></trkpt><trkpt lat="38.9780883" lon="16.49823"><ele>803.0</ele><time>2026-04-07T14:17:26.354Z</time></trkpt><trkpt lat="38.9782883" lon="16.498245"><ele>802.5</ele><time>2026-04-07T14:17:27.353Z</time></trkpt><trkpt lat="38.97851" lon="16.4982683"><ele>802.0</ele><time>2026-04-07T14:17:28.353Z</time></trkpt><trkpt lat="38.9787467" lon="16.49829"><ele>802.0</ele><time>2026-04-07T14:17:29.353Z</time></trkpt><trkpt lat="38.978985" lon="16.4982967"><ele>802.0</ele><time>2026-04-07T14:17:30.354Z</time></trkpt><trkpt lat="38.9792317" lon="16.498275"><ele>810.0</ele><time>2026-04-07T14:17:31.353Z</time></trkpt><trkpt lat="38.97947" lon="16.49823"><ele>818.0</ele><time>2026-04-07T14:17:32.354Z</time></trkpt><trkpt lat="38.9796817" lon="16.4981917"><ele>818.0</ele><time>2026-04-07T14:17:33.353Z</time></trkpt><trkpt lat="38.97986" lon="16.4981733"><ele>818.0</ele><time>2026-04-07T14:17:34.354Z</time></trkpt><trkpt lat="38.98" lon="16.4981317"><ele>818.0</ele><time>2026-04-07T14:17:35.354Z</time></trkpt><trkpt lat="38.980115" lon="16.4980483"><ele>816.75</ele><time>2026-04-07T14:17:36.354Z</time></trkpt><trkpt lat="38.9802233" lon="16.49791"><ele>815.5</ele><time>2026-04-07T14:17:37.353Z</time></trkpt><trkpt lat="38.9803033" lon="16.4977483"><ele>814.25</ele><time>2026-04-07T14:17:38.354Z</time></trkpt><trkpt lat="38.98038" lon="16.4975983"><ele>813.0</ele><time>2026-04-07T14:17:39.353Z</time></trkpt><trkpt lat="38.98049" lon="16.4975033"><ele>813.0</ele><time>2026-04-07T14:17:40.354Z</time></trkpt><trkpt lat="38.9806383" lon="16.4974583"><ele>813.0</ele><time>2026-04-07T14:17:41.354Z</time></trkpt><trkpt lat="38.9808083" lon="16.497455"><ele>813.0</ele><time>2026-04-07T14:17:42.353Z</time></trkpt><trkpt lat="38.9809817" lon="16.4974583"><ele>812.0</ele><time>2026-04-07T14:17:43.353Z</time></trkpt><trkpt lat="38.9811533" lon="16.4974883"><ele>811.0</ele><time>2026-04-07T14:17:44.353Z</time></trkpt><trkpt lat="38.9813317" lon="16.4975667"><ele>810.0</ele><time>2026-04-07T14:17:45.354Z</time></trkpt><trkpt lat="38.981505" lon="16.4976617"><ele>810.0</ele><time>2026-04-07T14:17:46.354Z</time></trkpt><trkpt lat="38.9816617" lon="16.497755"><ele>810.0</ele><time>2026-04-07T14:17:47.353Z</time></trkpt><trkpt lat="38.9818067" lon="16.497835"><ele>810.0</ele><time>2026-04-07T14:17:48.353Z</time></trkpt><trkpt lat="38.98192" lon="16.4979283"><ele>809.25</ele><time>2026-04-07T14:17:49.353Z</time></trkpt><trkpt lat="38.9820067" lon="16.4980517"><ele>808.5</ele><time>2026-04-07T14:17:50.354Z</time></trkpt><trkpt lat="38.9820867" lon="16.4982033"><ele>807.75</ele><time>2026-04-07T14:17:51.354Z</time></trkpt><trkpt lat="38.9821533" lon="16.49838"><ele>807.0</ele><time>2026-04-07T14:17:52.353Z</time></trkpt><trkpt lat="38.9822133" lon="16.4985667"><ele>812.5</ele><time>2026-04-07T14:17:53.354Z</time></trkpt><trkpt lat="38.9822367" lon="16.4987567"><ele>818.0</ele><time>2026-04-07T14:17:54.353Z</time></trkpt><trkpt lat="38.9822533" lon="16.498945"><ele>823.5</ele><time>2026-04-07T14:17:55.353Z</time></trkpt><trkpt lat="38.9822633" lon="16.4991233"><ele>829.0</ele><time>2026-04-07T14:17:56.354Z</time></trkpt><trkpt lat="38.98231" lon="16.4992733"><ele>829.0</ele><time>2026-04-07T14:17:57.353Z</time></trkpt><trkpt lat="38.9823983" lon="16.499405"><ele>829.0</ele><time>2026-04-07T14:17:58.354Z</time></trkpt><trkpt lat="38.982525" lon="16.49951"><ele>829.0</ele><time>2026-04-07T14:17:59.353Z</time></trkpt><trkpt lat="38.9826783" lon="16.4996033"><ele>837.6666666666666</ele><time>2026-04-07T14:18:00.354Z</time></trkpt><trkpt lat="38.9828467" lon="16.4996733"><ele>846.3333333333333</ele><time>2026-04-07T14:18:01.353Z</time></trkpt><trkpt lat="38.9830267" lon="16.49971"><ele>855.0</ele><time>2026-04-07T14:18:02.354Z</time></trkpt><trkpt lat="38.9832083" lon="16.4997367"><ele>849.3333333333333</ele><time>2026-04-07T14:18:03.353Z</time></trkpt><trkpt lat="38.9833917" lon="16.499765"><ele>843.6666666666666</ele><time>2026-04-07T14:18:04.353Z</time></trkpt><trkpt lat="38.983535" lon="16.4997983"><ele>838.0</ele><time>2026-04-07T14:18:05.353Z</time></trkpt><trkpt lat="38.9836883" lon="16.49983"><ele>838.0</ele><time>2026-04-07T14:18:06.353Z</time></trkpt><trkpt lat="38.9838133" lon="16.49989"><ele>838.0</ele><time>2026-04-07T14:18:07.354Z</time></trkpt><trkpt lat="38.9839367" lon="16.4999617"><ele>838.0</ele><time>2026-04-07T14:18:08.354Z</time></trkpt><trkpt lat="38.9840483" lon="16.50007"><ele>838.0</ele><time>2026-04-07T14:18:09.353Z</time></trkpt><trkpt lat="38.9841417" lon="16.500185"><ele>832.6666666666666</ele><time>2026-04-07T14:18:10.354Z</time></trkpt><trkpt lat="38.98426" lon="16.50029"><ele>827.3333333333333</ele><time>2026-04-07T14:18:11.354Z</time></trkpt><trkpt lat="38.9843883" lon="16.5004033"><ele>822.0</ele><time>2026-04-07T14:18:12.353Z</time></trkpt><trkpt lat="38.98454" lon="16.5005133"><ele>825.0</ele><time>2026-04-07T14:18:13.353Z</time></trkpt><trkpt lat="38.9847117" lon="16.500625"><ele>828.0</ele><time>2026-04-07T14:18:14.353Z</time></trkpt><trkpt lat="38.984895" lon="16.500735"><ele>831.0</ele><time>2026-04-07T14:18:15.353Z</time></trkpt><trkpt lat="38.985045" lon="16.500835"><ele>831.0</ele><time>2026-04-07T14:18:16.353Z</time></trkpt><trkpt lat="38.9851833" lon="16.5009417"><ele>831.0</ele><time>2026-04-07T14:18:17.353Z</time></trkpt><trkpt lat="38.9853133" lon="16.50108"><ele>831.0</ele><time>2026-04-07T14:18:18.354Z</time></trkpt><trkpt lat="38.9854267" lon="16.5012417"><ele>839.3333333333333</ele><time>2026-04-07T14:18:19.353Z</time></trkpt><trkpt lat="38.98552" lon="16.5014183"><ele>847.6666666666666</ele><time>2026-04-07T14:18:20.354Z</time></trkpt><trkpt lat="38.9856117" lon="16.5015933"><ele>856.0</ele><time>2026-04-07T14:18:21.354Z</time></trkpt><trkpt lat="38.985715" lon="16.501745"><ele>856.0</ele><time>2026-04-07T14:18:22.353Z</time></trkpt><trkpt lat="38.9858383" lon="16.5018467"><ele>856.0</ele><time>2026-04-07T14:18:23.353Z</time></trkpt><trkpt lat="38.9859783" lon="16.5018667"><ele>856.0</ele><time>2026-04-07T14:18:24.353Z</time></trkpt><trkpt lat="38.9861483" lon="16.5018517"><ele>856.6666666666666</ele><time>2026-04-07T14:18:25.354Z</time></trkpt><trkpt lat="38.98633" lon="16.5018233"><ele>857.3333333333333</ele><time>2026-04-07T14:18:26.353Z</time></trkpt><trkpt lat="38.98653" lon="16.50181"><ele>858.0</ele><time>2026-04-07T14:18:27.354Z</time></trkpt><trkpt lat="38.98675" lon="16.5018117"><ele>858.0</ele><time>2026-04-07T14:18:28.353Z</time></trkpt><trkpt lat="38.986965" lon="16.5017933"><ele>858.0</ele><time>2026-04-07T14:18:29.353Z</time></trkpt><trkpt lat="38.9871833" lon="16.50174"><ele>858.0</ele><time>2026-04-07T14:18:30.353Z</time></trkpt><trkpt lat="38.9874033" lon="16.5016583"><ele>861.0</ele><time>2026-04-07T14:18:31.353Z</time></trkpt><trkpt lat="38.9876" lon="16.5015617"><ele>864.0</ele><time>2026-04-07T14:18:32.354Z</time></trkpt><trkpt lat="38.9877767" lon="16.501475"><ele>867.0</ele><time>2026-04-07T14:18:33.354Z</time></trkpt><trkpt lat="38.9879517" lon="16.5013983"><ele>867.0</ele><time>2026-04-07T14:18:34.354Z</time></trkpt><trkpt lat="38.9881233" lon="16.5013367"><ele>867.0</ele><time>2026-04-07T14:18:35.353Z</time></trkpt><trkpt lat="38.9883083" lon="16.5012983"><ele>867.0</ele><time>2026-04-07T14:18:36.354Z</time></trkpt><trkpt lat="38.988495" lon="16.50128"><ele>864.0</ele><time>2026-04-07T14:18:37.354Z</time></trkpt><trkpt lat="38.988685" lon="16.501245"><ele>861.0</ele><time>2026-04-07T14:18:38.354Z</time></trkpt><trkpt lat="38.9888767" lon="16.50117"><ele>858.0</ele><time>2026-04-07T14:18:39.353Z</time></trkpt><trkpt lat="38.9890667" lon="16.5010467"><ele>866.0</ele><time>2026-04-07T14:18:40.354Z</time></trkpt><trkpt lat="38.9892667" lon="16.5009033"><ele>874.0</ele><time>2026-04-07T14:18:41.353Z</time></trkpt><trkpt lat="38.9894667" lon="16.500755"><ele>874.0</ele><time>2026-04-07T14:18:42.354Z</time></trkpt><trkpt lat="38.9896583" lon="16.5006017"><ele>874.0</ele><time>2026-04-07T14:18:43.354Z</time></trkpt><trkpt lat="38.9898383" lon="16.5004383"><ele>874.0</ele><time>2026-04-07T14:18:44.353Z</time></trkpt><trkpt lat="38.990025" lon="16.5002633"><ele>873.0</ele><time>2026-04-07T14:18:45.353Z</time></trkpt><trkpt lat="38.9902133" lon="16.50007"><ele>872.0</ele><time>2026-04-07T14:18:46.353Z</time></trkpt><trkpt lat="38.99041" lon="16.49987"><ele>872.0</ele><time>2026-04-07T14:18:47.353Z</time></trkpt><trkpt lat="38.9906" lon="16.49967"><ele>872.0</ele><time>2026-04-07T14:18:48.354Z</time></trkpt><trkpt lat="38.9907633" lon="16.4994883"><ele>871.6666666666667</ele><time>2026-04-07T14:18:49.353Z</time></trkpt><trkpt lat="38.9908933" lon="16.4993383"><ele>871.3333333333333</ele><time>2026-04-07T14:18:50.354Z</time></trkpt><trkpt lat="38.9910183" lon="16.499205"><ele>871.0</ele><time>2026-04-07T14:18:51.353Z</time></trkpt><trkpt lat="38.991145" lon="16.4990883"><ele>871.0</ele><time>2026-04-07T14:18:52.354Z</time></trkpt><trkpt lat="38.99124" lon="16.4990033"><ele>870.9999999999999</ele><time>2026-04-07T14:18:53.353Z</time></trkpt><trkpt lat="38.9913083" lon="16.4989433"><ele>870.9999999999999</ele><time>2026-04-07T14:18:54.353Z</time></trkpt><trkpt lat="38.9914033" lon="16.4988917"><ele>871.0</ele><time>2026-04-07T14:18:56.354Z</time></trkpt><trkpt lat="38.9914267" lon="16.4989917"><ele>871.0</ele><time>2026-04-07T14:19:00.353Z</time></trkpt><trkpt lat="38.9913767" lon="16.4990883"><ele>870.9999999999999</ele><time>2026-04-07T14:19:02.353Z</time></trkpt><trkpt lat="38.991345" lon="16.49916"><ele>871.0</ele><time>2026-04-07T14:19:03.353Z</time></trkpt><trkpt lat="38.9913117" lon="16.4992417"><ele>871.0</ele><time>2026-04-07T14:19:04.353Z</time></trkpt><trkpt lat="38.9912683" lon="16.4993183"><ele>871.0</ele><time>2026-04-07T14:19:05.353Z</time></trkpt><trkpt lat="38.9912133" lon="16.4993967"><ele>870.9999999999999</ele><time>2026-04-07T14:19:06.353Z</time></trkpt><trkpt lat="38.9911533" lon="16.4994683"><ele>871.0</ele><time>2026-04-07T14:19:07.354Z</time></trkpt><trkpt lat="38.991075" lon="16.4995383"><ele>871.1666666666666</ele><time>2026-04-07T14:19:08.353Z</time></trkpt><trkpt lat="38.9910183" lon="16.499605"><ele>871.3333333333333</ele><time>2026-04-07T14:19:09.354Z</time></trkpt><trkpt lat="38.99096" lon="16.49967"><ele>871.5</ele><time>2026-04-07T14:19:10.353Z</time></trkpt><trkpt lat="38.9909033" lon="16.4997283"><ele>871.6666666666667</ele><time>2026-04-07T14:19:11.353Z</time></trkpt><trkpt lat="38.990855" lon="16.49979"><ele>871.8333333333334</ele><time>2026-04-07T14:19:12.353Z</time></trkpt><trkpt lat="38.99082" lon="16.4999033"><ele>872.0</ele><time>2026-04-07T14:19:14.354Z</time></trkpt><trkpt lat="38.99087" lon="16.49998"><ele>872.0000000000001</ele><time>2026-04-07T14:19:17.353Z</time></trkpt><trkpt lat="38.99093" lon="16.4999433"><ele>872.0</ele><time>2026-04-07T14:19:19.353Z</time></trkpt><trkpt lat="38.9910017" lon="16.499925"><ele>872.0</ele><time>2026-04-07T14:19:22.354Z</time></trkpt><trkpt lat="38.99097" lon="16.5000017"><ele>872.0</ele><time>2026-04-07T14:19:26.354Z</time></trkpt><trkpt lat="38.9908683" lon="16.5000217"><ele>872.0000000000001</ele><time>2026-04-07T14:19:29.354Z</time></trkpt><trkpt lat="38.9907683" lon="16.50006"><ele>872.0</ele><time>2026-04-07T14:19:31.354Z</time></trkpt><trkpt lat="38.99069" lon="16.5001267"><ele>872.0000000000001</ele><time>2026-04-07T14:19:33.353Z</time></trkpt><trkpt lat="38.9906467" lon="16.500225"><ele>872.0</ele><time>2026-04-07T14:19:35.353Z</time></trkpt><trkpt lat="38.9906117" lon="16.5003867"><ele>872.0</ele><time>2026-04-07T14:19:37.353Z</time></trkpt><trkpt lat="38.9905833" lon="16.500465"><ele>872.0</ele><time>2026-04-07T14:19:38.353Z</time></trkpt><trkpt lat="38.990545" lon="16.50054"><ele>872.0000000000001</ele><time>2026-04-07T14:19:39.353Z</time></trkpt><trkpt lat="38.9904883" lon="16.5006117"><ele>872.0</ele><time>2026-04-07T14:19:40.353Z</time></trkpt><trkpt lat="38.990435" lon="16.50069"><ele>875.8</ele><time>2026-04-07T14:19:41.353Z</time></trkpt><trkpt lat="38.9903767" lon="16.5007733"><ele>879.6</ele><time>2026-04-07T14:19:42.353Z</time></trkpt><trkpt lat="38.9903117" lon="16.50086"><ele>883.3999999999999</ele><time>2026-04-07T14:19:43.353Z</time></trkpt><trkpt lat="38.9902533" lon="16.50094"><ele>887.1999999999999</ele><time>2026-04-07T14:19:44.353Z</time></trkpt><trkpt lat="38.9901917" lon="16.5010283"><ele>891.0</ele><time>2026-04-07T14:19:45.353Z</time></trkpt><trkpt lat="38.99013" lon="16.501115"><ele>891.0</ele><time>2026-04-07T14:19:46.354Z</time></trkpt><trkpt lat="38.9900733" lon="16.5012"><ele>891.0</ele><time>2026-04-07T14:19:47.353Z</time></trkpt><trkpt lat="38.9900133" lon="16.5012867"><ele>891.0</ele><time>2026-04-07T14:19:48.353Z</time></trkpt><trkpt lat="38.9899517" lon="16.501375"><ele>891.0</ele><time>2026-04-07T14:19:49.354Z</time></trkpt><trkpt lat="38.9898867" lon="16.5014467"><ele>891.0</ele><time>2026-04-07T14:19:50.354Z</time></trkpt><trkpt lat="38.9898183" lon="16.50151"><ele>891.0</ele><time>2026-04-07T14:19:51.353Z</time></trkpt><trkpt lat="38.989755" lon="16.5015583"><ele>891.0</ele><time>2026-04-07T14:19:52.354Z</time></trkpt><trkpt lat="38.9896883" lon="16.5016033"><ele>891.0</ele><time>2026-04-07T14:19:53.353Z</time></trkpt><trkpt lat="38.9896183" lon="16.5016417"><ele>891.0</ele><time>2026-04-07T14:19:54.353Z</time></trkpt><trkpt lat="38.9895517" lon="16.5016667"><ele>891.0</ele><time>2026-04-07T14:19:55.353Z</time></trkpt><trkpt lat="38.9894767" lon="16.5016767"><ele>891.0</ele><time>2026-04-07T14:19:56.353Z</time></trkpt><trkpt lat="38.9894" lon="16.5016867"><ele>891.0</ele><time>2026-04-07T14:19:57.353Z</time></trkpt><trkpt lat="38.98932" lon="16.5016967"><ele>891.0</ele><time>2026-04-07T14:19:58.354Z</time></trkpt><trkpt lat="38.98924" lon="16.5017233"><ele>891.0</ele><time>2026-04-07T14:19:59.353Z</time></trkpt><trkpt lat="38.9891667" lon="16.5017633"><ele>891.0</ele><time>2026-04-07T14:20:00.353Z</time></trkpt><trkpt lat="38.9891033" lon="16.5018183"><ele>891.0</ele><time>2026-04-07T14:20:01.353Z</time></trkpt><trkpt lat="38.9890367" lon="16.50188"><ele>891.0</ele><time>2026-04-07T14:20:02.353Z</time></trkpt><trkpt lat="38.988975" lon="16.5019517"><ele>891.0</ele><time>2026-04-07T14:20:03.354Z</time></trkpt><trkpt lat="38.9889217" lon="16.5020167"><ele>891.7142857142858</ele><time>2026-04-07T14:20:04.354Z</time></trkpt><trkpt lat="38.988875" lon="16.5020833"><ele>892.4285714285714</ele><time>2026-04-07T14:20:05.354Z</time></trkpt><trkpt lat="38.988835" lon="16.5021517"><ele>893.1428571428571</ele><time>2026-04-07T14:20:06.354Z</time></trkpt><trkpt lat="38.9888017" lon="16.502225"><ele>893.8571428571429</ele><time>2026-04-07T14:20:07.354Z</time></trkpt><trkpt lat="38.988765" lon="16.502295"><ele>894.5714285714286</ele><time>2026-04-07T14:20:08.354Z</time></trkpt><trkpt lat="38.9887067" lon="16.50237"><ele>895.2857142857143</ele><time>2026-04-07T14:20:09.353Z</time></trkpt><trkpt lat="38.9886383" lon="16.5024267"><ele>896.0</ele><time>2026-04-07T14:20:10.353Z</time></trkpt><trkpt lat="38.9885633" lon="16.502485"><ele>896.0000000000001</ele><time>2026-04-07T14:20:11.353Z</time></trkpt><trkpt lat="38.9884983" lon="16.5025517"><ele>896.0</ele><time>2026-04-07T14:20:12.354Z</time></trkpt><trkpt lat="38.9884417" lon="16.5026283"><ele>896.0</ele><time>2026-04-07T14:20:13.354Z</time></trkpt><trkpt lat="38.988385" lon="16.502715"><ele>896.0</ele><time>2026-04-07T14:20:14.354Z</time></trkpt><trkpt lat="38.9883283" lon="16.5028033"><ele>896.0000000000001</ele><time>2026-04-07T14:20:15.354Z</time></trkpt><trkpt lat="38.9882733" lon="16.5028867"><ele>896.0</ele><time>2026-04-07T14:20:16.353Z</time></trkpt><trkpt lat="38.9882167" lon="16.5029633"><ele>896.25</ele><time>2026-04-07T14:20:17.354Z</time></trkpt><trkpt lat="38.9881183" lon="16.5031183"><ele>896.5</ele><time>2026-04-07T14:20:19.353Z</time></trkpt><trkpt lat="38.9880267" lon="16.5032217"><ele>896.75</ele><time>2026-04-07T14:20:21.353Z</time></trkpt><trkpt lat="38.9879717" lon="16.503265"><ele>897.0</ele><time>2026-04-07T14:20:22.353Z</time></trkpt><trkpt lat="38.9878567" lon="16.5033267"><ele>897.0</ele><time>2026-04-07T14:20:24.353Z</time></trkpt><trkpt lat="38.9877367" lon="16.5033333"><ele>897.0</ele><time>2026-04-07T14:20:26.354Z</time></trkpt><trkpt lat="38.9876733" lon="16.5033183"><ele>897.0</ele><time>2026-04-07T14:20:27.353Z</time></trkpt><trkpt lat="38.9875583" lon="16.5032683"><ele>897.0</ele><time>2026-04-07T14:20:29.354Z</time></trkpt><trkpt lat="38.987495" lon="16.5032483"><ele>897.0</ele><time>2026-04-07T14:20:30.354Z</time></trkpt><trkpt lat="38.987425" lon="16.5032433"><ele>897.0</ele><time>2026-04-07T14:20:31.353Z</time></trkpt><trkpt lat="38.9873533" lon="16.5032467"><ele>895.8333333333334</ele><time>2026-04-07T14:20:32.354Z</time></trkpt><trkpt lat="38.987275" lon="16.5032617"><ele>894.6666666666667</ele><time>2026-04-07T14:20:33.353Z</time></trkpt><trkpt lat="38.9871933" lon="16.5032783"><ele>893.5</ele><time>2026-04-07T14:20:34.353Z</time></trkpt><trkpt lat="38.9871083" lon="16.5032917"><ele>892.3333333333334</ele><time>2026-04-07T14:20:35.354Z</time></trkpt><trkpt lat="38.9870183" lon="16.5033117"><ele>891.1666666666667</ele><time>2026-04-07T14:20:36.354Z</time></trkpt><trkpt lat="38.986935" lon="16.50333"><ele>890.0</ele><time>2026-04-07T14:20:37.354Z</time></trkpt><trkpt lat="38.9868567" lon="16.5033483"><ele>890.0000000000001</ele><time>2026-04-07T14:20:38.353Z</time></trkpt><trkpt lat="38.98678" lon="16.5033567"><ele>890.0</ele><time>2026-04-07T14:20:39.353Z</time></trkpt><trkpt lat="38.986715" lon="16.50336"><ele>890.0</ele><time>2026-04-07T14:20:40.353Z</time></trkpt><trkpt lat="38.9866267" lon="16.5034233"><ele>890.0</ele><time>2026-04-07T14:20:42.354Z</time></trkpt><trkpt lat="38.9866283" lon="16.5035283"><ele>890.0000000000001</ele><time>2026-04-07T14:20:45.354Z</time></trkpt><trkpt lat="38.9866933" lon="16.50357"><ele>890.0</ele><time>2026-04-07T14:20:47.354Z</time></trkpt><trkpt lat="38.986805" lon="16.50359"><ele>890.0</ele><time>2026-04-07T14:20:49.353Z</time></trkpt><trkpt lat="38.98688" lon="16.50362"><ele>890.0</ele><time>2026-04-07T14:20:50.353Z</time></trkpt><trkpt lat="38.9869583" lon="16.5036633"><ele>890.0</ele><time>2026-04-07T14:20:51.353Z</time></trkpt><trkpt lat="38.9870517" lon="16.5036967"><ele>890.0</ele><time>2026-04-07T14:20:52.353Z</time></trkpt><trkpt lat="38.98715" lon="16.5037367"><ele>890.0</ele><time>2026-04-07T14:20:53.354Z</time></trkpt><trkpt lat="38.9872483" lon="16.5037617"><ele>889.8</ele><time>2026-04-07T14:20:54.354Z</time></trkpt><trkpt lat="38.9873483" lon="16.5037767"><ele>889.6</ele><time>2026-04-07T14:20:55.353Z</time></trkpt><trkpt lat="38.987445" lon="16.503785"><ele>889.4000000000001</ele><time>2026-04-07T14:20:56.354Z</time></trkpt><trkpt lat="38.9875383" lon="16.5037967"><ele>889.2</ele><time>2026-04-07T14:20:57.353Z</time></trkpt><trkpt lat="38.9876317" lon="16.5037983"><ele>889.0</ele><time>2026-04-07T14:20:58.353Z</time></trkpt><trkpt lat="38.9877267" lon="16.5038033"><ele>889.0</ele><time>2026-04-07T14:20:59.353Z</time></trkpt><trkpt lat="38.987835" lon="16.503815"><ele>889.0</ele><time>2026-04-07T14:21:00.354Z</time></trkpt><trkpt lat="38.9879567" lon="16.5038333"><ele>889.0</ele><time>2026-04-07T14:21:01.353Z</time></trkpt><trkpt lat="38.9880917" lon="16.5038433"><ele>889.0</ele><time>2026-04-07T14:21:02.354Z</time></trkpt><trkpt lat="38.9882333" lon="16.503855"><ele>891.0</ele><time>2026-04-07T14:21:03.353Z</time></trkpt><trkpt lat="38.9883683" lon="16.5038433"><ele>893.0</ele><time>2026-04-07T14:21:04.354Z</time></trkpt><trkpt lat="38.9884967" lon="16.50384"><ele>895.0</ele><time>2026-04-07T14:21:05.354Z</time></trkpt><trkpt lat="38.9886183" lon="16.5038383"><ele>897.0</ele><time>2026-04-07T14:21:06.354Z</time></trkpt><trkpt lat="38.9887267" lon="16.5038333"><ele>897.0</ele><time>2026-04-07T14:21:07.353Z</time></trkpt><trkpt lat="38.9888267" lon="16.50381"><ele>897.0</ele><time>2026-04-07T14:21:08.353Z</time></trkpt><trkpt lat="38.98893" lon="16.503775"><ele>897.0</ele><time>2026-04-07T14:21:09.353Z</time></trkpt><trkpt lat="38.98903" lon="16.5037317"><ele>897.0</ele><time>2026-04-07T14:21:10.353Z</time></trkpt><trkpt lat="38.989135" lon="16.5036917"><ele>897.0</ele><time>2026-04-07T14:21:11.353Z</time></trkpt><trkpt lat="38.9892367" lon="16.5036667"><ele>901.8</ele><time>2026-04-07T14:21:12.354Z</time></trkpt><trkpt lat="38.9893417" lon="16.5036467"><ele>906.6</ele><time>2026-04-07T14:21:13.354Z</time></trkpt><trkpt lat="38.9894533" lon="16.50363"><ele>911.3999999999999</ele><time>2026-04-07T14:21:14.354Z</time></trkpt><trkpt lat="38.9895583" lon="16.5036017"><ele>916.1999999999999</ele><time>2026-04-07T14:21:15.354Z</time></trkpt><trkpt lat="38.9896683" lon="16.5035683"><ele>921.0</ele><time>2026-04-07T14:21:16.353Z</time></trkpt><trkpt lat="38.989775" lon="16.5035283"><ele>921.0</ele><time>2026-04-07T14:21:17.353Z</time></trkpt><trkpt lat="38.98988" lon="16.503495"><ele>920.9999999999999</ele><time>2026-04-07T14:21:18.354Z</time></trkpt><trkpt lat="38.9899683" lon="16.503465"><ele>920.9999999999999</ele><time>2026-04-07T14:21:19.354Z</time></trkpt><trkpt lat="38.9900433" lon="16.503435"><ele>921.0</ele><time>2026-04-07T14:21:20.353Z</time></trkpt><trkpt lat="38.9901083" lon="16.503405"><ele>921.0</ele><time>2026-04-07T14:21:21.353Z</time></trkpt><trkpt lat="38.9902167" lon="16.503375"><ele>921.0</ele><time>2026-04-07T14:21:23.353Z</time></trkpt><trkpt lat="38.9902967" lon="16.5033467"><ele>921.0</ele><time>2026-04-07T14:21:25.353Z</time></trkpt><trkpt lat="38.990235" lon="16.503315"><ele>921.0</ele><time>2026-04-07T14:21:33.354Z</time></trkpt><trkpt lat="38.9901933" lon="16.5033883"><ele>921.0</ele><time>2026-04-07T14:21:36.354Z</time></trkpt><trkpt lat="38.99011" lon="16.5034183"><ele>921.0</ele><time>2026-04-07T14:21:45.353Z</time></trkpt><trkpt lat="38.9900417" lon="16.503455"><ele>921.0</ele><time>2026-04-07T14:27:07.354Z</time></trkpt><trkpt lat="38.9899617" lon="16.5034683"><ele>921.0</ele><time>2026-04-07T14:27:09.355Z</time></trkpt><trkpt lat="38.9898667" lon="16.5035083"><ele>920.9999999999999</ele><time>2026-04-07T14:27:11.355Z</time></trkpt><trkpt lat="38.98976" lon="16.5035483"><ele>920.9999999999999</ele><time>2026-04-07T14:27:13.354Z</time></trkpt><trkpt lat="38.9896517" lon="16.5035833"><ele>921.0</ele><time>2026-04-07T14:27:15.355Z</time></trkpt><trkpt lat="38.9895333" lon="16.5036367"><ele>921.0</ele><time>2026-04-07T14:27:17.355Z</time></trkpt><trkpt lat="38.98947" lon="16.5036567"><ele>921.0000000000001</ele><time>2026-04-07T14:27:18.355Z</time></trkpt><trkpt lat="38.9894017" lon="16.503665"><ele>921.0</ele><time>2026-04-07T14:27:19.354Z</time></trkpt><trkpt lat="38.98933" lon="16.5036783"><ele>921.0000000000001</ele><time>2026-04-07T14:27:20.354Z</time></trkpt><trkpt lat="38.9892633" lon="16.50369"><ele>921.0000000000001</ele><time>2026-04-07T14:27:21.355Z</time></trkpt><trkpt lat="38.9891933" lon="16.5037067"><ele>921.0</ele><time>2026-04-07T14:27:22.355Z</time></trkpt><trkpt lat="38.9891233" lon="16.5037183"><ele>921.0000000000001</ele><time>2026-04-07T14:27:23.354Z</time></trkpt><trkpt lat="38.9890517" lon="16.5037417"><ele>921.0000000000001</ele><time>2026-04-07T14:27:24.355Z</time></trkpt><trkpt lat="38.98898" lon="16.50376"><ele>917.0</ele><time>2026-04-07T14:27:25.355Z</time></trkpt><trkpt lat="38.9889117" lon="16.50378"><ele>913.0</ele><time>2026-04-07T14:27:26.354Z</time></trkpt><trkpt lat="38.9888417" lon="16.5038033"><ele>909.0</ele><time>2026-04-07T14:27:27.354Z</time></trkpt><trkpt lat="38.9887633" lon="16.503825"><ele>905.0</ele><time>2026-04-07T14:27:28.355Z</time></trkpt><trkpt lat="38.98867" lon="16.5038367"><ele>901.0</ele><time>2026-04-07T14:27:29.354Z</time></trkpt><trkpt lat="38.9885717" lon="16.5038467"><ele>897.0</ele><time>2026-04-07T14:27:30.354Z</time></trkpt><trkpt lat="38.9884817" lon="16.5038483"><ele>897.0</ele><time>2026-04-07T14:27:31.354Z</time></trkpt><trkpt lat="38.98839" lon="16.50385"><ele>897.0</ele><time>2026-04-07T14:27:32.354Z</time></trkpt><trkpt lat="38.9882983" lon="16.5038533"><ele>897.0</ele><time>2026-04-07T14:27:33.355Z</time></trkpt><trkpt lat="38.988205" lon="16.50387"><ele>897.0</ele><time>2026-04-07T14:27:34.354Z</time></trkpt><trkpt lat="38.98812" lon="16.5038617"><ele>897.0</ele><time>2026-04-07T14:27:35.354Z</time></trkpt><trkpt lat="38.9880317" lon="16.50386"><ele>895.4000000000001</ele><time>2026-04-07T14:27:36.355Z</time></trkpt><trkpt lat="38.9879367" lon="16.5038567"><ele>893.8000000000001</ele><time>2026-04-07T14:27:37.354Z</time></trkpt><trkpt lat="38.9877517" lon="16.5038367"><ele>892.2</ele><time>2026-04-07T14:27:39.354Z</time></trkpt><trkpt lat="38.987665" lon="16.5038283"><ele>890.6</ele><time>2026-04-07T14:27:40.354Z</time></trkpt><trkpt lat="38.9875833" lon="16.5038217"><ele>889.0</ele><time>2026-04-07T14:27:41.354Z</time></trkpt><trkpt lat="38.9875083" lon="16.5038067"><ele>889.2</ele><time>2026-04-07T14:27:42.354Z</time></trkpt><trkpt lat="38.987425" lon="16.5037933"><ele>889.4000000000001</ele><time>2026-04-07T14:27:43.354Z</time></trkpt><trkpt lat="38.9873367" lon="16.503775"><ele>889.6</ele><time>2026-04-07T14:27:44.354Z</time></trkpt><trkpt lat="38.9872483" lon="16.503755"><ele>889.8</ele><time>2026-04-07T14:27:45.354Z</time></trkpt><trkpt lat="38.9871583" lon="16.5037367"><ele>890.0</ele><time>2026-04-07T14:27:46.354Z</time></trkpt><trkpt lat="38.987065" lon="16.5037033"><ele>890.0</ele><time>2026-04-07T14:27:47.354Z</time></trkpt><trkpt lat="38.9869633" lon="16.5036617"><ele>890.0</ele><time>2026-04-07T14:27:48.355Z</time></trkpt><trkpt lat="38.9868667" lon="16.5036233"><ele>890.0</ele><time>2026-04-07T14:27:49.354Z</time></trkpt><trkpt lat="38.9867817" lon="16.5035883"><ele>890.0</ele><time>2026-04-07T14:27:50.354Z</time></trkpt><trkpt lat="38.9867117" lon="16.503565"><ele>890.0</ele><time>2026-04-07T14:27:51.354Z</time></trkpt><trkpt lat="38.9866133" lon="16.5035467"><ele>890.4</ele><time>2026-04-07T14:27:53.355Z</time></trkpt><trkpt lat="38.9865967" lon="16.5036283"><ele>890.8</ele><time>2026-04-07T14:27:56.354Z</time></trkpt><trkpt lat="38.9866617" lon="16.5037"><ele>891.2</ele><time>2026-04-07T14:27:58.354Z</time></trkpt><trkpt lat="38.9867683" lon="16.5037517"><ele>891.6</ele><time>2026-04-07T14:28:00.354Z</time></trkpt><trkpt lat="38.9868717" lon="16.5038283"><ele>892.0</ele><time>2026-04-07T14:28:02.354Z</time></trkpt><trkpt lat="38.9869333" lon="16.5038783"><ele>890.9999999999999</ele><time>2026-04-07T14:28:03.355Z</time></trkpt><trkpt lat="38.9869983" lon="16.5039283"><ele>890.0</ele><time>2026-04-07T14:28:04.355Z</time></trkpt><trkpt lat="38.98707" lon="16.5039883"><ele>889.0</ele><time>2026-04-07T14:28:05.355Z</time></trkpt><trkpt lat="38.9871383" lon="16.5040533"><ele>888.0</ele><time>2026-04-07T14:28:06.355Z</time></trkpt><trkpt lat="38.987215" lon="16.5041317"><ele>886.9999999999999</ele><time>2026-04-07T14:28:07.354Z</time></trkpt><trkpt lat="38.9872867" lon="16.504205"><ele>886.0</ele><time>2026-04-07T14:28:08.355Z</time></trkpt><trkpt lat="38.9873567" lon="16.504285"><ele>886.0</ele><time>2026-04-07T14:28:09.354Z</time></trkpt><trkpt lat="38.98743" lon="16.5043667"><ele>885.9999999999999</ele><time>2026-04-07T14:28:10.355Z</time></trkpt><trkpt lat="38.9875017" lon="16.5044517"><ele>885.9999999999999</ele><time>2026-04-07T14:28:11.355Z</time></trkpt><trkpt lat="38.98758" lon="16.50453"><ele>886.0</ele><time>2026-04-07T14:28:12.354Z</time></trkpt><trkpt lat="38.987665" lon="16.5046"><ele>886.0</ele><time>2026-04-07T14:28:13.355Z</time></trkpt><trkpt lat="38.9877517" lon="16.5046567"><ele>881.5999999999999</ele><time>2026-04-07T14:28:14.355Z</time></trkpt><trkpt lat="38.987835" lon="16.5047"><ele>877.1999999999999</ele><time>2026-04-07T14:28:15.354Z</time></trkpt><trkpt lat="38.9879183" lon="16.5047333"><ele>872.8000000000001</ele><time>2026-04-07T14:28:16.354Z</time></trkpt><trkpt lat="38.9880133" lon="16.5047683"><ele>868.4000000000001</ele><time>2026-04-07T14:28:17.355Z</time></trkpt><trkpt lat="38.9881167" lon="16.5048"><ele>864.0</ele><time>2026-04-07T14:28:18.354Z</time></trkpt><trkpt lat="38.988225" lon="16.504835"><ele>864.0</ele><time>2026-04-07T14:28:19.354Z</time></trkpt><trkpt lat="38.9883267" lon="16.5049033"><ele>864.0000000000001</ele><time>2026-04-07T14:28:20.355Z</time></trkpt><trkpt lat="38.9884217" lon="16.5049683"><ele>864.0000000000001</ele><time>2026-04-07T14:28:21.354Z</time></trkpt><trkpt lat="38.988505" lon="16.5050567"><ele>864.0</ele><time>2026-04-07T14:28:22.354Z</time></trkpt><trkpt lat="38.9885667" lon="16.5051367"><ele>864.0</ele><time>2026-04-07T14:28:23.354Z</time></trkpt><trkpt lat="38.9886133" lon="16.5052233"><ele>862.8333333333334</ele><time>2026-04-07T14:28:24.355Z</time></trkpt><trkpt lat="38.988645" lon="16.5053333"><ele>861.6666666666667</ele><time>2026-04-07T14:28:25.355Z</time></trkpt><trkpt lat="38.9886467" lon="16.5054333"><ele>860.5</ele><time>2026-04-07T14:28:26.354Z</time></trkpt><trkpt lat="38.9886417" lon="16.50554"><ele>859.3333333333334</ele><time>2026-04-07T14:28:27.354Z</time></trkpt><trkpt lat="38.9886433" lon="16.50563"><ele>858.1666666666667</ele><time>2026-04-07T14:28:28.354Z</time></trkpt><trkpt lat="38.9886683" lon="16.505725"><ele>857.0</ele><time>2026-04-07T14:28:29.354Z</time></trkpt><trkpt lat="38.9887033" lon="16.505815"><ele>857.0</ele><time>2026-04-07T14:28:30.354Z</time></trkpt><trkpt lat="38.9887533" lon="16.50591"><ele>857.0</ele><time>2026-04-07T14:28:31.354Z</time></trkpt><trkpt lat="38.988805" lon="16.506005"><ele>857.0</ele><time>2026-04-07T14:28:32.354Z</time></trkpt><trkpt lat="38.98886" lon="16.5061033"><ele>857.0</ele><time>2026-04-07T14:28:33.354Z</time></trkpt><trkpt lat="38.98892" lon="16.50619"><ele>857.0</ele><time>2026-04-07T14:28:34.355Z</time></trkpt><trkpt lat="38.9889883" lon="16.5062617"><ele>854.8333333333334</ele><time>2026-04-07T14:28:35.355Z</time></trkpt><trkpt lat="38.9890533" lon="16.5063233"><ele>852.6666666666667</ele><time>2026-04-07T14:28:36.354Z</time></trkpt><trkpt lat="38.9891267" lon="16.5063767"><ele>850.5</ele><time>2026-04-07T14:28:37.354Z</time></trkpt><trkpt lat="38.9892033" lon="16.5064317"><ele>848.3333333333333</ele><time>2026-04-07T14:28:38.355Z</time></trkpt><trkpt lat="38.989285" lon="16.50646"><ele>846.1666666666666</ele><time>2026-04-07T14:28:39.355Z</time></trkpt><trkpt lat="38.9893633" lon="16.5064717"><ele>844.0</ele><time>2026-04-07T14:28:40.355Z</time></trkpt><trkpt lat="38.98945" lon="16.50647"><ele>843.9999999999999</ele><time>2026-04-07T14:28:41.355Z</time></trkpt><trkpt lat="38.98954" lon="16.506455"><ele>844.0</ele><time>2026-04-07T14:28:42.354Z</time></trkpt><trkpt lat="38.9896267" lon="16.5064383"><ele>844.0</ele><time>2026-04-07T14:28:43.355Z</time></trkpt><trkpt lat="38.98972" lon="16.5064333"><ele>844.0</ele><time>2026-04-07T14:28:44.355Z</time></trkpt><trkpt lat="38.9898083" lon="16.50645"><ele>843.9999999999999</ele><time>2026-04-07T14:28:45.354Z</time></trkpt><trkpt lat="38.9898883" lon="16.5064717"><ele>844.0</ele><time>2026-04-07T14:28:46.354Z</time></trkpt><trkpt lat="38.9899617" lon="16.5065083"><ele>846.8000000000001</ele><time>2026-04-07T14:28:47.354Z</time></trkpt><trkpt lat="38.9900333" lon="16.5065683"><ele>849.6</ele><time>2026-04-07T14:28:48.354Z</time></trkpt><trkpt lat="38.9900967" lon="16.5066283"><ele>852.4</ele><time>2026-04-07T14:28:49.355Z</time></trkpt><trkpt lat="38.99016" lon="16.506705"><ele>855.2</ele><time>2026-04-07T14:28:50.354Z</time></trkpt><trkpt lat="38.9902317" lon="16.5067983"><ele>858.0</ele><time>2026-04-07T14:28:51.355Z</time></trkpt><trkpt lat="38.9903067" lon="16.5068767"><ele>858.0</ele><time>2026-04-07T14:28:52.354Z</time></trkpt><trkpt lat="38.99038" lon="16.50695"><ele>858.0</ele><time>2026-04-07T14:28:53.354Z</time></trkpt><trkpt lat="38.9904367" lon="16.50703"><ele>858.0</ele><time>2026-04-07T14:28:54.354Z</time></trkpt><trkpt lat="38.9905" lon="16.507105"><ele>858.0</ele><time>2026-04-07T14:28:55.354Z</time></trkpt><trkpt lat="38.9905683" lon="16.50718"><ele>858.0</ele><time>2026-04-07T14:28:56.355Z</time></trkpt><trkpt lat="38.99064" lon="16.50725"><ele>858.0</ele><time>2026-04-07T14:28:57.354Z</time></trkpt><trkpt lat="38.9907" lon="16.5073483"><ele>854.5999999999999</ele><time>2026-04-07T14:28:58.354Z</time></trkpt><trkpt lat="38.99075" lon="16.50745"><ele>851.1999999999999</ele><time>2026-04-07T14:28:59.355Z</time></trkpt><trkpt lat="38.9907883" lon="16.507575"><ele>847.8</ele><time>2026-04-07T14:29:00.355Z</time></trkpt><trkpt lat="38.9908117" lon="16.5076833"><ele>844.4</ele><time>2026-04-07T14:29:01.354Z</time></trkpt><trkpt lat="38.99083" lon="16.5077983"><ele>841.0</ele><time>2026-04-07T14:29:02.355Z</time></trkpt><trkpt lat="38.99085" lon="16.5079017"><ele>837.7142857142858</ele><time>2026-04-07T14:29:03.354Z</time></trkpt><trkpt lat="38.990875" lon="16.5080067"><ele>834.4285714285713</ele><time>2026-04-07T14:29:04.355Z</time></trkpt><trkpt lat="38.9909083" lon="16.5081"><ele>831.1428571428571</ele><time>2026-04-07T14:29:05.354Z</time></trkpt><trkpt lat="38.9909483" lon="16.5081783"><ele>827.8571428571429</ele><time>2026-04-07T14:29:06.354Z</time></trkpt><trkpt lat="38.9909983" lon="16.50823"><ele>824.5714285714287</ele><time>2026-04-07T14:29:07.354Z</time></trkpt><trkpt lat="38.99106" lon="16.5082717"><ele>821.2857142857142</ele><time>2026-04-07T14:29:08.355Z</time></trkpt><trkpt lat="38.991125" lon="16.508315"><ele>818.0</ele><time>2026-04-07T14:29:09.355Z</time></trkpt><trkpt lat="38.9911883" lon="16.508355"><ele>818.0000000000001</ele><time>2026-04-07T14:29:10.354Z</time></trkpt><trkpt lat="38.9913133" lon="16.50837"><ele>818.0</ele><time>2026-04-07T14:29:12.355Z</time></trkpt><trkpt lat="38.9913767" lon="16.5083483"><ele>818.0</ele><time>2026-04-07T14:29:13.354Z</time></trkpt><trkpt lat="38.9914883" lon="16.5083"><ele>818.0</ele><time>2026-04-07T14:29:15.355Z</time></trkpt><trkpt lat="38.99154" lon="16.5082483"><ele>818.0000000000001</ele><time>2026-04-07T14:29:16.354Z</time></trkpt><trkpt lat="38.99159" lon="16.5081817"><ele>818.0</ele><time>2026-04-07T14:29:17.355Z</time></trkpt><trkpt lat="38.991645" lon="16.508115"><ele>815.8571428571428</ele><time>2026-04-07T14:29:18.354Z</time></trkpt><trkpt lat="38.991695" lon="16.508045"><ele>813.7142857142858</ele><time>2026-04-07T14:29:19.354Z</time></trkpt><trkpt lat="38.99175" lon="16.50798"><ele>811.5714285714286</ele><time>2026-04-07T14:29:20.355Z</time></trkpt><trkpt lat="38.9918067" lon="16.5079167"><ele>809.4285714285713</ele><time>2026-04-07T14:29:21.354Z</time></trkpt><trkpt lat="38.991855" lon="16.5078517"><ele>807.2857142857142</ele><time>2026-04-07T14:29:22.355Z</time></trkpt><trkpt lat="38.9919133" lon="16.5077867"><ele>805.1428571428571</ele><time>2026-04-07T14:29:23.355Z</time></trkpt><trkpt lat="38.9919683" lon="16.5077333"><ele>803.0</ele><time>2026-04-07T14:29:24.355Z</time></trkpt><trkpt lat="38.9920217" lon="16.5076667"><ele>803.0000000000001</ele><time>2026-04-07T14:29:25.355Z</time></trkpt><trkpt lat="38.9920883" lon="16.50762"><ele>803.0</ele><time>2026-04-07T14:29:26.354Z</time></trkpt><trkpt lat="38.9921533" lon="16.5075717"><ele>803.0</ele><time>2026-04-07T14:29:27.355Z</time></trkpt><trkpt lat="38.99222" lon="16.50751"><ele>803.0</ele><time>2026-04-07T14:29:28.355Z</time></trkpt><trkpt lat="38.9922783" lon="16.5074333"><ele>803.0000000000001</ele><time>2026-04-07T14:29:29.355Z</time></trkpt><trkpt lat="38.99232" lon="16.5073583"><ele>803.0</ele><time>2026-04-07T14:29:30.355Z</time></trkpt><trkpt lat="38.992395" lon="16.5072883"><ele>803.0</ele><time>2026-04-07T14:29:32.354Z</time></trkpt><trkpt lat="38.992435" lon="16.50743"><ele>803.0</ele><time>2026-04-07T14:29:35.355Z</time></trkpt><trkpt lat="38.99242" lon="16.5075517"><ele>803.0</ele><time>2026-04-07T14:29:36.355Z</time></trkpt><trkpt lat="38.99239" lon="16.5076983"><ele>803.0</ele><time>2026-04-07T14:29:37.354Z</time></trkpt><trkpt lat="38.992365" lon="16.5078367"><ele>803.0</ele><time>2026-04-07T14:29:38.355Z</time></trkpt><trkpt lat="38.9923317" lon="16.5079533"><ele>801.5714285714286</ele><time>2026-04-07T14:29:39.354Z</time></trkpt><trkpt lat="38.99231" lon="16.5080533"><ele>800.1428571428571</ele><time>2026-04-07T14:29:40.355Z</time></trkpt><trkpt lat="38.9922917" lon="16.5081333"><ele>798.7142857142858</ele><time>2026-04-07T14:29:41.355Z</time></trkpt><trkpt lat="38.9923133" lon="16.5082267"><ele>797.2857142857142</ele><time>2026-04-07T14:29:43.355Z</time></trkpt><trkpt lat="38.9923867" lon="16.50818"><ele>795.8571428571429</ele><time>2026-04-07T14:29:45.354Z</time></trkpt><trkpt lat="38.9924383" lon="16.5081283"><ele>794.4285714285714</ele><time>2026-04-07T14:29:46.354Z</time></trkpt><trkpt lat="38.9925" lon="16.5080717"><ele>793.0</ele><time>2026-04-07T14:29:47.354Z</time></trkpt><trkpt lat="38.9925767" lon="16.5080083"><ele>788.5999999999999</ele><time>2026-04-07T14:29:48.355Z</time></trkpt><trkpt lat="38.9926483" lon="16.5079583"><ele>784.1999999999999</ele><time>2026-04-07T14:29:49.355Z</time></trkpt><trkpt lat="38.992715" lon="16.50793"><ele>779.8</ele><time>2026-04-07T14:29:50.354Z</time></trkpt><trkpt lat="38.9928167" lon="16.5079533"><ele>775.4</ele><time>2026-04-07T14:29:52.355Z</time></trkpt><trkpt lat="38.992845" lon="16.5080633"><ele>771.0</ele><time>2026-04-07T14:29:54.354Z</time></trkpt><trkpt lat="38.9927967" lon="16.508205"><ele>771.0</ele><time>2026-04-07T14:29:56.355Z</time></trkpt><trkpt lat="38.992745" lon="16.50829"><ele>771.0</ele><time>2026-04-07T14:29:57.355Z</time></trkpt><trkpt lat="38.9926833" lon="16.5083817"><ele>771.0</ele><time>2026-04-07T14:29:58.355Z</time></trkpt><trkpt lat="38.9926283" lon="16.5084867"><ele>771.0</ele><time>2026-04-07T14:29:59.354Z</time></trkpt><trkpt lat="38.99258" lon="16.5086033"><ele>771.0</ele><time>2026-04-07T14:30:00.354Z</time></trkpt><trkpt lat="38.9925283" lon="16.5087267"><ele>772.25</ele><time>2026-04-07T14:30:01.355Z</time></trkpt><trkpt lat="38.9924683" lon="16.5088533"><ele>773.5</ele><time>2026-04-07T14:30:02.355Z</time></trkpt><trkpt lat="38.9924167" lon="16.5089917"><ele>774.75</ele><time>2026-04-07T14:30:03.354Z</time></trkpt><trkpt lat="38.992375" lon="16.5091283"><ele>776.0</ele><time>2026-04-07T14:30:04.354Z</time></trkpt><trkpt lat="38.9923283" lon="16.5092533"><ele>776.0</ele><time>2026-04-07T14:30:05.355Z</time></trkpt><trkpt lat="38.992275" lon="16.5093633"><ele>776.0</ele><time>2026-04-07T14:30:06.354Z</time></trkpt><trkpt lat="38.9922017" lon="16.509465"><ele>776.0</ele><time>2026-04-07T14:30:07.354Z</time></trkpt><trkpt lat="38.992125" lon="16.50956"><ele>776.0</ele><time>2026-04-07T14:30:08.355Z</time></trkpt><trkpt lat="38.9920417" lon="16.509645"><ele>776.0</ele><time>2026-04-07T14:30:09.354Z</time></trkpt><trkpt lat="38.9919683" lon="16.5097433"><ele>772.5999999999999</ele><time>2026-04-07T14:30:10.354Z</time></trkpt><trkpt lat="38.991905" lon="16.5098417"><ele>769.2</ele><time>2026-04-07T14:30:11.354Z</time></trkpt><trkpt lat="38.99185" lon="16.509945"><ele>765.8</ele><time>2026-04-07T14:30:12.355Z</time></trkpt><trkpt lat="38.9917917" lon="16.5100483"><ele>762.4000000000001</ele><time>2026-04-07T14:30:13.355Z</time></trkpt><trkpt lat="38.9917333" lon="16.5101617"><ele>759.0</ele><time>2026-04-07T14:30:14.355Z</time></trkpt><trkpt lat="38.99168" lon="16.51027"><ele>758.5</ele><time>2026-04-07T14:30:15.355Z</time></trkpt><trkpt lat="38.991635" lon="16.51037"><ele>758.0</ele><time>2026-04-07T14:30:16.355Z</time></trkpt><trkpt lat="38.991595" lon="16.51046"><ele>757.5</ele><time>2026-04-07T14:30:17.354Z</time></trkpt><trkpt lat="38.99155" lon="16.5105383"><ele>757.0</ele><time>2026-04-07T14:30:18.355Z</time></trkpt><trkpt lat="38.9914967" lon="16.5106017"><ele>756.5</ele><time>2026-04-07T14:30:19.355Z</time></trkpt><trkpt lat="38.991435" lon="16.5106533"><ele>756.0</ele><time>2026-04-07T14:30:20.354Z</time></trkpt><trkpt lat="38.9913567" lon="16.510695"><ele>756.0</ele><time>2026-04-07T14:30:21.354Z</time></trkpt><trkpt lat="38.9912683" lon="16.5107433"><ele>756.0</ele><time>2026-04-07T14:30:22.354Z</time></trkpt><trkpt lat="38.9911733" lon="16.5107917"><ele>756.0</ele><time>2026-04-07T14:30:23.354Z</time></trkpt><trkpt lat="38.9910783" lon="16.5108517"><ele>756.0</ele><time>2026-04-07T14:30:24.355Z</time></trkpt><trkpt lat="38.991" lon="16.5109017"><ele>756.0</ele><time>2026-04-07T14:30:25.354Z</time></trkpt><trkpt lat="38.9909033" lon="16.5109583"><ele>756.0</ele><time>2026-04-07T14:30:27.355Z</time></trkpt><trkpt lat="38.99086" lon="16.5110767"><ele>756.0</ele><time>2026-04-07T14:30:29.355Z</time></trkpt><trkpt lat="38.9908817" lon="16.5112383"><ele>756.0</ele><time>2026-04-07T14:30:31.355Z</time></trkpt><trkpt lat="38.9908917" lon="16.5113367"><ele>756.0</ele><time>2026-04-07T14:30:32.355Z</time></trkpt><trkpt lat="38.9909" lon="16.5114333"><ele>756.0</ele><time>2026-04-07T14:30:33.355Z</time></trkpt><trkpt lat="38.9909133" lon="16.5115317"><ele>754.0</ele><time>2026-04-07T14:30:34.355Z</time></trkpt><trkpt lat="38.9909433" lon="16.5116217"><ele>752.0</ele><time>2026-04-07T14:30:35.355Z</time></trkpt><trkpt lat="38.9909883" lon="16.5116867"><ele>750.0</ele><time>2026-04-07T14:30:36.354Z</time></trkpt><trkpt lat="38.9910467" lon="16.5117367"><ele>748.0</ele><time>2026-04-07T14:30:37.355Z</time></trkpt><trkpt lat="38.9911117" lon="16.5117667"><ele>746.0</ele><time>2026-04-07T14:30:38.355Z</time></trkpt><trkpt lat="38.9911867" lon="16.5117883"><ele>744.0</ele><time>2026-04-07T14:30:39.354Z</time></trkpt><trkpt lat="38.9912633" lon="16.5118067"><ele>742.0</ele><time>2026-04-07T14:30:40.355Z</time></trkpt><trkpt lat="38.9913267" lon="16.5118317"><ele>742.0</ele><time>2026-04-07T14:30:41.355Z</time></trkpt><trkpt lat="38.9913917" lon="16.5118617"><ele>742.0</ele><time>2026-04-07T14:30:42.354Z</time></trkpt><trkpt lat="38.9915017" lon="16.5119217"><ele>742.0</ele><time>2026-04-07T14:30:44.354Z</time></trkpt><trkpt lat="38.991615" lon="16.51194"><ele>742.0</ele><time>2026-04-07T14:30:46.354Z</time></trkpt><trkpt lat="38.9916817" lon="16.51193"><ele>742.0</ele><time>2026-04-07T14:30:47.355Z</time></trkpt><trkpt lat="38.991745" lon="16.5119117"><ele>742.0</ele><time>2026-04-07T14:30:48.355Z</time></trkpt><trkpt lat="38.9918083" lon="16.5118883"><ele>739.8333333333334</ele><time>2026-04-07T14:30:49.355Z</time></trkpt><trkpt lat="38.991925" lon="16.5118717"><ele>737.6666666666667</ele><time>2026-04-07T14:30:51.355Z</time></trkpt><trkpt lat="38.9920117" lon="16.5118867"><ele>735.5</ele><time>2026-04-07T14:30:53.354Z</time></trkpt><trkpt lat="38.9920667" lon="16.51194"><ele>733.3333333333334</ele><time>2026-04-07T14:30:55.355Z</time></trkpt><trkpt lat="38.9920733" lon="16.512035"><ele>731.1666666666666</ele><time>2026-04-07T14:30:57.355Z</time></trkpt><trkpt lat="38.992055" lon="16.5121583"><ele>729.0</ele><time>2026-04-07T14:30:59.354Z</time></trkpt><trkpt lat="38.9920483" lon="16.51224"><ele>727.0</ele><time>2026-04-07T14:31:00.354Z</time></trkpt><trkpt lat="38.9920583" lon="16.5123783"><ele>725.0</ele><time>2026-04-07T14:31:02.355Z</time></trkpt><trkpt lat="38.9921067" lon="16.512465"><ele>723.0</ele><time>2026-04-07T14:31:04.354Z</time></trkpt><trkpt lat="38.9921917" lon="16.5124717"><ele>721.0</ele><time>2026-04-07T14:31:06.354Z</time></trkpt><trkpt lat="38.99228" lon="16.5124533"><ele>719.0</ele><time>2026-04-07T14:31:08.355Z</time></trkpt><trkpt lat="38.9923383" lon="16.5124917"><ele>717.0</ele><time>2026-04-07T14:31:11.355Z</time></trkpt><trkpt lat="38.9923283" lon="16.5126017"><ele>717.0</ele><time>2026-04-07T14:31:13.354Z</time></trkpt><trkpt lat="38.9923133" lon="16.5127367"><ele>717.0</ele><time>2026-04-07T14:31:15.355Z</time></trkpt><trkpt lat="38.9923117" lon="16.5128767"><ele>717.0</ele><time>2026-04-07T14:31:17.354Z</time></trkpt><trkpt lat="38.992305" lon="16.5130083"><ele>717.0</ele><time>2026-04-07T14:31:19.354Z</time></trkpt><trkpt lat="38.99231" lon="16.5131383"><ele>717.0</ele><time>2026-04-07T14:31:21.355Z</time></trkpt><trkpt lat="38.9922917" lon="16.5132533"><ele>714.6666666666666</ele><time>2026-04-07T14:31:23.355Z</time></trkpt><trkpt lat="38.9922533" lon="16.5133417"><ele>712.3333333333334</ele><time>2026-04-07T14:31:25.354Z</time></trkpt><trkpt lat="38.9921517" lon="16.5134"><ele>710.0</ele><time>2026-04-07T14:31:27.354Z</time></trkpt><trkpt lat="38.9920617" lon="16.51347"><ele>707.6666666666667</ele><time>2026-04-07T14:31:29.355Z</time></trkpt><trkpt lat="38.9920067" lon="16.5135417"><ele>705.3333333333334</ele><time>2026-04-07T14:31:31.355Z</time></trkpt><trkpt lat="38.9919917" lon="16.5136317"><ele>703.0</ele><time>2026-04-07T14:31:33.354Z</time></trkpt><trkpt lat="38.9919983" lon="16.5137833"><ele>700.8571428571429</ele><time>2026-04-07T14:31:35.354Z</time></trkpt><trkpt lat="38.991995" lon="16.5138733"><ele>698.7142857142858</ele><time>2026-04-07T14:31:36.354Z</time></trkpt><trkpt lat="38.99199" lon="16.5139667"><ele>696.5714285714287</ele><time>2026-04-07T14:31:37.354Z</time></trkpt><trkpt lat="38.9920067" lon="16.5140467"><ele>694.4285714285714</ele><time>2026-04-07T14:31:38.355Z</time></trkpt><trkpt lat="38.99203" lon="16.514135"><ele>692.2857142857143</ele><time>2026-04-07T14:31:39.355Z</time></trkpt><trkpt lat="38.9920633" lon="16.5142167"><ele>690.1428571428572</ele><time>2026-04-07T14:31:40.354Z</time></trkpt><trkpt lat="38.9921067" lon="16.514285"><ele>688.0</ele><time>2026-04-07T14:31:41.354Z</time></trkpt><trkpt lat="38.9921533" lon="16.5143567"><ele>688.0</ele><time>2026-04-07T14:31:42.355Z</time></trkpt><trkpt lat="38.9922083" lon="16.5144217"><ele>688.0</ele><time>2026-04-07T14:31:43.354Z</time></trkpt><trkpt lat="38.9922617" lon="16.51448"><ele>688.0</ele><time>2026-04-07T14:31:44.355Z</time></trkpt><trkpt lat="38.9923133" lon="16.5145367"><ele>688.0</ele><time>2026-04-07T14:31:45.355Z</time></trkpt><trkpt lat="38.9924117" lon="16.5145767"><ele>688.0</ele><time>2026-04-07T14:31:47.354Z</time></trkpt><trkpt lat="38.9925033" lon="16.51447"><ele>688.0</ele><time>2026-04-07T14:31:49.354Z</time></trkpt><trkpt lat="38.992565" lon="16.5143967"><ele>685.1666666666667</ele><time>2026-04-07T14:31:50.355Z</time></trkpt><trkpt lat="38.9926333" lon="16.5143367"><ele>682.3333333333334</ele><time>2026-04-07T14:31:51.354Z</time></trkpt><trkpt lat="38.9926967" lon="16.514295"><ele>679.5</ele><time>2026-04-07T14:31:52.355Z</time></trkpt><trkpt lat="38.992775" lon="16.5142617"><ele>676.6666666666666</ele><time>2026-04-07T14:31:53.355Z</time></trkpt><trkpt lat="38.9928483" lon="16.51424"><ele>673.8333333333333</ele><time>2026-04-07T14:31:54.354Z</time></trkpt><trkpt lat="38.9929167" lon="16.5142067"><ele>671.0</ele><time>2026-04-07T14:31:55.355Z</time></trkpt><trkpt lat="38.99298" lon="16.5141667"><ele>671.0</ele><time>2026-04-07T14:31:56.355Z</time></trkpt><trkpt lat="38.9930417" lon="16.51413"><ele>671.0</ele><time>2026-04-07T14:31:57.354Z</time></trkpt><trkpt lat="38.9931" lon="16.5140917"><ele>671.0</ele><time>2026-04-07T14:31:58.354Z</time></trkpt><trkpt lat="38.99317" lon="16.5140367"><ele>671.0</ele><time>2026-04-07T14:31:59.354Z</time></trkpt><trkpt lat="38.99323" lon="16.5139717"><ele>671.0</ele><time>2026-04-07T14:32:00.355Z</time></trkpt><trkpt lat="38.9932933" lon="16.5138883"><ele>671.0</ele><time>2026-04-07T14:32:01.354Z</time></trkpt><trkpt lat="38.99336" lon="16.51378"><ele>671.8333333333333</ele><time>2026-04-07T14:32:02.354Z</time></trkpt><trkpt lat="38.9934233" lon="16.5136667"><ele>672.6666666666666</ele><time>2026-04-07T14:32:03.355Z</time></trkpt><trkpt lat="38.9934667" lon="16.5135717"><ele>673.5</ele><time>2026-04-07T14:32:04.355Z</time></trkpt><trkpt lat="38.9935083" lon="16.5135033"><ele>674.3333333333334</ele><time>2026-04-07T14:32:05.354Z</time></trkpt><trkpt lat="38.9935717" lon="16.5134667"><ele>675.1666666666667</ele><time>2026-04-07T14:32:07.355Z</time></trkpt><trkpt lat="38.9935983" lon="16.51357"><ele>676.0</ele><time>2026-04-07T14:32:09.354Z</time></trkpt><trkpt lat="38.99358" lon="16.5136617"><ele>673.0</ele><time>2026-04-07T14:32:10.355Z</time></trkpt><trkpt lat="38.9935567" lon="16.5137933"><ele>670.0</ele><time>2026-04-07T14:32:11.355Z</time></trkpt><trkpt lat="38.9935483" lon="16.5139483"><ele>667.0</ele><time>2026-04-07T14:32:12.354Z</time></trkpt><trkpt lat="38.9935567" lon="16.5140967"><ele>664.0</ele><time>2026-04-07T14:32:13.354Z</time></trkpt><trkpt lat="38.9935667" lon="16.5142183"><ele>661.0</ele><time>2026-04-07T14:32:14.355Z</time></trkpt><trkpt lat="38.9935883" lon="16.51434"><ele>661.0</ele><time>2026-04-07T14:32:15.355Z</time></trkpt><trkpt lat="38.9935983" lon="16.514485"><ele>661.0</ele><time>2026-04-07T14:32:16.355Z</time></trkpt><trkpt lat="38.9935917" lon="16.514635"><ele>661.0</ele><time>2026-04-07T14:32:17.354Z</time></trkpt><trkpt lat="38.993585" lon="16.5147883"><ele>661.0</ele><time>2026-04-07T14:32:18.355Z</time></trkpt><trkpt lat="38.9935817" lon="16.5149333"><ele>658.0</ele><time>2026-04-07T14:32:19.355Z</time></trkpt><trkpt lat="38.9935833" lon="16.5150767"><ele>655.0</ele><time>2026-04-07T14:32:20.354Z</time></trkpt><trkpt lat="38.993585" lon="16.515215"><ele>652.0</ele><time>2026-04-07T14:32:21.354Z</time></trkpt><trkpt lat="38.9935883" lon="16.5153583"><ele>649.0</ele><time>2026-04-07T14:32:22.355Z</time></trkpt><trkpt lat="38.9935917" lon="16.515495"><ele>646.0</ele><time>2026-04-07T14:32:23.354Z</time></trkpt><trkpt lat="38.9936" lon="16.5156383"><ele>644.1999999999999</ele><time>2026-04-07T14:32:24.354Z</time></trkpt><trkpt lat="38.9936133" lon="16.5157767"><ele>642.4</ele><time>2026-04-07T14:32:25.355Z</time></trkpt><trkpt lat="38.99362" lon="16.5159033"><ele>640.6</ele><time>2026-04-07T14:32:26.355Z</time></trkpt><trkpt lat="38.9936217" lon="16.5160233"><ele>638.8</ele><time>2026-04-07T14:32:27.355Z</time></trkpt><trkpt lat="38.993625" lon="16.5161517"><ele>637.0</ele><time>2026-04-07T14:32:28.355Z</time></trkpt><trkpt lat="38.993615" lon="16.5162933"><ele>634.5</ele><time>2026-04-07T14:32:29.354Z</time></trkpt><trkpt lat="38.9936133" lon="16.5164383"><ele>632.0</ele><time>2026-04-07T14:32:30.355Z</time></trkpt><trkpt lat="38.993605" lon="16.5165883"><ele>629.5</ele><time>2026-04-07T14:32:31.355Z</time></trkpt><trkpt lat="38.9935933" lon="16.5167467"><ele>627.0</ele><time>2026-04-07T14:32:32.355Z</time></trkpt><trkpt lat="38.993575" lon="16.5168983"><ele>627.0</ele><time>2026-04-07T14:32:33.355Z</time></trkpt><trkpt lat="38.99355" lon="16.51705"><ele>627.0</ele><time>2026-04-07T14:32:34.354Z</time></trkpt><trkpt lat="38.9935267" lon="16.517205"><ele>627.0</ele><time>2026-04-07T14:32:35.354Z</time></trkpt><trkpt lat="38.9935067" lon="16.5173567"><ele>627.0</ele><time>2026-04-07T14:32:36.354Z</time></trkpt><trkpt lat="38.9934883" lon="16.5175017"><ele>624.6666666666666</ele><time>2026-04-07T14:32:37.354Z</time></trkpt><trkpt lat="38.9934783" lon="16.5176267"><ele>622.3333333333334</ele><time>2026-04-07T14:32:38.354Z</time></trkpt><trkpt lat="38.9934867" lon="16.5177333"><ele>620.0</ele><time>2026-04-07T14:32:39.354Z</time></trkpt><trkpt lat="38.993505" lon="16.5178367"><ele>617.6666666666667</ele><time>2026-04-07T14:32:40.354Z</time></trkpt><trkpt lat="38.99354" lon="16.51794"><ele>615.3333333333334</ele><time>2026-04-07T14:32:41.355Z</time></trkpt><trkpt lat="38.9935667" lon="16.5180367"><ele>613.0</ele><time>2026-04-07T14:32:42.354Z</time></trkpt><trkpt lat="38.9935883" lon="16.5181283"><ele>613.0</ele><time>2026-04-07T14:32:43.354Z</time></trkpt><trkpt lat="38.99362" lon="16.5182117"><ele>613.0</ele><time>2026-04-07T14:32:44.355Z</time></trkpt><trkpt lat="38.9936533" lon="16.51829"><ele>613.0</ele><time>2026-04-07T14:32:45.354Z</time></trkpt><trkpt lat="38.9936933" lon="16.51837"><ele>613.0</ele><time>2026-04-07T14:32:46.355Z</time></trkpt><trkpt lat="38.993735" lon="16.5184517"><ele>613.0</ele><time>2026-04-07T14:32:47.355Z</time></trkpt><trkpt lat="38.9937733" lon="16.5185267"><ele>613.0</ele><time>2026-04-07T14:32:48.355Z</time></trkpt><trkpt lat="38.9938183" lon="16.5186067"><ele>613.0</ele><time>2026-04-07T14:32:49.354Z</time></trkpt><trkpt lat="38.9938617" lon="16.5186883"><ele>612.5</ele><time>2026-04-07T14:32:50.354Z</time></trkpt><trkpt lat="38.99391" lon="16.5187733"><ele>612.0</ele><time>2026-04-07T14:32:51.354Z</time></trkpt><trkpt lat="38.9939517" lon="16.5188533"><ele>611.5</ele><time>2026-04-07T14:32:52.355Z</time></trkpt><trkpt lat="38.9939883" lon="16.5189217"><ele>611.0</ele><time>2026-04-07T14:32:53.354Z</time></trkpt><trkpt lat="38.9940417" lon="16.5190383"><ele>610.5</ele><time>2026-04-07T14:32:55.354Z</time></trkpt><trkpt lat="38.994105" lon="16.5191517"><ele>610.0</ele><time>2026-04-07T14:32:57.355Z</time></trkpt><trkpt lat="38.9941767" lon="16.51926"><ele>609.25</ele><time>2026-04-07T14:32:59.354Z</time></trkpt><trkpt lat="38.99427" lon="16.5193633"><ele>608.5</ele><time>2026-04-07T14:33:01.355Z</time></trkpt><trkpt lat="38.994355" lon="16.51945"><ele>607.75</ele><time>2026-04-07T14:33:03.355Z</time></trkpt><trkpt lat="38.9944533" lon="16.5195433"><ele>607.0</ele><time>2026-04-07T14:33:05.354Z</time></trkpt><trkpt lat="38.99456" lon="16.5196083"><ele>606.9999999999999</ele><time>2026-04-07T14:33:07.354Z</time></trkpt><trkpt lat="38.99463" lon="16.519625"><ele>607.0</ele><time>2026-04-07T14:33:08.355Z</time></trkpt><trkpt lat="38.9947" lon="16.5196367"><ele>607.0</ele><time>2026-04-07T14:33:09.355Z</time></trkpt><trkpt lat="38.9947767" lon="16.5196233"><ele>607.0</ele><time>2026-04-07T14:33:10.355Z</time></trkpt><trkpt lat="38.9948467" lon="16.51959"><ele>607.0</ele><time>2026-04-07T14:33:11.354Z</time></trkpt><trkpt lat="38.9949083" lon="16.519555"><ele>606.9999999999999</ele><time>2026-04-07T14:33:12.355Z</time></trkpt><trkpt lat="38.9949767" lon="16.51953"><ele>607.0</ele><time>2026-04-07T14:33:13.355Z</time></trkpt><trkpt lat="38.995045" lon="16.5195"><ele>603.7142857142857</ele><time>2026-04-07T14:33:14.355Z</time></trkpt><trkpt lat="38.99511" lon="16.5194683"><ele>600.4285714285714</ele><time>2026-04-07T14:33:15.355Z</time></trkpt><trkpt lat="38.9951783" lon="16.5194333"><ele>597.1428571428571</ele><time>2026-04-07T14:33:16.354Z</time></trkpt><trkpt lat="38.9952383" lon="16.51939"><ele>593.8571428571429</ele><time>2026-04-07T14:33:17.355Z</time></trkpt><trkpt lat="38.995305" lon="16.51935"><ele>590.5714285714286</ele><time>2026-04-07T14:33:18.354Z</time></trkpt><trkpt lat="38.99536" lon="16.5192883"><ele>587.2857142857142</ele><time>2026-04-07T14:33:19.355Z</time></trkpt><trkpt lat="38.9954317" lon="16.5192217"><ele>584.0</ele><time>2026-04-07T14:33:20.355Z</time></trkpt><trkpt lat="38.9954883" lon="16.5191433"><ele>584.0</ele><time>2026-04-07T14:33:21.355Z</time></trkpt><trkpt lat="38.9955433" lon="16.5190517"><ele>584.0</ele><time>2026-04-07T14:33:22.354Z</time></trkpt><trkpt lat="38.995595" lon="16.51895"><ele>584.0</ele><time>2026-04-07T14:33:23.354Z</time></trkpt><trkpt lat="38.9956333" lon="16.518855"><ele>584.0</ele><time>2026-04-07T14:33:24.354Z</time></trkpt><trkpt lat="38.9956683" lon="16.5187717"><ele>584.0</ele><time>2026-04-07T14:33:25.355Z</time></trkpt><trkpt lat="38.9957433" lon="16.5186767"><ele>584.0</ele><time>2026-04-07T14:33:27.354Z</time></trkpt><trkpt lat="38.99582" lon="16.5187617"><ele>584.0</ele><time>2026-04-07T14:33:30.355Z</time></trkpt><trkpt lat="38.9958417" lon="16.5188717"><ele>584.0</ele><time>2026-04-07T14:33:31.354Z</time></trkpt><trkpt lat="38.9958467" lon="16.5190067"><ele>584.0</ele><time>2026-04-07T14:33:32.355Z</time></trkpt><trkpt lat="38.9958367" lon="16.5191567"><ele>584.0</ele><time>2026-04-07T14:33:33.354Z</time></trkpt><trkpt lat="38.9958183" lon="16.5193033"><ele>584.0</ele><time>2026-04-07T14:33:34.355Z</time></trkpt><trkpt lat="38.9958033" lon="16.5194483"><ele>582.2</ele><time>2026-04-07T14:33:35.354Z</time></trkpt><trkpt lat="38.9957833" lon="16.5195933"><ele>580.4</ele><time>2026-04-07T14:33:36.354Z</time></trkpt><trkpt lat="38.995755" lon="16.51973"><ele>578.6</ele><time>2026-04-07T14:33:37.355Z</time></trkpt><trkpt lat="38.9957217" lon="16.51985"><ele>576.8</ele><time>2026-04-07T14:33:38.355Z</time></trkpt><trkpt lat="38.995675" lon="16.51996"><ele>575.0</ele><time>2026-04-07T14:33:39.354Z</time></trkpt><trkpt lat="38.995635" lon="16.5200483"><ele>575.0</ele><time>2026-04-07T14:33:40.354Z</time></trkpt><trkpt lat="38.9955933" lon="16.520115"><ele>575.0</ele><time>2026-04-07T14:33:41.354Z</time></trkpt><trkpt lat="38.9955267" lon="16.520225"><ele>575.0</ele><time>2026-04-07T14:33:43.355Z</time></trkpt><trkpt lat="38.9954917" lon="16.5203183"><ele>575.0</ele><time>2026-04-07T14:33:45.354Z</time></trkpt><trkpt lat="38.99552" lon="16.5203983"><ele>575.0</ele><time>2026-04-07T14:33:47.354Z</time></trkpt><trkpt lat="38.9956" lon="16.5204233"><ele>575.0</ele><time>2026-04-07T14:33:49.355Z</time></trkpt><trkpt lat="38.9956833" lon="16.5204"><ele>575.0</ele><time>2026-04-07T14:33:51.355Z</time></trkpt><trkpt lat="38.9957733" lon="16.52037"><ele>575.0</ele><time>2026-04-07T14:33:53.354Z</time></trkpt><trkpt lat="38.9958783" lon="16.5203133"><ele>575.0</ele><time>2026-04-07T14:33:55.355Z</time></trkpt><trkpt lat="38.9959467" lon="16.5202667"><ele>575.0</ele><time>2026-04-07T14:33:56.355Z</time></trkpt><trkpt lat="38.9960067" lon="16.5202133"><ele>575.0</ele><time>2026-04-07T14:33:57.355Z</time></trkpt><trkpt lat="38.9960583" lon="16.5201617"><ele>575.0</ele><time>2026-04-07T14:33:58.355Z</time></trkpt><trkpt lat="38.9961433" lon="16.52009"><ele>570.8571428571429</ele><time>2026-04-07T14:34:00.354Z</time></trkpt><trkpt lat="38.996235" lon="16.5200117"><ele>566.7142857142857</ele><time>2026-04-07T14:34:02.354Z</time></trkpt><trkpt lat="38.99629" lon="16.5199683"><ele>562.5714285714286</ele><time>2026-04-07T14:34:03.354Z</time></trkpt><trkpt lat="38.99635" lon="16.5199267"><ele>558.4285714285714</ele><time>2026-04-07T14:34:04.354Z</time></trkpt><trkpt lat="38.9964083" lon="16.5198817"><ele>554.2857142857142</ele><time>2026-04-07T14:34:05.354Z</time></trkpt><trkpt lat="38.9964683" lon="16.519845"><ele>550.1428571428571</ele><time>2026-04-07T14:34:06.355Z</time></trkpt><trkpt lat="38.9965283" lon="16.51981"><ele>546.0</ele><time>2026-04-07T14:34:07.355Z</time></trkpt><trkpt lat="38.9965983" lon="16.5197733"><ele>546.0</ele><time>2026-04-07T14:34:08.355Z</time></trkpt><trkpt lat="38.9966633" lon="16.5197333"><ele>546.0</ele><time>2026-04-07T14:34:09.355Z</time></trkpt><trkpt lat="38.99673" lon="16.5196917"><ele>546.0</ele><time>2026-04-07T14:34:10.355Z</time></trkpt><trkpt lat="38.9967917" lon="16.5196367"><ele>546.0</ele><time>2026-04-07T14:34:11.354Z</time></trkpt><trkpt lat="38.9968583" lon="16.51959"><ele>546.0</ele><time>2026-04-07T14:34:12.354Z</time></trkpt><trkpt lat="38.9969383" lon="16.5195533"><ele>546.0</ele><time>2026-04-07T14:34:13.355Z</time></trkpt><trkpt lat="38.9970183" lon="16.519535"><ele>545.5</ele><time>2026-04-07T14:34:14.354Z</time></trkpt><trkpt lat="38.9970933" lon="16.51954"><ele>545.0</ele><time>2026-04-07T14:34:15.354Z</time></trkpt><trkpt lat="38.9971683" lon="16.5195567"><ele>544.5</ele><time>2026-04-07T14:34:16.354Z</time></trkpt><trkpt lat="38.997245" lon="16.5195667"><ele>544.0</ele><time>2026-04-07T14:34:17.354Z</time></trkpt><trkpt lat="38.99731" lon="16.51957"><ele>543.5</ele><time>2026-04-07T14:34:18.354Z</time></trkpt><trkpt lat="38.997375" lon="16.5195667"><ele>543.0</ele><time>2026-04-07T14:34:19.354Z</time></trkpt><trkpt lat="38.9974683" lon="16.5195283"><ele>542.1999999999999</ele><time>2026-04-07T14:34:21.354Z</time></trkpt><trkpt lat="38.9975533" lon="16.5194667"><ele>541.4</ele><time>2026-04-07T14:34:23.355Z</time></trkpt><trkpt lat="38.997655" lon="16.5194083"><ele>540.5999999999999</ele><time>2026-04-07T14:34:25.354Z</time></trkpt><trkpt lat="38.9977617" lon="16.5193667"><ele>539.8</ele><time>2026-04-07T14:34:27.354Z</time></trkpt><trkpt lat="38.9978317" lon="16.51937"><ele>539.0</ele><time>2026-04-07T14:34:29.354Z</time></trkpt><trkpt lat="38.9978867" lon="16.5194383"><ele>539.0</ele><time>2026-04-07T14:34:32.355Z</time></trkpt><trkpt lat="38.997915" lon="16.5195383"><ele>539.0</ele><time>2026-04-07T14:34:34.354Z</time></trkpt><trkpt lat="38.9979583" lon="16.5196483"><ele>539.0</ele><time>2026-04-07T14:34:36.354Z</time></trkpt><trkpt lat="38.99801" lon="16.5197717"><ele>539.0</ele><time>2026-04-07T14:34:38.355Z</time></trkpt><trkpt lat="38.9980583" lon="16.5198867"><ele>539.0</ele><time>2026-04-07T14:34:40.354Z</time></trkpt><trkpt lat="38.9981183" lon="16.5200033"><ele>539.4</ele><time>2026-04-07T14:34:42.354Z</time></trkpt><trkpt lat="38.9982" lon="16.5200883"><ele>539.8</ele><time>2026-04-07T14:34:44.354Z</time></trkpt><trkpt lat="38.9982783" lon="16.5201083"><ele>540.2</ele><time>2026-04-07T14:34:46.354Z</time></trkpt><trkpt lat="38.9983583" lon="16.5201"><ele>540.6</ele><time>2026-04-07T14:34:48.354Z</time></trkpt><trkpt lat="38.99843" lon="16.5200367"><ele>541.0</ele><time>2026-04-07T14:34:50.354Z</time></trkpt><trkpt lat="38.9985267" lon="16.5199433"><ele>542.3333333333334</ele><time>2026-04-07T14:34:52.355Z</time></trkpt><trkpt lat="38.9985817" lon="16.5198983"><ele>543.6666666666667</ele><time>2026-04-07T14:34:53.354Z</time></trkpt><trkpt lat="38.9986633" lon="16.519845"><ele>545.0</ele><time>2026-04-07T14:34:55.355Z</time></trkpt><trkpt lat="38.9987517" lon="16.5198417"><ele>546.3333333333334</ele><time>2026-04-07T14:34:58.355Z</time></trkpt><trkpt lat="38.9988267" lon="16.51989"><ele>547.6666666666666</ele><time>2026-04-07T14:35:00.354Z</time></trkpt><trkpt lat="38.9989067" lon="16.5199733"><ele>549.0</ele><time>2026-04-07T14:35:02.354Z</time></trkpt><trkpt lat="38.9989083" lon="16.5200583"><ele>549.0</ele><time>2026-04-07T14:35:05.355Z</time></trkpt><trkpt lat="38.9988217" lon="16.5201033"><ele>549.0</ele><time>2026-04-07T14:35:07.355Z</time></trkpt><trkpt lat="38.9987417" lon="16.5201983"><ele>549.0</ele><time>2026-04-07T14:35:09.354Z</time></trkpt><trkpt lat="38.9986933" lon="16.52029"><ele>549.0</ele><time>2026-04-07T14:35:10.354Z</time></trkpt><trkpt lat="38.9986383" lon="16.5203883"><ele>549.0</ele><time>2026-04-07T14:35:11.355Z</time></trkpt><trkpt lat="38.9985767" lon="16.520495"><ele>547.8</ele><time>2026-04-07T14:35:12.355Z</time></trkpt><trkpt lat="38.9985117" lon="16.5206033"><ele>546.5999999999999</ele><time>2026-04-07T14:35:13.355Z</time></trkpt><trkpt lat="38.998445" lon="16.5207133"><ele>545.4</ele><time>2026-04-07T14:35:14.354Z</time></trkpt><trkpt lat="38.9983833" lon="16.5208233"><ele>544.1999999999999</ele><time>2026-04-07T14:35:15.354Z</time></trkpt><trkpt lat="38.9983267" lon="16.5209217"><ele>543.0</ele><time>2026-04-07T14:35:16.354Z</time></trkpt><trkpt lat="38.9982667" lon="16.5210217"><ele>543.0</ele><time>2026-04-07T14:35:17.355Z</time></trkpt><trkpt lat="38.9982117" lon="16.5211367"><ele>543.0</ele><time>2026-04-07T14:35:18.354Z</time></trkpt><trkpt lat="38.9981617" lon="16.52127"><ele>543.0</ele><time>2026-04-07T14:35:19.354Z</time></trkpt><trkpt lat="38.9981067" lon="16.5214017"><ele>543.0</ele><time>2026-04-07T14:35:20.354Z</time></trkpt><trkpt lat="38.9980583" lon="16.52153"><ele>543.0</ele><time>2026-04-07T14:35:21.355Z</time></trkpt><trkpt lat="38.9980017" lon="16.5216383"><ele>544.1666666666666</ele><time>2026-04-07T14:35:22.355Z</time></trkpt><trkpt lat="38.997955" lon="16.5217283"><ele>545.3333333333334</ele><time>2026-04-07T14:35:23.354Z</time></trkpt><trkpt lat="38.99791" lon="16.521805"><ele>546.5</ele><time>2026-04-07T14:35:24.355Z</time></trkpt><trkpt lat="38.9978667" lon="16.521925"><ele>547.6666666666667</ele><time>2026-04-07T14:35:26.354Z</time></trkpt><trkpt lat="38.9979017" lon="16.52205"><ele>548.8333333333334</ele><time>2026-04-07T14:35:28.355Z</time></trkpt><trkpt lat="38.9979567" lon="16.5221183"><ele>550.0</ele><time>2026-04-07T14:35:29.355Z</time></trkpt><trkpt lat="38.998025" lon="16.5221967"><ele>551.0</ele><time>2026-04-07T14:35:30.354Z</time></trkpt><trkpt lat="38.998085" lon="16.5222833"><ele>552.0</ele><time>2026-04-07T14:35:31.354Z</time></trkpt><trkpt lat="38.9981217" lon="16.5223733"><ele>553.0</ele><time>2026-04-07T14:35:32.354Z</time></trkpt><trkpt lat="38.9981383" lon="16.5224833"><ele>554.0</ele><time>2026-04-07T14:35:33.354Z</time></trkpt><trkpt lat="38.99813" lon="16.522595"><ele>555.0</ele><time>2026-04-07T14:35:34.355Z</time></trkpt><trkpt lat="38.9981" lon="16.5227133"><ele>556.0</ele><time>2026-04-07T14:35:35.354Z</time></trkpt><trkpt lat="38.9980467" lon="16.522845"><ele>557.0</ele><time>2026-04-07T14:35:36.354Z</time></trkpt><trkpt lat="38.9980033" lon="16.5229867"><ele>558.0</ele><time>2026-04-07T14:35:37.355Z</time></trkpt><trkpt lat="38.9979667" lon="16.5231167"><ele>559.0</ele><time>2026-04-07T14:35:38.354Z</time></trkpt><trkpt lat="38.9979133" lon="16.52324"><ele>560.0</ele><time>2026-04-07T14:35:39.354Z</time></trkpt><trkpt lat="38.9978567" lon="16.5233817"><ele>560.0</ele><time>2026-04-07T14:35:40.355Z</time></trkpt><trkpt lat="38.9977817" lon="16.5235283"><ele>560.0</ele><time>2026-04-07T14:35:41.354Z</time></trkpt><trkpt lat="38.9977033" lon="16.52366"><ele>560.0</ele><time>2026-04-07T14:35:42.355Z</time></trkpt><trkpt lat="38.9976267" lon="16.5237883"><ele>560.0</ele><time>2026-04-07T14:35:43.355Z</time></trkpt><trkpt lat="38.997555" lon="16.5239117"><ele>561.5</ele><time>2026-04-07T14:35:44.355Z</time></trkpt><trkpt lat="38.997475" lon="16.5240367"><ele>563.0</ele><time>2026-04-07T14:35:45.354Z</time></trkpt><trkpt lat="38.9974017" lon="16.52417"><ele>564.5</ele><time>2026-04-07T14:35:46.355Z</time></trkpt><trkpt lat="38.9973183" lon="16.5243033"><ele>566.0</ele><time>2026-04-07T14:35:47.354Z</time></trkpt><trkpt lat="38.9972433" lon="16.5244283"><ele>566.0</ele><time>2026-04-07T14:35:48.355Z</time></trkpt><trkpt lat="38.9971683" lon="16.5245383"><ele>566.0</ele><time>2026-04-07T14:35:49.355Z</time></trkpt><trkpt lat="38.9971167" lon="16.52463"><ele>566.0</ele><time>2026-04-07T14:35:50.354Z</time></trkpt><trkpt lat="38.997095" lon="16.52471"><ele>566.0</ele><time>2026-04-07T14:35:51.354Z</time></trkpt><trkpt lat="38.9971433" lon="16.5248417"><ele>566.0</ele><time>2026-04-07T14:35:53.354Z</time></trkpt><trkpt lat="38.9972083" lon="16.524835"><ele>566.0</ele><time>2026-04-07T14:35:54.355Z</time></trkpt><trkpt lat="38.9972883" lon="16.5247783"><ele>566.0</ele><time>2026-04-07T14:35:55.354Z</time></trkpt><trkpt lat="38.9973583" lon="16.5246883"><ele>566.0</ele><time>2026-04-07T14:35:56.355Z</time></trkpt><trkpt lat="38.9974217" lon="16.524555"><ele>566.0</ele><time>2026-04-07T14:35:57.354Z</time></trkpt><trkpt lat="38.9974733" lon="16.5244283"><ele>566.0</ele><time>2026-04-07T14:35:58.354Z</time></trkpt><trkpt lat="38.99752" lon="16.5243067"><ele>566.0</ele><time>2026-04-07T14:35:59.355Z</time></trkpt><trkpt lat="38.99758" lon="16.52421"><ele>569.2</ele><time>2026-04-07T14:36:00.355Z</time></trkpt><trkpt lat="38.9976633" lon="16.5241517"><ele>572.4000000000001</ele><time>2026-04-07T14:36:01.355Z</time></trkpt><trkpt lat="38.9977483" lon="16.52413"><ele>575.6</ele><time>2026-04-07T14:36:02.355Z</time></trkpt><trkpt lat="38.99784" lon="16.5241467"><ele>578.8000000000001</ele><time>2026-04-07T14:36:03.355Z</time></trkpt><trkpt lat="38.9979333" lon="16.5241767"><ele>582.0</ele><time>2026-04-07T14:36:04.355Z</time></trkpt><trkpt lat="38.99803" lon="16.524175"><ele>582.0</ele><time>2026-04-07T14:36:05.355Z</time></trkpt><trkpt lat="38.99814" lon="16.5241283"><ele>582.0</ele><time>2026-04-07T14:36:06.354Z</time></trkpt><trkpt lat="38.9982233" lon="16.5240267"><ele>582.0</ele><time>2026-04-07T14:36:07.354Z</time></trkpt><trkpt lat="38.9982883" lon="16.5239283"><ele>582.0</ele><time>2026-04-07T14:36:08.355Z</time></trkpt><trkpt lat="38.9983483" lon="16.5238367"><ele>582.0</ele><time>2026-04-07T14:36:09.355Z</time></trkpt><trkpt lat="38.9984033" lon="16.52379"><ele>584.4</ele><time>2026-04-07T14:36:10.354Z</time></trkpt><trkpt lat="38.9985133" lon="16.5238067"><ele>586.8000000000001</ele><time>2026-04-07T14:36:12.354Z</time></trkpt><trkpt lat="38.9985567" lon="16.523875"><ele>589.2</ele><time>2026-04-07T14:36:13.355Z</time></trkpt><trkpt lat="38.9985667" lon="16.5239633"><ele>591.6</ele><time>2026-04-07T14:36:14.355Z</time></trkpt><trkpt lat="38.99854" lon="16.5240767"><ele>594.0</ele><time>2026-04-07T14:36:15.354Z</time></trkpt><trkpt lat="38.9984817" lon="16.5241983"><ele>594.0</ele><time>2026-04-07T14:36:16.355Z</time></trkpt><trkpt lat="38.9983917" lon="16.52431"><ele>594.0</ele><time>2026-04-07T14:36:17.354Z</time></trkpt><trkpt lat="38.998295" lon="16.5244233"><ele>594.0</ele><time>2026-04-07T14:36:18.355Z</time></trkpt><trkpt lat="38.998165" lon="16.52453"><ele>594.0</ele><time>2026-04-07T14:36:19.354Z</time></trkpt><trkpt lat="38.9980333" lon="16.524615"><ele>596.75</ele><time>2026-04-07T14:36:20.354Z</time></trkpt><trkpt lat="38.99791" lon="16.5247233"><ele>599.5</ele><time>2026-04-07T14:36:21.355Z</time></trkpt><trkpt lat="38.9978183" lon="16.52485"><ele>602.25</ele><time>2026-04-07T14:36:22.354Z</time></trkpt><trkpt lat="38.9977867" lon="16.52503"><ele>605.0</ele><time>2026-04-07T14:36:23.354Z</time></trkpt><trkpt lat="38.9977783" lon="16.525215"><ele>605.0</ele><time>2026-04-07T14:36:24.354Z</time></trkpt><trkpt lat="38.9978233" lon="16.5253767"><ele>605.0</ele><time>2026-04-07T14:36:25.355Z</time></trkpt><trkpt lat="38.9978983" lon="16.5255367"><ele>605.0</ele><time>2026-04-07T14:36:26.355Z</time></trkpt><trkpt lat="38.9979883" lon="16.5256933"><ele>605.0</ele><time>2026-04-07T14:36:27.354Z</time></trkpt><trkpt lat="38.9980983" lon="16.5258533"><ele>605.25</ele><time>2026-04-07T14:36:28.354Z</time></trkpt><trkpt lat="38.9981983" lon="16.5259983"><ele>605.5</ele><time>2026-04-07T14:36:29.355Z</time></trkpt><trkpt lat="38.9982767" lon="16.5261333"><ele>605.75</ele><time>2026-04-07T14:36:30.354Z</time></trkpt><trkpt lat="38.99833" lon="16.5262583"><ele>606.0</ele><time>2026-04-07T14:36:31.355Z</time></trkpt><trkpt lat="38.9983667" lon="16.5263833"><ele>606.0</ele><time>2026-04-07T14:36:32.354Z</time></trkpt><trkpt lat="38.9983833" lon="16.5265033"><ele>606.0</ele><time>2026-04-07T14:36:33.354Z</time></trkpt><trkpt lat="38.99835" lon="16.5266133"><ele>606.0</ele><time>2026-04-07T14:36:34.355Z</time></trkpt><trkpt lat="38.9982933" lon="16.5266767"><ele>606.0</ele><time>2026-04-07T14:36:35.354Z</time></trkpt><trkpt lat="38.9982033" lon="16.5267133"><ele>606.0</ele><time>2026-04-07T14:36:36.355Z</time></trkpt><trkpt lat="38.998095" lon="16.5267167"><ele>606.0</ele><time>2026-04-07T14:36:37.354Z</time></trkpt><trkpt lat="38.997985" lon="16.5266817"><ele>606.0</ele><time>2026-04-07T14:36:38.354Z</time></trkpt><trkpt lat="38.9978783" lon="16.5266333"><ele>606.0</ele><time>2026-04-07T14:36:39.354Z</time></trkpt><trkpt lat="38.99776" lon="16.526605"><ele>606.0</ele><time>2026-04-07T14:36:40.354Z</time></trkpt><trkpt lat="38.997635" lon="16.52661"><ele>606.0</ele><time>2026-04-07T14:36:41.354Z</time></trkpt><trkpt lat="38.9975217" lon="16.5266367"><ele>606.0</ele><time>2026-04-07T14:36:42.355Z</time></trkpt><trkpt lat="38.99742" lon="16.5266433"><ele>606.0</ele><time>2026-04-07T14:36:43.355Z</time></trkpt><trkpt lat="38.997315" lon="16.5266167"><ele>606.0</ele><time>2026-04-07T14:36:44.354Z</time></trkpt><trkpt lat="38.9972233" lon="16.526585"><ele>606.0</ele><time>2026-04-07T14:36:45.354Z</time></trkpt><trkpt lat="38.9971383" lon="16.52661"><ele>605.1666666666666</ele><time>2026-04-07T14:36:46.355Z</time></trkpt><trkpt lat="38.9970767" lon="16.5266767"><ele>604.3333333333334</ele><time>2026-04-07T14:36:47.354Z</time></trkpt><trkpt lat="38.9970567" lon="16.526765"><ele>603.5</ele><time>2026-04-07T14:36:48.354Z</time></trkpt><trkpt lat="38.997085" lon="16.52685"><ele>602.6666666666667</ele><time>2026-04-07T14:36:49.354Z</time></trkpt><trkpt lat="38.9971533" lon="16.5269267"><ele>601.8333333333334</ele><time>2026-04-07T14:36:50.354Z</time></trkpt><trkpt lat="38.99725" lon="16.5269683"><ele>601.0</ele><time>2026-04-07T14:36:51.354Z</time></trkpt><trkpt lat="38.9973317" lon="16.5270017"><ele>601.0</ele><time>2026-04-07T14:36:52.355Z</time></trkpt><trkpt lat="38.9973983" lon="16.5270233"><ele>601.0</ele><time>2026-04-07T14:36:53.354Z</time></trkpt><trkpt lat="38.9974683" lon="16.5270333"><ele>601.0</ele><time>2026-04-07T14:36:54.355Z</time></trkpt><trkpt lat="38.997545" lon="16.527045"><ele>601.0</ele><time>2026-04-07T14:36:55.355Z</time></trkpt><trkpt lat="38.9976283" lon="16.52704"><ele>601.0</ele><time>2026-04-07T14:36:56.354Z</time></trkpt><trkpt lat="38.9977233" lon="16.527045"><ele>601.0</ele><time>2026-04-07T14:36:57.355Z</time></trkpt><trkpt lat="38.9978183" lon="16.52706"><ele>605.2</ele><time>2026-04-07T14:36:58.354Z</time></trkpt><trkpt lat="38.9979067" lon="16.5270733"><ele>609.4000000000001</ele><time>2026-04-07T14:36:59.354Z</time></trkpt><trkpt lat="38.9979983" lon="16.5270983"><ele>613.6</ele><time>2026-04-07T14:37:00.355Z</time></trkpt><trkpt lat="38.9980967" lon="16.5271367"><ele>617.8000000000001</ele><time>2026-04-07T14:37:01.354Z</time></trkpt><trkpt lat="38.9981967" lon="16.5271817"><ele>622.0</ele><time>2026-04-07T14:37:02.354Z</time></trkpt><trkpt lat="38.9983" lon="16.5272167"><ele>622.0</ele><time>2026-04-07T14:37:03.354Z</time></trkpt><trkpt lat="38.9983983" lon="16.5272117"><ele>622.0</ele><time>2026-04-07T14:37:04.354Z</time></trkpt><trkpt lat="38.9985" lon="16.5271517"><ele>622.0</ele><time>2026-04-07T14:37:05.354Z</time></trkpt><trkpt lat="38.99858" lon="16.5270667"><ele>622.0</ele><time>2026-04-07T14:37:06.354Z</time></trkpt><trkpt lat="38.9986383" lon="16.5269817"><ele>622.0</ele><time>2026-04-07T14:37:07.354Z</time></trkpt><trkpt lat="38.9987033" lon="16.5269317"><ele>622.0</ele><time>2026-04-07T14:37:08.354Z</time></trkpt><trkpt lat="38.9987783" lon="16.526925"><ele>622.0</ele><time>2026-04-07T14:37:09.355Z</time></trkpt><trkpt lat="38.9988567" lon="16.5269483"><ele>622.0</ele><time>2026-04-07T14:37:10.354Z</time></trkpt><trkpt lat="38.9989467" lon="16.52699"><ele>622.0</ele><time>2026-04-07T14:37:11.355Z</time></trkpt><trkpt lat="38.9990367" lon="16.5270317"><ele>622.0</ele><time>2026-04-07T14:37:12.354Z</time></trkpt><trkpt lat="38.9991367" lon="16.5270517"><ele>622.0</ele><time>2026-04-07T14:37:13.354Z</time></trkpt><trkpt lat="38.999245" lon="16.5270583"><ele>623.25</ele><time>2026-04-07T14:37:14.354Z</time></trkpt><trkpt lat="38.99936" lon="16.5270533"><ele>624.5</ele><time>2026-04-07T14:37:15.355Z</time></trkpt><trkpt lat="38.99947" lon="16.52702"><ele>625.75</ele><time>2026-04-07T14:37:16.354Z</time></trkpt><trkpt lat="38.9995833" lon="16.52697"><ele>627.0</ele><time>2026-04-07T14:37:17.355Z</time></trkpt><trkpt lat="38.9996867" lon="16.5269033"><ele>627.0</ele><time>2026-04-07T14:37:18.355Z</time></trkpt><trkpt lat="38.9997983" lon="16.526835"><ele>627.0</ele><time>2026-04-07T14:37:19.354Z</time></trkpt><trkpt lat="38.9999017" lon="16.5267717"><ele>627.0</ele><time>2026-04-07T14:37:20.354Z</time></trkpt><trkpt lat="38.999985" lon="16.52668"><ele>627.0</ele><time>2026-04-07T14:37:21.354Z</time></trkpt><trkpt lat="39.0000617" lon="16.526555"><ele>627.0</ele><time>2026-04-07T14:37:22.355Z</time></trkpt><trkpt lat="39.00013" lon="16.526415"><ele>627.0</ele><time>2026-04-07T14:37:23.354Z</time></trkpt><trkpt lat="39.0002133" lon="16.526285"><ele>627.0</ele><time>2026-04-07T14:37:24.355Z</time></trkpt><trkpt lat="39.0003233" lon="16.5262"><ele>627.0</ele><time>2026-04-07T14:37:25.354Z</time></trkpt><trkpt lat="39.0004317" lon="16.5261167"><ele>628.5</ele><time>2026-04-07T14:37:26.354Z</time></trkpt><trkpt lat="39.0005367" lon="16.5259867"><ele>630.0</ele><time>2026-04-07T14:37:27.354Z</time></trkpt><trkpt lat="39.00063" lon="16.5258533"><ele>631.5</ele><time>2026-04-07T14:37:28.355Z</time></trkpt><trkpt lat="39.0007233" lon="16.5257483"><ele>633.0</ele><time>2026-04-07T14:37:29.355Z</time></trkpt><trkpt lat="39.0008117" lon="16.525705"><ele>632.4</ele><time>2026-04-07T14:37:30.354Z</time></trkpt><trkpt lat="39.000895" lon="16.5257083"><ele>631.8</ele><time>2026-04-07T14:37:31.355Z</time></trkpt><trkpt lat="39.0009733" lon="16.52576"><ele>631.2</ele><time>2026-04-07T14:37:32.355Z</time></trkpt><trkpt lat="39.001045" lon="16.5258433"><ele>630.6</ele><time>2026-04-07T14:37:33.355Z</time></trkpt><trkpt lat="39.00112" lon="16.5259417"><ele>630.0</ele><time>2026-04-07T14:37:34.355Z</time></trkpt><trkpt lat="39.0011983" lon="16.5260317"><ele>630.0</ele><time>2026-04-07T14:37:35.354Z</time></trkpt><trkpt lat="39.0012783" lon="16.5261"><ele>630.0</ele><time>2026-04-07T14:37:36.354Z</time></trkpt><trkpt lat="39.0013767" lon="16.5261383"><ele>630.0</ele><time>2026-04-07T14:37:37.355Z</time></trkpt><trkpt lat="39.0014783" lon="16.52613"><ele>630.0</ele><time>2026-04-07T14:37:38.355Z</time></trkpt><trkpt lat="39.0015783" lon="16.52608"><ele>630.0</ele><time>2026-04-07T14:37:39.354Z</time></trkpt><trkpt lat="39.00168" lon="16.5260067"><ele>632.4</ele><time>2026-04-07T14:37:40.354Z</time></trkpt><trkpt lat="39.0017783" lon="16.5259417"><ele>634.8</ele><time>2026-04-07T14:37:41.355Z</time></trkpt><trkpt lat="39.001875" lon="16.525865"><ele>637.2</ele><time>2026-04-07T14:37:42.354Z</time></trkpt><trkpt lat="39.001965" lon="16.5257967"><ele>639.6</ele><time>2026-04-07T14:37:43.355Z</time></trkpt><trkpt lat="39.00206" lon="16.525735"><ele>642.0</ele><time>2026-04-07T14:37:44.354Z</time></trkpt><trkpt lat="39.0021683" lon="16.525675"><ele>642.0</ele><time>2026-04-07T14:37:45.354Z</time></trkpt><trkpt lat="39.0022767" lon="16.52564"><ele>642.0</ele><time>2026-04-07T14:37:46.355Z</time></trkpt><trkpt lat="39.0023783" lon="16.5256283"><ele>642.0</ele><time>2026-04-07T14:37:47.355Z</time></trkpt><trkpt lat="39.002485" lon="16.5256517"><ele>642.0</ele><time>2026-04-07T14:37:48.355Z</time></trkpt><trkpt lat="39.0025867" lon="16.525715"><ele>642.0</ele><time>2026-04-07T14:37:49.354Z</time></trkpt><trkpt lat="39.00268" lon="16.5257767"><ele>642.6</ele><time>2026-04-07T14:37:50.355Z</time></trkpt><trkpt lat="39.0027817" lon="16.525855"><ele>643.2</ele><time>2026-04-07T14:37:51.355Z</time></trkpt><trkpt lat="39.002885" lon="16.52592"><ele>643.8</ele><time>2026-04-07T14:37:52.354Z</time></trkpt><trkpt lat="39.00298" lon="16.525975"><ele>644.4</ele><time>2026-04-07T14:37:53.354Z</time></trkpt><trkpt lat="39.003065" lon="16.526005"><ele>645.0</ele><time>2026-04-07T14:37:54.354Z</time></trkpt><trkpt lat="39.00315" lon="16.5259933"><ele>645.0</ele><time>2026-04-07T14:37:55.355Z</time></trkpt><trkpt lat="39.003235" lon="16.5259583"><ele>645.0</ele><time>2026-04-07T14:37:56.354Z</time></trkpt><trkpt lat="39.003315" lon="16.525875"><ele>645.0</ele><time>2026-04-07T14:37:57.354Z</time></trkpt><trkpt lat="39.0034033" lon="16.525805"><ele>645.0</ele><time>2026-04-07T14:37:58.355Z</time></trkpt><trkpt lat="39.0035117" lon="16.525745"><ele>645.0</ele><time>2026-04-07T14:37:59.354Z</time></trkpt><trkpt lat="39.0036083" lon="16.5256917"><ele>645.4</ele><time>2026-04-07T14:38:00.354Z</time></trkpt><trkpt lat="39.00369" lon="16.5256383"><ele>645.8</ele><time>2026-04-07T14:38:01.354Z</time></trkpt><trkpt lat="39.0037583" lon="16.5255633"><ele>646.2</ele><time>2026-04-07T14:38:02.355Z</time></trkpt><trkpt lat="39.0038133" lon="16.525475"><ele>646.6</ele><time>2026-04-07T14:38:03.355Z</time></trkpt><trkpt lat="39.0038633" lon="16.5253733"><ele>647.0</ele><time>2026-04-07T14:38:04.354Z</time></trkpt><trkpt lat="39.00392" lon="16.5252633"><ele>648.6</ele><time>2026-04-07T14:38:05.354Z</time></trkpt><trkpt lat="39.0039683" lon="16.5251433"><ele>650.2</ele><time>2026-04-07T14:38:06.354Z</time></trkpt><trkpt lat="39.0040233" lon="16.5250233"><ele>651.8</ele><time>2026-04-07T14:38:07.354Z</time></trkpt><trkpt lat="39.0040917" lon="16.5249183"><ele>653.4</ele><time>2026-04-07T14:38:08.355Z</time></trkpt><trkpt lat="39.0041767" lon="16.5248417"><ele>655.0</ele><time>2026-04-07T14:38:09.354Z</time></trkpt><trkpt lat="39.004275" lon="16.52477"><ele>655.0</ele><time>2026-04-07T14:38:10.355Z</time></trkpt><trkpt lat="39.00435" lon="16.5246817"><ele>655.0</ele><time>2026-04-07T14:38:11.355Z</time></trkpt><trkpt lat="39.0044167" lon="16.524565"><ele>655.0</ele><time>2026-04-07T14:38:12.354Z</time></trkpt><trkpt lat="39.0044717" lon="16.5244417"><ele>655.0</ele><time>2026-04-07T14:38:13.355Z</time></trkpt><trkpt lat="39.0045283" lon="16.5243417"><ele>655.0</ele><time>2026-04-07T14:38:14.354Z</time></trkpt><trkpt lat="39.0046017" lon="16.52427"><ele>655.8333333333334</ele><time>2026-04-07T14:38:15.355Z</time></trkpt><trkpt lat="39.004685" lon="16.5242317"><ele>656.6666666666667</ele><time>2026-04-07T14:38:16.355Z</time></trkpt><trkpt lat="39.00477" lon="16.5242117"><ele>657.5</ele><time>2026-04-07T14:38:17.354Z</time></trkpt><trkpt lat="39.004855" lon="16.5242233"><ele>658.3333333333334</ele><time>2026-04-07T14:38:18.355Z</time></trkpt><trkpt lat="39.0049267" lon="16.5242533"><ele>659.1666666666666</ele><time>2026-04-07T14:38:19.354Z</time></trkpt><trkpt lat="39.0049867" lon="16.5243033"><ele>660.0</ele><time>2026-04-07T14:38:20.354Z</time></trkpt><trkpt lat="39.0050333" lon="16.52437"><ele>660.0</ele><time>2026-04-07T14:38:21.355Z</time></trkpt><trkpt lat="39.00507" lon="16.5244533"><ele>660.0</ele><time>2026-04-07T14:38:22.354Z</time></trkpt><trkpt lat="39.0050917" lon="16.5245533"><ele>660.0</ele><time>2026-04-07T14:38:23.354Z</time></trkpt><trkpt lat="39.005115" lon="16.524665"><ele>660.0</ele><time>2026-04-07T14:38:24.354Z</time></trkpt><trkpt lat="39.0051433" lon="16.5247783"><ele>660.0</ele><time>2026-04-07T14:38:25.354Z</time></trkpt><trkpt lat="39.00519" lon="16.5248717"><ele>660.0</ele><time>2026-04-07T14:38:26.354Z</time></trkpt><trkpt lat="39.0052667" lon="16.5249433"><ele>658.5</ele><time>2026-04-07T14:38:27.354Z</time></trkpt><trkpt lat="39.0053467" lon="16.5249817"><ele>657.0</ele><time>2026-04-07T14:38:28.354Z</time></trkpt><trkpt lat="39.0054333" lon="16.5249717"><ele>655.5</ele><time>2026-04-07T14:38:29.355Z</time></trkpt><trkpt lat="39.0055117" lon="16.5249483"><ele>654.0</ele><time>2026-04-07T14:38:30.354Z</time></trkpt><trkpt lat="39.0055833" lon="16.52489"><ele>652.5</ele><time>2026-04-07T14:38:31.354Z</time></trkpt><trkpt lat="39.0056483" lon="16.5248117"><ele>651.0</ele><time>2026-04-07T14:38:32.354Z</time></trkpt><trkpt lat="39.0056967" lon="16.5247233"><ele>651.0</ele><time>2026-04-07T14:38:33.354Z</time></trkpt><trkpt lat="39.00574" lon="16.5246383"><ele>651.0</ele><time>2026-04-07T14:38:34.355Z</time></trkpt><trkpt lat="39.0057883" lon="16.5245717"><ele>651.0</ele><time>2026-04-07T14:38:35.354Z</time></trkpt><trkpt lat="39.0058533" lon="16.524535"><ele>651.0</ele><time>2026-04-07T14:38:36.354Z</time></trkpt><trkpt lat="39.005925" lon="16.524515"><ele>651.0</ele><time>2026-04-07T14:38:37.354Z</time></trkpt><trkpt lat="39.0060033" lon="16.5245117"><ele>651.0</ele><time>2026-04-07T14:38:38.354Z</time></trkpt><trkpt lat="39.0060933" lon="16.52451"><ele>650.3333333333334</ele><time>2026-04-07T14:38:39.355Z</time></trkpt><trkpt lat="39.0061783" lon="16.5245233"><ele>649.6666666666666</ele><time>2026-04-07T14:38:40.354Z</time></trkpt><trkpt lat="39.006255" lon="16.524555"><ele>649.0</ele><time>2026-04-07T14:38:41.354Z</time></trkpt><trkpt lat="39.0063317" lon="16.5245933"><ele>648.3333333333333</ele><time>2026-04-07T14:38:42.354Z</time></trkpt><trkpt lat="39.00641" lon="16.5246133"><ele>647.6666666666666</ele><time>2026-04-07T14:38:43.355Z</time></trkpt><trkpt lat="39.0064967" lon="16.524605"><ele>647.0</ele><time>2026-04-07T14:38:44.355Z</time></trkpt><trkpt lat="39.0065733" lon="16.5245767"><ele>648.1666666666666</ele><time>2026-04-07T14:38:45.354Z</time></trkpt><trkpt lat="39.0066567" lon="16.5245367"><ele>649.3333333333333</ele><time>2026-04-07T14:38:46.354Z</time></trkpt><trkpt lat="39.006745" lon="16.5245083"><ele>650.5</ele><time>2026-04-07T14:38:47.354Z</time></trkpt><trkpt lat="39.0068217" lon="16.52451"><ele>651.6666666666666</ele><time>2026-04-07T14:38:48.355Z</time></trkpt><trkpt lat="39.0068867" lon="16.5245417"><ele>652.8333333333334</ele><time>2026-04-07T14:38:49.355Z</time></trkpt><trkpt lat="39.0069267" lon="16.524605"><ele>654.0</ele><time>2026-04-07T14:38:50.354Z</time></trkpt><trkpt lat="39.0069483" lon="16.5246983"><ele>654.0</ele><time>2026-04-07T14:38:51.354Z</time></trkpt><trkpt lat="39.00694" lon="16.5248217"><ele>654.0</ele><time>2026-04-07T14:38:52.354Z</time></trkpt><trkpt lat="39.0069167" lon="16.5249633"><ele>654.0</ele><time>2026-04-07T14:38:53.355Z</time></trkpt><trkpt lat="39.0069217" lon="16.5251033"><ele>654.0</ele><time>2026-04-07T14:38:54.354Z</time></trkpt><trkpt lat="39.0069633" lon="16.5252183"><ele>654.0</ele><time>2026-04-07T14:38:55.355Z</time></trkpt><trkpt lat="39.0070283" lon="16.5253167"><ele>654.0</ele><time>2026-04-07T14:38:56.354Z</time></trkpt><trkpt lat="39.007105" lon="16.5253917"><ele>654.0</ele><time>2026-04-07T14:38:57.355Z</time></trkpt><trkpt lat="39.0071733" lon="16.5254683"><ele>654.0</ele><time>2026-04-07T14:38:58.354Z</time></trkpt><trkpt lat="39.007225" lon="16.52555"><ele>654.0</ele><time>2026-04-07T14:38:59.354Z</time></trkpt><trkpt lat="39.0072467" lon="16.5256367"><ele>654.0</ele><time>2026-04-07T14:39:00.354Z</time></trkpt><trkpt lat="39.0072367" lon="16.5257183"><ele>654.0</ele><time>2026-04-07T14:39:01.355Z</time></trkpt><trkpt lat="39.0072133" lon="16.5258"><ele>653.0</ele><time>2026-04-07T14:39:02.355Z</time></trkpt><trkpt lat="39.0071517" lon="16.525885"><ele>652.0</ele><time>2026-04-07T14:39:03.354Z</time></trkpt><trkpt lat="39.007055" lon="16.5259467"><ele>651.0</ele><time>2026-04-07T14:39:04.355Z</time></trkpt><trkpt lat="39.0069483" lon="16.5260083"><ele>650.0</ele><time>2026-04-07T14:39:05.355Z</time></trkpt><trkpt lat="39.0068267" lon="16.5260717"><ele>649.0</ele><time>2026-04-07T14:39:06.355Z</time></trkpt><trkpt lat="39.0066967" lon="16.5261333"><ele>646.75</ele><time>2026-04-07T14:39:07.355Z</time></trkpt><trkpt lat="39.0065733" lon="16.5262033"><ele>644.5</ele><time>2026-04-07T14:39:08.355Z</time></trkpt><trkpt lat="39.0064667" lon="16.5262783"><ele>642.25</ele><time>2026-04-07T14:39:09.355Z</time></trkpt><trkpt lat="39.0063733" lon="16.526365"><ele>640.0</ele><time>2026-04-07T14:39:10.354Z</time></trkpt><trkpt lat="39.0062933" lon="16.5264567"><ele>640.0</ele><time>2026-04-07T14:39:11.355Z</time></trkpt><trkpt lat="39.006215" lon="16.526555"><ele>640.0</ele><time>2026-04-07T14:39:12.355Z</time></trkpt><trkpt lat="39.0061533" lon="16.5266467"><ele>640.0</ele><time>2026-04-07T14:39:13.354Z</time></trkpt><trkpt lat="39.00609" lon="16.5267367"><ele>640.0</ele><time>2026-04-07T14:39:14.355Z</time></trkpt><trkpt lat="39.0060233" lon="16.5268267"><ele>640.0</ele><time>2026-04-07T14:39:15.355Z</time></trkpt><trkpt lat="39.0059667" lon="16.5269117"><ele>640.0</ele><time>2026-04-07T14:39:16.354Z</time></trkpt><trkpt lat="39.0059233" lon="16.5270033"><ele>640.0</ele><time>2026-04-07T14:39:17.354Z</time></trkpt><trkpt lat="39.0058883" lon="16.5270967"><ele>640.0</ele><time>2026-04-07T14:39:18.354Z</time></trkpt><trkpt lat="39.00588" lon="16.5272"><ele>640.0</ele><time>2026-04-07T14:39:19.355Z</time></trkpt><trkpt lat="39.0058967" lon="16.5272917"><ele>640.0</ele><time>2026-04-07T14:39:20.355Z</time></trkpt><trkpt lat="39.00593" lon="16.5273817"><ele>640.0</ele><time>2026-04-07T14:39:21.355Z</time></trkpt><trkpt lat="39.0059567" lon="16.52748"><ele>639.8</ele><time>2026-04-07T14:39:22.355Z</time></trkpt><trkpt lat="39.00597" lon="16.5275883"><ele>639.6</ele><time>2026-04-07T14:39:23.355Z</time></trkpt><trkpt lat="39.005955" lon="16.5276867"><ele>639.4</ele><time>2026-04-07T14:39:24.355Z</time></trkpt><trkpt lat="39.0059067" lon="16.5277817"><ele>639.2</ele><time>2026-04-07T14:39:25.355Z</time></trkpt><trkpt lat="39.0058217" lon="16.5278683"><ele>639.0</ele><time>2026-04-07T14:39:26.355Z</time></trkpt><trkpt lat="39.0057217" lon="16.5279333"><ele>639.0</ele><time>2026-04-07T14:39:27.355Z</time></trkpt><trkpt lat="39.0056283" lon="16.5279967"><ele>639.0</ele><time>2026-04-07T14:39:28.354Z</time></trkpt><trkpt lat="39.0055467" lon="16.5280567"><ele>639.0</ele><time>2026-04-07T14:39:29.355Z</time></trkpt><trkpt lat="39.0054783" lon="16.528125"><ele>639.0</ele><time>2026-04-07T14:39:30.354Z</time></trkpt><trkpt lat="39.00542" lon="16.5282033"><ele>639.0</ele><time>2026-04-07T14:39:31.355Z</time></trkpt><trkpt lat="39.0053817" lon="16.52829"><ele>639.0</ele><time>2026-04-07T14:39:32.354Z</time></trkpt><trkpt lat="39.005345" lon="16.5283783"><ele>639.0</ele><time>2026-04-07T14:39:33.355Z</time></trkpt><trkpt lat="39.005295" lon="16.5284533"><ele>639.0</ele><time>2026-04-07T14:39:34.355Z</time></trkpt><trkpt lat="39.005235" lon="16.5285"><ele>639.0</ele><time>2026-04-07T14:39:35.355Z</time></trkpt><trkpt lat="39.0051567" lon="16.5285133"><ele>639.0</ele><time>2026-04-07T14:39:36.354Z</time></trkpt><trkpt lat="39.0050683" lon="16.52848"><ele>639.0</ele><time>2026-04-07T14:39:37.355Z</time></trkpt><trkpt lat="39.0049833" lon="16.528435"><ele>639.0</ele><time>2026-04-07T14:39:38.355Z</time></trkpt><trkpt lat="39.0049167" lon="16.52836"><ele>636.0</ele><time>2026-04-07T14:39:39.354Z</time></trkpt><trkpt lat="39.0048583" lon="16.528265"><ele>633.0</ele><time>2026-04-07T14:39:40.354Z</time></trkpt><trkpt lat="39.0048033" lon="16.5281567"><ele>630.0</ele><time>2026-04-07T14:39:41.355Z</time></trkpt><trkpt lat="39.0047433" lon="16.52807"><ele>627.0</ele><time>2026-04-07T14:39:42.355Z</time></trkpt><trkpt lat="39.00467" lon="16.528025"><ele>624.0</ele><time>2026-04-07T14:39:43.355Z</time></trkpt><trkpt lat="39.0045833" lon="16.5280233"><ele>624.0</ele><time>2026-04-07T14:39:44.354Z</time></trkpt><trkpt lat="39.0044883" lon="16.5280517"><ele>624.0</ele><time>2026-04-07T14:39:45.355Z</time></trkpt><trkpt lat="39.0043933" lon="16.5281117"><ele>624.0</ele><time>2026-04-07T14:39:46.355Z</time></trkpt><trkpt lat="39.0043117" lon="16.528195"><ele>624.0</ele><time>2026-04-07T14:39:47.354Z</time></trkpt><trkpt lat="39.0042467" lon="16.528295"><ele>624.0</ele><time>2026-04-07T14:39:48.354Z</time></trkpt><trkpt lat="39.0042217" lon="16.5284033"><ele>624.0</ele><time>2026-04-07T14:39:49.354Z</time></trkpt><trkpt lat="39.004225" lon="16.528525"><ele>624.0</ele><time>2026-04-07T14:39:50.355Z</time></trkpt><trkpt lat="39.004245" lon="16.5286217"><ele>624.0</ele><time>2026-04-07T14:39:51.355Z</time></trkpt><trkpt lat="39.0042983" lon="16.5287083"><ele>624.0</ele><time>2026-04-07T14:39:52.355Z</time></trkpt><trkpt lat="39.0043633" lon="16.528785"><ele>624.0</ele><time>2026-04-07T14:39:53.355Z</time></trkpt><trkpt lat="39.0044033" lon="16.5288617"><ele>624.0</ele><time>2026-04-07T14:39:54.354Z</time></trkpt><trkpt lat="39.0044133" lon="16.5289433"><ele>625.25</ele><time>2026-04-07T14:39:55.355Z</time></trkpt><trkpt lat="39.0043717" lon="16.5291033"><ele>626.5</ele><time>2026-04-07T14:39:57.354Z</time></trkpt><trkpt lat="39.00431" lon="16.529205"><ele>627.75</ele><time>2026-04-07T14:39:58.355Z</time></trkpt><trkpt lat="39.0042417" lon="16.5293183"><ele>629.0</ele><time>2026-04-07T14:39:59.354Z</time></trkpt><trkpt lat="39.0041683" lon="16.5294433"><ele>625.6</ele><time>2026-04-07T14:40:00.355Z</time></trkpt><trkpt lat="39.0041017" lon="16.52954"><ele>622.2</ele><time>2026-04-07T14:40:01.354Z</time></trkpt><trkpt lat="39.0040333" lon="16.5296133"><ele>618.8000000000001</ele><time>2026-04-07T14:40:02.354Z</time></trkpt><trkpt lat="39.0039517" lon="16.529665"><ele>615.4</ele><time>2026-04-07T14:40:03.355Z</time></trkpt><trkpt lat="39.003875" lon="16.5297217"><ele>612.0</ele><time>2026-04-07T14:40:04.354Z</time></trkpt><trkpt lat="39.0038183" lon="16.5297967"><ele>612.0</ele><time>2026-04-07T14:40:05.354Z</time></trkpt><trkpt lat="39.0038033" lon="16.5298767"><ele>612.0</ele><time>2026-04-07T14:40:06.355Z</time></trkpt><trkpt lat="39.0038233" lon="16.5299583"><ele>612.0</ele><time>2026-04-07T14:40:07.354Z</time></trkpt><trkpt lat="39.0038833" lon="16.5300383"><ele>612.0</ele><time>2026-04-07T14:40:08.354Z</time></trkpt><trkpt lat="39.003945" lon="16.53011"><ele>612.0</ele><time>2026-04-07T14:40:09.355Z</time></trkpt><trkpt lat="39.003995" lon="16.5302017"><ele>612.0</ele><time>2026-04-07T14:40:10.355Z</time></trkpt><trkpt lat="39.0040167" lon="16.5302983"><ele>613.8333333333334</ele><time>2026-04-07T14:40:11.354Z</time></trkpt><trkpt lat="39.0040117" lon="16.5303967"><ele>615.6666666666666</ele><time>2026-04-07T14:40:12.354Z</time></trkpt><trkpt lat="39.0039817" lon="16.5304867"><ele>617.5</ele><time>2026-04-07T14:40:13.355Z</time></trkpt><trkpt lat="39.003935" lon="16.530565"><ele>619.3333333333333</ele><time>2026-04-07T14:40:14.354Z</time></trkpt><trkpt lat="39.00387" lon="16.53062"><ele>621.1666666666666</ele><time>2026-04-07T14:40:15.355Z</time></trkpt><trkpt lat="39.0038" lon="16.5306683"><ele>623.0</ele><time>2026-04-07T14:40:16.354Z</time></trkpt><trkpt lat="39.0037383" lon="16.5307233"><ele>623.0</ele><time>2026-04-07T14:40:17.355Z</time></trkpt><trkpt lat="39.00371" lon="16.5308"><ele>623.0</ele><time>2026-04-07T14:40:18.355Z</time></trkpt><trkpt lat="39.0037033" lon="16.5308883"><ele>623.0</ele><time>2026-04-07T14:40:19.355Z</time></trkpt><trkpt lat="39.00371" lon="16.530985"><ele>623.0</ele><time>2026-04-07T14:40:20.355Z</time></trkpt><trkpt lat="39.003725" lon="16.5310867"><ele>623.0</ele><time>2026-04-07T14:40:21.355Z</time></trkpt><trkpt lat="39.003735" lon="16.5311833"><ele>623.0</ele><time>2026-04-07T14:40:22.354Z</time></trkpt><trkpt lat="39.0037283" lon="16.5312767"><ele>623.0</ele><time>2026-04-07T14:40:23.355Z</time></trkpt><trkpt lat="39.0036983" lon="16.53136"><ele>625.8</ele><time>2026-04-07T14:40:24.354Z</time></trkpt><trkpt lat="39.0035867" lon="16.5314433"><ele>628.5999999999999</ele><time>2026-04-07T14:40:26.355Z</time></trkpt><trkpt lat="39.0035117" lon="16.5314617"><ele>631.4000000000001</ele><time>2026-04-07T14:40:27.354Z</time></trkpt><trkpt lat="39.0034317" lon="16.5314617"><ele>634.2</ele><time>2026-04-07T14:40:28.354Z</time></trkpt><trkpt lat="39.0033567" lon="16.5314183"><ele>637.0</ele><time>2026-04-07T14:40:29.354Z</time></trkpt><trkpt lat="39.003305" lon="16.531335"><ele>637.2</ele><time>2026-04-07T14:40:30.355Z</time></trkpt><trkpt lat="39.0032667" lon="16.5312433"><ele>637.4000000000001</ele><time>2026-04-07T14:40:31.355Z</time></trkpt><trkpt lat="39.0032317" lon="16.5311333"><ele>637.5999999999999</ele><time>2026-04-07T14:40:32.354Z</time></trkpt><trkpt lat="39.0031933" lon="16.531025"><ele>637.8</ele><time>2026-04-07T14:40:33.354Z</time></trkpt><trkpt lat="39.0031383" lon="16.53093"><ele>638.0</ele><time>2026-04-07T14:40:34.355Z</time></trkpt><trkpt lat="39.0030683" lon="16.53085"><ele>636.0</ele><time>2026-04-07T14:40:35.354Z</time></trkpt><trkpt lat="39.002975" lon="16.5307633"><ele>634.0</ele><time>2026-04-07T14:40:36.355Z</time></trkpt><trkpt lat="39.00277" lon="16.5305867"><ele>632.0</ele><time>2026-04-07T14:40:38.354Z</time></trkpt><trkpt lat="39.0026717" lon="16.5304983"><ele>632.0</ele><time>2026-04-07T14:40:39.354Z</time></trkpt><trkpt lat="39.0025767" lon="16.530425"><ele>632.0</ele><time>2026-04-07T14:40:40.354Z</time></trkpt><trkpt lat="39.0024967" lon="16.53038"><ele>632.0</ele><time>2026-04-07T14:40:41.354Z</time></trkpt><trkpt lat="39.00242" lon="16.53036"><ele>632.0</ele><time>2026-04-07T14:40:42.354Z</time></trkpt><trkpt lat="39.0023367" lon="16.53038"><ele>632.0</ele><time>2026-04-07T14:40:43.354Z</time></trkpt><trkpt lat="39.00225" lon="16.5304483"><ele>629.25</ele><time>2026-04-07T14:40:44.355Z</time></trkpt><trkpt lat="39.0021617" lon="16.5305533"><ele>626.5</ele><time>2026-04-07T14:40:45.354Z</time></trkpt><trkpt lat="39.0020817" lon="16.5306983"><ele>623.75</ele><time>2026-04-07T14:40:46.355Z</time></trkpt><trkpt lat="39.0020083" lon="16.5308283"><ele>621.0</ele><time>2026-04-07T14:40:47.354Z</time></trkpt><trkpt lat="39.0019617" lon="16.5309367"><ele>621.0</ele><time>2026-04-07T14:40:48.354Z</time></trkpt><trkpt lat="39.001935" lon="16.5310583"><ele>621.0</ele><time>2026-04-07T14:40:49.354Z</time></trkpt><trkpt lat="39.0019267" lon="16.5311867"><ele>621.0</ele><time>2026-04-07T14:40:50.354Z</time></trkpt><trkpt lat="39.0019633" lon="16.5313033"><ele>621.0</ele><time>2026-04-07T14:40:51.354Z</time></trkpt><trkpt lat="39.00202" lon="16.531405"><ele>621.0</ele><time>2026-04-07T14:40:52.354Z</time></trkpt><trkpt lat="39.0020933" lon="16.531505"><ele>620.6</ele><time>2026-04-07T14:40:53.355Z</time></trkpt><trkpt lat="39.0021517" lon="16.53161"><ele>620.2</ele><time>2026-04-07T14:40:54.354Z</time></trkpt><trkpt lat="39.0021817" lon="16.5317267"><ele>619.8</ele><time>2026-04-07T14:40:55.354Z</time></trkpt><trkpt lat="39.00218" lon="16.5318483"><ele>619.4</ele><time>2026-04-07T14:40:56.355Z</time></trkpt><trkpt lat="39.0021767" lon="16.531985"><ele>619.0</ele><time>2026-04-07T14:40:57.355Z</time></trkpt><trkpt lat="39.0021833" lon="16.5321083"><ele>617.0</ele><time>2026-04-07T14:40:58.354Z</time></trkpt><trkpt lat="39.0022117" lon="16.5322233"><ele>615.0</ele><time>2026-04-07T14:40:59.354Z</time></trkpt><trkpt lat="39.002265" lon="16.5323467"><ele>613.0</ele><time>2026-04-07T14:41:00.354Z</time></trkpt><trkpt lat="39.00231" lon="16.5324683"><ele>611.0</ele><time>2026-04-07T14:41:01.355Z</time></trkpt><trkpt lat="39.0023383" lon="16.532585"><ele>609.0</ele><time>2026-04-07T14:41:02.355Z</time></trkpt><trkpt lat="39.0023367" lon="16.5327067"><ele>609.0</ele><time>2026-04-07T14:41:03.354Z</time></trkpt><trkpt lat="39.0023117" lon="16.532815"><ele>609.0</ele><time>2026-04-07T14:41:04.355Z</time></trkpt><trkpt lat="39.0022617" lon="16.5329183"><ele>609.0</ele><time>2026-04-07T14:41:05.355Z</time></trkpt><trkpt lat="39.0021833" lon="16.5330167"><ele>609.0</ele><time>2026-04-07T14:41:06.355Z</time></trkpt><trkpt lat="39.002095" lon="16.53311"><ele>609.0</ele><time>2026-04-07T14:41:07.354Z</time></trkpt><trkpt lat="39.002005" lon="16.53321"><ele>610.0</ele><time>2026-04-07T14:41:08.354Z</time></trkpt><trkpt lat="39.00192" lon="16.5333067"><ele>611.0</ele><time>2026-04-07T14:41:09.354Z</time></trkpt><trkpt lat="39.0018417" lon="16.5333917"><ele>612.0</ele><time>2026-04-07T14:41:10.354Z</time></trkpt><trkpt lat="39.0017833" lon="16.5334817"><ele>613.0</ele><time>2026-04-07T14:41:11.355Z</time></trkpt><trkpt lat="39.0017517" lon="16.5336067"><ele>614.0</ele><time>2026-04-07T14:41:12.355Z</time></trkpt><trkpt lat="39.0017383" lon="16.5337433"><ele>614.75</ele><time>2026-04-07T14:41:13.355Z</time></trkpt><trkpt lat="39.00174" lon="16.5338883"><ele>615.5</ele><time>2026-04-07T14:41:14.354Z</time></trkpt><trkpt lat="39.0017067" lon="16.5340267"><ele>616.25</ele><time>2026-04-07T14:41:15.355Z</time></trkpt><trkpt lat="39.0016517" lon="16.5341583"><ele>617.0</ele><time>2026-04-07T14:41:16.354Z</time></trkpt><trkpt lat="39.001585" lon="16.5342833"><ele>615.8000000000001</ele><time>2026-04-07T14:41:17.354Z</time></trkpt><trkpt lat="39.0015117" lon="16.5343917"><ele>614.6</ele><time>2026-04-07T14:41:18.355Z</time></trkpt><trkpt lat="39.0014267" lon="16.534475"><ele>613.4000000000001</ele><time>2026-04-07T14:41:19.355Z</time></trkpt><trkpt lat="39.0013333" lon="16.5345333"><ele>612.2</ele><time>2026-04-07T14:41:20.354Z</time></trkpt><trkpt lat="39.00122" lon="16.5345717"><ele>611.0</ele><time>2026-04-07T14:41:21.354Z</time></trkpt><trkpt lat="39.00109" lon="16.5345883"><ele>611.0</ele><time>2026-04-07T14:41:22.355Z</time></trkpt><trkpt lat="39.0009683" lon="16.534575"><ele>611.0</ele><time>2026-04-07T14:41:23.355Z</time></trkpt><trkpt lat="39.00086" lon="16.5345433"><ele>611.0</ele><time>2026-04-07T14:41:24.355Z</time></trkpt><trkpt lat="39.000765" lon="16.5344883"><ele>611.0</ele><time>2026-04-07T14:41:25.355Z</time></trkpt><trkpt lat="39.0006867" lon="16.5343933"><ele>611.0</ele><time>2026-04-07T14:41:26.355Z</time></trkpt><trkpt lat="39.000615" lon="16.5342967"><ele>610.75</ele><time>2026-04-07T14:41:27.354Z</time></trkpt><trkpt lat="39.0005317" lon="16.5342117"><ele>610.5</ele><time>2026-04-07T14:41:28.354Z</time></trkpt><trkpt lat="39.000425" lon="16.53416"><ele>610.25</ele><time>2026-04-07T14:41:29.355Z</time></trkpt><trkpt lat="39.00031" lon="16.5341267"><ele>610.0</ele><time>2026-04-07T14:41:30.354Z</time></trkpt><trkpt lat="39.0001817" lon="16.5341167"><ele>610.0</ele><time>2026-04-07T14:41:31.355Z</time></trkpt><trkpt lat="39.0000533" lon="16.534125"><ele>610.0</ele><time>2026-04-07T14:41:32.354Z</time></trkpt><trkpt lat="38.9999367" lon="16.534125"><ele>610.0</ele><time>2026-04-07T14:41:33.354Z</time></trkpt><trkpt lat="38.9998133" lon="16.5341633"><ele>610.0</ele><time>2026-04-07T14:41:34.354Z</time></trkpt><trkpt lat="38.9997067" lon="16.53423"><ele>610.0</ele><time>2026-04-07T14:41:35.354Z</time></trkpt><trkpt lat="38.9996083" lon="16.5342767"><ele>610.0</ele><time>2026-04-07T14:41:36.354Z</time></trkpt><trkpt lat="38.999495" lon="16.5342983"><ele>610.0</ele><time>2026-04-07T14:41:37.354Z</time></trkpt><trkpt lat="38.9993817" lon="16.5342683"><ele>610.0</ele><time>2026-04-07T14:41:38.355Z</time></trkpt><trkpt lat="38.9992733" lon="16.5342383"><ele>610.0</ele><time>2026-04-07T14:41:39.354Z</time></trkpt><trkpt lat="38.99917" lon="16.53424"><ele>610.2</ele><time>2026-04-07T14:41:40.354Z</time></trkpt><trkpt lat="38.9990733" lon="16.5342883"><ele>610.4</ele><time>2026-04-07T14:41:41.354Z</time></trkpt><trkpt lat="38.999" lon="16.53437"><ele>610.6</ele><time>2026-04-07T14:41:42.355Z</time></trkpt><trkpt lat="38.9989633" lon="16.5344967"><ele>610.8</ele><time>2026-04-07T14:41:43.355Z</time></trkpt><trkpt lat="38.99896" lon="16.5346433"><ele>611.0</ele><time>2026-04-07T14:41:44.354Z</time></trkpt><trkpt lat="38.9989567" lon="16.5347817"><ele>611.0</ele><time>2026-04-07T14:41:45.355Z</time></trkpt><trkpt lat="38.9989433" lon="16.534895"><ele>611.0</ele><time>2026-04-07T14:41:46.354Z</time></trkpt><trkpt lat="38.9988983" lon="16.5349983"><ele>611.0</ele><time>2026-04-07T14:41:47.354Z</time></trkpt><trkpt lat="38.9988317" lon="16.5350717"><ele>611.0</ele><time>2026-04-07T14:41:48.354Z</time></trkpt><trkpt lat="38.9987633" lon="16.5351183"><ele>611.0</ele><time>2026-04-07T14:41:49.355Z</time></trkpt><trkpt lat="38.998685" lon="16.5351067"><ele>611.0</ele><time>2026-04-07T14:41:50.355Z</time></trkpt><trkpt lat="38.9986117" lon="16.535045"><ele>611.0</ele><time>2026-04-07T14:41:51.355Z</time></trkpt><trkpt lat="38.9985367" lon="16.5349567"><ele>611.0</ele><time>2026-04-07T14:41:52.354Z</time></trkpt><trkpt lat="38.9984583" lon="16.5348667"><ele>611.0</ele><time>2026-04-07T14:41:53.354Z</time></trkpt><trkpt lat="38.998385" lon="16.5347967"><ele>611.0</ele><time>2026-04-07T14:41:54.354Z</time></trkpt><trkpt lat="38.998295" lon="16.5347633"><ele>611.0</ele><time>2026-04-07T14:41:55.355Z</time></trkpt><trkpt lat="38.9982033" lon="16.534775"><ele>609.6</ele><time>2026-04-07T14:41:56.355Z</time></trkpt><trkpt lat="38.998125" lon="16.534815"><ele>608.2</ele><time>2026-04-07T14:41:57.354Z</time></trkpt><trkpt lat="38.9980517" lon="16.534915"><ele>606.8</ele><time>2026-04-07T14:41:58.354Z</time></trkpt><trkpt lat="38.9979717" lon="16.5350183"><ele>605.4</ele><time>2026-04-07T14:41:59.354Z</time></trkpt><trkpt lat="38.9978733" lon="16.5350783"><ele>604.0</ele><time>2026-04-07T14:42:00.354Z</time></trkpt><trkpt lat="38.997765" lon="16.5350783"><ele>604.0</ele><time>2026-04-07T14:42:01.355Z</time></trkpt><trkpt lat="38.99765" lon="16.535055"><ele>604.0</ele><time>2026-04-07T14:42:02.354Z</time></trkpt><trkpt lat="38.9975333" lon="16.5350133"><ele>604.0</ele><time>2026-04-07T14:42:03.354Z</time></trkpt><trkpt lat="38.9974033" lon="16.5349767"><ele>604.0</ele><time>2026-04-07T14:42:04.354Z</time></trkpt><trkpt lat="38.99727" lon="16.5349383"><ele>602.75</ele><time>2026-04-07T14:42:05.355Z</time></trkpt><trkpt lat="38.9971317" lon="16.5349033"><ele>601.5</ele><time>2026-04-07T14:42:06.355Z</time></trkpt><trkpt lat="38.9969983" lon="16.5348667"><ele>600.25</ele><time>2026-04-07T14:42:07.354Z</time></trkpt><trkpt lat="38.9968733" lon="16.534835"><ele>599.0</ele><time>2026-04-07T14:42:08.354Z</time></trkpt><trkpt lat="38.9967633" lon="16.5348183"><ele>599.0</ele><time>2026-04-07T14:42:09.355Z</time></trkpt><trkpt lat="38.99668" lon="16.5348167"><ele>599.0</ele><time>2026-04-07T14:42:10.354Z</time></trkpt><trkpt lat="38.9966067" lon="16.5348483"><ele>599.0</ele><time>2026-04-07T14:42:11.354Z</time></trkpt><trkpt lat="38.99654" lon="16.5349283"><ele>599.0</ele><time>2026-04-07T14:42:12.354Z</time></trkpt><trkpt lat="38.99647" lon="16.535025"><ele>599.0</ele><time>2026-04-07T14:42:13.355Z</time></trkpt><trkpt lat="38.99638" lon="16.5351067"><ele>598.0</ele><time>2026-04-07T14:42:14.354Z</time></trkpt><trkpt lat="38.9962833" lon="16.5351517"><ele>597.0</ele><time>2026-04-07T14:42:15.354Z</time></trkpt><trkpt lat="38.9961767" lon="16.5351833"><ele>596.0</ele><time>2026-04-07T14:42:16.354Z</time></trkpt><trkpt lat="38.9960683" lon="16.5352383"><ele>595.0</ele><time>2026-04-07T14:42:17.355Z</time></trkpt><trkpt lat="38.995965" lon="16.5353283"><ele>593.25</ele><time>2026-04-07T14:42:18.354Z</time></trkpt><trkpt lat="38.9958567" lon="16.5354333"><ele>591.5</ele><time>2026-04-07T14:42:19.354Z</time></trkpt><trkpt lat="38.9957567" lon="16.5355367"><ele>589.75</ele><time>2026-04-07T14:42:20.355Z</time></trkpt><trkpt lat="38.9956667" lon="16.53564"><ele>588.0</ele><time>2026-04-07T14:42:21.354Z</time></trkpt><trkpt lat="38.99559" lon="16.5357383"><ele>588.0</ele><time>2026-04-07T14:42:22.355Z</time></trkpt><trkpt lat="38.99555" lon="16.53582"><ele>588.0</ele><time>2026-04-07T14:42:23.355Z</time></trkpt><trkpt lat="38.99552" lon="16.5359467"><ele>588.0</ele><time>2026-04-07T14:42:24.354Z</time></trkpt><trkpt lat="38.9954967" lon="16.5360783"><ele>588.0</ele><time>2026-04-07T14:42:25.354Z</time></trkpt><trkpt lat="38.9954783" lon="16.5362117"><ele>588.0</ele><time>2026-04-07T14:42:26.355Z</time></trkpt><trkpt lat="38.9954617" lon="16.5363533"><ele>588.8</ele><time>2026-04-07T14:42:27.355Z</time></trkpt><trkpt lat="38.99546" lon="16.5364833"><ele>589.5999999999999</ele><time>2026-04-07T14:42:28.355Z</time></trkpt><trkpt lat="38.99546" lon="16.5366133"><ele>590.4000000000001</ele><time>2026-04-07T14:42:29.354Z</time></trkpt><trkpt lat="38.9954583" lon="16.53676"><ele>591.2</ele><time>2026-04-07T14:42:30.354Z</time></trkpt><trkpt lat="38.995455" lon="16.5368867"><ele>592.0</ele><time>2026-04-07T14:42:31.354Z</time></trkpt><trkpt lat="38.9954567" lon="16.5370167"><ele>591.2</ele><time>2026-04-07T14:42:32.354Z</time></trkpt><trkpt lat="38.995455" lon="16.537135"><ele>590.4000000000001</ele><time>2026-04-07T14:42:33.354Z</time></trkpt><trkpt lat="38.9954517" lon="16.5372533"><ele>589.5999999999999</ele><time>2026-04-07T14:42:34.355Z</time></trkpt><trkpt lat="38.9954383" lon="16.53737"><ele>588.8</ele><time>2026-04-07T14:42:35.354Z</time></trkpt><trkpt lat="38.9954167" lon="16.5374817"><ele>588.0</ele><time>2026-04-07T14:42:36.354Z</time></trkpt><trkpt lat="38.995375" lon="16.537595"><ele>588.0</ele><time>2026-04-07T14:42:37.355Z</time></trkpt><trkpt lat="38.9953183" lon="16.53772"><ele>588.0</ele><time>2026-04-07T14:42:38.354Z</time></trkpt><trkpt lat="38.99525" lon="16.5378383"><ele>588.0</ele><time>2026-04-07T14:42:39.354Z</time></trkpt><trkpt lat="38.9951933" lon="16.5379417"><ele>588.0</ele><time>2026-04-07T14:42:40.354Z</time></trkpt><trkpt lat="38.9951617" lon="16.5380517"><ele>588.0</ele><time>2026-04-07T14:42:41.354Z</time></trkpt><trkpt lat="38.9951533" lon="16.53815"><ele>586.1999999999999</ele><time>2026-04-07T14:42:42.354Z</time></trkpt><trkpt lat="38.9951783" lon="16.5382617"><ele>584.4</ele><time>2026-04-07T14:42:43.355Z</time></trkpt><trkpt lat="38.9952217" lon="16.5383767"><ele>582.5999999999999</ele><time>2026-04-07T14:42:44.355Z</time></trkpt><trkpt lat="38.9952633" lon="16.538495"><ele>580.8</ele><time>2026-04-07T14:42:45.354Z</time></trkpt><trkpt lat="38.9952917" lon="16.5386217"><ele>579.0</ele><time>2026-04-07T14:42:46.355Z</time></trkpt><trkpt lat="38.9952967" lon="16.53876"><ele>576.8</ele><time>2026-04-07T14:42:47.354Z</time></trkpt><trkpt lat="38.9952867" lon="16.53889"><ele>574.5999999999999</ele><time>2026-04-07T14:42:48.354Z</time></trkpt><trkpt lat="38.99528" lon="16.5390183"><ele>572.4</ele><time>2026-04-07T14:42:49.354Z</time></trkpt><trkpt lat="38.9952933" lon="16.539125"><ele>570.1999999999999</ele><time>2026-04-07T14:42:50.354Z</time></trkpt><trkpt lat="38.995335" lon="16.53922"><ele>568.0</ele><time>2026-04-07T14:42:51.354Z</time></trkpt><trkpt lat="38.995405" lon="16.539295"><ele>568.0</ele><time>2026-04-07T14:42:52.354Z</time></trkpt><trkpt lat="38.9954867" lon="16.539335"><ele>568.0</ele><time>2026-04-07T14:42:53.355Z</time></trkpt><trkpt lat="38.9955783" lon="16.5393283"><ele>568.0</ele><time>2026-04-07T14:42:54.354Z</time></trkpt><trkpt lat="38.9956833" lon="16.5392733"><ele>568.0</ele><time>2026-04-07T14:42:55.355Z</time></trkpt><trkpt lat="38.9957867" lon="16.5391933"><ele>568.0</ele><time>2026-04-07T14:42:56.354Z</time></trkpt><trkpt lat="38.9958933" lon="16.53907"><ele>567.6</ele><time>2026-04-07T14:42:57.354Z</time></trkpt><trkpt lat="38.9959967" lon="16.538965"><ele>567.1999999999999</ele><time>2026-04-07T14:42:58.354Z</time></trkpt><trkpt lat="38.9960817" lon="16.5389133"><ele>566.8</ele><time>2026-04-07T14:42:59.355Z</time></trkpt><trkpt lat="38.9961733" lon="16.5388567"><ele>566.4</ele><time>2026-04-07T14:43:00.354Z</time></trkpt><trkpt lat="38.9962433" lon="16.538845"><ele>566.0</ele><time>2026-04-07T14:43:01.355Z</time></trkpt><trkpt lat="38.99632" lon="16.538875"><ele>566.0</ele><time>2026-04-07T14:43:02.355Z</time></trkpt><trkpt lat="38.9963817" lon="16.538935"><ele>566.0</ele><time>2026-04-07T14:43:03.354Z</time></trkpt><trkpt lat="38.9964083" lon="16.5390167"><ele>566.0</ele><time>2026-04-07T14:43:04.354Z</time></trkpt><trkpt lat="38.9963983" lon="16.539125"><ele>566.0</ele><time>2026-04-07T14:43:05.355Z</time></trkpt><trkpt lat="38.9963733" lon="16.5392433"><ele>566.0</ele><time>2026-04-07T14:43:06.355Z</time></trkpt><trkpt lat="38.9963683" lon="16.5393517"><ele>566.0</ele><time>2026-04-07T14:43:07.354Z</time></trkpt><trkpt lat="38.9964067" lon="16.5394633"><ele>563.8</ele><time>2026-04-07T14:43:08.355Z</time></trkpt><trkpt lat="38.9964667" lon="16.5395667"><ele>561.6</ele><time>2026-04-07T14:43:09.355Z</time></trkpt><trkpt lat="38.9965483" lon="16.5396517"><ele>559.4</ele><time>2026-04-07T14:43:10.354Z</time></trkpt><trkpt lat="38.9966567" lon="16.5397"><ele>557.2</ele><time>2026-04-07T14:43:11.354Z</time></trkpt><trkpt lat="38.9967617" lon="16.5397033"><ele>555.0</ele><time>2026-04-07T14:43:12.355Z</time></trkpt><trkpt lat="38.99687" lon="16.53967"><ele>553.6</ele><time>2026-04-07T14:43:13.355Z</time></trkpt><trkpt lat="38.9969783" lon="16.53961"><ele>552.2</ele><time>2026-04-07T14:43:14.355Z</time></trkpt><trkpt lat="38.99709" lon="16.539555"><ele>550.8</ele><time>2026-04-07T14:43:15.355Z</time></trkpt><trkpt lat="38.9971933" lon="16.5395433"><ele>549.4</ele><time>2026-04-07T14:43:16.354Z</time></trkpt><trkpt lat="38.9972767" lon="16.5395833"><ele>548.0</ele><time>2026-04-07T14:43:17.354Z</time></trkpt><trkpt lat="38.9973483" lon="16.5396517"><ele>548.0</ele><time>2026-04-07T14:43:18.355Z</time></trkpt><trkpt lat="38.997405" lon="16.5397533"><ele>548.0</ele><time>2026-04-07T14:43:19.354Z</time></trkpt><trkpt lat="38.997455" lon="16.5398467"><ele>548.0</ele><time>2026-04-07T14:43:20.355Z</time></trkpt><trkpt lat="38.9975133" lon="16.5399133"><ele>548.0</ele><time>2026-04-07T14:43:21.355Z</time></trkpt><trkpt lat="38.9975767" lon="16.53994"><ele>548.0</ele><time>2026-04-07T14:43:22.355Z</time></trkpt><trkpt lat="38.9976483" lon="16.5399283"><ele>548.0</ele><time>2026-04-07T14:43:23.355Z</time></trkpt><trkpt lat="38.9977133" lon="16.5398733"><ele>547.8</ele><time>2026-04-07T14:43:24.355Z</time></trkpt><trkpt lat="38.9977783" lon="16.5397733"><ele>547.5999999999999</ele><time>2026-04-07T14:43:25.354Z</time></trkpt><trkpt lat="38.997845" lon="16.5396467"><ele>547.4000000000001</ele><time>2026-04-07T14:43:26.354Z</time></trkpt><trkpt lat="38.9979117" lon="16.5395283"><ele>547.2</ele><time>2026-04-07T14:43:27.355Z</time></trkpt><trkpt lat="38.9979867" lon="16.53946"><ele>547.0</ele><time>2026-04-07T14:43:28.354Z</time></trkpt><trkpt lat="38.99808" lon="16.5394267"><ele>548.4</ele><time>2026-04-07T14:43:29.354Z</time></trkpt><trkpt lat="38.9981783" lon="16.5394183"><ele>549.8000000000001</ele><time>2026-04-07T14:43:30.355Z</time></trkpt><trkpt lat="38.9982817" lon="16.53944"><ele>551.2</ele><time>2026-04-07T14:43:31.354Z</time></trkpt><trkpt lat="38.9983717" lon="16.5394667"><ele>552.6</ele><time>2026-04-07T14:43:32.354Z</time></trkpt><trkpt lat="38.9984433" lon="16.5395133"><ele>554.0</ele><time>2026-04-07T14:43:33.355Z</time></trkpt><trkpt lat="38.9984983" lon="16.5395767"><ele>554.0</ele><time>2026-04-07T14:43:34.355Z</time></trkpt><trkpt lat="38.9985367" lon="16.539655"><ele>554.0</ele><time>2026-04-07T14:43:35.354Z</time></trkpt><trkpt lat="38.998555" lon="16.5397633"><ele>554.0</ele><time>2026-04-07T14:43:36.354Z</time></trkpt><trkpt lat="38.9985533" lon="16.539895"><ele>554.0</ele><time>2026-04-07T14:43:37.354Z</time></trkpt><trkpt lat="38.9985517" lon="16.5400267"><ele>554.0</ele><time>2026-04-07T14:43:38.355Z</time></trkpt><trkpt lat="38.9985717" lon="16.54014"><ele>554.0</ele><time>2026-04-07T14:43:39.354Z</time></trkpt><trkpt lat="38.9986283" lon="16.5402417"><ele>554.0</ele><time>2026-04-07T14:43:40.354Z</time></trkpt><trkpt lat="38.9987067" lon="16.540315"><ele>554.0</ele><time>2026-04-07T14:43:41.355Z</time></trkpt><trkpt lat="38.9988" lon="16.5403533"><ele>554.0</ele><time>2026-04-07T14:43:42.354Z</time></trkpt><trkpt lat="38.9989017" lon="16.54038"><ele>554.0</ele><time>2026-04-07T14:43:43.355Z</time></trkpt><trkpt lat="38.9989967" lon="16.5403767"><ele>554.0</ele><time>2026-04-07T14:43:44.355Z</time></trkpt><trkpt lat="38.99908" lon="16.540335"><ele>554.0</ele><time>2026-04-07T14:43:45.355Z</time></trkpt><trkpt lat="38.9991583" lon="16.5402683"><ele>554.0</ele><time>2026-04-07T14:43:46.355Z</time></trkpt><trkpt lat="38.9992183" lon="16.5401767"><ele>554.0</ele><time>2026-04-07T14:43:47.355Z</time></trkpt><trkpt lat="38.99927" lon="16.540095"><ele>554.0</ele><time>2026-04-07T14:43:48.355Z</time></trkpt><trkpt lat="38.99934" lon="16.5400417"><ele>554.0</ele><time>2026-04-07T14:43:49.355Z</time></trkpt><trkpt lat="38.999425" lon="16.5400133"><ele>554.6</ele><time>2026-04-07T14:43:50.354Z</time></trkpt><trkpt lat="38.9995167" lon="16.540015"><ele>555.2</ele><time>2026-04-07T14:43:51.354Z</time></trkpt><trkpt lat="38.9996017" lon="16.54005"><ele>555.8000000000001</ele><time>2026-04-07T14:43:52.354Z</time></trkpt><trkpt lat="38.9996883" lon="16.5401167"><ele>556.4</ele><time>2026-04-07T14:43:53.355Z</time></trkpt><trkpt lat="38.999765" lon="16.5402067"><ele>557.0</ele><time>2026-04-07T14:43:54.355Z</time></trkpt><trkpt lat="38.9998283" lon="16.5402817"><ele>557.0</ele><time>2026-04-07T14:43:55.354Z</time></trkpt><trkpt lat="38.999915" lon="16.540305"><ele>557.0</ele><time>2026-04-07T14:43:56.355Z</time></trkpt><trkpt lat="39.00001" lon="16.5402933"><ele>557.0</ele><time>2026-04-07T14:43:57.354Z</time></trkpt><trkpt lat="39.000115" lon="16.5402717"><ele>557.0</ele><time>2026-04-07T14:43:58.355Z</time></trkpt><trkpt lat="39.0002267" lon="16.5402517"><ele>557.0</ele><time>2026-04-07T14:43:59.354Z</time></trkpt><trkpt lat="39.0003433" lon="16.540245"><ele>557.0</ele><time>2026-04-07T14:44:00.354Z</time></trkpt><trkpt lat="39.0004667" lon="16.5402383"><ele>557.0</ele><time>2026-04-07T14:44:01.354Z</time></trkpt><trkpt lat="39.000595" lon="16.5402467"><ele>557.0</ele><time>2026-04-07T14:44:02.354Z</time></trkpt><trkpt lat="39.0007233" lon="16.540245"><ele>557.0</ele><time>2026-04-07T14:44:03.355Z</time></trkpt><trkpt lat="39.0008583" lon="16.5402283"><ele>558.0</ele><time>2026-04-07T14:44:04.354Z</time></trkpt><trkpt lat="39.00098" lon="16.540185"><ele>559.0</ele><time>2026-04-07T14:44:05.354Z</time></trkpt><trkpt lat="39.0010983" lon="16.5401017"><ele>560.0</ele><time>2026-04-07T14:44:06.355Z</time></trkpt><trkpt lat="39.0012017" lon="16.5400267"><ele>561.0</ele><time>2026-04-07T14:44:07.355Z</time></trkpt><trkpt lat="39.00129" lon="16.5399717"><ele>561.0</ele><time>2026-04-07T14:44:08.354Z</time></trkpt><trkpt lat="39.0013733" lon="16.5399483"><ele>561.0</ele><time>2026-04-07T14:44:09.354Z</time></trkpt><trkpt lat="39.0014467" lon="16.5399567"><ele>561.0</ele><time>2026-04-07T14:44:10.354Z</time></trkpt><trkpt lat="39.001525" lon="16.5399867"><ele>561.0</ele><time>2026-04-07T14:44:11.354Z</time></trkpt><trkpt lat="39.0015933" lon="16.5400517"><ele>561.0</ele><time>2026-04-07T14:44:12.354Z</time></trkpt><trkpt lat="39.0016633" lon="16.5401433"><ele>561.0</ele><time>2026-04-07T14:44:13.354Z</time></trkpt><trkpt lat="39.0017283" lon="16.5402517"><ele>560.0</ele><time>2026-04-07T14:44:14.355Z</time></trkpt><trkpt lat="39.001785" lon="16.5403633"><ele>559.0</ele><time>2026-04-07T14:44:15.355Z</time></trkpt><trkpt lat="39.00181" lon="16.54049"><ele>558.0</ele><time>2026-04-07T14:44:16.355Z</time></trkpt><trkpt lat="39.0018217" lon="16.5406333"><ele>557.0</ele><time>2026-04-07T14:44:17.354Z</time></trkpt><trkpt lat="39.0018233" lon="16.5407683"><ele>556.0</ele><time>2026-04-07T14:44:18.355Z</time></trkpt><trkpt lat="39.00186" lon="16.5408767"><ele>554.6</ele><time>2026-04-07T14:44:19.354Z</time></trkpt><trkpt lat="39.001925" lon="16.5409583"><ele>553.2</ele><time>2026-04-07T14:44:20.355Z</time></trkpt><trkpt lat="39.00202" lon="16.540995"><ele>551.8</ele><time>2026-04-07T14:44:21.354Z</time></trkpt><trkpt lat="39.002135" lon="16.54098"><ele>550.4</ele><time>2026-04-07T14:44:22.355Z</time></trkpt><trkpt lat="39.0022567" lon="16.5409533"><ele>549.0</ele><time>2026-04-07T14:44:23.354Z</time></trkpt><trkpt lat="39.0023733" lon="16.54095"><ele>549.0</ele><time>2026-04-07T14:44:24.354Z</time></trkpt><trkpt lat="39.0024783" lon="16.540975"><ele>549.0</ele><time>2026-04-07T14:44:25.354Z</time></trkpt><trkpt lat="39.0025767" lon="16.5410033"><ele>549.0</ele><time>2026-04-07T14:44:26.355Z</time></trkpt><trkpt lat="39.002765" lon="16.54102"><ele>549.0</ele><time>2026-04-07T14:44:28.355Z</time></trkpt><trkpt lat="39.00285" lon="16.5409717"><ele>552.25</ele><time>2026-04-07T14:44:29.355Z</time></trkpt><trkpt lat="39.0029383" lon="16.54091"><ele>555.5</ele><time>2026-04-07T14:44:30.354Z</time></trkpt><trkpt lat="39.0030317" lon="16.5408283"><ele>558.75</ele><time>2026-04-07T14:44:31.355Z</time></trkpt><trkpt lat="39.0031417" lon="16.5407817"><ele>562.0</ele><time>2026-04-07T14:44:32.355Z</time></trkpt><trkpt lat="39.0032633" lon="16.5407533"><ele>563.0</ele><time>2026-04-07T14:44:33.355Z</time></trkpt><trkpt lat="39.003395" lon="16.5407417"><ele>564.0</ele><time>2026-04-07T14:44:34.354Z</time></trkpt><trkpt lat="39.0035167" lon="16.54072"><ele>565.0</ele><time>2026-04-07T14:44:35.355Z</time></trkpt><trkpt lat="39.00363" lon="16.54065"><ele>566.0</ele><time>2026-04-07T14:44:36.354Z</time></trkpt><trkpt lat="39.0037233" lon="16.5405333"><ele>566.0</ele><time>2026-04-07T14:44:37.355Z</time></trkpt><trkpt lat="39.0037817" lon="16.5403833"><ele>566.0</ele><time>2026-04-07T14:44:38.354Z</time></trkpt><trkpt lat="39.0037933" lon="16.5402167"><ele>566.0</ele><time>2026-04-07T14:44:39.355Z</time></trkpt><trkpt lat="39.003775" lon="16.5400567"><ele>566.0</ele><time>2026-04-07T14:44:40.355Z</time></trkpt><trkpt lat="39.00377" lon="16.5399"><ele>568.2</ele><time>2026-04-07T14:44:41.354Z</time></trkpt><trkpt lat="39.0038067" lon="16.539765"><ele>570.4000000000001</ele><time>2026-04-07T14:44:42.355Z</time></trkpt><trkpt lat="39.0038733" lon="16.5396583"><ele>572.6</ele><time>2026-04-07T14:44:43.354Z</time></trkpt><trkpt lat="39.0039633" lon="16.5395983"><ele>574.8000000000001</ele><time>2026-04-07T14:44:44.354Z</time></trkpt><trkpt lat="39.00405" lon="16.53958"><ele>577.0</ele><time>2026-04-07T14:44:45.354Z</time></trkpt><trkpt lat="39.0041367" lon="16.5396033"><ele>576.6</ele><time>2026-04-07T14:44:46.354Z</time></trkpt><trkpt lat="39.0042233" lon="16.5396517"><ele>576.2</ele><time>2026-04-07T14:44:47.354Z</time></trkpt><trkpt lat="39.0043017" lon="16.5397283"><ele>575.8</ele><time>2026-04-07T14:44:48.355Z</time></trkpt><trkpt lat="39.0043567" lon="16.5398267"><ele>575.4</ele><time>2026-04-07T14:44:49.355Z</time></trkpt><trkpt lat="39.004395" lon="16.5399383"><ele>575.0</ele><time>2026-04-07T14:44:50.354Z</time></trkpt><trkpt lat="39.00439" lon="16.54007"><ele>575.0</ele><time>2026-04-07T14:44:51.355Z</time></trkpt><trkpt lat="39.0043583" lon="16.5402217"><ele>575.0</ele><time>2026-04-07T14:44:52.354Z</time></trkpt><trkpt lat="39.0043017" lon="16.5403633"><ele>575.0</ele><time>2026-04-07T14:44:53.355Z</time></trkpt><trkpt lat="39.0042733" lon="16.5405"><ele>575.0</ele><time>2026-04-07T14:44:54.354Z</time></trkpt><trkpt lat="39.0042933" lon="16.540635"><ele>575.0</ele><time>2026-04-07T14:44:55.354Z</time></trkpt><trkpt lat="39.0043367" lon="16.5407533"><ele>575.0</ele><time>2026-04-07T14:44:56.354Z</time></trkpt><trkpt lat="39.0044067" lon="16.5408567"><ele>575.0</ele><time>2026-04-07T14:44:57.355Z</time></trkpt><trkpt lat="39.0044783" lon="16.5409583"><ele>575.0</ele><time>2026-04-07T14:44:58.355Z</time></trkpt><trkpt lat="39.004545" lon="16.54104"><ele>575.0</ele><time>2026-04-07T14:44:59.354Z</time></trkpt><trkpt lat="39.004625" lon="16.54112"><ele>575.0</ele><time>2026-04-07T14:45:00.354Z</time></trkpt><trkpt lat="39.004705" lon="16.5411833"><ele>575.0</ele><time>2026-04-07T14:45:01.354Z</time></trkpt><trkpt lat="39.0047767" lon="16.5412117"><ele>575.0</ele><time>2026-04-07T14:45:02.354Z</time></trkpt><trkpt lat="39.0048717" lon="16.5411867"><ele>575.0</ele><time>2026-04-07T14:45:03.354Z</time></trkpt><trkpt lat="39.00496" lon="16.5411567"><ele>575.0</ele><time>2026-04-07T14:45:04.354Z</time></trkpt><trkpt lat="39.00505" lon="16.5411367"><ele>575.0</ele><time>2026-04-07T14:45:05.355Z</time></trkpt><trkpt lat="39.0051283" lon="16.541165"><ele>573.6</ele><time>2026-04-07T14:45:06.354Z</time></trkpt><trkpt lat="39.0052017" lon="16.54124"><ele>572.2</ele><time>2026-04-07T14:45:07.354Z</time></trkpt><trkpt lat="39.0052717" lon="16.5413283"><ele>570.8</ele><time>2026-04-07T14:45:08.355Z</time></trkpt><trkpt lat="39.005355" lon="16.5414067"><ele>569.4</ele><time>2026-04-07T14:45:09.355Z</time></trkpt><trkpt lat="39.0054433" lon="16.54147"><ele>568.0</ele><time>2026-04-07T14:45:10.354Z</time></trkpt><trkpt lat="39.005535" lon="16.54152"><ele>568.0</ele><time>2026-04-07T14:45:11.355Z</time></trkpt><trkpt lat="39.005625" lon="16.5415667"><ele>568.0</ele><time>2026-04-07T14:45:12.355Z</time></trkpt><trkpt lat="39.0057183" lon="16.54163"><ele>568.0</ele><time>2026-04-07T14:45:13.355Z</time></trkpt><trkpt lat="39.0057933" lon="16.541715"><ele>568.0</ele><time>2026-04-07T14:45:14.354Z</time></trkpt><trkpt lat="39.0058483" lon="16.5418183"><ele>568.0</ele><time>2026-04-07T14:45:15.354Z</time></trkpt><trkpt lat="39.0058883" lon="16.54194"><ele>568.1999999999999</ele><time>2026-04-07T14:45:16.355Z</time></trkpt><trkpt lat="39.0059133" lon="16.54207"><ele>568.4</ele><time>2026-04-07T14:45:17.354Z</time></trkpt><trkpt lat="39.005945" lon="16.5421967"><ele>568.5999999999999</ele><time>2026-04-07T14:45:18.355Z</time></trkpt><trkpt lat="39.0059817" lon="16.5423267"><ele>568.8</ele><time>2026-04-07T14:45:19.354Z</time></trkpt><trkpt lat="39.00602" lon="16.54246"><ele>569.0</ele><time>2026-04-07T14:45:20.354Z</time></trkpt><trkpt lat="39.0060683" lon="16.5425733"><ele>569.0</ele><time>2026-04-07T14:45:21.355Z</time></trkpt><trkpt lat="39.0061333" lon="16.5426733"><ele>569.0</ele><time>2026-04-07T14:45:22.355Z</time></trkpt><trkpt lat="39.0062167" lon="16.5427433"><ele>569.0</ele><time>2026-04-07T14:45:23.355Z</time></trkpt><trkpt lat="39.0063033" lon="16.542805"><ele>569.0</ele><time>2026-04-07T14:45:24.355Z</time></trkpt><trkpt lat="39.006395" lon="16.5428583"><ele>569.0</ele><time>2026-04-07T14:45:25.355Z</time></trkpt><trkpt lat="39.0064767" lon="16.5429"><ele>568.5</ele><time>2026-04-07T14:45:26.355Z</time></trkpt><trkpt lat="39.0065517" lon="16.5429583"><ele>568.0</ele><time>2026-04-07T14:45:27.354Z</time></trkpt><trkpt lat="39.0066067" lon="16.543025"><ele>567.5</ele><time>2026-04-07T14:45:28.354Z</time></trkpt><trkpt lat="39.0066383" lon="16.5431117"><ele>567.0</ele><time>2026-04-07T14:45:29.355Z</time></trkpt><trkpt lat="39.0066567" lon="16.5432033"><ele>566.5</ele><time>2026-04-07T14:45:30.354Z</time></trkpt><trkpt lat="39.0066683" lon="16.5433233"><ele>566.0</ele><time>2026-04-07T14:45:31.354Z</time></trkpt><trkpt lat="39.006685" lon="16.5434367"><ele>566.0</ele><time>2026-04-07T14:45:32.355Z</time></trkpt><trkpt lat="39.0067033" lon="16.54355"><ele>566.0</ele><time>2026-04-07T14:45:33.355Z</time></trkpt><trkpt lat="39.006725" lon="16.5436633"><ele>566.0</ele><time>2026-04-07T14:45:34.354Z</time></trkpt><trkpt lat="39.006745" lon="16.543785"><ele>566.0</ele><time>2026-04-07T14:45:35.355Z</time></trkpt><trkpt lat="39.0067633" lon="16.543905"><ele>566.0</ele><time>2026-04-07T14:45:36.355Z</time></trkpt><trkpt lat="39.00678" lon="16.544005"><ele>568.8</ele><time>2026-04-07T14:45:37.354Z</time></trkpt><trkpt lat="39.006805" lon="16.544085"><ele>571.6</ele><time>2026-04-07T14:45:38.355Z</time></trkpt><trkpt lat="39.0068833" lon="16.544195"><ele>574.4</ele><time>2026-04-07T14:45:40.354Z</time></trkpt><trkpt lat="39.0070033" lon="16.544205"><ele>577.2</ele><time>2026-04-07T14:45:42.354Z</time></trkpt><trkpt lat="39.0070767" lon="16.5441917"><ele>580.0</ele><time>2026-04-07T14:45:43.354Z</time></trkpt><trkpt lat="39.0071617" lon="16.54417"><ele>580.0</ele><time>2026-04-07T14:45:44.355Z</time></trkpt><trkpt lat="39.00725" lon="16.54414"><ele>580.0</ele><time>2026-04-07T14:45:45.354Z</time></trkpt><trkpt lat="39.0073383" lon="16.5440983"><ele>580.0</ele><time>2026-04-07T14:45:46.355Z</time></trkpt><trkpt lat="39.0074333" lon="16.5440417"><ele>580.0</ele><time>2026-04-07T14:45:47.354Z</time></trkpt><trkpt lat="39.0075283" lon="16.5439817"><ele>580.0</ele><time>2026-04-07T14:45:48.355Z</time></trkpt><trkpt lat="39.0076267" lon="16.543915"><ele>577.8</ele><time>2026-04-07T14:45:49.355Z</time></trkpt><trkpt lat="39.0077167" lon="16.5438267"><ele>575.6</ele><time>2026-04-07T14:45:50.355Z</time></trkpt><trkpt lat="39.007785" lon="16.5437333"><ele>573.4</ele><time>2026-04-07T14:45:51.354Z</time></trkpt><trkpt lat="39.0078517" lon="16.5436317"><ele>571.2</ele><time>2026-04-07T14:45:52.355Z</time></trkpt><trkpt lat="39.0079183" lon="16.5435417"><ele>569.0</ele><time>2026-04-07T14:45:53.355Z</time></trkpt><trkpt lat="39.007985" lon="16.5434917"><ele>569.0</ele><time>2026-04-07T14:45:54.355Z</time></trkpt><trkpt lat="39.008055" lon="16.543465"><ele>569.0</ele><time>2026-04-07T14:45:55.354Z</time></trkpt><trkpt lat="39.0081483" lon="16.5434967"><ele>569.0</ele><time>2026-04-07T14:45:57.354Z</time></trkpt><trkpt lat="39.0081867" lon="16.543565"><ele>569.0</ele><time>2026-04-07T14:45:58.354Z</time></trkpt><trkpt lat="39.0082133" lon="16.5436633"><ele>569.0</ele><time>2026-04-07T14:45:59.354Z</time></trkpt><trkpt lat="39.0082467" lon="16.54377"><ele>569.0</ele><time>2026-04-07T14:46:00.355Z</time></trkpt><trkpt lat="39.0082983" lon="16.5438683"><ele>576.0</ele><time>2026-04-07T14:46:01.355Z</time></trkpt><trkpt lat="39.0083667" lon="16.5439683"><ele>583.0</ele><time>2026-04-07T14:46:02.355Z</time></trkpt><trkpt lat="39.0084417" lon="16.5440683"><ele>590.0</ele><time>2026-04-07T14:46:03.354Z</time></trkpt><trkpt lat="39.0085133" lon="16.5441567"><ele>597.0</ele><time>2026-04-07T14:46:04.354Z</time></trkpt><trkpt lat="39.0085867" lon="16.544225"><ele>604.0</ele><time>2026-04-07T14:46:05.354Z</time></trkpt><trkpt lat="39.008655" lon="16.5442933"><ele>604.0</ele><time>2026-04-07T14:46:06.355Z</time></trkpt><trkpt lat="39.0087133" lon="16.5443467"><ele>604.0</ele><time>2026-04-07T14:46:07.355Z</time></trkpt><trkpt lat="39.0088033" lon="16.5443933"><ele>604.0</ele><time>2026-04-07T14:46:09.354Z</time></trkpt><trkpt lat="39.0088667" lon="16.5443967"><ele>604.0</ele><time>2026-04-07T14:46:11.355Z</time></trkpt><trkpt lat="39.0088583" lon="16.5444783"><ele>604.0</ele><time>2026-04-07T14:46:15.354Z</time></trkpt><trkpt lat="39.0087733" lon="16.5444567"><ele>604.0</ele><time>2026-04-07T14:46:17.355Z</time></trkpt><trkpt lat="39.0086567" lon="16.54439"><ele>604.0</ele><time>2026-04-07T14:46:19.354Z</time></trkpt><trkpt lat="39.0085883" lon="16.5443417"><ele>604.0</ele><time>2026-04-07T14:46:20.354Z</time></trkpt><trkpt lat="39.0085183" lon="16.5442983"><ele>604.0</ele><time>2026-04-07T14:46:21.354Z</time></trkpt><trkpt lat="39.00844" lon="16.5442567"><ele>604.0</ele><time>2026-04-07T14:46:22.355Z</time></trkpt><trkpt lat="39.0083667" lon="16.54422"><ele>604.0</ele><time>2026-04-07T14:46:23.354Z</time></trkpt><trkpt lat="39.0083017" lon="16.5441883"><ele>604.0</ele><time>2026-04-07T14:46:24.354Z</time></trkpt><trkpt lat="39.0082283" lon="16.544155"><ele>602.3333333333334</ele><time>2026-04-07T14:46:25.355Z</time></trkpt><trkpt lat="39.0081583" lon="16.5441317"><ele>600.6666666666667</ele><time>2026-04-07T14:46:26.354Z</time></trkpt><trkpt lat="39.0080867" lon="16.544125"><ele>599.0</ele><time>2026-04-07T14:46:27.354Z</time></trkpt><trkpt lat="39.00801" lon="16.5441417"><ele>597.3333333333334</ele><time>2026-04-07T14:46:28.354Z</time></trkpt><trkpt lat="39.0079433" lon="16.54419"><ele>595.6666666666666</ele><time>2026-04-07T14:46:29.354Z</time></trkpt><trkpt lat="39.00788" lon="16.5442567"><ele>594.0</ele><time>2026-04-07T14:46:30.354Z</time></trkpt><trkpt lat="39.0078233" lon="16.544315"><ele>594.0</ele><time>2026-04-07T14:46:31.354Z</time></trkpt><trkpt lat="39.0077733" lon="16.544375"><ele>594.0</ele><time>2026-04-07T14:46:32.355Z</time></trkpt><trkpt lat="39.0077383" lon="16.54446"><ele>594.0</ele><time>2026-04-07T14:46:33.355Z</time></trkpt><trkpt lat="39.0077133" lon="16.5445533"><ele>594.0</ele><time>2026-04-07T14:46:34.355Z</time></trkpt><trkpt lat="39.007695" lon="16.5446583"><ele>594.0</ele><time>2026-04-07T14:46:35.355Z</time></trkpt><trkpt lat="39.00766" lon="16.5447433"><ele>594.0</ele><time>2026-04-07T14:46:36.354Z</time></trkpt><trkpt lat="39.0076117" lon="16.54482"><ele>595.8333333333334</ele><time>2026-04-07T14:46:37.355Z</time></trkpt><trkpt lat="39.00755" lon="16.5448783"><ele>597.6666666666666</ele><time>2026-04-07T14:46:38.354Z</time></trkpt><trkpt lat="39.0074783" lon="16.5449283"><ele>599.5</ele><time>2026-04-07T14:46:39.355Z</time></trkpt><trkpt lat="39.0074117" lon="16.54499"><ele>601.3333333333333</ele><time>2026-04-07T14:46:40.355Z</time></trkpt><trkpt lat="39.0073417" lon="16.545045"><ele>603.1666666666666</ele><time>2026-04-07T14:46:41.355Z</time></trkpt><trkpt lat="39.0072983" lon="16.5451183"><ele>605.0</ele><time>2026-04-07T14:46:42.354Z</time></trkpt><trkpt lat="39.0073" lon="16.5452033"><ele>605.0</ele><time>2026-04-07T14:46:43.355Z</time></trkpt><trkpt lat="39.0073267" lon="16.5452967"><ele>605.0</ele><time>2026-04-07T14:46:44.355Z</time></trkpt><trkpt lat="39.00737" lon="16.5453767"><ele>605.0</ele><time>2026-04-07T14:46:45.354Z</time></trkpt><trkpt lat="39.00743" lon="16.5454433"><ele>605.0</ele><time>2026-04-07T14:46:46.354Z</time></trkpt><trkpt lat="39.00751" lon="16.5454967"><ele>605.0</ele><time>2026-04-07T14:46:47.355Z</time></trkpt><trkpt lat="39.0076067" lon="16.5455117"><ele>605.0</ele><time>2026-04-07T14:46:48.355Z</time></trkpt><trkpt lat="39.0077033" lon="16.5455417"><ele>607.5</ele><time>2026-04-07T14:46:49.354Z</time></trkpt><trkpt lat="39.0077833" lon="16.5455933"><ele>610.0</ele><time>2026-04-07T14:46:50.354Z</time></trkpt><trkpt lat="39.007845" lon="16.5456617"><ele>612.5</ele><time>2026-04-07T14:46:51.354Z</time></trkpt><trkpt lat="39.0078717" lon="16.5457633"><ele>615.0</ele><time>2026-04-07T14:46:52.355Z</time></trkpt><trkpt lat="39.0078917" lon="16.5458733"><ele>617.5</ele><time>2026-04-07T14:46:53.355Z</time></trkpt><trkpt lat="39.00792" lon="16.5459783"><ele>620.0</ele><time>2026-04-07T14:46:54.355Z</time></trkpt><trkpt lat="39.0079667" lon="16.546065"><ele>620.0</ele><time>2026-04-07T14:46:55.354Z</time></trkpt><trkpt lat="39.00804" lon="16.5461167"><ele>620.0</ele><time>2026-04-07T14:46:56.355Z</time></trkpt><trkpt lat="39.0081267" lon="16.5461417"><ele>620.0</ele><time>2026-04-07T14:46:57.355Z</time></trkpt><trkpt lat="39.0082183" lon="16.5461433"><ele>620.0</ele><time>2026-04-07T14:46:58.355Z</time></trkpt><trkpt lat="39.0083133" lon="16.5461"><ele>620.0</ele><time>2026-04-07T14:46:59.354Z</time></trkpt><trkpt lat="39.0084183" lon="16.5460333"><ele>625.0</ele><time>2026-04-07T14:47:00.354Z</time></trkpt><trkpt lat="39.0085133" lon="16.54597"><ele>630.0</ele><time>2026-04-07T14:47:01.354Z</time></trkpt><trkpt lat="39.0086117" lon="16.5459183"><ele>635.0</ele><time>2026-04-07T14:47:02.355Z</time></trkpt><trkpt lat="39.0087167" lon="16.5459"><ele>640.0</ele><time>2026-04-07T14:47:03.355Z</time></trkpt><trkpt lat="39.00882" lon="16.5459117"><ele>645.0</ele><time>2026-04-07T14:47:04.355Z</time></trkpt><trkpt lat="39.0089167" lon="16.5459417"><ele>645.0</ele><time>2026-04-07T14:47:05.355Z</time></trkpt><trkpt lat="39.0090233" lon="16.5459867"><ele>645.0</ele><time>2026-04-07T14:47:06.355Z</time></trkpt><trkpt lat="39.009125" lon="16.5460417"><ele>645.0</ele><time>2026-04-07T14:47:07.354Z</time></trkpt><trkpt lat="39.0092283" lon="16.5460617"><ele>645.0</ele><time>2026-04-07T14:47:08.355Z</time></trkpt><trkpt lat="39.0093383" lon="16.5460733"><ele>645.0</ele><time>2026-04-07T14:47:09.354Z</time></trkpt><trkpt lat="39.00946" lon="16.54608"><ele>645.75</ele><time>2026-04-07T14:47:10.355Z</time></trkpt><trkpt lat="39.0095817" lon="16.5460767"><ele>646.5</ele><time>2026-04-07T14:47:11.354Z</time></trkpt><trkpt lat="39.0097033" lon="16.5460683"><ele>647.25</ele><time>2026-04-07T14:47:12.355Z</time></trkpt><trkpt lat="39.0098183" lon="16.54605"><ele>648.0</ele><time>2026-04-07T14:47:13.354Z</time></trkpt><trkpt lat="39.0099417" lon="16.5460133"><ele>650.4</ele><time>2026-04-07T14:47:14.354Z</time></trkpt><trkpt lat="39.0100617" lon="16.5459733"><ele>652.8</ele><time>2026-04-07T14:47:15.355Z</time></trkpt><trkpt lat="39.0101633" lon="16.5459317"><ele>655.2</ele><time>2026-04-07T14:47:16.354Z</time></trkpt><trkpt lat="39.01026" lon="16.5458967"><ele>657.6</ele><time>2026-04-07T14:47:17.354Z</time></trkpt><trkpt lat="39.0103483" lon="16.5458733"><ele>660.0</ele><time>2026-04-07T14:47:18.355Z</time></trkpt><trkpt lat="39.01043" lon="16.5458733"><ele>660.0</ele><time>2026-04-07T14:47:19.354Z</time></trkpt><trkpt lat="39.0105117" lon="16.5458883"><ele>660.0</ele><time>2026-04-07T14:47:20.354Z</time></trkpt><trkpt lat="39.0106033" lon="16.5459183"><ele>660.0</ele><time>2026-04-07T14:47:21.355Z</time></trkpt><trkpt lat="39.0107" lon="16.5459417"><ele>660.0</ele><time>2026-04-07T14:47:22.355Z</time></trkpt><trkpt lat="39.0108117" lon="16.5459583"><ele>660.0</ele><time>2026-04-07T14:47:23.355Z</time></trkpt><trkpt lat="39.0109283" lon="16.5459533"><ele>663.8</ele><time>2026-04-07T14:47:24.354Z</time></trkpt><trkpt lat="39.01105" lon="16.54594"><ele>667.6</ele><time>2026-04-07T14:47:25.354Z</time></trkpt><trkpt lat="39.0111567" lon="16.54592"><ele>671.4000000000001</ele><time>2026-04-07T14:47:26.354Z</time></trkpt><trkpt lat="39.011245" lon="16.5458817"><ele>675.2</ele><time>2026-04-07T14:47:27.355Z</time></trkpt><trkpt lat="39.0113" lon="16.5458133"><ele>679.0</ele><time>2026-04-07T14:47:28.354Z</time></trkpt><trkpt lat="39.011305" lon="16.54566"><ele>679.0</ele><time>2026-04-07T14:47:30.355Z</time></trkpt><trkpt lat="39.011255" lon="16.5455733"><ele>679.0</ele><time>2026-04-07T14:47:31.354Z</time></trkpt><trkpt lat="39.0111767" lon="16.5455"><ele>679.0</ele><time>2026-04-07T14:47:32.355Z</time></trkpt><trkpt lat="39.011075" lon="16.54542"><ele>679.0</ele><time>2026-04-07T14:47:33.355Z</time></trkpt><trkpt lat="39.0110133" lon="16.5453267"><ele>679.0</ele><time>2026-04-07T14:47:34.355Z</time></trkpt><trkpt lat="39.0109717" lon="16.5452283"><ele>679.6</ele><time>2026-04-07T14:47:35.355Z</time></trkpt><trkpt lat="39.0109333" lon="16.5451133"><ele>680.2</ele><time>2026-04-07T14:47:36.354Z</time></trkpt><trkpt lat="39.0109183" lon="16.544985"><ele>680.8000000000001</ele><time>2026-04-07T14:47:37.354Z</time></trkpt><trkpt lat="39.010925" lon="16.5448433"><ele>681.4000000000001</ele><time>2026-04-07T14:47:38.355Z</time></trkpt><trkpt lat="39.01094" lon="16.5446917"><ele>682.0</ele><time>2026-04-07T14:47:39.355Z</time></trkpt><trkpt lat="39.0109667" lon="16.5445567"><ele>682.2</ele><time>2026-04-07T14:47:40.355Z</time></trkpt><trkpt lat="39.0109983" lon="16.5444317"><ele>682.4000000000001</ele><time>2026-04-07T14:47:41.355Z</time></trkpt><trkpt lat="39.01103" lon="16.5443167"><ele>682.5999999999999</ele><time>2026-04-07T14:47:42.355Z</time></trkpt><trkpt lat="39.0110617" lon="16.544205"><ele>682.8</ele><time>2026-04-07T14:47:43.355Z</time></trkpt><trkpt lat="39.011085" lon="16.544105"><ele>683.0</ele><time>2026-04-07T14:47:44.355Z</time></trkpt><trkpt lat="39.0111217" lon="16.5440033"><ele>683.0</ele><time>2026-04-07T14:47:45.354Z</time></trkpt><trkpt lat="39.0111533" lon="16.5439283"><ele>683.0</ele><time>2026-04-07T14:47:46.355Z</time></trkpt><trkpt lat="39.0111917" lon="16.5438567"><ele>683.0</ele><time>2026-04-07T14:47:47.355Z</time></trkpt><trkpt lat="39.0112367" lon="16.5437917"><ele>683.0</ele><time>2026-04-07T14:47:48.355Z</time></trkpt><trkpt lat="39.0112883" lon="16.5437267"><ele>683.0</ele><time>2026-04-07T14:47:49.354Z</time></trkpt><trkpt lat="39.0113383" lon="16.5436617"><ele>683.0</ele><time>2026-04-07T14:47:50.355Z</time></trkpt><trkpt lat="39.011445" lon="16.543615"><ele>683.0</ele><time>2026-04-07T14:47:52.354Z</time></trkpt><trkpt lat="39.0115217" lon="16.5437183"><ele>683.0</ele><time>2026-04-07T14:47:54.355Z</time></trkpt><trkpt lat="39.0115417" lon="16.543815"><ele>683.0</ele><time>2026-04-07T14:47:55.355Z</time></trkpt><trkpt lat="39.0115683" lon="16.543925"><ele>683.0</ele><time>2026-04-07T14:47:56.354Z</time></trkpt><trkpt lat="39.0115917" lon="16.5440533"><ele>683.0</ele><time>2026-04-07T14:47:57.354Z</time></trkpt><trkpt lat="39.0116133" lon="16.5441717"><ele>683.0</ele><time>2026-04-07T14:47:58.354Z</time></trkpt><trkpt lat="39.0116417" lon="16.5442717"><ele>683.0</ele><time>2026-04-07T14:47:59.355Z</time></trkpt><trkpt lat="39.01171" lon="16.5444017"><ele>683.0</ele><time>2026-04-07T14:48:01.355Z</time></trkpt><trkpt lat="39.0117633" lon="16.5444467"><ele>683.0</ele><time>2026-04-07T14:48:02.355Z</time></trkpt><trkpt lat="39.011895" lon="16.54448"><ele>683.0</ele><time>2026-04-07T14:48:04.355Z</time></trkpt><trkpt lat="39.0119817" lon="16.5444967"><ele>686.5</ele><time>2026-04-07T14:48:05.355Z</time></trkpt><trkpt lat="39.0120667" lon="16.5445017"><ele>690.0</ele><time>2026-04-07T14:48:06.355Z</time></trkpt><trkpt lat="39.0121533" lon="16.544515"><ele>693.5</ele><time>2026-04-07T14:48:07.355Z</time></trkpt><trkpt lat="39.0122333" lon="16.5445317"><ele>697.0</ele><time>2026-04-07T14:48:08.354Z</time></trkpt><trkpt lat="39.0123033" lon="16.544555"><ele>700.5</ele><time>2026-04-07T14:48:09.354Z</time></trkpt><trkpt lat="39.01236" lon="16.5445967"><ele>704.0</ele><time>2026-04-07T14:48:10.354Z</time></trkpt><trkpt lat="39.0124467" lon="16.5446967"><ele>706.8333333333333</ele><time>2026-04-07T14:48:12.355Z</time></trkpt><trkpt lat="39.01251" lon="16.54476"><ele>709.6666666666666</ele><time>2026-04-07T14:48:14.355Z</time></trkpt><trkpt lat="39.0125667" lon="16.5448033"><ele>712.5</ele><time>2026-04-07T14:48:16.354Z</time></trkpt><trkpt lat="39.01264" lon="16.54486"><ele>715.3333333333334</ele><time>2026-04-07T14:48:18.355Z</time></trkpt><trkpt lat="39.0127067" lon="16.5449083"><ele>718.1666666666667</ele><time>2026-04-07T14:48:20.355Z</time></trkpt><trkpt lat="39.0126267" lon="16.5448417"><ele>721.0</ele><time>2026-04-07T14:48:27.355Z</time></trkpt><trkpt lat="39.0125467" lon="16.54477"><ele>719.0</ele><time>2026-04-07T14:48:29.355Z</time></trkpt><trkpt lat="39.0124567" lon="16.54468"><ele>717.0</ele><time>2026-04-07T14:48:31.354Z</time></trkpt><trkpt lat="39.01236" lon="16.54459"><ele>715.0</ele><time>2026-04-07T14:48:33.354Z</time></trkpt><trkpt lat="39.012285" lon="16.5445533"><ele>713.0</ele><time>2026-04-07T14:48:34.354Z</time></trkpt><trkpt lat="39.0122" lon="16.5445283"><ele>711.0</ele><time>2026-04-07T14:48:35.355Z</time></trkpt><trkpt lat="39.0121067" lon="16.5445133"><ele>709.8333333333334</ele><time>2026-04-07T14:48:36.354Z</time></trkpt><trkpt lat="39.0120167" lon="16.544495"><ele>708.6666666666666</ele><time>2026-04-07T14:48:37.355Z</time></trkpt><trkpt lat="39.01193" lon="16.5444767"><ele>707.5</ele><time>2026-04-07T14:48:38.354Z</time></trkpt><trkpt lat="39.0118533" lon="16.5444683"><ele>706.3333333333333</ele><time>2026-04-07T14:48:39.354Z</time></trkpt><trkpt lat="39.01179" lon="16.5444583"><ele>705.1666666666666</ele><time>2026-04-07T14:48:40.355Z</time></trkpt><trkpt lat="39.0116933" lon="16.5443883"><ele>704.0</ele><time>2026-04-07T14:48:42.354Z</time></trkpt><trkpt lat="39.0116383" lon="16.5442567"><ele>700.5</ele><time>2026-04-07T14:48:44.355Z</time></trkpt><trkpt lat="39.0116283" lon="16.544175"><ele>697.0</ele><time>2026-04-07T14:48:45.354Z</time></trkpt><trkpt lat="39.0116183" lon="16.5440917"><ele>693.5</ele><time>2026-04-07T14:48:46.355Z</time></trkpt><trkpt lat="39.011605" lon="16.5440117"><ele>690.0</ele><time>2026-04-07T14:48:47.355Z</time></trkpt><trkpt lat="39.011585" lon="16.54393"><ele>686.5</ele><time>2026-04-07T14:48:48.354Z</time></trkpt><trkpt lat="39.0115517" lon="16.543775"><ele>683.0</ele><time>2026-04-07T14:48:50.354Z</time></trkpt><trkpt lat="39.0115133" lon="16.543655"><ele>683.0</ele><time>2026-04-07T14:48:52.355Z</time></trkpt><trkpt lat="39.011435" lon="16.5436017"><ele>683.0</ele><time>2026-04-07T14:48:54.355Z</time></trkpt><trkpt lat="39.0113583" lon="16.5436417"><ele>683.0</ele><time>2026-04-07T14:48:56.355Z</time></trkpt><trkpt lat="39.0112967" lon="16.5437083"><ele>683.0</ele><time>2026-04-07T14:48:58.355Z</time></trkpt><trkpt lat="39.0112383" lon="16.5437883"><ele>683.0</ele><time>2026-04-07T14:49:00.355Z</time></trkpt><trkpt lat="39.0111867" lon="16.54386"><ele>683.0</ele><time>2026-04-07T14:49:02.354Z</time></trkpt><trkpt lat="39.01114" lon="16.543955"><ele>683.0</ele><time>2026-04-07T14:49:04.354Z</time></trkpt><trkpt lat="39.0111083" lon="16.5440417"><ele>683.0</ele><time>2026-04-07T14:49:06.354Z</time></trkpt><trkpt lat="39.011085" lon="16.544135"><ele>683.0</ele><time>2026-04-07T14:49:08.355Z</time></trkpt><trkpt lat="39.01107" lon="16.544235"><ele>683.0</ele><time>2026-04-07T14:49:10.354Z</time></trkpt><trkpt lat="39.0110383" lon="16.544355"><ele>683.0</ele><time>2026-04-07T14:49:12.355Z</time></trkpt><trkpt lat="39.0109967" lon="16.54451"><ele>682.8</ele><time>2026-04-07T14:49:14.355Z</time></trkpt><trkpt lat="39.010975" lon="16.5445883"><ele>682.5999999999999</ele><time>2026-04-07T14:49:15.355Z</time></trkpt><trkpt lat="39.0109583" lon="16.5447217"><ele>682.4000000000001</ele><time>2026-04-07T14:49:17.354Z</time></trkpt><trkpt lat="39.01095" lon="16.544855"><ele>682.2</ele><time>2026-04-07T14:49:19.354Z</time></trkpt><trkpt lat="39.0109483" lon="16.544995"><ele>682.0</ele><time>2026-04-07T14:49:21.355Z</time></trkpt><trkpt lat="39.0109483" lon="16.5451383"><ele>682.0</ele><time>2026-04-07T14:49:23.355Z</time></trkpt><trkpt lat="39.0109617" lon="16.5452767"><ele>682.0</ele><time>2026-04-07T14:49:25.354Z</time></trkpt><trkpt lat="39.01102" lon="16.54539"><ele>682.0</ele><time>2026-04-07T14:49:27.355Z</time></trkpt><trkpt lat="39.01112" lon="16.5455017"><ele>682.0</ele><time>2026-04-07T14:49:29.354Z</time></trkpt><trkpt lat="39.0111767" lon="16.54556"><ele>682.0</ele><time>2026-04-07T14:49:30.355Z</time></trkpt><trkpt lat="39.0112333" lon="16.5456217"><ele>681.4000000000001</ele><time>2026-04-07T14:49:31.354Z</time></trkpt><trkpt lat="39.0112933" lon="16.5457367"><ele>680.8000000000001</ele><time>2026-04-07T14:49:33.355Z</time></trkpt><trkpt lat="39.011295" lon="16.54583"><ele>680.2</ele><time>2026-04-07T14:49:35.355Z</time></trkpt><trkpt lat="39.0112267" lon="16.5459133"><ele>679.6</ele><time>2026-04-07T14:49:37.354Z</time></trkpt><trkpt lat="39.0111067" lon="16.5459483"><ele>679.0</ele><time>2026-04-07T14:49:39.354Z</time></trkpt><trkpt lat="39.011025" lon="16.5459467"><ele>679.0</ele><time>2026-04-07T14:49:40.354Z</time></trkpt><trkpt lat="39.0109517" lon="16.5459483"><ele>679.0</ele><time>2026-04-07T14:49:41.354Z</time></trkpt><trkpt lat="39.0108383" lon="16.5459683"><ele>679.0</ele><time>2026-04-07T14:49:43.354Z</time></trkpt><trkpt lat="39.0107517" lon="16.54597"><ele>679.0</ele><time>2026-04-07T14:49:45.355Z</time></trkpt><trkpt lat="39.010645" lon="16.545955"><ele>679.0</ele><time>2026-04-07T14:49:47.355Z</time></trkpt><trkpt lat="39.0105267" lon="16.5459233"><ele>675.2</ele><time>2026-04-07T14:49:49.354Z</time></trkpt><trkpt lat="39.010465" lon="16.5459067"><ele>671.4000000000001</ele><time>2026-04-07T14:49:50.354Z</time></trkpt><trkpt lat="39.0103433" lon="16.5458717"><ele>667.6</ele><time>2026-04-07T14:49:52.355Z</time></trkpt><trkpt lat="39.0102233" lon="16.5459033"><ele>663.8</ele><time>2026-04-07T14:49:54.354Z</time></trkpt><trkpt lat="39.0101633" lon="16.5459283"><ele>660.0</ele><time>2026-04-07T14:49:55.354Z</time></trkpt><trkpt lat="39.0100883" lon="16.5459533"><ele>660.0</ele><time>2026-04-07T14:49:56.354Z</time></trkpt><trkpt lat="39.0100017" lon="16.5459717"><ele>660.0</ele><time>2026-04-07T14:49:57.355Z</time></trkpt><trkpt lat="39.0099083" lon="16.546"><ele>660.0</ele><time>2026-04-07T14:49:58.355Z</time></trkpt><trkpt lat="39.00983" lon="16.5460367"><ele>660.0</ele><time>2026-04-07T14:49:59.355Z</time></trkpt><trkpt lat="39.009765" lon="16.5460633"><ele>660.0</ele><time>2026-04-07T14:50:00.355Z</time></trkpt><trkpt lat="39.0097017" lon="16.5460733"><ele>660.0</ele><time>2026-04-07T14:50:01.354Z</time></trkpt><trkpt lat="39.009635" lon="16.54607"><ele>658.0</ele><time>2026-04-07T14:50:02.354Z</time></trkpt><trkpt lat="39.0095633" lon="16.5460633"><ele>656.0</ele><time>2026-04-07T14:50:03.355Z</time></trkpt><trkpt lat="39.0094867" lon="16.5460667"><ele>654.0</ele><time>2026-04-07T14:50:04.355Z</time></trkpt><trkpt lat="39.0094" lon="16.5460667"><ele>652.0</ele><time>2026-04-07T14:50:05.354Z</time></trkpt><trkpt lat="39.0093067" lon="16.5460667"><ele>650.0</ele><time>2026-04-07T14:50:06.355Z</time></trkpt><trkpt lat="39.0092117" lon="16.5460567"><ele>648.0</ele><time>2026-04-07T14:50:07.355Z</time></trkpt><trkpt lat="39.0091117" lon="16.5460333"><ele>647.5</ele><time>2026-04-07T14:50:08.354Z</time></trkpt><trkpt lat="39.0090217" lon="16.5460083"><ele>647.0</ele><time>2026-04-07T14:50:09.355Z</time></trkpt><trkpt lat="39.0089483" lon="16.5459717"><ele>646.5</ele><time>2026-04-07T14:50:10.355Z</time></trkpt><trkpt lat="39.008875" lon="16.5459283"><ele>646.0</ele><time>2026-04-07T14:50:11.354Z</time></trkpt><trkpt lat="39.0087983" lon="16.5458933"><ele>645.5</ele><time>2026-04-07T14:50:12.354Z</time></trkpt><trkpt lat="39.0087133" lon="16.5458683"><ele>645.0</ele><time>2026-04-07T14:50:13.355Z</time></trkpt><trkpt lat="39.00863" lon="16.545865"><ele>645.0</ele><time>2026-04-07T14:50:14.355Z</time></trkpt><trkpt lat="39.0085417" lon="16.5458983"><ele>645.0</ele><time>2026-04-07T14:50:15.355Z</time></trkpt><trkpt lat="39.0084533" lon="16.5459533"><ele>645.0</ele><time>2026-04-07T14:50:16.355Z</time></trkpt><trkpt lat="39.0083633" lon="16.546005"><ele>645.0</ele><time>2026-04-07T14:50:17.354Z</time></trkpt><trkpt lat="39.0082783" lon="16.54605"><ele>645.0</ele><time>2026-04-07T14:50:18.355Z</time></trkpt><trkpt lat="39.0082067" lon="16.5460733"><ele>640.8333333333334</ele><time>2026-04-07T14:50:19.354Z</time></trkpt><trkpt lat="39.0081367" lon="16.54608"><ele>636.6666666666666</ele><time>2026-04-07T14:50:20.355Z</time></trkpt><trkpt lat="39.008055" lon="16.54606"><ele>632.5</ele><time>2026-04-07T14:50:21.355Z</time></trkpt><trkpt lat="39.0079833" lon="16.5460267"><ele>628.3333333333333</ele><time>2026-04-07T14:50:22.354Z</time></trkpt><trkpt lat="39.0079217" lon="16.5459583"><ele>624.1666666666666</ele><time>2026-04-07T14:50:23.354Z</time></trkpt><trkpt lat="39.0078817" lon="16.5458817"><ele>620.0</ele><time>2026-04-07T14:50:24.355Z</time></trkpt><trkpt lat="39.0078633" lon="16.5457783"><ele>620.0</ele><time>2026-04-07T14:50:25.354Z</time></trkpt><trkpt lat="39.00784" lon="16.545675"><ele>620.0</ele><time>2026-04-07T14:50:26.354Z</time></trkpt><trkpt lat="39.0077983" lon="16.5455817"><ele>620.0</ele><time>2026-04-07T14:50:27.355Z</time></trkpt><trkpt lat="39.0077333" lon="16.5454983"><ele>620.0</ele><time>2026-04-07T14:50:28.354Z</time></trkpt><trkpt lat="39.00765" lon="16.5454417"><ele>620.0</ele><time>2026-04-07T14:50:29.354Z</time></trkpt><trkpt lat="39.00757" lon="16.5454167"><ele>620.0</ele><time>2026-04-07T14:50:30.354Z</time></trkpt><trkpt lat="39.0074533" lon="16.5453733"><ele>617.5</ele><time>2026-04-07T14:50:32.355Z</time></trkpt><trkpt lat="39.007395" lon="16.5453167"><ele>615.0</ele><time>2026-04-07T14:50:33.355Z</time></trkpt><trkpt lat="39.0073517" lon="16.54524"><ele>612.5</ele><time>2026-04-07T14:50:34.354Z</time></trkpt><trkpt lat="39.0073167" lon="16.54517"><ele>610.0</ele><time>2026-04-07T14:50:35.354Z</time></trkpt><trkpt lat="39.0073433" lon="16.5450167"><ele>607.5</ele><time>2026-04-07T14:50:37.355Z</time></trkpt><trkpt lat="39.0073983" lon="16.544945"><ele>605.0</ele><time>2026-04-07T14:50:38.355Z</time></trkpt><trkpt lat="39.0074783" lon="16.5448783"><ele>602.8</ele><time>2026-04-07T14:50:39.354Z</time></trkpt><trkpt lat="39.0075733" lon="16.5448033"><ele>600.6</ele><time>2026-04-07T14:50:40.355Z</time></trkpt><trkpt lat="39.0076533" lon="16.54472"><ele>598.4</ele><time>2026-04-07T14:50:41.354Z</time></trkpt><trkpt lat="39.0077083" lon="16.54462"><ele>596.2</ele><time>2026-04-07T14:50:42.355Z</time></trkpt><trkpt lat="39.0077483" lon="16.5445183"><ele>594.0</ele><time>2026-04-07T14:50:43.355Z</time></trkpt><trkpt lat="39.0077867" lon="16.5444283"><ele>594.0</ele><time>2026-04-07T14:50:44.354Z</time></trkpt><trkpt lat="39.007835" lon="16.54435"><ele>594.0</ele><time>2026-04-07T14:50:45.355Z</time></trkpt><trkpt lat="39.0078983" lon="16.5442667"><ele>594.0</ele><time>2026-04-07T14:50:46.354Z</time></trkpt><trkpt lat="39.00797" lon="16.5442"><ele>594.0</ele><time>2026-04-07T14:50:47.355Z</time></trkpt><trkpt lat="39.0080383" lon="16.544135"><ele>594.0</ele><time>2026-04-07T14:50:48.354Z</time></trkpt><trkpt lat="39.0080983" lon="16.5441083"><ele>594.0</ele><time>2026-04-07T14:50:49.354Z</time></trkpt><trkpt lat="39.0081667" lon="16.5441067"><ele>594.0</ele><time>2026-04-07T14:50:50.355Z</time></trkpt><trkpt lat="39.0082383" lon="16.544125"><ele>594.0</ele><time>2026-04-07T14:50:51.354Z</time></trkpt><trkpt lat="39.00832" lon="16.5441633"><ele>594.0</ele><time>2026-04-07T14:50:52.355Z</time></trkpt><trkpt lat="39.008435" lon="16.54424"><ele>594.0</ele><time>2026-04-07T14:50:53.354Z</time></trkpt><trkpt lat="39.0085583" lon="16.544325"><ele>594.0</ele><time>2026-04-07T14:50:54.355Z</time></trkpt><trkpt lat="39.008665" lon="16.5444067"><ele>596.0</ele><time>2026-04-07T14:50:55.354Z</time></trkpt><trkpt lat="39.00874" lon="16.5444683"><ele>598.0</ele><time>2026-04-07T14:50:56.354Z</time></trkpt><trkpt lat="39.0088167" lon="16.5444783"><ele>600.0</ele><time>2026-04-07T14:50:57.354Z</time></trkpt><trkpt lat="39.0088817" lon="16.5444467"><ele>602.0</ele><time>2026-04-07T14:50:58.354Z</time></trkpt><trkpt lat="39.0089517" lon="16.54427"><ele>604.0</ele><time>2026-04-07T14:51:00.355Z</time></trkpt><trkpt lat="39.00899" lon="16.5441083"><ele>604.0</ele><time>2026-04-07T14:51:01.354Z</time></trkpt><trkpt lat="39.0090367" lon="16.5439883"><ele>604.0</ele><time>2026-04-07T14:51:02.354Z</time></trkpt><trkpt lat="39.0091" lon="16.5438933"><ele>604.0</ele><time>2026-04-07T14:51:03.355Z</time></trkpt><trkpt lat="39.0091783" lon="16.5438233"><ele>604.0</ele><time>2026-04-07T14:51:04.355Z</time></trkpt><trkpt lat="39.0092667" lon="16.5437283"><ele>604.0</ele><time>2026-04-07T14:51:05.354Z</time></trkpt><trkpt lat="39.00935" lon="16.543615"><ele>599.6666666666667</ele><time>2026-04-07T14:51:06.354Z</time></trkpt><trkpt lat="39.0094283" lon="16.5435"><ele>595.3333333333334</ele><time>2026-04-07T14:51:07.354Z</time></trkpt><trkpt lat="39.0095033" lon="16.5434133"><ele>591.0</ele><time>2026-04-07T14:51:08.354Z</time></trkpt><trkpt lat="39.009665" lon="16.5431983"><ele>591.0</ele><time>2026-04-07T14:51:11.354Z</time></trkpt><trkpt lat="39.009705" lon="16.54307"><ele>591.0</ele><time>2026-04-07T14:51:13.354Z</time></trkpt><trkpt lat="39.0097333" lon="16.5429833"><ele>591.0</ele><time>2026-04-07T14:51:15.355Z</time></trkpt><trkpt lat="39.0097033" lon="16.54306"><ele>591.0</ele><time>2026-04-07T14:51:39.354Z</time></trkpt><trkpt lat="39.0096333" lon="16.5431567"><ele>591.0</ele><time>2026-04-07T14:51:41.354Z</time></trkpt><trkpt lat="39.0095567" lon="16.543245"><ele>591.0</ele><time>2026-04-07T14:51:43.354Z</time></trkpt><trkpt lat="39.0094983" lon="16.5433333"><ele>591.0</ele><time>2026-04-07T14:51:45.355Z</time></trkpt><trkpt lat="39.0094233" lon="16.54343"><ele>591.0</ele><time>2026-04-07T14:51:47.354Z</time></trkpt><trkpt lat="39.0093467" lon="16.54355"><ele>591.0</ele><time>2026-04-07T14:51:49.354Z</time></trkpt><trkpt lat="39.00928" lon="16.543655"><ele>591.0</ele><time>2026-04-07T14:51:51.354Z</time></trkpt><trkpt lat="39.0092183" lon="16.54375"><ele>593.6</ele><time>2026-04-07T14:51:53.354Z</time></trkpt><trkpt lat="39.0091367" lon="16.5438317"><ele>596.2</ele><time>2026-04-07T14:51:55.354Z</time></trkpt><trkpt lat="39.0090317" lon="16.543895"><ele>598.8</ele><time>2026-04-07T14:51:57.355Z</time></trkpt><trkpt lat="39.0089567" lon="16.544005"><ele>601.4</ele><time>2026-04-07T14:51:59.354Z</time></trkpt><trkpt lat="39.00893" lon="16.5441317"><ele>604.0</ele><time>2026-04-07T14:52:01.354Z</time></trkpt><trkpt lat="39.0089033" lon="16.5442583"><ele>604.0</ele><time>2026-04-07T14:52:03.354Z</time></trkpt><trkpt lat="39.0088733" lon="16.5443317"><ele>604.0</ele><time>2026-04-07T14:52:05.355Z</time></trkpt><trkpt lat="39.0088433" lon="16.5444217"><ele>604.0</ele><time>2026-04-07T14:52:09.354Z</time></trkpt><trkpt lat="39.0087733" lon="16.5444633"><ele>604.0</ele><time>2026-04-07T14:52:12.355Z</time></trkpt><trkpt lat="39.0086817" lon="16.544405"><ele>604.0</ele><time>2026-04-07T14:52:14.355Z</time></trkpt><trkpt lat="39.0086233" lon="16.5443633"><ele>604.0</ele><time>2026-04-07T14:52:15.355Z</time></trkpt><trkpt lat="39.0085617" lon="16.5443217"><ele>604.0</ele><time>2026-04-07T14:52:16.354Z</time></trkpt><trkpt lat="39.008485" lon="16.5442733"><ele>604.0</ele><time>2026-04-07T14:52:17.354Z</time></trkpt><trkpt lat="39.0084" lon="16.5442267"><ele>604.0</ele><time>2026-04-07T14:52:18.354Z</time></trkpt><trkpt lat="39.0083167" lon="16.5441883"><ele>604.0</ele><time>2026-04-07T14:52:19.355Z</time></trkpt><trkpt lat="39.0082517" lon="16.54415"><ele>604.0</ele><time>2026-04-07T14:52:20.354Z</time></trkpt><trkpt lat="39.0081333" lon="16.5441183"><ele>602.3333333333334</ele><time>2026-04-07T14:52:22.354Z</time></trkpt><trkpt lat="39.0080683" lon="16.544125"><ele>600.6666666666667</ele><time>2026-04-07T14:52:23.355Z</time></trkpt><trkpt lat="39.0079567" lon="16.544195"><ele>599.0</ele><time>2026-04-07T14:52:25.355Z</time></trkpt><trkpt lat="39.0079" lon="16.54425"><ele>597.3333333333334</ele><time>2026-04-07T14:52:26.354Z</time></trkpt><trkpt lat="39.0078417" lon="16.5443233"><ele>595.6666666666666</ele><time>2026-04-07T14:52:27.354Z</time></trkpt><trkpt lat="39.0077867" lon="16.5444017"><ele>594.0</ele><time>2026-04-07T14:52:28.355Z</time></trkpt><trkpt lat="39.0077467" lon="16.5444917"><ele>595.8333333333334</ele><time>2026-04-07T14:52:29.354Z</time></trkpt><trkpt lat="39.0077017" lon="16.5445967"><ele>597.6666666666666</ele><time>2026-04-07T14:52:30.354Z</time></trkpt><trkpt lat="39.007665" lon="16.5446983"><ele>599.5</ele><time>2026-04-07T14:52:31.355Z</time></trkpt><trkpt lat="39.0076183" lon="16.544795"><ele>601.3333333333333</ele><time>2026-04-07T14:52:32.354Z</time></trkpt><trkpt lat="39.0075583" lon="16.5448667"><ele>603.1666666666666</ele><time>2026-04-07T14:52:33.355Z</time></trkpt><trkpt lat="39.0074867" lon="16.544925"><ele>605.0</ele><time>2026-04-07T14:52:34.355Z</time></trkpt><trkpt lat="39.0074183" lon="16.5449717"><ele>605.0</ele><time>2026-04-07T14:52:35.354Z</time></trkpt><trkpt lat="39.0073467" lon="16.54502"><ele>605.0</ele><time>2026-04-07T14:52:36.355Z</time></trkpt><trkpt lat="39.0073033" lon="16.5450933"><ele>605.0</ele><time>2026-04-07T14:52:37.354Z</time></trkpt><trkpt lat="39.0073" lon="16.5451833"><ele>605.0</ele><time>2026-04-07T14:52:38.354Z</time></trkpt><trkpt lat="39.0073217" lon="16.54527"><ele>605.0</ele><time>2026-04-07T14:52:39.355Z</time></trkpt><trkpt lat="39.00737" lon="16.5453783"><ele>605.0</ele><time>2026-04-07T14:52:40.355Z</time></trkpt><trkpt lat="39.0074467" lon="16.5454667"><ele>608.0</ele><time>2026-04-07T14:52:41.355Z</time></trkpt><trkpt lat="39.0075417" lon="16.545525"><ele>611.0</ele><time>2026-04-07T14:52:42.355Z</time></trkpt><trkpt lat="39.0076333" lon="16.5455517"><ele>614.0</ele><time>2026-04-07T14:52:43.355Z</time></trkpt><trkpt lat="39.007725" lon="16.5455767"><ele>617.0</ele><time>2026-04-07T14:52:44.354Z</time></trkpt><trkpt lat="39.007805" lon="16.5456167"><ele>620.0</ele><time>2026-04-07T14:52:45.354Z</time></trkpt><trkpt lat="39.00787" lon="16.5456983"><ele>620.0</ele><time>2026-04-07T14:52:46.354Z</time></trkpt><trkpt lat="39.0079067" lon="16.5457833"><ele>620.0</ele><time>2026-04-07T14:52:47.354Z</time></trkpt><trkpt lat="39.0079183" lon="16.5458883"><ele>620.0</ele><time>2026-04-07T14:52:48.355Z</time></trkpt><trkpt lat="39.0079433" lon="16.5459867"><ele>620.0</ele><time>2026-04-07T14:52:49.355Z</time></trkpt><trkpt lat="39.0080033" lon="16.5460633"><ele>620.0</ele><time>2026-04-07T14:52:50.355Z</time></trkpt><trkpt lat="39.0080933" lon="16.546105"><ele>620.0</ele><time>2026-04-07T14:52:51.354Z</time></trkpt><trkpt lat="39.0081933" lon="16.54611"><ele>620.0</ele><time>2026-04-07T14:52:52.355Z</time></trkpt><trkpt lat="39.0082917" lon="16.5460767"><ele>620.0</ele><time>2026-04-07T14:52:53.355Z</time></trkpt><trkpt lat="39.0083833" lon="16.5460267"><ele>620.0</ele><time>2026-04-07T14:52:54.354Z</time></trkpt><trkpt lat="39.00848" lon="16.5459683"><ele>620.0</ele><time>2026-04-07T14:52:55.355Z</time></trkpt><trkpt lat="39.008585" lon="16.5459283"><ele>620.0</ele><time>2026-04-07T14:52:56.354Z</time></trkpt><trkpt lat="39.0086983" lon="16.5459133"><ele>626.25</ele><time>2026-04-07T14:52:57.354Z</time></trkpt><trkpt lat="39.0088183" lon="16.5459317"><ele>632.5</ele><time>2026-04-07T14:52:58.354Z</time></trkpt><trkpt lat="39.0089383" lon="16.5459783"><ele>638.75</ele><time>2026-04-07T14:52:59.354Z</time></trkpt><trkpt lat="39.0090533" lon="16.5460283"><ele>645.0</ele><time>2026-04-07T14:53:00.354Z</time></trkpt><trkpt lat="39.009165" lon="16.5460617"><ele>645.75</ele><time>2026-04-07T14:53:01.355Z</time></trkpt><trkpt lat="39.0092917" lon="16.54607"><ele>646.5</ele><time>2026-04-07T14:53:02.354Z</time></trkpt><trkpt lat="39.0094217" lon="16.5460683"><ele>647.25</ele><time>2026-04-07T14:53:03.354Z</time></trkpt><trkpt lat="39.0095583" lon="16.54606"><ele>648.0</ele><time>2026-04-07T14:53:04.355Z</time></trkpt><trkpt lat="39.00969" lon="16.5460533"><ele>648.0</ele><time>2026-04-07T14:53:05.355Z</time></trkpt><trkpt lat="39.00983" lon="16.5460333"><ele>648.0</ele><time>2026-04-07T14:53:06.355Z</time></trkpt><trkpt lat="39.0099617" lon="16.5460033"><ele>648.0</ele><time>2026-04-07T14:53:07.354Z</time></trkpt><trkpt lat="39.0100917" lon="16.5459483"><ele>648.0</ele><time>2026-04-07T14:53:08.355Z</time></trkpt><trkpt lat="39.0102167" lon="16.5458967"><ele>651.0</ele><time>2026-04-07T14:53:09.354Z</time></trkpt><trkpt lat="39.0103217" lon="16.5458683"><ele>654.0</ele><time>2026-04-07T14:53:10.354Z</time></trkpt><trkpt lat="39.0104217" lon="16.54586"><ele>657.0</ele><time>2026-04-07T14:53:11.354Z</time></trkpt><trkpt lat="39.0105317" lon="16.5458883"><ele>660.0</ele><time>2026-04-07T14:53:12.354Z</time></trkpt><trkpt lat="39.010675" lon="16.5459267"><ele>664.75</ele><time>2026-04-07T14:53:13.354Z</time></trkpt><trkpt lat="39.0108367" lon="16.5459417"><ele>669.5</ele><time>2026-04-07T14:53:14.355Z</time></trkpt><trkpt lat="39.010995" lon="16.5459433"><ele>674.25</ele><time>2026-04-07T14:53:15.354Z</time></trkpt><trkpt lat="39.0111183" lon="16.54592"><ele>679.0</ele><time>2026-04-07T14:53:16.354Z</time></trkpt><trkpt lat="39.0112233" lon="16.5458917"><ele>679.0</ele><time>2026-04-07T14:53:17.354Z</time></trkpt><trkpt lat="39.0112883" lon="16.5458383"><ele>679.0</ele><time>2026-04-07T14:53:18.355Z</time></trkpt><trkpt lat="39.01132" lon="16.545765"><ele>679.0</ele><time>2026-04-07T14:53:19.354Z</time></trkpt><trkpt lat="39.01132" lon="16.5456817"><ele>679.0</ele><time>2026-04-07T14:53:20.355Z</time></trkpt><trkpt lat="39.01129" lon="16.5455917"><ele>679.0</ele><time>2026-04-07T14:53:21.354Z</time></trkpt><trkpt lat="39.0112067" lon="16.5454867"><ele>679.0</ele><time>2026-04-07T14:53:22.354Z</time></trkpt><trkpt lat="39.0111083" lon="16.5453767"><ele>679.75</ele><time>2026-04-07T14:53:23.354Z</time></trkpt><trkpt lat="39.0110267" lon="16.5452533"><ele>680.5</ele><time>2026-04-07T14:53:24.354Z</time></trkpt><trkpt lat="39.0109717" lon="16.545115"><ele>681.25</ele><time>2026-04-07T14:53:25.355Z</time></trkpt><trkpt lat="39.010935" lon="16.54496"><ele>682.0</ele><time>2026-04-07T14:53:26.354Z</time></trkpt><trkpt lat="39.01094" lon="16.5448"><ele>682.0</ele><time>2026-04-07T14:53:27.355Z</time></trkpt><trkpt lat="39.010965" lon="16.544645"><ele>682.0</ele><time>2026-04-07T14:53:28.355Z</time></trkpt><trkpt lat="39.010995" lon="16.5445017"><ele>682.0</ele><time>2026-04-07T14:53:29.354Z</time></trkpt><trkpt lat="39.0110467" lon="16.54433"><ele>682.0</ele><time>2026-04-07T14:53:30.355Z</time></trkpt><trkpt lat="39.0110933" lon="16.54417"><ele>682.2</ele><time>2026-04-07T14:53:31.354Z</time></trkpt><trkpt lat="39.0111267" lon="16.5440367"><ele>682.4000000000001</ele><time>2026-04-07T14:53:32.354Z</time></trkpt><trkpt lat="39.0111717" lon="16.5439117"><ele>682.5999999999999</ele><time>2026-04-07T14:53:33.355Z</time></trkpt><trkpt lat="39.011225" lon="16.54381"><ele>682.8</ele><time>2026-04-07T14:53:34.355Z</time></trkpt><trkpt lat="39.0112933" lon="16.5437183"><ele>683.0</ele><time>2026-04-07T14:53:35.355Z</time></trkpt><trkpt lat="39.0113533" lon="16.5436567"><ele>683.0</ele><time>2026-04-07T14:53:36.355Z</time></trkpt><trkpt lat="39.01142" lon="16.5436233"><ele>683.0</ele><time>2026-04-07T14:53:37.355Z</time></trkpt><trkpt lat="39.011525" lon="16.543685"><ele>683.0</ele><time>2026-04-07T14:53:39.355Z</time></trkpt><trkpt lat="39.0115567" lon="16.5437767"><ele>683.0</ele><time>2026-04-07T14:53:40.354Z</time></trkpt><trkpt lat="39.0115833" lon="16.5439317"><ele>683.0</ele><time>2026-04-07T14:53:41.355Z</time></trkpt><trkpt lat="39.0116017" lon="16.54413"><ele>683.0</ele><time>2026-04-07T14:53:42.354Z</time></trkpt><trkpt lat="39.0116467" lon="16.544295"><ele>683.0</ele><time>2026-04-07T14:53:43.355Z</time></trkpt><trkpt lat="39.0117083" lon="16.5444017"><ele>683.0</ele><time>2026-04-07T14:53:44.354Z</time></trkpt><trkpt lat="39.01179" lon="16.544475"><ele>683.0</ele><time>2026-04-07T14:53:45.354Z</time></trkpt><trkpt lat="39.0118767" lon="16.5445117"><ele>683.0</ele><time>2026-04-07T14:53:46.355Z</time></trkpt><trkpt lat="39.012005" lon="16.54452"><ele>688.25</ele><time>2026-04-07T14:53:47.354Z</time></trkpt><trkpt lat="39.012135" lon="16.544525"><ele>693.5</ele><time>2026-04-07T14:53:48.354Z</time></trkpt><trkpt lat="39.0122483" lon="16.5445433"><ele>698.75</ele><time>2026-04-07T14:53:49.355Z</time></trkpt><trkpt lat="39.0123467" lon="16.544585"><ele>704.0</ele><time>2026-04-07T14:53:50.355Z</time></trkpt><trkpt lat="39.0124433" lon="16.544665"><ele>708.25</ele><time>2026-04-07T14:53:51.354Z</time></trkpt><trkpt lat="39.0125333" lon="16.54476"><ele>712.5</ele><time>2026-04-07T14:53:52.355Z</time></trkpt><trkpt lat="39.0126333" lon="16.54485"><ele>716.75</ele><time>2026-04-07T14:53:53.354Z</time></trkpt><trkpt lat="39.0127283" lon="16.5449383"><ele>721.0</ele><time>2026-04-07T14:53:54.355Z</time></trkpt><trkpt lat="39.0128183" lon="16.5450383"><ele>721.0</ele><time>2026-04-07T14:53:55.354Z</time></trkpt><trkpt lat="39.0129033" lon="16.5451283"><ele>721.0</ele><time>2026-04-07T14:53:56.355Z</time></trkpt><trkpt lat="39.013" lon="16.5451817"><ele>721.0</ele><time>2026-04-07T14:53:57.354Z</time></trkpt><trkpt lat="39.0130983" lon="16.545195"><ele>721.0</ele><time>2026-04-07T14:53:58.354Z</time></trkpt><trkpt lat="39.0131967" lon="16.5451883"><ele>721.0</ele><time>2026-04-07T14:53:59.354Z</time></trkpt><trkpt lat="39.0132817" lon="16.545195"><ele>720.5999999999999</ele><time>2026-04-07T14:54:00.355Z</time></trkpt><trkpt lat="39.0133717" lon="16.5451983"><ele>720.2</ele><time>2026-04-07T14:54:01.354Z</time></trkpt><trkpt lat="39.0134667" lon="16.545205"><ele>719.8</ele><time>2026-04-07T14:54:02.354Z</time></trkpt><trkpt lat="39.01356" lon="16.5451967"><ele>719.4000000000001</ele><time>2026-04-07T14:54:03.354Z</time></trkpt><trkpt lat="39.0136483" lon="16.5451917"><ele>719.0</ele><time>2026-04-07T14:54:04.355Z</time></trkpt><trkpt lat="39.013735" lon="16.5451883"><ele>719.0</ele><time>2026-04-07T14:54:05.354Z</time></trkpt><trkpt lat="39.0138233" lon="16.5452017"><ele>719.0</ele><time>2026-04-07T14:54:06.355Z</time></trkpt><trkpt lat="39.0139217" lon="16.5452217"><ele>719.0</ele><time>2026-04-07T14:54:07.355Z</time></trkpt><trkpt lat="39.014025" lon="16.54523"><ele>719.0</ele><time>2026-04-07T14:54:08.355Z</time></trkpt><trkpt lat="39.0141267" lon="16.545245"><ele>719.0</ele><time>2026-04-07T14:54:09.354Z</time></trkpt><trkpt lat="39.0142333" lon="16.54528"><ele>717.5</ele><time>2026-04-07T14:54:10.354Z</time></trkpt><trkpt lat="39.0143383" lon="16.545345"><ele>716.0</ele><time>2026-04-07T14:54:11.354Z</time></trkpt><trkpt lat="39.01444" lon="16.5454283"><ele>714.5</ele><time>2026-04-07T14:54:12.354Z</time></trkpt><trkpt lat="39.014555" lon="16.5455117"><ele>713.0</ele><time>2026-04-07T14:54:13.355Z</time></trkpt><trkpt lat="39.0146817" lon="16.5455867"><ele>718.25</ele><time>2026-04-07T14:54:14.355Z</time></trkpt><trkpt lat="39.0148217" lon="16.5456617"><ele>723.5</ele><time>2026-04-07T14:54:15.354Z</time></trkpt><trkpt lat="39.0149583" lon="16.545725"><ele>728.75</ele><time>2026-04-07T14:54:16.354Z</time></trkpt><trkpt lat="39.0150733" lon="16.545785"><ele>734.0</ele><time>2026-04-07T14:54:17.355Z</time></trkpt><trkpt lat="39.0151717" lon="16.5458567"><ele>734.0</ele><time>2026-04-07T14:54:18.355Z</time></trkpt><trkpt lat="39.015265" lon="16.5459633"><ele>734.0</ele><time>2026-04-07T14:54:19.355Z</time></trkpt><trkpt lat="39.01535" lon="16.5460633"><ele>734.0</ele><time>2026-04-07T14:54:20.355Z</time></trkpt><trkpt lat="39.0154333" lon="16.5461267"><ele>734.0</ele><time>2026-04-07T14:54:21.354Z</time></trkpt><trkpt lat="39.0155283" lon="16.5461583"><ele>734.0</ele><time>2026-04-07T14:54:22.354Z</time></trkpt><trkpt lat="39.0156417" lon="16.5461467"><ele>734.0</ele><time>2026-04-07T14:54:23.355Z</time></trkpt><trkpt lat="39.0157533" lon="16.5461217"><ele>734.0</ele><time>2026-04-07T14:54:24.355Z</time></trkpt><trkpt lat="39.0158667" lon="16.546085"><ele>734.0</ele><time>2026-04-07T14:54:25.354Z</time></trkpt><trkpt lat="39.0159733" lon="16.54607"><ele>734.0</ele><time>2026-04-07T14:54:26.354Z</time></trkpt><trkpt lat="39.0160883" lon="16.546065"><ele>735.75</ele><time>2026-04-07T14:54:27.354Z</time></trkpt><trkpt lat="39.0162217" lon="16.54607"><ele>737.5</ele><time>2026-04-07T14:54:28.354Z</time></trkpt><trkpt lat="39.0163517" lon="16.5460733"><ele>739.25</ele><time>2026-04-07T14:54:29.355Z</time></trkpt><trkpt lat="39.01648" lon="16.5460433"><ele>741.0</ele><time>2026-04-07T14:54:30.355Z</time></trkpt><trkpt lat="39.0165883" lon="16.5460383"><ele>744.4</ele><time>2026-04-07T14:54:31.354Z</time></trkpt><trkpt lat="39.0166867" lon="16.5460333"><ele>747.8</ele><time>2026-04-07T14:54:32.354Z</time></trkpt><trkpt lat="39.0167733" lon="16.5460217"><ele>751.1999999999999</ele><time>2026-04-07T14:54:33.354Z</time></trkpt><trkpt lat="39.01684" lon="16.5459717"><ele>754.5999999999999</ele><time>2026-04-07T14:54:34.355Z</time></trkpt><trkpt lat="39.0168967" lon="16.5458833"><ele>758.0</ele><time>2026-04-07T14:54:35.355Z</time></trkpt><trkpt lat="39.01695" lon="16.5457717"><ele>758.0</ele><time>2026-04-07T14:54:36.354Z</time></trkpt><trkpt lat="39.0169833" lon="16.545645"><ele>758.0</ele><time>2026-04-07T14:54:37.354Z</time></trkpt><trkpt lat="39.017025" lon="16.5455417"><ele>758.0</ele><time>2026-04-07T14:54:38.355Z</time></trkpt><trkpt lat="39.01709" lon="16.5454667"><ele>758.0</ele><time>2026-04-07T14:54:39.354Z</time></trkpt><trkpt lat="39.0171767" lon="16.5454333"><ele>758.0</ele><time>2026-04-07T14:54:40.354Z</time></trkpt><trkpt lat="39.017275" lon="16.54542"><ele>758.0</ele><time>2026-04-07T14:54:41.354Z</time></trkpt><trkpt lat="39.0173783" lon="16.5454083"><ele>758.0</ele><time>2026-04-07T14:54:42.355Z</time></trkpt><trkpt lat="39.01748" lon="16.545405"><ele>758.0</ele><time>2026-04-07T14:54:43.355Z</time></trkpt><trkpt lat="39.01758" lon="16.5454083"><ele>758.0</ele><time>2026-04-07T14:54:44.355Z</time></trkpt><trkpt lat="39.01769" lon="16.545415"><ele>758.0</ele><time>2026-04-07T14:54:45.354Z</time></trkpt><trkpt lat="39.017805" lon="16.5454233"><ele>761.75</ele><time>2026-04-07T14:54:46.354Z</time></trkpt><trkpt lat="39.0179233" lon="16.5454533"><ele>765.5</ele><time>2026-04-07T14:54:47.354Z</time></trkpt><trkpt lat="39.0180583" lon="16.5454617"><ele>769.25</ele><time>2026-04-07T14:54:48.355Z</time></trkpt><trkpt lat="39.018195" lon="16.5454317"><ele>773.0</ele><time>2026-04-07T14:54:49.354Z</time></trkpt><trkpt lat="39.0183117" lon="16.54538"><ele>773.75</ele><time>2026-04-07T14:54:50.354Z</time></trkpt><trkpt lat="39.018415" lon="16.5452983"><ele>774.5</ele><time>2026-04-07T14:54:51.355Z</time></trkpt><trkpt lat="39.0185183" lon="16.5451967"><ele>775.25</ele><time>2026-04-07T14:54:52.355Z</time></trkpt><trkpt lat="39.0186267" lon="16.5450833"><ele>776.0</ele><time>2026-04-07T14:54:53.354Z</time></trkpt><trkpt lat="39.0187367" lon="16.5449583"><ele>776.0</ele><time>2026-04-07T14:54:54.354Z</time></trkpt><trkpt lat="39.0188383" lon="16.5448617"><ele>776.0</ele><time>2026-04-07T14:54:55.354Z</time></trkpt><trkpt lat="39.0189483" lon="16.5447533"><ele>776.0</ele><time>2026-04-07T14:54:56.355Z</time></trkpt><trkpt lat="39.01906" lon="16.544635"><ele>776.0</ele><time>2026-04-07T14:54:57.354Z</time></trkpt><trkpt lat="39.019165" lon="16.54451"><ele>777.75</ele><time>2026-04-07T14:54:58.354Z</time></trkpt><trkpt lat="39.01928" lon="16.5443983"><ele>779.5</ele><time>2026-04-07T14:54:59.354Z</time></trkpt><trkpt lat="39.0193983" lon="16.54431"><ele>781.25</ele><time>2026-04-07T14:55:00.354Z</time></trkpt><trkpt lat="39.0195133" lon="16.5442333"><ele>783.0</ele><time>2026-04-07T14:55:01.354Z</time></trkpt><trkpt lat="39.0196167" lon="16.5441667"><ele>783.0</ele><time>2026-04-07T14:55:02.354Z</time></trkpt><trkpt lat="39.019725" lon="16.5440917"><ele>783.0</ele><time>2026-04-07T14:55:03.355Z</time></trkpt><trkpt lat="39.01983" lon="16.5440183"><ele>783.0</ele><time>2026-04-07T14:55:04.355Z</time></trkpt><trkpt lat="39.0199383" lon="16.5439517"><ele>783.0</ele><time>2026-04-07T14:55:05.355Z</time></trkpt><trkpt lat="39.0200517" lon="16.5439067"><ele>782.2</ele><time>2026-04-07T14:55:06.355Z</time></trkpt><trkpt lat="39.0201733" lon="16.5438833"><ele>781.4</ele><time>2026-04-07T14:55:07.354Z</time></trkpt><trkpt lat="39.0202767" lon="16.5438883"><ele>780.6</ele><time>2026-04-07T14:55:08.355Z</time></trkpt><trkpt lat="39.0203783" lon="16.5438817"><ele>779.8000000000001</ele><time>2026-04-07T14:55:09.354Z</time></trkpt><trkpt lat="39.02048" lon="16.5438567"><ele>779.0</ele><time>2026-04-07T14:55:10.354Z</time></trkpt><trkpt lat="39.0205717" lon="16.543795"><ele>781.0</ele><time>2026-04-07T14:55:11.354Z</time></trkpt><trkpt lat="39.020665" lon="16.5436933"><ele>783.0</ele><time>2026-04-07T14:55:12.355Z</time></trkpt><trkpt lat="39.020755" lon="16.5435867"><ele>785.0</ele><time>2026-04-07T14:55:13.354Z</time></trkpt><trkpt lat="39.0208533" lon="16.5434733"><ele>787.0</ele><time>2026-04-07T14:55:14.354Z</time></trkpt><trkpt lat="39.020945" lon="16.54337"><ele>787.6</ele><time>2026-04-07T14:55:15.355Z</time></trkpt><trkpt lat="39.0210217" lon="16.5432767"><ele>788.2</ele><time>2026-04-07T14:55:16.355Z</time></trkpt><trkpt lat="39.0211033" lon="16.5431983"><ele>788.8</ele><time>2026-04-07T14:55:17.354Z</time></trkpt><trkpt lat="39.0211833" lon="16.5431417"><ele>789.4</ele><time>2026-04-07T14:55:18.354Z</time></trkpt><trkpt lat="39.021265" lon="16.5431217"><ele>790.0</ele><time>2026-04-07T14:55:19.355Z</time></trkpt><trkpt lat="39.02136" lon="16.54312"><ele>790.0</ele><time>2026-04-07T14:55:20.354Z</time></trkpt><trkpt lat="39.0214533" lon="16.5431567"><ele>790.0</ele><time>2026-04-07T14:55:21.355Z</time></trkpt><trkpt lat="39.0215483" lon="16.5432333"><ele>790.0</ele><time>2026-04-07T14:55:22.355Z</time></trkpt><trkpt lat="39.0216367" lon="16.5433233"><ele>790.0</ele><time>2026-04-07T14:55:23.355Z</time></trkpt><trkpt lat="39.0217233" lon="16.543405"><ele>790.0</ele><time>2026-04-07T14:55:24.354Z</time></trkpt><trkpt lat="39.0218133" lon="16.5434667"><ele>791.2</ele><time>2026-04-07T14:55:25.354Z</time></trkpt><trkpt lat="39.0219033" lon="16.5435033"><ele>792.4</ele><time>2026-04-07T14:55:26.354Z</time></trkpt><trkpt lat="39.0219983" lon="16.5435383"><ele>793.5999999999999</ele><time>2026-04-07T14:55:27.355Z</time></trkpt><trkpt lat="39.0220917" lon="16.5435483"><ele>794.8</ele><time>2026-04-07T14:55:28.355Z</time></trkpt><trkpt lat="39.0221867" lon="16.54355"><ele>796.0</ele><time>2026-04-07T14:55:29.355Z</time></trkpt><trkpt lat="39.0222767" lon="16.5435317"><ele>796.0</ele><time>2026-04-07T14:55:30.354Z</time></trkpt><trkpt lat="39.0223667" lon="16.5434983"><ele>796.0</ele><time>2026-04-07T14:55:31.354Z</time></trkpt><trkpt lat="39.0224583" lon="16.543455"><ele>796.0</ele><time>2026-04-07T14:55:32.354Z</time></trkpt><trkpt lat="39.02255" lon="16.54342"><ele>796.0</ele><time>2026-04-07T14:55:33.355Z</time></trkpt><trkpt lat="39.0226533" lon="16.5434083"><ele>796.0</ele><time>2026-04-07T14:55:34.354Z</time></trkpt><trkpt lat="39.0227433" lon="16.5434133"><ele>794.0</ele><time>2026-04-07T14:55:35.354Z</time></trkpt><trkpt lat="39.0230683" lon="16.54365"><ele>792.0</ele><time>2026-04-07T14:55:39.355Z</time></trkpt><trkpt lat="39.023145" lon="16.5437417"><ele>792.0</ele><time>2026-04-07T14:55:40.355Z</time></trkpt><trkpt lat="39.0232133" lon="16.5438517"><ele>792.0</ele><time>2026-04-07T14:55:41.355Z</time></trkpt><trkpt lat="39.0232783" lon="16.5439617"><ele>792.0</ele><time>2026-04-07T14:55:42.355Z</time></trkpt><trkpt lat="39.023335" lon="16.5440617"><ele>792.0</ele><time>2026-04-07T14:55:43.354Z</time></trkpt><trkpt lat="39.023415" lon="16.5441533"><ele>792.0</ele><time>2026-04-07T14:55:44.355Z</time></trkpt><trkpt lat="39.0234983" lon="16.54423"><ele>790.5</ele><time>2026-04-07T14:55:45.354Z</time></trkpt><trkpt lat="39.0236033" lon="16.54429"><ele>789.0</ele><time>2026-04-07T14:55:46.354Z</time></trkpt><trkpt lat="39.0237233" lon="16.5443383"><ele>787.5</ele><time>2026-04-07T14:55:47.354Z</time></trkpt><trkpt lat="39.0238533" lon="16.5443717"><ele>786.0</ele><time>2026-04-07T14:55:48.354Z</time></trkpt><trkpt lat="39.0239967" lon="16.5443983"><ele>786.0</ele><time>2026-04-07T14:55:49.354Z</time></trkpt><trkpt lat="39.0241433" lon="16.5444233"><ele>786.0</ele><time>2026-04-07T14:55:50.355Z</time></trkpt><trkpt lat="39.024285" lon="16.5444583"><ele>786.0</ele><time>2026-04-07T14:55:51.354Z</time></trkpt><trkpt lat="39.0244217" lon="16.5444783"><ele>786.0</ele><time>2026-04-07T14:55:52.355Z</time></trkpt><trkpt lat="39.0245517" lon="16.5444933"><ele>785.75</ele><time>2026-04-07T14:55:53.355Z</time></trkpt><trkpt lat="39.0246783" lon="16.5445017"><ele>785.5</ele><time>2026-04-07T14:55:54.355Z</time></trkpt><trkpt lat="39.024795" lon="16.54453"><ele>785.25</ele><time>2026-04-07T14:55:55.354Z</time></trkpt><trkpt lat="39.0249" lon="16.5445667"><ele>785.0</ele><time>2026-04-07T14:55:56.354Z</time></trkpt><trkpt lat="39.0250133" lon="16.5446167"><ele>785.75</ele><time>2026-04-07T14:55:57.355Z</time></trkpt><trkpt lat="39.0251167" lon="16.5446633"><ele>786.5</ele><time>2026-04-07T14:55:58.355Z</time></trkpt><trkpt lat="39.0252267" lon="16.5447033"><ele>787.25</ele><time>2026-04-07T14:55:59.354Z</time></trkpt><trkpt lat="39.025345" lon="16.5447367"><ele>788.0</ele><time>2026-04-07T14:56:00.355Z</time></trkpt><trkpt lat="39.025465" lon="16.54477"><ele>788.0</ele><time>2026-04-07T14:56:01.354Z</time></trkpt><trkpt lat="39.0255867" lon="16.54481"><ele>788.0</ele><time>2026-04-07T14:56:02.355Z</time></trkpt><trkpt lat="39.0257117" lon="16.54482"><ele>788.0</ele><time>2026-04-07T14:56:03.354Z</time></trkpt><trkpt lat="39.025835" lon="16.54482"><ele>788.0</ele><time>2026-04-07T14:56:04.355Z</time></trkpt><trkpt lat="39.0259617" lon="16.5447983"><ele>787.25</ele><time>2026-04-07T14:56:05.354Z</time></trkpt><trkpt lat="39.02609" lon="16.5447817"><ele>786.5</ele><time>2026-04-07T14:56:06.355Z</time></trkpt><trkpt lat="39.0262117" lon="16.5447783"><ele>785.75</ele><time>2026-04-07T14:56:07.354Z</time></trkpt><trkpt lat="39.0263333" lon="16.5447983"><ele>785.0</ele><time>2026-04-07T14:56:08.354Z</time></trkpt><trkpt lat="39.0264417" lon="16.54483"><ele>785.0000000000001</ele><time>2026-04-07T14:56:09.354Z</time></trkpt><trkpt lat="39.0265217" lon="16.54488"><ele>785.0</ele><time>2026-04-07T14:56:10.354Z</time></trkpt><trkpt lat="39.026585" lon="16.544955"><ele>785.0</ele><time>2026-04-07T14:56:11.354Z</time></trkpt><trkpt lat="39.0266383" lon="16.545035"><ele>785.0</ele><time>2026-04-07T14:56:12.355Z</time></trkpt><trkpt lat="39.0266983" lon="16.5451183"><ele>785.0000000000001</ele><time>2026-04-07T14:56:13.354Z</time></trkpt><trkpt lat="39.0267617" lon="16.5451867"><ele>785.0</ele><time>2026-04-07T14:56:14.354Z</time></trkpt><trkpt lat="39.0268333" lon="16.5452317"><ele>785.3333333333334</ele><time>2026-04-07T14:56:15.354Z</time></trkpt><trkpt lat="39.0268933" lon="16.5452683"><ele>785.6666666666667</ele><time>2026-04-07T14:56:16.354Z</time></trkpt><trkpt lat="39.0269683" lon="16.5452983"><ele>786.0</ele><time>2026-04-07T14:56:18.354Z</time></trkpt><trkpt lat="39.0270117" lon="16.54522"><ele>786.3333333333333</ele><time>2026-04-07T14:56:21.355Z</time></trkpt><trkpt lat="39.026985" lon="16.545095"><ele>786.6666666666666</ele><time>2026-04-07T14:56:23.354Z</time></trkpt><trkpt lat="39.0269533" lon="16.54499"><ele>787.0</ele><time>2026-04-07T14:56:24.354Z</time></trkpt><trkpt lat="39.0269267" lon="16.54486"><ele>787.0</ele><time>2026-04-07T14:56:25.354Z</time></trkpt><trkpt lat="39.0269117" lon="16.5447167"><ele>787.0</ele><time>2026-04-07T14:56:26.355Z</time></trkpt><trkpt lat="39.0268983" lon="16.5445667"><ele>787.0</ele><time>2026-04-07T14:56:27.354Z</time></trkpt><trkpt lat="39.0268783" lon="16.5444"><ele>787.0</ele><time>2026-04-07T14:56:28.354Z</time></trkpt><trkpt lat="39.0268667" lon="16.544235"><ele>788.6</ele><time>2026-04-07T14:56:29.354Z</time></trkpt><trkpt lat="39.0268517" lon="16.5440833"><ele>790.2</ele><time>2026-04-07T14:56:30.354Z</time></trkpt><trkpt lat="39.0268483" lon="16.5439483"><ele>791.8</ele><time>2026-04-07T14:56:31.354Z</time></trkpt><trkpt lat="39.0268583" lon="16.5438317"><ele>793.4</ele><time>2026-04-07T14:56:32.354Z</time></trkpt><trkpt lat="39.0268833" lon="16.5437267"><ele>795.0</ele><time>2026-04-07T14:56:33.355Z</time></trkpt><trkpt lat="39.0269267" lon="16.5436217"><ele>797.2</ele><time>2026-04-07T14:56:34.354Z</time></trkpt><trkpt lat="39.0269817" lon="16.5435317"><ele>799.4</ele><time>2026-04-07T14:56:35.355Z</time></trkpt><trkpt lat="39.0270417" lon="16.54346"><ele>801.5999999999999</ele><time>2026-04-07T14:56:36.354Z</time></trkpt><trkpt lat="39.0271217" lon="16.5433867"><ele>803.8</ele><time>2026-04-07T14:56:37.354Z</time></trkpt><trkpt lat="39.0272033" lon="16.5433083"><ele>806.0</ele><time>2026-04-07T14:56:38.355Z</time></trkpt><trkpt lat="39.02728" lon="16.5432133"><ele>806.0</ele><time>2026-04-07T14:56:39.354Z</time></trkpt><trkpt lat="39.0273533" lon="16.5431117"><ele>806.0</ele><time>2026-04-07T14:56:40.354Z</time></trkpt><trkpt lat="39.0274283" lon="16.5430083"><ele>806.0</ele><time>2026-04-07T14:56:41.354Z</time></trkpt><trkpt lat="39.0275017" lon="16.542905"><ele>806.0</ele><time>2026-04-07T14:56:42.355Z</time></trkpt><trkpt lat="39.02758" lon="16.542805"><ele>806.0</ele><time>2026-04-07T14:56:43.355Z</time></trkpt><trkpt lat="39.0276517" lon="16.5426933"><ele>806.0</ele><time>2026-04-07T14:56:44.354Z</time></trkpt><trkpt lat="39.0277233" lon="16.542575"><ele>806.0</ele><time>2026-04-07T14:56:45.354Z</time></trkpt><trkpt lat="39.027795" lon="16.54247"><ele>806.0</ele><time>2026-04-07T14:56:46.354Z</time></trkpt><trkpt lat="39.0278767" lon="16.542375"><ele>806.0</ele><time>2026-04-07T14:56:47.354Z</time></trkpt><trkpt lat="39.027955" lon="16.5422933"><ele>806.0</ele><time>2026-04-07T14:56:48.354Z</time></trkpt><trkpt lat="39.0280467" lon="16.542235"><ele>806.0000000000001</ele><time>2026-04-07T14:56:49.354Z</time></trkpt><trkpt lat="39.0281417" lon="16.5421817"><ele>806.0</ele><time>2026-04-07T14:56:50.355Z</time></trkpt><trkpt lat="39.02824" lon="16.5421383"><ele>806.0</ele><time>2026-04-07T14:56:51.355Z</time></trkpt><trkpt lat="39.0283233" lon="16.5421283"><ele>806.0</ele><time>2026-04-07T14:56:52.354Z</time></trkpt><trkpt lat="39.0284067" lon="16.542145"><ele>806.0000000000001</ele><time>2026-04-07T14:56:53.354Z</time></trkpt><trkpt lat="39.0284667" lon="16.54217"><ele>806.0</ele><time>2026-04-07T14:56:54.354Z</time></trkpt><trkpt lat="39.0285417" lon="16.5422083"><ele>808.1428571428572</ele><time>2026-04-07T14:56:57.354Z</time></trkpt><trkpt lat="39.028585" lon="16.5422833"><ele>810.2857142857142</ele><time>2026-04-07T14:57:00.355Z</time></trkpt><trkpt lat="39.028635" lon="16.5423433"><ele>812.4285714285714</ele><time>2026-04-07T14:57:03.354Z</time></trkpt><trkpt lat="39.0286783" lon="16.5424067"><ele>814.5714285714287</ele><time>2026-04-07T14:57:06.355Z</time></trkpt><trkpt lat="39.0287383" lon="16.542495"><ele>816.7142857142858</ele><time>2026-04-07T14:57:09.354Z</time></trkpt><trkpt lat="39.0287967" lon="16.5425567"><ele>818.8571428571429</ele><time>2026-04-07T14:57:12.355Z</time></trkpt><trkpt lat="39.028855" lon="16.5426"><ele>821.0</ele><time>2026-04-07T14:57:15.354Z</time></trkpt><trkpt lat="39.0289167" lon="16.5426167"><ele>821.0000000000001</ele><time>2026-04-07T14:57:18.354Z</time></trkpt><trkpt lat="39.0290017" lon="16.5426133"><ele>821.0</ele><time>2026-04-07T14:57:21.354Z</time></trkpt><trkpt lat="39.02906" lon="16.5425717"><ele>821.0</ele><time>2026-04-07T14:57:24.354Z</time></trkpt><trkpt lat="39.0291217" lon="16.542535"><ele>821.0</ele><time>2026-04-07T14:57:28.354Z</time></trkpt><trkpt lat="39.02904" lon="16.5425867"><ele>821.0000000000001</ele><time>2026-04-07T14:57:44.355Z</time></trkpt><trkpt lat="39.0289433" lon="16.5426067"><ele>821.0</ele><time>2026-04-07T14:57:46.355Z</time></trkpt><trkpt lat="39.0288733" lon="16.54258"><ele>821.0000000000001</ele><time>2026-04-07T14:57:47.354Z</time></trkpt><trkpt lat="39.0288033" lon="16.5425333"><ele>821.0</ele><time>2026-04-07T14:57:48.354Z</time></trkpt><trkpt lat="39.0287317" lon="16.542465"><ele>821.0</ele><time>2026-04-07T14:57:49.354Z</time></trkpt><trkpt lat="39.0286767" lon="16.5423883"><ele>821.0</ele><time>2026-04-07T14:57:50.355Z</time></trkpt><trkpt lat="39.0286317" lon="16.5423167"><ele>821.0000000000001</ele><time>2026-04-07T14:57:51.355Z</time></trkpt><trkpt lat="39.0285583" lon="16.5422283"><ele>821.0</ele><time>2026-04-07T14:57:53.355Z</time></trkpt><trkpt lat="39.0284883" lon="16.5421967"><ele>821.0000000000001</ele><time>2026-04-07T14:57:56.355Z</time></trkpt><trkpt lat="39.0285217" lon="16.5423333"><ele>821.0</ele><time>2026-04-07T14:57:59.355Z</time></trkpt><trkpt lat="39.0285633" lon="16.5424083"><ele>821.0</ele><time>2026-04-07T14:58:00.355Z</time></trkpt><trkpt lat="39.0285983" lon="16.5424983"><ele>821.0</ele><time>2026-04-07T14:58:01.355Z</time></trkpt><trkpt lat="39.028635" lon="16.5425967"><ele>821.0000000000001</ele><time>2026-04-07T14:58:02.355Z</time></trkpt><trkpt lat="39.0286683" lon="16.5427067"><ele>821.0</ele><time>2026-04-07T14:58:03.355Z</time></trkpt><trkpt lat="39.0286967" lon="16.54283"><ele>822.1999999999999</ele><time>2026-04-07T14:58:04.354Z</time></trkpt><trkpt lat="39.0287233" lon="16.5429533"><ele>823.4</ele><time>2026-04-07T14:58:05.354Z</time></trkpt><trkpt lat="39.0287467" lon="16.5430817"><ele>824.6</ele><time>2026-04-07T14:58:06.355Z</time></trkpt><trkpt lat="39.0287617" lon="16.5432083"><ele>825.8</ele><time>2026-04-07T14:58:07.354Z</time></trkpt><trkpt lat="39.02878" lon="16.54334"><ele>827.0</ele><time>2026-04-07T14:58:08.354Z</time></trkpt><trkpt lat="39.0288" lon="16.5434733"><ele>827.0</ele><time>2026-04-07T14:58:09.354Z</time></trkpt><trkpt lat="39.0288217" lon="16.54361"><ele>827.0</ele><time>2026-04-07T14:58:10.354Z</time></trkpt><trkpt lat="39.02884" lon="16.5437417"><ele>827.0</ele><time>2026-04-07T14:58:11.354Z</time></trkpt><trkpt lat="39.0288717" lon="16.5438867"><ele>827.0</ele><time>2026-04-07T14:58:12.354Z</time></trkpt><trkpt lat="39.02891" lon="16.5440333"><ele>827.0</ele><time>2026-04-07T14:58:13.355Z</time></trkpt><trkpt lat="39.0289617" lon="16.5441783"><ele>826.5</ele><time>2026-04-07T14:58:14.354Z</time></trkpt><trkpt lat="39.0290233" lon="16.5443067"><ele>826.0</ele><time>2026-04-07T14:58:15.355Z</time></trkpt><trkpt lat="39.02911" lon="16.5443983"><ele>825.5</ele><time>2026-04-07T14:58:16.354Z</time></trkpt><trkpt lat="39.0292183" lon="16.5444533"><ele>825.0</ele><time>2026-04-07T14:58:17.354Z</time></trkpt><trkpt lat="39.0293333" lon="16.5444767"><ele>827.75</ele><time>2026-04-07T14:58:18.355Z</time></trkpt><trkpt lat="39.0294617" lon="16.544485"><ele>830.5</ele><time>2026-04-07T14:58:19.355Z</time></trkpt><trkpt lat="39.0295917" lon="16.5444717"><ele>833.25</ele><time>2026-04-07T14:58:20.355Z</time></trkpt><trkpt lat="39.0297217" lon="16.544425"><ele>836.0</ele><time>2026-04-07T14:58:21.354Z</time></trkpt><trkpt lat="39.029835" lon="16.5443583"><ele>836.0000000000001</ele><time>2026-04-07T14:58:22.354Z</time></trkpt><trkpt lat="39.0299383" lon="16.5442833"><ele>836.0</ele><time>2026-04-07T14:58:23.354Z</time></trkpt><trkpt lat="39.03002" lon="16.5442267"><ele>836.0</ele><time>2026-04-07T14:58:24.354Z</time></trkpt><trkpt lat="39.03008" lon="16.54419"><ele>836.0</ele><time>2026-04-07T14:58:25.354Z</time></trkpt><trkpt lat="39.0301467" lon="16.5441083"><ele>836.0000000000001</ele><time>2026-04-07T14:58:27.354Z</time></trkpt><trkpt lat="39.0301783" lon="16.5440283"><ele>836.0</ele><time>2026-04-07T14:58:28.354Z</time></trkpt><trkpt lat="39.0302133" lon="16.5439167"><ele>837.3333333333334</ele><time>2026-04-07T14:58:29.355Z</time></trkpt><trkpt lat="39.03026" lon="16.54375"><ele>838.6666666666667</ele><time>2026-04-07T14:58:30.354Z</time></trkpt><trkpt lat="39.0303133" lon="16.5435283"><ele>840.0</ele><time>2026-04-07T14:58:31.355Z</time></trkpt><trkpt lat="39.0303683" lon="16.5432983"><ele>840.0</ele><time>2026-04-07T14:58:32.355Z</time></trkpt><trkpt lat="39.0304283" lon="16.5430667"><ele>840.0</ele><time>2026-04-07T14:58:33.354Z</time></trkpt><trkpt lat="39.0304883" lon="16.5428367"><ele>840.0</ele><time>2026-04-07T14:58:34.355Z</time></trkpt><trkpt lat="39.0305683" lon="16.54262"><ele>836.3333333333333</ele><time>2026-04-07T14:58:35.355Z</time></trkpt><trkpt lat="39.030655" lon="16.5424333"><ele>832.6666666666666</ele><time>2026-04-07T14:58:36.354Z</time></trkpt><trkpt lat="39.0307667" lon="16.5422583"><ele>829.0</ele><time>2026-04-07T14:58:37.354Z</time></trkpt><trkpt lat="39.0309083" lon="16.5420833"><ele>833.6666666666666</ele><time>2026-04-07T14:58:38.354Z</time></trkpt><trkpt lat="39.0310517" lon="16.5419183"><ele>838.3333333333333</ele><time>2026-04-07T14:58:39.355Z</time></trkpt><trkpt lat="39.0311783" lon="16.5417567"><ele>843.0</ele><time>2026-04-07T14:58:40.354Z</time></trkpt><trkpt lat="39.0312867" lon="16.5415833"><ele>843.0</ele><time>2026-04-07T14:58:41.354Z</time></trkpt><trkpt lat="39.0313583" lon="16.5414133"><ele>843.0</ele><time>2026-04-07T14:58:42.355Z</time></trkpt><trkpt lat="39.031375" lon="16.5412233"><ele>843.0</ele><time>2026-04-07T14:58:43.354Z</time></trkpt><trkpt lat="39.031355" lon="16.541015"><ele>840.3333333333333</ele><time>2026-04-07T14:58:44.355Z</time></trkpt><trkpt lat="39.0313167" lon="16.5408183"><ele>837.6666666666666</ele><time>2026-04-07T14:58:45.355Z</time></trkpt><trkpt lat="39.0313" lon="16.5406267"><ele>835.0</ele><time>2026-04-07T14:58:46.354Z</time></trkpt><trkpt lat="39.03131" lon="16.5404417"><ele>833.3333333333333</ele><time>2026-04-07T14:58:47.354Z</time></trkpt><trkpt lat="39.0313617" lon="16.54026"><ele>831.6666666666667</ele><time>2026-04-07T14:58:48.355Z</time></trkpt><trkpt lat="39.031445" lon="16.5400867"><ele>830.0</ele><time>2026-04-07T14:58:49.355Z</time></trkpt><trkpt lat="39.0315567" lon="16.5399433"><ele>841.0</ele><time>2026-04-07T14:58:50.355Z</time></trkpt><trkpt lat="39.031685" lon="16.53985"><ele>852.0</ele><time>2026-04-07T14:58:51.354Z</time></trkpt><trkpt lat="39.0318367" lon="16.5397967"><ele>863.0</ele><time>2026-04-07T14:58:52.355Z</time></trkpt><trkpt lat="39.032015" lon="16.5397617"><ele>863.0</ele><time>2026-04-07T14:58:53.354Z</time></trkpt><trkpt lat="39.0322083" lon="16.53973"><ele>863.0</ele><time>2026-04-07T14:58:54.355Z</time></trkpt><trkpt lat="39.0324017" lon="16.539705"><ele>863.0</ele><time>2026-04-07T14:58:55.354Z</time></trkpt><trkpt lat="39.0325983" lon="16.5396783"><ele>869.0</ele><time>2026-04-07T14:58:56.355Z</time></trkpt><trkpt lat="39.0327983" lon="16.5396433"><ele>875.0</ele><time>2026-04-07T14:58:57.354Z</time></trkpt><trkpt lat="39.0329917" lon="16.5396117"><ele>881.0</ele><time>2026-04-07T14:58:58.355Z</time></trkpt><trkpt lat="39.0331683" lon="16.5395767"><ele>885.0</ele><time>2026-04-07T14:58:59.354Z</time></trkpt><trkpt lat="39.03333" lon="16.5395567"><ele>889.0</ele><time>2026-04-07T14:59:00.354Z</time></trkpt><trkpt lat="39.0334833" lon="16.5395317"><ele>893.0</ele><time>2026-04-07T14:59:01.354Z</time></trkpt><trkpt lat="39.0336217" lon="16.5394633"><ele>884.0</ele><time>2026-04-07T14:59:02.354Z</time></trkpt><trkpt lat="39.0337483" lon="16.539355"><ele>875.0</ele><time>2026-04-07T14:59:03.355Z</time></trkpt><trkpt lat="39.033845" lon="16.539225"><ele>866.0</ele><time>2026-04-07T14:59:04.355Z</time></trkpt><trkpt lat="39.0339183" lon="16.5390533"><ele>857.0</ele><time>2026-04-07T14:59:05.354Z</time></trkpt><trkpt lat="39.0339483" lon="16.538865"><ele>853.6666666666667</ele><time>2026-04-07T14:59:06.354Z</time></trkpt><trkpt lat="39.033935" lon="16.538655"><ele>850.3333333333333</ele><time>2026-04-07T14:59:07.355Z</time></trkpt><trkpt lat="39.0338883" lon="16.538455"><ele>847.0</ele><time>2026-04-07T14:59:08.354Z</time></trkpt><trkpt lat="39.0338" lon="16.5382467"><ele>847.0</ele><time>2026-04-07T14:59:09.355Z</time></trkpt><trkpt lat="39.03371" lon="16.5380283"><ele>847.0</ele><time>2026-04-07T14:59:10.355Z</time></trkpt><trkpt lat="39.0336283" lon="16.5378017"><ele>847.0</ele><time>2026-04-07T14:59:11.354Z</time></trkpt><trkpt lat="39.033555" lon="16.53759"><ele>852.3333333333333</ele><time>2026-04-07T14:59:12.355Z</time></trkpt><trkpt lat="39.033505" lon="16.5374"><ele>857.6666666666667</ele><time>2026-04-07T14:59:13.355Z</time></trkpt><trkpt lat="39.0334633" lon="16.53721"><ele>863.0</ele><time>2026-04-07T14:59:14.354Z</time></trkpt><trkpt lat="39.0334417" lon="16.5370217"><ele>863.0</ele><time>2026-04-07T14:59:15.355Z</time></trkpt><trkpt lat="39.0334617" lon="16.536815"><ele>863.0</ele><time>2026-04-07T14:59:16.354Z</time></trkpt><trkpt lat="39.03351" lon="16.536625"><ele>863.0</ele><time>2026-04-07T14:59:17.355Z</time></trkpt><trkpt lat="39.033605" lon="16.5364433"><ele>863.0</ele><time>2026-04-07T14:59:18.354Z</time></trkpt><trkpt lat="39.0337317" lon="16.536295"><ele>863.0</ele><time>2026-04-07T14:59:19.355Z</time></trkpt><trkpt lat="39.0338783" lon="16.5361817"><ele>863.0</ele><time>2026-04-07T14:59:20.354Z</time></trkpt><trkpt lat="39.0340383" lon="16.5361117"><ele>865.75</ele><time>2026-04-07T14:59:21.354Z</time></trkpt><trkpt lat="39.0341883" lon="16.5360383"><ele>868.5</ele><time>2026-04-07T14:59:22.354Z</time></trkpt><trkpt lat="39.0343183" lon="16.5359533"><ele>871.25</ele><time>2026-04-07T14:59:23.354Z</time></trkpt><trkpt lat="39.0344233" lon="16.5358283"><ele>874.0</ele><time>2026-04-07T14:59:24.355Z</time></trkpt><trkpt lat="39.034515" lon="16.5356433"><ele>874.0</ele><time>2026-04-07T14:59:25.354Z</time></trkpt><trkpt lat="39.03459" lon="16.5354233"><ele>874.0</ele><time>2026-04-07T14:59:26.354Z</time></trkpt><trkpt lat="39.034675" lon="16.5351933"><ele>874.0</ele><time>2026-04-07T14:59:27.354Z</time></trkpt><trkpt lat="39.0347667" lon="16.5349667"><ele>874.0</ele><time>2026-04-07T14:59:28.355Z</time></trkpt><trkpt lat="39.0348583" lon="16.5347567"><ele>874.0</ele><time>2026-04-07T14:59:29.354Z</time></trkpt><trkpt lat="39.034945" lon="16.5345833"><ele>874.0</ele><time>2026-04-07T14:59:30.355Z</time></trkpt><trkpt lat="39.0350517" lon="16.534455"><ele>874.0</ele><time>2026-04-07T14:59:31.354Z</time></trkpt><trkpt lat="39.0351883" lon="16.534355"><ele>874.0</ele><time>2026-04-07T14:59:32.354Z</time></trkpt><trkpt lat="39.0353383" lon="16.5343033"><ele>874.0</ele><time>2026-04-07T14:59:33.354Z</time></trkpt><trkpt lat="39.0354983" lon="16.5343083"><ele>874.0</ele><time>2026-04-07T14:59:34.355Z</time></trkpt><trkpt lat="39.035675" lon="16.5343483"><ele>874.0</ele><time>2026-04-07T14:59:35.355Z</time></trkpt><trkpt lat="39.0358717" lon="16.5344"><ele>874.0</ele><time>2026-04-07T14:59:36.354Z</time></trkpt><trkpt lat="39.036095" lon="16.5344683"><ele>876.5</ele><time>2026-04-07T14:59:37.354Z</time></trkpt><trkpt lat="39.0363183" lon="16.5345183"><ele>879.0</ele><time>2026-04-07T14:59:38.355Z</time></trkpt><trkpt lat="39.0365467" lon="16.5345733"><ele>896.5</ele><time>2026-04-07T14:59:39.355Z</time></trkpt><trkpt lat="39.0367767" lon="16.534625"><ele>914.0</ele><time>2026-04-07T14:59:40.354Z</time></trkpt><trkpt lat="39.03701" lon="16.5346833"><ele>914.0</ele><time>2026-04-07T14:59:41.354Z</time></trkpt><trkpt lat="39.0372317" lon="16.5347267"><ele>914.0</ele><time>2026-04-07T14:59:42.355Z</time></trkpt><trkpt lat="39.03743" lon="16.5347433"><ele>914.0</ele><time>2026-04-07T14:59:43.355Z</time></trkpt><trkpt lat="39.0376183" lon="16.534775"><ele>911.6666666666667</ele><time>2026-04-07T14:59:44.354Z</time></trkpt><trkpt lat="39.0377917" lon="16.5348183"><ele>909.3333333333333</ele><time>2026-04-07T14:59:45.354Z</time></trkpt><trkpt lat="39.0379517" lon="16.534915"><ele>907.0</ele><time>2026-04-07T14:59:46.355Z</time></trkpt><trkpt lat="39.03811" lon="16.5350417"><ele>907.0</ele><time>2026-04-07T14:59:47.354Z</time></trkpt><trkpt lat="39.0382617" lon="16.5351817"><ele>907.0</ele><time>2026-04-07T14:59:48.354Z</time></trkpt><trkpt lat="39.03842" lon="16.5352883"><ele>907.0</ele><time>2026-04-07T14:59:49.354Z</time></trkpt><trkpt lat="39.038595" lon="16.5353333"><ele>902.0</ele><time>2026-04-07T14:59:50.354Z</time></trkpt><trkpt lat="39.038775" lon="16.535335"><ele>897.0</ele><time>2026-04-07T14:59:51.355Z</time></trkpt><trkpt lat="39.03894" lon="16.5353117"><ele>892.0</ele><time>2026-04-07T14:59:52.354Z</time></trkpt><trkpt lat="39.0390767" lon="16.5352783"><ele>891.75</ele><time>2026-04-07T14:59:53.355Z</time></trkpt><trkpt lat="39.03921" lon="16.53519"><ele>891.5</ele><time>2026-04-07T14:59:54.354Z</time></trkpt><trkpt lat="39.0393233" lon="16.5350733"><ele>891.25</ele><time>2026-04-07T14:59:55.355Z</time></trkpt><trkpt lat="39.0393967" lon="16.5349133"><ele>891.0</ele><time>2026-04-07T14:59:56.354Z</time></trkpt><trkpt lat="39.0394317" lon="16.5347233"><ele>887.3333333333333</ele><time>2026-04-07T14:59:57.354Z</time></trkpt><trkpt lat="39.0394367" lon="16.5345133"><ele>883.6666666666666</ele><time>2026-04-07T14:59:58.354Z</time></trkpt><trkpt lat="39.03943" lon="16.534315"><ele>880.0</ele><time>2026-04-07T14:59:59.355Z</time></trkpt><trkpt lat="39.03945" lon="16.5341317"><ele>880.0</ele><time>2026-04-07T15:00:00.354Z</time></trkpt><trkpt lat="39.0395133" lon="16.53397"><ele>880.0</ele><time>2026-04-07T15:00:01.354Z</time></trkpt><trkpt lat="39.0396" lon="16.53384"><ele>880.0</ele><time>2026-04-07T15:00:02.355Z</time></trkpt><trkpt lat="39.0397067" lon="16.533745"><ele>880.0</ele><time>2026-04-07T15:00:03.355Z</time></trkpt><trkpt lat="39.0398367" lon="16.5336767"><ele>880.6666666666666</ele><time>2026-04-07T15:00:04.355Z</time></trkpt><trkpt lat="39.0399883" lon="16.53364"><ele>881.3333333333333</ele><time>2026-04-07T15:00:05.354Z</time></trkpt><trkpt lat="39.0401533" lon="16.5336067"><ele>882.0</ele><time>2026-04-07T15:00:06.354Z</time></trkpt><trkpt lat="39.0403283" lon="16.5335617"><ele>882.0</ele><time>2026-04-07T15:00:07.354Z</time></trkpt><trkpt lat="39.0405167" lon="16.5334983"><ele>882.0</ele><time>2026-04-07T15:00:08.354Z</time></trkpt><trkpt lat="39.0407117" lon="16.53342"><ele>882.0</ele><time>2026-04-07T15:00:09.355Z</time></trkpt><trkpt lat="39.04091" lon="16.5333367"><ele>887.0</ele><time>2026-04-07T15:00:10.355Z</time></trkpt><trkpt lat="39.041105" lon="16.533225"><ele>892.0</ele><time>2026-04-07T15:00:11.355Z</time></trkpt><trkpt lat="39.0412917" lon="16.53312"><ele>897.0</ele><time>2026-04-07T15:00:12.355Z</time></trkpt><trkpt lat="39.0414617" lon="16.5330117"><ele>897.0</ele><time>2026-04-07T15:00:13.355Z</time></trkpt><trkpt lat="39.0416" lon="16.5329117"><ele>897.0</ele><time>2026-04-07T15:00:14.354Z</time></trkpt><trkpt lat="39.04171" lon="16.5327783"><ele>897.0</ele><time>2026-04-07T15:00:15.354Z</time></trkpt><trkpt lat="39.0417817" lon="16.5326217"><ele>893.75</ele><time>2026-04-07T15:00:16.354Z</time></trkpt><trkpt lat="39.0418067" lon="16.5324417"><ele>890.5</ele><time>2026-04-07T15:00:17.355Z</time></trkpt><trkpt lat="39.0417817" lon="16.5322633"><ele>887.25</ele><time>2026-04-07T15:00:18.354Z</time></trkpt><trkpt lat="39.0417117" lon="16.5321"><ele>884.0</ele><time>2026-04-07T15:00:19.355Z</time></trkpt><trkpt lat="39.04161" lon="16.531965"><ele>883.25</ele><time>2026-04-07T15:00:20.355Z</time></trkpt><trkpt lat="39.041485" lon="16.5318683"><ele>882.5</ele><time>2026-04-07T15:00:21.355Z</time></trkpt><trkpt lat="39.0413483" lon="16.53179"><ele>881.75</ele><time>2026-04-07T15:00:22.354Z</time></trkpt><trkpt lat="39.0412167" lon="16.5317183"><ele>881.0</ele><time>2026-04-07T15:00:23.354Z</time></trkpt><trkpt lat="39.0411083" lon="16.5316333"><ele>881.0</ele><time>2026-04-07T15:00:24.355Z</time></trkpt><trkpt lat="39.0410267" lon="16.5315217"><ele>881.0</ele><time>2026-04-07T15:00:25.355Z</time></trkpt><trkpt lat="39.0409583" lon="16.5313767"><ele>881.0</ele><time>2026-04-07T15:00:26.355Z</time></trkpt><trkpt lat="39.0409133" lon="16.5311983"><ele>881.0</ele><time>2026-04-07T15:00:27.355Z</time></trkpt><trkpt lat="39.0408633" lon="16.5310117"><ele>880.0</ele><time>2026-04-07T15:00:28.355Z</time></trkpt><trkpt lat="39.0408067" lon="16.530825"><ele>879.0</ele><time>2026-04-07T15:00:29.354Z</time></trkpt><trkpt lat="39.0407517" lon="16.5306467"><ele>878.0</ele><time>2026-04-07T15:00:30.355Z</time></trkpt><trkpt lat="39.0406917" lon="16.5304783"><ele>877.0</ele><time>2026-04-07T15:00:31.354Z</time></trkpt><trkpt lat="39.040615" lon="16.5303217"><ele>884.6666666666666</ele><time>2026-04-07T15:00:32.354Z</time></trkpt><trkpt lat="39.0405117" lon="16.5301767"><ele>892.3333333333333</ele><time>2026-04-07T15:00:33.355Z</time></trkpt><trkpt lat="39.0403883" lon="16.5300367"><ele>900.0</ele><time>2026-04-07T15:00:34.355Z</time></trkpt><trkpt lat="39.040255" lon="16.5299017"><ele>900.0</ele><time>2026-04-07T15:00:35.355Z</time></trkpt><trkpt lat="39.0401167" lon="16.529775"><ele>900.0</ele><time>2026-04-07T15:00:36.354Z</time></trkpt><trkpt lat="39.0399733" lon="16.5296417"><ele>900.0</ele><time>2026-04-07T15:00:37.354Z</time></trkpt><trkpt lat="39.0398383" lon="16.5295083"><ele>898.6666666666667</ele><time>2026-04-07T15:00:38.354Z</time></trkpt><trkpt lat="39.03972" lon="16.529375"><ele>897.3333333333334</ele><time>2026-04-07T15:00:39.355Z</time></trkpt><trkpt lat="39.0396167" lon="16.52924"><ele>896.0</ele><time>2026-04-07T15:00:40.355Z</time></trkpt><trkpt lat="39.0395333" lon="16.52908"><ele>896.0</ele><time>2026-04-07T15:00:41.355Z</time></trkpt><trkpt lat="39.0394717" lon="16.528915"><ele>896.0</ele><time>2026-04-07T15:00:42.355Z</time></trkpt><trkpt lat="39.0394217" lon="16.5287283"><ele>896.0</ele><time>2026-04-07T15:00:43.354Z</time></trkpt><trkpt lat="39.0393767" lon="16.52854"><ele>896.0</ele><time>2026-04-07T15:00:44.354Z</time></trkpt><trkpt lat="39.039325" lon="16.5283567"><ele>899.25</ele><time>2026-04-07T15:00:45.354Z</time></trkpt><trkpt lat="39.0392833" lon="16.528165"><ele>902.5</ele><time>2026-04-07T15:00:46.355Z</time></trkpt><trkpt lat="39.039265" lon="16.52798"><ele>905.75</ele><time>2026-04-07T15:00:47.354Z</time></trkpt><trkpt lat="39.03927" lon="16.527795"><ele>909.0</ele><time>2026-04-07T15:00:48.354Z</time></trkpt><trkpt lat="39.0392983" lon="16.5276"><ele>910.0</ele><time>2026-04-07T15:00:49.355Z</time></trkpt><trkpt lat="39.0393517" lon="16.5274"><ele>911.0</ele><time>2026-04-07T15:00:50.355Z</time></trkpt><trkpt lat="39.0394167" lon="16.5271967"><ele>912.0</ele><time>2026-04-07T15:00:51.354Z</time></trkpt><trkpt lat="39.0394917" lon="16.5269867"><ele>908.3333333333333</ele><time>2026-04-07T15:00:52.355Z</time></trkpt><trkpt lat="39.03958" lon="16.5267733"><ele>904.6666666666666</ele><time>2026-04-07T15:00:53.354Z</time></trkpt><trkpt lat="39.039665" lon="16.52654"><ele>901.0</ele><time>2026-04-07T15:00:54.354Z</time></trkpt><trkpt lat="39.0397467" lon="16.5263133"><ele>899.0</ele><time>2026-04-07T15:00:55.354Z</time></trkpt><trkpt lat="39.0398283" lon="16.5260933"><ele>897.0</ele><time>2026-04-07T15:00:56.355Z</time></trkpt><trkpt lat="39.0399267" lon="16.5258883"><ele>895.0</ele><time>2026-04-07T15:00:57.354Z</time></trkpt><trkpt lat="39.0400417" lon="16.5257"><ele>903.3333333333333</ele><time>2026-04-07T15:00:58.354Z</time></trkpt><trkpt lat="39.0401633" lon="16.5255167"><ele>911.6666666666667</ele><time>2026-04-07T15:00:59.355Z</time></trkpt><trkpt lat="39.0402817" lon="16.5253383"><ele>920.0</ele><time>2026-04-07T15:01:00.354Z</time></trkpt><trkpt lat="39.040405" lon="16.52516"><ele>920.0</ele><time>2026-04-07T15:01:01.354Z</time></trkpt><trkpt lat="39.04052" lon="16.525005"><ele>920.0</ele><time>2026-04-07T15:01:02.354Z</time></trkpt><trkpt lat="39.0406433" lon="16.5248683"><ele>920.0</ele><time>2026-04-07T15:01:03.354Z</time></trkpt><trkpt lat="39.0407833" lon="16.524785"><ele>927.6666666666667</ele><time>2026-04-07T15:01:04.354Z</time></trkpt><trkpt lat="39.04095" lon="16.5247567"><ele>935.3333333333333</ele><time>2026-04-07T15:01:05.354Z</time></trkpt><trkpt lat="39.0411317" lon="16.52477"><ele>943.0</ele><time>2026-04-07T15:01:06.354Z</time></trkpt><trkpt lat="39.041305" lon="16.524795"><ele>943.0</ele><time>2026-04-07T15:01:07.355Z</time></trkpt><trkpt lat="39.0414883" lon="16.52482"><ele>943.0</ele><time>2026-04-07T15:01:08.355Z</time></trkpt><trkpt lat="39.0416817" lon="16.524815"><ele>943.0</ele><time>2026-04-07T15:01:09.354Z</time></trkpt><trkpt lat="39.0418783" lon="16.52479"><ele>947.3333333333333</ele><time>2026-04-07T15:01:10.354Z</time></trkpt><trkpt lat="39.04208" lon="16.5247583"><ele>951.6666666666667</ele><time>2026-04-07T15:01:11.355Z</time></trkpt><trkpt lat="39.0422867" lon="16.5247283"><ele>956.0</ele><time>2026-04-07T15:01:12.355Z</time></trkpt><trkpt lat="39.04247" lon="16.5247083"><ele>960.0</ele><time>2026-04-07T15:01:13.355Z</time></trkpt><trkpt lat="39.0426467" lon="16.5246883"><ele>964.0</ele><time>2026-04-07T15:01:14.355Z</time></trkpt><trkpt lat="39.0428" lon="16.5246533"><ele>968.0</ele><time>2026-04-07T15:01:15.354Z</time></trkpt><trkpt lat="39.0429467" lon="16.5245867"><ele>961.25</ele><time>2026-04-07T15:01:16.355Z</time></trkpt><trkpt lat="39.0430783" lon="16.5244817"><ele>954.5</ele><time>2026-04-07T15:01:17.354Z</time></trkpt><trkpt lat="39.0431583" lon="16.5243417"><ele>947.75</ele><time>2026-04-07T15:01:18.355Z</time></trkpt><trkpt lat="39.0432083" lon="16.5241633"><ele>941.0</ele><time>2026-04-07T15:01:19.354Z</time></trkpt><trkpt lat="39.043225" lon="16.5239783"><ele>941.0</ele><time>2026-04-07T15:01:20.354Z</time></trkpt><trkpt lat="39.043215" lon="16.5237683"><ele>941.0</ele><time>2026-04-07T15:01:21.355Z</time></trkpt><trkpt lat="39.0431867" lon="16.5235567"><ele>941.0</ele><time>2026-04-07T15:01:22.354Z</time></trkpt><trkpt lat="39.043165" lon="16.5233517"><ele>934.0</ele><time>2026-04-07T15:01:23.355Z</time></trkpt><trkpt lat="39.0431833" lon="16.523145"><ele>927.0</ele><time>2026-04-07T15:01:24.355Z</time></trkpt><trkpt lat="39.0432233" lon="16.5229233"><ele>920.0</ele><time>2026-04-07T15:01:25.354Z</time></trkpt><trkpt lat="39.043275" lon="16.5227083"><ele>931.3333333333334</ele><time>2026-04-07T15:01:26.355Z</time></trkpt><trkpt lat="39.043335" lon="16.5224833"><ele>942.6666666666667</ele><time>2026-04-07T15:01:27.354Z</time></trkpt><trkpt lat="39.0434083" lon="16.522255"><ele>954.0</ele><time>2026-04-07T15:01:28.355Z</time></trkpt><trkpt lat="39.0434817" lon="16.5220467"><ele>954.0</ele><time>2026-04-07T15:01:29.355Z</time></trkpt><trkpt lat="39.0435567" lon="16.52186"><ele>954.0</ele><time>2026-04-07T15:01:30.354Z</time></trkpt><trkpt lat="39.043645" lon="16.52171"><ele>954.0</ele><time>2026-04-07T15:01:31.355Z</time></trkpt><trkpt lat="39.0437667" lon="16.5215933"><ele>954.0</ele><time>2026-04-07T15:01:32.355Z</time></trkpt><trkpt lat="39.0439217" lon="16.5215033"><ele>954.0</ele><time>2026-04-07T15:01:33.355Z</time></trkpt><trkpt lat="39.0440833" lon="16.5214383"><ele>954.0</ele><time>2026-04-07T15:01:34.355Z</time></trkpt><trkpt lat="39.0442633" lon="16.5213817"><ele>955.0</ele><time>2026-04-07T15:01:35.355Z</time></trkpt><trkpt lat="39.0444417" lon="16.5213217"><ele>956.0</ele><time>2026-04-07T15:01:36.355Z</time></trkpt><trkpt lat="39.044635" lon="16.5212483"><ele>957.0</ele><time>2026-04-07T15:01:37.354Z</time></trkpt><trkpt lat="39.0448383" lon="16.5211733"><ele>963.0</ele><time>2026-04-07T15:01:38.354Z</time></trkpt><trkpt lat="39.0450567" lon="16.52109"><ele>969.0</ele><time>2026-04-07T15:01:39.355Z</time></trkpt><trkpt lat="39.0452817" lon="16.521005"><ele>969.0</ele><time>2026-04-07T15:01:40.355Z</time></trkpt><trkpt lat="39.0455133" lon="16.5209167"><ele>969.0</ele><time>2026-04-07T15:01:41.354Z</time></trkpt><trkpt lat="39.04574" lon="16.5208333"><ele>976.5</ele><time>2026-04-07T15:01:42.354Z</time></trkpt><trkpt lat="39.045965" lon="16.5207533"><ele>984.0</ele><time>2026-04-07T15:01:43.355Z</time></trkpt><trkpt lat="39.0461767" lon="16.52068"><ele>984.0</ele><time>2026-04-07T15:01:44.354Z</time></trkpt><trkpt lat="39.0463767" lon="16.520625"><ele>984.0</ele><time>2026-04-07T15:01:45.355Z</time></trkpt><trkpt lat="39.0465733" lon="16.5206133"><ele>984.0</ele><time>2026-04-07T15:01:46.354Z</time></trkpt><trkpt lat="39.0467617" lon="16.5206567"><ele>987.6666666666667</ele><time>2026-04-07T15:01:47.355Z</time></trkpt><trkpt lat="39.04695" lon="16.5207433"><ele>991.3333333333334</ele><time>2026-04-07T15:01:48.355Z</time></trkpt><trkpt lat="39.0471383" lon="16.5208533"><ele>995.0</ele><time>2026-04-07T15:01:49.355Z</time></trkpt><trkpt lat="39.0473183" lon="16.5209733"><ele>992.6666666666667</ele><time>2026-04-07T15:01:50.354Z</time></trkpt><trkpt lat="39.04751" lon="16.5210883"><ele>990.3333333333333</ele><time>2026-04-07T15:01:51.354Z</time></trkpt><trkpt lat="39.0477117" lon="16.5211983"><ele>988.0</ele><time>2026-04-07T15:01:52.354Z</time></trkpt><trkpt lat="39.0479083" lon="16.5212967"><ele>996.6666666666666</ele><time>2026-04-07T15:01:53.354Z</time></trkpt><trkpt lat="39.0480983" lon="16.521365"><ele>1005.3333333333333</ele><time>2026-04-07T15:01:54.354Z</time></trkpt><trkpt lat="39.0482833" lon="16.5213967"><ele>1014.0</ele><time>2026-04-07T15:01:55.354Z</time></trkpt><trkpt lat="39.04847" lon="16.521385"><ele>1014.0</ele><time>2026-04-07T15:01:56.355Z</time></trkpt><trkpt lat="39.04864" lon="16.521315"><ele>1014.0</ele><time>2026-04-07T15:01:57.355Z</time></trkpt><trkpt lat="39.0488017" lon="16.5211883"><ele>1014.0</ele><time>2026-04-07T15:01:58.354Z</time></trkpt><trkpt lat="39.04896" lon="16.52102"><ele>1009.0</ele><time>2026-04-07T15:01:59.354Z</time></trkpt><trkpt lat="39.0491083" lon="16.520835"><ele>1004.0</ele><time>2026-04-07T15:02:00.354Z</time></trkpt><trkpt lat="39.0492533" lon="16.5206633"><ele>999.0</ele><time>2026-04-07T15:02:01.354Z</time></trkpt><trkpt lat="39.049395" lon="16.52052"><ele>999.0</ele><time>2026-04-07T15:02:02.355Z</time></trkpt><trkpt lat="39.0495267" lon="16.52044"><ele>999.0</ele><time>2026-04-07T15:02:03.354Z</time></trkpt><trkpt lat="39.0496783" lon="16.5204167"><ele>999.0</ele><time>2026-04-07T15:02:04.355Z</time></trkpt><trkpt lat="39.0498333" lon="16.5204167"><ele>1004.6666666666667</ele><time>2026-04-07T15:02:05.354Z</time></trkpt><trkpt lat="39.0500033" lon="16.520445"><ele>1010.3333333333334</ele><time>2026-04-07T15:02:06.355Z</time></trkpt><trkpt lat="39.0501833" lon="16.5204667"><ele>1016.0</ele><time>2026-04-07T15:02:07.355Z</time></trkpt><trkpt lat="39.0503817" lon="16.5204967"><ele>1016.0</ele><time>2026-04-07T15:02:08.354Z</time></trkpt><trkpt lat="39.0505733" lon="16.520505"><ele>1016.0</ele><time>2026-04-07T15:02:09.354Z</time></trkpt><trkpt lat="39.0507867" lon="16.5205133"><ele>1016.0</ele><time>2026-04-07T15:02:10.355Z</time></trkpt><trkpt lat="39.0510283" lon="16.5205067"><ele>1020.0</ele><time>2026-04-07T15:02:11.355Z</time></trkpt><trkpt lat="39.0512817" lon="16.5204733"><ele>1024.0</ele><time>2026-04-07T15:02:12.355Z</time></trkpt><trkpt lat="39.051545" lon="16.5204283"><ele>1007.0</ele><time>2026-04-07T15:02:13.354Z</time></trkpt><trkpt lat="39.0518083" lon="16.5203883"><ele>990.0</ele><time>2026-04-07T15:02:14.354Z</time></trkpt><trkpt lat="39.0520617" lon="16.52034"><ele>990.0</ele><time>2026-04-07T15:02:15.354Z</time></trkpt><trkpt lat="39.0523083" lon="16.520285"><ele>990.0</ele><time>2026-04-07T15:02:16.355Z</time></trkpt><trkpt lat="39.0525567" lon="16.5202483"><ele>998.0</ele><time>2026-04-07T15:02:17.355Z</time></trkpt><trkpt lat="39.0528083" lon="16.5202133"><ele>1006.0</ele><time>2026-04-07T15:02:18.354Z</time></trkpt><trkpt lat="39.0530483" lon="16.520175"><ele>1006.0</ele><time>2026-04-07T15:02:19.355Z</time></trkpt><trkpt lat="39.0532883" lon="16.5201167"><ele>1006.0</ele><time>2026-04-07T15:02:20.354Z</time></trkpt><trkpt lat="39.0535183" lon="16.5200283"><ele>1011.0</ele><time>2026-04-07T15:02:21.354Z</time></trkpt><trkpt lat="39.0537517" lon="16.51995"><ele>1016.0</ele><time>2026-04-07T15:02:22.354Z</time></trkpt><trkpt lat="39.0539683" lon="16.51985"><ele>1023.0</ele><time>2026-04-07T15:02:23.354Z</time></trkpt><trkpt lat="39.054185" lon="16.5197383"><ele>1030.0</ele><time>2026-04-07T15:02:24.354Z</time></trkpt><trkpt lat="39.0544033" lon="16.51963"><ele>1013.5</ele><time>2026-04-07T15:02:25.354Z</time></trkpt><trkpt lat="39.0546217" lon="16.5195333"><ele>997.0</ele><time>2026-04-07T15:02:26.354Z</time></trkpt><trkpt lat="39.0548383" lon="16.5194433"><ele>1002.6666666666666</ele><time>2026-04-07T15:02:27.354Z</time></trkpt><trkpt lat="39.0550467" lon="16.5193617"><ele>1008.3333333333333</ele><time>2026-04-07T15:02:28.354Z</time></trkpt><trkpt lat="39.05525" lon="16.5192733"><ele>1014.0</ele><time>2026-04-07T15:02:29.354Z</time></trkpt><trkpt lat="39.0554633" lon="16.5192"><ele>1014.0</ele><time>2026-04-07T15:02:30.355Z</time></trkpt><trkpt lat="39.05566" lon="16.5191367"><ele>1014.0</ele><time>2026-04-07T15:02:31.355Z</time></trkpt><trkpt lat="39.0558433" lon="16.519085"><ele>1014.0</ele><time>2026-04-07T15:02:32.354Z</time></trkpt><trkpt lat="39.0560083" lon="16.519005"><ele>1008.3333333333333</ele><time>2026-04-07T15:02:33.354Z</time></trkpt><trkpt lat="39.05616" lon="16.5188817"><ele>1002.6666666666666</ele><time>2026-04-07T15:02:34.355Z</time></trkpt><trkpt lat="39.05628" lon="16.5187333"><ele>997.0</ele><time>2026-04-07T15:02:35.354Z</time></trkpt><trkpt lat="39.0563833" lon="16.5185583"><ele>997.0</ele><time>2026-04-07T15:02:36.355Z</time></trkpt><trkpt lat="39.0564783" lon="16.5183683"><ele>997.0</ele><time>2026-04-07T15:02:37.355Z</time></trkpt><trkpt lat="39.056575" lon="16.51818"><ele>997.0</ele><time>2026-04-07T15:02:38.354Z</time></trkpt><trkpt lat="39.0566917" lon="16.518015"><ele>1004.0</ele><time>2026-04-07T15:02:39.354Z</time></trkpt><trkpt lat="39.05682" lon="16.517865"><ele>1011.0</ele><time>2026-04-07T15:02:40.355Z</time></trkpt><trkpt lat="39.0569633" lon="16.517705"><ele>1018.0</ele><time>2026-04-07T15:02:41.355Z</time></trkpt><trkpt lat="39.057095" lon="16.51754"><ele>1018.0</ele><time>2026-04-07T15:02:42.354Z</time></trkpt><trkpt lat="39.05723" lon="16.5173867"><ele>1018.0</ele><time>2026-04-07T15:02:43.355Z</time></trkpt><trkpt lat="39.0573567" lon="16.517265"><ele>1018.0</ele><time>2026-04-07T15:02:44.355Z</time></trkpt><trkpt lat="39.0574783" lon="16.5171567"><ele>1026.5</ele><time>2026-04-07T15:02:45.354Z</time></trkpt><trkpt lat="39.0576067" lon="16.5171017"><ele>1035.0</ele><time>2026-04-07T15:02:46.354Z</time></trkpt><trkpt lat="39.0577383" lon="16.5170933"><ele>1043.5</ele><time>2026-04-07T15:02:47.355Z</time></trkpt><trkpt lat="39.0578683" lon="16.51713"><ele>1052.0</ele><time>2026-04-07T15:02:48.355Z</time></trkpt><trkpt lat="39.0579967" lon="16.5171617"><ele>1052.0</ele><time>2026-04-07T15:02:49.355Z</time></trkpt><trkpt lat="39.0581233" lon="16.5172017"><ele>1052.0</ele><time>2026-04-07T15:02:50.354Z</time></trkpt><trkpt lat="39.0582433" lon="16.5171917"><ele>1052.0</ele><time>2026-04-07T15:02:51.355Z</time></trkpt><trkpt lat="39.0583833" lon="16.5171533"><ele>1052.0</ele><time>2026-04-07T15:02:52.355Z</time></trkpt><trkpt lat="39.05853" lon="16.517075"><ele>1043.6666666666667</ele><time>2026-04-07T15:02:53.354Z</time></trkpt><trkpt lat="39.0586833" lon="16.516965"><ele>1035.3333333333333</ele><time>2026-04-07T15:02:54.355Z</time></trkpt><trkpt lat="39.058835" lon="16.5168683"><ele>1027.0</ele><time>2026-04-07T15:02:55.354Z</time></trkpt><trkpt lat="39.0589717" lon="16.5168133"><ele>1027.0</ele><time>2026-04-07T15:02:56.354Z</time></trkpt><trkpt lat="39.0591083" lon="16.5168"><ele>1027.0</ele><time>2026-04-07T15:02:57.355Z</time></trkpt><trkpt lat="39.059245" lon="16.5168267"><ele>1027.0</ele><time>2026-04-07T15:02:58.354Z</time></trkpt><trkpt lat="39.0593783" lon="16.5169183"><ele>1027.0</ele><time>2026-04-07T15:02:59.354Z</time></trkpt><trkpt lat="39.0595283" lon="16.5170917"><ele>1043.0</ele><time>2026-04-07T15:03:00.354Z</time></trkpt><trkpt lat="39.0596933" lon="16.5172767"><ele>1059.0</ele><time>2026-04-07T15:03:01.355Z</time></trkpt><trkpt lat="39.0598133" lon="16.5174267"><ele>1075.0</ele><time>2026-04-07T15:03:02.354Z</time></trkpt><trkpt lat="39.0599267" lon="16.51759"><ele>1077.3333333333333</ele><time>2026-04-07T15:03:03.355Z</time></trkpt><trkpt lat="39.060015" lon="16.5177667"><ele>1079.6666666666667</ele><time>2026-04-07T15:03:04.355Z</time></trkpt><trkpt lat="39.0600917" lon="16.51797"><ele>1082.0</ele><time>2026-04-07T15:03:05.354Z</time></trkpt><trkpt lat="39.0601633" lon="16.5181617"><ele>1082.0</ele><time>2026-04-07T15:03:06.354Z</time></trkpt><trkpt lat="39.0602517" lon="16.5183467"><ele>1082.0</ele><time>2026-04-07T15:03:07.354Z</time></trkpt><trkpt lat="39.0603517" lon="16.518515"><ele>1082.0</ele><time>2026-04-07T15:03:08.354Z</time></trkpt><trkpt lat="39.0604917" lon="16.5186633"><ele>1080.6666666666667</ele><time>2026-04-07T15:03:09.355Z</time></trkpt><trkpt lat="39.0606567" lon="16.5188033"><ele>1079.3333333333333</ele><time>2026-04-07T15:03:10.354Z</time></trkpt><trkpt lat="39.0608417" lon="16.5189317"><ele>1078.0</ele><time>2026-04-07T15:03:11.354Z</time></trkpt><trkpt lat="39.0610083" lon="16.5190367"><ele>1078.0</ele><time>2026-04-07T15:03:12.355Z</time></trkpt><trkpt lat="39.0611883" lon="16.5191633"><ele>1078.0</ele><time>2026-04-07T15:03:13.355Z</time></trkpt><trkpt lat="39.0613617" lon="16.5192833"><ele>1078.0</ele><time>2026-04-07T15:03:14.355Z</time></trkpt><trkpt lat="39.0615467" lon="16.51939"><ele>1072.0</ele><time>2026-04-07T15:03:15.354Z</time></trkpt><trkpt lat="39.0617083" lon="16.519485"><ele>1066.0</ele><time>2026-04-07T15:03:16.355Z</time></trkpt><trkpt lat="39.06185" lon="16.5195667"><ele>1060.0</ele><time>2026-04-07T15:03:17.354Z</time></trkpt><trkpt lat="39.0619917" lon="16.519615"><ele>1060.0</ele><time>2026-04-07T15:03:18.354Z</time></trkpt><trkpt lat="39.062145" lon="16.5196233"><ele>1060.0</ele><time>2026-04-07T15:03:19.354Z</time></trkpt><trkpt lat="39.0622917" lon="16.519625"><ele>1060.0</ele><time>2026-04-07T15:03:20.354Z</time></trkpt><trkpt lat="39.0624233" lon="16.5195367"><ele>1060.0</ele><time>2026-04-07T15:03:21.355Z</time></trkpt><trkpt lat="39.0625383" lon="16.5193867"><ele>1062.6666666666665</ele><time>2026-04-07T15:03:22.355Z</time></trkpt><trkpt lat="39.062635" lon="16.5192017"><ele>1065.3333333333333</ele><time>2026-04-07T15:03:23.355Z</time></trkpt><trkpt lat="39.0627217" lon="16.5189983"><ele>1068.0</ele><time>2026-04-07T15:03:24.355Z</time></trkpt><trkpt lat="39.0628083" lon="16.5188167"><ele>1062.75</ele><time>2026-04-07T15:03:25.354Z</time></trkpt><trkpt lat="39.0628933" lon="16.5186667"><ele>1057.5</ele><time>2026-04-07T15:03:26.354Z</time></trkpt><trkpt lat="39.0629967" lon="16.5185583"><ele>1052.25</ele><time>2026-04-07T15:03:27.355Z</time></trkpt><trkpt lat="39.0631033" lon="16.5184967"><ele>1047.0</ele><time>2026-04-07T15:03:28.355Z</time></trkpt><trkpt lat="39.0631967" lon="16.5184667"><ele>1051.0</ele><time>2026-04-07T15:03:29.355Z</time></trkpt><trkpt lat="39.0633217" lon="16.5184967"><ele>1055.0</ele><time>2026-04-07T15:03:30.354Z</time></trkpt><trkpt lat="39.0634633" lon="16.5185567"><ele>1059.0</ele><time>2026-04-07T15:03:31.355Z</time></trkpt><trkpt lat="39.063605" lon="16.5186333"><ele>1063.0</ele><time>2026-04-07T15:03:32.354Z</time></trkpt><trkpt lat="39.0637633" lon="16.518725"><ele>1064.75</ele><time>2026-04-07T15:03:33.354Z</time></trkpt><trkpt lat="39.0638933" lon="16.518765"><ele>1066.5</ele><time>2026-04-07T15:03:34.355Z</time></trkpt><trkpt lat="39.06402" lon="16.518755"><ele>1068.25</ele><time>2026-04-07T15:03:35.354Z</time></trkpt><trkpt lat="39.0641583" lon="16.5187183"><ele>1070.0</ele><time>2026-04-07T15:03:36.355Z</time></trkpt><trkpt lat="39.064285" lon="16.5186033"><ele>1070.0</ele><time>2026-04-07T15:03:37.354Z</time></trkpt><trkpt lat="39.0643983" lon="16.5184517"><ele>1070.0</ele><time>2026-04-07T15:03:38.354Z</time></trkpt><trkpt lat="39.0645233" lon="16.518285"><ele>1070.0</ele><time>2026-04-07T15:03:39.354Z</time></trkpt><trkpt lat="39.064635" lon="16.5181033"><ele>1070.0</ele><time>2026-04-07T15:03:40.354Z</time></trkpt><trkpt lat="39.0647617" lon="16.51795"><ele>1070.0</ele><time>2026-04-07T15:03:41.354Z</time></trkpt><trkpt lat="39.0648817" lon="16.5178167"><ele>1070.0</ele><time>2026-04-07T15:03:42.354Z</time></trkpt><trkpt lat="39.0649683" lon="16.51765"><ele>1072.5</ele><time>2026-04-07T15:03:43.354Z</time></trkpt><trkpt lat="39.065015" lon="16.5174633"><ele>1075.0</ele><time>2026-04-07T15:03:44.355Z</time></trkpt><trkpt lat="39.0650417" lon="16.5172817"><ele>1077.5</ele><time>2026-04-07T15:03:45.355Z</time></trkpt><trkpt lat="39.06504" lon="16.51709"><ele>1080.0</ele><time>2026-04-07T15:03:46.355Z</time></trkpt><trkpt lat="39.0650033" lon="16.5168967"><ele>1080.0</ele><time>2026-04-07T15:03:47.355Z</time></trkpt><trkpt lat="39.0649583" lon="16.5167183"><ele>1080.0</ele><time>2026-04-07T15:03:48.354Z</time></trkpt><trkpt lat="39.06495" lon="16.516565"><ele>1080.0</ele><time>2026-04-07T15:03:49.355Z</time></trkpt><trkpt lat="39.06497" lon="16.51641"><ele>1080.0</ele><time>2026-04-07T15:03:50.355Z</time></trkpt><trkpt lat="39.06501" lon="16.5162533"><ele>1076.5</ele><time>2026-04-07T15:03:51.355Z</time></trkpt><trkpt lat="39.06508" lon="16.5161167"><ele>1073.0</ele><time>2026-04-07T15:03:52.354Z</time></trkpt><trkpt lat="39.065185" lon="16.5160367"><ele>1069.5</ele><time>2026-04-07T15:03:53.355Z</time></trkpt><trkpt lat="39.0653" lon="16.5159667"><ele>1066.0</ele><time>2026-04-07T15:03:54.355Z</time></trkpt><trkpt lat="39.0654067" lon="16.5158917"><ele>1066.0</ele><time>2026-04-07T15:03:55.354Z</time></trkpt><trkpt lat="39.0655433" lon="16.5158417"><ele>1066.0</ele><time>2026-04-07T15:03:56.355Z</time></trkpt><trkpt lat="39.0656917" lon="16.5157967"><ele>1066.0</ele><time>2026-04-07T15:03:57.355Z</time></trkpt><trkpt lat="39.0658483" lon="16.5157633"><ele>1069.6666666666665</ele><time>2026-04-07T15:03:58.354Z</time></trkpt><trkpt lat="39.0660217" lon="16.5157467"><ele>1073.3333333333333</ele><time>2026-04-07T15:03:59.354Z</time></trkpt><trkpt lat="39.0661867" lon="16.51575"><ele>1077.0</ele><time>2026-04-07T15:04:00.354Z</time></trkpt><trkpt lat="39.06636" lon="16.5157517"><ele>1077.0</ele><time>2026-04-07T15:04:01.355Z</time></trkpt><trkpt lat="39.0665267" lon="16.5157417"><ele>1077.0</ele><time>2026-04-07T15:04:02.355Z</time></trkpt><trkpt lat="39.0666867" lon="16.515695"><ele>1077.0</ele><time>2026-04-07T15:04:03.355Z</time></trkpt><trkpt lat="39.066835" lon="16.5156067"><ele>1079.0</ele><time>2026-04-07T15:04:04.354Z</time></trkpt><trkpt lat="39.0669867" lon="16.5155"><ele>1081.0</ele><time>2026-04-07T15:04:05.354Z</time></trkpt><trkpt lat="39.0671567" lon="16.51539"><ele>1083.0</ele><time>2026-04-07T15:04:06.355Z</time></trkpt><trkpt lat="39.0673133" lon="16.5152933"><ele>1077.6666666666667</ele><time>2026-04-07T15:04:07.354Z</time></trkpt><trkpt lat="39.06748" lon="16.51519"><ele>1072.3333333333335</ele><time>2026-04-07T15:04:08.355Z</time></trkpt><trkpt lat="39.0676483" lon="16.51509"><ele>1067.0</ele><time>2026-04-07T15:04:09.355Z</time></trkpt><trkpt lat="39.0678117" lon="16.5150183"><ele>1067.0</ele><time>2026-04-07T15:04:10.355Z</time></trkpt><trkpt lat="39.06796" lon="16.51494"><ele>1067.0</ele><time>2026-04-07T15:04:11.355Z</time></trkpt><trkpt lat="39.06811" lon="16.514845"><ele>1067.0</ele><time>2026-04-07T15:04:12.355Z</time></trkpt><trkpt lat="39.068255" lon="16.5147517"><ele>1069.0</ele><time>2026-04-07T15:04:13.354Z</time></trkpt><trkpt lat="39.068385" lon="16.5146767"><ele>1071.0</ele><time>2026-04-07T15:04:14.355Z</time></trkpt><trkpt lat="39.0685083" lon="16.5146317"><ele>1073.0</ele><time>2026-04-07T15:04:15.354Z</time></trkpt><trkpt lat="39.0686367" lon="16.514615"><ele>1075.0</ele><time>2026-04-07T15:04:16.355Z</time></trkpt><trkpt lat="39.0687567" lon="16.5146267"><ele>1075.0</ele><time>2026-04-07T15:04:17.355Z</time></trkpt><trkpt lat="39.0688917" lon="16.5146667"><ele>1075.0</ele><time>2026-04-07T15:04:18.354Z</time></trkpt><trkpt lat="39.0690317" lon="16.5147367"><ele>1075.0</ele><time>2026-04-07T15:04:19.355Z</time></trkpt><trkpt lat="39.0691667" lon="16.514805"><ele>1075.0</ele><time>2026-04-07T15:04:20.354Z</time></trkpt><trkpt lat="39.06931" lon="16.5148517"><ele>1076.3333333333333</ele><time>2026-04-07T15:04:21.355Z</time></trkpt><trkpt lat="39.0694617" lon="16.51492"><ele>1077.6666666666667</ele><time>2026-04-07T15:04:22.355Z</time></trkpt><trkpt lat="39.0696217" lon="16.5149883"><ele>1079.0</ele><time>2026-04-07T15:04:23.355Z</time></trkpt><trkpt lat="39.0697867" lon="16.5150667"><ele>1075.3333333333335</ele><time>2026-04-07T15:04:24.354Z</time></trkpt><trkpt lat="39.0699483" lon="16.5151133"><ele>1071.6666666666667</ele><time>2026-04-07T15:04:25.355Z</time></trkpt><trkpt lat="39.0700983" lon="16.5151183"><ele>1068.0</ele><time>2026-04-07T15:04:26.354Z</time></trkpt><trkpt lat="39.0702483" lon="16.515065"><ele>1068.0</ele><time>2026-04-07T15:04:27.354Z</time></trkpt><trkpt lat="39.0703633" lon="16.5149583"><ele>1068.0</ele><time>2026-04-07T15:04:28.354Z</time></trkpt><trkpt lat="39.0704817" lon="16.5148367"><ele>1068.0</ele><time>2026-04-07T15:04:29.354Z</time></trkpt><trkpt lat="39.070615" lon="16.5147167"><ele>1068.0</ele><time>2026-04-07T15:04:30.355Z</time></trkpt><trkpt lat="39.0707483" lon="16.51459"><ele>1068.0</ele><time>2026-04-07T15:04:31.354Z</time></trkpt><trkpt lat="39.0708883" lon="16.514515"><ele>1068.0</ele><time>2026-04-07T15:04:32.355Z</time></trkpt><trkpt lat="39.071025" lon="16.5144733"><ele>1066.0</ele><time>2026-04-07T15:04:33.354Z</time></trkpt><trkpt lat="39.0711683" lon="16.51446"><ele>1064.0</ele><time>2026-04-07T15:04:34.354Z</time></trkpt><trkpt lat="39.0713233" lon="16.514475"><ele>1062.0</ele><time>2026-04-07T15:04:35.355Z</time></trkpt><trkpt lat="39.0714733" lon="16.5145067"><ele>1069.0</ele><time>2026-04-07T15:04:36.354Z</time></trkpt><trkpt lat="39.0716483" lon="16.51459"><ele>1076.0</ele><time>2026-04-07T15:04:37.354Z</time></trkpt><trkpt lat="39.0717933" lon="16.5146067"><ele>1083.0</ele><time>2026-04-07T15:04:38.355Z</time></trkpt><trkpt lat="39.0719417" lon="16.5145867"><ele>1078.6666666666667</ele><time>2026-04-07T15:04:39.355Z</time></trkpt><trkpt lat="39.072095" lon="16.51455"><ele>1074.3333333333335</ele><time>2026-04-07T15:04:40.355Z</time></trkpt><trkpt lat="39.0722767" lon="16.5144783"><ele>1070.0</ele><time>2026-04-07T15:04:41.354Z</time></trkpt><trkpt lat="39.0726117" lon="16.5142933"><ele>1070.0</ele><time>2026-04-07T15:04:43.355Z</time></trkpt><trkpt lat="39.0727833" lon="16.5141933"><ele>1070.0</ele><time>2026-04-07T15:04:44.355Z</time></trkpt><trkpt lat="39.0729383" lon="16.5140967"><ele>1070.0</ele><time>2026-04-07T15:04:45.354Z</time></trkpt><trkpt lat="39.0730983" lon="16.514025"><ele>1070.0</ele><time>2026-04-07T15:04:46.355Z</time></trkpt><trkpt lat="39.07325" lon="16.5139667"><ele>1070.0</ele><time>2026-04-07T15:04:47.354Z</time></trkpt><trkpt lat="39.073395" lon="16.5139383"><ele>1070.0</ele><time>2026-04-07T15:04:48.354Z</time></trkpt><trkpt lat="39.0735133" lon="16.513915"><ele>1070.0</ele><time>2026-04-07T15:04:49.354Z</time></trkpt><trkpt lat="39.0736367" lon="16.513895"><ele>1071.5</ele><time>2026-04-07T15:04:50.354Z</time></trkpt><trkpt lat="39.0737467" lon="16.51387"><ele>1073.0</ele><time>2026-04-07T15:04:51.355Z</time></trkpt><trkpt lat="39.0738533" lon="16.5138283"><ele>1074.5</ele><time>2026-04-07T15:04:52.355Z</time></trkpt><trkpt lat="39.0739583" lon="16.5137667"><ele>1076.0</ele><time>2026-04-07T15:04:53.355Z</time></trkpt><trkpt lat="39.0740567" lon="16.5136817"><ele>1074.0</ele><time>2026-04-07T15:04:54.355Z</time></trkpt><trkpt lat="39.0741383" lon="16.513585"><ele>1072.0</ele><time>2026-04-07T15:04:55.355Z</time></trkpt><trkpt lat="39.0742033" lon="16.5135"><ele>1070.0</ele><time>2026-04-07T15:04:56.355Z</time></trkpt><trkpt lat="39.0742583" lon="16.5134383"><ele>1068.0</ele><time>2026-04-07T15:04:57.354Z</time></trkpt><trkpt lat="39.0743317" lon="16.51335"><ele>1066.0</ele><time>2026-04-07T15:04:59.354Z</time></trkpt><trkpt lat="39.0744067" lon="16.5133383"><ele>1066.0</ele><time>2026-04-07T15:05:01.355Z</time></trkpt><trkpt lat="39.0744583" lon="16.513435"><ele>1066.0</ele><time>2026-04-07T15:05:04.354Z</time></trkpt><trkpt lat="39.0744933" lon="16.5135367"><ele>1066.0</ele><time>2026-04-07T15:05:06.354Z</time></trkpt><trkpt lat="39.0745367" lon="16.5135983"><ele>1066.0</ele><time>2026-04-07T15:05:08.354Z</time></trkpt><trkpt lat="39.0746633" lon="16.5136117"><ele>1066.0</ele><time>2026-04-07T15:07:15.356Z</time></trkpt><trkpt lat="39.0743667" lon="16.5136717"><ele>1066.0</ele><time>2026-04-07T15:07:40.358Z</time></trkpt><trkpt lat="39.07436" lon="16.513535"><ele>1066.0</ele><time>2026-04-07T15:07:42.358Z</time></trkpt><trkpt lat="39.0745167" lon="16.5136017"><ele>1066.0</ele><time>2026-04-07T15:07:58.358Z</time></trkpt><trkpt lat="39.0744717" lon="16.51368"><ele>1066.0</ele><time>2026-04-07T15:08:12.358Z</time></trkpt><trkpt lat="39.0743633" lon="16.5137517"><ele>1070.0</ele><time>2026-04-07T15:08:17.359Z</time></trkpt><trkpt lat="39.074475" lon="16.5135567"><ele>1066.0</ele><time>2026-04-07T15:08:30.358Z</time></trkpt></trkseg></trk></gpx>